<?xml version="1.0" encoding="UTF-8" standalone="no" ?>
<gpx xmlns="http://www.topografix.com/GPX/1/1" creator="MapSource 6.16.1" version="1.1" xmlns:xsi="http://www.w3.org/2001/XMLSchema-instance" xsi:schemaLocation="http://www.topografix.com/GPX/1/1 http://www.topografix.com/GPX/1/1/gpx.xsd">

  <metadata>
    <link href="http://www.garmin.com">
      <text>Garmin International</text>
    </link>
    <time>2010-06-14T13:40:23Z</time>
    <bounds maxlat="45.915627032518387" maxlon="9.108086032792926" minlat="45.858907029032707" minlon="9.02765697799623"/>
  </metadata>

  <trk>
    <name>Val di Muggio/Bisbino</name>
    <extensions>
      <gpxx:TrackExtension xmlns:gpxx="http://www.garmin.com/xmlschemas/GpxExtensions/v3">
        <gpxx:DisplayColor>Red</gpxx:DisplayColor>
      </gpxx:TrackExtension>
    </extensions>
    <trkseg>
      <trkpt lat="45.866531040519476" lon="9.031472001224756">
        <ele>540</ele>
        <time>2010-06-13T07:08:22Z</time>
      </trkpt>
      <trkpt lat="45.866548977792263" lon="9.031497985124588">
        <ele>540</ele>
        <time>2010-06-13T07:08:23Z</time>
      </trkpt>
      <trkpt lat="45.866566998884082" lon="9.031510977074504">
        <ele>540</ele>
        <time>2010-06-13T07:08:24Z</time>
      </trkpt>
      <trkpt lat="45.866586025804281" lon="9.03152396902442">
        <ele>540</ele>
        <time>2010-06-13T07:08:25Z</time>
      </trkpt>
      <trkpt lat="45.866603041067719" lon="9.031536038964987">
        <ele>540</ele>
        <time>2010-06-13T07:08:26Z</time>
      </trkpt>
      <trkpt lat="45.866620978340507" lon="9.031549030914903">
        <ele>540</ele>
        <time>2010-06-13T07:08:27Z</time>
      </trkpt>
      <trkpt lat="45.866638999432325" lon="9.031549030914903">
        <ele>540</ele>
        <time>2010-06-13T07:08:28Z</time>
      </trkpt>
      <trkpt lat="45.866657020524144" lon="9.031549030914903">
        <ele>540</ele>
        <time>2010-06-13T07:08:29Z</time>
      </trkpt>
      <trkpt lat="45.866665989160538" lon="9.031549030914903">
        <ele>540</ele>
        <time>2010-06-13T07:08:30Z</time>
      </trkpt>
      <trkpt lat="45.866684010252357" lon="9.031549030914903">
        <ele>540</ele>
        <time>2010-06-13T07:08:31Z</time>
      </trkpt>
      <trkpt lat="45.866702031344175" lon="9.031562022864819">
        <ele>540</ele>
        <time>2010-06-13T07:08:32Z</time>
      </trkpt>
      <trkpt lat="45.866720974445343" lon="9.031562022864819">
        <ele>540</ele>
        <time>2010-06-13T07:08:33Z</time>
      </trkpt>
      <trkpt lat="45.866765985265374" lon="9.031562022864819">
        <ele>540</ele>
        <time>2010-06-13T07:08:35Z</time>
      </trkpt>
      <trkpt lat="45.866791969165206" lon="9.031549030914903">
        <ele>540</ele>
        <time>2010-06-13T07:08:36Z</time>
      </trkpt>
      <trkpt lat="45.866810996085405" lon="9.031549030914903">
        <ele>540</ele>
        <time>2010-06-13T07:08:37Z</time>
      </trkpt>
      <trkpt lat="45.866863969713449" lon="9.031562022864819">
        <ele>540</ele>
        <time>2010-06-13T07:08:39Z</time>
      </trkpt>
      <trkpt lat="45.866901017725468" lon="9.031549030914903">
        <ele>540</ele>
        <time>2010-06-13T07:08:40Z</time>
      </trkpt>
      <trkpt lat="45.866946028545499" lon="9.031550036743283">
        <ele>540</ele>
        <time>2010-06-13T07:08:41Z</time>
      </trkpt>
      <trkpt lat="45.866972012445331" lon="9.031536960974336">
        <ele>539</ele>
        <time>2010-06-13T07:08:42Z</time>
      </trkpt>
      <trkpt lat="45.867008976638317" lon="9.031536960974336">
        <ele>539</ele>
        <time>2010-06-13T07:08:43Z</time>
      </trkpt>
      <trkpt lat="45.867044012993574" lon="9.03152396902442">
        <ele>539</ele>
        <time>2010-06-13T07:08:44Z</time>
      </trkpt>
      <trkpt lat="45.867080977186561" lon="9.03152396902442">
        <ele>539</ele>
        <time>2010-06-13T07:08:45Z</time>
      </trkpt>
      <trkpt lat="45.867106961086392" lon="9.031510977074504">
        <ele>539</ele>
        <time>2010-06-13T07:08:46Z</time>
      </trkpt>
      <trkpt lat="45.867144009098411" lon="9.031510977074504">
        <ele>539</ele>
        <time>2010-06-13T07:08:47Z</time>
      </trkpt>
      <trkpt lat="45.867178961634636" lon="9.031497985124588">
        <ele>539</ele>
        <time>2010-06-13T07:08:48Z</time>
      </trkpt>
      <trkpt lat="45.867223972454667" lon="9.031484993174672">
        <ele>539</ele>
        <time>2010-06-13T07:08:49Z</time>
      </trkpt>
      <trkpt lat="45.867261020466685" lon="9.031484993174672">
        <ele>539</ele>
        <time>2010-06-13T07:08:50Z</time>
      </trkpt>
      <trkpt lat="45.867306031286716" lon="9.031472001224756">
        <ele>539</ele>
        <time>2010-06-13T07:08:51Z</time>
      </trkpt>
      <trkpt lat="45.867359004914761" lon="9.031485999003053">
        <ele>539</ele>
        <time>2010-06-13T07:08:52Z</time>
      </trkpt>
      <trkpt lat="45.867404015734792" lon="9.031497985124588">
        <ele>539</ele>
        <time>2010-06-13T07:08:53Z</time>
      </trkpt>
      <trkpt lat="45.867459001019597" lon="9.031510977074504">
        <ele>539</ele>
        <time>2010-06-13T07:08:54Z</time>
      </trkpt>
      <trkpt lat="45.867511974647641" lon="9.031536960974336">
        <ele>539</ele>
        <time>2010-06-13T07:08:55Z</time>
      </trkpt>
      <trkpt lat="45.867556985467672" lon="9.031563028693199">
        <ele>539</ele>
        <time>2010-06-13T07:08:56Z</time>
      </trkpt>
      <trkpt lat="45.867610964924097" lon="9.031589012593031">
        <ele>539</ele>
        <time>2010-06-13T07:08:57Z</time>
      </trkpt>
      <trkpt lat="45.867647007107735" lon="9.031626982614398">
        <ele>538</ele>
        <time>2010-06-13T07:08:58Z</time>
      </trkpt>
      <trkpt lat="45.867683971300721" lon="9.03165296651423">
        <ele>538</ele>
        <time>2010-06-13T07:08:59Z</time>
      </trkpt>
      <trkpt lat="45.867719007655978" lon="9.031692026183009">
        <ele>538</ele>
        <time>2010-06-13T07:09:00Z</time>
      </trkpt>
      <trkpt lat="45.867745997384191" lon="9.03171700425446">
        <ele>538</ele>
        <time>2010-06-13T07:09:01Z</time>
      </trkpt>
      <trkpt lat="45.867764018476009" lon="9.031755980104208">
        <ele>538</ele>
        <time>2010-06-13T07:09:02Z</time>
      </trkpt>
      <trkpt lat="45.867791008204222" lon="9.031795039772987">
        <ele>538</ele>
        <time>2010-06-13T07:09:03Z</time>
      </trkpt>
      <trkpt lat="45.867854040116072" lon="9.031871985644102">
        <ele>539</ele>
        <time>2010-06-13T07:09:05Z</time>
      </trkpt>
      <trkpt lat="45.867871977388859" lon="9.03191096149385">
        <ele>539</ele>
        <time>2010-06-13T07:09:06Z</time>
      </trkpt>
      <trkpt lat="45.867898967117071" lon="9.031949015334249">
        <ele>539</ele>
        <time>2010-06-13T07:09:07Z</time>
      </trkpt>
      <trkpt lat="45.867908019572496" lon="9.032000983133912">
        <ele>539</ele>
        <time>2010-06-13T07:09:08Z</time>
      </trkpt>
      <trkpt lat="45.86791698820889" lon="9.03203995898366">
        <ele>538</ele>
        <time>2010-06-13T07:09:09Z</time>
      </trkpt>
      <trkpt lat="45.867926040664315" lon="9.032091004773974">
        <ele>539</ele>
        <time>2010-06-13T07:09:10Z</time>
      </trkpt>
      <trkpt lat="45.867935009300709" lon="9.032142972573638">
        <ele>539</ele>
        <time>2010-06-13T07:09:11Z</time>
      </trkpt>
      <trkpt lat="45.867943977937102" lon="9.032181026414037">
        <ele>539</ele>
        <time>2010-06-13T07:09:12Z</time>
      </trkpt>
      <trkpt lat="45.867953030392528" lon="9.0322329942137">
        <ele>539</ele>
        <time>2010-06-13T07:09:13Z</time>
      </trkpt>
      <trkpt lat="45.867961999028921" lon="9.032284040004015">
        <ele>539</ele>
        <time>2010-06-13T07:09:14Z</time>
      </trkpt>
      <trkpt lat="45.867970967665315" lon="9.032323015853763">
        <ele>539</ele>
        <time>2010-06-13T07:09:15Z</time>
      </trkpt>
      <trkpt lat="45.86798002012074" lon="9.03236199170351">
        <ele>539</ele>
        <time>2010-06-13T07:09:16Z</time>
      </trkpt>
      <trkpt lat="45.867998041212559" lon="9.032400967553258">
        <ele>539</ele>
        <time>2010-06-13T07:09:17Z</time>
      </trkpt>
      <trkpt lat="45.868015978485346" lon="9.032439021393657">
        <ele>539</ele>
        <time>2010-06-13T07:09:18Z</time>
      </trkpt>
      <trkpt lat="45.868042968213558" lon="9.032477997243404">
        <ele>539</ele>
        <time>2010-06-13T07:09:19Z</time>
      </trkpt>
      <trkpt lat="45.868070041760802" lon="9.032503981143236">
        <ele>539</ele>
        <time>2010-06-13T07:09:20Z</time>
      </trkpt>
      <trkpt lat="45.868097031489015" lon="9.032528959214687">
        <ele>539</ele>
        <time>2010-06-13T07:09:21Z</time>
      </trkpt>
      <trkpt lat="45.868124021217227" lon="9.032542034983635">
        <ele>539</ele>
        <time>2010-06-13T07:09:22Z</time>
      </trkpt>
      <trkpt lat="45.868159979581833" lon="9.032555026933551">
        <ele>540</ele>
        <time>2010-06-13T07:09:23Z</time>
      </trkpt>
      <trkpt lat="45.868186969310045" lon="9.032555026933551">
        <ele>540</ele>
        <time>2010-06-13T07:09:24Z</time>
      </trkpt>
      <trkpt lat="45.868223011493683" lon="9.032555026933551">
        <ele>540</ele>
        <time>2010-06-13T07:09:25Z</time>
      </trkpt>
      <trkpt lat="45.868250001221895" lon="9.032568018883467">
        <ele>540</ele>
        <time>2010-06-13T07:09:26Z</time>
      </trkpt>
      <trkpt lat="45.868276990950108" lon="9.032555026933551">
        <ele>541</ele>
        <time>2010-06-13T07:09:27Z</time>
      </trkpt>
      <trkpt lat="45.86830398067832" lon="9.032555026933551">
        <ele>541</ele>
        <time>2010-06-13T07:09:28Z</time>
      </trkpt>
      <trkpt lat="45.868340022861958" lon="9.032555026933551">
        <ele>541</ele>
        <time>2010-06-13T07:09:29Z</time>
      </trkpt>
      <trkpt lat="45.86836701259017" lon="9.032555026933551">
        <ele>541</ele>
        <time>2010-06-13T07:09:30Z</time>
      </trkpt>
      <trkpt lat="45.868402970954776" lon="9.032542034983635">
        <ele>541</ele>
        <time>2010-06-13T07:09:31Z</time>
      </trkpt>
      <trkpt lat="45.868429960682988" lon="9.032542034983635">
        <ele>540</ele>
        <time>2010-06-13T07:09:32Z</time>
      </trkpt>
      <trkpt lat="45.868457034230232" lon="9.032542034983635">
        <ele>540</ele>
        <time>2010-06-13T07:09:33Z</time>
      </trkpt>
      <trkpt lat="45.868484023958445" lon="9.032542034983635">
        <ele>540</ele>
        <time>2010-06-13T07:09:34Z</time>
      </trkpt>
      <trkpt lat="45.86851998232305" lon="9.032529965043068">
        <ele>540</ele>
        <time>2010-06-13T07:09:35Z</time>
      </trkpt>
      <trkpt lat="45.868546972051263" lon="9.032529965043068">
        <ele>541</ele>
        <time>2010-06-13T07:09:36Z</time>
      </trkpt>
      <trkpt lat="45.868573961779475" lon="9.032529965043068">
        <ele>541</ele>
        <time>2010-06-13T07:09:37Z</time>
      </trkpt>
      <trkpt lat="45.868610003963113" lon="9.032529965043068">
        <ele>541</ele>
        <time>2010-06-13T07:09:38Z</time>
      </trkpt>
      <trkpt lat="45.868636993691325" lon="9.032516973093152">
        <ele>541</ele>
        <time>2010-06-13T07:09:39Z</time>
      </trkpt>
      <trkpt lat="45.868673035874963" lon="9.032516973093152">
        <ele>541</ele>
        <time>2010-06-13T07:09:40Z</time>
      </trkpt>
      <trkpt lat="45.868700025603175" lon="9.032529965043068">
        <ele>540</ele>
        <time>2010-06-13T07:09:41Z</time>
      </trkpt>
      <trkpt lat="45.868735983967781" lon="9.032543040812016">
        <ele>541</ele>
        <time>2010-06-13T07:09:42Z</time>
      </trkpt>
      <trkpt lat="45.868772026151419" lon="9.032543040812016">
        <ele>541</ele>
        <time>2010-06-13T07:09:43Z</time>
      </trkpt>
      <trkpt lat="45.868807984516025" lon="9.032556032761931">
        <ele>541</ele>
        <time>2010-06-13T07:09:44Z</time>
      </trkpt>
      <trkpt lat="45.868834974244237" lon="9.032569024711847">
        <ele>541</ele>
        <time>2010-06-13T07:09:45Z</time>
      </trkpt>
      <trkpt lat="45.868861963972449" lon="9.032594002783299">
        <ele>541</ele>
        <time>2010-06-13T07:09:46Z</time>
      </trkpt>
      <trkpt lat="45.868889037519693" lon="9.032632978633046">
        <ele>541</ele>
        <time>2010-06-13T07:09:47Z</time>
      </trkpt>
      <trkpt lat="45.86890697479248" lon="9.032658962532878">
        <ele>541</ele>
        <time>2010-06-13T07:09:48Z</time>
      </trkpt>
      <trkpt lat="45.868933964520693" lon="9.032697016373277">
        <ele>540</ele>
        <time>2010-06-13T07:09:49Z</time>
      </trkpt>
      <trkpt lat="45.868961038067937" lon="9.032723000273109">
        <ele>541</ele>
        <time>2010-06-13T07:09:50Z</time>
      </trkpt>
      <trkpt lat="45.868978975340724" lon="9.03274898417294">
        <ele>541</ele>
        <time>2010-06-13T07:09:51Z</time>
      </trkpt>
      <trkpt lat="45.869005965068936" lon="9.032774968072772">
        <ele>541</ele>
        <time>2010-06-13T07:09:52Z</time>
      </trkpt>
      <trkpt lat="45.86903303861618" lon="9.032813021913171">
        <ele>541</ele>
        <time>2010-06-13T07:09:53Z</time>
      </trkpt>
      <trkpt lat="45.869050975888968" lon="9.032851997762919">
        <ele>542</ele>
        <time>2010-06-13T07:09:54Z</time>
      </trkpt>
      <trkpt lat="45.869087018072605" lon="9.032890973612666">
        <ele>541</ele>
        <time>2010-06-13T07:09:55Z</time>
      </trkpt>
      <trkpt lat="45.869114007800817" lon="9.03291704133153">
        <ele>542</ele>
        <time>2010-06-13T07:09:56Z</time>
      </trkpt>
      <trkpt lat="45.86914099752903" lon="9.032955011352897">
        <ele>542</ele>
        <time>2010-06-13T07:09:57Z</time>
      </trkpt>
      <trkpt lat="45.869177039712667" lon="9.032993987202644">
        <ele>542</ele>
        <time>2010-06-13T07:09:58Z</time>
      </trkpt>
      <trkpt lat="45.86920402944088" lon="9.033019971102476">
        <ele>542</ele>
        <time>2010-06-13T07:09:59Z</time>
      </trkpt>
      <trkpt lat="45.869231019169092" lon="9.03304603882134">
        <ele>542</ele>
        <time>2010-06-13T07:10:00Z</time>
      </trkpt>
      <trkpt lat="45.869258008897305" lon="9.033058024942875">
        <ele>542</ele>
        <time>2010-06-13T07:10:01Z</time>
      </trkpt>
      <trkpt lat="45.869276029989123" lon="9.033084008842707">
        <ele>542</ele>
        <time>2010-06-13T07:10:02Z</time>
      </trkpt>
      <trkpt lat="45.86929396726191" lon="9.033084008842707">
        <ele>542</ele>
        <time>2010-06-13T07:10:03Z</time>
      </trkpt>
      <trkpt lat="45.869338978081942" lon="9.033084008842707">
        <ele>542</ele>
        <time>2010-06-13T07:10:05Z</time>
      </trkpt>
      <trkpt lat="45.86935699917376" lon="9.033058024942875">
        <ele>543</ele>
        <time>2010-06-13T07:10:06Z</time>
      </trkpt>
      <trkpt lat="45.86935699917376" lon="9.03304603882134">
        <ele>543</ele>
        <time>2010-06-13T07:10:07Z</time>
      </trkpt>
      <trkpt lat="45.869365967810154" lon="9.03300697915256">
        <ele>543</ele>
        <time>2010-06-13T07:10:08Z</time>
      </trkpt>
      <trkpt lat="45.869375020265579" lon="9.032968003302813">
        <ele>543</ele>
        <time>2010-06-13T07:10:09Z</time>
      </trkpt>
      <trkpt lat="45.869383988901973" lon="9.032929027453065">
        <ele>543</ele>
        <time>2010-06-13T07:10:10Z</time>
      </trkpt>
      <trkpt lat="45.869375020265579" lon="9.03287798166275">
        <ele>543</ele>
        <time>2010-06-13T07:10:11Z</time>
      </trkpt>
      <trkpt lat="45.869375020265579" lon="9.032839005813003">
        <ele>543</ele>
        <time>2010-06-13T07:10:12Z</time>
      </trkpt>
      <trkpt lat="45.869375020265579" lon="9.032787960022688">
        <ele>543</ele>
        <time>2010-06-13T07:10:13Z</time>
      </trkpt>
      <trkpt lat="45.869375020265579" lon="9.03274898417294">
        <ele>544</ele>
        <time>2010-06-13T07:10:14Z</time>
      </trkpt>
      <trkpt lat="45.869375020265579" lon="9.032698022201657">
        <ele>543</ele>
        <time>2010-06-13T07:10:15Z</time>
      </trkpt>
      <trkpt lat="45.869383988901973" lon="9.032658962532878">
        <ele>544</ele>
        <time>2010-06-13T07:10:16Z</time>
      </trkpt>
      <trkpt lat="45.869383988901973" lon="9.03261998668313">
        <ele>544</ele>
        <time>2010-06-13T07:10:17Z</time>
      </trkpt>
      <trkpt lat="45.869393041357398" lon="9.032582016661763">
        <ele>544</ele>
        <time>2010-06-13T07:10:18Z</time>
      </trkpt>
      <trkpt lat="45.869393041357398" lon="9.032466011121869">
        <ele>545</ele>
        <time>2010-06-13T07:10:21Z</time>
      </trkpt>
      <trkpt lat="45.869403015822172" lon="9.032427035272121">
        <ele>545</ele>
        <time>2010-06-13T07:10:22Z</time>
      </trkpt>
      <trkpt lat="45.86942003108561" lon="9.032387975603342">
        <ele>545</ele>
        <time>2010-06-13T07:10:23Z</time>
      </trkpt>
      <trkpt lat="45.869428999722004" lon="9.032350005581975">
        <ele>546</ele>
        <time>2010-06-13T07:10:24Z</time>
      </trkpt>
      <trkpt lat="45.869437968358397" lon="9.032311029732227">
        <ele>546</ele>
        <time>2010-06-13T07:10:25Z</time>
      </trkpt>
      <trkpt lat="45.869437968358397" lon="9.032271970063448">
        <ele>546</ele>
        <time>2010-06-13T07:10:26Z</time>
      </trkpt>
      <trkpt lat="45.869448026642203" lon="9.032234000042081">
        <ele>546</ele>
        <time>2010-06-13T07:10:27Z</time>
      </trkpt>
      <trkpt lat="45.869448026642203" lon="9.032208016142249">
        <ele>546</ele>
        <time>2010-06-13T07:10:28Z</time>
      </trkpt>
      <trkpt lat="45.86946596391499" lon="9.032169040292501">
        <ele>546</ele>
        <time>2010-06-13T07:10:29Z</time>
      </trkpt>
      <trkpt lat="45.869474010542035" lon="9.032130986452103">
        <ele>547</ele>
        <time>2010-06-13T07:10:30Z</time>
      </trkpt>
      <trkpt lat="45.869493037462234" lon="9.032105002552271">
        <ele>547</ele>
        <time>2010-06-13T07:10:31Z</time>
      </trkpt>
      <trkpt lat="45.869501000270247" lon="9.032066026702523">
        <ele>547</ele>
        <time>2010-06-13T07:10:32Z</time>
      </trkpt>
      <trkpt lat="45.869510974735022" lon="9.032027972862124">
        <ele>547</ele>
        <time>2010-06-13T07:10:33Z</time>
      </trkpt>
      <trkpt lat="45.86952899582684" lon="9.031988997012377">
        <ele>547</ele>
        <time>2010-06-13T07:10:34Z</time>
      </trkpt>
      <trkpt lat="45.869555985555053" lon="9.031963013112545">
        <ele>547</ele>
        <time>2010-06-13T07:10:35Z</time>
      </trkpt>
      <trkpt lat="45.869582975283265" lon="9.031937029212713">
        <ele>548</ele>
        <time>2010-06-13T07:10:37Z</time>
      </trkpt>
      <trkpt lat="45.869637038558722" lon="9.03191196732223">
        <ele>548</ele>
        <time>2010-06-13T07:10:38Z</time>
      </trkpt>
      <trkpt lat="45.869664028286934" lon="9.03191196732223">
        <ele>548</ele>
        <time>2010-06-13T07:10:39Z</time>
      </trkpt>
      <trkpt lat="45.869698980823159" lon="9.031924959272146">
        <ele>547</ele>
        <time>2010-06-13T07:10:40Z</time>
      </trkpt>
      <trkpt lat="45.869736028835177" lon="9.031924959272146">
        <ele>547</ele>
        <time>2010-06-13T07:10:41Z</time>
      </trkpt>
      <trkpt lat="45.869771987199783" lon="9.031938035041094">
        <ele>547</ele>
        <time>2010-06-13T07:10:42Z</time>
      </trkpt>
      <trkpt lat="45.869808029383421" lon="9.03195102699101">
        <ele>547</ele>
        <time>2010-06-13T07:10:43Z</time>
      </trkpt>
      <trkpt lat="45.869843987748027" lon="9.031976005062461">
        <ele>547</ele>
        <time>2010-06-13T07:10:44Z</time>
      </trkpt>
      <trkpt lat="45.869879024103284" lon="9.031988997012377">
        <ele>547</ele>
        <time>2010-06-13T07:10:45Z</time>
      </trkpt>
      <trkpt lat="45.86991598829627" lon="9.032014980912209">
        <ele>547</ele>
        <time>2010-06-13T07:10:46Z</time>
      </trkpt>
      <trkpt lat="45.869952030479908" lon="9.03204096481204">
        <ele>547</ele>
        <time>2010-06-13T07:10:47Z</time>
      </trkpt>
      <trkpt lat="45.869986983016133" lon="9.032067032530904">
        <ele>547</ele>
        <time>2010-06-13T07:10:48Z</time>
      </trkpt>
      <trkpt lat="45.870024031028152" lon="9.032092010602355">
        <ele>547</ele>
        <time>2010-06-13T07:10:49Z</time>
      </trkpt>
      <trkpt lat="45.870069041848183" lon="9.032105002552271">
        <ele>547</ele>
        <time>2010-06-13T07:10:50Z</time>
      </trkpt>
      <trkpt lat="45.870103994384408" lon="9.032130986452103">
        <ele>547</ele>
        <time>2010-06-13T07:10:51Z</time>
      </trkpt>
      <trkpt lat="45.870140958577394" lon="9.032143978402019">
        <ele>547</ele>
        <time>2010-06-13T07:10:52Z</time>
      </trkpt>
      <trkpt lat="45.870175994932652" lon="9.03216996230185">
        <ele>547</ele>
        <time>2010-06-13T07:10:53Z</time>
      </trkpt>
      <trkpt lat="45.870212037116289" lon="9.032196030020714">
        <ele>547</ele>
        <time>2010-06-13T07:10:54Z</time>
      </trkpt>
      <trkpt lat="45.870256964117289" lon="9.03220902197063">
        <ele>547</ele>
        <time>2010-06-13T07:10:55Z</time>
      </trkpt>
      <trkpt lat="45.87030197493732" lon="9.032234000042081">
        <ele>546</ele>
        <time>2010-06-13T07:10:56Z</time>
      </trkpt>
      <trkpt lat="45.870339022949338" lon="9.032259983941913">
        <ele>546</ele>
        <time>2010-06-13T07:10:57Z</time>
      </trkpt>
      <trkpt lat="45.870373975485563" lon="9.032285967841744">
        <ele>547</ele>
        <time>2010-06-13T07:10:58Z</time>
      </trkpt>
      <trkpt lat="45.870411023497581" lon="9.032312035560608">
        <ele>547</ele>
        <time>2010-06-13T07:10:59Z</time>
      </trkpt>
      <trkpt lat="45.870456034317613" lon="9.032325027510524">
        <ele>547</ele>
        <time>2010-06-13T07:11:00Z</time>
      </trkpt>
      <trkpt lat="45.870500961318612" lon="9.032351011410356">
        <ele>547</ele>
        <time>2010-06-13T07:11:01Z</time>
      </trkpt>
      <trkpt lat="45.870545972138643" lon="9.032375989481807">
        <ele>547</ele>
        <time>2010-06-13T07:11:02Z</time>
      </trkpt>
      <trkpt lat="45.870599029585719" lon="9.032414965331554">
        <ele>547</ele>
        <time>2010-06-13T07:11:03Z</time>
      </trkpt>
      <trkpt lat="45.87064404040575" lon="9.032441033050418">
        <ele>546</ele>
        <time>2010-06-13T07:11:04Z</time>
      </trkpt>
      <trkpt lat="45.870699025690556" lon="9.032466011121869">
        <ele>546</ele>
        <time>2010-06-13T07:11:05Z</time>
      </trkpt>
      <trkpt lat="45.870743030682206" lon="9.032504986971617">
        <ele>546</ele>
        <time>2010-06-13T07:11:06Z</time>
      </trkpt>
      <trkpt lat="45.870788041502237" lon="9.032530970871449">
        <ele>546</ele>
        <time>2010-06-13T07:11:07Z</time>
      </trkpt>
      <trkpt lat="45.870823999866843" lon="9.032570030540228">
        <ele>546</ele>
        <time>2010-06-13T07:11:08Z</time>
      </trkpt>
      <trkpt lat="45.87086096405983" lon="9.032608000561595">
        <ele>546</ele>
        <time>2010-06-13T07:11:09Z</time>
      </trkpt>
      <trkpt lat="45.870896000415087" lon="9.032646976411343">
        <ele>546</ele>
        <time>2010-06-13T07:11:10Z</time>
      </trkpt>
      <trkpt lat="45.870931958779693" lon="9.032699028030038">
        <ele>546</ele>
        <time>2010-06-13T07:11:11Z</time>
      </trkpt>
      <trkpt lat="45.870949979871511" lon="9.032762981951237">
        <ele>546</ele>
        <time>2010-06-13T07:11:12Z</time>
      </trkpt>
      <trkpt lat="45.87096800096333" lon="9.032802041620016">
        <ele>546</ele>
        <time>2010-06-13T07:11:13Z</time>
      </trkpt>
      <trkpt lat="45.870986022055149" lon="9.032853003591299">
        <ele>546</ele>
        <time>2010-06-13T07:11:14Z</time>
      </trkpt>
      <trkpt lat="45.871013011783361" lon="9.032904971390963">
        <ele>546</ele>
        <time>2010-06-13T07:11:15Z</time>
      </trkpt>
      <trkpt lat="45.871040001511574" lon="9.032943025231361">
        <ele>546</ele>
        <time>2010-06-13T07:11:16Z</time>
      </trkpt>
      <trkpt lat="45.871066991239786" lon="9.032982001081109">
        <ele>546</ele>
        <time>2010-06-13T07:11:17Z</time>
      </trkpt>
      <trkpt lat="45.871093980967999" lon="9.033020976930857">
        <ele>546</ele>
        <time>2010-06-13T07:11:18Z</time>
      </trkpt>
      <trkpt lat="45.871130023151636" lon="9.033046960830689">
        <ele>546</ele>
        <time>2010-06-13T07:11:19Z</time>
      </trkpt>
      <trkpt lat="45.871165981516242" lon="9.033059030771256">
        <ele>547</ele>
        <time>2010-06-13T07:11:20Z</time>
      </trkpt>
      <trkpt lat="45.87120202369988" lon="9.033072022721171">
        <ele>546</ele>
        <time>2010-06-13T07:11:21Z</time>
      </trkpt>
      <trkpt lat="45.871237982064486" lon="9.033085014671087">
        <ele>546</ele>
        <time>2010-06-13T07:11:22Z</time>
      </trkpt>
      <trkpt lat="45.871282992884517" lon="9.033072022721171">
        <ele>546</ele>
        <time>2010-06-13T07:11:23Z</time>
      </trkpt>
      <trkpt lat="45.871328003704548" lon="9.033072022721171">
        <ele>546</ele>
        <time>2010-06-13T07:11:24Z</time>
      </trkpt>
      <trkpt lat="45.871363962069154" lon="9.033060036599636">
        <ele>547</ele>
        <time>2010-06-13T07:11:25Z</time>
      </trkpt>
      <trkpt lat="45.871408972889185" lon="9.033033968880773">
        <ele>547</ele>
        <time>2010-06-13T07:11:26Z</time>
      </trkpt>
      <trkpt lat="45.871435962617397" lon="9.033007984980941">
        <ele>547</ele>
        <time>2010-06-13T07:11:27Z</time>
      </trkpt>
      <trkpt lat="45.871463036164641" lon="9.032969009131193">
        <ele>547</ele>
        <time>2010-06-13T07:11:28Z</time>
      </trkpt>
      <trkpt lat="45.871490025892854" lon="9.032931039109826">
        <ele>547</ele>
        <time>2010-06-13T07:11:29Z</time>
      </trkpt>
      <trkpt lat="45.871517015621066" lon="9.032891979441047">
        <ele>547</ele>
        <time>2010-06-13T07:11:30Z</time>
      </trkpt>
      <trkpt lat="45.871535958722234" lon="9.03285400941968">
        <ele>548</ele>
        <time>2010-06-13T07:11:31Z</time>
      </trkpt>
      <trkpt lat="45.871562026441097" lon="9.032815033569932">
        <ele>548</ele>
        <time>2010-06-13T07:11:32Z</time>
      </trkpt>
      <trkpt lat="45.871580969542265" lon="9.032775973901153">
        <ele>549</ele>
        <time>2010-06-13T07:11:33Z</time>
      </trkpt>
      <trkpt lat="45.871607037261128" lon="9.03272501192987">
        <ele>549</ele>
        <time>2010-06-13T07:11:34Z</time>
      </trkpt>
      <trkpt lat="45.871625980362296" lon="9.032672960311174">
        <ele>549</ele>
        <time>2010-06-13T07:11:35Z</time>
      </trkpt>
      <trkpt lat="45.871644001454115" lon="9.032633984461427">
        <ele>549</ele>
        <time>2010-06-13T07:11:36Z</time>
      </trkpt>
      <trkpt lat="45.871670991182327" lon="9.03259601444006">
        <ele>549</ele>
        <time>2010-06-13T07:11:37Z</time>
      </trkpt>
      <trkpt lat="45.871689012274146" lon="9.032557038590312">
        <ele>550</ele>
        <time>2010-06-13T07:11:38Z</time>
      </trkpt>
      <trkpt lat="45.871716002002358" lon="9.032518984749913">
        <ele>550</ele>
        <time>2010-06-13T07:11:39Z</time>
      </trkpt>
      <trkpt lat="45.871734023094177" lon="9.032480008900166">
        <ele>550</ele>
        <time>2010-06-13T07:11:40Z</time>
      </trkpt>
      <trkpt lat="45.871751960366964" lon="9.032454025000334">
        <ele>550</ele>
        <time>2010-06-13T07:11:41Z</time>
      </trkpt>
      <trkpt lat="45.871768975630403" lon="9.032402979210019">
        <ele>550</ele>
        <time>2010-06-13T07:11:42Z</time>
      </trkpt>
      <trkpt lat="45.871786996722221" lon="9.032364003360272">
        <ele>550</ele>
        <time>2010-06-13T07:11:43Z</time>
      </trkpt>
      <trkpt lat="45.871806023642421" lon="9.032326033338904">
        <ele>551</ele>
        <time>2010-06-13T07:11:44Z</time>
      </trkpt>
      <trkpt lat="45.871823960915208" lon="9.032286973670125">
        <ele>551</ele>
        <time>2010-06-13T07:11:45Z</time>
      </trkpt>
      <trkpt lat="45.871841982007027" lon="9.032247997820377">
        <ele>551</ele>
        <time>2010-06-13T07:11:46Z</time>
      </trkpt>
      <trkpt lat="45.871851034462452" lon="9.032222013920546">
        <ele>551</ele>
        <time>2010-06-13T07:11:47Z</time>
      </trkpt>
      <trkpt lat="45.871860003098845" lon="9.032183960080147">
        <ele>551</ele>
        <time>2010-06-13T07:11:48Z</time>
      </trkpt>
      <trkpt lat="45.871878024190664" lon="9.032144984230399">
        <ele>551</ele>
        <time>2010-06-13T07:11:49Z</time>
      </trkpt>
      <trkpt lat="45.871895961463451" lon="9.032119000330567">
        <ele>552</ele>
        <time>2010-06-13T07:11:50Z</time>
      </trkpt>
      <trkpt lat="45.87191398255527" lon="9.0320810303092">
        <ele>551</ele>
        <time>2010-06-13T07:11:51Z</time>
      </trkpt>
      <trkpt lat="45.871932003647089" lon="9.032041970640421">
        <ele>551</ele>
        <time>2010-06-13T07:11:52Z</time>
      </trkpt>
      <trkpt lat="45.871950024738908" lon="9.032002994790673">
        <ele>551</ele>
        <time>2010-06-13T07:11:53Z</time>
      </trkpt>
      <trkpt lat="45.871958993375301" lon="9.031965024769306">
        <ele>550</ele>
        <time>2010-06-13T07:11:54Z</time>
      </trkpt>
      <trkpt lat="45.871985983103514" lon="9.031925965100527">
        <ele>550</ele>
        <time>2010-06-13T07:11:55Z</time>
      </trkpt>
      <trkpt lat="45.872004004195333" lon="9.031886989250779">
        <ele>550</ele>
        <time>2010-06-13T07:11:56Z</time>
      </trkpt>
      <trkpt lat="45.872022025287151" lon="9.031836027279496">
        <ele>550</ele>
        <time>2010-06-13T07:11:57Z</time>
      </trkpt>
      <trkpt lat="45.872049015015364" lon="9.031783975660801">
        <ele>550</ele>
        <time>2010-06-13T07:11:58Z</time>
      </trkpt>
      <trkpt lat="45.872076004743576" lon="9.031733013689518">
        <ele>550</ele>
        <time>2010-06-13T07:11:59Z</time>
      </trkpt>
      <trkpt lat="45.872111963108182" lon="9.031680962070823">
        <ele>549</ele>
        <time>2010-06-13T07:12:00Z</time>
      </trkpt>
      <trkpt lat="45.872139036655426" lon="9.03163000009954">
        <ele>549</ele>
        <time>2010-06-13T07:12:01Z</time>
      </trkpt>
      <trkpt lat="45.872174995020032" lon="9.031565962359309">
        <ele>549</ele>
        <time>2010-06-13T07:12:02Z</time>
      </trkpt>
      <trkpt lat="45.87221103720367" lon="9.031513994559646">
        <ele>548</ele>
        <time>2010-06-13T07:12:03Z</time>
      </trkpt>
      <trkpt lat="45.872238026931882" lon="9.031449034810066">
        <ele>549</ele>
        <time>2010-06-13T07:12:04Z</time>
      </trkpt>
      <trkpt lat="45.872273985296488" lon="9.031384997069836">
        <ele>549</ele>
        <time>2010-06-13T07:12:05Z</time>
      </trkpt>
      <trkpt lat="45.8723009750247" lon="9.031320959329605">
        <ele>549</ele>
        <time>2010-06-13T07:12:06Z</time>
      </trkpt>
      <trkpt lat="45.872318996116519" lon="9.03124300763011">
        <ele>549</ele>
        <time>2010-06-13T07:12:07Z</time>
      </trkpt>
      <trkpt lat="45.872318996116519" lon="9.031178969889879">
        <ele>549</ele>
        <time>2010-06-13T07:12:08Z</time>
      </trkpt>
      <trkpt lat="45.872327964752913" lon="9.031102024018765">
        <ele>549</ele>
        <time>2010-06-13T07:12:09Z</time>
      </trkpt>
      <trkpt lat="45.872337017208338" lon="9.031036980450153">
        <ele>549</ele>
        <time>2010-06-13T07:12:10Z</time>
      </trkpt>
      <trkpt lat="45.872327964752913" lon="9.030907982960343">
        <ele>549</ele>
        <time>2010-06-13T07:12:12Z</time>
      </trkpt>
      <trkpt lat="45.872318996116519" lon="9.03085702098906">
        <ele>549</ele>
        <time>2010-06-13T07:12:13Z</time>
      </trkpt>
      <trkpt lat="45.872318996116519" lon="9.030791977420449">
        <ele>549</ele>
        <time>2010-06-13T07:12:14Z</time>
      </trkpt>
      <trkpt lat="45.872327964752913" lon="9.03072802349925">
        <ele>549</ele>
        <time>2010-06-13T07:12:15Z</time>
      </trkpt>
      <trkpt lat="45.872327964752913" lon="9.030675971880555">
        <ele>549</ele>
        <time>2010-06-13T07:12:16Z</time>
      </trkpt>
      <trkpt lat="45.872337017208338" lon="9.030612017959356">
        <ele>549</ele>
        <time>2010-06-13T07:12:17Z</time>
      </trkpt>
      <trkpt lat="45.872345985844731" lon="9.030547980219126">
        <ele>549</ele>
        <time>2010-06-13T07:12:18Z</time>
      </trkpt>
      <trkpt lat="45.872337017208338" lon="9.030496012419462">
        <ele>549</ele>
        <time>2010-06-13T07:12:19Z</time>
      </trkpt>
      <trkpt lat="45.872327964752913" lon="9.030392998829484">
        <ele>550</ele>
        <time>2010-06-13T07:12:21Z</time>
      </trkpt>
      <trkpt lat="45.872318996116519" lon="9.030354022979736">
        <ele>550</ele>
        <time>2010-06-13T07:12:22Z</time>
      </trkpt>
      <trkpt lat="45.872310027480125" lon="9.030302977189422">
        <ele>550</ele>
        <time>2010-06-13T07:12:23Z</time>
      </trkpt>
      <trkpt lat="45.872292006388307" lon="9.030238017439842">
        <ele>550</ele>
        <time>2010-06-13T07:12:24Z</time>
      </trkpt>
      <trkpt lat="45.872283037751913" lon="9.030186971649528">
        <ele>549</ele>
        <time>2010-06-13T07:12:25Z</time>
      </trkpt>
      <trkpt lat="45.872292006388307" lon="9.030135003849864">
        <ele>549</ele>
        <time>2010-06-13T07:12:26Z</time>
      </trkpt>
      <trkpt lat="45.872292006388307" lon="9.030084041878581">
        <ele>550</ele>
        <time>2010-06-13T07:12:27Z</time>
      </trkpt>
      <trkpt lat="45.872292006388307" lon="9.030031990259886">
        <ele>551</ele>
        <time>2010-06-13T07:12:28Z</time>
      </trkpt>
      <trkpt lat="45.872283037751913" lon="9.029994020238519">
        <ele>551</ele>
        <time>2010-06-13T07:12:29Z</time>
      </trkpt>
      <trkpt lat="45.872273985296488" lon="9.029941968619824">
        <ele>551</ele>
        <time>2010-06-13T07:12:30Z</time>
      </trkpt>
      <trkpt lat="45.872283037751913" lon="9.029839038848877">
        <ele>551</ele>
        <time>2010-06-13T07:12:32Z</time>
      </trkpt>
      <trkpt lat="45.8723009750247" lon="9.029786987230182">
        <ele>551</ele>
        <time>2010-06-13T07:12:33Z</time>
      </trkpt>
      <trkpt lat="45.872318996116519" lon="9.029736025258899">
        <ele>551</ele>
        <time>2010-06-13T07:12:34Z</time>
      </trkpt>
      <trkpt lat="45.872337017208338" lon="9.029683973640204">
        <ele>551</ele>
        <time>2010-06-13T07:12:35Z</time>
      </trkpt>
      <trkpt lat="45.872355038300157" lon="9.029633011668921">
        <ele>551</ele>
        <time>2010-06-13T07:12:36Z</time>
      </trkpt>
      <trkpt lat="45.87236400693655" lon="9.029580960050225">
        <ele>552</ele>
        <time>2010-06-13T07:12:37Z</time>
      </trkpt>
      <trkpt lat="45.87238303385675" lon="9.029542990028858">
        <ele>552</ele>
        <time>2010-06-13T07:12:38Z</time>
      </trkpt>
      <trkpt lat="45.872399965301156" lon="9.029491022229195">
        <ele>552</ele>
        <time>2010-06-13T07:12:39Z</time>
      </trkpt>
      <trkpt lat="45.8724270388484" lon="9.029465038329363">
        <ele>552</ele>
        <time>2010-06-13T07:12:40Z</time>
      </trkpt>
      <trkpt lat="45.872445981949568" lon="9.029426984488964">
        <ele>552</ele>
        <time>2010-06-13T07:12:41Z</time>
      </trkpt>
      <trkpt lat="45.8724719658494" lon="9.029401000589132">
        <ele>552</ele>
        <time>2010-06-13T07:12:42Z</time>
      </trkpt>
      <trkpt lat="45.872499039396644" lon="9.029375016689301">
        <ele>552</ele>
        <time>2010-06-13T07:12:43Z</time>
      </trkpt>
      <trkpt lat="45.87253600358963" lon="9.029362024739385">
        <ele>552</ele>
        <time>2010-06-13T07:12:44Z</time>
      </trkpt>
      <trkpt lat="45.872571039944887" lon="9.029349032789469">
        <ele>552</ele>
        <time>2010-06-13T07:12:45Z</time>
      </trkpt>
      <trkpt lat="45.872615966945887" lon="9.029336962848902">
        <ele>552</ele>
        <time>2010-06-13T07:12:46Z</time>
      </trkpt>
      <trkpt lat="45.872652009129524" lon="9.029349032789469">
        <ele>552</ele>
        <time>2010-06-13T07:12:47Z</time>
      </trkpt>
      <trkpt lat="45.872697019949555" lon="9.029362024739385">
        <ele>552</ele>
        <time>2010-06-13T07:12:48Z</time>
      </trkpt>
      <trkpt lat="45.872742030769587" lon="9.029375016689301">
        <ele>551</ele>
        <time>2010-06-13T07:12:49Z</time>
      </trkpt>
      <trkpt lat="45.872787041589618" lon="9.029413992539048">
        <ele>551</ele>
        <time>2010-06-13T07:12:50Z</time>
      </trkpt>
      <trkpt lat="45.872831968590617" lon="9.02943997643888">
        <ele>551</ele>
        <time>2010-06-13T07:12:51Z</time>
      </trkpt>
      <trkpt lat="45.872876979410648" lon="9.029465960338712">
        <ele>551</ele>
        <time>2010-06-13T07:12:52Z</time>
      </trkpt>
      <trkpt lat="45.87292199023068" lon="9.029491022229195">
        <ele>551</ele>
        <time>2010-06-13T07:12:53Z</time>
      </trkpt>
      <trkpt lat="45.872958032414317" lon="9.029529998078942">
        <ele>551</ele>
        <time>2010-06-13T07:12:54Z</time>
      </trkpt>
      <trkpt lat="45.873002959415317" lon="9.029555981978774">
        <ele>551</ele>
        <time>2010-06-13T07:12:55Z</time>
      </trkpt>
      <trkpt lat="45.873039001598954" lon="9.029581965878606">
        <ele>551</ele>
        <time>2010-06-13T07:12:56Z</time>
      </trkpt>
      <trkpt lat="45.873084012418985" lon="9.029607027769089">
        <ele>550</ele>
        <time>2010-06-13T07:12:57Z</time>
      </trkpt>
      <trkpt lat="45.87313799187541" lon="9.029633011668921">
        <ele>550</ele>
        <time>2010-06-13T07:12:58Z</time>
      </trkpt>
      <trkpt lat="45.873191971331835" lon="9.029646003618836">
        <ele>550</ele>
        <time>2010-06-13T07:12:59Z</time>
      </trkpt>
      <trkpt lat="45.873246034607291" lon="9.029671987518668">
        <ele>550</ele>
        <time>2010-06-13T07:13:00Z</time>
      </trkpt>
      <trkpt lat="45.873290961608291" lon="9.0296979714185">
        <ele>550</ele>
        <time>2010-06-13T07:13:01Z</time>
      </trkpt>
      <trkpt lat="45.873335972428322" lon="9.029710963368416">
        <ele>550</ele>
        <time>2010-06-13T07:13:02Z</time>
      </trkpt>
      <trkpt lat="45.873380983248353" lon="9.029736025258899">
        <ele>550</ele>
        <time>2010-06-13T07:13:03Z</time>
      </trkpt>
      <trkpt lat="45.873425994068384" lon="9.029749017208815">
        <ele>550</ele>
        <time>2010-06-13T07:13:04Z</time>
      </trkpt>
      <trkpt lat="45.873462036252022" lon="9.029775001108646">
        <ele>550</ele>
        <time>2010-06-13T07:13:05Z</time>
      </trkpt>
      <trkpt lat="45.873506963253021" lon="9.029787993058562">
        <ele>551</ele>
        <time>2010-06-13T07:13:06Z</time>
      </trkpt>
      <trkpt lat="45.873551974073052" lon="9.029800985008478">
        <ele>550</ele>
        <time>2010-06-13T07:13:07Z</time>
      </trkpt>
      <trkpt lat="45.873596984893084" lon="9.029800985008478">
        <ele>550</ele>
        <time>2010-06-13T07:13:08Z</time>
      </trkpt>
      <trkpt lat="45.873641995713115" lon="9.029813976958394">
        <ele>549</ele>
        <time>2010-06-13T07:13:09Z</time>
      </trkpt>
      <trkpt lat="45.873687006533146" lon="9.029813976958394">
        <ele>550</ele>
        <time>2010-06-13T07:13:10Z</time>
      </trkpt>
      <trkpt lat="45.873732017353177" lon="9.02982696890831">
        <ele>550</ele>
        <time>2010-06-13T07:13:11Z</time>
      </trkpt>
      <trkpt lat="45.873777028173208" lon="9.02982696890831">
        <ele>550</ele>
        <time>2010-06-13T07:13:12Z</time>
      </trkpt>
      <trkpt lat="45.873822038993239" lon="9.02982696890831">
        <ele>550</ele>
        <time>2010-06-13T07:13:13Z</time>
      </trkpt>
      <trkpt lat="45.873866965994239" lon="9.029839960858226">
        <ele>549</ele>
        <time>2010-06-13T07:13:14Z</time>
      </trkpt>
      <trkpt lat="45.87391197681427" lon="9.029839960858226">
        <ele>550</ele>
        <time>2010-06-13T07:13:15Z</time>
      </trkpt>
      <trkpt lat="45.873956987634301" lon="9.029839960858226">
        <ele>550</ele>
        <time>2010-06-13T07:13:16Z</time>
      </trkpt>
      <trkpt lat="45.873993029817939" lon="9.02982696890831">
        <ele>550</ele>
        <time>2010-06-13T07:13:17Z</time>
      </trkpt>
      <trkpt lat="45.87403804063797" lon="9.02982696890831">
        <ele>549</ele>
        <time>2010-06-13T07:13:18Z</time>
      </trkpt>
      <trkpt lat="45.874082967638969" lon="9.029813976958394">
        <ele>549</ele>
        <time>2010-06-13T07:13:19Z</time>
      </trkpt>
      <trkpt lat="45.874137030914426" lon="9.029800985008478">
        <ele>549</ele>
        <time>2010-06-13T07:13:20Z</time>
      </trkpt>
      <trkpt lat="45.874182041734457" lon="9.029800985008478">
        <ele>550</ele>
        <time>2010-06-13T07:13:21Z</time>
      </trkpt>
      <trkpt lat="45.874226968735456" lon="9.029787993058562">
        <ele>550</ele>
        <time>2010-06-13T07:13:22Z</time>
      </trkpt>
      <trkpt lat="45.874271979555488" lon="9.029776006937027">
        <ele>550</ele>
        <time>2010-06-13T07:13:23Z</time>
      </trkpt>
      <trkpt lat="45.874308021739125" lon="9.029750023037195">
        <ele>549</ele>
        <time>2010-06-13T07:13:24Z</time>
      </trkpt>
      <trkpt lat="45.874343980103731" lon="9.029737031087279">
        <ele>549</ele>
        <time>2010-06-13T07:13:25Z</time>
      </trkpt>
      <trkpt lat="45.874381028115749" lon="9.029737031087279">
        <ele>549</ele>
        <time>2010-06-13T07:13:26Z</time>
      </trkpt>
      <trkpt lat="45.874415980651975" lon="9.029724039137363">
        <ele>550</ele>
        <time>2010-06-13T07:13:27Z</time>
      </trkpt>
      <trkpt lat="45.874443976208568" lon="9.029724039137363">
        <ele>550</ele>
        <time>2010-06-13T07:13:28Z</time>
      </trkpt>
      <trkpt lat="45.874479012563825" lon="9.029710963368416">
        <ele>550</ele>
        <time>2010-06-13T07:13:29Z</time>
      </trkpt>
      <trkpt lat="45.874515976756811" lon="9.029710963368416">
        <ele>551</ele>
        <time>2010-06-13T07:13:30Z</time>
      </trkpt>
      <trkpt lat="45.874541960656643" lon="9.029724039137363">
        <ele>551</ele>
        <time>2010-06-13T07:13:31Z</time>
      </trkpt>
      <trkpt lat="45.874579008668661" lon="9.029724039137363">
        <ele>550</ele>
        <time>2010-06-13T07:13:32Z</time>
      </trkpt>
      <trkpt lat="45.874613961204886" lon="9.029737031087279">
        <ele>550</ele>
        <time>2010-06-13T07:13:33Z</time>
      </trkpt>
      <trkpt lat="45.874658972024918" lon="9.029737031087279">
        <ele>551</ele>
        <time>2010-06-13T07:13:34Z</time>
      </trkpt>
      <trkpt lat="45.87468596175313" lon="9.029737031087279">
        <ele>551</ele>
        <time>2010-06-13T07:13:35Z</time>
      </trkpt>
      <trkpt lat="45.874722003936768" lon="9.029737031087279">
        <ele>551</ele>
        <time>2010-06-13T07:13:36Z</time>
      </trkpt>
      <trkpt lat="45.874758968129754" lon="9.029750023037195">
        <ele>551</ele>
        <time>2010-06-13T07:13:37Z</time>
      </trkpt>
      <trkpt lat="45.874794004485011" lon="9.029750023037195">
        <ele>552</ele>
        <time>2010-06-13T07:13:38Z</time>
      </trkpt>
      <trkpt lat="45.874830968677998" lon="9.029750023037195">
        <ele>552</ele>
        <time>2010-06-13T07:13:39Z</time>
      </trkpt>
      <trkpt lat="45.874857036396861" lon="9.029750023037195">
        <ele>553</ele>
        <time>2010-06-13T07:13:40Z</time>
      </trkpt>
      <trkpt lat="45.874894000589848" lon="9.029763014987111">
        <ele>553</ele>
        <time>2010-06-13T07:13:41Z</time>
      </trkpt>
      <trkpt lat="45.874939011409879" lon="9.029776006937027">
        <ele>553</ele>
        <time>2010-06-13T07:13:42Z</time>
      </trkpt>
      <trkpt lat="45.874973963946104" lon="9.029788998886943">
        <ele>553</ele>
        <time>2010-06-13T07:13:43Z</time>
      </trkpt>
      <trkpt lat="45.875011011958122" lon="9.029814982786775">
        <ele>553</ele>
        <time>2010-06-13T07:13:44Z</time>
      </trkpt>
      <trkpt lat="45.875045964494348" lon="9.02982696890831">
        <ele>553</ele>
        <time>2010-06-13T07:13:45Z</time>
      </trkpt>
      <trkpt lat="45.875082006677985" lon="9.029866028577089">
        <ele>553</ele>
        <time>2010-06-13T07:13:46Z</time>
      </trkpt>
      <trkpt lat="45.875108996406198" lon="9.029905004426837">
        <ele>553</ele>
        <time>2010-06-13T07:13:47Z</time>
      </trkpt>
      <trkpt lat="45.875127017498016" lon="9.029930988326669">
        <ele>554</ele>
        <time>2010-06-13T07:13:48Z</time>
      </trkpt>
      <trkpt lat="45.875145960599184" lon="9.029968958348036">
        <ele>554</ele>
        <time>2010-06-13T07:13:49Z</time>
      </trkpt>
      <trkpt lat="45.875162975862622" lon="9.030021009966731">
        <ele>554</ele>
        <time>2010-06-13T07:13:50Z</time>
      </trkpt>
      <trkpt lat="45.875172028318048" lon="9.030058979988098">
        <ele>555</ele>
        <time>2010-06-13T07:13:51Z</time>
      </trkpt>
      <trkpt lat="45.875180996954441" lon="9.030111031606793">
        <ele>555</ele>
        <time>2010-06-13T07:13:52Z</time>
      </trkpt>
      <trkpt lat="45.87519901804626" lon="9.030150007456541">
        <ele>555</ele>
        <time>2010-06-13T07:13:53Z</time>
      </trkpt>
      <trkpt lat="45.875217039138079" lon="9.030187977477908">
        <ele>555</ele>
        <time>2010-06-13T07:13:54Z</time>
      </trkpt>
      <trkpt lat="45.875234976410866" lon="9.030227037146688">
        <ele>555</ele>
        <time>2010-06-13T07:13:55Z</time>
      </trkpt>
      <trkpt lat="45.875261966139078" lon="9.030266012996435">
        <ele>555</ele>
        <time>2010-06-13T07:13:56Z</time>
      </trkpt>
      <trkpt lat="45.875279987230897" lon="9.030303983017802">
        <ele>555</ele>
        <time>2010-06-13T07:13:57Z</time>
      </trkpt>
      <trkpt lat="45.875306976959109" lon="9.030329966917634">
        <ele>556</ele>
        <time>2010-06-13T07:13:58Z</time>
      </trkpt>
      <trkpt lat="45.875324998050928" lon="9.030369026586413">
        <ele>556</ele>
        <time>2010-06-13T07:13:59Z</time>
      </trkpt>
      <trkpt lat="45.87535198777914" lon="9.030395010486245">
        <ele>557</ele>
        <time>2010-06-13T07:14:00Z</time>
      </trkpt>
      <trkpt lat="45.875378977507353" lon="9.030420994386077">
        <ele>557</ele>
        <time>2010-06-13T07:14:01Z</time>
      </trkpt>
      <trkpt lat="45.875405967235565" lon="9.030458964407444">
        <ele>557</ele>
        <time>2010-06-13T07:14:02Z</time>
      </trkpt>
      <trkpt lat="45.875423988327384" lon="9.030485032126308">
        <ele>557</ele>
        <time>2010-06-13T07:14:03Z</time>
      </trkpt>
      <trkpt lat="45.875460030511022" lon="9.030511016026139">
        <ele>557</ele>
        <time>2010-06-13T07:14:04Z</time>
      </trkpt>
      <trkpt lat="45.875487020239234" lon="9.03053599409759">
        <ele>557</ele>
        <time>2010-06-13T07:14:05Z</time>
      </trkpt>
      <trkpt lat="45.87552297860384" lon="9.030561977997422">
        <ele>558</ele>
        <time>2010-06-13T07:14:06Z</time>
      </trkpt>
      <trkpt lat="45.875549968332052" lon="9.030587961897254">
        <ele>559</ele>
        <time>2010-06-13T07:14:07Z</time>
      </trkpt>
      <trkpt lat="45.875567989423871" lon="9.030627021566033">
        <ele>560</ele>
        <time>2010-06-13T07:14:08Z</time>
      </trkpt>
      <trkpt lat="45.875604031607509" lon="9.030640013515949">
        <ele>560</ele>
        <time>2010-06-13T07:14:09Z</time>
      </trkpt>
      <trkpt lat="45.875631021335721" lon="9.030665997415781">
        <ele>560</ele>
        <time>2010-06-13T07:14:10Z</time>
      </trkpt>
      <trkpt lat="45.875658011063933" lon="9.030690975487232">
        <ele>560</ele>
        <time>2010-06-13T07:14:11Z</time>
      </trkpt>
      <trkpt lat="45.875676032155752" lon="9.030730035156012">
        <ele>561</ele>
        <time>2010-06-13T07:14:12Z</time>
      </trkpt>
      <trkpt lat="45.875703021883965" lon="9.030756019055843">
        <ele>561</ele>
        <time>2010-06-13T07:14:13Z</time>
      </trkpt>
      <trkpt lat="45.875711990520358" lon="9.03079398907721">
        <ele>562</ele>
        <time>2010-06-13T07:14:14Z</time>
      </trkpt>
      <trkpt lat="45.875711990520358" lon="9.030819972977042">
        <ele>562</ele>
        <time>2010-06-13T07:14:15Z</time>
      </trkpt>
      <trkpt lat="45.875730011612177" lon="9.030846040695906">
        <ele>562</ele>
        <time>2010-06-13T07:14:16Z</time>
      </trkpt>
      <trkpt lat="45.875765969976783" lon="9.030859032645822">
        <ele>562</ele>
        <time>2010-06-13T07:14:17Z</time>
      </trkpt>
      <trkpt lat="45.87580201216042" lon="9.030884010717273">
        <ele>562</ele>
        <time>2010-06-13T07:14:18Z</time>
      </trkpt>
      <trkpt lat="45.875829001888633" lon="9.030898008495569">
        <ele>562</ele>
        <time>2010-06-13T07:14:19Z</time>
      </trkpt>
      <trkpt lat="45.875864960253239" lon="9.03092298656702">
        <ele>562</ele>
        <time>2010-06-13T07:14:20Z</time>
      </trkpt>
      <trkpt lat="45.875901002436876" lon="9.030948970466852">
        <ele>562</ele>
        <time>2010-06-13T07:14:21Z</time>
      </trkpt>
      <trkpt lat="45.875919023528695" lon="9.030988030135632">
        <ele>562</ele>
        <time>2010-06-13T07:14:22Z</time>
      </trkpt>
      <trkpt lat="45.875936960801482" lon="9.031014014035463">
        <ele>562</ele>
        <time>2010-06-13T07:14:23Z</time>
      </trkpt>
      <trkpt lat="45.875936960801482" lon="9.031064976006746">
        <ele>562</ele>
        <time>2010-06-13T07:14:24Z</time>
      </trkpt>
      <trkpt lat="45.875927992165089" lon="9.031117027625442">
        <ele>562</ele>
        <time>2010-06-13T07:14:25Z</time>
      </trkpt>
      <trkpt lat="45.875919023528695" lon="9.031154997646809">
        <ele>562</ele>
        <time>2010-06-13T07:14:26Z</time>
      </trkpt>
      <trkpt lat="45.87590997107327" lon="9.031206965446472">
        <ele>562</ele>
        <time>2010-06-13T07:14:27Z</time>
      </trkpt>
      <trkpt lat="45.87590997107327" lon="9.031258011236787">
        <ele>562</ele>
        <time>2010-06-13T07:14:28Z</time>
      </trkpt>
      <trkpt lat="45.875901002436876" lon="9.031412992626429">
        <ele>561</ele>
        <time>2010-06-13T07:14:31Z</time>
      </trkpt>
      <trkpt lat="45.875901002436876" lon="9.031451968476176">
        <ele>561</ele>
        <time>2010-06-13T07:14:32Z</time>
      </trkpt>
      <trkpt lat="45.875892033800483" lon="9.031503014266491">
        <ele>561</ele>
        <time>2010-06-13T07:14:33Z</time>
      </trkpt>
      <trkpt lat="45.875882981345057" lon="9.031554982066155">
        <ele>562</ele>
        <time>2010-06-13T07:14:34Z</time>
      </trkpt>
      <trkpt lat="45.875874012708664" lon="9.031593035906553">
        <ele>562</ele>
        <time>2010-06-13T07:14:35Z</time>
      </trkpt>
      <trkpt lat="45.875874012708664" lon="9.031645003706217">
        <ele>562</ele>
        <time>2010-06-13T07:14:36Z</time>
      </trkpt>
      <trkpt lat="45.875864960253239" lon="9.0316959656775">
        <ele>562</ele>
        <time>2010-06-13T07:14:37Z</time>
      </trkpt>
      <trkpt lat="45.875864960253239" lon="9.031748017296195">
        <ele>562</ele>
        <time>2010-06-13T07:14:38Z</time>
      </trkpt>
      <trkpt lat="45.875864960253239" lon="9.031786993145943">
        <ele>561</ele>
        <time>2010-06-13T07:14:39Z</time>
      </trkpt>
      <trkpt lat="45.875855991616845" lon="9.031838038936257">
        <ele>561</ele>
        <time>2010-06-13T07:14:40Z</time>
      </trkpt>
      <trkpt lat="45.875847022980452" lon="9.031890006735921">
        <ele>561</ele>
        <time>2010-06-13T07:14:41Z</time>
      </trkpt>
      <trkpt lat="45.875837970525026" lon="9.031927976757288">
        <ele>561</ele>
        <time>2010-06-13T07:14:42Z</time>
      </trkpt>
      <trkpt lat="45.875837970525026" lon="9.031980028375983">
        <ele>562</ele>
        <time>2010-06-13T07:14:43Z</time>
      </trkpt>
      <trkpt lat="45.875829001888633" lon="9.032019004225731">
        <ele>562</ele>
        <time>2010-06-13T07:14:44Z</time>
      </trkpt>
      <trkpt lat="45.875820033252239" lon="9.032069966197014">
        <ele>563</ele>
        <time>2010-06-13T07:14:45Z</time>
      </trkpt>
      <trkpt lat="45.875810980796814" lon="9.032122017815709">
        <ele>563</ele>
        <time>2010-06-13T07:14:46Z</time>
      </trkpt>
      <trkpt lat="45.87580201216042" lon="9.032159987837076">
        <ele>563</ele>
        <time>2010-06-13T07:14:47Z</time>
      </trkpt>
      <trkpt lat="45.875792959704995" lon="9.032212039455771">
        <ele>563</ele>
        <time>2010-06-13T07:14:48Z</time>
      </trkpt>
      <trkpt lat="45.875775022432208" lon="9.032263001427054">
        <ele>563</ele>
        <time>2010-06-13T07:14:49Z</time>
      </trkpt>
      <trkpt lat="45.875775022432208" lon="9.032327961176634">
        <ele>562</ele>
        <time>2010-06-13T07:14:50Z</time>
      </trkpt>
      <trkpt lat="45.875765969976783" lon="9.032379006966949">
        <ele>562</ele>
        <time>2010-06-13T07:14:51Z</time>
      </trkpt>
      <trkpt lat="45.875757001340389" lon="9.032430974766612">
        <ele>562</ele>
        <time>2010-06-13T07:14:52Z</time>
      </trkpt>
      <trkpt lat="45.875748032703996" lon="9.032495012506843">
        <ele>562</ele>
        <time>2010-06-13T07:14:53Z</time>
      </trkpt>
      <trkpt lat="45.875730011612177" lon="9.032546980306506">
        <ele>562</ele>
        <time>2010-06-13T07:14:54Z</time>
      </trkpt>
      <trkpt lat="45.875711990520358" lon="9.032598026096821">
        <ele>562</ele>
        <time>2010-06-13T07:14:55Z</time>
      </trkpt>
      <trkpt lat="45.875693969428539" lon="9.032649993896484">
        <ele>562</ele>
        <time>2010-06-13T07:14:56Z</time>
      </trkpt>
      <trkpt lat="45.875676032155752" lon="9.032714031636715">
        <ele>562</ele>
        <time>2010-06-13T07:14:57Z</time>
      </trkpt>
      <trkpt lat="45.875666979700327" lon="9.032778991386294">
        <ele>562</ele>
        <time>2010-06-13T07:14:58Z</time>
      </trkpt>
      <trkpt lat="45.875666979700327" lon="9.032830037176609">
        <ele>563</ele>
        <time>2010-06-13T07:14:59Z</time>
      </trkpt>
      <trkpt lat="45.875658011063933" lon="9.032882004976273">
        <ele>563</ele>
        <time>2010-06-13T07:15:00Z</time>
      </trkpt>
      <trkpt lat="45.875648958608508" lon="9.032945958897471">
        <ele>563</ele>
        <time>2010-06-13T07:15:01Z</time>
      </trkpt>
      <trkpt lat="45.875631021335721" lon="9.032998010516167">
        <ele>563</ele>
        <time>2010-06-13T07:15:02Z</time>
      </trkpt>
      <trkpt lat="45.875621968880296" lon="9.033061964437366">
        <ele>562</ele>
        <time>2010-06-13T07:15:03Z</time>
      </trkpt>
      <trkpt lat="45.875594979152083" lon="9.033101024106145">
        <ele>562</ele>
        <time>2010-06-13T07:15:04Z</time>
      </trkpt>
      <trkpt lat="45.87556698359549" lon="9.033151986077428">
        <ele>562</ele>
        <time>2010-06-13T07:15:05Z</time>
      </trkpt>
      <trkpt lat="45.875549968332052" lon="9.033217029646039">
        <ele>562</ele>
        <time>2010-06-13T07:15:06Z</time>
      </trkpt>
      <trkpt lat="45.875532031059265" lon="9.033267991617322">
        <ele>562</ele>
        <time>2010-06-13T07:15:07Z</time>
      </trkpt>
      <trkpt lat="45.875514009967446" lon="9.033319959416986">
        <ele>562</ele>
        <time>2010-06-13T07:15:08Z</time>
      </trkpt>
      <trkpt lat="45.875514009967446" lon="9.0333710052073">
        <ele>562</ele>
        <time>2010-06-13T07:15:09Z</time>
      </trkpt>
      <trkpt lat="45.875514009967446" lon="9.033487010747194">
        <ele>562</ele>
        <time>2010-06-13T07:15:11Z</time>
      </trkpt>
      <trkpt lat="45.875521972775459" lon="9.033525986596942">
        <ele>562</ele>
        <time>2010-06-13T07:15:12Z</time>
      </trkpt>
      <trkpt lat="45.875540999695659" lon="9.033577032387257">
        <ele>562</ele>
        <time>2010-06-13T07:15:13Z</time>
      </trkpt>
      <trkpt lat="45.875548962503672" lon="9.03362900018692">
        <ele>562</ele>
        <time>2010-06-13T07:15:14Z</time>
      </trkpt>
      <trkpt lat="45.875558014959097" lon="9.033680967986584">
        <ele>562</ele>
        <time>2010-06-13T07:15:15Z</time>
      </trkpt>
      <trkpt lat="45.875558014959097" lon="9.033745005726814">
        <ele>562</ele>
        <time>2010-06-13T07:15:16Z</time>
      </trkpt>
      <trkpt lat="45.875576036050916" lon="9.033783981576562">
        <ele>561</ele>
        <time>2010-06-13T07:15:17Z</time>
      </trkpt>
      <trkpt lat="45.875576036050916" lon="9.033835027366877">
        <ele>561</ele>
        <time>2010-06-13T07:15:18Z</time>
      </trkpt>
      <trkpt lat="45.875585004687309" lon="9.033899987116456">
        <ele>561</ele>
        <time>2010-06-13T07:15:19Z</time>
      </trkpt>
      <trkpt lat="45.875593973323703" lon="9.033951032906771">
        <ele>561</ele>
        <time>2010-06-13T07:15:20Z</time>
      </trkpt>
      <trkpt lat="45.875603025779128" lon="9.034028984606266">
        <ele>562</ele>
        <time>2010-06-13T07:15:21Z</time>
      </trkpt>
      <trkpt lat="45.875603025779128" lon="9.034093022346497">
        <ele>562</ele>
        <time>2010-06-13T07:15:22Z</time>
      </trkpt>
      <trkpt lat="45.875593973323703" lon="9.034169968217611">
        <ele>562</ele>
        <time>2010-06-13T07:15:23Z</time>
      </trkpt>
      <trkpt lat="45.875593973323703" lon="9.034298965707421">
        <ele>562</ele>
        <time>2010-06-13T07:15:25Z</time>
      </trkpt>
      <trkpt lat="45.875603025779128" lon="9.034364009276032">
        <ele>562</ele>
        <time>2010-06-13T07:15:26Z</time>
      </trkpt>
      <trkpt lat="45.875611994415522" lon="9.034427963197231">
        <ele>561</ele>
        <time>2010-06-13T07:15:27Z</time>
      </trkpt>
      <trkpt lat="45.875638984143734" lon="9.034479008987546">
        <ele>561</ele>
        <time>2010-06-13T07:15:28Z</time>
      </trkpt>
      <trkpt lat="45.875675026327372" lon="9.034517984837294">
        <ele>561</ele>
        <time>2010-06-13T07:15:29Z</time>
      </trkpt>
      <trkpt lat="45.875720037147403" lon="9.034543968737125">
        <ele>561</ele>
        <time>2010-06-13T07:15:30Z</time>
      </trkpt>
      <trkpt lat="45.875764964148402" lon="9.03453097678721">
        <ele>561</ele>
        <time>2010-06-13T07:15:31Z</time>
      </trkpt>
      <trkpt lat="45.875792037695646" lon="9.034517984837294">
        <ele>561</ele>
        <time>2010-06-13T07:15:32Z</time>
      </trkpt>
      <trkpt lat="45.875819027423859" lon="9.034492000937462">
        <ele>561</ele>
        <time>2010-06-13T07:15:33Z</time>
      </trkpt>
      <trkpt lat="45.875819027423859" lon="9.034467022866011">
        <ele>561</ele>
        <time>2010-06-13T07:15:34Z</time>
      </trkpt>
      <trkpt lat="45.875836964696646" lon="9.034441038966179">
        <ele>562</ele>
        <time>2010-06-13T07:15:35Z</time>
      </trkpt>
      <trkpt lat="45.875891027972102" lon="9.034388987347484">
        <ele>562</ele>
        <time>2010-06-13T07:15:37Z</time>
      </trkpt>
      <trkpt lat="45.875908965244889" lon="9.034377001225948">
        <ele>561</ele>
        <time>2010-06-13T07:15:38Z</time>
      </trkpt>
      <trkpt lat="45.875945007428527" lon="9.034364009276032">
        <ele>561</ele>
        <time>2010-06-13T07:15:39Z</time>
      </trkpt>
      <trkpt lat="45.87601700797677" lon="9.034351017326117">
        <ele>561</ele>
        <time>2010-06-13T07:15:41Z</time>
      </trkpt>
      <trkpt lat="45.876062018796802" lon="9.034351017326117">
        <ele>562</ele>
        <time>2010-06-13T07:15:42Z</time>
      </trkpt>
      <trkpt lat="45.876097977161407" lon="9.034364009276032">
        <ele>562</ele>
        <time>2010-06-13T07:15:43Z</time>
      </trkpt>
      <trkpt lat="45.876134019345045" lon="9.034389993175864">
        <ele>562</ele>
        <time>2010-06-13T07:15:44Z</time>
      </trkpt>
      <trkpt lat="45.876169977709651" lon="9.0344019792974">
        <ele>563</ele>
        <time>2010-06-13T07:15:45Z</time>
      </trkpt>
      <trkpt lat="45.876206019893289" lon="9.034427963197231">
        <ele>563</ele>
        <time>2010-06-13T07:15:46Z</time>
      </trkpt>
      <trkpt lat="45.876241978257895" lon="9.034454030916095">
        <ele>563</ele>
        <time>2010-06-13T07:15:47Z</time>
      </trkpt>
      <trkpt lat="45.876286989077926" lon="9.034480014815927">
        <ele>563</ele>
        <time>2010-06-13T07:15:48Z</time>
      </trkpt>
      <trkpt lat="45.876323031261563" lon="9.034518990665674">
        <ele>562</ele>
        <time>2010-06-13T07:15:49Z</time>
      </trkpt>
      <trkpt lat="45.876358989626169" lon="9.034543968737125">
        <ele>562</ele>
        <time>2010-06-13T07:15:50Z</time>
      </trkpt>
      <trkpt lat="45.876395031809807" lon="9.034570036455989">
        <ele>562</ele>
        <time>2010-06-13T07:15:51Z</time>
      </trkpt>
      <trkpt lat="45.876430990174413" lon="9.034596020355821">
        <ele>563</ele>
        <time>2010-06-13T07:15:52Z</time>
      </trkpt>
      <trkpt lat="45.87646703235805" lon="9.034634996205568">
        <ele>563</ele>
        <time>2010-06-13T07:15:53Z</time>
      </trkpt>
      <trkpt lat="45.876502990722656" lon="9.0346609801054">
        <ele>563</ele>
        <time>2010-06-13T07:15:54Z</time>
      </trkpt>
      <trkpt lat="45.876548001542687" lon="9.034685958176851">
        <ele>563</ele>
        <time>2010-06-13T07:15:55Z</time>
      </trkpt>
      <trkpt lat="45.876583959907293" lon="9.034712025895715">
        <ele>563</ele>
        <time>2010-06-13T07:15:56Z</time>
      </trkpt>
      <trkpt lat="45.876620002090931" lon="9.034738009795547">
        <ele>563</ele>
        <time>2010-06-13T07:15:57Z</time>
      </trkpt>
      <trkpt lat="45.876655960455537" lon="9.034763993695378">
        <ele>563</ele>
        <time>2010-06-13T07:15:58Z</time>
      </trkpt>
      <trkpt lat="45.876692002639174" lon="9.03478897176683">
        <ele>563</ele>
        <time>2010-06-13T07:15:59Z</time>
      </trkpt>
      <trkpt lat="45.876737013459206" lon="9.034815039485693">
        <ele>562</ele>
        <time>2010-06-13T07:16:00Z</time>
      </trkpt>
      <trkpt lat="45.876772971823812" lon="9.034841023385525">
        <ele>562</ele>
        <time>2010-06-13T07:16:01Z</time>
      </trkpt>
      <trkpt lat="45.876809014007449" lon="9.034867007285357">
        <ele>563</ele>
        <time>2010-06-13T07:16:02Z</time>
      </trkpt>
      <trkpt lat="45.87685402482748" lon="9.034905983135104">
        <ele>563</ele>
        <time>2010-06-13T07:16:03Z</time>
      </trkpt>
      <trkpt lat="45.876889983192086" lon="9.034930961206555">
        <ele>563</ele>
        <time>2010-06-13T07:16:04Z</time>
      </trkpt>
      <trkpt lat="45.876926025375724" lon="9.034957028925419">
        <ele>563</ele>
        <time>2010-06-13T07:16:05Z</time>
      </trkpt>
      <trkpt lat="45.876971036195755" lon="9.034983012825251">
        <ele>563</ele>
        <time>2010-06-13T07:16:06Z</time>
      </trkpt>
      <trkpt lat="45.87702501565218" lon="9.035008996725082">
        <ele>563</ele>
        <time>2010-06-13T07:16:07Z</time>
      </trkpt>
      <trkpt lat="45.877070026472211" lon="9.035033974796534">
        <ele>563</ele>
        <time>2010-06-13T07:16:08Z</time>
      </trkpt>
      <trkpt lat="45.877105984836817" lon="9.035073034465313">
        <ele>563</ele>
        <time>2010-06-13T07:16:09Z</time>
      </trkpt>
      <trkpt lat="45.877150995656848" lon="9.035112010315061">
        <ele>563</ele>
        <time>2010-06-13T07:16:10Z</time>
      </trkpt>
      <trkpt lat="45.877196006476879" lon="9.035137994214892">
        <ele>563</ele>
        <time>2010-06-13T07:16:11Z</time>
      </trkpt>
      <trkpt lat="45.877231964841485" lon="9.03517596423626">
        <ele>563</ele>
        <time>2010-06-13T07:16:12Z</time>
      </trkpt>
      <trkpt lat="45.877276975661516" lon="9.035202031955123">
        <ele>563</ele>
        <time>2010-06-13T07:16:13Z</time>
      </trkpt>
      <trkpt lat="45.877313017845154" lon="9.035241007804871">
        <ele>563</ele>
        <time>2010-06-13T07:16:14Z</time>
      </trkpt>
      <trkpt lat="45.87734897620976" lon="9.035266991704702">
        <ele>564</ele>
        <time>2010-06-13T07:16:15Z</time>
      </trkpt>
      <trkpt lat="45.877385018393397" lon="9.03530496172607">
        <ele>564</ele>
        <time>2010-06-13T07:16:16Z</time>
      </trkpt>
      <trkpt lat="45.877430029213428" lon="9.035331029444933">
        <ele>564</ele>
        <time>2010-06-13T07:16:17Z</time>
      </trkpt>
      <trkpt lat="45.877465987578034" lon="9.035357013344765">
        <ele>564</ele>
        <time>2010-06-13T07:16:18Z</time>
      </trkpt>
      <trkpt lat="45.877502029761672" lon="9.035382997244597">
        <ele>564</ele>
        <time>2010-06-13T07:16:19Z</time>
      </trkpt>
      <trkpt lat="45.877547040581703" lon="9.035408981144428">
        <ele>564</ele>
        <time>2010-06-13T07:16:20Z</time>
      </trkpt>
      <trkpt lat="45.877582998946309" lon="9.035433959215879">
        <ele>564</ele>
        <time>2010-06-13T07:16:21Z</time>
      </trkpt>
      <trkpt lat="45.87762800976634" lon="9.035447034984827">
        <ele>565</ele>
        <time>2010-06-13T07:16:22Z</time>
      </trkpt>
      <trkpt lat="45.877673020586371" lon="9.035460026934743">
        <ele>564</ele>
        <time>2010-06-13T07:16:23Z</time>
      </trkpt>
      <trkpt lat="45.877708978950977" lon="9.035473018884659">
        <ele>564</ele>
        <time>2010-06-13T07:16:24Z</time>
      </trkpt>
      <trkpt lat="45.877753989771008" lon="9.035486010834575">
        <ele>565</ele>
        <time>2010-06-13T07:16:25Z</time>
      </trkpt>
      <trkpt lat="45.87779900059104" lon="9.035499002784491">
        <ele>565</ele>
        <time>2010-06-13T07:16:26Z</time>
      </trkpt>
      <trkpt lat="45.877844011411071" lon="9.035511994734407">
        <ele>565</ele>
        <time>2010-06-13T07:16:27Z</time>
      </trkpt>
      <trkpt lat="45.877889022231102" lon="9.035524986684322">
        <ele>565</ele>
        <time>2010-06-13T07:16:28Z</time>
      </trkpt>
      <trkpt lat="45.877934033051133" lon="9.035524986684322">
        <ele>565</ele>
        <time>2010-06-13T07:16:29Z</time>
      </trkpt>
      <trkpt lat="45.877978960052133" lon="9.035537978634238">
        <ele>565</ele>
        <time>2010-06-13T07:16:30Z</time>
      </trkpt>
      <trkpt lat="45.878033023327589" lon="9.035537978634238">
        <ele>565</ele>
        <time>2010-06-13T07:16:31Z</time>
      </trkpt>
      <trkpt lat="45.87807803414762" lon="9.035550970584154">
        <ele>565</ele>
        <time>2010-06-13T07:16:33Z</time>
      </trkpt>
      <trkpt lat="45.878177024424076" lon="9.03556396253407">
        <ele>564</ele>
        <time>2010-06-13T07:16:34Z</time>
      </trkpt>
      <trkpt lat="45.878222035244107" lon="9.035576032474637">
        <ele>564</ele>
        <time>2010-06-13T07:16:35Z</time>
      </trkpt>
      <trkpt lat="45.878266962245107" lon="9.035589024424553">
        <ele>564</ele>
        <time>2010-06-13T07:16:36Z</time>
      </trkpt>
      <trkpt lat="45.878321025520563" lon="9.035602016374469">
        <ele>564</ele>
        <time>2010-06-13T07:16:37Z</time>
      </trkpt>
      <trkpt lat="45.878366036340594" lon="9.035615008324385">
        <ele>564</ele>
        <time>2010-06-13T07:16:38Z</time>
      </trkpt>
      <trkpt lat="45.878428984433413" lon="9.035615008324385">
        <ele>565</ele>
        <time>2010-06-13T07:16:39Z</time>
      </trkpt>
      <trkpt lat="45.878473995253444" lon="9.035628000274301">
        <ele>564</ele>
        <time>2010-06-13T07:16:40Z</time>
      </trkpt>
      <trkpt lat="45.878519006073475" lon="9.035640992224217">
        <ele>564</ele>
        <time>2010-06-13T07:16:41Z</time>
      </trkpt>
      <trkpt lat="45.878564016893506" lon="9.035653984174132">
        <ele>564</ele>
        <time>2010-06-13T07:16:42Z</time>
      </trkpt>
      <trkpt lat="45.878617996349931" lon="9.035666976124048">
        <ele>565</ele>
        <time>2010-06-13T07:16:43Z</time>
      </trkpt>
      <trkpt lat="45.878663007169962" lon="9.03569296002388">
        <ele>564</ele>
        <time>2010-06-13T07:16:44Z</time>
      </trkpt>
      <trkpt lat="45.878708017989993" lon="9.035719027742744">
        <ele>564</ele>
        <time>2010-06-13T07:16:45Z</time>
      </trkpt>
      <trkpt lat="45.878743976354599" lon="9.035756997764111">
        <ele>564</ele>
        <time>2010-06-13T07:16:46Z</time>
      </trkpt>
      <trkpt lat="45.878761997446418" lon="9.035808965563774">
        <ele>564</ele>
        <time>2010-06-13T07:16:47Z</time>
      </trkpt>
      <trkpt lat="45.878798039630055" lon="9.035847019404173">
        <ele>564</ele>
        <time>2010-06-13T07:16:48Z</time>
      </trkpt>
      <trkpt lat="45.878833997994661" lon="9.035898987203836">
        <ele>564</ele>
        <time>2010-06-13T07:16:49Z</time>
      </trkpt>
      <trkpt lat="45.878860987722874" lon="9.035951038822532">
        <ele>565</ele>
        <time>2010-06-13T07:16:50Z</time>
      </trkpt>
      <trkpt lat="45.878879008814692" lon="9.036002000793815">
        <ele>565</ele>
        <time>2010-06-13T07:16:51Z</time>
      </trkpt>
      <trkpt lat="45.878879008814692" lon="9.036066960543394">
        <ele>564</ele>
        <time>2010-06-13T07:16:52Z</time>
      </trkpt>
      <trkpt lat="45.878887977451086" lon="9.036195036023855">
        <ele>565</ele>
        <time>2010-06-13T07:16:54Z</time>
      </trkpt>
      <trkpt lat="45.878887977451086" lon="9.036247003823519">
        <ele>566</ele>
        <time>2010-06-13T07:16:55Z</time>
      </trkpt>
      <trkpt lat="45.878897029906511" lon="9.036311041563749">
        <ele>566</ele>
        <time>2010-06-13T07:16:56Z</time>
      </trkpt>
      <trkpt lat="45.878887977451086" lon="9.036363009363413">
        <ele>566</ele>
        <time>2010-06-13T07:16:57Z</time>
      </trkpt>
      <trkpt lat="45.878897029906511" lon="9.036427969112992">
        <ele>565</ele>
        <time>2010-06-13T07:16:58Z</time>
      </trkpt>
      <trkpt lat="45.878905998542905" lon="9.036504998803139">
        <ele>565</ele>
        <time>2010-06-13T07:16:59Z</time>
      </trkpt>
      <trkpt lat="45.878914967179298" lon="9.036569036543369">
        <ele>565</ele>
        <time>2010-06-13T07:17:00Z</time>
      </trkpt>
      <trkpt lat="45.878914967179298" lon="9.036633996292949">
        <ele>566</ele>
        <time>2010-06-13T07:17:01Z</time>
      </trkpt>
      <trkpt lat="45.878924019634724" lon="9.036684958264232">
        <ele>566</ele>
        <time>2010-06-13T07:17:02Z</time>
      </trkpt>
      <trkpt lat="45.878924019634724" lon="9.036748996004462">
        <ele>566</ele>
        <time>2010-06-13T07:17:03Z</time>
      </trkpt>
      <trkpt lat="45.878932988271117" lon="9.036814039573073">
        <ele>566</ele>
        <time>2010-06-13T07:17:04Z</time>
      </trkpt>
      <trkpt lat="45.878932988271117" lon="9.036866007372737">
        <ele>566</ele>
        <time>2010-06-13T07:17:05Z</time>
      </trkpt>
      <trkpt lat="45.878942040726542" lon="9.036929961293936">
        <ele>567</ele>
        <time>2010-06-13T07:17:06Z</time>
      </trkpt>
      <trkpt lat="45.878951009362936" lon="9.036981007084251">
        <ele>567</ele>
        <time>2010-06-13T07:17:07Z</time>
      </trkpt>
      <trkpt lat="45.87895997799933" lon="9.03704596683383">
        <ele>567</ele>
        <time>2010-06-13T07:17:08Z</time>
      </trkpt>
      <trkpt lat="45.878969030454755" lon="9.037097012624145">
        <ele>567</ele>
        <time>2010-06-13T07:17:09Z</time>
      </trkpt>
      <trkpt lat="45.878969030454755" lon="9.037161972373724">
        <ele>567</ele>
        <time>2010-06-13T07:17:10Z</time>
      </trkpt>
      <trkpt lat="45.878976993262768" lon="9.037214023992419">
        <ele>567</ele>
        <time>2010-06-13T07:17:11Z</time>
      </trkpt>
      <trkpt lat="45.878996020182967" lon="9.037277977913618">
        <ele>567</ele>
        <time>2010-06-13T07:17:12Z</time>
      </trkpt>
      <trkpt lat="45.87900398299098" lon="9.037342015653849">
        <ele>567</ele>
        <time>2010-06-13T07:17:13Z</time>
      </trkpt>
      <trkpt lat="45.879022004082799" lon="9.037393983453512">
        <ele>567</ele>
        <time>2010-06-13T07:17:14Z</time>
      </trkpt>
      <trkpt lat="45.879030972719193" lon="9.037458021193743">
        <ele>567</ele>
        <time>2010-06-13T07:17:15Z</time>
      </trkpt>
      <trkpt lat="45.879041031002998" lon="9.037509988993406">
        <ele>568</ele>
        <time>2010-06-13T07:17:16Z</time>
      </trkpt>
      <trkpt lat="45.879058968275785" lon="9.037574026733637">
        <ele>568</ele>
        <time>2010-06-13T07:17:17Z</time>
      </trkpt>
      <trkpt lat="45.87906701490283" lon="9.0376259945333">
        <ele>568</ele>
        <time>2010-06-13T07:17:18Z</time>
      </trkpt>
      <trkpt lat="45.879075983539224" lon="9.037690032273531">
        <ele>568</ele>
        <time>2010-06-13T07:17:19Z</time>
      </trkpt>
      <trkpt lat="45.87906701490283" lon="9.037819029763341">
        <ele>568</ele>
        <time>2010-06-13T07:17:21Z</time>
      </trkpt>
      <trkpt lat="45.87906701490283" lon="9.03788398951292">
        <ele>568</ele>
        <time>2010-06-13T07:17:22Z</time>
      </trkpt>
      <trkpt lat="45.879085035994649" lon="9.037948027253151">
        <ele>568</ele>
        <time>2010-06-13T07:17:23Z</time>
      </trkpt>
      <trkpt lat="45.879075983539224" lon="9.03801198117435">
        <ele>568</ele>
        <time>2010-06-13T07:17:24Z</time>
      </trkpt>
      <trkpt lat="45.879075983539224" lon="9.038064032793045">
        <ele>569</ele>
        <time>2010-06-13T07:17:25Z</time>
      </trkpt>
      <trkpt lat="45.87906701490283" lon="9.038180038332939">
        <ele>569</ele>
        <time>2010-06-13T07:17:27Z</time>
      </trkpt>
      <trkpt lat="45.879075983539224" lon="9.038232006132603">
        <ele>569</ele>
        <time>2010-06-13T07:17:28Z</time>
      </trkpt>
      <trkpt lat="45.879075983539224" lon="9.038295960053802">
        <ele>569</ele>
        <time>2010-06-13T07:17:29Z</time>
      </trkpt>
      <trkpt lat="45.879075983539224" lon="9.038347005844116">
        <ele>569</ele>
        <time>2010-06-13T07:17:30Z</time>
      </trkpt>
      <trkpt lat="45.879094004631042" lon="9.03839897364378">
        <ele>569</ele>
        <time>2010-06-13T07:17:31Z</time>
      </trkpt>
      <trkpt lat="45.879112025722861" lon="9.038451025262475">
        <ele>569</ele>
        <time>2010-06-13T07:17:32Z</time>
      </trkpt>
      <trkpt lat="45.879192994907498" lon="9.038514979183674">
        <ele>569</ele>
        <time>2010-06-13T07:17:34Z</time>
      </trkpt>
      <trkpt lat="45.879229037091136" lon="9.038514979183674">
        <ele>569</ele>
        <time>2010-06-13T07:17:35Z</time>
      </trkpt>
      <trkpt lat="45.879264995455742" lon="9.038501987233758">
        <ele>569</ele>
        <time>2010-06-13T07:17:36Z</time>
      </trkpt>
      <trkpt lat="45.879291985183954" lon="9.038477009162307">
        <ele>569</ele>
        <time>2010-06-13T07:17:37Z</time>
      </trkpt>
      <trkpt lat="45.879310006275773" lon="9.038451025262475">
        <ele>569</ele>
        <time>2010-06-13T07:17:38Z</time>
      </trkpt>
      <trkpt lat="45.879328027367592" lon="9.038411965593696">
        <ele>569</ele>
        <time>2010-06-13T07:17:39Z</time>
      </trkpt>
      <trkpt lat="45.879336996003985" lon="9.038373995572329">
        <ele>569</ele>
        <time>2010-06-13T07:17:40Z</time>
      </trkpt>
      <trkpt lat="45.879355017095804" lon="9.038322027772665">
        <ele>569</ele>
        <time>2010-06-13T07:17:41Z</time>
      </trkpt>
      <trkpt lat="45.879363985732198" lon="9.038282968103886">
        <ele>569</ele>
        <time>2010-06-13T07:17:42Z</time>
      </trkpt>
      <trkpt lat="45.879382006824017" lon="9.038232006132603">
        <ele>569</ele>
        <time>2010-06-13T07:17:43Z</time>
      </trkpt>
      <trkpt lat="45.879408996552229" lon="9.038180038332939">
        <ele>569</ele>
        <time>2010-06-13T07:17:44Z</time>
      </trkpt>
      <trkpt lat="45.879417965188622" lon="9.038128992542625">
        <ele>569</ele>
        <time>2010-06-13T07:17:45Z</time>
      </trkpt>
      <trkpt lat="45.879435986280441" lon="9.038077024742961">
        <ele>569</ele>
        <time>2010-06-13T07:17:46Z</time>
      </trkpt>
      <trkpt lat="45.879445038735867" lon="9.038025978952646">
        <ele>569</ele>
        <time>2010-06-13T07:17:47Z</time>
      </trkpt>
      <trkpt lat="45.879462976008654" lon="9.037961019203067">
        <ele>568</ele>
        <time>2010-06-13T07:17:48Z</time>
      </trkpt>
      <trkpt lat="45.879480997100472" lon="9.037909973412752">
        <ele>569</ele>
        <time>2010-06-13T07:17:49Z</time>
      </trkpt>
      <trkpt lat="45.879499018192291" lon="9.037858005613089">
        <ele>569</ele>
        <time>2010-06-13T07:17:50Z</time>
      </trkpt>
      <trkpt lat="45.87951703928411" lon="9.037806959822774">
        <ele>569</ele>
        <time>2010-06-13T07:17:51Z</time>
      </trkpt>
      <trkpt lat="45.879535982385278" lon="9.03775499202311">
        <ele>569</ele>
        <time>2010-06-13T07:17:52Z</time>
      </trkpt>
      <trkpt lat="45.879554003477097" lon="9.037704030051827">
        <ele>569</ele>
        <time>2010-06-13T07:17:53Z</time>
      </trkpt>
      <trkpt lat="45.879571018740535" lon="9.037638986483216">
        <ele>569</ele>
        <time>2010-06-13T07:17:54Z</time>
      </trkpt>
      <trkpt lat="45.879589039832354" lon="9.037587018683553">
        <ele>568</ele>
        <time>2010-06-13T07:17:55Z</time>
      </trkpt>
      <trkpt lat="45.879617035388947" lon="9.037535972893238">
        <ele>568</ele>
        <time>2010-06-13T07:17:56Z</time>
      </trkpt>
      <trkpt lat="45.879644025117159" lon="9.037472018972039">
        <ele>568</ele>
        <time>2010-06-13T07:17:57Z</time>
      </trkpt>
      <trkpt lat="45.879661962389946" lon="9.037419967353344">
        <ele>569</ele>
        <time>2010-06-13T07:17:58Z</time>
      </trkpt>
      <trkpt lat="45.879679983481765" lon="9.037356013432145">
        <ele>569</ele>
        <time>2010-06-13T07:17:59Z</time>
      </trkpt>
      <trkpt lat="45.879706973209977" lon="9.037290969863534">
        <ele>569</ele>
        <time>2010-06-13T07:18:00Z</time>
      </trkpt>
      <trkpt lat="45.879724994301796" lon="9.037240007892251">
        <ele>569</ele>
        <time>2010-06-13T07:18:01Z</time>
      </trkpt>
      <trkpt lat="45.879743015393615" lon="9.03717496432364">
        <ele>569</ele>
        <time>2010-06-13T07:18:02Z</time>
      </trkpt>
      <trkpt lat="45.879761036485434" lon="9.037124002352357">
        <ele>569</ele>
        <time>2010-06-13T07:18:03Z</time>
      </trkpt>
      <trkpt lat="45.879788026213646" lon="9.037058958783746">
        <ele>569</ele>
        <time>2010-06-13T07:18:04Z</time>
      </trkpt>
      <trkpt lat="45.879805963486433" lon="9.037007996812463">
        <ele>569</ele>
        <time>2010-06-13T07:18:05Z</time>
      </trkpt>
      <trkpt lat="45.879833037033677" lon="9.036943037062883">
        <ele>569</ele>
        <time>2010-06-13T07:18:06Z</time>
      </trkpt>
      <trkpt lat="45.879860026761889" lon="9.036891991272569">
        <ele>569</ele>
        <time>2010-06-13T07:18:07Z</time>
      </trkpt>
      <trkpt lat="45.879877964034677" lon="9.036827031522989">
        <ele>569</ele>
        <time>2010-06-13T07:18:08Z</time>
      </trkpt>
      <trkpt lat="45.879905037581921" lon="9.036775985732675">
        <ele>569</ele>
        <time>2010-06-13T07:18:09Z</time>
      </trkpt>
      <trkpt lat="45.879922974854708" lon="9.036712031811476">
        <ele>569</ele>
        <time>2010-06-13T07:18:10Z</time>
      </trkpt>
      <trkpt lat="45.87994996458292" lon="9.036659980192781">
        <ele>569</ele>
        <time>2010-06-13T07:18:11Z</time>
      </trkpt>
      <trkpt lat="45.879977038130164" lon="9.036596026271582">
        <ele>570</ele>
        <time>2010-06-13T07:18:12Z</time>
      </trkpt>
      <trkpt lat="45.879994975402951" lon="9.036543974652886">
        <ele>570</ele>
        <time>2010-06-13T07:18:13Z</time>
      </trkpt>
      <trkpt lat="45.880021965131164" lon="9.036480020731688">
        <ele>570</ele>
        <time>2010-06-13T07:18:14Z</time>
      </trkpt>
      <trkpt lat="45.880039986222982" lon="9.036414977163076">
        <ele>570</ele>
        <time>2010-06-13T07:18:15Z</time>
      </trkpt>
      <trkpt lat="45.880066975951195" lon="9.036364015191793">
        <ele>570</ele>
        <time>2010-06-13T07:18:16Z</time>
      </trkpt>
      <trkpt lat="45.880084997043014" lon="9.036298971623182">
        <ele>570</ele>
        <time>2010-06-13T07:18:17Z</time>
      </trkpt>
      <trkpt lat="45.880111986771226" lon="9.036248009651899">
        <ele>570</ele>
        <time>2010-06-13T07:18:18Z</time>
      </trkpt>
      <trkpt lat="45.880138976499438" lon="9.036182966083288">
        <ele>570</ele>
        <time>2010-06-13T07:18:19Z</time>
      </trkpt>
      <trkpt lat="45.880175018683076" lon="9.036132004112005">
        <ele>570</ele>
        <time>2010-06-13T07:18:20Z</time>
      </trkpt>
      <trkpt lat="45.880202008411288" lon="9.036093028262258">
        <ele>570</ele>
        <time>2010-06-13T07:18:21Z</time>
      </trkpt>
      <trkpt lat="45.880237966775894" lon="9.036053968593478">
        <ele>570</ele>
        <time>2010-06-13T07:18:22Z</time>
      </trkpt>
      <trkpt lat="45.880274008959532" lon="9.036028990522027">
        <ele>570</ele>
        <time>2010-06-13T07:18:23Z</time>
      </trkpt>
      <trkpt lat="45.880319019779563" lon="9.036003006622195">
        <ele>570</ele>
        <time>2010-06-13T07:18:24Z</time>
      </trkpt>
      <trkpt lat="45.880364030599594" lon="9.035990014672279">
        <ele>571</ele>
        <time>2010-06-13T07:18:25Z</time>
      </trkpt>
      <trkpt lat="45.8803999889642" lon="9.035977022722364">
        <ele>571</ele>
        <time>2010-06-13T07:18:26Z</time>
      </trkpt>
      <trkpt lat="45.880436031147838" lon="9.035964030772448">
        <ele>571</ele>
        <time>2010-06-13T07:18:27Z</time>
      </trkpt>
      <trkpt lat="45.880480958148837" lon="9.035964030772448">
        <ele>571</ele>
        <time>2010-06-13T07:18:28Z</time>
      </trkpt>
      <trkpt lat="45.880525968968868" lon="9.035964030772448">
        <ele>571</ele>
        <time>2010-06-13T07:18:29Z</time>
      </trkpt>
      <trkpt lat="45.880562011152506" lon="9.035977022722364">
        <ele>571</ele>
        <time>2010-06-13T07:18:30Z</time>
      </trkpt>
      <trkpt lat="45.880597969517112" lon="9.035990014672279">
        <ele>571</ele>
        <time>2010-06-13T07:18:31Z</time>
      </trkpt>
      <trkpt lat="45.880624959245324" lon="9.035990014672279">
        <ele>572</ele>
        <time>2010-06-13T07:18:32Z</time>
      </trkpt>
      <trkpt lat="45.880661001428962" lon="9.036003006622195">
        <ele>573</ele>
        <time>2010-06-13T07:18:33Z</time>
      </trkpt>
      <trkpt lat="45.880696959793568" lon="9.036015998572111">
        <ele>573</ele>
        <time>2010-06-13T07:18:34Z</time>
      </trkpt>
      <trkpt lat="45.880724033340812" lon="9.036028990522027">
        <ele>573</ele>
        <time>2010-06-13T07:18:35Z</time>
      </trkpt>
      <trkpt lat="45.880751023069024" lon="9.036054974421859">
        <ele>573</ele>
        <time>2010-06-13T07:18:36Z</time>
      </trkpt>
      <trkpt lat="45.88078698143363" lon="9.036067966371775">
        <ele>573</ele>
        <time>2010-06-13T07:18:37Z</time>
      </trkpt>
      <trkpt lat="45.880813971161842" lon="9.036080958321691">
        <ele>574</ele>
        <time>2010-06-13T07:18:38Z</time>
      </trkpt>
      <trkpt lat="45.88085001334548" lon="9.036080958321691">
        <ele>574</ele>
        <time>2010-06-13T07:18:39Z</time>
      </trkpt>
      <trkpt lat="45.880885971710086" lon="9.036080958321691">
        <ele>575</ele>
        <time>2010-06-13T07:18:40Z</time>
      </trkpt>
      <trkpt lat="45.880922013893723" lon="9.036080958321691">
        <ele>575</ele>
        <time>2010-06-13T07:18:41Z</time>
      </trkpt>
      <trkpt lat="45.880967024713755" lon="9.036067966371775">
        <ele>575</ele>
        <time>2010-06-13T07:18:42Z</time>
      </trkpt>
      <trkpt lat="45.881002983078361" lon="9.036041982471943">
        <ele>575</ele>
        <time>2010-06-13T07:18:43Z</time>
      </trkpt>
      <trkpt lat="45.881039025261998" lon="9.036004012450576">
        <ele>575</ele>
        <time>2010-06-13T07:18:44Z</time>
      </trkpt>
      <trkpt lat="45.881066014990211" lon="9.035965036600828">
        <ele>575</ele>
        <time>2010-06-13T07:18:45Z</time>
      </trkpt>
      <trkpt lat="45.881093004718423" lon="9.035912984982133">
        <ele>575</ele>
        <time>2010-06-13T07:18:46Z</time>
      </trkpt>
      <trkpt lat="45.881119994446635" lon="9.03586202301085">
        <ele>575</ele>
        <time>2010-06-13T07:18:47Z</time>
      </trkpt>
      <trkpt lat="45.881146984174848" lon="9.035796979442239">
        <ele>575</ele>
        <time>2010-06-13T07:18:48Z</time>
      </trkpt>
      <trkpt lat="45.881165005266666" lon="9.035746017470956">
        <ele>576</ele>
        <time>2010-06-13T07:18:49Z</time>
      </trkpt>
      <trkpt lat="45.881183026358485" lon="9.035680973902345">
        <ele>577</ele>
        <time>2010-06-13T07:18:50Z</time>
      </trkpt>
      <trkpt lat="45.881191994994879" lon="9.035630011931062">
        <ele>577</ele>
        <time>2010-06-13T07:18:51Z</time>
      </trkpt>
      <trkpt lat="45.881200963631272" lon="9.035577960312367">
        <ele>577</ele>
        <time>2010-06-13T07:18:52Z</time>
      </trkpt>
      <trkpt lat="45.881210016086698" lon="9.035539990290999">
        <ele>578</ele>
        <time>2010-06-13T07:18:53Z</time>
      </trkpt>
      <trkpt lat="45.881218984723091" lon="9.035501014441252">
        <ele>578</ele>
        <time>2010-06-13T07:18:54Z</time>
      </trkpt>
      <trkpt lat="45.88123700581491" lon="9.035410992801189">
        <ele>579</ele>
        <time>2010-06-13T07:18:56Z</time>
      </trkpt>
      <trkpt lat="45.881245974451303" lon="9.035359025001526">
        <ele>579</ele>
        <time>2010-06-13T07:18:57Z</time>
      </trkpt>
      <trkpt lat="45.881255026906729" lon="9.035320971161127">
        <ele>580</ele>
        <time>2010-06-13T07:18:58Z</time>
      </trkpt>
      <trkpt lat="45.881263995543122" lon="9.035294987261295">
        <ele>579</ele>
        <time>2010-06-13T07:18:59Z</time>
      </trkpt>
      <trkpt lat="45.881272964179516" lon="9.035243019461632">
        <ele>579</ele>
        <time>2010-06-13T07:19:00Z</time>
      </trkpt>
      <trkpt lat="45.881282016634941" lon="9.035204965621233">
        <ele>579</ele>
        <time>2010-06-13T07:19:01Z</time>
      </trkpt>
      <trkpt lat="45.88130003772676" lon="9.035165989771485">
        <ele>579</ele>
        <time>2010-06-13T07:19:02Z</time>
      </trkpt>
      <trkpt lat="45.881317974999547" lon="9.035140005871654">
        <ele>579</ele>
        <time>2010-06-13T07:19:03Z</time>
      </trkpt>
      <trkpt lat="45.881335996091366" lon="9.035114021971822">
        <ele>579</ele>
        <time>2010-06-13T07:19:04Z</time>
      </trkpt>
      <trkpt lat="45.881362985819578" lon="9.035088960081339">
        <ele>579</ele>
        <time>2010-06-13T07:19:05Z</time>
      </trkpt>
      <trkpt lat="45.881390981376171" lon="9.035062976181507">
        <ele>579</ele>
        <time>2010-06-13T07:19:06Z</time>
      </trkpt>
      <trkpt lat="45.881416965276003" lon="9.035049984231591">
        <ele>580</ele>
        <time>2010-06-13T07:19:07Z</time>
      </trkpt>
      <trkpt lat="45.881435992196202" lon="9.035036992281675">
        <ele>580</ele>
        <time>2010-06-13T07:19:08Z</time>
      </trkpt>
      <trkpt lat="45.881471028551459" lon="9.035036992281675">
        <ele>580</ele>
        <time>2010-06-13T07:19:09Z</time>
      </trkpt>
      <trkpt lat="45.881506986916065" lon="9.035036992281675">
        <ele>580</ele>
        <time>2010-06-13T07:19:10Z</time>
      </trkpt>
      <trkpt lat="45.881533976644278" lon="9.035049984231591">
        <ele>580</ele>
        <time>2010-06-13T07:19:11Z</time>
      </trkpt>
      <trkpt lat="45.88156096637249" lon="9.035062976181507">
        <ele>580</ele>
        <time>2010-06-13T07:19:12Z</time>
      </trkpt>
      <trkpt lat="45.881578987464309" lon="9.035075968131423">
        <ele>580</ele>
        <time>2010-06-13T07:19:13Z</time>
      </trkpt>
      <trkpt lat="45.881605977192521" lon="9.035088960081339">
        <ele>581</ele>
        <time>2010-06-13T07:19:14Z</time>
      </trkpt>
      <trkpt lat="45.881642019376159" lon="9.035102035850287">
        <ele>580</ele>
        <time>2010-06-13T07:19:15Z</time>
      </trkpt>
      <trkpt lat="45.881669009104371" lon="9.035141011700034">
        <ele>580</ele>
        <time>2010-06-13T07:19:16Z</time>
      </trkpt>
      <trkpt lat="45.881705973297358" lon="9.035165989771485">
        <ele>580</ele>
        <time>2010-06-13T07:19:17Z</time>
      </trkpt>
      <trkpt lat="45.881759030744433" lon="9.035191973671317">
        <ele>580</ele>
        <time>2010-06-13T07:19:18Z</time>
      </trkpt>
      <trkpt lat="45.881804041564465" lon="9.035244025290012">
        <ele>580</ele>
        <time>2010-06-13T07:19:19Z</time>
      </trkpt>
      <trkpt lat="45.881866989657283" lon="9.035281995311379">
        <ele>580</ele>
        <time>2010-06-13T07:19:20Z</time>
      </trkpt>
      <trkpt lat="45.881930021569133" lon="9.035333963111043">
        <ele>579</ele>
        <time>2010-06-13T07:19:21Z</time>
      </trkpt>
      <trkpt lat="45.882002022117376" lon="9.035373022779822">
        <ele>579</ele>
        <time>2010-06-13T07:19:22Z</time>
      </trkpt>
      <trkpt lat="45.882056001573801" lon="9.035423984751105">
        <ele>579</ele>
        <time>2010-06-13T07:19:23Z</time>
      </trkpt>
      <trkpt lat="45.88207402266562" lon="9.035514006391168">
        <ele>579</ele>
        <time>2010-06-13T07:19:24Z</time>
      </trkpt>
      <trkpt lat="45.882091959938407" lon="9.035591958090663">
        <ele>579</ele>
        <time>2010-06-13T07:19:25Z</time>
      </trkpt>
      <trkpt lat="45.882128002122045" lon="9.035655995830894">
        <ele>579</ele>
        <time>2010-06-13T07:19:26Z</time>
      </trkpt>
      <trkpt lat="45.882191034033895" lon="9.035707963630557">
        <ele>578</ele>
        <time>2010-06-13T07:19:27Z</time>
      </trkpt>
      <trkpt lat="45.882245013490319" lon="9.035772001370788">
        <ele>578</ele>
        <time>2010-06-13T07:19:28Z</time>
      </trkpt>
      <trkpt lat="45.88229002431035" lon="9.035823969170451">
        <ele>578</ele>
        <time>2010-06-13T07:19:29Z</time>
      </trkpt>
      <trkpt lat="45.882344003766775" lon="9.035888006910682">
        <ele>577</ele>
        <time>2010-06-13T07:19:30Z</time>
      </trkpt>
      <trkpt lat="45.882407035678625" lon="9.035939974710345">
        <ele>577</ele>
        <time>2010-06-13T07:19:31Z</time>
      </trkpt>
      <trkpt lat="45.88246101513505" lon="9.036004012450576">
        <ele>577</ele>
        <time>2010-06-13T07:19:32Z</time>
      </trkpt>
      <trkpt lat="45.882523963227868" lon="9.036055980250239">
        <ele>576</ele>
        <time>2010-06-13T07:19:33Z</time>
      </trkpt>
      <trkpt lat="45.882586995139718" lon="9.036121023818851">
        <ele>576</ele>
        <time>2010-06-13T07:19:34Z</time>
      </trkpt>
      <trkpt lat="45.882650027051568" lon="9.036158993840218">
        <ele>575</ele>
        <time>2010-06-13T07:19:35Z</time>
      </trkpt>
      <trkpt lat="45.882712975144386" lon="9.036210961639881">
        <ele>575</ele>
        <time>2010-06-13T07:19:36Z</time>
      </trkpt>
      <trkpt lat="45.882767038419843" lon="9.03624901548028">
        <ele>575</ele>
        <time>2010-06-13T07:19:37Z</time>
      </trkpt>
      <trkpt lat="45.882829986512661" lon="9.036287991330028">
        <ele>575</ele>
        <time>2010-06-13T07:19:38Z</time>
      </trkpt>
      <trkpt lat="45.882874997332692" lon="9.036326967179775">
        <ele>575</ele>
        <time>2010-06-13T07:19:39Z</time>
      </trkpt>
      <trkpt lat="45.882938029244542" lon="9.036366026848555">
        <ele>575</ele>
        <time>2010-06-13T07:19:40Z</time>
      </trkpt>
      <trkpt lat="45.88300097733736" lon="9.036403996869922">
        <ele>575</ele>
        <time>2010-06-13T07:19:41Z</time>
      </trkpt>
      <trkpt lat="45.883072977885604" lon="9.036429980769754">
        <ele>575</ele>
        <time>2010-06-13T07:19:42Z</time>
      </trkpt>
      <trkpt lat="45.883208010345697" lon="9.036495024338365">
        <ele>574</ele>
        <time>2010-06-13T07:19:44Z</time>
      </trkpt>
      <trkpt lat="45.883270958438516" lon="9.036532994359732">
        <ele>574</ele>
        <time>2010-06-13T07:19:45Z</time>
      </trkpt>
      <trkpt lat="45.883333990350366" lon="9.036571970209479">
        <ele>574</ele>
        <time>2010-06-13T07:19:46Z</time>
      </trkpt>
      <trkpt lat="45.883397022262216" lon="9.036611029878259">
        <ele>574</ele>
        <time>2010-06-13T07:19:47Z</time>
      </trkpt>
      <trkpt lat="45.883459970355034" lon="9.036661991849542">
        <ele>574</ele>
        <time>2010-06-13T07:19:48Z</time>
      </trkpt>
      <trkpt lat="45.88351403363049" lon="9.036740027368069">
        <ele>574</ele>
        <time>2010-06-13T07:19:49Z</time>
      </trkpt>
      <trkpt lat="45.88355896063149" lon="9.036816973239183">
        <ele>573</ele>
        <time>2010-06-13T07:19:50Z</time>
      </trkpt>
      <trkpt lat="45.883586034178734" lon="9.036906994879246">
        <ele>573</ele>
        <time>2010-06-13T07:19:51Z</time>
      </trkpt>
      <trkpt lat="45.883603971451521" lon="9.036985030397773">
        <ele>573</ele>
        <time>2010-06-13T07:19:52Z</time>
      </trkpt>
      <trkpt lat="45.88362199254334" lon="9.037061976268888">
        <ele>573</ele>
        <time>2010-06-13T07:19:53Z</time>
      </trkpt>
      <trkpt lat="45.883658034726977" lon="9.03715199790895">
        <ele>573</ele>
        <time>2010-06-13T07:19:54Z</time>
      </trkpt>
      <trkpt lat="45.883693993091583" lon="9.037229027599096">
        <ele>573</ele>
        <time>2010-06-13T07:19:55Z</time>
      </trkpt>
      <trkpt lat="45.883712014183402" lon="9.037319971248508">
        <ele>573</ele>
        <time>2010-06-13T07:19:56Z</time>
      </trkpt>
      <trkpt lat="45.883747972548008" lon="9.037397000938654">
        <ele>572</ele>
        <time>2010-06-13T07:19:57Z</time>
      </trkpt>
      <trkpt lat="45.88377496227622" lon="9.037487022578716">
        <ele>572</ele>
        <time>2010-06-13T07:19:58Z</time>
      </trkpt>
      <trkpt lat="45.883802035823464" lon="9.037576960399747">
        <ele>572</ele>
        <time>2010-06-13T07:19:59Z</time>
      </trkpt>
      <trkpt lat="45.88383799418807" lon="9.03766798786819">
        <ele>572</ele>
        <time>2010-06-13T07:20:00Z</time>
      </trkpt>
      <trkpt lat="45.883864983916283" lon="9.037758009508252">
        <ele>572</ele>
        <time>2010-06-13T07:20:01Z</time>
      </trkpt>
      <trkpt lat="45.883891973644495" lon="9.037835039198399">
        <ele>571</ele>
        <time>2010-06-13T07:20:02Z</time>
      </trkpt>
      <trkpt lat="45.883928015828133" lon="9.037912990897894">
        <ele>571</ele>
        <time>2010-06-13T07:20:03Z</time>
      </trkpt>
      <trkpt lat="45.883973026648164" lon="9.037977028638125">
        <ele>571</ele>
        <time>2010-06-13T07:20:04Z</time>
      </trkpt>
      <trkpt lat="45.884027006104589" lon="9.038041988387704">
        <ele>572</ele>
        <time>2010-06-13T07:20:05Z</time>
      </trkpt>
      <trkpt lat="45.884090038016438" lon="9.038066966459155">
        <ele>572</ele>
        <time>2010-06-13T07:20:06Z</time>
      </trkpt>
      <trkpt lat="45.884152986109257" lon="9.03805498033762">
        <ele>571</ele>
        <time>2010-06-13T07:20:07Z</time>
      </trkpt>
      <trkpt lat="45.884206965565681" lon="9.038028996437788">
        <ele>570</ele>
        <time>2010-06-13T07:20:08Z</time>
      </trkpt>
      <trkpt lat="45.88428801856935" lon="9.037964036688209">
        <ele>570</ele>
        <time>2010-06-13T07:20:09Z</time>
      </trkpt>
      <trkpt lat="45.884378040209413" lon="9.037887006998062">
        <ele>570</ele>
        <time>2010-06-13T07:20:10Z</time>
      </trkpt>
      <trkpt lat="45.884440988302231" lon="9.037835961207748">
        <ele>569</ele>
        <time>2010-06-13T07:20:11Z</time>
      </trkpt>
      <trkpt lat="45.884494967758656" lon="9.037796985358">
        <ele>569</ele>
        <time>2010-06-13T07:20:12Z</time>
      </trkpt>
      <trkpt lat="45.884576020762324" lon="9.037759015336633">
        <ele>570</ele>
        <time>2010-06-13T07:20:13Z</time>
      </trkpt>
      <trkpt lat="45.884648021310568" lon="9.037746023386717">
        <ele>570</ele>
        <time>2010-06-13T07:20:14Z</time>
      </trkpt>
      <trkpt lat="45.884720021858811" lon="9.037746023386717">
        <ele>569</ele>
        <time>2010-06-13T07:20:15Z</time>
      </trkpt>
      <trkpt lat="45.884792022407055" lon="9.037759015336633">
        <ele>569</ele>
        <time>2010-06-13T07:20:16Z</time>
      </trkpt>
      <trkpt lat="45.884864022955298" lon="9.037772007286549">
        <ele>569</ele>
        <time>2010-06-13T07:20:17Z</time>
      </trkpt>
      <trkpt lat="45.884926971048117" lon="9.037783993408084">
        <ele>568</ele>
        <time>2010-06-13T07:20:18Z</time>
      </trkpt>
      <trkpt lat="45.88499897159636" lon="9.037809977307916">
        <ele>569</ele>
        <time>2010-06-13T07:20:19Z</time>
      </trkpt>
      <trkpt lat="45.88506200350821" lon="9.037822969257832">
        <ele>568</ele>
        <time>2010-06-13T07:20:20Z</time>
      </trkpt>
      <trkpt lat="45.885134004056454" lon="9.037835961207748">
        <ele>568</ele>
        <time>2010-06-13T07:20:21Z</time>
      </trkpt>
      <trkpt lat="45.885197035968304" lon="9.037822969257832">
        <ele>568</ele>
        <time>2010-06-13T07:20:22Z</time>
      </trkpt>
      <trkpt lat="45.885269036516547" lon="9.037810983136296">
        <ele>568</ele>
        <time>2010-06-13T07:20:23Z</time>
      </trkpt>
      <trkpt lat="45.885331984609365" lon="9.037784999236465">
        <ele>567</ele>
        <time>2010-06-13T07:20:24Z</time>
      </trkpt>
      <trkpt lat="45.885395016521215" lon="9.037759015336633">
        <ele>567</ele>
        <time>2010-06-13T07:20:25Z</time>
      </trkpt>
      <trkpt lat="45.885467017069459" lon="9.037720961496234">
        <ele>568</ele>
        <time>2010-06-13T07:20:26Z</time>
      </trkpt>
      <trkpt lat="45.885539017617702" lon="9.037681985646486">
        <ele>568</ele>
        <time>2010-06-13T07:20:27Z</time>
      </trkpt>
      <trkpt lat="45.885601965710521" lon="9.037643009796739">
        <ele>567</ele>
        <time>2010-06-13T07:20:28Z</time>
      </trkpt>
      <trkpt lat="45.885673966258764" lon="9.037617025896907">
        <ele>567</ele>
        <time>2010-06-13T07:20:29Z</time>
      </trkpt>
      <trkpt lat="45.885736998170614" lon="9.037578972056508">
        <ele>567</ele>
        <time>2010-06-13T07:20:30Z</time>
      </trkpt>
      <trkpt lat="45.885800030082464" lon="9.03753999620676">
        <ele>566</ele>
        <time>2010-06-13T07:20:31Z</time>
      </trkpt>
      <trkpt lat="45.885872030630708" lon="9.037514012306929">
        <ele>566</ele>
        <time>2010-06-13T07:20:32Z</time>
      </trkpt>
      <trkpt lat="45.885944031178951" lon="9.037502026185393">
        <ele>565</ele>
        <time>2010-06-13T07:20:33Z</time>
      </trkpt>
      <trkpt lat="45.886016031727195" lon="9.037515018135309">
        <ele>565</ele>
        <time>2010-06-13T07:20:34Z</time>
      </trkpt>
      <trkpt lat="45.886078979820013" lon="9.037527004256845">
        <ele>564</ele>
        <time>2010-06-13T07:20:35Z</time>
      </trkpt>
      <trkpt lat="45.886150980368257" lon="9.037552988156676">
        <ele>564</ele>
        <time>2010-06-13T07:20:36Z</time>
      </trkpt>
      <trkpt lat="45.8862229809165" lon="9.037578972056508">
        <ele>565</ele>
        <time>2010-06-13T07:20:37Z</time>
      </trkpt>
      <trkpt lat="45.886294981464744" lon="9.037618031725287">
        <ele>565</ele>
        <time>2010-06-13T07:20:38Z</time>
      </trkpt>
      <trkpt lat="45.886366982012987" lon="9.037644015625119">
        <ele>565</ele>
        <time>2010-06-13T07:20:39Z</time>
      </trkpt>
      <trkpt lat="45.886438982561231" lon="9.03766899369657">
        <ele>565</ele>
        <time>2010-06-13T07:20:40Z</time>
      </trkpt>
      <trkpt lat="45.886510983109474" lon="9.037694977596402">
        <ele>564</ele>
        <time>2010-06-13T07:20:41Z</time>
      </trkpt>
      <trkpt lat="45.886592036113143" lon="9.037734037265182">
        <ele>564</ele>
        <time>2010-06-13T07:20:42Z</time>
      </trkpt>
      <trkpt lat="45.886654984205961" lon="9.037823975086212">
        <ele>564</ele>
        <time>2010-06-13T07:20:43Z</time>
      </trkpt>
      <trkpt lat="45.886708963662386" lon="9.037915002554655">
        <ele>563</ele>
        <time>2010-06-13T07:20:44Z</time>
      </trkpt>
      <trkpt lat="45.88673603720963" lon="9.038031008094549">
        <ele>563</ele>
        <time>2010-06-13T07:20:45Z</time>
      </trkpt>
      <trkpt lat="45.886745005846024" lon="9.038147013634443">
        <ele>563</ele>
        <time>2010-06-13T07:20:46Z</time>
      </trkpt>
      <trkpt lat="45.886763026937842" lon="9.038263019174337">
        <ele>562</ele>
        <time>2010-06-13T07:20:47Z</time>
      </trkpt>
      <trkpt lat="45.886771995574236" lon="9.038379024714232">
        <ele>562</ele>
        <time>2010-06-13T07:20:48Z</time>
      </trkpt>
      <trkpt lat="45.886798985302448" lon="9.03848203830421">
        <ele>562</ele>
        <time>2010-06-13T07:20:49Z</time>
      </trkpt>
      <trkpt lat="45.886835027486086" lon="9.038584968075156">
        <ele>562</ele>
        <time>2010-06-13T07:20:50Z</time>
      </trkpt>
      <trkpt lat="45.886870985850692" lon="9.038687981665134">
        <ele>562</ele>
        <time>2010-06-13T07:20:51Z</time>
      </trkpt>
      <trkpt lat="45.886907028034329" lon="9.038778003305197">
        <ele>563</ele>
        <time>2010-06-13T07:20:52Z</time>
      </trkpt>
      <trkpt lat="45.886941980570555" lon="9.038856038823724">
        <ele>562</ele>
        <time>2010-06-13T07:20:53Z</time>
      </trkpt>
      <trkpt lat="45.88699696585536" lon="9.038932984694839">
        <ele>562</ele>
        <time>2010-06-13T07:20:54Z</time>
      </trkpt>
      <trkpt lat="45.887041976675391" lon="9.038997022435069">
        <ele>561</ele>
        <time>2010-06-13T07:20:55Z</time>
      </trkpt>
      <trkpt lat="45.887113977223635" lon="9.039048990234733">
        <ele>561</ele>
        <time>2010-06-13T07:20:56Z</time>
      </trkpt>
      <trkpt lat="45.887177009135485" lon="9.039114033803344">
        <ele>561</ele>
        <time>2010-06-13T07:20:57Z</time>
      </trkpt>
      <trkpt lat="45.887239035218954" lon="9.039164995774627">
        <ele>561</ele>
        <time>2010-06-13T07:20:58Z</time>
      </trkpt>
      <trkpt lat="45.887301983311772" lon="9.039230039343238">
        <ele>561</ele>
        <time>2010-06-13T07:20:59Z</time>
      </trkpt>
      <trkpt lat="45.887366021052003" lon="9.039293993264437">
        <ele>560</ele>
        <time>2010-06-13T07:21:00Z</time>
      </trkpt>
      <trkpt lat="45.887427963316441" lon="9.0393459610641">
        <ele>560</ele>
        <time>2010-06-13T07:21:01Z</time>
      </trkpt>
      <trkpt lat="45.887490995228291" lon="9.039409998804331">
        <ele>560</ele>
        <time>2010-06-13T07:21:02Z</time>
      </trkpt>
      <trkpt lat="45.887545980513096" lon="9.039487028494477">
        <ele>560</ele>
        <time>2010-06-13T07:21:03Z</time>
      </trkpt>
      <trkpt lat="45.887599037960172" lon="9.039577972143889">
        <ele>560</ele>
        <time>2010-06-13T07:21:04Z</time>
      </trkpt>
      <trkpt lat="45.887634996324778" lon="9.039680985733867">
        <ele>559</ele>
        <time>2010-06-13T07:21:05Z</time>
      </trkpt>
      <trkpt lat="45.88766198605299" lon="9.039783999323845">
        <ele>559</ele>
        <time>2010-06-13T07:21:06Z</time>
      </trkpt>
      <trkpt lat="45.887671038508415" lon="9.039900004863739">
        <ele>559</ele>
        <time>2010-06-13T07:21:07Z</time>
      </trkpt>
      <trkpt lat="45.887680007144809" lon="9.040016010403633">
        <ele>559</ele>
        <time>2010-06-13T07:21:08Z</time>
      </trkpt>
      <trkpt lat="45.887706996873021" lon="9.040119023993611">
        <ele>558</ele>
        <time>2010-06-13T07:21:09Z</time>
      </trkpt>
      <trkpt lat="45.887706996873021" lon="9.04022203758359">
        <ele>558</ele>
        <time>2010-06-13T07:21:10Z</time>
      </trkpt>
      <trkpt lat="45.887733986601233" lon="9.040324967354536">
        <ele>558</ele>
        <time>2010-06-13T07:21:11Z</time>
      </trkpt>
      <trkpt lat="45.887743039056659" lon="9.040428986772895">
        <ele>558</ele>
        <time>2010-06-13T07:21:12Z</time>
      </trkpt>
      <trkpt lat="45.887743039056659" lon="9.040532000362873">
        <ele>558</ele>
        <time>2010-06-13T07:21:13Z</time>
      </trkpt>
      <trkpt lat="45.887743039056659" lon="9.040647000074387">
        <ele>557</ele>
        <time>2010-06-13T07:21:14Z</time>
      </trkpt>
      <trkpt lat="45.887698028236628" lon="9.040751019492745">
        <ele>557</ele>
        <time>2010-06-13T07:21:15Z</time>
      </trkpt>
      <trkpt lat="45.887653017416596" lon="9.040841041132808">
        <ele>557</ele>
        <time>2010-06-13T07:21:16Z</time>
      </trkpt>
      <trkpt lat="45.887599037960172" lon="9.040904995054007">
        <ele>557</ele>
        <time>2010-06-13T07:21:17Z</time>
      </trkpt>
      <trkpt lat="45.887554027140141" lon="9.04095696285367">
        <ele>556</ele>
        <time>2010-06-13T07:21:18Z</time>
      </trkpt>
      <trkpt lat="45.887482026591897" lon="9.041008008643985">
        <ele>556</ele>
        <time>2010-06-13T07:21:19Z</time>
      </trkpt>
      <trkpt lat="45.887418994680047" lon="9.041046984493733">
        <ele>556</ele>
        <time>2010-06-13T07:21:20Z</time>
      </trkpt>
      <trkpt lat="45.88733802549541" lon="9.04108596034348">
        <ele>556</ele>
        <time>2010-06-13T07:21:21Z</time>
      </trkpt>
      <trkpt lat="45.887256972491741" lon="9.041111022233963">
        <ele>556</ele>
        <time>2010-06-13T07:21:22Z</time>
      </trkpt>
      <trkpt lat="45.887184971943498" lon="9.041124014183879">
        <ele>556</ele>
        <time>2010-06-13T07:21:23Z</time>
      </trkpt>
      <trkpt lat="45.887130992487073" lon="9.041149998083711">
        <ele>555</ele>
        <time>2010-06-13T07:21:24Z</time>
      </trkpt>
      <trkpt lat="45.887077013030648" lon="9.041187968105078">
        <ele>555</ele>
        <time>2010-06-13T07:21:25Z</time>
      </trkpt>
      <trkpt lat="45.887013981118798" lon="9.041253011673689">
        <ele>555</ele>
        <time>2010-06-13T07:21:26Z</time>
      </trkpt>
      <trkpt lat="45.886968970298767" lon="9.041343033313751">
        <ele>555</ele>
        <time>2010-06-13T07:21:27Z</time>
      </trkpt>
      <trkpt lat="45.886941980570555" lon="9.041459038853645">
        <ele>555</ele>
        <time>2010-06-13T07:21:28Z</time>
      </trkpt>
      <trkpt lat="45.886923959478736" lon="9.041588036343455">
        <ele>555</ele>
        <time>2010-06-13T07:21:29Z</time>
      </trkpt>
      <trkpt lat="45.886923959478736" lon="9.041690966114402">
        <ele>554</ele>
        <time>2010-06-13T07:21:30Z</time>
      </trkpt>
      <trkpt lat="45.886923959478736" lon="9.041806971654296">
        <ele>554</ele>
        <time>2010-06-13T07:21:31Z</time>
      </trkpt>
      <trkpt lat="45.886913985013962" lon="9.04192297719419">
        <ele>554</ele>
        <time>2010-06-13T07:21:32Z</time>
      </trkpt>
      <trkpt lat="45.886906022205949" lon="9.042167980223894">
        <ele>553</ele>
        <time>2010-06-13T07:21:34Z</time>
      </trkpt>
      <trkpt lat="45.886913985013962" lon="9.042399991303682">
        <ele>553</ele>
        <time>2010-06-13T07:21:36Z</time>
      </trkpt>
      <trkpt lat="45.886932006105781" lon="9.042503004893661">
        <ele>553</ele>
        <time>2010-06-13T07:21:37Z</time>
      </trkpt>
      <trkpt lat="45.886958995833993" lon="9.042606018483639">
        <ele>553</ele>
        <time>2010-06-13T07:21:38Z</time>
      </trkpt>
      <trkpt lat="45.886977016925812" lon="9.042709032073617">
        <ele>552</ele>
        <time>2010-06-13T07:21:39Z</time>
      </trkpt>
      <trkpt lat="45.886995038017631" lon="9.042825037613511">
        <ele>552</ele>
        <time>2010-06-13T07:21:40Z</time>
      </trkpt>
      <trkpt lat="45.887004006654024" lon="9.043030980974436">
        <ele>552</ele>
        <time>2010-06-13T07:21:42Z</time>
      </trkpt>
      <trkpt lat="45.88703996501863" lon="9.043109016492963">
        <ele>552</ele>
        <time>2010-06-13T07:21:43Z</time>
      </trkpt>
      <trkpt lat="45.887076007202268" lon="9.043159978464246">
        <ele>552</ele>
        <time>2010-06-13T07:21:44Z</time>
      </trkpt>
      <trkpt lat="45.887121018022299" lon="9.043212030082941">
        <ele>552</ele>
        <time>2010-06-13T07:21:45Z</time>
      </trkpt>
      <trkpt lat="45.887174997478724" lon="9.043238013982773">
        <ele>552</ele>
        <time>2010-06-13T07:21:46Z</time>
      </trkpt>
      <trkpt lat="45.887228976935148" lon="9.043238013982773">
        <ele>553</ele>
        <time>2010-06-13T07:21:47Z</time>
      </trkpt>
      <trkpt lat="45.887283040210605" lon="9.043225022032857">
        <ele>553</ele>
        <time>2010-06-13T07:21:48Z</time>
      </trkpt>
      <trkpt lat="45.887318998575211" lon="9.043212030082941">
        <ele>553</ele>
        <time>2010-06-13T07:21:49Z</time>
      </trkpt>
      <trkpt lat="45.887364009395242" lon="9.043199038133025">
        <ele>553</ele>
        <time>2010-06-13T07:21:50Z</time>
      </trkpt>
      <trkpt lat="45.887399967759848" lon="9.043199038133025">
        <ele>553</ele>
        <time>2010-06-13T07:21:51Z</time>
      </trkpt>
      <trkpt lat="45.887436009943485" lon="9.043185962364078">
        <ele>554</ele>
        <time>2010-06-13T07:21:52Z</time>
      </trkpt>
      <trkpt lat="45.887481020763516" lon="9.043173976242542">
        <ele>553</ele>
        <time>2010-06-13T07:21:53Z</time>
      </trkpt>
      <trkpt lat="45.887516979128122" lon="9.043160984292626">
        <ele>553</ele>
        <time>2010-06-13T07:21:54Z</time>
      </trkpt>
      <trkpt lat="45.88755302131176" lon="9.043147992342711">
        <ele>554</ele>
        <time>2010-06-13T07:21:55Z</time>
      </trkpt>
      <trkpt lat="45.887588979676366" lon="9.043147992342711">
        <ele>554</ele>
        <time>2010-06-13T07:21:56Z</time>
      </trkpt>
      <trkpt lat="45.887625021860003" lon="9.043135000392795">
        <ele>554</ele>
        <time>2010-06-13T07:21:57Z</time>
      </trkpt>
      <trkpt lat="45.887660980224609" lon="9.043122008442879">
        <ele>554</ele>
        <time>2010-06-13T07:21:58Z</time>
      </trkpt>
      <trkpt lat="45.887697022408247" lon="9.043109016492963">
        <ele>554</ele>
        <time>2010-06-13T07:21:59Z</time>
      </trkpt>
      <trkpt lat="45.887724012136459" lon="9.043109016492963">
        <ele>554</ele>
        <time>2010-06-13T07:22:00Z</time>
      </trkpt>
      <trkpt lat="45.887742033228278" lon="9.043096024543047">
        <ele>554</ele>
        <time>2010-06-13T07:22:01Z</time>
      </trkpt>
      <trkpt lat="45.887759970501065" lon="9.043084038421512">
        <ele>554</ele>
        <time>2010-06-13T07:22:02Z</time>
      </trkpt>
      <trkpt lat="45.887769022956491" lon="9.043084038421512">
        <ele>554</ele>
        <time>2010-06-13T07:22:03Z</time>
      </trkpt>
      <trkpt lat="45.887858960777521" lon="9.043018994852901">
        <ele>554</ele>
        <time>2010-06-13T07:23:27Z</time>
      </trkpt>
      <trkpt lat="45.887886034324765" lon="9.043006002902985">
        <ele>554</ele>
        <time>2010-06-13T07:23:28Z</time>
      </trkpt>
      <trkpt lat="45.887913024052978" lon="9.043006002902985">
        <ele>554</ele>
        <time>2010-06-13T07:23:29Z</time>
      </trkpt>
      <trkpt lat="45.887948982417583" lon="9.042993010953069">
        <ele>554</ele>
        <time>2010-06-13T07:23:30Z</time>
      </trkpt>
      <trkpt lat="45.887975972145796" lon="9.042981024831533">
        <ele>554</ele>
        <time>2010-06-13T07:23:31Z</time>
      </trkpt>
      <trkpt lat="45.888002961874008" lon="9.042981024831533">
        <ele>554</ele>
        <time>2010-06-13T07:23:32Z</time>
      </trkpt>
      <trkpt lat="45.888039004057646" lon="9.042968032881618">
        <ele>554</ele>
        <time>2010-06-13T07:23:33Z</time>
      </trkpt>
      <trkpt lat="45.888065993785858" lon="9.042955040931702">
        <ele>555</ele>
        <time>2010-06-13T07:23:34Z</time>
      </trkpt>
      <trkpt lat="45.888102035969496" lon="9.042941965162754">
        <ele>555</ele>
        <time>2010-06-13T07:23:35Z</time>
      </trkpt>
      <trkpt lat="45.888129025697708" lon="9.042941965162754">
        <ele>555</ele>
        <time>2010-06-13T07:23:36Z</time>
      </trkpt>
      <trkpt lat="45.888164984062314" lon="9.042928973212838">
        <ele>555</ele>
        <time>2010-06-13T07:23:37Z</time>
      </trkpt>
      <trkpt lat="45.888191973790526" lon="9.042915981262922">
        <ele>554</ele>
        <time>2010-06-13T07:23:38Z</time>
      </trkpt>
      <trkpt lat="45.888228015974164" lon="9.042902989313006">
        <ele>554</ele>
        <time>2010-06-13T07:23:39Z</time>
      </trkpt>
      <trkpt lat="45.888255005702376" lon="9.042902989313006">
        <ele>554</ele>
        <time>2010-06-13T07:23:40Z</time>
      </trkpt>
      <trkpt lat="45.888281995430589" lon="9.042891003191471">
        <ele>555</ele>
        <time>2010-06-13T07:23:41Z</time>
      </trkpt>
      <trkpt lat="45.888318037614226" lon="9.042878011241555">
        <ele>555</ele>
        <time>2010-06-13T07:23:42Z</time>
      </trkpt>
      <trkpt lat="45.888353995978832" lon="9.042865019291639">
        <ele>555</ele>
        <time>2010-06-13T07:23:43Z</time>
      </trkpt>
      <trkpt lat="45.888380985707045" lon="9.042852027341723">
        <ele>555</ele>
        <time>2010-06-13T07:23:44Z</time>
      </trkpt>
      <trkpt lat="45.888407975435257" lon="9.042852027341723">
        <ele>555</ele>
        <time>2010-06-13T07:23:45Z</time>
      </trkpt>
      <trkpt lat="45.888434965163469" lon="9.042839035391808">
        <ele>555</ele>
        <time>2010-06-13T07:23:46Z</time>
      </trkpt>
      <trkpt lat="45.888462038710713" lon="9.04282595962286">
        <ele>555</ele>
        <time>2010-06-13T07:23:47Z</time>
      </trkpt>
      <trkpt lat="45.888489028438926" lon="9.042812967672944">
        <ele>555</ele>
        <time>2010-06-13T07:23:48Z</time>
      </trkpt>
      <trkpt lat="45.888524986803532" lon="9.042800981551409">
        <ele>555</ele>
        <time>2010-06-13T07:23:49Z</time>
      </trkpt>
      <trkpt lat="45.888551976531744" lon="9.042800981551409">
        <ele>556</ele>
        <time>2010-06-13T07:23:50Z</time>
      </trkpt>
      <trkpt lat="45.888578966259956" lon="9.042800981551409">
        <ele>556</ele>
        <time>2010-06-13T07:23:51Z</time>
      </trkpt>
      <trkpt lat="45.8886060398072" lon="9.042787989601493">
        <ele>556</ele>
        <time>2010-06-13T07:23:52Z</time>
      </trkpt>
      <trkpt lat="45.888668987900019" lon="9.042762005701661">
        <ele>556</ele>
        <time>2010-06-13T07:23:54Z</time>
      </trkpt>
      <trkpt lat="45.888687008991838" lon="9.042762005701661">
        <ele>557</ele>
        <time>2010-06-13T07:23:55Z</time>
      </trkpt>
      <trkpt lat="45.88871399872005" lon="9.042762005701661">
        <ele>557</ele>
        <time>2010-06-13T07:23:56Z</time>
      </trkpt>
      <trkpt lat="45.888750040903687" lon="9.042749013751745">
        <ele>557</ele>
        <time>2010-06-13T07:23:57Z</time>
      </trkpt>
      <trkpt lat="45.8887770306319" lon="9.042749013751745">
        <ele>558</ele>
        <time>2010-06-13T07:23:58Z</time>
      </trkpt>
      <trkpt lat="45.888804020360112" lon="9.042749013751745">
        <ele>558</ele>
        <time>2010-06-13T07:23:59Z</time>
      </trkpt>
      <trkpt lat="45.888822041451931" lon="9.042736021801829">
        <ele>558</ele>
        <time>2010-06-13T07:24:00Z</time>
      </trkpt>
      <trkpt lat="45.888849031180143" lon="9.042736021801829">
        <ele>558</ele>
        <time>2010-06-13T07:24:01Z</time>
      </trkpt>
      <trkpt lat="45.888876020908356" lon="9.042724035680294">
        <ele>559</ele>
        <time>2010-06-13T07:24:02Z</time>
      </trkpt>
      <trkpt lat="45.888903010636568" lon="9.042724035680294">
        <ele>559</ele>
        <time>2010-06-13T07:24:03Z</time>
      </trkpt>
      <trkpt lat="45.88893000036478" lon="9.042724035680294">
        <ele>559</ele>
        <time>2010-06-13T07:24:04Z</time>
      </trkpt>
      <trkpt lat="45.888956990092993" lon="9.042724035680294">
        <ele>559</ele>
        <time>2010-06-13T07:24:05Z</time>
      </trkpt>
      <trkpt lat="45.88899303227663" lon="9.042724035680294">
        <ele>559</ele>
        <time>2010-06-13T07:24:06Z</time>
      </trkpt>
      <trkpt lat="45.889020022004843" lon="9.042724035680294">
        <ele>559</ele>
        <time>2010-06-13T07:24:07Z</time>
      </trkpt>
      <trkpt lat="45.889047011733055" lon="9.042724035680294">
        <ele>560</ele>
        <time>2010-06-13T07:24:08Z</time>
      </trkpt>
      <trkpt lat="45.889074001461267" lon="9.042710959911346">
        <ele>560</ele>
        <time>2010-06-13T07:24:09Z</time>
      </trkpt>
      <trkpt lat="45.88910099118948" lon="9.042710959911346">
        <ele>560</ele>
        <time>2010-06-13T07:24:10Z</time>
      </trkpt>
      <trkpt lat="45.889127980917692" lon="9.042710959911346">
        <ele>560</ele>
        <time>2010-06-13T07:24:11Z</time>
      </trkpt>
      <trkpt lat="45.889154970645905" lon="9.042697967961431">
        <ele>560</ele>
        <time>2010-06-13T07:24:12Z</time>
      </trkpt>
      <trkpt lat="45.889191012829542" lon="9.042684976011515">
        <ele>560</ele>
        <time>2010-06-13T07:24:13Z</time>
      </trkpt>
      <trkpt lat="45.889226971194148" lon="9.042684976011515">
        <ele>561</ele>
        <time>2010-06-13T07:24:14Z</time>
      </trkpt>
      <trkpt lat="45.88925396092236" lon="9.042671984061599">
        <ele>561</ele>
        <time>2010-06-13T07:24:15Z</time>
      </trkpt>
      <trkpt lat="45.889290003105998" lon="9.042671984061599">
        <ele>561</ele>
        <time>2010-06-13T07:24:16Z</time>
      </trkpt>
      <trkpt lat="45.889343982562423" lon="9.042658992111683">
        <ele>562</ele>
        <time>2010-06-13T07:24:18Z</time>
      </trkpt>
      <trkpt lat="45.889370972290635" lon="9.042634014040232">
        <ele>561</ele>
        <time>2010-06-13T07:24:19Z</time>
      </trkpt>
      <trkpt lat="45.889388993382454" lon="9.042621022090316">
        <ele>562</ele>
        <time>2010-06-13T07:24:20Z</time>
      </trkpt>
      <trkpt lat="45.889415983110666" lon="9.042595038190484">
        <ele>562</ele>
        <time>2010-06-13T07:24:21Z</time>
      </trkpt>
      <trkpt lat="45.889434004202485" lon="9.042568970471621">
        <ele>562</ele>
        <time>2010-06-13T07:24:22Z</time>
      </trkpt>
      <trkpt lat="45.889452025294304" lon="9.042555978521705">
        <ele>563</ele>
        <time>2010-06-13T07:24:23Z</time>
      </trkpt>
      <trkpt lat="45.889479015022516" lon="9.042531000450254">
        <ele>563</ele>
        <time>2010-06-13T07:24:24Z</time>
      </trkpt>
      <trkpt lat="45.889497036114335" lon="9.042505016550422">
        <ele>563</ele>
        <time>2010-06-13T07:24:25Z</time>
      </trkpt>
      <trkpt lat="45.889524025842547" lon="9.04247903265059">
        <ele>563</ele>
        <time>2010-06-13T07:24:26Z</time>
      </trkpt>
      <trkpt lat="45.889534000307322" lon="9.042452964931727">
        <ele>563</ele>
        <time>2010-06-13T07:24:27Z</time>
      </trkpt>
      <trkpt lat="45.889560990035534" lon="9.042414994910359">
        <ele>563</ele>
        <time>2010-06-13T07:24:28Z</time>
      </trkpt>
      <trkpt lat="45.889579011127353" lon="9.042389011010528">
        <ele>563</ele>
        <time>2010-06-13T07:24:29Z</time>
      </trkpt>
      <trkpt lat="45.889597032219172" lon="9.042363027110696">
        <ele>563</ele>
        <time>2010-06-13T07:24:30Z</time>
      </trkpt>
      <trkpt lat="45.889613963663578" lon="9.042336959391832">
        <ele>564</ele>
        <time>2010-06-13T07:24:31Z</time>
      </trkpt>
      <trkpt lat="45.889631984755397" lon="9.042323967441917">
        <ele>564</ele>
        <time>2010-06-13T07:24:32Z</time>
      </trkpt>
      <trkpt lat="45.889658974483609" lon="9.042298989370465">
        <ele>564</ele>
        <time>2010-06-13T07:24:33Z</time>
      </trkpt>
      <trkpt lat="45.889676995575428" lon="9.042285997420549">
        <ele>564</ele>
        <time>2010-06-13T07:24:34Z</time>
      </trkpt>
      <trkpt lat="45.88970398530364" lon="9.042260013520718">
        <ele>564</ele>
        <time>2010-06-13T07:24:35Z</time>
      </trkpt>
      <trkpt lat="45.889731980860233" lon="9.042260013520718">
        <ele>564</ele>
        <time>2010-06-13T07:24:36Z</time>
      </trkpt>
      <trkpt lat="45.88976701721549" lon="9.042247021570802">
        <ele>564</ele>
        <time>2010-06-13T07:24:37Z</time>
      </trkpt>
      <trkpt lat="45.889785960316658" lon="9.042260013520718">
        <ele>565</ele>
        <time>2010-06-13T07:24:38Z</time>
      </trkpt>
      <trkpt lat="45.889822002500296" lon="9.042260013520718">
        <ele>566</ele>
        <time>2010-06-13T07:24:39Z</time>
      </trkpt>
      <trkpt lat="45.889840023592114" lon="9.042273005470634">
        <ele>566</ele>
        <time>2010-06-13T07:24:40Z</time>
      </trkpt>
      <trkpt lat="45.889867013320327" lon="9.042285997420549">
        <ele>566</ele>
        <time>2010-06-13T07:24:41Z</time>
      </trkpt>
      <trkpt lat="45.889901965856552" lon="9.042285997420549">
        <ele>567</ele>
        <time>2010-06-13T07:24:42Z</time>
      </trkpt>
      <trkpt lat="45.889920992776752" lon="9.042311981320381">
        <ele>567</ele>
        <time>2010-06-13T07:24:43Z</time>
      </trkpt>
      <trkpt lat="45.889946976676583" lon="9.042324973270297">
        <ele>567</ele>
        <time>2010-06-13T07:24:44Z</time>
      </trkpt>
      <trkpt lat="45.889966003596783" lon="9.042351040989161">
        <ele>567</ele>
        <time>2010-06-13T07:24:45Z</time>
      </trkpt>
      <trkpt lat="45.889984024688601" lon="9.042376019060612">
        <ele>567</ele>
        <time>2010-06-13T07:24:46Z</time>
      </trkpt>
      <trkpt lat="45.890011014416814" lon="9.042389011010528">
        <ele>567</ele>
        <time>2010-06-13T07:24:47Z</time>
      </trkpt>
      <trkpt lat="45.890029035508633" lon="9.042414994910359">
        <ele>567</ele>
        <time>2010-06-13T07:24:48Z</time>
      </trkpt>
      <trkpt lat="45.89004697278142" lon="9.042440978810191">
        <ele>568</ele>
        <time>2010-06-13T07:24:49Z</time>
      </trkpt>
      <trkpt lat="45.890073962509632" lon="9.042466962710023">
        <ele>568</ele>
        <time>2010-06-13T07:24:50Z</time>
      </trkpt>
      <trkpt lat="45.89009097777307" lon="9.042492024600506">
        <ele>568</ele>
        <time>2010-06-13T07:24:51Z</time>
      </trkpt>
      <trkpt lat="45.890108998864889" lon="9.042505016550422">
        <ele>568</ele>
        <time>2010-06-13T07:24:52Z</time>
      </trkpt>
      <trkpt lat="45.890127019956708" lon="9.042531000450254">
        <ele>568</ele>
        <time>2010-06-13T07:24:53Z</time>
      </trkpt>
      <trkpt lat="45.89015400968492" lon="9.042556984350085">
        <ele>569</ele>
        <time>2010-06-13T07:24:54Z</time>
      </trkpt>
      <trkpt lat="45.890172030776739" lon="9.042569976300001">
        <ele>569</ele>
        <time>2010-06-13T07:24:55Z</time>
      </trkpt>
      <trkpt lat="45.890199020504951" lon="9.042595960199833">
        <ele>569</ele>
        <time>2010-06-13T07:24:56Z</time>
      </trkpt>
      <trkpt lat="45.89021704159677" lon="9.042621022090316">
        <ele>569</ele>
        <time>2010-06-13T07:24:57Z</time>
      </trkpt>
      <trkpt lat="45.890244031324983" lon="9.042634014040232">
        <ele>569</ele>
        <time>2010-06-13T07:24:58Z</time>
      </trkpt>
      <trkpt lat="45.89026196859777" lon="9.042659997940064">
        <ele>569</ele>
        <time>2010-06-13T07:24:59Z</time>
      </trkpt>
      <trkpt lat="45.890288958325982" lon="9.042672989889979">
        <ele>569</ele>
        <time>2010-06-13T07:25:00Z</time>
      </trkpt>
      <trkpt lat="45.890306979417801" lon="9.042685981839895">
        <ele>569</ele>
        <time>2010-06-13T07:25:01Z</time>
      </trkpt>
      <trkpt lat="45.890326006338" lon="9.042711965739727">
        <ele>569</ele>
        <time>2010-06-13T07:25:02Z</time>
      </trkpt>
      <trkpt lat="45.890351990237832" lon="9.042725041508675">
        <ele>570</ele>
        <time>2010-06-13T07:25:03Z</time>
      </trkpt>
      <trkpt lat="45.890371017158031" lon="9.042751025408506">
        <ele>570</ele>
        <time>2010-06-13T07:25:04Z</time>
      </trkpt>
      <trkpt lat="45.890397001057863" lon="9.042763011530042">
        <ele>571</ele>
        <time>2010-06-13T07:25:05Z</time>
      </trkpt>
      <trkpt lat="45.890423990786076" lon="9.042776003479958">
        <ele>571</ele>
        <time>2010-06-13T07:25:06Z</time>
      </trkpt>
      <trkpt lat="45.890450980514288" lon="9.042801987379789">
        <ele>571</ele>
        <time>2010-06-13T07:25:07Z</time>
      </trkpt>
      <trkpt lat="45.8904779702425" lon="9.042814979329705">
        <ele>571</ele>
        <time>2010-06-13T07:25:08Z</time>
      </trkpt>
      <trkpt lat="45.890495991334319" lon="9.042827971279621">
        <ele>571</ele>
        <time>2010-06-13T07:25:09Z</time>
      </trkpt>
      <trkpt lat="45.890522981062531" lon="9.042840963229537">
        <ele>571</ele>
        <time>2010-06-13T07:25:10Z</time>
      </trkpt>
      <trkpt lat="45.89054100215435" lon="9.042854038998485">
        <ele>571</ele>
        <time>2010-06-13T07:25:11Z</time>
      </trkpt>
      <trkpt lat="45.890567991882563" lon="9.042854038998485">
        <ele>571</ele>
        <time>2010-06-13T07:25:12Z</time>
      </trkpt>
      <trkpt lat="45.890586012974381" lon="9.042867030948401">
        <ele>572</ele>
        <time>2010-06-13T07:25:13Z</time>
      </trkpt>
      <trkpt lat="45.8906040340662" lon="9.042867030948401">
        <ele>572</ele>
        <time>2010-06-13T07:25:14Z</time>
      </trkpt>
      <trkpt lat="45.890621971338987" lon="9.042879017069936">
        <ele>572</ele>
        <time>2010-06-13T07:25:15Z</time>
      </trkpt>
      <trkpt lat="45.8906489610672" lon="9.042879017069936">
        <ele>571</ele>
        <time>2010-06-13T07:25:16Z</time>
      </trkpt>
      <trkpt lat="45.890693971887231" lon="9.042867030948401">
        <ele>572</ele>
        <time>2010-06-13T07:25:18Z</time>
      </trkpt>
      <trkpt lat="45.890720961615443" lon="9.042867030948401">
        <ele>573</ele>
        <time>2010-06-13T07:25:19Z</time>
      </trkpt>
      <trkpt lat="45.890738982707262" lon="9.042854038998485">
        <ele>572</ele>
        <time>2010-06-13T07:25:20Z</time>
      </trkpt>
      <trkpt lat="45.890765972435474" lon="9.042854038998485">
        <ele>572</ele>
        <time>2010-06-13T07:25:21Z</time>
      </trkpt>
      <trkpt lat="45.890783993527293" lon="9.042840963229537">
        <ele>573</ele>
        <time>2010-06-13T07:25:22Z</time>
      </trkpt>
      <trkpt lat="45.890810983255506" lon="9.042827971279621">
        <ele>573</ele>
        <time>2010-06-13T07:25:23Z</time>
      </trkpt>
      <trkpt lat="45.890829004347324" lon="9.042827971279621">
        <ele>573</ele>
        <time>2010-06-13T07:25:24Z</time>
      </trkpt>
      <trkpt lat="45.890855994075537" lon="9.042827971279621">
        <ele>574</ele>
        <time>2010-06-13T07:25:25Z</time>
      </trkpt>
      <trkpt lat="45.890882983803749" lon="9.042827971279621">
        <ele>573</ele>
        <time>2010-06-13T07:25:26Z</time>
      </trkpt>
      <trkpt lat="45.890901004895568" lon="9.042814979329705">
        <ele>574</ele>
        <time>2010-06-13T07:25:27Z</time>
      </trkpt>
      <trkpt lat="45.890973005443811" lon="9.042827971279621">
        <ele>574</ele>
        <time>2010-06-13T07:25:30Z</time>
      </trkpt>
      <trkpt lat="45.891018016263843" lon="9.042827971279621">
        <ele>575</ele>
        <time>2010-06-13T07:25:32Z</time>
      </trkpt>
      <trkpt lat="45.891036037355661" lon="9.042827971279621">
        <ele>575</ele>
        <time>2010-06-13T07:25:33Z</time>
      </trkpt>
      <trkpt lat="45.891063027083874" lon="9.042827971279621">
        <ele>575</ele>
        <time>2010-06-13T07:25:34Z</time>
      </trkpt>
      <trkpt lat="45.891091022640467" lon="9.042840963229537">
        <ele>575</ele>
        <time>2010-06-13T07:25:35Z</time>
      </trkpt>
      <trkpt lat="45.891118012368679" lon="9.042840963229537">
        <ele>575</ele>
        <time>2010-06-13T07:25:36Z</time>
      </trkpt>
      <trkpt lat="45.891136033460498" lon="9.042854038998485">
        <ele>575</ele>
        <time>2010-06-13T07:25:37Z</time>
      </trkpt>
      <trkpt lat="45.89116302318871" lon="9.042854038998485">
        <ele>575</ele>
        <time>2010-06-13T07:25:38Z</time>
      </trkpt>
      <trkpt lat="45.891180960461497" lon="9.042867030948401">
        <ele>575</ele>
        <time>2010-06-13T07:25:39Z</time>
      </trkpt>
      <trkpt lat="45.891208034008741" lon="9.042880022898316">
        <ele>575</ele>
        <time>2010-06-13T07:25:40Z</time>
      </trkpt>
      <trkpt lat="45.891234017908573" lon="9.042880022898316">
        <ele>575</ele>
        <time>2010-06-13T07:25:41Z</time>
      </trkpt>
      <trkpt lat="45.891252961009741" lon="9.042880022898316">
        <ele>575</ele>
        <time>2010-06-13T07:25:42Z</time>
      </trkpt>
      <trkpt lat="45.89127098210156" lon="9.042893014848232">
        <ele>575</ele>
        <time>2010-06-13T07:25:43Z</time>
      </trkpt>
      <trkpt lat="45.891297971829772" lon="9.042906006798148">
        <ele>576</ele>
        <time>2010-06-13T07:25:44Z</time>
      </trkpt>
      <trkpt lat="45.891315992921591" lon="9.042918998748064">
        <ele>576</ele>
        <time>2010-06-13T07:25:45Z</time>
      </trkpt>
      <trkpt lat="45.891333008185029" lon="9.04293199069798">
        <ele>576</ele>
        <time>2010-06-13T07:25:46Z</time>
      </trkpt>
      <trkpt lat="45.891351029276848" lon="9.042943976819515">
        <ele>576</ele>
        <time>2010-06-13T07:25:47Z</time>
      </trkpt>
      <trkpt lat="45.891368966549635" lon="9.042957974597812">
        <ele>576</ele>
        <time>2010-06-13T07:25:48Z</time>
      </trkpt>
      <trkpt lat="45.891387993469834" lon="9.042969960719347">
        <ele>577</ele>
        <time>2010-06-13T07:25:49Z</time>
      </trkpt>
      <trkpt lat="45.891413977369666" lon="9.042969960719347">
        <ele>577</ele>
        <time>2010-06-13T07:25:50Z</time>
      </trkpt>
      <trkpt lat="45.891458988189697" lon="9.042996028438211">
        <ele>577</ele>
        <time>2010-06-13T07:25:52Z</time>
      </trkpt>
      <trkpt lat="45.891477009281516" lon="9.043009020388126">
        <ele>578</ele>
        <time>2010-06-13T07:25:53Z</time>
      </trkpt>
      <trkpt lat="45.891522020101547" lon="9.043035004287958">
        <ele>578</ele>
        <time>2010-06-13T07:25:55Z</time>
      </trkpt>
      <trkpt lat="45.891540041193366" lon="9.043047996237874">
        <ele>578</ele>
        <time>2010-06-13T07:25:56Z</time>
      </trkpt>
      <trkpt lat="45.891567030921578" lon="9.04306098818779">
        <ele>578</ele>
        <time>2010-06-13T07:25:57Z</time>
      </trkpt>
      <trkpt lat="45.891584968194366" lon="9.043073980137706">
        <ele>578</ele>
        <time>2010-06-13T07:25:58Z</time>
      </trkpt>
      <trkpt lat="45.891602989286184" lon="9.043085966259241">
        <ele>579</ele>
        <time>2010-06-13T07:25:59Z</time>
      </trkpt>
      <trkpt lat="45.891621010378003" lon="9.043098958209157">
        <ele>579</ele>
        <time>2010-06-13T07:26:00Z</time>
      </trkpt>
      <trkpt lat="45.891639031469822" lon="9.043112033978105">
        <ele>579</ele>
        <time>2010-06-13T07:26:01Z</time>
      </trkpt>
      <trkpt lat="45.891666021198034" lon="9.043112033978105">
        <ele>579</ele>
        <time>2010-06-13T07:26:02Z</time>
      </trkpt>
      <trkpt lat="45.891683958470821" lon="9.043125025928021">
        <ele>579</ele>
        <time>2010-06-13T07:26:03Z</time>
      </trkpt>
      <trkpt lat="45.89170197956264" lon="9.043138017877936">
        <ele>579</ele>
        <time>2010-06-13T07:26:04Z</time>
      </trkpt>
      <trkpt lat="45.891720000654459" lon="9.043151009827852">
        <ele>579</ele>
        <time>2010-06-13T07:26:05Z</time>
      </trkpt>
      <trkpt lat="45.891738021746278" lon="9.043151009827852">
        <ele>579</ele>
        <time>2010-06-13T07:26:06Z</time>
      </trkpt>
      <trkpt lat="45.89176501147449" lon="9.043164001777768">
        <ele>579</ele>
        <time>2010-06-13T07:26:07Z</time>
      </trkpt>
      <trkpt lat="45.891783032566309" lon="9.043176993727684">
        <ele>580</ele>
        <time>2010-06-13T07:26:08Z</time>
      </trkpt>
      <trkpt lat="45.891800969839096" lon="9.0431899856776">
        <ele>580</ele>
        <time>2010-06-13T07:26:09Z</time>
      </trkpt>
      <trkpt lat="45.891818990930915" lon="9.043202977627516">
        <ele>581</ele>
        <time>2010-06-13T07:26:10Z</time>
      </trkpt>
      <trkpt lat="45.891855033114552" lon="9.043228961527348">
        <ele>580</ele>
        <time>2010-06-13T07:26:12Z</time>
      </trkpt>
      <trkpt lat="45.89187297038734" lon="9.043241031467915">
        <ele>580</ele>
        <time>2010-06-13T07:26:13Z</time>
      </trkpt>
      <trkpt lat="45.891890991479158" lon="9.043254023417831">
        <ele>580</ele>
        <time>2010-06-13T07:26:14Z</time>
      </trkpt>
      <trkpt lat="45.891917981207371" lon="9.043267015367746">
        <ele>580</ele>
        <time>2010-06-13T07:26:15Z</time>
      </trkpt>
      <trkpt lat="45.89193600229919" lon="9.043267015367746">
        <ele>580</ele>
        <time>2010-06-13T07:26:16Z</time>
      </trkpt>
      <trkpt lat="45.891954023391008" lon="9.043280007317662">
        <ele>581</ele>
        <time>2010-06-13T07:26:17Z</time>
      </trkpt>
      <trkpt lat="45.891981013119221" lon="9.043292999267578">
        <ele>581</ele>
        <time>2010-06-13T07:26:18Z</time>
      </trkpt>
      <trkpt lat="45.89199903421104" lon="9.043305991217494">
        <ele>581</ele>
        <time>2010-06-13T07:26:19Z</time>
      </trkpt>
      <trkpt lat="45.892026023939252" lon="9.043305991217494">
        <ele>582</ele>
        <time>2010-06-13T07:26:20Z</time>
      </trkpt>
      <trkpt lat="45.892043961212039" lon="9.04331898316741">
        <ele>582</ele>
        <time>2010-06-13T07:26:21Z</time>
      </trkpt>
      <trkpt lat="45.892071034759283" lon="9.043331975117326">
        <ele>581</ele>
        <time>2010-06-13T07:26:22Z</time>
      </trkpt>
      <trkpt lat="45.892098024487495" lon="9.043344967067242">
        <ele>582</ele>
        <time>2010-06-13T07:26:23Z</time>
      </trkpt>
      <trkpt lat="45.892115961760283" lon="9.043344967067242">
        <ele>582</ele>
        <time>2010-06-13T07:26:24Z</time>
      </trkpt>
      <trkpt lat="45.892143035307527" lon="9.043357037007809">
        <ele>582</ele>
        <time>2010-06-13T07:26:25Z</time>
      </trkpt>
      <trkpt lat="45.892160972580314" lon="9.043357037007809">
        <ele>582</ele>
        <time>2010-06-13T07:26:26Z</time>
      </trkpt>
      <trkpt lat="45.892178993672132" lon="9.043371034786105">
        <ele>582</ele>
        <time>2010-06-13T07:26:27Z</time>
      </trkpt>
      <trkpt lat="45.892197014763951" lon="9.043383020907641">
        <ele>583</ele>
        <time>2010-06-13T07:26:28Z</time>
      </trkpt>
      <trkpt lat="45.89221503585577" lon="9.043396012857556">
        <ele>583</ele>
        <time>2010-06-13T07:26:29Z</time>
      </trkpt>
      <trkpt lat="45.892242025583982" lon="9.043409004807472">
        <ele>583</ele>
        <time>2010-06-13T07:26:30Z</time>
      </trkpt>
      <trkpt lat="45.89225996285677" lon="9.043409004807472">
        <ele>583</ele>
        <time>2010-06-13T07:26:31Z</time>
      </trkpt>
      <trkpt lat="45.892277983948588" lon="9.043421996757388">
        <ele>583</ele>
        <time>2010-06-13T07:26:32Z</time>
      </trkpt>
      <trkpt lat="45.892296005040407" lon="9.043421996757388">
        <ele>583</ele>
        <time>2010-06-13T07:26:33Z</time>
      </trkpt>
      <trkpt lat="45.892314026132226" lon="9.043434988707304">
        <ele>584</ele>
        <time>2010-06-13T07:26:34Z</time>
      </trkpt>
      <trkpt lat="45.892331963405013" lon="9.04344798065722">
        <ele>584</ele>
        <time>2010-06-13T07:26:35Z</time>
      </trkpt>
      <trkpt lat="45.892349984496832" lon="9.043460972607136">
        <ele>584</ele>
        <time>2010-06-13T07:26:36Z</time>
      </trkpt>
      <trkpt lat="45.892368005588651" lon="9.043460972607136">
        <ele>584</ele>
        <time>2010-06-13T07:26:37Z</time>
      </trkpt>
      <trkpt lat="45.892394995316863" lon="9.043473964557052">
        <ele>584</ele>
        <time>2010-06-13T07:26:38Z</time>
      </trkpt>
      <trkpt lat="45.892413016408682" lon="9.043473964557052">
        <ele>585</ele>
        <time>2010-06-13T07:26:39Z</time>
      </trkpt>
      <trkpt lat="45.892431037500501" lon="9.043487040325999">
        <ele>585</ele>
        <time>2010-06-13T07:26:40Z</time>
      </trkpt>
      <trkpt lat="45.892448974773288" lon="9.043500032275915">
        <ele>585</ele>
        <time>2010-06-13T07:26:41Z</time>
      </trkpt>
      <trkpt lat="45.892466995865107" lon="9.043500032275915">
        <ele>585</ele>
        <time>2010-06-13T07:26:42Z</time>
      </trkpt>
      <trkpt lat="45.8924759645015" lon="9.043513024225831">
        <ele>585</ele>
        <time>2010-06-13T07:26:43Z</time>
      </trkpt>
      <trkpt lat="45.892493985593319" lon="9.043526016175747">
        <ele>585</ele>
        <time>2010-06-13T07:26:44Z</time>
      </trkpt>
      <trkpt lat="45.892512006685138" lon="9.043526016175747">
        <ele>585</ele>
        <time>2010-06-13T07:26:45Z</time>
      </trkpt>
      <trkpt lat="45.892530027776957" lon="9.043538002297282">
        <ele>585</ele>
        <time>2010-06-13T07:26:46Z</time>
      </trkpt>
      <trkpt lat="45.892547965049744" lon="9.043550994247198">
        <ele>585</ele>
        <time>2010-06-13T07:26:47Z</time>
      </trkpt>
      <trkpt lat="45.892575038596988" lon="9.043550994247198">
        <ele>586</ele>
        <time>2010-06-13T07:26:48Z</time>
      </trkpt>
      <trkpt lat="45.892592975869775" lon="9.043563986197114">
        <ele>586</ele>
        <time>2010-06-13T07:26:49Z</time>
      </trkpt>
      <trkpt lat="45.892629018053412" lon="9.043563986197114">
        <ele>586</ele>
        <time>2010-06-13T07:26:51Z</time>
      </trkpt>
      <trkpt lat="45.892656007781625" lon="9.04357697814703">
        <ele>586</ele>
        <time>2010-06-13T07:26:52Z</time>
      </trkpt>
      <trkpt lat="45.892674028873444" lon="9.04357697814703">
        <ele>586</ele>
        <time>2010-06-13T07:26:53Z</time>
      </trkpt>
      <trkpt lat="45.892691966146231" lon="9.043589970096946">
        <ele>586</ele>
        <time>2010-06-13T07:26:54Z</time>
      </trkpt>
      <trkpt lat="45.89270998723805" lon="9.043602962046862">
        <ele>587</ele>
        <time>2010-06-13T07:26:55Z</time>
      </trkpt>
      <trkpt lat="45.892736976966262" lon="9.043602962046862">
        <ele>587</ele>
        <time>2010-06-13T07:26:56Z</time>
      </trkpt>
      <trkpt lat="45.892754998058081" lon="9.043602962046862">
        <ele>587</ele>
        <time>2010-06-13T07:26:57Z</time>
      </trkpt>
      <trkpt lat="45.892773019149899" lon="9.043616037815809">
        <ele>587</ele>
        <time>2010-06-13T07:26:58Z</time>
      </trkpt>
      <trkpt lat="45.892800008878112" lon="9.043616037815809">
        <ele>587</ele>
        <time>2010-06-13T07:26:59Z</time>
      </trkpt>
      <trkpt lat="45.892818029969931" lon="9.043629029765725">
        <ele>587</ele>
        <time>2010-06-13T07:27:00Z</time>
      </trkpt>
      <trkpt lat="45.892845019698143" lon="9.043629029765725">
        <ele>588</ele>
        <time>2010-06-13T07:27:01Z</time>
      </trkpt>
      <trkpt lat="45.892863040789962" lon="9.043629029765725">
        <ele>588</ele>
        <time>2010-06-13T07:27:02Z</time>
      </trkpt>
      <trkpt lat="45.892880978062749" lon="9.043642021715641">
        <ele>588</ele>
        <time>2010-06-13T07:27:03Z</time>
      </trkpt>
      <trkpt lat="45.892907967790961" lon="9.043642021715641">
        <ele>588</ele>
        <time>2010-06-13T07:27:04Z</time>
      </trkpt>
      <trkpt lat="45.892917020246387" lon="9.043655013665557">
        <ele>588</ele>
        <time>2010-06-13T07:27:05Z</time>
      </trkpt>
      <trkpt lat="45.892935041338205" lon="9.043666999787092">
        <ele>589</ele>
        <time>2010-06-13T07:27:06Z</time>
      </trkpt>
      <trkpt lat="45.892952978610992" lon="9.043666999787092">
        <ele>589</ele>
        <time>2010-06-13T07:27:07Z</time>
      </trkpt>
      <trkpt lat="45.892979968339205" lon="9.043666999787092">
        <ele>588</ele>
        <time>2010-06-13T07:27:08Z</time>
      </trkpt>
      <trkpt lat="45.892997989431024" lon="9.043680997565389">
        <ele>589</ele>
        <time>2010-06-13T07:27:09Z</time>
      </trkpt>
      <trkpt lat="45.893016010522842" lon="9.043692983686924">
        <ele>589</ele>
        <time>2010-06-13T07:27:10Z</time>
      </trkpt>
      <trkpt lat="45.893043000251055" lon="9.043692983686924">
        <ele>590</ele>
        <time>2010-06-13T07:27:11Z</time>
      </trkpt>
      <trkpt lat="45.893069989979267" lon="9.04370597563684">
        <ele>590</ele>
        <time>2010-06-13T07:27:12Z</time>
      </trkpt>
      <trkpt lat="45.893088011071086" lon="9.04370597563684">
        <ele>590</ele>
        <time>2010-06-13T07:27:13Z</time>
      </trkpt>
      <trkpt lat="45.893106032162905" lon="9.043718967586756">
        <ele>590</ele>
        <time>2010-06-13T07:27:14Z</time>
      </trkpt>
      <trkpt lat="45.893123969435692" lon="9.043731959536672">
        <ele>589</ele>
        <time>2010-06-13T07:27:15Z</time>
      </trkpt>
      <trkpt lat="45.893141990527511" lon="9.043745035305619">
        <ele>589</ele>
        <time>2010-06-13T07:27:16Z</time>
      </trkpt>
      <trkpt lat="45.893150959163904" lon="9.043758027255535">
        <ele>589</ele>
        <time>2010-06-13T07:27:17Z</time>
      </trkpt>
      <trkpt lat="45.893168980255723" lon="9.043771019205451">
        <ele>590</ele>
        <time>2010-06-13T07:27:18Z</time>
      </trkpt>
      <trkpt lat="45.893187001347542" lon="9.043771019205451">
        <ele>590</ele>
        <time>2010-06-13T07:27:19Z</time>
      </trkpt>
      <trkpt lat="45.893205022439361" lon="9.043784011155367">
        <ele>590</ele>
        <time>2010-06-13T07:27:20Z</time>
      </trkpt>
      <trkpt lat="45.893222959712148" lon="9.043797003105283">
        <ele>590</ele>
        <time>2010-06-13T07:27:21Z</time>
      </trkpt>
      <trkpt lat="45.893240980803967" lon="9.043808989226818">
        <ele>591</ele>
        <time>2010-06-13T07:27:22Z</time>
      </trkpt>
      <trkpt lat="45.893259001895785" lon="9.043821981176734">
        <ele>591</ele>
        <time>2010-06-13T07:27:23Z</time>
      </trkpt>
      <trkpt lat="45.893277022987604" lon="9.04383497312665">
        <ele>591</ele>
        <time>2010-06-13T07:27:24Z</time>
      </trkpt>
      <trkpt lat="45.893294960260391" lon="9.043847965076566">
        <ele>591</ele>
        <time>2010-06-13T07:27:25Z</time>
      </trkpt>
      <trkpt lat="45.89331298135221" lon="9.043861040845513">
        <ele>591</ele>
        <time>2010-06-13T07:27:26Z</time>
      </trkpt>
      <trkpt lat="45.893331002444029" lon="9.043874032795429">
        <ele>591</ele>
        <time>2010-06-13T07:27:27Z</time>
      </trkpt>
      <trkpt lat="45.893349023535848" lon="9.043887024745345">
        <ele>591</ele>
        <time>2010-06-13T07:27:28Z</time>
      </trkpt>
      <trkpt lat="45.893366960808635" lon="9.043900016695261">
        <ele>591</ele>
        <time>2010-06-13T07:27:29Z</time>
      </trkpt>
      <trkpt lat="45.89337601326406" lon="9.043926000595093">
        <ele>591</ele>
        <time>2010-06-13T07:27:30Z</time>
      </trkpt>
      <trkpt lat="45.893384981900454" lon="9.043938992545009">
        <ele>591</ele>
        <time>2010-06-13T07:27:31Z</time>
      </trkpt>
      <trkpt lat="45.893403002992272" lon="9.043950978666544">
        <ele>591</ele>
        <time>2010-06-13T07:27:32Z</time>
      </trkpt>
      <trkpt lat="45.893411971628666" lon="9.043950978666544">
        <ele>592</ele>
        <time>2010-06-13T07:27:33Z</time>
      </trkpt>
      <trkpt lat="45.893429992720485" lon="9.04396397061646">
        <ele>592</ele>
        <time>2010-06-13T07:27:34Z</time>
      </trkpt>
      <trkpt lat="45.893438961356878" lon="9.043976962566376">
        <ele>592</ele>
        <time>2010-06-13T07:27:35Z</time>
      </trkpt>
      <trkpt lat="45.893448013812304" lon="9.043990038335323">
        <ele>592</ele>
        <time>2010-06-13T07:27:36Z</time>
      </trkpt>
      <trkpt lat="45.893466034904122" lon="9.043990038335323">
        <ele>592</ele>
        <time>2010-06-13T07:27:37Z</time>
      </trkpt>
      <trkpt lat="45.893483972176909" lon="9.044003030285239">
        <ele>592</ele>
        <time>2010-06-13T07:27:38Z</time>
      </trkpt>
      <trkpt lat="45.893501993268728" lon="9.044016022235155">
        <ele>592</ele>
        <time>2010-06-13T07:27:39Z</time>
      </trkpt>
      <trkpt lat="45.893510961905122" lon="9.044042006134987">
        <ele>592</ele>
        <time>2010-06-13T07:27:40Z</time>
      </trkpt>
      <trkpt lat="45.893528982996941" lon="9.044054998084903">
        <ele>593</ele>
        <time>2010-06-13T07:27:41Z</time>
      </trkpt>
      <trkpt lat="45.893538035452366" lon="9.044066984206438">
        <ele>593</ele>
        <time>2010-06-13T07:27:42Z</time>
      </trkpt>
      <trkpt lat="45.893547004088759" lon="9.044080981984735">
        <ele>593</ele>
        <time>2010-06-13T07:27:43Z</time>
      </trkpt>
      <trkpt lat="45.893565025180578" lon="9.044105960056186">
        <ele>593</ele>
        <time>2010-06-13T07:27:44Z</time>
      </trkpt>
      <trkpt lat="45.893582962453365" lon="9.044119035825133">
        <ele>594</ele>
        <time>2010-06-13T07:27:45Z</time>
      </trkpt>
      <trkpt lat="45.893592014908791" lon="9.044132027775049">
        <ele>594</ele>
        <time>2010-06-13T07:27:46Z</time>
      </trkpt>
      <trkpt lat="45.893600983545184" lon="9.044145019724965">
        <ele>594</ele>
        <time>2010-06-13T07:27:47Z</time>
      </trkpt>
      <trkpt lat="45.893619004637003" lon="9.044158011674881">
        <ele>594</ele>
        <time>2010-06-13T07:27:48Z</time>
      </trkpt>
      <trkpt lat="45.893627973273396" lon="9.044183995574713">
        <ele>594</ele>
        <time>2010-06-13T07:27:49Z</time>
      </trkpt>
      <trkpt lat="45.893637025728822" lon="9.044196987524629">
        <ele>594</ele>
        <time>2010-06-13T07:27:50Z</time>
      </trkpt>
      <trkpt lat="45.893654963001609" lon="9.04422297142446">
        <ele>594</ele>
        <time>2010-06-13T07:27:51Z</time>
      </trkpt>
      <trkpt lat="45.893664015457034" lon="9.044235041365027">
        <ele>594</ele>
        <time>2010-06-13T07:27:52Z</time>
      </trkpt>
      <trkpt lat="45.893682036548853" lon="9.044261025264859">
        <ele>594</ele>
        <time>2010-06-13T07:27:53Z</time>
      </trkpt>
      <trkpt lat="45.893682036548853" lon="9.044274017214775">
        <ele>595</ele>
        <time>2010-06-13T07:27:54Z</time>
      </trkpt>
      <trkpt lat="45.893691005185246" lon="9.044300001114607">
        <ele>594</ele>
        <time>2010-06-13T07:27:55Z</time>
      </trkpt>
      <trkpt lat="45.893709026277065" lon="9.044325985014439">
        <ele>595</ele>
        <time>2010-06-13T07:27:56Z</time>
      </trkpt>
      <trkpt lat="45.893709026277065" lon="9.044337971135974">
        <ele>595</ele>
        <time>2010-06-13T07:27:57Z</time>
      </trkpt>
      <trkpt lat="45.893726963549852" lon="9.044364038854837">
        <ele>596</ele>
        <time>2010-06-13T07:27:58Z</time>
      </trkpt>
      <trkpt lat="45.893736016005278" lon="9.044377030804753">
        <ele>596</ele>
        <time>2010-06-13T07:27:59Z</time>
      </trkpt>
      <trkpt lat="45.893754037097096" lon="9.044403014704585">
        <ele>596</ele>
        <time>2010-06-13T07:28:00Z</time>
      </trkpt>
      <trkpt lat="45.893771974369884" lon="9.044416006654501">
        <ele>596</ele>
        <time>2010-06-13T07:28:01Z</time>
      </trkpt>
      <trkpt lat="45.893781026825309" lon="9.044441990554333">
        <ele>595</ele>
        <time>2010-06-13T07:28:02Z</time>
      </trkpt>
      <trkpt lat="45.893798964098096" lon="9.044466968625784">
        <ele>595</ele>
        <time>2010-06-13T07:28:03Z</time>
      </trkpt>
      <trkpt lat="45.893808016553521" lon="9.044493036344647">
        <ele>596</ele>
        <time>2010-06-13T07:28:04Z</time>
      </trkpt>
      <trkpt lat="45.893835006281734" lon="9.044532012194395">
        <ele>597</ele>
        <time>2010-06-13T07:28:06Z</time>
      </trkpt>
      <trkpt lat="45.893843974918127" lon="9.044545004144311">
        <ele>597</ele>
        <time>2010-06-13T07:28:07Z</time>
      </trkpt>
      <trkpt lat="45.893861996009946" lon="9.044570988044143">
        <ele>596</ele>
        <time>2010-06-13T07:28:08Z</time>
      </trkpt>
      <trkpt lat="45.893870964646339" lon="9.044595966115594">
        <ele>596</ele>
        <time>2010-06-13T07:28:09Z</time>
      </trkpt>
      <trkpt lat="45.893880017101765" lon="9.044622033834457">
        <ele>596</ele>
        <time>2010-06-13T07:28:10Z</time>
      </trkpt>
      <trkpt lat="45.893898038193583" lon="9.044635025784373">
        <ele>596</ele>
        <time>2010-06-13T07:28:11Z</time>
      </trkpt>
      <trkpt lat="45.893915975466371" lon="9.044648017734289">
        <ele>597</ele>
        <time>2010-06-13T07:28:12Z</time>
      </trkpt>
      <trkpt lat="45.893933996558189" lon="9.044661009684205">
        <ele>597</ele>
        <time>2010-06-13T07:28:13Z</time>
      </trkpt>
      <trkpt lat="45.893952017650008" lon="9.044674001634121">
        <ele>597</ele>
        <time>2010-06-13T07:28:14Z</time>
      </trkpt>
      <trkpt lat="45.893970038741827" lon="9.044686993584037">
        <ele>597</ele>
        <time>2010-06-13T07:28:15Z</time>
      </trkpt>
      <trkpt lat="45.893987976014614" lon="9.044686993584037">
        <ele>597</ele>
        <time>2010-06-13T07:28:16Z</time>
      </trkpt>
      <trkpt lat="45.894005997106433" lon="9.044698979705572">
        <ele>597</ele>
        <time>2010-06-13T07:28:17Z</time>
      </trkpt>
      <trkpt lat="45.894032986834645" lon="9.044711971655488">
        <ele>598</ele>
        <time>2010-06-13T07:28:18Z</time>
      </trkpt>
      <trkpt lat="45.894051007926464" lon="9.044724963605404">
        <ele>598</ele>
        <time>2010-06-13T07:28:19Z</time>
      </trkpt>
      <trkpt lat="45.894077997654676" lon="9.044738039374352">
        <ele>598</ele>
        <time>2010-06-13T07:28:20Z</time>
      </trkpt>
      <trkpt lat="45.894096018746495" lon="9.044751031324267">
        <ele>598</ele>
        <time>2010-06-13T07:28:21Z</time>
      </trkpt>
      <trkpt lat="45.894114039838314" lon="9.044764023274183">
        <ele>598</ele>
        <time>2010-06-13T07:28:22Z</time>
      </trkpt>
      <trkpt lat="45.894131977111101" lon="9.044777015224099">
        <ele>598</ele>
        <time>2010-06-13T07:28:23Z</time>
      </trkpt>
      <trkpt lat="45.89414999820292" lon="9.044790007174015">
        <ele>599</ele>
        <time>2010-06-13T07:28:24Z</time>
      </trkpt>
      <trkpt lat="45.894168019294739" lon="9.044802999123931">
        <ele>599</ele>
        <time>2010-06-13T07:28:25Z</time>
      </trkpt>
      <trkpt lat="45.894186040386558" lon="9.044815991073847">
        <ele>599</ele>
        <time>2010-06-13T07:28:26Z</time>
      </trkpt>
      <trkpt lat="45.894195009022951" lon="9.044828983023763">
        <ele>599</ele>
        <time>2010-06-13T07:28:27Z</time>
      </trkpt>
      <trkpt lat="45.89421303011477" lon="9.044840969145298">
        <ele>599</ele>
        <time>2010-06-13T07:28:28Z</time>
      </trkpt>
      <trkpt lat="45.894230967387557" lon="9.044853961095214">
        <ele>599</ele>
        <time>2010-06-13T07:28:29Z</time>
      </trkpt>
      <trkpt lat="45.894248988479376" lon="9.044867036864162">
        <ele>599</ele>
        <time>2010-06-13T07:28:30Z</time>
      </trkpt>
      <trkpt lat="45.894258040934801" lon="9.044880028814077">
        <ele>599</ele>
        <time>2010-06-13T07:28:31Z</time>
      </trkpt>
      <trkpt lat="45.894275978207588" lon="9.044893020763993">
        <ele>599</ele>
        <time>2010-06-13T07:28:32Z</time>
      </trkpt>
      <trkpt lat="45.894293999299407" lon="9.044906012713909">
        <ele>599</ele>
        <time>2010-06-13T07:28:33Z</time>
      </trkpt>
      <trkpt lat="45.894302967935801" lon="9.044919004663825">
        <ele>599</ele>
        <time>2010-06-13T07:28:34Z</time>
      </trkpt>
      <trkpt lat="45.894339010119438" lon="9.044944988563657">
        <ele>600</ele>
        <time>2010-06-13T07:28:36Z</time>
      </trkpt>
      <trkpt lat="45.894347978755832" lon="9.044957980513573">
        <ele>600</ele>
        <time>2010-06-13T07:28:37Z</time>
      </trkpt>
      <trkpt lat="45.894357031211257" lon="9.044970972463489">
        <ele>600</ele>
        <time>2010-06-13T07:28:38Z</time>
      </trkpt>
      <trkpt lat="45.894374968484044" lon="9.044996034353972">
        <ele>600</ele>
        <time>2010-06-13T07:28:39Z</time>
      </trkpt>
      <trkpt lat="45.894392989575863" lon="9.044996034353972">
        <ele>600</ele>
        <time>2010-06-13T07:28:40Z</time>
      </trkpt>
      <trkpt lat="45.894411010667682" lon="9.045009026303887">
        <ele>600</ele>
        <time>2010-06-13T07:28:41Z</time>
      </trkpt>
      <trkpt lat="45.894429031759501" lon="9.045022018253803">
        <ele>600</ele>
        <time>2010-06-13T07:28:42Z</time>
      </trkpt>
      <trkpt lat="45.894456021487713" lon="9.045022018253803">
        <ele>601</ele>
        <time>2010-06-13T07:28:43Z</time>
      </trkpt>
      <trkpt lat="45.8944739587605" lon="9.045035010203719">
        <ele>601</ele>
        <time>2010-06-13T07:28:44Z</time>
      </trkpt>
      <trkpt lat="45.894491979852319" lon="9.045048002153635">
        <ele>601</ele>
        <time>2010-06-13T07:28:45Z</time>
      </trkpt>
      <trkpt lat="45.894510000944138" lon="9.045048002153635">
        <ele>601</ele>
        <time>2010-06-13T07:28:46Z</time>
      </trkpt>
      <trkpt lat="45.89453699067235" lon="9.045048002153635">
        <ele>601</ele>
        <time>2010-06-13T07:28:47Z</time>
      </trkpt>
      <trkpt lat="45.894555011764169" lon="9.045060994103551">
        <ele>601</ele>
        <time>2010-06-13T07:28:48Z</time>
      </trkpt>
      <trkpt lat="45.894573032855988" lon="9.045060994103551">
        <ele>601</ele>
        <time>2010-06-13T07:28:49Z</time>
      </trkpt>
      <trkpt lat="45.894627012312412" lon="9.045060994103551">
        <ele>601</ele>
        <time>2010-06-13T07:28:52Z</time>
      </trkpt>
      <trkpt lat="45.894654002040625" lon="9.045048002153635">
        <ele>602</ele>
        <time>2010-06-13T07:28:53Z</time>
      </trkpt>
      <trkpt lat="45.894662970677018" lon="9.045048002153635">
        <ele>602</ele>
        <time>2010-06-13T07:28:54Z</time>
      </trkpt>
      <trkpt lat="45.894680991768837" lon="9.045048002153635">
        <ele>602</ele>
        <time>2010-06-13T07:28:55Z</time>
      </trkpt>
      <trkpt lat="45.894744023680687" lon="9.045048002153635">
        <ele>602</ele>
        <time>2010-06-13T07:28:59Z</time>
      </trkpt>
      <trkpt lat="45.894761960953474" lon="9.045048002153635">
        <ele>602</ele>
        <time>2010-06-13T07:29:00Z</time>
      </trkpt>
      <trkpt lat="45.894779982045293" lon="9.045048002153635">
        <ele>602</ele>
        <time>2010-06-13T07:29:01Z</time>
      </trkpt>
      <trkpt lat="45.894806971773505" lon="9.045035010203719">
        <ele>602</ele>
        <time>2010-06-13T07:29:02Z</time>
      </trkpt>
      <trkpt lat="45.894824992865324" lon="9.045035010203719">
        <ele>603</ele>
        <time>2010-06-13T07:29:03Z</time>
      </trkpt>
      <trkpt lat="45.894843013957143" lon="9.045035010203719">
        <ele>603</ele>
        <time>2010-06-13T07:29:04Z</time>
      </trkpt>
      <trkpt lat="45.894861035048962" lon="9.045035010203719">
        <ele>603</ele>
        <time>2010-06-13T07:29:05Z</time>
      </trkpt>
      <trkpt lat="45.894888024777174" lon="9.045023024082184">
        <ele>603</ele>
        <time>2010-06-13T07:29:06Z</time>
      </trkpt>
      <trkpt lat="45.894905962049961" lon="9.045023024082184">
        <ele>603</ele>
        <time>2010-06-13T07:29:07Z</time>
      </trkpt>
      <trkpt lat="45.894933035597205" lon="9.045023024082184">
        <ele>603</ele>
        <time>2010-06-13T07:29:08Z</time>
      </trkpt>
      <trkpt lat="45.894950972869992" lon="9.045010032132268">
        <ele>603</ele>
        <time>2010-06-13T07:29:09Z</time>
      </trkpt>
      <trkpt lat="45.894968993961811" lon="9.045010032132268">
        <ele>604</ele>
        <time>2010-06-13T07:29:10Z</time>
      </trkpt>
      <trkpt lat="45.895014004781842" lon="9.045010032132268">
        <ele>604</ele>
        <time>2010-06-13T07:29:12Z</time>
      </trkpt>
      <trkpt lat="45.895032025873661" lon="9.045010032132268">
        <ele>604</ele>
        <time>2010-06-13T07:29:13Z</time>
      </trkpt>
      <trkpt lat="45.895049963146448" lon="9.045010032132268">
        <ele>604</ele>
        <time>2010-06-13T07:29:14Z</time>
      </trkpt>
      <trkpt lat="45.895067984238267" lon="9.045010032132268">
        <ele>605</ele>
        <time>2010-06-13T07:29:15Z</time>
      </trkpt>
      <trkpt lat="45.895086005330086" lon="9.045010032132268">
        <ele>604</ele>
        <time>2010-06-13T07:29:16Z</time>
      </trkpt>
      <trkpt lat="45.895104026421905" lon="9.045010032132268">
        <ele>605</ele>
        <time>2010-06-13T07:29:17Z</time>
      </trkpt>
      <trkpt lat="45.895112995058298" lon="9.045010032132268">
        <ele>604</ele>
        <time>2010-06-13T07:29:18Z</time>
      </trkpt>
      <trkpt lat="45.89513998478651" lon="9.044997040182352">
        <ele>605</ele>
        <time>2010-06-13T07:29:19Z</time>
      </trkpt>
      <trkpt lat="45.895158005878329" lon="9.044997040182352">
        <ele>605</ele>
        <time>2010-06-13T07:29:20Z</time>
      </trkpt>
      <trkpt lat="45.895184995606542" lon="9.044997040182352">
        <ele>605</ele>
        <time>2010-06-13T07:29:21Z</time>
      </trkpt>
      <trkpt lat="45.89520301669836" lon="9.044983964413405">
        <ele>605</ele>
        <time>2010-06-13T07:29:22Z</time>
      </trkpt>
      <trkpt lat="45.895221037790179" lon="9.044983964413405">
        <ele>605</ele>
        <time>2010-06-13T07:29:23Z</time>
      </trkpt>
      <trkpt lat="45.895238975062966" lon="9.044983964413405">
        <ele>605</ele>
        <time>2010-06-13T07:29:24Z</time>
      </trkpt>
      <trkpt lat="45.895256996154785" lon="9.044983964413405">
        <ele>605</ele>
        <time>2010-06-13T07:29:25Z</time>
      </trkpt>
      <trkpt lat="45.895293038338423" lon="9.044983964413405">
        <ele>605</ele>
        <time>2010-06-13T07:29:27Z</time>
      </trkpt>
      <trkpt lat="45.895320028066635" lon="9.044970972463489">
        <ele>606</ele>
        <time>2010-06-13T07:29:28Z</time>
      </trkpt>
      <trkpt lat="45.895347017794847" lon="9.044970972463489">
        <ele>606</ele>
        <time>2010-06-13T07:29:29Z</time>
      </trkpt>
      <trkpt lat="45.895365038886666" lon="9.044970972463489">
        <ele>607</ele>
        <time>2010-06-13T07:29:30Z</time>
      </trkpt>
      <trkpt lat="45.895382976159453" lon="9.044970972463489">
        <ele>607</ele>
        <time>2010-06-13T07:29:31Z</time>
      </trkpt>
      <trkpt lat="45.895409965887666" lon="9.044958986341953">
        <ele>607</ele>
        <time>2010-06-13T07:29:32Z</time>
      </trkpt>
      <trkpt lat="45.895427986979485" lon="9.044958986341953">
        <ele>607</ele>
        <time>2010-06-13T07:29:33Z</time>
      </trkpt>
      <trkpt lat="45.895446008071303" lon="9.044958986341953">
        <ele>608</ele>
        <time>2010-06-13T07:29:34Z</time>
      </trkpt>
      <trkpt lat="45.895472997799516" lon="9.044945994392037">
        <ele>608</ele>
        <time>2010-06-13T07:29:35Z</time>
      </trkpt>
      <trkpt lat="45.895491018891335" lon="9.044945994392037">
        <ele>608</ele>
        <time>2010-06-13T07:29:36Z</time>
      </trkpt>
      <trkpt lat="45.895509039983153" lon="9.044945994392037">
        <ele>608</ele>
        <time>2010-06-13T07:29:37Z</time>
      </trkpt>
      <trkpt lat="45.895536029711366" lon="9.044945994392037">
        <ele>608</ele>
        <time>2010-06-13T07:29:38Z</time>
      </trkpt>
      <trkpt lat="45.895553966984153" lon="9.044945994392037">
        <ele>608</ele>
        <time>2010-06-13T07:29:39Z</time>
      </trkpt>
      <trkpt lat="45.895571988075972" lon="9.044933002442122">
        <ele>608</ele>
        <time>2010-06-13T07:29:40Z</time>
      </trkpt>
      <trkpt lat="45.895598977804184" lon="9.044933002442122">
        <ele>608</ele>
        <time>2010-06-13T07:29:41Z</time>
      </trkpt>
      <trkpt lat="45.895616998896003" lon="9.044933002442122">
        <ele>608</ele>
        <time>2010-06-13T07:29:42Z</time>
      </trkpt>
      <trkpt lat="45.895680030807853" lon="9.044933002442122">
        <ele>608</ele>
        <time>2010-06-13T07:29:45Z</time>
      </trkpt>
      <trkpt lat="45.89569796808064" lon="9.044945994392037">
        <ele>609</ele>
        <time>2010-06-13T07:29:46Z</time>
      </trkpt>
      <trkpt lat="45.895725041627884" lon="9.044945994392037">
        <ele>609</ele>
        <time>2010-06-13T07:29:47Z</time>
      </trkpt>
      <trkpt lat="45.895742978900671" lon="9.044945994392037">
        <ele>609</ele>
        <time>2010-06-13T07:29:48Z</time>
      </trkpt>
      <trkpt lat="45.89576099999249" lon="9.044958986341953">
        <ele>609</ele>
        <time>2010-06-13T07:29:49Z</time>
      </trkpt>
      <trkpt lat="45.895779021084309" lon="9.044958986341953">
        <ele>609</ele>
        <time>2010-06-13T07:29:50Z</time>
      </trkpt>
      <trkpt lat="45.895796958357096" lon="9.044971978291869">
        <ele>609</ele>
        <time>2010-06-13T07:29:51Z</time>
      </trkpt>
      <trkpt lat="45.895814979448915" lon="9.044984970241785">
        <ele>609</ele>
        <time>2010-06-13T07:29:52Z</time>
      </trkpt>
      <trkpt lat="45.895833000540733" lon="9.044997040182352">
        <ele>609</ele>
        <time>2010-06-13T07:29:53Z</time>
      </trkpt>
      <trkpt lat="45.895851021632552" lon="9.044997040182352">
        <ele>610</ele>
        <time>2010-06-13T07:29:54Z</time>
      </trkpt>
      <trkpt lat="45.895868958905339" lon="9.045011037960649">
        <ele>610</ele>
        <time>2010-06-13T07:29:55Z</time>
      </trkpt>
      <trkpt lat="45.895886979997158" lon="9.045011037960649">
        <ele>610</ele>
        <time>2010-06-13T07:29:56Z</time>
      </trkpt>
      <trkpt lat="45.895905001088977" lon="9.045023024082184">
        <ele>609</ele>
        <time>2010-06-13T07:29:57Z</time>
      </trkpt>
      <trkpt lat="45.895931990817189" lon="9.0450360160321">
        <ele>609</ele>
        <time>2010-06-13T07:29:58Z</time>
      </trkpt>
      <trkpt lat="45.895950011909008" lon="9.045049007982016">
        <ele>609</ele>
        <time>2010-06-13T07:29:59Z</time>
      </trkpt>
      <trkpt lat="45.895958980545402" lon="9.045049007982016">
        <ele>610</ele>
        <time>2010-06-13T07:30:00Z</time>
      </trkpt>
      <trkpt lat="45.89597700163722" lon="9.045061999931932">
        <ele>610</ele>
        <time>2010-06-13T07:30:01Z</time>
      </trkpt>
      <trkpt lat="45.895995022729039" lon="9.045074991881847">
        <ele>611</ele>
        <time>2010-06-13T07:30:02Z</time>
      </trkpt>
      <trkpt lat="45.896012960001826" lon="9.045087983831763">
        <ele>611</ele>
        <time>2010-06-13T07:30:03Z</time>
      </trkpt>
      <trkpt lat="45.896030981093645" lon="9.045087983831763">
        <ele>611</ele>
        <time>2010-06-13T07:30:04Z</time>
      </trkpt>
      <trkpt lat="45.896049002185464" lon="9.045100975781679">
        <ele>611</ele>
        <time>2010-06-13T07:30:05Z</time>
      </trkpt>
      <trkpt lat="45.896075991913676" lon="9.045113967731595">
        <ele>611</ele>
        <time>2010-06-13T07:30:06Z</time>
      </trkpt>
      <trkpt lat="45.896094013005495" lon="9.045113967731595">
        <ele>611</ele>
        <time>2010-06-13T07:30:07Z</time>
      </trkpt>
      <trkpt lat="45.896129971370101" lon="9.045139029622078">
        <ele>611</ele>
        <time>2010-06-13T07:30:09Z</time>
      </trkpt>
      <trkpt lat="45.896139023825526" lon="9.045152021571994">
        <ele>611</ele>
        <time>2010-06-13T07:30:10Z</time>
      </trkpt>
      <trkpt lat="45.896156961098313" lon="9.045152021571994">
        <ele>611</ele>
        <time>2010-06-13T07:30:11Z</time>
      </trkpt>
      <trkpt lat="45.896174982190132" lon="9.04516501352191">
        <ele>611</ele>
        <time>2010-06-13T07:30:12Z</time>
      </trkpt>
      <trkpt lat="45.896193003281951" lon="9.04516501352191">
        <ele>612</ele>
        <time>2010-06-13T07:30:13Z</time>
      </trkpt>
      <trkpt lat="45.89621102437377" lon="9.045178005471826">
        <ele>612</ele>
        <time>2010-06-13T07:30:14Z</time>
      </trkpt>
      <trkpt lat="45.896228961646557" lon="9.045190997421742">
        <ele>612</ele>
        <time>2010-06-13T07:30:15Z</time>
      </trkpt>
      <trkpt lat="45.896246982738376" lon="9.045190997421742">
        <ele>613</ele>
        <time>2010-06-13T07:30:16Z</time>
      </trkpt>
      <trkpt lat="45.896273972466588" lon="9.045190997421742">
        <ele>613</ele>
        <time>2010-06-13T07:30:17Z</time>
      </trkpt>
      <trkpt lat="45.896291993558407" lon="9.045203989371657">
        <ele>613</ele>
        <time>2010-06-13T07:30:18Z</time>
      </trkpt>
      <trkpt lat="45.896310014650226" lon="9.045203989371657">
        <ele>613</ele>
        <time>2010-06-13T07:30:19Z</time>
      </trkpt>
      <trkpt lat="45.896328035742044" lon="9.045203989371657">
        <ele>614</ele>
        <time>2010-06-13T07:30:20Z</time>
      </trkpt>
      <trkpt lat="45.896345973014832" lon="9.045203989371657">
        <ele>614</ele>
        <time>2010-06-13T07:30:21Z</time>
      </trkpt>
      <trkpt lat="45.89636399410665" lon="9.045216981321573">
        <ele>614</ele>
        <time>2010-06-13T07:30:22Z</time>
      </trkpt>
      <trkpt lat="45.896382015198469" lon="9.045216981321573">
        <ele>614</ele>
        <time>2010-06-13T07:30:23Z</time>
      </trkpt>
      <trkpt lat="45.896409004926682" lon="9.045216981321573">
        <ele>614</ele>
        <time>2010-06-13T07:30:24Z</time>
      </trkpt>
      <trkpt lat="45.896454015746713" lon="9.045216981321573">
        <ele>614</ele>
        <time>2010-06-13T07:30:26Z</time>
      </trkpt>
      <trkpt lat="45.896472036838531" lon="9.045203989371657">
        <ele>614</ele>
        <time>2010-06-13T07:30:27Z</time>
      </trkpt>
      <trkpt lat="45.896507995203137" lon="9.045203989371657">
        <ele>614</ele>
        <time>2010-06-13T07:30:29Z</time>
      </trkpt>
      <trkpt lat="45.89653498493135" lon="9.045203989371657">
        <ele>614</ele>
        <time>2010-06-13T07:30:30Z</time>
      </trkpt>
      <trkpt lat="45.896553006023169" lon="9.045190997421742">
        <ele>614</ele>
        <time>2010-06-13T07:30:31Z</time>
      </trkpt>
      <trkpt lat="45.896571027114987" lon="9.045190997421742">
        <ele>614</ele>
        <time>2010-06-13T07:30:32Z</time>
      </trkpt>
      <trkpt lat="45.896588964387774" lon="9.045190997421742">
        <ele>614</ele>
        <time>2010-06-13T07:30:33Z</time>
      </trkpt>
      <trkpt lat="45.896606985479593" lon="9.045179011300206">
        <ele>615</ele>
        <time>2010-06-13T07:30:34Z</time>
      </trkpt>
      <trkpt lat="45.896633975207806" lon="9.045179011300206">
        <ele>615</ele>
        <time>2010-06-13T07:30:35Z</time>
      </trkpt>
      <trkpt lat="45.896651996299624" lon="9.045179011300206">
        <ele>615</ele>
        <time>2010-06-13T07:30:36Z</time>
      </trkpt>
      <trkpt lat="45.896670017391443" lon="9.04516601935029">
        <ele>615</ele>
        <time>2010-06-13T07:30:37Z</time>
      </trkpt>
      <trkpt lat="45.896688038483262" lon="9.04516601935029">
        <ele>615</ele>
        <time>2010-06-13T07:30:38Z</time>
      </trkpt>
      <trkpt lat="45.896705975756049" lon="9.04516601935029">
        <ele>615</ele>
        <time>2010-06-13T07:30:39Z</time>
      </trkpt>
      <trkpt lat="45.896723996847868" lon="9.045153027400374">
        <ele>615</ele>
        <time>2010-06-13T07:30:40Z</time>
      </trkpt>
      <trkpt lat="45.896742017939687" lon="9.045153027400374">
        <ele>615</ele>
        <time>2010-06-13T07:30:41Z</time>
      </trkpt>
      <trkpt lat="45.896760039031506" lon="9.045153027400374">
        <ele>615</ele>
        <time>2010-06-13T07:30:42Z</time>
      </trkpt>
      <trkpt lat="45.896777976304293" lon="9.045153027400374">
        <ele>616</ele>
        <time>2010-06-13T07:30:43Z</time>
      </trkpt>
      <trkpt lat="45.896795997396111" lon="9.045153027400374">
        <ele>616</ele>
        <time>2010-06-13T07:30:44Z</time>
      </trkpt>
      <trkpt lat="45.89681401848793" lon="9.045153027400374">
        <ele>616</ele>
        <time>2010-06-13T07:30:45Z</time>
      </trkpt>
      <trkpt lat="45.896849976852536" lon="9.045153027400374">
        <ele>617</ele>
        <time>2010-06-13T07:30:47Z</time>
      </trkpt>
      <trkpt lat="45.896867997944355" lon="9.045153027400374">
        <ele>617</ele>
        <time>2010-06-13T07:30:48Z</time>
      </trkpt>
      <trkpt lat="45.896958019584417" lon="9.045153027400374">
        <ele>617</ele>
        <time>2010-06-13T07:30:52Z</time>
      </trkpt>
      <trkpt lat="45.896976040676236" lon="9.045153027400374">
        <ele>617</ele>
        <time>2010-06-13T07:30:53Z</time>
      </trkpt>
      <trkpt lat="45.896993977949023" lon="9.04516601935029">
        <ele>617</ele>
        <time>2010-06-13T07:30:54Z</time>
      </trkpt>
      <trkpt lat="45.897011999040842" lon="9.04516601935029">
        <ele>618</ele>
        <time>2010-06-13T07:30:55Z</time>
      </trkpt>
      <trkpt lat="45.897030020132661" lon="9.04516601935029">
        <ele>618</ele>
        <time>2010-06-13T07:30:56Z</time>
      </trkpt>
      <trkpt lat="45.89704804122448" lon="9.04516601935029">
        <ele>618</ele>
        <time>2010-06-13T07:30:57Z</time>
      </trkpt>
      <trkpt lat="45.897075030952692" lon="9.04516601935029">
        <ele>618</ele>
        <time>2010-06-13T07:30:58Z</time>
      </trkpt>
      <trkpt lat="45.897092968225479" lon="9.045179011300206">
        <ele>618</ele>
        <time>2010-06-13T07:30:59Z</time>
      </trkpt>
      <trkpt lat="45.897156000137329" lon="9.04516601935029">
        <ele>618</ele>
        <time>2010-06-13T07:31:02Z</time>
      </trkpt>
      <trkpt lat="45.897182989865541" lon="9.04516601935029">
        <ele>618</ele>
        <time>2010-06-13T07:31:03Z</time>
      </trkpt>
      <trkpt lat="45.89720101095736" lon="9.045179011300206">
        <ele>619</ele>
        <time>2010-06-13T07:31:04Z</time>
      </trkpt>
      <trkpt lat="45.897219032049179" lon="9.045179011300206">
        <ele>619</ele>
        <time>2010-06-13T07:31:05Z</time>
      </trkpt>
      <trkpt lat="45.897236969321966" lon="9.045179011300206">
        <ele>619</ele>
        <time>2010-06-13T07:31:06Z</time>
      </trkpt>
      <trkpt lat="45.897254990413785" lon="9.045192003250122">
        <ele>619</ele>
        <time>2010-06-13T07:31:07Z</time>
      </trkpt>
      <trkpt lat="45.897273011505604" lon="9.045192003250122">
        <ele>619</ele>
        <time>2010-06-13T07:31:08Z</time>
      </trkpt>
      <trkpt lat="45.897291032597423" lon="9.045192003250122">
        <ele>619</ele>
        <time>2010-06-13T07:31:09Z</time>
      </trkpt>
      <trkpt lat="45.89730896987021" lon="9.045192003250122">
        <ele>619</ele>
        <time>2010-06-13T07:31:10Z</time>
      </trkpt>
      <trkpt lat="45.897345012053847" lon="9.045192003250122">
        <ele>620</ele>
        <time>2010-06-13T07:31:12Z</time>
      </trkpt>
      <trkpt lat="45.897363033145666" lon="9.045204995200038">
        <ele>620</ele>
        <time>2010-06-13T07:31:13Z</time>
      </trkpt>
      <trkpt lat="45.897398991510272" lon="9.045204995200038">
        <ele>621</ele>
        <time>2010-06-13T07:31:15Z</time>
      </trkpt>
      <trkpt lat="45.897425981238484" lon="9.045204995200038">
        <ele>621</ele>
        <time>2010-06-13T07:31:16Z</time>
      </trkpt>
      <trkpt lat="45.897470992058516" lon="9.045204995200038">
        <ele>621</ele>
        <time>2010-06-13T07:31:18Z</time>
      </trkpt>
      <trkpt lat="45.897489013150334" lon="9.045217987149954">
        <ele>621</ele>
        <time>2010-06-13T07:31:19Z</time>
      </trkpt>
      <trkpt lat="45.897507034242153" lon="9.045217987149954">
        <ele>620</ele>
        <time>2010-06-13T07:31:20Z</time>
      </trkpt>
      <trkpt lat="45.89752497151494" lon="9.045217987149954">
        <ele>620</ele>
        <time>2010-06-13T07:31:21Z</time>
      </trkpt>
      <trkpt lat="45.897542992606759" lon="9.045217987149954">
        <ele>620</ele>
        <time>2010-06-13T07:31:22Z</time>
      </trkpt>
      <trkpt lat="45.897561013698578" lon="9.045217987149954">
        <ele>621</ele>
        <time>2010-06-13T07:31:23Z</time>
      </trkpt>
      <trkpt lat="45.89758800342679" lon="9.045217987149954">
        <ele>621</ele>
        <time>2010-06-13T07:31:24Z</time>
      </trkpt>
      <trkpt lat="45.897633014246821" lon="9.04523097909987">
        <ele>622</ele>
        <time>2010-06-13T07:31:26Z</time>
      </trkpt>
      <trkpt lat="45.89765103533864" lon="9.04523097909987">
        <ele>621</ele>
        <time>2010-06-13T07:31:27Z</time>
      </trkpt>
      <trkpt lat="45.897668972611427" lon="9.04523097909987">
        <ele>622</ele>
        <time>2010-06-13T07:31:28Z</time>
      </trkpt>
      <trkpt lat="45.897686993703246" lon="9.04523097909987">
        <ele>622</ele>
        <time>2010-06-13T07:31:29Z</time>
      </trkpt>
      <trkpt lat="45.897705014795065" lon="9.045243971049786">
        <ele>623</ele>
        <time>2010-06-13T07:31:30Z</time>
      </trkpt>
      <trkpt lat="45.897740973159671" lon="9.045243971049786">
        <ele>622</ele>
        <time>2010-06-13T07:31:32Z</time>
      </trkpt>
      <trkpt lat="45.89775899425149" lon="9.045243971049786">
        <ele>623</ele>
        <time>2010-06-13T07:31:33Z</time>
      </trkpt>
      <trkpt lat="45.897777015343308" lon="9.045243971049786">
        <ele>623</ele>
        <time>2010-06-13T07:31:34Z</time>
      </trkpt>
      <trkpt lat="45.897804005071521" lon="9.045243971049786">
        <ele>623</ele>
        <time>2010-06-13T07:31:35Z</time>
      </trkpt>
      <trkpt lat="45.897839963436127" lon="9.045243971049786">
        <ele>623</ele>
        <time>2010-06-13T07:31:37Z</time>
      </trkpt>
      <trkpt lat="45.897876005619764" lon="9.045256962999702">
        <ele>623</ele>
        <time>2010-06-13T07:31:39Z</time>
      </trkpt>
      <trkpt lat="45.897894026711583" lon="9.045256962999702">
        <ele>623</ele>
        <time>2010-06-13T07:31:40Z</time>
      </trkpt>
      <trkpt lat="45.89791196398437" lon="9.045256962999702">
        <ele>623</ele>
        <time>2010-06-13T07:31:41Z</time>
      </trkpt>
      <trkpt lat="45.897929985076189" lon="9.045256962999702">
        <ele>623</ele>
        <time>2010-06-13T07:31:42Z</time>
      </trkpt>
      <trkpt lat="45.897948006168008" lon="9.045256962999702">
        <ele>624</ele>
        <time>2010-06-13T07:31:43Z</time>
      </trkpt>
      <trkpt lat="45.897956974804401" lon="9.045270038768649">
        <ele>624</ele>
        <time>2010-06-13T07:31:44Z</time>
      </trkpt>
      <trkpt lat="45.89797499589622" lon="9.045270038768649">
        <ele>624</ele>
        <time>2010-06-13T07:31:45Z</time>
      </trkpt>
      <trkpt lat="45.898020006716251" lon="9.045270038768649">
        <ele>624</ele>
        <time>2010-06-13T07:31:47Z</time>
      </trkpt>
      <trkpt lat="45.898055965080857" lon="9.045270038768649">
        <ele>625</ele>
        <time>2010-06-13T07:31:49Z</time>
      </trkpt>
      <trkpt lat="45.898073986172676" lon="9.045270038768649">
        <ele>625</ele>
        <time>2010-06-13T07:31:50Z</time>
      </trkpt>
      <trkpt lat="45.898092007264495" lon="9.045270038768649">
        <ele>625</ele>
        <time>2010-06-13T07:31:51Z</time>
      </trkpt>
      <trkpt lat="45.898110028356314" lon="9.045256962999702">
        <ele>626</ele>
        <time>2010-06-13T07:31:52Z</time>
      </trkpt>
      <trkpt lat="45.89814598672092" lon="9.045270038768649">
        <ele>626</ele>
        <time>2010-06-13T07:31:54Z</time>
      </trkpt>
      <trkpt lat="45.898164007812738" lon="9.045270038768649">
        <ele>626</ele>
        <time>2010-06-13T07:31:55Z</time>
      </trkpt>
      <trkpt lat="45.898182028904557" lon="9.045270038768649">
        <ele>626</ele>
        <time>2010-06-13T07:31:56Z</time>
      </trkpt>
      <trkpt lat="45.898199966177344" lon="9.045283030718565">
        <ele>626</ele>
        <time>2010-06-13T07:31:57Z</time>
      </trkpt>
      <trkpt lat="45.898217987269163" lon="9.045283030718565">
        <ele>627</ele>
        <time>2010-06-13T07:31:58Z</time>
      </trkpt>
      <trkpt lat="45.898236008360982" lon="9.045283030718565">
        <ele>627</ele>
        <time>2010-06-13T07:31:59Z</time>
      </trkpt>
      <trkpt lat="45.898244976997375" lon="9.045296022668481">
        <ele>627</ele>
        <time>2010-06-13T07:32:00Z</time>
      </trkpt>
      <trkpt lat="45.898271966725588" lon="9.045296022668481">
        <ele>626</ele>
        <time>2010-06-13T07:32:01Z</time>
      </trkpt>
      <trkpt lat="45.898289987817407" lon="9.045309014618397">
        <ele>626</ele>
        <time>2010-06-13T07:32:02Z</time>
      </trkpt>
      <trkpt lat="45.898299040272832" lon="9.045322006568313">
        <ele>626</ele>
        <time>2010-06-13T07:32:03Z</time>
      </trkpt>
      <trkpt lat="45.898316977545619" lon="9.045334998518229">
        <ele>627</ele>
        <time>2010-06-13T07:32:04Z</time>
      </trkpt>
      <trkpt lat="45.898326030001044" lon="9.045347990468144">
        <ele>627</ele>
        <time>2010-06-13T07:32:05Z</time>
      </trkpt>
      <trkpt lat="45.898326030001044" lon="9.04536098241806">
        <ele>627</ele>
        <time>2010-06-13T07:32:06Z</time>
      </trkpt>
      <trkpt lat="45.898343967273831" lon="9.045372968539596">
        <ele>628</ele>
        <time>2010-06-13T07:32:07Z</time>
      </trkpt>
      <trkpt lat="45.898353019729257" lon="9.045385960489512">
        <ele>628</ele>
        <time>2010-06-13T07:32:08Z</time>
      </trkpt>
      <trkpt lat="45.898371040821075" lon="9.045399036258459">
        <ele>628</ele>
        <time>2010-06-13T07:32:09Z</time>
      </trkpt>
      <trkpt lat="45.898388978093863" lon="9.045412028208375">
        <ele>628</ele>
        <time>2010-06-13T07:32:10Z</time>
      </trkpt>
      <trkpt lat="45.898415967822075" lon="9.045425020158291">
        <ele>628</ele>
        <time>2010-06-13T07:32:11Z</time>
      </trkpt>
      <trkpt lat="45.8984250202775" lon="9.045438012108207">
        <ele>628</ele>
        <time>2010-06-13T07:32:12Z</time>
      </trkpt>
      <trkpt lat="45.898443041369319" lon="9.045451004058123">
        <ele>628</ele>
        <time>2010-06-13T07:32:13Z</time>
      </trkpt>
      <trkpt lat="45.898452010005713" lon="9.045451004058123">
        <ele>628</ele>
        <time>2010-06-13T07:32:14Z</time>
      </trkpt>
      <trkpt lat="45.898460978642106" lon="9.045463996008039">
        <ele>628</ele>
        <time>2010-06-13T07:32:15Z</time>
      </trkpt>
      <trkpt lat="45.898478999733925" lon="9.045476987957954">
        <ele>629</ele>
        <time>2010-06-13T07:32:16Z</time>
      </trkpt>
      <trkpt lat="45.898487968370318" lon="9.045501966029406">
        <ele>629</ele>
        <time>2010-06-13T07:32:17Z</time>
      </trkpt>
      <trkpt lat="45.898505989462137" lon="9.045515041798353">
        <ele>629</ele>
        <time>2010-06-13T07:32:18Z</time>
      </trkpt>
      <trkpt lat="45.898514958098531" lon="9.045541025698185">
        <ele>629</ele>
        <time>2010-06-13T07:32:19Z</time>
      </trkpt>
      <trkpt lat="45.898524010553956" lon="9.045567009598017">
        <ele>629</ele>
        <time>2010-06-13T07:32:20Z</time>
      </trkpt>
      <trkpt lat="45.898542031645775" lon="9.045580001547933">
        <ele>629</ele>
        <time>2010-06-13T07:32:21Z</time>
      </trkpt>
      <trkpt lat="45.898559968918562" lon="9.045592993497849">
        <ele>629</ele>
        <time>2010-06-13T07:32:22Z</time>
      </trkpt>
      <trkpt lat="45.898577990010381" lon="9.045605985447764">
        <ele>629</ele>
        <time>2010-06-13T07:32:23Z</time>
      </trkpt>
      <trkpt lat="45.8985960111022" lon="9.04561897739768">
        <ele>630</ele>
        <time>2010-06-13T07:32:24Z</time>
      </trkpt>
      <trkpt lat="45.898604979738593" lon="9.045630963519216">
        <ele>630</ele>
        <time>2010-06-13T07:32:25Z</time>
      </trkpt>
      <trkpt lat="45.8985960111022" lon="9.045657031238079">
        <ele>630</ele>
        <time>2010-06-13T07:32:26Z</time>
      </trkpt>
      <trkpt lat="45.8985960111022" lon="9.045683015137911">
        <ele>630</ele>
        <time>2010-06-13T07:32:27Z</time>
      </trkpt>
      <trkpt lat="45.898604979738593" lon="9.045696007087827">
        <ele>630</ele>
        <time>2010-06-13T07:32:28Z</time>
      </trkpt>
      <trkpt lat="45.898604979738593" lon="9.045708999037743">
        <ele>630</ele>
        <time>2010-06-13T07:32:29Z</time>
      </trkpt>
      <trkpt lat="45.898614032194018" lon="9.045721990987659">
        <ele>630</ele>
        <time>2010-06-13T07:32:30Z</time>
      </trkpt>
      <trkpt lat="45.898623000830412" lon="9.045733977109194">
        <ele>630</ele>
        <time>2010-06-13T07:32:31Z</time>
      </trkpt>
      <trkpt lat="45.898641021922231" lon="9.045759961009026">
        <ele>631</ele>
        <time>2010-06-13T07:32:32Z</time>
      </trkpt>
      <trkpt lat="45.898649990558624" lon="9.045773036777973">
        <ele>631</ele>
        <time>2010-06-13T07:32:33Z</time>
      </trkpt>
      <trkpt lat="45.898658959195018" lon="9.045786028727889">
        <ele>631</ele>
        <time>2010-06-13T07:32:34Z</time>
      </trkpt>
      <trkpt lat="45.898676980286837" lon="9.045799020677805">
        <ele>631</ele>
        <time>2010-06-13T07:32:35Z</time>
      </trkpt>
      <trkpt lat="45.898686032742262" lon="9.045812012627721">
        <ele>631</ele>
        <time>2010-06-13T07:32:36Z</time>
      </trkpt>
      <trkpt lat="45.898695001378655" lon="9.045825004577637">
        <ele>631</ele>
        <time>2010-06-13T07:32:37Z</time>
      </trkpt>
      <trkpt lat="45.898713022470474" lon="9.045825004577637">
        <ele>631</ele>
        <time>2010-06-13T07:32:38Z</time>
      </trkpt>
      <trkpt lat="45.898730959743261" lon="9.045837996527553">
        <ele>631</ele>
        <time>2010-06-13T07:32:39Z</time>
      </trkpt>
      <trkpt lat="45.898730959743261" lon="9.045850988477469">
        <ele>631</ele>
        <time>2010-06-13T07:32:40Z</time>
      </trkpt>
      <trkpt lat="45.89874898083508" lon="9.045863980427384">
        <ele>631</ele>
        <time>2010-06-13T07:32:41Z</time>
      </trkpt>
      <trkpt lat="45.898758033290505" lon="9.04587596654892">
        <ele>632</ele>
        <time>2010-06-13T07:32:42Z</time>
      </trkpt>
      <trkpt lat="45.898767001926899" lon="9.045888958498836">
        <ele>632</ele>
        <time>2010-06-13T07:32:43Z</time>
      </trkpt>
      <trkpt lat="45.898775970563293" lon="9.045902034267783">
        <ele>633</ele>
        <time>2010-06-13T07:32:44Z</time>
      </trkpt>
      <trkpt lat="45.898785023018718" lon="9.045902034267783">
        <ele>633</ele>
        <time>2010-06-13T07:32:45Z</time>
      </trkpt>
      <trkpt lat="45.898793991655111" lon="9.045915026217699">
        <ele>633</ele>
        <time>2010-06-13T07:32:46Z</time>
      </trkpt>
      <trkpt lat="45.898820981383324" lon="9.045928018167615">
        <ele>634</ele>
        <time>2010-06-13T07:32:47Z</time>
      </trkpt>
      <trkpt lat="45.898839002475142" lon="9.045928018167615">
        <ele>634</ele>
        <time>2010-06-13T07:32:48Z</time>
      </trkpt>
      <trkpt lat="45.898839002475142" lon="9.045941010117531">
        <ele>634</ele>
        <time>2010-06-13T07:32:49Z</time>
      </trkpt>
      <trkpt lat="45.898839002475142" lon="9.045966994017363">
        <ele>634</ele>
        <time>2010-06-13T07:32:50Z</time>
      </trkpt>
      <trkpt lat="45.898839002475142" lon="9.045979985967279">
        <ele>634</ele>
        <time>2010-06-13T07:32:51Z</time>
      </trkpt>
      <trkpt lat="45.898847971111536" lon="9.045991972088814">
        <ele>634</ele>
        <time>2010-06-13T07:32:52Z</time>
      </trkpt>
      <trkpt lat="45.898847971111536" lon="9.04600596986711">
        <ele>634</ele>
        <time>2010-06-13T07:32:53Z</time>
      </trkpt>
      <trkpt lat="45.898857023566961" lon="9.046018039807677">
        <ele>635</ele>
        <time>2010-06-13T07:32:54Z</time>
      </trkpt>
      <trkpt lat="45.898857023566961" lon="9.046031031757593">
        <ele>634</ele>
        <time>2010-06-13T07:32:55Z</time>
      </trkpt>
      <trkpt lat="45.898857023566961" lon="9.046044023707509">
        <ele>634</ele>
        <time>2010-06-13T07:32:56Z</time>
      </trkpt>
      <trkpt lat="45.898865992203355" lon="9.046057015657425">
        <ele>635</ele>
        <time>2010-06-13T07:32:57Z</time>
      </trkpt>
      <trkpt lat="45.898874960839748" lon="9.046070007607341">
        <ele>635</ele>
        <time>2010-06-13T07:32:58Z</time>
      </trkpt>
      <trkpt lat="45.898884013295174" lon="9.046082999557257">
        <ele>635</ele>
        <time>2010-06-13T07:32:59Z</time>
      </trkpt>
      <trkpt lat="45.898884013295174" lon="9.046095991507173">
        <ele>635</ele>
        <time>2010-06-13T07:33:00Z</time>
      </trkpt>
      <trkpt lat="45.898892981931567" lon="9.046108983457089">
        <ele>635</ele>
        <time>2010-06-13T07:33:01Z</time>
      </trkpt>
      <trkpt lat="45.898892981931567" lon="9.046120969578624">
        <ele>635</ele>
        <time>2010-06-13T07:33:02Z</time>
      </trkpt>
      <trkpt lat="45.898902034386992" lon="9.04613396152854">
        <ele>636</ele>
        <time>2010-06-13T07:33:03Z</time>
      </trkpt>
      <trkpt lat="45.898911003023386" lon="9.046147037297487">
        <ele>636</ele>
        <time>2010-06-13T07:33:04Z</time>
      </trkpt>
      <trkpt lat="45.898911003023386" lon="9.046160029247403">
        <ele>636</ele>
        <time>2010-06-13T07:33:05Z</time>
      </trkpt>
      <trkpt lat="45.89891997165978" lon="9.046173021197319">
        <ele>636</ele>
        <time>2010-06-13T07:33:06Z</time>
      </trkpt>
      <trkpt lat="45.89891997165978" lon="9.046186013147235">
        <ele>636</ele>
        <time>2010-06-13T07:33:07Z</time>
      </trkpt>
      <trkpt lat="45.898929024115205" lon="9.046199005097151">
        <ele>637</ele>
        <time>2010-06-13T07:33:08Z</time>
      </trkpt>
      <trkpt lat="45.898929024115205" lon="9.046211997047067">
        <ele>637</ele>
        <time>2010-06-13T07:33:09Z</time>
      </trkpt>
      <trkpt lat="45.898937992751598" lon="9.046224988996983">
        <ele>637</ele>
        <time>2010-06-13T07:33:10Z</time>
      </trkpt>
      <trkpt lat="45.898937992751598" lon="9.046237980946899">
        <ele>638</ele>
        <time>2010-06-13T07:33:11Z</time>
      </trkpt>
      <trkpt lat="45.898937992751598" lon="9.046250972896814">
        <ele>637</ele>
        <time>2010-06-13T07:33:12Z</time>
      </trkpt>
      <trkpt lat="45.898946961387992" lon="9.04626295901835">
        <ele>638</ele>
        <time>2010-06-13T07:33:13Z</time>
      </trkpt>
      <trkpt lat="45.898956013843417" lon="9.046276034787297">
        <ele>638</ele>
        <time>2010-06-13T07:33:14Z</time>
      </trkpt>
      <trkpt lat="45.898956013843417" lon="9.046289026737213">
        <ele>638</ele>
        <time>2010-06-13T07:33:15Z</time>
      </trkpt>
      <trkpt lat="45.898956013843417" lon="9.046302018687129">
        <ele>638</ele>
        <time>2010-06-13T07:33:16Z</time>
      </trkpt>
      <trkpt lat="45.898964982479811" lon="9.046315010637045">
        <ele>638</ele>
        <time>2010-06-13T07:33:17Z</time>
      </trkpt>
      <trkpt lat="45.898964982479811" lon="9.046328002586961">
        <ele>638</ele>
        <time>2010-06-13T07:33:18Z</time>
      </trkpt>
      <trkpt lat="45.898974034935236" lon="9.046340994536877">
        <ele>638</ele>
        <time>2010-06-13T07:33:19Z</time>
      </trkpt>
      <trkpt lat="45.898974034935236" lon="9.046353986486793">
        <ele>639</ele>
        <time>2010-06-13T07:33:20Z</time>
      </trkpt>
      <trkpt lat="45.898981997743249" lon="9.046365972608328">
        <ele>639</ele>
        <time>2010-06-13T07:33:21Z</time>
      </trkpt>
      <trkpt lat="45.898991972208023" lon="9.046378964558244">
        <ele>639</ele>
        <time>2010-06-13T07:33:22Z</time>
      </trkpt>
      <trkpt lat="45.898991972208023" lon="9.046392040327191">
        <ele>640</ele>
        <time>2010-06-13T07:33:23Z</time>
      </trkpt>
      <trkpt lat="45.899001024663448" lon="9.046392040327191">
        <ele>640</ele>
        <time>2010-06-13T07:33:24Z</time>
      </trkpt>
      <trkpt lat="45.899009993299842" lon="9.046405032277107">
        <ele>640</ele>
        <time>2010-06-13T07:33:25Z</time>
      </trkpt>
      <trkpt lat="45.899008987471461" lon="9.046418024227023">
        <ele>640</ele>
        <time>2010-06-13T07:33:26Z</time>
      </trkpt>
      <trkpt lat="45.899008987471461" lon="9.046431016176939">
        <ele>640</ele>
        <time>2010-06-13T07:33:27Z</time>
      </trkpt>
      <trkpt lat="45.899008987471461" lon="9.046469992026687">
        <ele>640</ele>
        <time>2010-06-13T07:33:29Z</time>
      </trkpt>
      <trkpt lat="45.899008987471461" lon="9.046481978148222">
        <ele>640</ele>
        <time>2010-06-13T07:33:30Z</time>
      </trkpt>
      <trkpt lat="45.899001024663448" lon="9.046494970098138">
        <ele>640</ele>
        <time>2010-06-13T07:33:31Z</time>
      </trkpt>
      <trkpt lat="45.898991972208023" lon="9.046494970098138">
        <ele>640</ele>
        <time>2010-06-13T07:33:32Z</time>
      </trkpt>
      <trkpt lat="45.898981997743249" lon="9.046481978148222">
        <ele>641</ele>
        <time>2010-06-13T07:33:33Z</time>
      </trkpt>
      <trkpt lat="45.89896397665143" lon="9.046481978148222">
        <ele>641</ele>
        <time>2010-06-13T07:33:34Z</time>
      </trkpt>
      <trkpt lat="45.898956013843417" lon="9.046469992026687">
        <ele>641</ele>
        <time>2010-06-13T07:33:35Z</time>
      </trkpt>
      <trkpt lat="45.898946961387992" lon="9.046469992026687">
        <ele>641</ele>
        <time>2010-06-13T07:33:36Z</time>
      </trkpt>
      <trkpt lat="45.898936986923218" lon="9.046457000076771">
        <ele>642</ele>
        <time>2010-06-13T07:33:37Z</time>
      </trkpt>
      <trkpt lat="45.898929024115205" lon="9.046444008126855">
        <ele>642</ele>
        <time>2010-06-13T07:33:38Z</time>
      </trkpt>
      <trkpt lat="45.898918965831399" lon="9.046431016176939">
        <ele>642</ele>
        <time>2010-06-13T07:33:39Z</time>
      </trkpt>
      <trkpt lat="45.898911003023386" lon="9.046418024227023">
        <ele>642</ele>
        <time>2010-06-13T07:33:40Z</time>
      </trkpt>
      <trkpt lat="45.898902034386992" lon="9.046418024227023">
        <ele>642</ele>
        <time>2010-06-13T07:33:41Z</time>
      </trkpt>
      <trkpt lat="45.898891976103187" lon="9.046392040327191">
        <ele>642</ele>
        <time>2010-06-13T07:33:42Z</time>
      </trkpt>
      <trkpt lat="45.898884013295174" lon="9.046392040327191">
        <ele>642</ele>
        <time>2010-06-13T07:33:43Z</time>
      </trkpt>
      <trkpt lat="45.898874960839748" lon="9.046378964558244">
        <ele>642</ele>
        <time>2010-06-13T07:33:44Z</time>
      </trkpt>
      <trkpt lat="45.898865992203355" lon="9.046365972608328">
        <ele>643</ele>
        <time>2010-06-13T07:33:45Z</time>
      </trkpt>
      <trkpt lat="45.898857023566961" lon="9.046353986486793">
        <ele>643</ele>
        <time>2010-06-13T07:33:46Z</time>
      </trkpt>
      <trkpt lat="45.898846965283155" lon="9.046353986486793">
        <ele>643</ele>
        <time>2010-06-13T07:33:47Z</time>
      </trkpt>
      <trkpt lat="45.898846965283155" lon="9.046340994536877">
        <ele>643</ele>
        <time>2010-06-13T07:33:48Z</time>
      </trkpt>
      <trkpt lat="45.898839002475142" lon="9.046328002586961">
        <ele>643</ele>
        <time>2010-06-13T07:33:49Z</time>
      </trkpt>
      <trkpt lat="45.898820981383324" lon="9.046328002586961">
        <ele>643</ele>
        <time>2010-06-13T07:33:50Z</time>
      </trkpt>
      <trkpt lat="45.89881201274693" lon="9.046315010637045">
        <ele>643</ele>
        <time>2010-06-13T07:33:51Z</time>
      </trkpt>
      <trkpt lat="45.898802038282156" lon="9.046315010637045">
        <ele>643</ele>
        <time>2010-06-13T07:33:52Z</time>
      </trkpt>
      <trkpt lat="45.898793991655111" lon="9.046315010637045">
        <ele>643</ele>
        <time>2010-06-13T07:33:53Z</time>
      </trkpt>
      <trkpt lat="45.898785023018718" lon="9.046328002586961">
        <ele>644</ele>
        <time>2010-06-13T07:33:54Z</time>
      </trkpt>
      <trkpt lat="45.898775970563293" lon="9.046328002586961">
        <ele>644</ele>
        <time>2010-06-13T07:33:55Z</time>
      </trkpt>
      <trkpt lat="45.898757027462125" lon="9.046340994536877">
        <ele>645</ele>
        <time>2010-06-13T07:33:56Z</time>
      </trkpt>
      <trkpt lat="45.898740012198687" lon="9.046340994536877">
        <ele>645</ele>
        <time>2010-06-13T07:33:58Z</time>
      </trkpt>
      <trkpt lat="45.898730959743261" lon="9.046352980658412">
        <ele>645</ele>
        <time>2010-06-13T07:33:59Z</time>
      </trkpt>
      <trkpt lat="45.898721991106868" lon="9.046352980658412">
        <ele>645</ele>
        <time>2010-06-13T07:34:00Z</time>
      </trkpt>
      <trkpt lat="45.898712016642094" lon="9.046352980658412">
        <ele>645</ele>
        <time>2010-06-13T07:34:01Z</time>
      </trkpt>
      <trkpt lat="45.898703970015049" lon="9.046365972608328">
        <ele>645</ele>
        <time>2010-06-13T07:34:02Z</time>
      </trkpt>
      <trkpt lat="45.898686032742262" lon="9.046365972608328">
        <ele>645</ele>
        <time>2010-06-13T07:34:03Z</time>
      </trkpt>
      <trkpt lat="45.898676980286837" lon="9.046378964558244">
        <ele>646</ele>
        <time>2010-06-13T07:34:04Z</time>
      </trkpt>
      <trkpt lat="45.898667005822062" lon="9.046378964558244">
        <ele>646</ele>
        <time>2010-06-13T07:34:05Z</time>
      </trkpt>
      <trkpt lat="45.898658959195018" lon="9.046392040327191">
        <ele>646</ele>
        <time>2010-06-13T07:34:06Z</time>
      </trkpt>
      <trkpt lat="45.898648984730244" lon="9.046405032277107">
        <ele>646</ele>
        <time>2010-06-13T07:34:07Z</time>
      </trkpt>
      <trkpt lat="45.898648984730244" lon="9.046418024227023">
        <ele>647</ele>
        <time>2010-06-13T07:34:08Z</time>
      </trkpt>
      <trkpt lat="45.898641021922231" lon="9.046431016176939">
        <ele>646</ele>
        <time>2010-06-13T07:34:09Z</time>
      </trkpt>
      <trkpt lat="45.898641021922231" lon="9.04645599424839">
        <ele>646</ele>
        <time>2010-06-13T07:34:10Z</time>
      </trkpt>
      <trkpt lat="45.898641021922231" lon="9.046468986198306">
        <ele>646</ele>
        <time>2010-06-13T07:34:11Z</time>
      </trkpt>
      <trkpt lat="45.898630963638425" lon="9.046494970098138">
        <ele>647</ele>
        <time>2010-06-13T07:34:13Z</time>
      </trkpt>
      <trkpt lat="45.898630963638425" lon="9.046521037817001">
        <ele>647</ele>
        <time>2010-06-13T07:34:14Z</time>
      </trkpt>
      <trkpt lat="45.898621995002031" lon="9.046534029766917">
        <ele>647</ele>
        <time>2010-06-13T07:34:15Z</time>
      </trkpt>
      <trkpt lat="45.898621995002031" lon="9.046534029766917">
        <ele>647</ele>
        <time>2010-06-13T07:34:16Z</time>
      </trkpt>
      <trkpt lat="45.898614032194018" lon="9.046534029766917">
        <ele>647</ele>
        <time>2010-06-13T07:34:18Z</time>
      </trkpt>
      <trkpt lat="45.898614032194018" lon="9.046521037817001">
        <ele>647</ele>
        <time>2010-06-13T07:34:19Z</time>
      </trkpt>
      <trkpt lat="45.8985960111022" lon="9.046507962048054">
        <ele>647</ele>
        <time>2010-06-13T07:34:20Z</time>
      </trkpt>
      <trkpt lat="45.898586958646774" lon="9.046481978148222">
        <ele>647</ele>
        <time>2010-06-13T07:34:21Z</time>
      </trkpt>
      <trkpt lat="45.898576984182" lon="9.04645599424839">
        <ele>647</ele>
        <time>2010-06-13T07:34:22Z</time>
      </trkpt>
      <trkpt lat="45.898569021373987" lon="9.046444008126855">
        <ele>647</ele>
        <time>2010-06-13T07:34:23Z</time>
      </trkpt>
      <trkpt lat="45.898558963090181" lon="9.046431016176939">
        <ele>647</ele>
        <time>2010-06-13T07:34:24Z</time>
      </trkpt>
      <trkpt lat="45.898551000282168" lon="9.046418024227023">
        <ele>647</ele>
        <time>2010-06-13T07:34:25Z</time>
      </trkpt>
      <trkpt lat="45.898531973361969" lon="9.046405032277107">
        <ele>647</ele>
        <time>2010-06-13T07:34:26Z</time>
      </trkpt>
      <trkpt lat="45.898524010553956" lon="9.046392040327191">
        <ele>647</ele>
        <time>2010-06-13T07:34:27Z</time>
      </trkpt>
      <trkpt lat="45.898514036089182" lon="9.046392040327191">
        <ele>647</ele>
        <time>2010-06-13T07:34:28Z</time>
      </trkpt>
      <trkpt lat="45.898497020825744" lon="9.046392040327191">
        <ele>647</ele>
        <time>2010-06-13T07:34:29Z</time>
      </trkpt>
      <trkpt lat="45.898486962541938" lon="9.046378964558244">
        <ele>647</ele>
        <time>2010-06-13T07:34:30Z</time>
      </trkpt>
      <trkpt lat="45.898478999733925" lon="9.046378964558244">
        <ele>647</ele>
        <time>2010-06-13T07:34:31Z</time>
      </trkpt>
      <trkpt lat="45.898460978642106" lon="9.046365972608328">
        <ele>647</ele>
        <time>2010-06-13T07:34:32Z</time>
      </trkpt>
      <trkpt lat="45.898442035540938" lon="9.046352980658412">
        <ele>647</ele>
        <time>2010-06-13T07:34:33Z</time>
      </trkpt>
      <trkpt lat="45.898433988913894" lon="9.046352980658412">
        <ele>647</ele>
        <time>2010-06-13T07:34:34Z</time>
      </trkpt>
      <trkpt lat="45.898415967822075" lon="9.046339988708496">
        <ele>648</ele>
        <time>2010-06-13T07:34:35Z</time>
      </trkpt>
      <trkpt lat="45.898406999185681" lon="9.04632699675858">
        <ele>648</ele>
        <time>2010-06-13T07:34:36Z</time>
      </trkpt>
      <trkpt lat="45.898406999185681" lon="9.046339988708496">
        <ele>648</ele>
        <time>2010-06-13T07:34:37Z</time>
      </trkpt>
      <trkpt lat="45.898397024720907" lon="9.046339988708496">
        <ele>648</ele>
        <time>2010-06-13T07:34:38Z</time>
      </trkpt>
      <trkpt lat="45.898371040821075" lon="9.04632699675858">
        <ele>649</ele>
        <time>2010-06-13T07:34:40Z</time>
      </trkpt>
      <trkpt lat="45.89836198836565" lon="9.046314004808664">
        <ele>649</ele>
        <time>2010-06-13T07:34:41Z</time>
      </trkpt>
      <trkpt lat="45.898352013900876" lon="9.046314004808664">
        <ele>649</ele>
        <time>2010-06-13T07:34:42Z</time>
      </trkpt>
      <trkpt lat="45.898334998637438" lon="9.046301012858748">
        <ele>649</ele>
        <time>2010-06-13T07:34:43Z</time>
      </trkpt>
      <trkpt lat="45.898316977545619" lon="9.046289026737213">
        <ele>649</ele>
        <time>2010-06-13T07:34:44Z</time>
      </trkpt>
      <trkpt lat="45.898307003080845" lon="9.046289026737213">
        <ele>649</ele>
        <time>2010-06-13T07:34:45Z</time>
      </trkpt>
      <trkpt lat="45.898271966725588" lon="9.046301012858748">
        <ele>650</ele>
        <time>2010-06-13T07:34:47Z</time>
      </trkpt>
      <trkpt lat="45.898254029452801" lon="9.046314004808664">
        <ele>650</ele>
        <time>2010-06-13T07:34:48Z</time>
      </trkpt>
      <trkpt lat="45.898281019181013" lon="9.04645599424839">
        <ele>651</ele>
        <time>2010-06-13T07:34:56Z</time>
      </trkpt>
      <trkpt lat="45.898288981989026" lon="9.046468986198306">
        <ele>651</ele>
        <time>2010-06-13T07:34:57Z</time>
      </trkpt>
      <trkpt lat="45.898307003080845" lon="9.046468986198306">
        <ele>651</ele>
        <time>2010-06-13T07:34:58Z</time>
      </trkpt>
      <trkpt lat="45.898307003080845" lon="9.046481978148222">
        <ele>651</ele>
        <time>2010-06-13T07:34:59Z</time>
      </trkpt>
      <trkpt lat="45.898307003080845" lon="9.046494970098138">
        <ele>652</ele>
        <time>2010-06-13T07:35:00Z</time>
      </trkpt>
      <trkpt lat="45.898307003080845" lon="9.046534029766917">
        <ele>652</ele>
        <time>2010-06-13T07:35:02Z</time>
      </trkpt>
      <trkpt lat="45.898315971717238" lon="9.046559007838368">
        <ele>652</ele>
        <time>2010-06-13T07:35:03Z</time>
      </trkpt>
      <trkpt lat="45.898326030001044" lon="9.046571999788284">
        <ele>653</ele>
        <time>2010-06-13T07:35:04Z</time>
      </trkpt>
      <trkpt lat="45.898333992809057" lon="9.046597983688116">
        <ele>653</ele>
        <time>2010-06-13T07:35:05Z</time>
      </trkpt>
      <trkpt lat="45.898352013900876" lon="9.046610975638032">
        <ele>653</ele>
        <time>2010-06-13T07:35:06Z</time>
      </trkpt>
      <trkpt lat="45.898371040821075" lon="9.046623967587948">
        <ele>654</ele>
        <time>2010-06-13T07:35:07Z</time>
      </trkpt>
      <trkpt lat="45.898379003629088" lon="9.046636959537864">
        <ele>654</ele>
        <time>2010-06-13T07:35:08Z</time>
      </trkpt>
      <trkpt lat="45.898379003629088" lon="9.046650035306811">
        <ele>654</ele>
        <time>2010-06-13T07:35:09Z</time>
      </trkpt>
      <trkpt lat="45.898387972265482" lon="9.046663027256727">
        <ele>653</ele>
        <time>2010-06-13T07:35:10Z</time>
      </trkpt>
      <trkpt lat="45.898397024720907" lon="9.046675013378263">
        <ele>653</ele>
        <time>2010-06-13T07:35:11Z</time>
      </trkpt>
      <trkpt lat="45.898415967822075" lon="9.046700997278094">
        <ele>654</ele>
        <time>2010-06-13T07:35:12Z</time>
      </trkpt>
      <trkpt lat="45.89842401444912" lon="9.04671398922801">
        <ele>654</ele>
        <time>2010-06-13T07:35:13Z</time>
      </trkpt>
      <trkpt lat="45.898432983085513" lon="9.046726981177926">
        <ele>654</ele>
        <time>2010-06-13T07:35:14Z</time>
      </trkpt>
      <trkpt lat="45.898442035540938" lon="9.046739973127842">
        <ele>654</ele>
        <time>2010-06-13T07:35:15Z</time>
      </trkpt>
      <trkpt lat="45.898442035540938" lon="9.046752965077758">
        <ele>654</ele>
        <time>2010-06-13T07:35:16Z</time>
      </trkpt>
      <trkpt lat="45.898451004177332" lon="9.046766040846705">
        <ele>654</ele>
        <time>2010-06-13T07:35:17Z</time>
      </trkpt>
      <trkpt lat="45.898459972813725" lon="9.046779032796621">
        <ele>655</ele>
        <time>2010-06-13T07:35:18Z</time>
      </trkpt>
      <trkpt lat="45.898459972813725" lon="9.046804010868073">
        <ele>655</ele>
        <time>2010-06-13T07:35:19Z</time>
      </trkpt>
      <trkpt lat="45.898459972813725" lon="9.046829994767904">
        <ele>655</ele>
        <time>2010-06-13T07:35:21Z</time>
      </trkpt>
      <trkpt lat="45.898469025269151" lon="9.046855978667736">
        <ele>655</ele>
        <time>2010-06-13T07:35:22Z</time>
      </trkpt>
      <trkpt lat="45.898469025269151" lon="9.046868970617652">
        <ele>655</ele>
        <time>2010-06-13T07:35:23Z</time>
      </trkpt>
      <trkpt lat="45.898477993905544" lon="9.046881962567568">
        <ele>655</ele>
        <time>2010-06-13T07:35:24Z</time>
      </trkpt>
      <trkpt lat="45.898477993905544" lon="9.046907024458051">
        <ele>656</ele>
        <time>2010-06-13T07:35:25Z</time>
      </trkpt>
      <trkpt lat="45.898477993905544" lon="9.046946000307798">
        <ele>656</ele>
        <time>2010-06-13T07:35:27Z</time>
      </trkpt>
      <trkpt lat="45.898486962541938" lon="9.046958992257714">
        <ele>655</ele>
        <time>2010-06-13T07:35:28Z</time>
      </trkpt>
      <trkpt lat="45.898496014997363" lon="9.04697198420763">
        <ele>655</ele>
        <time>2010-06-13T07:35:29Z</time>
      </trkpt>
      <trkpt lat="45.898523004725575" lon="9.046984976157546">
        <ele>655</ele>
        <time>2010-06-13T07:35:30Z</time>
      </trkpt>
      <trkpt lat="45.898541025817394" lon="9.046984976157546">
        <ele>656</ele>
        <time>2010-06-13T07:35:31Z</time>
      </trkpt>
      <trkpt lat="45.898558963090181" lon="9.046997968107462">
        <ele>656</ele>
        <time>2010-06-13T07:35:32Z</time>
      </trkpt>
      <trkpt lat="45.898576984182" lon="9.047010960057378">
        <ele>656</ele>
        <time>2010-06-13T07:35:33Z</time>
      </trkpt>
      <trkpt lat="45.898586036637425" lon="9.047024035826325">
        <ele>656</ele>
        <time>2010-06-13T07:35:34Z</time>
      </trkpt>
      <trkpt lat="45.898675974458456" lon="9.047062005847693">
        <ele>657</ele>
        <time>2010-06-13T07:36:00Z</time>
      </trkpt>
      <trkpt lat="45.898685026913881" lon="9.047074997797608">
        <ele>657</ele>
        <time>2010-06-13T07:36:01Z</time>
      </trkpt>
      <trkpt lat="45.898693995550275" lon="9.04710098169744">
        <ele>657</ele>
        <time>2010-06-13T07:36:02Z</time>
      </trkpt>
      <trkpt lat="45.898702964186668" lon="9.047113973647356">
        <ele>657</ele>
        <time>2010-06-13T07:36:03Z</time>
      </trkpt>
      <trkpt lat="45.898712016642094" lon="9.047126965597272">
        <ele>657</ele>
        <time>2010-06-13T07:36:04Z</time>
      </trkpt>
      <trkpt lat="45.898712016642094" lon="9.04714004136622">
        <ele>657</ele>
        <time>2010-06-13T07:36:05Z</time>
      </trkpt>
      <trkpt lat="45.898720985278487" lon="9.047152027487755">
        <ele>657</ele>
        <time>2010-06-13T07:36:06Z</time>
      </trkpt>
      <trkpt lat="45.898720985278487" lon="9.047166025266051">
        <ele>657</ele>
        <time>2010-06-13T07:36:07Z</time>
      </trkpt>
      <trkpt lat="45.898730037733912" lon="9.047178011387587">
        <ele>658</ele>
        <time>2010-06-13T07:36:08Z</time>
      </trkpt>
      <trkpt lat="45.898739006370306" lon="9.047203995287418">
        <ele>658</ele>
        <time>2010-06-13T07:36:09Z</time>
      </trkpt>
      <trkpt lat="45.898739006370306" lon="9.047203995287418">
        <ele>658</ele>
        <time>2010-06-13T07:36:10Z</time>
      </trkpt>
      <trkpt lat="45.898757027462125" lon="9.047216987237334">
        <ele>658</ele>
        <time>2010-06-13T07:36:11Z</time>
      </trkpt>
      <trkpt lat="45.898774964734912" lon="9.04722997918725">
        <ele>658</ele>
        <time>2010-06-13T07:36:12Z</time>
      </trkpt>
      <trkpt lat="45.898792985826731" lon="9.047242971137166">
        <ele>658</ele>
        <time>2010-06-13T07:36:13Z</time>
      </trkpt>
      <trkpt lat="45.898829028010368" lon="9.047255963087082">
        <ele>658</ele>
        <time>2010-06-13T07:36:14Z</time>
      </trkpt>
      <trkpt lat="45.898864986374974" lon="9.04726903885603">
        <ele>658</ele>
        <time>2010-06-13T07:36:15Z</time>
      </trkpt>
      <trkpt lat="45.898883007466793" lon="9.04726903885603">
        <ele>659</ele>
        <time>2010-06-13T07:36:16Z</time>
      </trkpt>
      <trkpt lat="45.898891976103187" lon="9.047282030805945">
        <ele>659</ele>
        <time>2010-06-13T07:36:17Z</time>
      </trkpt>
      <trkpt lat="45.898891976103187" lon="9.047294016927481">
        <ele>659</ele>
        <time>2010-06-13T07:36:18Z</time>
      </trkpt>
      <trkpt lat="45.898901028558612" lon="9.047307008877397">
        <ele>659</ele>
        <time>2010-06-13T07:36:19Z</time>
      </trkpt>
      <trkpt lat="45.898901028558612" lon="9.047320000827313">
        <ele>659</ele>
        <time>2010-06-13T07:36:20Z</time>
      </trkpt>
      <trkpt lat="45.898891976103187" lon="9.047345984727144">
        <ele>659</ele>
        <time>2010-06-13T07:36:21Z</time>
      </trkpt>
      <trkpt lat="45.898883007466793" lon="9.047371968626976">
        <ele>659</ele>
        <time>2010-06-13T07:36:22Z</time>
      </trkpt>
      <trkpt lat="45.8988740388304" lon="9.047411028295755">
        <ele>660</ele>
        <time>2010-06-13T07:36:24Z</time>
      </trkpt>
      <trkpt lat="45.8988740388304" lon="9.047436006367207">
        <ele>660</ele>
        <time>2010-06-13T07:36:25Z</time>
      </trkpt>
      <trkpt lat="45.8988740388304" lon="9.047500966116786">
        <ele>661</ele>
        <time>2010-06-13T07:36:28Z</time>
      </trkpt>
      <trkpt lat="45.8988740388304" lon="9.047514041885734">
        <ele>661</ele>
        <time>2010-06-13T07:36:29Z</time>
      </trkpt>
      <trkpt lat="45.8988740388304" lon="9.04752703383565">
        <ele>661</ele>
        <time>2010-06-13T07:36:30Z</time>
      </trkpt>
      <trkpt lat="45.8988740388304" lon="9.047552011907101">
        <ele>661</ele>
        <time>2010-06-13T07:36:31Z</time>
      </trkpt>
      <trkpt lat="45.898883007466793" lon="9.047603979706764">
        <ele>661</ele>
        <time>2010-06-13T07:36:34Z</time>
      </trkpt>
      <trkpt lat="45.898883007466793" lon="9.04761697165668">
        <ele>662</ele>
        <time>2010-06-13T07:36:35Z</time>
      </trkpt>
      <trkpt lat="45.898891976103187" lon="9.047643039375544">
        <ele>662</ele>
        <time>2010-06-13T07:36:36Z</time>
      </trkpt>
      <trkpt lat="45.898901028558612" lon="9.04765603132546">
        <ele>662</ele>
        <time>2010-06-13T07:36:37Z</time>
      </trkpt>
      <trkpt lat="45.898909997195005" lon="9.047668017446995">
        <ele>662</ele>
        <time>2010-06-13T07:36:38Z</time>
      </trkpt>
      <trkpt lat="45.898918965831399" lon="9.047681009396911">
        <ele>662</ele>
        <time>2010-06-13T07:36:39Z</time>
      </trkpt>
      <trkpt lat="45.898918965831399" lon="9.047694001346827">
        <ele>663</ele>
        <time>2010-06-13T07:36:40Z</time>
      </trkpt>
      <trkpt lat="45.898928018286824" lon="9.047706993296742">
        <ele>663</ele>
        <time>2010-06-13T07:36:41Z</time>
      </trkpt>
      <trkpt lat="45.898936986923218" lon="9.047719985246658">
        <ele>663</ele>
        <time>2010-06-13T07:36:42Z</time>
      </trkpt>
      <trkpt lat="45.898936986923218" lon="9.047758961096406">
        <ele>663</ele>
        <time>2010-06-13T07:36:44Z</time>
      </trkpt>
      <trkpt lat="45.898946039378643" lon="9.047772036865354">
        <ele>663</ele>
        <time>2010-06-13T07:36:45Z</time>
      </trkpt>
      <trkpt lat="45.898955008015037" lon="9.047784022986889">
        <ele>663</ele>
        <time>2010-06-13T07:36:46Z</time>
      </trkpt>
      <trkpt lat="45.89896397665143" lon="9.047797014936805">
        <ele>664</ele>
        <time>2010-06-13T07:36:47Z</time>
      </trkpt>
      <trkpt lat="45.89896397665143" lon="9.047810006886721">
        <ele>664</ele>
        <time>2010-06-13T07:36:48Z</time>
      </trkpt>
      <trkpt lat="45.898955008015037" lon="9.047835990786552">
        <ele>664</ele>
        <time>2010-06-13T07:36:49Z</time>
      </trkpt>
      <trkpt lat="45.89896397665143" lon="9.047848982736468">
        <ele>665</ele>
        <time>2010-06-13T07:36:50Z</time>
      </trkpt>
      <trkpt lat="45.89896397665143" lon="9.047861974686384">
        <ele>665</ele>
        <time>2010-06-13T07:36:51Z</time>
      </trkpt>
      <trkpt lat="45.898973029106855" lon="9.0478749666363">
        <ele>665</ele>
        <time>2010-06-13T07:36:52Z</time>
      </trkpt>
      <trkpt lat="45.898973029106855" lon="9.047887036576867">
        <ele>665</ele>
        <time>2010-06-13T07:36:53Z</time>
      </trkpt>
      <trkpt lat="45.898981997743249" lon="9.047913020476699">
        <ele>665</ele>
        <time>2010-06-13T07:36:54Z</time>
      </trkpt>
      <trkpt lat="45.898981997743249" lon="9.047926012426615">
        <ele>666</ele>
        <time>2010-06-13T07:36:55Z</time>
      </trkpt>
      <trkpt lat="45.898981997743249" lon="9.047939004376531">
        <ele>666</ele>
        <time>2010-06-13T07:36:56Z</time>
      </trkpt>
      <trkpt lat="45.89896397665143" lon="9.047964988276362">
        <ele>666</ele>
        <time>2010-06-13T07:36:57Z</time>
      </trkpt>
      <trkpt lat="45.89896397665143" lon="9.047977980226278">
        <ele>666</ele>
        <time>2010-06-13T07:36:58Z</time>
      </trkpt>
      <trkpt lat="45.89896397665143" lon="9.047990972176194">
        <ele>666</ele>
        <time>2010-06-13T07:36:59Z</time>
      </trkpt>
      <trkpt lat="45.898955008015037" lon="9.048016034066677">
        <ele>666</ele>
        <time>2010-06-13T07:37:00Z</time>
      </trkpt>
      <trkpt lat="45.898955008015037" lon="9.048055009916425">
        <ele>666</ele>
        <time>2010-06-13T07:37:02Z</time>
      </trkpt>
      <trkpt lat="45.898955008015037" lon="9.048068001866341">
        <ele>667</ele>
        <time>2010-06-13T07:37:03Z</time>
      </trkpt>
      <trkpt lat="45.898955008015037" lon="9.048093985766172">
        <ele>667</ele>
        <time>2010-06-13T07:37:04Z</time>
      </trkpt>
      <trkpt lat="45.898955008015037" lon="9.048106977716088">
        <ele>667</ele>
        <time>2010-06-13T07:37:05Z</time>
      </trkpt>
      <trkpt lat="45.89896397665143" lon="9.048119969666004">
        <ele>667</ele>
        <time>2010-06-13T07:37:06Z</time>
      </trkpt>
      <trkpt lat="45.89896397665143" lon="9.048132039606571">
        <ele>667</ele>
        <time>2010-06-13T07:37:07Z</time>
      </trkpt>
      <trkpt lat="45.89896397665143" lon="9.048146037384868">
        <ele>668</ele>
        <time>2010-06-13T07:37:08Z</time>
      </trkpt>
      <trkpt lat="45.89896397665143" lon="9.048171015456319">
        <ele>668</ele>
        <time>2010-06-13T07:37:09Z</time>
      </trkpt>
      <trkpt lat="45.898973029106855" lon="9.048184007406235">
        <ele>669</ele>
        <time>2010-06-13T07:37:10Z</time>
      </trkpt>
      <trkpt lat="45.898981997743249" lon="9.048196999356151">
        <ele>669</ele>
        <time>2010-06-13T07:37:11Z</time>
      </trkpt>
      <trkpt lat="45.898981997743249" lon="9.048222983255982">
        <ele>669</ele>
        <time>2010-06-13T07:37:12Z</time>
      </trkpt>
      <trkpt lat="45.898990966379642" lon="9.048235975205898">
        <ele>669</ele>
        <time>2010-06-13T07:37:13Z</time>
      </trkpt>
      <trkpt lat="45.898990966379642" lon="9.048248967155814">
        <ele>669</ele>
        <time>2010-06-13T07:37:14Z</time>
      </trkpt>
      <trkpt lat="45.898990966379642" lon="9.048261037096381">
        <ele>669</ele>
        <time>2010-06-13T07:37:15Z</time>
      </trkpt>
      <trkpt lat="45.898990966379642" lon="9.048274029046297">
        <ele>669</ele>
        <time>2010-06-13T07:37:16Z</time>
      </trkpt>
      <trkpt lat="45.899000018835068" lon="9.048287020996213">
        <ele>670</ele>
        <time>2010-06-13T07:37:17Z</time>
      </trkpt>
      <trkpt lat="45.899000018835068" lon="9.048300012946129">
        <ele>670</ele>
        <time>2010-06-13T07:37:18Z</time>
      </trkpt>
      <trkpt lat="45.899000018835068" lon="9.048313004896045">
        <ele>670</ele>
        <time>2010-06-13T07:37:19Z</time>
      </trkpt>
      <trkpt lat="45.899000018835068" lon="9.048325996845961">
        <ele>670</ele>
        <time>2010-06-13T07:37:20Z</time>
      </trkpt>
      <trkpt lat="45.899008987471461" lon="9.048338988795877">
        <ele>670</ele>
        <time>2010-06-13T07:37:21Z</time>
      </trkpt>
      <trkpt lat="45.899008987471461" lon="9.048351980745792">
        <ele>671</ele>
        <time>2010-06-13T07:37:22Z</time>
      </trkpt>
      <trkpt lat="45.899018039926887" lon="9.048364972695708">
        <ele>671</ele>
        <time>2010-06-13T07:37:23Z</time>
      </trkpt>
      <trkpt lat="45.89902700856328" lon="9.048376958817244">
        <ele>671</ele>
        <time>2010-06-13T07:37:24Z</time>
      </trkpt>
      <trkpt lat="45.89902700856328" lon="9.048390034586191">
        <ele>671</ele>
        <time>2010-06-13T07:37:25Z</time>
      </trkpt>
      <trkpt lat="45.899035977199674" lon="9.048403026536107">
        <ele>671</ele>
        <time>2010-06-13T07:37:26Z</time>
      </trkpt>
      <trkpt lat="45.899035977199674" lon="9.048416018486023">
        <ele>671</ele>
        <time>2010-06-13T07:37:27Z</time>
      </trkpt>
      <trkpt lat="45.899035977199674" lon="9.048454994335771">
        <ele>672</ele>
        <time>2010-06-13T07:37:29Z</time>
      </trkpt>
      <trkpt lat="45.899045029655099" lon="9.048467986285687">
        <ele>672</ele>
        <time>2010-06-13T07:37:30Z</time>
      </trkpt>
      <trkpt lat="45.899045029655099" lon="9.048480978235602">
        <ele>672</ele>
        <time>2010-06-13T07:37:31Z</time>
      </trkpt>
      <trkpt lat="45.899053998291492" lon="9.048493970185518">
        <ele>672</ele>
        <time>2010-06-13T07:37:32Z</time>
      </trkpt>
      <trkpt lat="45.899053998291492" lon="9.048506040126085">
        <ele>672</ele>
        <time>2010-06-13T07:37:33Z</time>
      </trkpt>
      <trkpt lat="45.899053998291492" lon="9.048519032076001">
        <ele>672</ele>
        <time>2010-06-13T07:37:34Z</time>
      </trkpt>
      <trkpt lat="45.899062966927886" lon="9.048532024025917">
        <ele>672</ele>
        <time>2010-06-13T07:37:35Z</time>
      </trkpt>
      <trkpt lat="45.899062966927886" lon="9.048545015975833">
        <ele>672</ele>
        <time>2010-06-13T07:37:36Z</time>
      </trkpt>
      <trkpt lat="45.899062966927886" lon="9.048558007925749">
        <ele>673</ele>
        <time>2010-06-13T07:37:37Z</time>
      </trkpt>
      <trkpt lat="45.899062966927886" lon="9.048570999875665">
        <ele>673</ele>
        <time>2010-06-13T07:37:38Z</time>
      </trkpt>
      <trkpt lat="45.899072019383311" lon="9.048583991825581">
        <ele>673</ele>
        <time>2010-06-13T07:37:39Z</time>
      </trkpt>
      <trkpt lat="45.899072019383311" lon="9.048596983775497">
        <ele>673</ele>
        <time>2010-06-13T07:37:40Z</time>
      </trkpt>
      <trkpt lat="45.899072019383311" lon="9.048609975725412">
        <ele>674</ele>
        <time>2010-06-13T07:37:41Z</time>
      </trkpt>
      <trkpt lat="45.899080988019705" lon="9.048621961846948">
        <ele>674</ele>
        <time>2010-06-13T07:37:42Z</time>
      </trkpt>
      <trkpt lat="45.899080988019705" lon="9.048635037615895">
        <ele>674</ele>
        <time>2010-06-13T07:37:43Z</time>
      </trkpt>
      <trkpt lat="45.89909004047513" lon="9.048635037615895">
        <ele>674</ele>
        <time>2010-06-13T07:37:45Z</time>
      </trkpt>
      <trkpt lat="45.89909004047513" lon="9.048648029565811">
        <ele>674</ele>
        <time>2010-06-13T07:37:47Z</time>
      </trkpt>
      <trkpt lat="45.899099009111524" lon="9.048661021515727">
        <ele>675</ele>
        <time>2010-06-13T07:37:48Z</time>
      </trkpt>
      <trkpt lat="45.899099009111524" lon="9.048674013465643">
        <ele>675</ele>
        <time>2010-06-13T07:37:49Z</time>
      </trkpt>
      <trkpt lat="45.899107977747917" lon="9.048687005415559">
        <ele>675</ele>
        <time>2010-06-13T07:37:50Z</time>
      </trkpt>
      <trkpt lat="45.899107977747917" lon="9.048712989315391">
        <ele>675</ele>
        <time>2010-06-13T07:37:51Z</time>
      </trkpt>
      <trkpt lat="45.899107977747917" lon="9.048725981265307">
        <ele>676</ele>
        <time>2010-06-13T07:37:52Z</time>
      </trkpt>
      <trkpt lat="45.899117030203342" lon="9.048738973215222">
        <ele>676</ele>
        <time>2010-06-13T07:37:53Z</time>
      </trkpt>
      <trkpt lat="45.899125998839736" lon="9.048764035105705">
        <ele>676</ele>
        <time>2010-06-13T07:37:54Z</time>
      </trkpt>
      <trkpt lat="45.899125998839736" lon="9.048777027055621">
        <ele>676</ele>
        <time>2010-06-13T07:37:55Z</time>
      </trkpt>
      <trkpt lat="45.899117030203342" lon="9.048790019005537">
        <ele>676</ele>
        <time>2010-06-13T07:37:56Z</time>
      </trkpt>
      <trkpt lat="45.899117030203342" lon="9.048803010955453">
        <ele>677</ele>
        <time>2010-06-13T07:37:57Z</time>
      </trkpt>
      <trkpt lat="45.899125998839736" lon="9.048816002905369">
        <ele>676</ele>
        <time>2010-06-13T07:37:58Z</time>
      </trkpt>
      <trkpt lat="45.899125998839736" lon="9.048828994855285">
        <ele>676</ele>
        <time>2010-06-13T07:37:59Z</time>
      </trkpt>
      <trkpt lat="45.899125998839736" lon="9.048841986805201">
        <ele>676</ele>
        <time>2010-06-13T07:38:00Z</time>
      </trkpt>
      <trkpt lat="45.899133961647749" lon="9.048841986805201">
        <ele>677</ele>
        <time>2010-06-13T07:38:01Z</time>
      </trkpt>
      <trkpt lat="45.899133961647749" lon="9.048853972926736">
        <ele>677</ele>
        <time>2010-06-13T07:38:02Z</time>
      </trkpt>
      <trkpt lat="45.899144019931555" lon="9.048867970705032">
        <ele>677</ele>
        <time>2010-06-13T07:38:03Z</time>
      </trkpt>
      <trkpt lat="45.899144019931555" lon="9.048880040645599">
        <ele>677</ele>
        <time>2010-06-13T07:38:04Z</time>
      </trkpt>
      <trkpt lat="45.899152988567948" lon="9.048880040645599">
        <ele>678</ele>
        <time>2010-06-13T07:38:05Z</time>
      </trkpt>
      <trkpt lat="45.899152988567948" lon="9.048893032595515">
        <ele>678</ele>
        <time>2010-06-13T07:38:06Z</time>
      </trkpt>
      <trkpt lat="45.899162041023374" lon="9.048906024545431">
        <ele>678</ele>
        <time>2010-06-13T07:38:07Z</time>
      </trkpt>
      <trkpt lat="45.899162041023374" lon="9.048919016495347">
        <ele>678</ele>
        <time>2010-06-13T07:38:08Z</time>
      </trkpt>
      <trkpt lat="45.899171009659767" lon="9.048919016495347">
        <ele>678</ele>
        <time>2010-06-13T07:38:09Z</time>
      </trkpt>
      <trkpt lat="45.899171009659767" lon="9.048932008445263">
        <ele>678</ele>
        <time>2010-06-13T07:38:10Z</time>
      </trkpt>
      <trkpt lat="45.89917897246778" lon="9.048945000395179">
        <ele>678</ele>
        <time>2010-06-13T07:38:11Z</time>
      </trkpt>
      <trkpt lat="45.899189030751586" lon="9.048945000395179">
        <ele>678</ele>
        <time>2010-06-13T07:38:12Z</time>
      </trkpt>
      <trkpt lat="45.89919799938798" lon="9.048970984295011">
        <ele>679</ele>
        <time>2010-06-13T07:38:14Z</time>
      </trkpt>
      <trkpt lat="45.89919799938798" lon="9.048983976244927">
        <ele>679</ele>
        <time>2010-06-13T07:38:15Z</time>
      </trkpt>
      <trkpt lat="45.899205962195992" lon="9.048995962366462">
        <ele>680</ele>
        <time>2010-06-13T07:38:16Z</time>
      </trkpt>
      <trkpt lat="45.899205962195992" lon="9.048995962366462">
        <ele>680</ele>
        <time>2010-06-13T07:38:17Z</time>
      </trkpt>
      <trkpt lat="45.899216020479798" lon="9.049009038135409">
        <ele>680</ele>
        <time>2010-06-13T07:38:18Z</time>
      </trkpt>
      <trkpt lat="45.899216020479798" lon="9.049022030085325">
        <ele>680</ele>
        <time>2010-06-13T07:38:19Z</time>
      </trkpt>
      <trkpt lat="45.899223983287811" lon="9.049035022035241">
        <ele>680</ele>
        <time>2010-06-13T07:38:20Z</time>
      </trkpt>
      <trkpt lat="45.899234041571617" lon="9.049048013985157">
        <ele>680</ele>
        <time>2010-06-13T07:38:21Z</time>
      </trkpt>
      <trkpt lat="45.899234041571617" lon="9.049061005935073">
        <ele>680</ele>
        <time>2010-06-13T07:38:22Z</time>
      </trkpt>
      <trkpt lat="45.899243010208011" lon="9.049061005935073">
        <ele>680</ele>
        <time>2010-06-13T07:38:23Z</time>
      </trkpt>
      <trkpt lat="45.899250973016024" lon="9.049073997884989">
        <ele>680</ele>
        <time>2010-06-13T07:38:24Z</time>
      </trkpt>
      <trkpt lat="45.899250973016024" lon="9.049086989834905">
        <ele>680</ele>
        <time>2010-06-13T07:38:25Z</time>
      </trkpt>
      <trkpt lat="45.899261031299829" lon="9.049099981784821">
        <ele>680</ele>
        <time>2010-06-13T07:38:26Z</time>
      </trkpt>
      <trkpt lat="45.899268994107842" lon="9.049111967906356">
        <ele>681</ele>
        <time>2010-06-13T07:38:27Z</time>
      </trkpt>
      <trkpt lat="45.899268994107842" lon="9.049124959856272">
        <ele>681</ele>
        <time>2010-06-13T07:38:28Z</time>
      </trkpt>
      <trkpt lat="45.899277962744236" lon="9.049138035625219">
        <ele>681</ele>
        <time>2010-06-13T07:38:29Z</time>
      </trkpt>
      <trkpt lat="45.899288021028042" lon="9.049151027575135">
        <ele>681</ele>
        <time>2010-06-13T07:38:30Z</time>
      </trkpt>
      <trkpt lat="45.899288021028042" lon="9.049164019525051">
        <ele>681</ele>
        <time>2010-06-13T07:38:31Z</time>
      </trkpt>
      <trkpt lat="45.899295983836055" lon="9.049164019525051">
        <ele>681</ele>
        <time>2010-06-13T07:38:32Z</time>
      </trkpt>
      <trkpt lat="45.899305958300829" lon="9.049177011474967">
        <ele>681</ele>
        <time>2010-06-13T07:38:33Z</time>
      </trkpt>
      <trkpt lat="45.899314004927874" lon="9.049190003424883">
        <ele>681</ele>
        <time>2010-06-13T07:38:34Z</time>
      </trkpt>
      <trkpt lat="45.899314004927874" lon="9.049190003424883">
        <ele>682</ele>
        <time>2010-06-13T07:38:35Z</time>
      </trkpt>
      <trkpt lat="45.899322973564267" lon="9.049202995374799">
        <ele>682</ele>
        <time>2010-06-13T07:38:36Z</time>
      </trkpt>
      <trkpt lat="45.899333031848073" lon="9.049215987324715">
        <ele>682</ele>
        <time>2010-06-13T07:38:37Z</time>
      </trkpt>
      <trkpt lat="45.899333031848073" lon="9.049228979274631">
        <ele>682</ele>
        <time>2010-06-13T07:38:38Z</time>
      </trkpt>
      <trkpt lat="45.899340994656086" lon="9.049228979274631">
        <ele>682</ele>
        <time>2010-06-13T07:38:39Z</time>
      </trkpt>
      <trkpt lat="45.89935096912086" lon="9.049240965396166">
        <ele>683</ele>
        <time>2010-06-13T07:38:40Z</time>
      </trkpt>
      <trkpt lat="45.89935096912086" lon="9.049240965396166">
        <ele>683</ele>
        <time>2010-06-13T07:38:41Z</time>
      </trkpt>
      <trkpt lat="45.899359015747905" lon="9.049254041165113">
        <ele>683</ele>
        <time>2010-06-13T07:38:42Z</time>
      </trkpt>
      <trkpt lat="45.899377958849072" lon="9.049267033115029">
        <ele>683</ele>
        <time>2010-06-13T07:38:43Z</time>
      </trkpt>
      <trkpt lat="45.899386005476117" lon="9.049267033115029">
        <ele>683</ele>
        <time>2010-06-13T07:38:44Z</time>
      </trkpt>
      <trkpt lat="45.899394974112511" lon="9.049267033115029">
        <ele>683</ele>
        <time>2010-06-13T07:38:45Z</time>
      </trkpt>
      <trkpt lat="45.899394974112511" lon="9.049267033115029">
        <ele>683</ele>
        <time>2010-06-13T07:38:46Z</time>
      </trkpt>
      <trkpt lat="45.899404026567936" lon="9.049280025064945">
        <ele>683</ele>
        <time>2010-06-13T07:38:47Z</time>
      </trkpt>
      <trkpt lat="45.899422969669104" lon="9.049280025064945">
        <ele>683</ele>
        <time>2010-06-13T07:38:48Z</time>
      </trkpt>
      <trkpt lat="45.899422969669104" lon="9.049293017014861">
        <ele>684</ele>
        <time>2010-06-13T07:38:49Z</time>
      </trkpt>
      <trkpt lat="45.899431016296148" lon="9.049306008964777">
        <ele>684</ele>
        <time>2010-06-13T07:38:50Z</time>
      </trkpt>
      <trkpt lat="45.899439984932542" lon="9.049319000914693">
        <ele>684</ele>
        <time>2010-06-13T07:38:51Z</time>
      </trkpt>
      <trkpt lat="45.899449037387967" lon="9.049319000914693">
        <ele>684</ele>
        <time>2010-06-13T07:38:52Z</time>
      </trkpt>
      <trkpt lat="45.899458006024361" lon="9.049331992864609">
        <ele>684</ele>
        <time>2010-06-13T07:38:53Z</time>
      </trkpt>
      <trkpt lat="45.899467980489135" lon="9.049344984814525">
        <ele>684</ele>
        <time>2010-06-13T07:38:54Z</time>
      </trkpt>
      <trkpt lat="45.899476027116179" lon="9.04935697093606">
        <ele>684</ele>
        <time>2010-06-13T07:38:55Z</time>
      </trkpt>
      <trkpt lat="45.899484995752573" lon="9.04935697093606">
        <ele>685</ele>
        <time>2010-06-13T07:38:56Z</time>
      </trkpt>
      <trkpt lat="45.899493964388967" lon="9.049370968714356">
        <ele>685</ele>
        <time>2010-06-13T07:38:57Z</time>
      </trkpt>
      <trkpt lat="45.899503016844392" lon="9.049370968714356">
        <ele>685</ele>
        <time>2010-06-13T07:38:58Z</time>
      </trkpt>
      <trkpt lat="45.899521037936211" lon="9.049383038654923">
        <ele>684</ele>
        <time>2010-06-13T07:38:59Z</time>
      </trkpt>
      <trkpt lat="45.899530006572604" lon="9.049383038654923">
        <ele>685</ele>
        <time>2010-06-13T07:39:00Z</time>
      </trkpt>
      <trkpt lat="45.899538975208998" lon="9.049383038654923">
        <ele>685</ele>
        <time>2010-06-13T07:39:01Z</time>
      </trkpt>
      <trkpt lat="45.899558002129197" lon="9.049396030604839">
        <ele>685</ele>
        <time>2010-06-13T07:39:02Z</time>
      </trkpt>
      <trkpt lat="45.899558002129197" lon="9.049396030604839">
        <ele>685</ele>
        <time>2010-06-13T07:39:03Z</time>
      </trkpt>
      <trkpt lat="45.899575017392635" lon="9.049409022554755">
        <ele>685</ele>
        <time>2010-06-13T07:39:04Z</time>
      </trkpt>
      <trkpt lat="45.899593038484454" lon="9.049422014504671">
        <ele>685</ele>
        <time>2010-06-13T07:39:06Z</time>
      </trkpt>
      <trkpt lat="45.899610975757241" lon="9.049435006454587">
        <ele>686</ele>
        <time>2010-06-13T07:39:07Z</time>
      </trkpt>
      <trkpt lat="45.899620028212667" lon="9.049435006454587">
        <ele>686</ele>
        <time>2010-06-13T07:39:08Z</time>
      </trkpt>
      <trkpt lat="45.89962899684906" lon="9.049447998404503">
        <ele>686</ele>
        <time>2010-06-13T07:39:09Z</time>
      </trkpt>
      <trkpt lat="45.89962899684906" lon="9.049447998404503">
        <ele>686</ele>
        <time>2010-06-13T07:39:10Z</time>
      </trkpt>
      <trkpt lat="45.899637965485454" lon="9.049460990354419">
        <ele>686</ele>
        <time>2010-06-13T07:39:11Z</time>
      </trkpt>
      <trkpt lat="45.899647017940879" lon="9.049473982304335">
        <ele>686</ele>
        <time>2010-06-13T07:39:12Z</time>
      </trkpt>
      <trkpt lat="45.899647017940879" lon="9.049473982304335">
        <ele>686</ele>
        <time>2010-06-13T07:39:13Z</time>
      </trkpt>
      <trkpt lat="45.899655986577272" lon="9.049486974254251">
        <ele>687</ele>
        <time>2010-06-13T07:39:14Z</time>
      </trkpt>
      <trkpt lat="45.899665039032698" lon="9.049486974254251">
        <ele>687</ele>
        <time>2010-06-13T07:39:15Z</time>
      </trkpt>
      <trkpt lat="45.899674007669091" lon="9.049499966204166">
        <ele>687</ele>
        <time>2010-06-13T07:39:16Z</time>
      </trkpt>
      <trkpt lat="45.899674007669091" lon="9.049512036144733">
        <ele>687</ele>
        <time>2010-06-13T07:39:17Z</time>
      </trkpt>
      <trkpt lat="45.899674007669091" lon="9.049512036144733">
        <ele>687</ele>
        <time>2010-06-13T07:39:18Z</time>
      </trkpt>
      <trkpt lat="45.899682976305485" lon="9.049525028094649">
        <ele>687</ele>
        <time>2010-06-13T07:39:19Z</time>
      </trkpt>
      <trkpt lat="45.89969202876091" lon="9.049538020044565">
        <ele>688</ele>
        <time>2010-06-13T07:39:20Z</time>
      </trkpt>
      <trkpt lat="45.899700997397304" lon="9.049538020044565">
        <ele>688</ele>
        <time>2010-06-13T07:39:21Z</time>
      </trkpt>
      <trkpt lat="45.899700997397304" lon="9.049551011994481">
        <ele>689</ele>
        <time>2010-06-13T07:39:22Z</time>
      </trkpt>
      <trkpt lat="45.899709966033697" lon="9.049564003944397">
        <ele>689</ele>
        <time>2010-06-13T07:39:23Z</time>
      </trkpt>
      <trkpt lat="45.899719018489122" lon="9.049576995894313">
        <ele>689</ele>
        <time>2010-06-13T07:39:24Z</time>
      </trkpt>
      <trkpt lat="45.899727987125516" lon="9.049589987844229">
        <ele>689</ele>
        <time>2010-06-13T07:39:25Z</time>
      </trkpt>
      <trkpt lat="45.899727987125516" lon="9.049602979794145">
        <ele>689</ele>
        <time>2010-06-13T07:39:26Z</time>
      </trkpt>
      <trkpt lat="45.899737039580941" lon="9.049615971744061">
        <ele>689</ele>
        <time>2010-06-13T07:39:27Z</time>
      </trkpt>
      <trkpt lat="45.899737039580941" lon="9.049628963693976">
        <ele>689</ele>
        <time>2010-06-13T07:39:28Z</time>
      </trkpt>
      <trkpt lat="45.899737039580941" lon="9.049628963693976">
        <ele>689</ele>
        <time>2010-06-13T07:39:29Z</time>
      </trkpt>
      <trkpt lat="45.899754976853728" lon="9.049654025584459">
        <ele>689</ele>
        <time>2010-06-13T07:39:31Z</time>
      </trkpt>
      <trkpt lat="45.899764029309154" lon="9.049667017534375">
        <ele>689</ele>
        <time>2010-06-13T07:39:32Z</time>
      </trkpt>
      <trkpt lat="45.899772997945547" lon="9.049680009484291">
        <ele>689</ele>
        <time>2010-06-13T07:39:33Z</time>
      </trkpt>
      <trkpt lat="45.899781966581941" lon="9.049693001434207">
        <ele>689</ele>
        <time>2010-06-13T07:39:34Z</time>
      </trkpt>
      <trkpt lat="45.899781966581941" lon="9.049705993384123">
        <ele>690</ele>
        <time>2010-06-13T07:39:35Z</time>
      </trkpt>
      <trkpt lat="45.899791019037366" lon="9.049718985334039">
        <ele>690</ele>
        <time>2010-06-13T07:39:36Z</time>
      </trkpt>
      <trkpt lat="45.899799987673759" lon="9.049731977283955">
        <ele>690</ele>
        <time>2010-06-13T07:39:37Z</time>
      </trkpt>
      <trkpt lat="45.899809040129185" lon="9.049744969233871">
        <ele>690</ele>
        <time>2010-06-13T07:39:38Z</time>
      </trkpt>
      <trkpt lat="45.899826977401972" lon="9.049744969233871">
        <ele>690</ele>
        <time>2010-06-13T07:39:39Z</time>
      </trkpt>
      <trkpt lat="45.899836029857397" lon="9.049757961183786">
        <ele>690</ele>
        <time>2010-06-13T07:39:40Z</time>
      </trkpt>
      <trkpt lat="45.899844998493791" lon="9.049771036952734">
        <ele>690</ele>
        <time>2010-06-13T07:39:41Z</time>
      </trkpt>
      <trkpt lat="45.899853967130184" lon="9.049771036952734">
        <ele>691</ele>
        <time>2010-06-13T07:39:42Z</time>
      </trkpt>
      <trkpt lat="45.899853967130184" lon="9.049783023074269">
        <ele>691</ele>
        <time>2010-06-13T07:39:43Z</time>
      </trkpt>
      <trkpt lat="45.899871988222003" lon="9.049809006974101">
        <ele>691</ele>
        <time>2010-06-13T07:39:45Z</time>
      </trkpt>
      <trkpt lat="45.899881040677428" lon="9.049809006974101">
        <ele>691</ele>
        <time>2010-06-13T07:39:46Z</time>
      </trkpt>
      <trkpt lat="45.899890009313822" lon="9.049821998924017">
        <ele>691</ele>
        <time>2010-06-13T07:39:47Z</time>
      </trkpt>
      <trkpt lat="45.899908030405641" lon="9.049821998924017">
        <ele>691</ele>
        <time>2010-06-13T07:39:48Z</time>
      </trkpt>
      <trkpt lat="45.899916999042034" lon="9.049834990873933">
        <ele>691</ele>
        <time>2010-06-13T07:39:49Z</time>
      </trkpt>
      <trkpt lat="45.899916999042034" lon="9.049834990873933">
        <ele>691</ele>
        <time>2010-06-13T07:39:50Z</time>
      </trkpt>
      <trkpt lat="45.899935020133853" lon="9.049834990873933">
        <ele>692</ele>
        <time>2010-06-13T07:39:51Z</time>
      </trkpt>
      <trkpt lat="45.899943988770247" lon="9.049847982823849">
        <ele>692</ele>
        <time>2010-06-13T07:39:52Z</time>
      </trkpt>
      <trkpt lat="45.899943988770247" lon="9.049847982823849">
        <ele>692</ele>
        <time>2010-06-13T07:39:53Z</time>
      </trkpt>
      <trkpt lat="45.899962009862065" lon="9.049860974773765">
        <ele>692</ele>
        <time>2010-06-13T07:39:54Z</time>
      </trkpt>
      <trkpt lat="45.899970978498459" lon="9.049860974773765">
        <ele>693</ele>
        <time>2010-06-13T07:39:55Z</time>
      </trkpt>
      <trkpt lat="45.899980030953884" lon="9.049860974773765">
        <ele>692</ele>
        <time>2010-06-13T07:39:56Z</time>
      </trkpt>
      <trkpt lat="45.899988999590278" lon="9.049873966723681">
        <ele>693</ele>
        <time>2010-06-13T07:39:57Z</time>
      </trkpt>
      <trkpt lat="45.899997968226671" lon="9.049873966723681">
        <ele>693</ele>
        <time>2010-06-13T07:39:58Z</time>
      </trkpt>
      <trkpt lat="45.90001598931849" lon="9.049886958673596">
        <ele>693</ele>
        <time>2010-06-13T07:39:59Z</time>
      </trkpt>
      <trkpt lat="45.900025041773915" lon="9.049886958673596">
        <ele>693</ele>
        <time>2010-06-13T07:40:00Z</time>
      </trkpt>
      <trkpt lat="45.900034010410309" lon="9.049899028614163">
        <ele>693</ele>
        <time>2010-06-13T07:40:01Z</time>
      </trkpt>
      <trkpt lat="45.900042979046702" lon="9.049899028614163">
        <ele>694</ele>
        <time>2010-06-13T07:40:02Z</time>
      </trkpt>
      <trkpt lat="45.900052031502128" lon="9.049899028614163">
        <ele>694</ele>
        <time>2010-06-13T07:40:03Z</time>
      </trkpt>
      <trkpt lat="45.900052031502128" lon="9.049912020564079">
        <ele>694</ele>
        <time>2010-06-13T07:40:04Z</time>
      </trkpt>
      <trkpt lat="45.900061000138521" lon="9.049912020564079">
        <ele>694</ele>
        <time>2010-06-13T07:40:05Z</time>
      </trkpt>
      <trkpt lat="45.90007902123034" lon="9.049912020564079">
        <ele>694</ele>
        <time>2010-06-13T07:40:06Z</time>
      </trkpt>
      <trkpt lat="45.90007902123034" lon="9.049912020564079">
        <ele>695</ele>
        <time>2010-06-13T07:40:07Z</time>
      </trkpt>
      <trkpt lat="45.900096958503127" lon="9.049925012513995">
        <ele>695</ele>
        <time>2010-06-13T07:40:08Z</time>
      </trkpt>
      <trkpt lat="45.900106010958552" lon="9.049925012513995">
        <ele>695</ele>
        <time>2010-06-13T07:40:09Z</time>
      </trkpt>
      <trkpt lat="45.900114979594946" lon="9.049938004463911">
        <ele>695</ele>
        <time>2010-06-13T07:40:10Z</time>
      </trkpt>
      <trkpt lat="45.900124032050371" lon="9.049938004463911">
        <ele>695</ele>
        <time>2010-06-13T07:40:11Z</time>
      </trkpt>
      <trkpt lat="45.900124032050371" lon="9.049950996413827">
        <ele>695</ele>
        <time>2010-06-13T07:40:12Z</time>
      </trkpt>
      <trkpt lat="45.900141969323158" lon="9.049950996413827">
        <ele>695</ele>
        <time>2010-06-13T07:40:13Z</time>
      </trkpt>
      <trkpt lat="45.900151021778584" lon="9.049950996413827">
        <ele>696</ele>
        <time>2010-06-13T07:40:14Z</time>
      </trkpt>
      <trkpt lat="45.900159990414977" lon="9.049963988363743">
        <ele>696</ele>
        <time>2010-06-13T07:40:15Z</time>
      </trkpt>
      <trkpt lat="45.900168959051371" lon="9.049963988363743">
        <ele>696</ele>
        <time>2010-06-13T07:40:16Z</time>
      </trkpt>
      <trkpt lat="45.900178011506796" lon="9.049976980313659">
        <ele>696</ele>
        <time>2010-06-13T07:40:17Z</time>
      </trkpt>
      <trkpt lat="45.900186980143189" lon="9.049976980313659">
        <ele>696</ele>
        <time>2010-06-13T07:40:18Z</time>
      </trkpt>
      <trkpt lat="45.900196032598615" lon="9.049976980313659">
        <ele>696</ele>
        <time>2010-06-13T07:40:19Z</time>
      </trkpt>
      <trkpt lat="45.900205001235008" lon="9.049976980313659">
        <ele>696</ele>
        <time>2010-06-13T07:40:20Z</time>
      </trkpt>
      <trkpt lat="45.900213969871402" lon="9.049989972263575">
        <ele>696</ele>
        <time>2010-06-13T07:40:21Z</time>
      </trkpt>
      <trkpt lat="45.900223022326827" lon="9.049989972263575">
        <ele>697</ele>
        <time>2010-06-13T07:40:22Z</time>
      </trkpt>
      <trkpt lat="45.900231990963221" lon="9.050002964213491">
        <ele>696</ele>
        <time>2010-06-13T07:40:23Z</time>
      </trkpt>
      <trkpt lat="45.900240959599614" lon="9.050002964213491">
        <ele>697</ele>
        <time>2010-06-13T07:40:24Z</time>
      </trkpt>
      <trkpt lat="45.900240959599614" lon="9.050016039982438">
        <ele>697</ele>
        <time>2010-06-13T07:40:25Z</time>
      </trkpt>
      <trkpt lat="45.900258980691433" lon="9.050016039982438">
        <ele>697</ele>
        <time>2010-06-13T07:40:26Z</time>
      </trkpt>
      <trkpt lat="45.900268033146858" lon="9.050016039982438">
        <ele>697</ele>
        <time>2010-06-13T07:40:27Z</time>
      </trkpt>
      <trkpt lat="45.900277001783252" lon="9.050029031932354">
        <ele>697</ele>
        <time>2010-06-13T07:40:28Z</time>
      </trkpt>
      <trkpt lat="45.900277001783252" lon="9.050029031932354">
        <ele>697</ele>
        <time>2010-06-13T07:40:29Z</time>
      </trkpt>
      <trkpt lat="45.900285970419645" lon="9.05004202388227">
        <ele>697</ele>
        <time>2010-06-13T07:40:30Z</time>
      </trkpt>
      <trkpt lat="45.900295022875071" lon="9.050054010003805">
        <ele>697</ele>
        <time>2010-06-13T07:40:31Z</time>
      </trkpt>
      <trkpt lat="45.900303991511464" lon="9.050054010003805">
        <ele>697</ele>
        <time>2010-06-13T07:40:32Z</time>
      </trkpt>
      <trkpt lat="45.900312960147858" lon="9.050054010003805">
        <ele>698</ele>
        <time>2010-06-13T07:40:33Z</time>
      </trkpt>
      <trkpt lat="45.900330981239676" lon="9.050067001953721">
        <ele>698</ele>
        <time>2010-06-13T07:40:34Z</time>
      </trkpt>
      <trkpt lat="45.900340033695102" lon="9.050067001953721">
        <ele>698</ele>
        <time>2010-06-13T07:40:35Z</time>
      </trkpt>
      <trkpt lat="45.900349002331495" lon="9.050067001953721">
        <ele>698</ele>
        <time>2010-06-13T07:40:36Z</time>
      </trkpt>
      <trkpt lat="45.900367023423314" lon="9.050079993903637">
        <ele>698</ele>
        <time>2010-06-13T07:40:37Z</time>
      </trkpt>
      <trkpt lat="45.900375992059708" lon="9.050079993903637">
        <ele>699</ele>
        <time>2010-06-13T07:40:38Z</time>
      </trkpt>
      <trkpt lat="45.900384960696101" lon="9.050092985853553">
        <ele>699</ele>
        <time>2010-06-13T07:40:39Z</time>
      </trkpt>
      <trkpt lat="45.900394013151526" lon="9.050092985853553">
        <ele>699</ele>
        <time>2010-06-13T07:40:40Z</time>
      </trkpt>
      <trkpt lat="45.90040298178792" lon="9.050105977803469">
        <ele>700</ele>
        <time>2010-06-13T07:40:41Z</time>
      </trkpt>
      <trkpt lat="45.900412034243345" lon="9.050105977803469">
        <ele>700</ele>
        <time>2010-06-13T07:40:42Z</time>
      </trkpt>
      <trkpt lat="45.900429971516132" lon="9.050118969753385">
        <ele>700</ele>
        <time>2010-06-13T07:40:43Z</time>
      </trkpt>
      <trkpt lat="45.900439023971558" lon="9.050118969753385">
        <ele>701</ele>
        <time>2010-06-13T07:40:44Z</time>
      </trkpt>
      <trkpt lat="45.900447992607951" lon="9.050131961703301">
        <ele>700</ele>
        <time>2010-06-13T07:40:45Z</time>
      </trkpt>
      <trkpt lat="45.900456961244345" lon="9.050131961703301">
        <ele>700</ele>
        <time>2010-06-13T07:40:46Z</time>
      </trkpt>
      <trkpt lat="45.90046601369977" lon="9.050131961703301">
        <ele>700</ele>
        <time>2010-06-13T07:40:47Z</time>
      </trkpt>
      <trkpt lat="45.900484034791589" lon="9.050145037472248">
        <ele>700</ele>
        <time>2010-06-13T07:40:48Z</time>
      </trkpt>
      <trkpt lat="45.900484034791589" lon="9.050145037472248">
        <ele>700</ele>
        <time>2010-06-13T07:40:49Z</time>
      </trkpt>
      <trkpt lat="45.900493003427982" lon="9.050158029422164">
        <ele>700</ele>
        <time>2010-06-13T07:40:50Z</time>
      </trkpt>
      <trkpt lat="45.900501972064376" lon="9.05017102137208">
        <ele>700</ele>
        <time>2010-06-13T07:40:51Z</time>
      </trkpt>
      <trkpt lat="45.900501972064376" lon="9.05017102137208">
        <ele>700</ele>
        <time>2010-06-13T07:40:52Z</time>
      </trkpt>
      <trkpt lat="45.900511024519801" lon="9.050184013321996">
        <ele>700</ele>
        <time>2010-06-13T07:40:53Z</time>
      </trkpt>
      <trkpt lat="45.900528961792588" lon="9.050184013321996">
        <ele>701</ele>
        <time>2010-06-13T07:40:54Z</time>
      </trkpt>
      <trkpt lat="45.900538014248013" lon="9.050195999443531">
        <ele>702</ele>
        <time>2010-06-13T07:40:55Z</time>
      </trkpt>
      <trkpt lat="45.900546982884407" lon="9.050208991393447">
        <ele>701</ele>
        <time>2010-06-13T07:40:56Z</time>
      </trkpt>
      <trkpt lat="45.900556035339832" lon="9.050221983343363">
        <ele>701</ele>
        <time>2010-06-13T07:40:57Z</time>
      </trkpt>
      <trkpt lat="45.900565003976226" lon="9.050221983343363">
        <ele>701</ele>
        <time>2010-06-13T07:40:58Z</time>
      </trkpt>
      <trkpt lat="45.900573972612619" lon="9.050234975293279">
        <ele>701</ele>
        <time>2010-06-13T07:40:59Z</time>
      </trkpt>
      <trkpt lat="45.900583025068045" lon="9.050234975293279">
        <ele>702</ele>
        <time>2010-06-13T07:41:00Z</time>
      </trkpt>
      <trkpt lat="45.900591993704438" lon="9.050247967243195">
        <ele>702</ele>
        <time>2010-06-13T07:41:01Z</time>
      </trkpt>
      <trkpt lat="45.900618983432651" lon="9.050247967243195">
        <ele>701</ele>
        <time>2010-06-13T07:41:03Z</time>
      </trkpt>
      <trkpt lat="45.900628035888076" lon="9.050260959193111">
        <ele>701</ele>
        <time>2010-06-13T07:41:04Z</time>
      </trkpt>
      <trkpt lat="45.900645973160863" lon="9.050274034962058">
        <ele>702</ele>
        <time>2010-06-13T07:41:05Z</time>
      </trkpt>
      <trkpt lat="45.900655025616288" lon="9.050274034962058">
        <ele>702</ele>
        <time>2010-06-13T07:41:06Z</time>
      </trkpt>
      <trkpt lat="45.900663994252682" lon="9.050287026911974">
        <ele>702</ele>
        <time>2010-06-13T07:41:07Z</time>
      </trkpt>
      <trkpt lat="45.900672962889075" lon="9.050287026911974">
        <ele>703</ele>
        <time>2010-06-13T07:41:08Z</time>
      </trkpt>
      <trkpt lat="45.900682015344501" lon="9.05030001886189">
        <ele>703</ele>
        <time>2010-06-13T07:41:09Z</time>
      </trkpt>
      <trkpt lat="45.900690983980894" lon="9.05030001886189">
        <ele>703</ele>
        <time>2010-06-13T07:41:10Z</time>
      </trkpt>
      <trkpt lat="45.900700036436319" lon="9.05030001886189">
        <ele>702</ele>
        <time>2010-06-13T07:41:11Z</time>
      </trkpt>
      <trkpt lat="45.900709005072713" lon="9.05030001886189">
        <ele>702</ele>
        <time>2010-06-13T07:41:12Z</time>
      </trkpt>
      <trkpt lat="45.900717973709106" lon="9.050313010811806">
        <ele>703</ele>
        <time>2010-06-13T07:41:13Z</time>
      </trkpt>
      <trkpt lat="45.900727026164532" lon="9.050313010811806">
        <ele>703</ele>
        <time>2010-06-13T07:41:14Z</time>
      </trkpt>
      <trkpt lat="45.900735994800925" lon="9.050313010811806">
        <ele>703</ele>
        <time>2010-06-13T07:41:15Z</time>
      </trkpt>
      <trkpt lat="45.900744963437319" lon="9.050326002761722">
        <ele>703</ele>
        <time>2010-06-13T07:41:16Z</time>
      </trkpt>
      <trkpt lat="45.900772036984563" lon="9.050326002761722">
        <ele>703</ele>
        <time>2010-06-13T07:41:18Z</time>
      </trkpt>
      <trkpt lat="45.900799026712775" lon="9.050326002761722">
        <ele>704</ele>
        <time>2010-06-13T07:41:20Z</time>
      </trkpt>
      <trkpt lat="45.900816963985562" lon="9.050326002761722">
        <ele>704</ele>
        <time>2010-06-13T07:41:21Z</time>
      </trkpt>
      <trkpt lat="45.900816963985562" lon="9.050338994711638">
        <ele>704</ele>
        <time>2010-06-13T07:41:22Z</time>
      </trkpt>
      <trkpt lat="45.900834985077381" lon="9.050338994711638">
        <ele>704</ele>
        <time>2010-06-13T07:41:23Z</time>
      </trkpt>
      <trkpt lat="45.900844037532806" lon="9.050338994711638">
        <ele>704</ele>
        <time>2010-06-13T07:41:24Z</time>
      </trkpt>
      <trkpt lat="45.9008530061692" lon="9.050338994711638">
        <ele>704</ele>
        <time>2010-06-13T07:41:25Z</time>
      </trkpt>
      <trkpt lat="45.900861974805593" lon="9.050338994711638">
        <ele>704</ele>
        <time>2010-06-13T07:41:26Z</time>
      </trkpt>
      <trkpt lat="45.900888964533806" lon="9.050338994711638">
        <ele>705</ele>
        <time>2010-06-13T07:41:28Z</time>
      </trkpt>
      <trkpt lat="45.900906985625625" lon="9.050338994711638">
        <ele>705</ele>
        <time>2010-06-13T07:41:30Z</time>
      </trkpt>
      <trkpt lat="45.90091603808105" lon="9.050350980833173">
        <ele>705</ele>
        <time>2010-06-13T07:41:31Z</time>
      </trkpt>
      <trkpt lat="45.900933975353837" lon="9.050351986661553">
        <ele>705</ele>
        <time>2010-06-13T07:41:32Z</time>
      </trkpt>
      <trkpt lat="45.900943027809262" lon="9.050351986661553">
        <ele>705</ele>
        <time>2010-06-13T07:41:33Z</time>
      </trkpt>
      <trkpt lat="45.900951996445656" lon="9.050363972783089">
        <ele>706</ele>
        <time>2010-06-13T07:41:34Z</time>
      </trkpt>
      <trkpt lat="45.900960965082049" lon="9.050363972783089">
        <ele>706</ele>
        <time>2010-06-13T07:41:35Z</time>
      </trkpt>
      <trkpt lat="45.900997007265687" lon="9.050363972783089">
        <ele>707</ele>
        <time>2010-06-13T07:41:38Z</time>
      </trkpt>
      <trkpt lat="45.901005975902081" lon="9.050363972783089">
        <ele>707</ele>
        <time>2010-06-13T07:41:39Z</time>
      </trkpt>
      <trkpt lat="45.901032965630293" lon="9.050376964733005">
        <ele>708</ele>
        <time>2010-06-13T07:41:42Z</time>
      </trkpt>
      <trkpt lat="45.901042018085718" lon="9.050376964733005">
        <ele>708</ele>
        <time>2010-06-13T07:41:43Z</time>
      </trkpt>
      <trkpt lat="45.901060039177537" lon="9.050376964733005">
        <ele>709</ele>
        <time>2010-06-13T07:41:45Z</time>
      </trkpt>
      <trkpt lat="45.901069007813931" lon="9.050376964733005">
        <ele>709</ele>
        <time>2010-06-13T07:41:46Z</time>
      </trkpt>
      <trkpt lat="45.901087028905749" lon="9.050376964733005">
        <ele>709</ele>
        <time>2010-06-13T07:41:48Z</time>
      </trkpt>
      <trkpt lat="45.901095997542143" lon="9.050390040501952">
        <ele>708</ele>
        <time>2010-06-13T07:41:49Z</time>
      </trkpt>
      <trkpt lat="45.901114018633962" lon="9.050390040501952">
        <ele>709</ele>
        <time>2010-06-13T07:41:50Z</time>
      </trkpt>
      <trkpt lat="45.901114018633962" lon="9.050390040501952">
        <ele>709</ele>
        <time>2010-06-13T07:41:51Z</time>
      </trkpt>
      <trkpt lat="45.901122987270355" lon="9.050403032451868">
        <ele>709</ele>
        <time>2010-06-13T07:41:52Z</time>
      </trkpt>
      <trkpt lat="45.90113203972578" lon="9.050403032451868">
        <ele>709</ele>
        <time>2010-06-13T07:41:53Z</time>
      </trkpt>
      <trkpt lat="45.901141008362174" lon="9.050403032451868">
        <ele>710</ele>
        <time>2010-06-13T07:41:54Z</time>
      </trkpt>
      <trkpt lat="45.901149976998568" lon="9.050416024401784">
        <ele>710</ele>
        <time>2010-06-13T07:41:55Z</time>
      </trkpt>
      <trkpt lat="45.901159029453993" lon="9.050416024401784">
        <ele>710</ele>
        <time>2010-06-13T07:41:56Z</time>
      </trkpt>
      <trkpt lat="45.901167998090386" lon="9.050416024401784">
        <ele>710</ele>
        <time>2010-06-13T07:41:57Z</time>
      </trkpt>
      <trkpt lat="45.901186019182205" lon="9.0504290163517">
        <ele>710</ele>
        <time>2010-06-13T07:41:58Z</time>
      </trkpt>
      <trkpt lat="45.901194987818599" lon="9.0504290163517">
        <ele>710</ele>
        <time>2010-06-13T07:41:59Z</time>
      </trkpt>
      <trkpt lat="45.901204040274024" lon="9.050442008301616">
        <ele>711</ele>
        <time>2010-06-13T07:42:00Z</time>
      </trkpt>
      <trkpt lat="45.901221977546811" lon="9.050442008301616">
        <ele>712</ele>
        <time>2010-06-13T07:42:02Z</time>
      </trkpt>
      <trkpt lat="45.901231030002236" lon="9.050455000251532">
        <ele>712</ele>
        <time>2010-06-13T07:42:03Z</time>
      </trkpt>
      <trkpt lat="45.90123999863863" lon="9.050467992201448">
        <ele>712</ele>
        <time>2010-06-13T07:42:04Z</time>
      </trkpt>
      <trkpt lat="45.901248967275023" lon="9.050467992201448">
        <ele>712</ele>
        <time>2010-06-13T07:42:05Z</time>
      </trkpt>
      <trkpt lat="45.901258019730449" lon="9.050480984151363">
        <ele>712</ele>
        <time>2010-06-13T07:42:06Z</time>
      </trkpt>
      <trkpt lat="45.901266988366842" lon="9.050493976101279">
        <ele>712</ele>
        <time>2010-06-13T07:42:07Z</time>
      </trkpt>
      <trkpt lat="45.901266988366842" lon="9.050506968051195">
        <ele>713</ele>
        <time>2010-06-13T07:42:08Z</time>
      </trkpt>
      <trkpt lat="45.901276040822268" lon="9.050519037991762">
        <ele>713</ele>
        <time>2010-06-13T07:42:09Z</time>
      </trkpt>
      <trkpt lat="45.901276040822268" lon="9.050545021891594">
        <ele>713</ele>
        <time>2010-06-13T07:42:10Z</time>
      </trkpt>
      <trkpt lat="45.901285009458661" lon="9.050571005791426">
        <ele>712</ele>
        <time>2010-06-13T07:42:11Z</time>
      </trkpt>
      <trkpt lat="45.901293978095055" lon="9.050583997741342">
        <ele>712</ele>
        <time>2010-06-13T07:42:12Z</time>
      </trkpt>
      <trkpt lat="45.90130303055048" lon="9.050596989691258">
        <ele>713</ele>
        <time>2010-06-13T07:42:13Z</time>
      </trkpt>
      <trkpt lat="45.901320967823267" lon="9.050609981641173">
        <ele>713</ele>
        <time>2010-06-13T07:42:14Z</time>
      </trkpt>
      <trkpt lat="45.901330020278692" lon="9.050621967762709">
        <ele>713</ele>
        <time>2010-06-13T07:42:15Z</time>
      </trkpt>
      <trkpt lat="45.901338988915086" lon="9.050648035481572">
        <ele>713</ele>
        <time>2010-06-13T07:42:16Z</time>
      </trkpt>
      <trkpt lat="45.901348041370511" lon="9.050661027431488">
        <ele>713</ele>
        <time>2010-06-13T07:42:17Z</time>
      </trkpt>
      <trkpt lat="45.901357010006905" lon="9.050674019381404">
        <ele>713</ele>
        <time>2010-06-13T07:42:18Z</time>
      </trkpt>
      <trkpt lat="45.901365978643298" lon="9.05068701133132">
        <ele>713</ele>
        <time>2010-06-13T07:42:19Z</time>
      </trkpt>
      <trkpt lat="45.901375031098723" lon="9.050712995231152">
        <ele>712</ele>
        <time>2010-06-13T07:42:20Z</time>
      </trkpt>
      <trkpt lat="45.901383999735117" lon="9.050725987181068">
        <ele>712</ele>
        <time>2010-06-13T07:42:21Z</time>
      </trkpt>
      <trkpt lat="45.901392968371511" lon="9.050751971080899">
        <ele>713</ele>
        <time>2010-06-13T07:42:22Z</time>
      </trkpt>
      <trkpt lat="45.901402020826936" lon="9.050764041021466">
        <ele>713</ele>
        <time>2010-06-13T07:42:23Z</time>
      </trkpt>
      <trkpt lat="45.901410989463329" lon="9.050790024921298">
        <ele>713</ele>
        <time>2010-06-13T07:42:24Z</time>
      </trkpt>
      <trkpt lat="45.901419958099723" lon="9.050803016871214">
        <ele>713</ele>
        <time>2010-06-13T07:42:25Z</time>
      </trkpt>
      <trkpt lat="45.901429010555148" lon="9.05081600882113">
        <ele>713</ele>
        <time>2010-06-13T07:42:26Z</time>
      </trkpt>
      <trkpt lat="45.901429010555148" lon="9.050829000771046">
        <ele>713</ele>
        <time>2010-06-13T07:42:27Z</time>
      </trkpt>
      <trkpt lat="45.901437979191542" lon="9.050841992720962">
        <ele>713</ele>
        <time>2010-06-13T07:42:28Z</time>
      </trkpt>
      <trkpt lat="45.901447031646967" lon="9.050867976620793">
        <ele>713</ele>
        <time>2010-06-13T07:42:29Z</time>
      </trkpt>
      <trkpt lat="45.90145600028336" lon="9.050880968570709">
        <ele>714</ele>
        <time>2010-06-13T07:42:30Z</time>
      </trkpt>
      <trkpt lat="45.901464968919754" lon="9.050893038511276">
        <ele>714</ele>
        <time>2010-06-13T07:42:31Z</time>
      </trkpt>
      <trkpt lat="45.901474021375179" lon="9.050919022411108">
        <ele>714</ele>
        <time>2010-06-13T07:42:32Z</time>
      </trkpt>
      <trkpt lat="45.901482990011573" lon="9.050919022411108">
        <ele>714</ele>
        <time>2010-06-13T07:42:33Z</time>
      </trkpt>
      <trkpt lat="45.901501011103392" lon="9.050932014361024">
        <ele>714</ele>
        <time>2010-06-13T07:42:34Z</time>
      </trkpt>
      <trkpt lat="45.901509979739785" lon="9.05094500631094">
        <ele>713</ele>
        <time>2010-06-13T07:42:35Z</time>
      </trkpt>
      <trkpt lat="45.901536969467998" lon="9.050932014361024">
        <ele>713</ele>
        <time>2010-06-13T07:42:36Z</time>
      </trkpt>
      <trkpt lat="45.901546021923423" lon="9.050932014361024">
        <ele>713</ele>
        <time>2010-06-13T07:42:37Z</time>
      </trkpt>
      <trkpt lat="45.90156395919621" lon="9.050932014361024">
        <ele>713</ele>
        <time>2010-06-13T07:42:38Z</time>
      </trkpt>
      <trkpt lat="45.901573011651635" lon="9.050919022411108">
        <ele>714</ele>
        <time>2010-06-13T07:42:39Z</time>
      </trkpt>
      <trkpt lat="45.901591032743454" lon="9.050906030461192">
        <ele>714</ele>
        <time>2010-06-13T07:42:40Z</time>
      </trkpt>
      <trkpt lat="45.901600001379848" lon="9.050893960520625">
        <ele>714</ele>
        <time>2010-06-13T07:42:41Z</time>
      </trkpt>
      <trkpt lat="45.901618022471666" lon="9.050880968570709">
        <ele>714</ele>
        <time>2010-06-13T07:42:42Z</time>
      </trkpt>
      <trkpt lat="45.901635959744453" lon="9.050867976620793">
        <ele>713</ele>
        <time>2010-06-13T07:42:43Z</time>
      </trkpt>
      <trkpt lat="45.901645012199879" lon="9.050867976620793">
        <ele>713</ele>
        <time>2010-06-13T07:42:44Z</time>
      </trkpt>
      <trkpt lat="45.901653980836272" lon="9.050854984670878">
        <ele>714</ele>
        <time>2010-06-13T07:42:45Z</time>
      </trkpt>
      <trkpt lat="45.901672001928091" lon="9.050829000771046">
        <ele>714</ele>
        <time>2010-06-13T07:42:46Z</time>
      </trkpt>
      <trkpt lat="45.901680970564485" lon="9.05081600882113">
        <ele>714</ele>
        <time>2010-06-13T07:42:47Z</time>
      </trkpt>
      <trkpt lat="45.90169002301991" lon="9.050803016871214">
        <ele>714</ele>
        <time>2010-06-13T07:42:48Z</time>
      </trkpt>
      <trkpt lat="45.901707960292697" lon="9.050791030749679">
        <ele>714</ele>
        <time>2010-06-13T07:42:49Z</time>
      </trkpt>
      <trkpt lat="45.901725981384516" lon="9.050778038799763">
        <ele>715</ele>
        <time>2010-06-13T07:42:50Z</time>
      </trkpt>
      <trkpt lat="45.901744002476335" lon="9.050764963030815">
        <ele>715</ele>
        <time>2010-06-13T07:42:51Z</time>
      </trkpt>
      <trkpt lat="45.901752971112728" lon="9.050764963030815">
        <ele>715</ele>
        <time>2010-06-13T07:42:52Z</time>
      </trkpt>
      <trkpt lat="45.901762023568153" lon="9.050751971080899">
        <ele>715</ele>
        <time>2010-06-13T07:42:53Z</time>
      </trkpt>
      <trkpt lat="45.901770992204547" lon="9.050751971080899">
        <ele>715</ele>
        <time>2010-06-13T07:42:54Z</time>
      </trkpt>
      <trkpt lat="45.901789013296366" lon="9.050738979130983">
        <ele>715</ele>
        <time>2010-06-13T07:42:55Z</time>
      </trkpt>
      <trkpt lat="45.901807034388185" lon="9.050725987181068">
        <ele>715</ele>
        <time>2010-06-13T07:42:56Z</time>
      </trkpt>
      <trkpt lat="45.901816003024578" lon="9.050725987181068">
        <ele>715</ele>
        <time>2010-06-13T07:42:57Z</time>
      </trkpt>
      <trkpt lat="45.901834024116397" lon="9.050712995231152">
        <ele>715</ele>
        <time>2010-06-13T07:42:58Z</time>
      </trkpt>
      <trkpt lat="45.901851961389184" lon="9.050712995231152">
        <ele>716</ele>
        <time>2010-06-13T07:42:59Z</time>
      </trkpt>
      <trkpt lat="45.901869982481003" lon="9.050712995231152">
        <ele>716</ele>
        <time>2010-06-13T07:43:00Z</time>
      </trkpt>
      <trkpt lat="45.901888003572822" lon="9.050712995231152">
        <ele>716</ele>
        <time>2010-06-13T07:43:01Z</time>
      </trkpt>
      <trkpt lat="45.901933014392853" lon="9.050712995231152">
        <ele>716</ele>
        <time>2010-06-13T07:43:04Z</time>
      </trkpt>
      <trkpt lat="45.901941983029246" lon="9.050712995231152">
        <ele>716</ele>
        <time>2010-06-13T07:43:05Z</time>
      </trkpt>
      <trkpt lat="45.901960004121065" lon="9.050725987181068">
        <ele>716</ele>
        <time>2010-06-13T07:43:06Z</time>
      </trkpt>
      <trkpt lat="45.901978025212884" lon="9.050725987181068">
        <ele>716</ele>
        <time>2010-06-13T07:43:07Z</time>
      </trkpt>
      <trkpt lat="45.901995962485671" lon="9.050738979130983">
        <ele>717</ele>
        <time>2010-06-13T07:43:08Z</time>
      </trkpt>
      <trkpt lat="45.90201398357749" lon="9.050738979130983">
        <ele>717</ele>
        <time>2010-06-13T07:43:09Z</time>
      </trkpt>
      <trkpt lat="45.902032004669309" lon="9.050751971080899">
        <ele>717</ele>
        <time>2010-06-13T07:43:10Z</time>
      </trkpt>
      <trkpt lat="45.902040973305702" lon="9.050764963030815">
        <ele>717</ele>
        <time>2010-06-13T07:43:11Z</time>
      </trkpt>
      <trkpt lat="45.902058994397521" lon="9.050778038799763">
        <ele>717</ele>
        <time>2010-06-13T07:43:12Z</time>
      </trkpt>
      <trkpt lat="45.902067963033915" lon="9.050791030749679">
        <ele>717</ele>
        <time>2010-06-13T07:43:13Z</time>
      </trkpt>
      <trkpt lat="45.902085984125733" lon="9.050804022699595">
        <ele>718</ele>
        <time>2010-06-13T07:43:14Z</time>
      </trkpt>
      <trkpt lat="45.902095036581159" lon="9.050804022699595">
        <ele>717</ele>
        <time>2010-06-13T07:43:15Z</time>
      </trkpt>
      <trkpt lat="45.902104005217552" lon="9.05081701464951">
        <ele>717</ele>
        <time>2010-06-13T07:43:16Z</time>
      </trkpt>
      <trkpt lat="45.902122026309371" lon="9.05081701464951">
        <ele>717</ele>
        <time>2010-06-13T07:43:17Z</time>
      </trkpt>
      <trkpt lat="45.902130994945765" lon="9.050830006599426">
        <ele>717</ele>
        <time>2010-06-13T07:43:18Z</time>
      </trkpt>
      <trkpt lat="45.902149016037583" lon="9.050841992720962">
        <ele>717</ele>
        <time>2010-06-13T07:43:19Z</time>
      </trkpt>
      <trkpt lat="45.902167037129402" lon="9.050841992720962">
        <ele>717</ele>
        <time>2010-06-13T07:43:20Z</time>
      </trkpt>
      <trkpt lat="45.902176005765796" lon="9.050855990499258">
        <ele>717</ele>
        <time>2010-06-13T07:43:21Z</time>
      </trkpt>
      <trkpt lat="45.902184974402189" lon="9.050867976620793">
        <ele>717</ele>
        <time>2010-06-13T07:43:22Z</time>
      </trkpt>
      <trkpt lat="45.902202995494008" lon="9.050880968570709">
        <ele>717</ele>
        <time>2010-06-13T07:43:23Z</time>
      </trkpt>
      <trkpt lat="45.902221016585827" lon="9.050893960520625">
        <ele>717</ele>
        <time>2010-06-13T07:43:24Z</time>
      </trkpt>
      <trkpt lat="45.90222998522222" lon="9.050920028239489">
        <ele>717</ele>
        <time>2010-06-13T07:43:25Z</time>
      </trkpt>
      <trkpt lat="45.902256974950433" lon="9.05094601213932">
        <ele>717</ele>
        <time>2010-06-13T07:43:27Z</time>
      </trkpt>
      <trkpt lat="45.902266027405858" lon="9.050959004089236">
        <ele>717</ele>
        <time>2010-06-13T07:43:28Z</time>
      </trkpt>
      <trkpt lat="45.902283964678645" lon="9.050971996039152">
        <ele>718</ele>
        <time>2010-06-13T07:43:29Z</time>
      </trkpt>
      <trkpt lat="45.902301985770464" lon="9.050983982160687">
        <ele>717</ele>
        <time>2010-06-13T07:43:30Z</time>
      </trkpt>
      <trkpt lat="45.902311038225889" lon="9.050996974110603">
        <ele>718</ele>
        <time>2010-06-13T07:43:31Z</time>
      </trkpt>
      <trkpt lat="45.902328975498676" lon="9.051009966060519">
        <ele>718</ele>
        <time>2010-06-13T07:43:32Z</time>
      </trkpt>
      <trkpt lat="45.902338027954102" lon="9.051023041829467">
        <ele>718</ele>
        <time>2010-06-13T07:43:33Z</time>
      </trkpt>
      <trkpt lat="45.902355965226889" lon="9.051036033779383">
        <ele>718</ele>
        <time>2010-06-13T07:43:34Z</time>
      </trkpt>
      <trkpt lat="45.902373986318707" lon="9.051049025729299">
        <ele>718</ele>
        <time>2010-06-13T07:43:35Z</time>
      </trkpt>
      <trkpt lat="45.902383038774133" lon="9.051062017679215">
        <ele>718</ele>
        <time>2010-06-13T07:43:36Z</time>
      </trkpt>
      <trkpt lat="45.902392007410526" lon="9.051088001579046">
        <ele>718</ele>
        <time>2010-06-13T07:43:37Z</time>
      </trkpt>
      <trkpt lat="45.90240097604692" lon="9.051100993528962">
        <ele>718</ele>
        <time>2010-06-13T07:43:38Z</time>
      </trkpt>
      <trkpt lat="45.902410028502345" lon="9.051113985478878">
        <ele>719</ele>
        <time>2010-06-13T07:43:39Z</time>
      </trkpt>
      <trkpt lat="45.902427965775132" lon="9.051138963550329">
        <ele>719</ele>
        <time>2010-06-13T07:43:40Z</time>
      </trkpt>
      <trkpt lat="45.902437018230557" lon="9.051152039319277">
        <ele>719</ele>
        <time>2010-06-13T07:43:41Z</time>
      </trkpt>
      <trkpt lat="45.902445986866951" lon="9.051165031269193">
        <ele>719</ele>
        <time>2010-06-13T07:43:42Z</time>
      </trkpt>
      <trkpt lat="45.90246400795877" lon="9.051178023219109">
        <ele>719</ele>
        <time>2010-06-13T07:43:43Z</time>
      </trkpt>
      <trkpt lat="45.902472976595163" lon="9.051191015169025">
        <ele>719</ele>
        <time>2010-06-13T07:43:44Z</time>
      </trkpt>
      <trkpt lat="45.902482029050589" lon="9.05120400711894">
        <ele>719</ele>
        <time>2010-06-13T07:43:45Z</time>
      </trkpt>
      <trkpt lat="45.902490997686982" lon="9.051229991018772">
        <ele>719</ele>
        <time>2010-06-13T07:43:46Z</time>
      </trkpt>
      <trkpt lat="45.902499966323376" lon="9.051241977140307">
        <ele>719</ele>
        <time>2010-06-13T07:43:47Z</time>
      </trkpt>
      <trkpt lat="45.902509018778801" lon="9.051254969090223">
        <ele>720</ele>
        <time>2010-06-13T07:43:48Z</time>
      </trkpt>
      <trkpt lat="45.902509018778801" lon="9.051281036809087">
        <ele>720</ele>
        <time>2010-06-13T07:43:49Z</time>
      </trkpt>
      <trkpt lat="45.902517987415195" lon="9.051281036809087">
        <ele>721</ele>
        <time>2010-06-13T07:43:50Z</time>
      </trkpt>
      <trkpt lat="45.90252703987062" lon="9.051294028759003">
        <ele>721</ele>
        <time>2010-06-13T07:43:51Z</time>
      </trkpt>
      <trkpt lat="45.902536008507013" lon="9.051307020708919">
        <ele>721</ele>
        <time>2010-06-13T07:43:52Z</time>
      </trkpt>
      <trkpt lat="45.902544977143407" lon="9.051320012658835">
        <ele>721</ele>
        <time>2010-06-13T07:43:53Z</time>
      </trkpt>
      <trkpt lat="45.902544977143407" lon="9.05133300460875">
        <ele>721</ele>
        <time>2010-06-13T07:43:54Z</time>
      </trkpt>
      <trkpt lat="45.902554029598832" lon="9.051358988508582">
        <ele>721</ele>
        <time>2010-06-13T07:43:55Z</time>
      </trkpt>
      <trkpt lat="45.902562998235226" lon="9.051370974630117">
        <ele>722</ele>
        <time>2010-06-13T07:43:56Z</time>
      </trkpt>
      <trkpt lat="45.902571966871619" lon="9.051383966580033">
        <ele>722</ele>
        <time>2010-06-13T07:43:57Z</time>
      </trkpt>
      <trkpt lat="45.902581019327044" lon="9.051396958529949">
        <ele>722</ele>
        <time>2010-06-13T07:43:58Z</time>
      </trkpt>
      <trkpt lat="45.902589987963438" lon="9.051410034298897">
        <ele>722</ele>
        <time>2010-06-13T07:43:59Z</time>
      </trkpt>
      <trkpt lat="45.902608009055257" lon="9.051436018198729">
        <ele>722</ele>
        <time>2010-06-13T07:44:00Z</time>
      </trkpt>
      <trkpt lat="45.90261697769165" lon="9.051449010148644">
        <ele>722</ele>
        <time>2010-06-13T07:44:01Z</time>
      </trkpt>
      <trkpt lat="45.902634998783469" lon="9.05146200209856">
        <ele>722</ele>
        <time>2010-06-13T07:44:02Z</time>
      </trkpt>
      <trkpt lat="45.902643967419863" lon="9.051474994048476">
        <ele>722</ele>
        <time>2010-06-13T07:44:03Z</time>
      </trkpt>
      <trkpt lat="45.902653019875288" lon="9.051486980170012">
        <ele>723</ele>
        <time>2010-06-13T07:44:04Z</time>
      </trkpt>
      <trkpt lat="45.902671040967107" lon="9.051486980170012">
        <ele>723</ele>
        <time>2010-06-13T07:44:05Z</time>
      </trkpt>
      <trkpt lat="45.9026800096035" lon="9.051500977948308">
        <ele>723</ele>
        <time>2010-06-13T07:44:06Z</time>
      </trkpt>
      <trkpt lat="45.902688978239894" lon="9.051526039838791">
        <ele>723</ele>
        <time>2010-06-13T07:44:07Z</time>
      </trkpt>
      <trkpt lat="45.902697024866939" lon="9.051539031788707">
        <ele>723</ele>
        <time>2010-06-13T07:44:08Z</time>
      </trkpt>
      <trkpt lat="45.902706999331713" lon="9.051552023738623">
        <ele>723</ele>
        <time>2010-06-13T07:44:09Z</time>
      </trkpt>
      <trkpt lat="45.902715967968106" lon="9.051578007638454">
        <ele>724</ele>
        <time>2010-06-13T07:44:10Z</time>
      </trkpt>
      <trkpt lat="45.902725020423532" lon="9.05159099958837">
        <ele>724</ele>
        <time>2010-06-13T07:44:11Z</time>
      </trkpt>
      <trkpt lat="45.90274203568697" lon="9.051603991538286">
        <ele>723</ele>
        <time>2010-06-13T07:44:12Z</time>
      </trkpt>
      <trkpt lat="45.90274203568697" lon="9.051616983488202">
        <ele>723</ele>
        <time>2010-06-13T07:44:13Z</time>
      </trkpt>
      <trkpt lat="45.902752010151744" lon="9.051655037328601">
        <ele>724</ele>
        <time>2010-06-13T07:44:15Z</time>
      </trkpt>
      <trkpt lat="45.902760978788137" lon="9.051668029278517">
        <ele>724</ele>
        <time>2010-06-13T07:44:16Z</time>
      </trkpt>
      <trkpt lat="45.902760978788137" lon="9.051681021228433">
        <ele>725</ele>
        <time>2010-06-13T07:44:17Z</time>
      </trkpt>
      <trkpt lat="45.902769025415182" lon="9.051707005128264">
        <ele>725</ele>
        <time>2010-06-13T07:44:18Z</time>
      </trkpt>
      <trkpt lat="45.902778999879956" lon="9.05171999707818">
        <ele>725</ele>
        <time>2010-06-13T07:44:19Z</time>
      </trkpt>
      <trkpt lat="45.902786962687969" lon="9.051745980978012">
        <ele>725</ele>
        <time>2010-06-13T07:44:20Z</time>
      </trkpt>
      <trkpt lat="45.902805989608169" lon="9.051745980978012">
        <ele>725</ele>
        <time>2010-06-13T07:44:21Z</time>
      </trkpt>
      <trkpt lat="45.902814036235213" lon="9.051770959049463">
        <ele>725</ele>
        <time>2010-06-13T07:44:22Z</time>
      </trkpt>
      <trkpt lat="45.902824010699987" lon="9.051784034818411">
        <ele>725</ele>
        <time>2010-06-13T07:44:23Z</time>
      </trkpt>
      <trkpt lat="45.902831973508" lon="9.051784034818411">
        <ele>726</ele>
        <time>2010-06-13T07:44:24Z</time>
      </trkpt>
      <trkpt lat="45.9028510004282" lon="9.051797026768327">
        <ele>726</ele>
        <time>2010-06-13T07:44:25Z</time>
      </trkpt>
      <trkpt lat="45.902858963236213" lon="9.051810018718243">
        <ele>726</ele>
        <time>2010-06-13T07:44:26Z</time>
      </trkpt>
      <trkpt lat="45.902876984328032" lon="9.051810018718243">
        <ele>726</ele>
        <time>2010-06-13T07:44:27Z</time>
      </trkpt>
      <trkpt lat="45.902886036783457" lon="9.051823010668159">
        <ele>726</ele>
        <time>2010-06-13T07:44:28Z</time>
      </trkpt>
      <trkpt lat="45.902896011248231" lon="9.051823010668159">
        <ele>726</ele>
        <time>2010-06-13T07:44:29Z</time>
      </trkpt>
      <trkpt lat="45.902903974056244" lon="9.051836002618074">
        <ele>727</ele>
        <time>2010-06-13T07:44:30Z</time>
      </trkpt>
      <trkpt lat="45.90291403234005" lon="9.05184899456799">
        <ele>727</ele>
        <time>2010-06-13T07:44:31Z</time>
      </trkpt>
      <trkpt lat="45.902921995148063" lon="9.051861986517906">
        <ele>727</ele>
        <time>2010-06-13T07:44:32Z</time>
      </trkpt>
      <trkpt lat="45.902930963784456" lon="9.051873972639442">
        <ele>727</ele>
        <time>2010-06-13T07:44:33Z</time>
      </trkpt>
      <trkpt lat="45.902941022068262" lon="9.051886964589357">
        <ele>727</ele>
        <time>2010-06-13T07:44:34Z</time>
      </trkpt>
      <trkpt lat="45.902948984876275" lon="9.051900040358305">
        <ele>727</ele>
        <time>2010-06-13T07:44:35Z</time>
      </trkpt>
      <trkpt lat="45.902958959341049" lon="9.051900040358305">
        <ele>727</ele>
        <time>2010-06-13T07:44:36Z</time>
      </trkpt>
      <trkpt lat="45.902967005968094" lon="9.051913032308221">
        <ele>727</ele>
        <time>2010-06-13T07:44:37Z</time>
      </trkpt>
      <trkpt lat="45.902975974604487" lon="9.051939016208053">
        <ele>727</ele>
        <time>2010-06-13T07:44:38Z</time>
      </trkpt>
      <trkpt lat="45.902986032888293" lon="9.051952008157969">
        <ele>727</ele>
        <time>2010-06-13T07:44:39Z</time>
      </trkpt>
      <trkpt lat="45.9030029643327" lon="9.051952008157969">
        <ele>727</ele>
        <time>2010-06-13T07:44:40Z</time>
      </trkpt>
      <trkpt lat="45.903012016788125" lon="9.051965000107884">
        <ele>727</ele>
        <time>2010-06-13T07:44:41Z</time>
      </trkpt>
      <trkpt lat="45.903020985424519" lon="9.051965000107884">
        <ele>727</ele>
        <time>2010-06-13T07:44:42Z</time>
      </trkpt>
      <trkpt lat="45.903030959889293" lon="9.0519779920578">
        <ele>727</ele>
        <time>2010-06-13T07:44:43Z</time>
      </trkpt>
      <trkpt lat="45.903039006516337" lon="9.0519779920578">
        <ele>727</ele>
        <time>2010-06-13T07:44:44Z</time>
      </trkpt>
      <trkpt lat="45.903057027608156" lon="9.051990984007716">
        <ele>727</ele>
        <time>2010-06-13T07:44:45Z</time>
      </trkpt>
      <trkpt lat="45.90306599624455" lon="9.051990984007716">
        <ele>727</ele>
        <time>2010-06-13T07:44:46Z</time>
      </trkpt>
      <trkpt lat="45.903084017336369" lon="9.052003975957632">
        <ele>728</ele>
        <time>2010-06-13T07:44:47Z</time>
      </trkpt>
      <trkpt lat="45.903092985972762" lon="9.052016967907548">
        <ele>728</ele>
        <time>2010-06-13T07:44:48Z</time>
      </trkpt>
      <trkpt lat="45.903111007064581" lon="9.052029037848115">
        <ele>728</ele>
        <time>2010-06-13T07:44:49Z</time>
      </trkpt>
      <trkpt lat="45.903120981529355" lon="9.052042029798031">
        <ele>728</ele>
        <time>2010-06-13T07:44:50Z</time>
      </trkpt>
      <trkpt lat="45.9031290281564" lon="9.052068013697863">
        <ele>728</ele>
        <time>2010-06-13T07:44:51Z</time>
      </trkpt>
      <trkpt lat="45.903137996792793" lon="9.052068013697863">
        <ele>729</ele>
        <time>2010-06-13T07:44:52Z</time>
      </trkpt>
      <trkpt lat="45.903156017884612" lon="9.05210698954761">
        <ele>728</ele>
        <time>2010-06-13T07:44:54Z</time>
      </trkpt>
      <trkpt lat="45.903164986521006" lon="9.05210698954761">
        <ele>728</ele>
        <time>2010-06-13T07:44:55Z</time>
      </trkpt>
      <trkpt lat="45.903183007612824" lon="9.052119981497526">
        <ele>729</ele>
        <time>2010-06-13T07:44:56Z</time>
      </trkpt>
      <trkpt lat="45.903191976249218" lon="9.052132973447442">
        <ele>728</ele>
        <time>2010-06-13T07:44:57Z</time>
      </trkpt>
      <trkpt lat="45.903201028704643" lon="9.052132973447442">
        <ele>728</ele>
        <time>2010-06-13T07:44:58Z</time>
      </trkpt>
      <trkpt lat="45.90321896597743" lon="9.052145965397358">
        <ele>729</ele>
        <time>2010-06-13T07:44:59Z</time>
      </trkpt>
      <trkpt lat="45.903236987069249" lon="9.052145965397358">
        <ele>730</ele>
        <time>2010-06-13T07:45:00Z</time>
      </trkpt>
      <trkpt lat="45.903246039524674" lon="9.052159041166306">
        <ele>730</ele>
        <time>2010-06-13T07:45:01Z</time>
      </trkpt>
      <trkpt lat="45.903263976797462" lon="9.052171027287841">
        <ele>729</ele>
        <time>2010-06-13T07:45:02Z</time>
      </trkpt>
      <trkpt lat="45.903273029252887" lon="9.052184019237757">
        <ele>729</ele>
        <time>2010-06-13T07:45:03Z</time>
      </trkpt>
      <trkpt lat="45.903290966525674" lon="9.052197011187673">
        <ele>729</ele>
        <time>2010-06-13T07:45:04Z</time>
      </trkpt>
      <trkpt lat="45.903300018981099" lon="9.052210003137589">
        <ele>730</ele>
        <time>2010-06-13T07:45:05Z</time>
      </trkpt>
      <trkpt lat="45.903308987617493" lon="9.052222995087504">
        <ele>730</ele>
        <time>2010-06-13T07:45:06Z</time>
      </trkpt>
      <trkpt lat="45.903318040072918" lon="9.05223598703742">
        <ele>730</ele>
        <time>2010-06-13T07:45:07Z</time>
      </trkpt>
      <trkpt lat="45.903327008709311" lon="9.052248978987336">
        <ele>730</ele>
        <time>2010-06-13T07:45:08Z</time>
      </trkpt>
      <trkpt lat="45.903335977345705" lon="9.052261970937252">
        <ele>729</ele>
        <time>2010-06-13T07:45:09Z</time>
      </trkpt>
      <trkpt lat="45.90334502980113" lon="9.052274962887168">
        <ele>729</ele>
        <time>2010-06-13T07:45:10Z</time>
      </trkpt>
      <trkpt lat="45.903353998437524" lon="9.052288038656116">
        <ele>731</ele>
        <time>2010-06-13T07:45:11Z</time>
      </trkpt>
      <trkpt lat="45.903353998437524" lon="9.052300024777651">
        <ele>731</ele>
        <time>2010-06-13T07:45:12Z</time>
      </trkpt>
      <trkpt lat="45.903372019529343" lon="9.052326008677483">
        <ele>731</ele>
        <time>2010-06-13T07:45:13Z</time>
      </trkpt>
      <trkpt lat="45.903380988165736" lon="9.052326008677483">
        <ele>730</ele>
        <time>2010-06-13T07:45:14Z</time>
      </trkpt>
      <trkpt lat="45.903399009257555" lon="9.052339000627399">
        <ele>730</ele>
        <time>2010-06-13T07:45:15Z</time>
      </trkpt>
      <trkpt lat="45.903399009257555" lon="9.052351992577314">
        <ele>730</ele>
        <time>2010-06-13T07:45:16Z</time>
      </trkpt>
      <trkpt lat="45.903399009257555" lon="9.052377976477146">
        <ele>731</ele>
        <time>2010-06-13T07:45:17Z</time>
      </trkpt>
      <trkpt lat="45.903407977893949" lon="9.052390968427062">
        <ele>731</ele>
        <time>2010-06-13T07:45:18Z</time>
      </trkpt>
      <trkpt lat="45.903417030349374" lon="9.052403960376978">
        <ele>731</ele>
        <time>2010-06-13T07:45:19Z</time>
      </trkpt>
      <trkpt lat="45.903407977893949" lon="9.052442014217377">
        <ele>732</ele>
        <time>2010-06-13T07:45:21Z</time>
      </trkpt>
      <trkpt lat="45.903407977893949" lon="9.052455006167293">
        <ele>732</ele>
        <time>2010-06-13T07:45:22Z</time>
      </trkpt>
      <trkpt lat="45.903399009257555" lon="9.052480990067124">
        <ele>732</ele>
        <time>2010-06-13T07:45:23Z</time>
      </trkpt>
      <trkpt lat="45.903399009257555" lon="9.05249398201704">
        <ele>733</ele>
        <time>2010-06-13T07:45:24Z</time>
      </trkpt>
      <trkpt lat="45.903399009257555" lon="9.052519965916872">
        <ele>733</ele>
        <time>2010-06-13T07:45:25Z</time>
      </trkpt>
      <trkpt lat="45.903417030349374" lon="9.052532035857439">
        <ele>733</ele>
        <time>2010-06-13T07:45:26Z</time>
      </trkpt>
      <trkpt lat="45.903417030349374" lon="9.052545027807355">
        <ele>732</ele>
        <time>2010-06-13T07:45:27Z</time>
      </trkpt>
      <trkpt lat="45.903425998985767" lon="9.052571011707187">
        <ele>732</ele>
        <time>2010-06-13T07:45:28Z</time>
      </trkpt>
      <trkpt lat="45.903425998985767" lon="9.052584003657103">
        <ele>732</ele>
        <time>2010-06-13T07:45:29Z</time>
      </trkpt>
      <trkpt lat="45.903434967622161" lon="9.052609987556934">
        <ele>733</ele>
        <time>2010-06-13T07:45:30Z</time>
      </trkpt>
      <trkpt lat="45.903434967622161" lon="9.05262297950685">
        <ele>733</ele>
        <time>2010-06-13T07:45:31Z</time>
      </trkpt>
      <trkpt lat="45.903444020077586" lon="9.052635971456766">
        <ele>733</ele>
        <time>2010-06-13T07:45:32Z</time>
      </trkpt>
      <trkpt lat="45.90345298871398" lon="9.052661033347249">
        <ele>733</ele>
        <time>2010-06-13T07:45:33Z</time>
      </trkpt>
      <trkpt lat="45.903462041169405" lon="9.052674025297165">
        <ele>732</ele>
        <time>2010-06-13T07:45:34Z</time>
      </trkpt>
      <trkpt lat="45.903471009805799" lon="9.052687017247081">
        <ele>733</ele>
        <time>2010-06-13T07:45:35Z</time>
      </trkpt>
      <trkpt lat="45.903479978442192" lon="9.052700009196997">
        <ele>733</ele>
        <time>2010-06-13T07:45:36Z</time>
      </trkpt>
      <trkpt lat="45.903497999534011" lon="9.052700009196997">
        <ele>733</ele>
        <time>2010-06-13T07:45:37Z</time>
      </trkpt>
      <trkpt lat="45.90351602062583" lon="9.052713001146913">
        <ele>734</ele>
        <time>2010-06-13T07:45:38Z</time>
      </trkpt>
      <trkpt lat="45.903524989262223" lon="9.052725993096829">
        <ele>734</ele>
        <time>2010-06-13T07:45:39Z</time>
      </trkpt>
      <trkpt lat="45.903534041717649" lon="9.052725993096829">
        <ele>735</ele>
        <time>2010-06-13T07:45:40Z</time>
      </trkpt>
      <trkpt lat="45.903543010354042" lon="9.052738985046744">
        <ele>735</ele>
        <time>2010-06-13T07:45:41Z</time>
      </trkpt>
      <trkpt lat="45.903551978990436" lon="9.052738985046744">
        <ele>735</ele>
        <time>2010-06-13T07:45:42Z</time>
      </trkpt>
      <trkpt lat="45.903561031445861" lon="9.052725993096829">
        <ele>735</ele>
        <time>2010-06-13T07:45:43Z</time>
      </trkpt>
      <trkpt lat="45.903561031445861" lon="9.052725993096829">
        <ele>735</ele>
        <time>2010-06-13T07:45:44Z</time>
      </trkpt>
      <trkpt lat="45.903677958995104" lon="9.052738985046744">
        <ele>735</ele>
        <time>2010-06-13T07:45:54Z</time>
      </trkpt>
      <trkpt lat="45.903687011450529" lon="9.052738985046744">
        <ele>735</ele>
        <time>2010-06-13T07:45:55Z</time>
      </trkpt>
      <trkpt lat="45.903705032542348" lon="9.052738985046744">
        <ele>735</ele>
        <time>2010-06-13T07:45:56Z</time>
      </trkpt>
      <trkpt lat="45.903722969815135" lon="9.052738985046744">
        <ele>735</ele>
        <time>2010-06-13T07:45:57Z</time>
      </trkpt>
      <trkpt lat="45.90373202227056" lon="9.05275197699666">
        <ele>735</ele>
        <time>2010-06-13T07:45:58Z</time>
      </trkpt>
      <trkpt lat="45.903749959543347" lon="9.05275197699666">
        <ele>736</ele>
        <time>2010-06-13T07:45:59Z</time>
      </trkpt>
      <trkpt lat="45.903767980635166" lon="9.05275197699666">
        <ele>737</ele>
        <time>2010-06-13T07:46:00Z</time>
      </trkpt>
      <trkpt lat="45.903777033090591" lon="9.052764968946576">
        <ele>737</ele>
        <time>2010-06-13T07:46:01Z</time>
      </trkpt>
      <trkpt lat="45.903794970363379" lon="9.052764968946576">
        <ele>737</ele>
        <time>2010-06-13T07:46:02Z</time>
      </trkpt>
      <trkpt lat="45.903804022818804" lon="9.052764968946576">
        <ele>736</ele>
        <time>2010-06-13T07:46:03Z</time>
      </trkpt>
      <trkpt lat="45.903812991455197" lon="9.052777960896492">
        <ele>736</ele>
        <time>2010-06-13T07:46:04Z</time>
      </trkpt>
      <trkpt lat="45.903821960091591" lon="9.052777960896492">
        <ele>736</ele>
        <time>2010-06-13T07:46:05Z</time>
      </trkpt>
      <trkpt lat="45.903831012547016" lon="9.052777960896492">
        <ele>736</ele>
        <time>2010-06-13T07:46:06Z</time>
      </trkpt>
      <trkpt lat="45.90383998118341" lon="9.052777960896492">
        <ele>736</ele>
        <time>2010-06-13T07:46:07Z</time>
      </trkpt>
      <trkpt lat="45.903849033638835" lon="9.05279103666544">
        <ele>736</ele>
        <time>2010-06-13T07:46:08Z</time>
      </trkpt>
      <trkpt lat="45.903866970911622" lon="9.05279103666544">
        <ele>736</ele>
        <time>2010-06-13T07:46:09Z</time>
      </trkpt>
      <trkpt lat="45.903876023367047" lon="9.052804028615356">
        <ele>737</ele>
        <time>2010-06-13T07:46:10Z</time>
      </trkpt>
      <trkpt lat="45.903884992003441" lon="9.052817020565271">
        <ele>737</ele>
        <time>2010-06-13T07:46:11Z</time>
      </trkpt>
      <trkpt lat="45.903893960639834" lon="9.052817020565271">
        <ele>736</ele>
        <time>2010-06-13T07:46:12Z</time>
      </trkpt>
      <trkpt lat="45.903911981731653" lon="9.052829006686807">
        <ele>736</ele>
        <time>2010-06-13T07:46:13Z</time>
      </trkpt>
      <trkpt lat="45.903921034187078" lon="9.052841998636723">
        <ele>736</ele>
        <time>2010-06-13T07:46:14Z</time>
      </trkpt>
      <trkpt lat="45.903938971459866" lon="9.052841998636723">
        <ele>737</ele>
        <time>2010-06-13T07:46:15Z</time>
      </trkpt>
      <trkpt lat="45.903948023915291" lon="9.052854990586639">
        <ele>737</ele>
        <time>2010-06-13T07:46:16Z</time>
      </trkpt>
      <trkpt lat="45.903956992551684" lon="9.052867982536554">
        <ele>737</ele>
        <time>2010-06-13T07:46:17Z</time>
      </trkpt>
      <trkpt lat="45.903956992551684" lon="9.05288097448647">
        <ele>738</ele>
        <time>2010-06-13T07:46:18Z</time>
      </trkpt>
      <trkpt lat="45.903965961188078" lon="9.052893966436386">
        <ele>738</ele>
        <time>2010-06-13T07:46:19Z</time>
      </trkpt>
      <trkpt lat="45.903975013643503" lon="9.05292003415525">
        <ele>738</ele>
        <time>2010-06-13T07:46:20Z</time>
      </trkpt>
      <trkpt lat="45.903975013643503" lon="9.052946018055081">
        <ele>738</ele>
        <time>2010-06-13T07:46:22Z</time>
      </trkpt>
      <trkpt lat="45.903983982279897" lon="9.052970996126533">
        <ele>737</ele>
        <time>2010-06-13T07:46:23Z</time>
      </trkpt>
      <trkpt lat="45.904002003371716" lon="9.052983988076448">
        <ele>737</ele>
        <time>2010-06-13T07:46:24Z</time>
      </trkpt>
      <trkpt lat="45.904010972008109" lon="9.05300997197628">
        <ele>737</ele>
        <time>2010-06-13T07:46:25Z</time>
      </trkpt>
      <trkpt lat="45.904028993099928" lon="9.053022963926196">
        <ele>737</ele>
        <time>2010-06-13T07:46:26Z</time>
      </trkpt>
      <trkpt lat="45.904037961736321" lon="9.053036039695144">
        <ele>738</ele>
        <time>2010-06-13T07:46:27Z</time>
      </trkpt>
      <trkpt lat="45.904047014191747" lon="9.053036039695144">
        <ele>738</ele>
        <time>2010-06-13T07:46:28Z</time>
      </trkpt>
      <trkpt lat="45.90405598282814" lon="9.05304903164506">
        <ele>738</ele>
        <time>2010-06-13T07:46:29Z</time>
      </trkpt>
      <trkpt lat="45.904074003919959" lon="9.053062023594976">
        <ele>738</ele>
        <time>2010-06-13T07:46:30Z</time>
      </trkpt>
      <trkpt lat="45.904082972556353" lon="9.053062023594976">
        <ele>738</ele>
        <time>2010-06-13T07:46:31Z</time>
      </trkpt>
      <trkpt lat="45.904100993648171" lon="9.053075015544891">
        <ele>738</ele>
        <time>2010-06-13T07:46:32Z</time>
      </trkpt>
      <trkpt lat="45.904109962284565" lon="9.053088007494807">
        <ele>739</ele>
        <time>2010-06-13T07:46:33Z</time>
      </trkpt>
      <trkpt lat="45.90411901473999" lon="9.053088007494807">
        <ele>739</ele>
        <time>2010-06-13T07:46:34Z</time>
      </trkpt>
      <trkpt lat="45.904137035831809" lon="9.053088007494807">
        <ele>739</ele>
        <time>2010-06-13T07:46:35Z</time>
      </trkpt>
      <trkpt lat="45.904154973104596" lon="9.053088007494807">
        <ele>739</ele>
        <time>2010-06-13T07:46:37Z</time>
      </trkpt>
      <trkpt lat="45.904164025560021" lon="9.053088007494807">
        <ele>739</ele>
        <time>2010-06-13T07:46:38Z</time>
      </trkpt>
      <trkpt lat="45.904181962832808" lon="9.053088007494807">
        <ele>740</ele>
        <time>2010-06-13T07:46:39Z</time>
      </trkpt>
      <trkpt lat="45.904199983924627" lon="9.053088007494807">
        <ele>740</ele>
        <time>2010-06-13T07:46:40Z</time>
      </trkpt>
      <trkpt lat="45.904209036380053" lon="9.053088007494807">
        <ele>740</ele>
        <time>2010-06-13T07:46:41Z</time>
      </trkpt>
      <trkpt lat="45.904218005016446" lon="9.053088007494807">
        <ele>740</ele>
        <time>2010-06-13T07:46:42Z</time>
      </trkpt>
      <trkpt lat="45.904236026108265" lon="9.053100999444723">
        <ele>740</ele>
        <time>2010-06-13T07:46:43Z</time>
      </trkpt>
      <trkpt lat="45.904236026108265" lon="9.053100999444723">
        <ele>740</ele>
        <time>2010-06-13T07:46:44Z</time>
      </trkpt>
      <trkpt lat="45.904253963381052" lon="9.053112985566258">
        <ele>741</ele>
        <time>2010-06-13T07:46:45Z</time>
      </trkpt>
      <trkpt lat="45.904263015836477" lon="9.053125977516174">
        <ele>741</ele>
        <time>2010-06-13T07:46:46Z</time>
      </trkpt>
      <trkpt lat="45.904271984472871" lon="9.053125977516174">
        <ele>741</ele>
        <time>2010-06-13T07:46:47Z</time>
      </trkpt>
      <trkpt lat="45.904281036928296" lon="9.05313896946609">
        <ele>742</ele>
        <time>2010-06-13T07:46:48Z</time>
      </trkpt>
      <trkpt lat="45.90429000556469" lon="9.053151961416006">
        <ele>743</ele>
        <time>2010-06-13T07:46:49Z</time>
      </trkpt>
      <trkpt lat="45.904308026656508" lon="9.053165037184954">
        <ele>742</ele>
        <time>2010-06-13T07:46:50Z</time>
      </trkpt>
      <trkpt lat="45.904316995292902" lon="9.053165037184954">
        <ele>742</ele>
        <time>2010-06-13T07:46:51Z</time>
      </trkpt>
      <trkpt lat="45.904325963929296" lon="9.053165037184954">
        <ele>741</ele>
        <time>2010-06-13T07:46:52Z</time>
      </trkpt>
      <trkpt lat="45.904335016384721" lon="9.053165037184954">
        <ele>742</ele>
        <time>2010-06-13T07:46:53Z</time>
      </trkpt>
      <trkpt lat="45.904343985021114" lon="9.05317802913487">
        <ele>742</ele>
        <time>2010-06-13T07:46:54Z</time>
      </trkpt>
      <trkpt lat="45.90435303747654" lon="9.05317802913487">
        <ele>742</ele>
        <time>2010-06-13T07:46:55Z</time>
      </trkpt>
      <trkpt lat="45.904362006112933" lon="9.05317802913487">
        <ele>742</ele>
        <time>2010-06-13T07:46:56Z</time>
      </trkpt>
      <trkpt lat="45.904380027204752" lon="9.053191021084786">
        <ele>742</ele>
        <time>2010-06-13T07:46:57Z</time>
      </trkpt>
      <trkpt lat="45.904388995841146" lon="9.053191021084786">
        <ele>742</ele>
        <time>2010-06-13T07:46:58Z</time>
      </trkpt>
      <trkpt lat="45.904397964477539" lon="9.053191021084786">
        <ele>742</ele>
        <time>2010-06-13T07:46:59Z</time>
      </trkpt>
      <trkpt lat="45.904407016932964" lon="9.053204013034701">
        <ele>742</ele>
        <time>2010-06-13T07:47:00Z</time>
      </trkpt>
      <trkpt lat="45.904415985569358" lon="9.053217004984617">
        <ele>742</ele>
        <time>2010-06-13T07:47:01Z</time>
      </trkpt>
      <trkpt lat="45.904425038024783" lon="9.053229996934533">
        <ele>743</ele>
        <time>2010-06-13T07:47:02Z</time>
      </trkpt>
      <trkpt lat="45.904425038024783" lon="9.053241983056068">
        <ele>743</ele>
        <time>2010-06-13T07:47:03Z</time>
      </trkpt>
      <trkpt lat="45.904425038024783" lon="9.053255980834365">
        <ele>744</ele>
        <time>2010-06-13T07:47:04Z</time>
      </trkpt>
      <trkpt lat="45.904434006661177" lon="9.053255980834365">
        <ele>744</ele>
        <time>2010-06-13T07:47:05Z</time>
      </trkpt>
      <trkpt lat="45.90444297529757" lon="9.0532679669559">
        <ele>744</ele>
        <time>2010-06-13T07:47:06Z</time>
      </trkpt>
      <trkpt lat="45.904452027752995" lon="9.053280958905816">
        <ele>744</ele>
        <time>2010-06-13T07:47:07Z</time>
      </trkpt>
      <trkpt lat="45.904452027752995" lon="9.053294034674764">
        <ele>744</ele>
        <time>2010-06-13T07:47:08Z</time>
      </trkpt>
      <trkpt lat="45.904452027752995" lon="9.05330702662468">
        <ele>744</ele>
        <time>2010-06-13T07:47:09Z</time>
      </trkpt>
      <trkpt lat="45.904460996389389" lon="9.05330702662468">
        <ele>744</ele>
        <time>2010-06-13T07:47:10Z</time>
      </trkpt>
      <trkpt lat="45.904586976394057" lon="9.053641967475414">
        <ele>750</ele>
        <time>2010-06-13T07:47:47Z</time>
      </trkpt>
      <trkpt lat="45.904596028849483" lon="9.05365495942533">
        <ele>750</ele>
        <time>2010-06-13T07:47:48Z</time>
      </trkpt>
      <trkpt lat="45.904596028849483" lon="9.05365495942533">
        <ele>751</ele>
        <time>2010-06-13T07:47:49Z</time>
      </trkpt>
      <trkpt lat="45.904596028849483" lon="9.053668035194278">
        <ele>751</ele>
        <time>2010-06-13T07:47:50Z</time>
      </trkpt>
      <trkpt lat="45.904596028849483" lon="9.053681027144194">
        <ele>751</ele>
        <time>2010-06-13T07:47:52Z</time>
      </trkpt>
      <trkpt lat="45.904596028849483" lon="9.053707011044025">
        <ele>751</ele>
        <time>2010-06-13T07:47:55Z</time>
      </trkpt>
      <trkpt lat="45.904596028849483" lon="9.053720002993941">
        <ele>752</ele>
        <time>2010-06-13T07:47:57Z</time>
      </trkpt>
      <trkpt lat="45.904604997485876" lon="9.053720002993941">
        <ele>752</ele>
        <time>2010-06-13T07:47:59Z</time>
      </trkpt>
      <trkpt lat="45.904857041314244" lon="9.053887976333499">
        <ele>756</ele>
        <time>2010-06-13T07:48:33Z</time>
      </trkpt>
      <trkpt lat="45.904866009950638" lon="9.053887976333499">
        <ele>756</ele>
        <time>2010-06-13T07:48:34Z</time>
      </trkpt>
      <trkpt lat="45.904874978587031" lon="9.053887976333499">
        <ele>756</ele>
        <time>2010-06-13T07:48:35Z</time>
      </trkpt>
      <trkpt lat="45.904874978587031" lon="9.053900968283415">
        <ele>755</ele>
        <time>2010-06-13T07:48:36Z</time>
      </trkpt>
      <trkpt lat="45.904874978587031" lon="9.053900968283415">
        <ele>755</ele>
        <time>2010-06-13T07:48:37Z</time>
      </trkpt>
      <trkpt lat="45.904884031042457" lon="9.053913038223982">
        <ele>756</ele>
        <time>2010-06-13T07:48:38Z</time>
      </trkpt>
      <trkpt lat="45.90489299967885" lon="9.053926030173898">
        <ele>757</ele>
        <time>2010-06-13T07:48:39Z</time>
      </trkpt>
      <trkpt lat="45.904901968315244" lon="9.053926030173898">
        <ele>756</ele>
        <time>2010-06-13T07:48:40Z</time>
      </trkpt>
      <trkpt lat="45.904911020770669" lon="9.053939022123814">
        <ele>756</ele>
        <time>2010-06-13T07:48:41Z</time>
      </trkpt>
      <trkpt lat="45.904929041862488" lon="9.053939022123814">
        <ele>756</ele>
        <time>2010-06-13T07:48:42Z</time>
      </trkpt>
      <trkpt lat="45.904938010498881" lon="9.053939022123814">
        <ele>756</ele>
        <time>2010-06-13T07:48:43Z</time>
      </trkpt>
      <trkpt lat="45.904946979135275" lon="9.05395201407373">
        <ele>757</ele>
        <time>2010-06-13T07:48:44Z</time>
      </trkpt>
      <trkpt lat="45.9049560315907" lon="9.053965006023645">
        <ele>757</ele>
        <time>2010-06-13T07:48:45Z</time>
      </trkpt>
      <trkpt lat="45.904965000227094" lon="9.053977997973561">
        <ele>757</ele>
        <time>2010-06-13T07:48:46Z</time>
      </trkpt>
      <trkpt lat="45.904973968863487" lon="9.053990989923477">
        <ele>757</ele>
        <time>2010-06-13T07:48:47Z</time>
      </trkpt>
      <trkpt lat="45.904983021318913" lon="9.053990989923477">
        <ele>757</ele>
        <time>2010-06-13T07:48:48Z</time>
      </trkpt>
      <trkpt lat="45.9050009585917" lon="9.053990989923477">
        <ele>757</ele>
        <time>2010-06-13T07:48:49Z</time>
      </trkpt>
      <trkpt lat="45.905010011047125" lon="9.053990989923477">
        <ele>757</ele>
        <time>2010-06-13T07:48:50Z</time>
      </trkpt>
      <trkpt lat="45.905018979683518" lon="9.053990989923477">
        <ele>757</ele>
        <time>2010-06-13T07:48:51Z</time>
      </trkpt>
      <trkpt lat="45.905037000775337" lon="9.054003981873393">
        <ele>757</ele>
        <time>2010-06-13T07:48:52Z</time>
      </trkpt>
      <trkpt lat="45.905045969411731" lon="9.054003981873393">
        <ele>756</ele>
        <time>2010-06-13T07:48:53Z</time>
      </trkpt>
      <trkpt lat="45.905055021867156" lon="9.054016973823309">
        <ele>757</ele>
        <time>2010-06-13T07:48:54Z</time>
      </trkpt>
      <trkpt lat="45.905072037130594" lon="9.054029965773225">
        <ele>756</ele>
        <time>2010-06-13T07:48:55Z</time>
      </trkpt>
      <trkpt lat="45.905082011595368" lon="9.054042035713792">
        <ele>757</ele>
        <time>2010-06-13T07:48:56Z</time>
      </trkpt>
      <trkpt lat="45.905297007411718" lon="9.054235992953181">
        <ele>758</ele>
        <time>2010-06-13T07:49:18Z</time>
      </trkpt>
      <trkpt lat="45.905306981876493" lon="9.054248984903097">
        <ele>759</ele>
        <time>2010-06-13T07:49:19Z</time>
      </trkpt>
      <trkpt lat="45.905316034331918" lon="9.054261976853013">
        <ele>760</ele>
        <time>2010-06-13T07:49:20Z</time>
      </trkpt>
      <trkpt lat="45.905323997139931" lon="9.054261976853013">
        <ele>760</ele>
        <time>2010-06-13T07:49:21Z</time>
      </trkpt>
      <trkpt lat="45.90534201823175" lon="9.054274968802929">
        <ele>760</ele>
        <time>2010-06-13T07:49:22Z</time>
      </trkpt>
      <trkpt lat="45.905350986868143" lon="9.054287960752845">
        <ele>760</ele>
        <time>2010-06-13T07:49:23Z</time>
      </trkpt>
      <trkpt lat="45.905360961332917" lon="9.054314028471708">
        <ele>760</ele>
        <time>2010-06-13T07:49:24Z</time>
      </trkpt>
      <trkpt lat="45.905369007959962" lon="9.054314028471708">
        <ele>760</ele>
        <time>2010-06-13T07:49:25Z</time>
      </trkpt>
      <trkpt lat="45.905378982424736" lon="9.054326014593244">
        <ele>760</ele>
        <time>2010-06-13T07:49:26Z</time>
      </trkpt>
      <trkpt lat="45.905387029051781" lon="9.05433900654316">
        <ele>760</ele>
        <time>2010-06-13T07:49:27Z</time>
      </trkpt>
      <trkpt lat="45.905405972152948" lon="9.054351998493075">
        <ele>760</ele>
        <time>2010-06-13T07:49:28Z</time>
      </trkpt>
      <trkpt lat="45.905414018779993" lon="9.054351998493075">
        <ele>760</ele>
        <time>2010-06-13T07:49:29Z</time>
      </trkpt>
      <trkpt lat="45.905423993244767" lon="9.054377982392907">
        <ele>759</ele>
        <time>2010-06-13T07:49:30Z</time>
      </trkpt>
      <trkpt lat="45.905423993244767" lon="9.054390974342823">
        <ele>759</ele>
        <time>2010-06-13T07:49:31Z</time>
      </trkpt>
      <trkpt lat="45.905432039871812" lon="9.054403966292739">
        <ele>760</ele>
        <time>2010-06-13T07:49:32Z</time>
      </trkpt>
      <trkpt lat="45.905441008508205" lon="9.054416958242655">
        <ele>760</ele>
        <time>2010-06-13T07:49:33Z</time>
      </trkpt>
      <trkpt lat="45.90545098297298" lon="9.054430034011602">
        <ele>761</ele>
        <time>2010-06-13T07:49:34Z</time>
      </trkpt>
      <trkpt lat="45.905459029600024" lon="9.054442020133138">
        <ele>761</ele>
        <time>2010-06-13T07:49:35Z</time>
      </trkpt>
      <trkpt lat="45.905476966872811" lon="9.054442020133138">
        <ele>761</ele>
        <time>2010-06-13T07:49:36Z</time>
      </trkpt>
      <trkpt lat="45.905486019328237" lon="9.054456017911434">
        <ele>761</ele>
        <time>2010-06-13T07:49:37Z</time>
      </trkpt>
      <trkpt lat="45.905495993793011" lon="9.05446800403297">
        <ele>761</ele>
        <time>2010-06-13T07:49:38Z</time>
      </trkpt>
      <trkpt lat="45.905513009056449" lon="9.054493987932801">
        <ele>762</ele>
        <time>2010-06-13T07:49:40Z</time>
      </trkpt>
      <trkpt lat="45.905513009056449" lon="9.054506979882717">
        <ele>761</ele>
        <time>2010-06-13T07:49:41Z</time>
      </trkpt>
      <trkpt lat="45.905521977692842" lon="9.054519971832633">
        <ele>762</ele>
        <time>2010-06-13T07:49:42Z</time>
      </trkpt>
      <trkpt lat="45.905541004613042" lon="9.054532963782549">
        <ele>762</ele>
        <time>2010-06-13T07:49:43Z</time>
      </trkpt>
      <trkpt lat="45.905548967421055" lon="9.054546039551497">
        <ele>762</ele>
        <time>2010-06-13T07:49:44Z</time>
      </trkpt>
      <trkpt lat="45.905548967421055" lon="9.054546039551497">
        <ele>762</ele>
        <time>2010-06-13T07:49:45Z</time>
      </trkpt>
      <trkpt lat="45.90555801987648" lon="9.054559031501412">
        <ele>763</ele>
        <time>2010-06-13T07:49:46Z</time>
      </trkpt>
      <trkpt lat="45.905576040968299" lon="9.054559031501412">
        <ele>763</ele>
        <time>2010-06-13T07:49:47Z</time>
      </trkpt>
      <trkpt lat="45.905585009604692" lon="9.054572023451328">
        <ele>764</ele>
        <time>2010-06-13T07:49:48Z</time>
      </trkpt>
      <trkpt lat="45.905593978241086" lon="9.054584009572864">
        <ele>764</ele>
        <time>2010-06-13T07:49:49Z</time>
      </trkpt>
      <trkpt lat="45.905603030696511" lon="9.05459700152278">
        <ele>763</ele>
        <time>2010-06-13T07:49:50Z</time>
      </trkpt>
      <trkpt lat="45.905611999332905" lon="9.054609993472695">
        <ele>764</ele>
        <time>2010-06-13T07:49:51Z</time>
      </trkpt>
      <trkpt lat="45.905630020424724" lon="9.054622985422611">
        <ele>765</ele>
        <time>2010-06-13T07:49:52Z</time>
      </trkpt>
      <trkpt lat="45.905630020424724" lon="9.054635977372527">
        <ele>765</ele>
        <time>2010-06-13T07:49:53Z</time>
      </trkpt>
      <trkpt lat="45.905648041516542" lon="9.054648969322443">
        <ele>765</ele>
        <time>2010-06-13T07:49:54Z</time>
      </trkpt>
      <trkpt lat="45.905657010152936" lon="9.054661961272359">
        <ele>765</ele>
        <time>2010-06-13T07:49:55Z</time>
      </trkpt>
      <trkpt lat="45.90566597878933" lon="9.054675037041307">
        <ele>766</ele>
        <time>2010-06-13T07:49:56Z</time>
      </trkpt>
      <trkpt lat="45.905692968517542" lon="9.054688028991222">
        <ele>766</ele>
        <time>2010-06-13T07:49:58Z</time>
      </trkpt>
      <trkpt lat="45.905702020972967" lon="9.054701020941138">
        <ele>765</ele>
        <time>2010-06-13T07:49:59Z</time>
      </trkpt>
      <trkpt lat="45.905710989609361" lon="9.054714012891054">
        <ele>766</ele>
        <time>2010-06-13T07:50:00Z</time>
      </trkpt>
      <trkpt lat="45.905719958245754" lon="9.05472599901259">
        <ele>766</ele>
        <time>2010-06-13T07:50:01Z</time>
      </trkpt>
      <trkpt lat="45.90572901070118" lon="9.054738990962505">
        <ele>766</ele>
        <time>2010-06-13T07:50:02Z</time>
      </trkpt>
      <trkpt lat="45.905747031792998" lon="9.054738990962505">
        <ele>766</ele>
        <time>2010-06-13T07:50:03Z</time>
      </trkpt>
      <trkpt lat="45.905756000429392" lon="9.054751982912421">
        <ele>766</ele>
        <time>2010-06-13T07:50:04Z</time>
      </trkpt>
      <trkpt lat="45.905764969065785" lon="9.054751982912421">
        <ele>766</ele>
        <time>2010-06-13T07:50:05Z</time>
      </trkpt>
      <trkpt lat="45.905774021521211" lon="9.054764974862337">
        <ele>766</ele>
        <time>2010-06-13T07:50:06Z</time>
      </trkpt>
      <trkpt lat="45.905774021521211" lon="9.054777966812253">
        <ele>766</ele>
        <time>2010-06-13T07:50:07Z</time>
      </trkpt>
      <trkpt lat="45.905782990157604" lon="9.054777966812253">
        <ele>767</ele>
        <time>2010-06-13T07:50:08Z</time>
      </trkpt>
      <trkpt lat="45.905791958793998" lon="9.054790958762169">
        <ele>767</ele>
        <time>2010-06-13T07:50:09Z</time>
      </trkpt>
      <trkpt lat="45.905791958793998" lon="9.054804034531117">
        <ele>767</ele>
        <time>2010-06-13T07:50:10Z</time>
      </trkpt>
      <trkpt lat="45.905801011249423" lon="9.054817026481032">
        <ele>767</ele>
        <time>2010-06-13T07:50:11Z</time>
      </trkpt>
      <trkpt lat="45.905809979885817" lon="9.054830018430948">
        <ele>767</ele>
        <time>2010-06-13T07:50:12Z</time>
      </trkpt>
      <trkpt lat="45.905819032341242" lon="9.054830018430948">
        <ele>767</ele>
        <time>2010-06-13T07:50:13Z</time>
      </trkpt>
      <trkpt lat="45.905828000977635" lon="9.054842004552484">
        <ele>767</ele>
        <time>2010-06-13T07:50:14Z</time>
      </trkpt>
      <trkpt lat="45.905836969614029" lon="9.05485600233078">
        <ele>768</ele>
        <time>2010-06-13T07:50:15Z</time>
      </trkpt>
      <trkpt lat="45.905836969614029" lon="9.05485600233078">
        <ele>768</ele>
        <time>2010-06-13T07:50:16Z</time>
      </trkpt>
      <trkpt lat="45.905836969614029" lon="9.054880980402231">
        <ele>769</ele>
        <time>2010-06-13T07:50:17Z</time>
      </trkpt>
      <trkpt lat="45.905846022069454" lon="9.054880980402231">
        <ele>769</ele>
        <time>2010-06-13T07:50:18Z</time>
      </trkpt>
      <trkpt lat="45.905846022069454" lon="9.054893972352147">
        <ele>768</ele>
        <time>2010-06-13T07:50:19Z</time>
      </trkpt>
      <trkpt lat="45.905854990705848" lon="9.054906964302063">
        <ele>768</ele>
        <time>2010-06-13T07:50:20Z</time>
      </trkpt>
      <trkpt lat="45.905854990705848" lon="9.054920040071011">
        <ele>768</ele>
        <time>2010-06-13T07:50:21Z</time>
      </trkpt>
      <trkpt lat="45.905863959342241" lon="9.054933032020927">
        <ele>768</ele>
        <time>2010-06-13T07:50:22Z</time>
      </trkpt>
      <trkpt lat="45.905873011797667" lon="9.054946023970842">
        <ele>768</ele>
        <time>2010-06-13T07:50:23Z</time>
      </trkpt>
      <trkpt lat="45.90588198043406" lon="9.054959015920758">
        <ele>768</ele>
        <time>2010-06-13T07:50:24Z</time>
      </trkpt>
      <trkpt lat="45.90588198043406" lon="9.054971002042294">
        <ele>768</ele>
        <time>2010-06-13T07:50:25Z</time>
      </trkpt>
      <trkpt lat="45.90588198043406" lon="9.054971002042294">
        <ele>768</ele>
        <time>2010-06-13T07:50:26Z</time>
      </trkpt>
      <trkpt lat="45.905891032889485" lon="9.054983993992209">
        <ele>769</ele>
        <time>2010-06-13T07:50:27Z</time>
      </trkpt>
      <trkpt lat="45.905891032889485" lon="9.054996985942125">
        <ele>769</ele>
        <time>2010-06-13T07:50:28Z</time>
      </trkpt>
      <trkpt lat="45.905891032889485" lon="9.055009977892041">
        <ele>769</ele>
        <time>2010-06-13T07:50:29Z</time>
      </trkpt>
      <trkpt lat="45.905900001525879" lon="9.055022969841957">
        <ele>769</ele>
        <time>2010-06-13T07:50:30Z</time>
      </trkpt>
      <trkpt lat="45.905908970162272" lon="9.055035961791873">
        <ele>769</ele>
        <time>2010-06-13T07:50:31Z</time>
      </trkpt>
      <trkpt lat="45.905918022617698" lon="9.055062029510737">
        <ele>769</ele>
        <time>2010-06-13T07:50:32Z</time>
      </trkpt>
      <trkpt lat="45.905918022617698" lon="9.055075021460652">
        <ele>769</ele>
        <time>2010-06-13T07:50:33Z</time>
      </trkpt>
      <trkpt lat="45.905926991254091" lon="9.055087007582188">
        <ele>769</ele>
        <time>2010-06-13T07:50:34Z</time>
      </trkpt>
      <trkpt lat="45.905935959890485" lon="9.055101005360484">
        <ele>769</ele>
        <time>2010-06-13T07:50:35Z</time>
      </trkpt>
      <trkpt lat="45.90594501234591" lon="9.055125983431935">
        <ele>769</ele>
        <time>2010-06-13T07:50:36Z</time>
      </trkpt>
      <trkpt lat="45.905953980982304" lon="9.055138975381851">
        <ele>769</ele>
        <time>2010-06-13T07:50:37Z</time>
      </trkpt>
      <trkpt lat="45.905953980982304" lon="9.055151967331767">
        <ele>769</ele>
        <time>2010-06-13T07:50:38Z</time>
      </trkpt>
      <trkpt lat="45.905953980982304" lon="9.055164959281683">
        <ele>770</ele>
        <time>2010-06-13T07:50:39Z</time>
      </trkpt>
      <trkpt lat="45.905963033437729" lon="9.055178035050631">
        <ele>770</ele>
        <time>2010-06-13T07:50:40Z</time>
      </trkpt>
      <trkpt lat="45.905972002074122" lon="9.055191027000547">
        <ele>770</ele>
        <time>2010-06-13T07:50:41Z</time>
      </trkpt>
      <trkpt lat="45.905972002074122" lon="9.055228997021914">
        <ele>770</ele>
        <time>2010-06-13T07:50:43Z</time>
      </trkpt>
      <trkpt lat="45.905980970710516" lon="9.055241988971829">
        <ele>770</ele>
        <time>2010-06-13T07:50:44Z</time>
      </trkpt>
      <trkpt lat="45.905980970710516" lon="9.055241988971829">
        <ele>771</ele>
        <time>2010-06-13T07:50:45Z</time>
      </trkpt>
      <trkpt lat="45.905980970710516" lon="9.055254980921745">
        <ele>771</ele>
        <time>2010-06-13T07:50:46Z</time>
      </trkpt>
      <trkpt lat="45.905980970710516" lon="9.055294040590525">
        <ele>771</ele>
        <time>2010-06-13T07:50:48Z</time>
      </trkpt>
      <trkpt lat="45.905980970710516" lon="9.055346008390188">
        <ele>771</ele>
        <time>2010-06-13T07:50:51Z</time>
      </trkpt>
      <trkpt lat="45.905980970710516" lon="9.055357994511724">
        <ele>771</ele>
        <time>2010-06-13T07:50:52Z</time>
      </trkpt>
      <trkpt lat="45.905980970710516" lon="9.055383978411555">
        <ele>772</ele>
        <time>2010-06-13T07:50:54Z</time>
      </trkpt>
      <trkpt lat="45.905980970710516" lon="9.055409962311387">
        <ele>772</ele>
        <time>2010-06-13T07:50:56Z</time>
      </trkpt>
      <trkpt lat="45.905972002074122" lon="9.055423038080335">
        <ele>772</ele>
        <time>2010-06-13T07:50:57Z</time>
      </trkpt>
      <trkpt lat="45.905963033437729" lon="9.055436030030251">
        <ele>772</ele>
        <time>2010-06-13T07:50:58Z</time>
      </trkpt>
      <trkpt lat="45.905963033437729" lon="9.055449021980166">
        <ele>772</ele>
        <time>2010-06-13T07:50:59Z</time>
      </trkpt>
      <trkpt lat="45.905963033437729" lon="9.055461008101702">
        <ele>773</ele>
        <time>2010-06-13T07:51:00Z</time>
      </trkpt>
      <trkpt lat="45.905963033437729" lon="9.055474000051618">
        <ele>773</ele>
        <time>2010-06-13T07:51:01Z</time>
      </trkpt>
      <trkpt lat="45.905963033437729" lon="9.055486992001534">
        <ele>773</ele>
        <time>2010-06-13T07:51:02Z</time>
      </trkpt>
      <trkpt lat="45.905963033437729" lon="9.055499983951449">
        <ele>773</ele>
        <time>2010-06-13T07:51:03Z</time>
      </trkpt>
      <trkpt lat="45.905963033437729" lon="9.055525967851281">
        <ele>773</ele>
        <time>2010-06-13T07:51:04Z</time>
      </trkpt>
      <trkpt lat="45.905953980982304" lon="9.055538959801197">
        <ele>774</ele>
        <time>2010-06-13T07:51:05Z</time>
      </trkpt>
      <trkpt lat="45.90594501234591" lon="9.055552035570145">
        <ele>773</ele>
        <time>2010-06-13T07:51:06Z</time>
      </trkpt>
      <trkpt lat="45.905935959890485" lon="9.055552035570145">
        <ele>774</ele>
        <time>2010-06-13T07:51:07Z</time>
      </trkpt>
      <trkpt lat="45.905935959890485" lon="9.055565027520061">
        <ele>773</ele>
        <time>2010-06-13T07:51:08Z</time>
      </trkpt>
      <trkpt lat="45.905926991254091" lon="9.055578019469976">
        <ele>774</ele>
        <time>2010-06-13T07:51:09Z</time>
      </trkpt>
      <trkpt lat="45.905918022617698" lon="9.055590005591512">
        <ele>775</ele>
        <time>2010-06-13T07:51:10Z</time>
      </trkpt>
      <trkpt lat="45.905926991254091" lon="9.055615989491344">
        <ele>774</ele>
        <time>2010-06-13T07:51:12Z</time>
      </trkpt>
      <trkpt lat="45.905926991254091" lon="9.055615989491344">
        <ele>774</ele>
        <time>2010-06-13T07:51:13Z</time>
      </trkpt>
      <trkpt lat="45.905935959890485" lon="9.055668041110039">
        <ele>774</ele>
        <time>2010-06-13T07:51:15Z</time>
      </trkpt>
      <trkpt lat="45.905935959890485" lon="9.055681033059955">
        <ele>774</ele>
        <time>2010-06-13T07:51:16Z</time>
      </trkpt>
      <trkpt lat="45.90594501234591" lon="9.055706011131406">
        <ele>774</ele>
        <time>2010-06-13T07:51:17Z</time>
      </trkpt>
      <trkpt lat="45.905953980982304" lon="9.055719003081322">
        <ele>774</ele>
        <time>2010-06-13T07:51:18Z</time>
      </trkpt>
      <trkpt lat="45.905972002074122" lon="9.055731995031238">
        <ele>774</ele>
        <time>2010-06-13T07:51:19Z</time>
      </trkpt>
      <trkpt lat="45.905980970710516" lon="9.055744986981154">
        <ele>774</ele>
        <time>2010-06-13T07:51:20Z</time>
      </trkpt>
      <trkpt lat="45.905998991802335" lon="9.055731995031238">
        <ele>774</ele>
        <time>2010-06-13T07:51:21Z</time>
      </trkpt>
      <trkpt lat="45.906017012894154" lon="9.055731995031238">
        <ele>774</ele>
        <time>2010-06-13T07:51:22Z</time>
      </trkpt>
      <trkpt lat="45.906035033985972" lon="9.055731995031238">
        <ele>774</ele>
        <time>2010-06-13T07:51:23Z</time>
      </trkpt>
      <trkpt lat="45.906044002622366" lon="9.055719003081322">
        <ele>774</ele>
        <time>2010-06-13T07:51:24Z</time>
      </trkpt>
      <trkpt lat="45.906052971258759" lon="9.055707016959786">
        <ele>774</ele>
        <time>2010-06-13T07:51:25Z</time>
      </trkpt>
      <trkpt lat="45.906062023714185" lon="9.055707016959786">
        <ele>774</ele>
        <time>2010-06-13T07:51:26Z</time>
      </trkpt>
      <trkpt lat="45.906079960986972" lon="9.055694025009871">
        <ele>774</ele>
        <time>2010-06-13T07:51:27Z</time>
      </trkpt>
      <trkpt lat="45.906097982078791" lon="9.055694025009871">
        <ele>774</ele>
        <time>2010-06-13T07:51:28Z</time>
      </trkpt>
      <trkpt lat="45.906107034534216" lon="9.055681033059955">
        <ele>774</ele>
        <time>2010-06-13T07:51:29Z</time>
      </trkpt>
      <trkpt lat="45.906116003170609" lon="9.055681033059955">
        <ele>774</ele>
        <time>2010-06-13T07:51:30Z</time>
      </trkpt>
      <trkpt lat="45.906134024262428" lon="9.055668041110039">
        <ele>774</ele>
        <time>2010-06-13T07:51:31Z</time>
      </trkpt>
      <trkpt lat="45.906142992898822" lon="9.055654965341091">
        <ele>774</ele>
        <time>2010-06-13T07:51:32Z</time>
      </trkpt>
      <trkpt lat="45.906161013990641" lon="9.055641973391175">
        <ele>774</ele>
        <time>2010-06-13T07:51:33Z</time>
      </trkpt>
      <trkpt lat="45.906179035082459" lon="9.055641973391175">
        <ele>774</ele>
        <time>2010-06-13T07:51:34Z</time>
      </trkpt>
      <trkpt lat="45.906188003718853" lon="9.055641973391175">
        <ele>775</ele>
        <time>2010-06-13T07:51:35Z</time>
      </trkpt>
      <trkpt lat="45.906206024810672" lon="9.055641973391175">
        <ele>775</ele>
        <time>2010-06-13T07:51:36Z</time>
      </trkpt>
      <trkpt lat="45.906223962083459" lon="9.055641973391175">
        <ele>774</ele>
        <time>2010-06-13T07:51:37Z</time>
      </trkpt>
      <trkpt lat="45.906241983175278" lon="9.055654965341091">
        <ele>775</ele>
        <time>2010-06-13T07:51:38Z</time>
      </trkpt>
      <trkpt lat="45.906251035630703" lon="9.055654965341091">
        <ele>775</ele>
        <time>2010-06-13T07:51:39Z</time>
      </trkpt>
      <trkpt lat="45.90626897290349" lon="9.055668041110039">
        <ele>774</ele>
        <time>2010-06-13T07:51:40Z</time>
      </trkpt>
      <trkpt lat="45.906278025358915" lon="9.055654965341091">
        <ele>774</ele>
        <time>2010-06-13T07:51:41Z</time>
      </trkpt>
      <trkpt lat="45.906286993995309" lon="9.055654965341091">
        <ele>775</ele>
        <time>2010-06-13T07:51:42Z</time>
      </trkpt>
      <trkpt lat="45.906295962631702" lon="9.055668041110039">
        <ele>775</ele>
        <time>2010-06-13T07:51:43Z</time>
      </trkpt>
      <trkpt lat="45.906305015087128" lon="9.055668041110039">
        <ele>775</ele>
        <time>2010-06-13T07:51:44Z</time>
      </trkpt>
      <trkpt lat="45.906313983723521" lon="9.055681033059955">
        <ele>775</ele>
        <time>2010-06-13T07:51:45Z</time>
      </trkpt>
      <trkpt lat="45.90633200481534" lon="9.055681033059955">
        <ele>775</ele>
        <time>2010-06-13T07:51:46Z</time>
      </trkpt>
      <trkpt lat="45.906340973451734" lon="9.055694025009871">
        <ele>775</ele>
        <time>2010-06-13T07:51:47Z</time>
      </trkpt>
      <trkpt lat="45.906350025907159" lon="9.055707016959786">
        <ele>775</ele>
        <time>2010-06-13T07:51:48Z</time>
      </trkpt>
      <trkpt lat="45.906358994543552" lon="9.055720008909702">
        <ele>775</ele>
        <time>2010-06-13T07:51:49Z</time>
      </trkpt>
      <trkpt lat="45.906377015635371" lon="9.055733000859618">
        <ele>774</ele>
        <time>2010-06-13T07:51:50Z</time>
      </trkpt>
      <trkpt lat="45.906385984271765" lon="9.055745992809534">
        <ele>774</ele>
        <time>2010-06-13T07:51:51Z</time>
      </trkpt>
      <trkpt lat="45.906404005363584" lon="9.055745992809534">
        <ele>774</ele>
        <time>2010-06-13T07:51:52Z</time>
      </trkpt>
      <trkpt lat="45.906412973999977" lon="9.05575898475945">
        <ele>775</ele>
        <time>2010-06-13T07:51:53Z</time>
      </trkpt>
      <trkpt lat="45.906430995091796" lon="9.055770970880985">
        <ele>775</ele>
        <time>2010-06-13T07:51:54Z</time>
      </trkpt>
      <trkpt lat="45.906439963728189" lon="9.055783962830901">
        <ele>776</ele>
        <time>2010-06-13T07:51:55Z</time>
      </trkpt>
      <trkpt lat="45.906449016183615" lon="9.055797038599849">
        <ele>776</ele>
        <time>2010-06-13T07:51:56Z</time>
      </trkpt>
      <trkpt lat="45.906457984820008" lon="9.055810030549765">
        <ele>776</ele>
        <time>2010-06-13T07:51:57Z</time>
      </trkpt>
      <trkpt lat="45.906467037275434" lon="9.055823022499681">
        <ele>776</ele>
        <time>2010-06-13T07:51:58Z</time>
      </trkpt>
      <trkpt lat="45.906476005911827" lon="9.055836014449596">
        <ele>776</ele>
        <time>2010-06-13T07:51:59Z</time>
      </trkpt>
      <trkpt lat="45.906484974548221" lon="9.055849006399512">
        <ele>776</ele>
        <time>2010-06-13T07:52:00Z</time>
      </trkpt>
      <trkpt lat="45.906494027003646" lon="9.055849006399512">
        <ele>776</ele>
        <time>2010-06-13T07:52:01Z</time>
      </trkpt>
      <trkpt lat="45.906502995640039" lon="9.055861998349428">
        <ele>777</ele>
        <time>2010-06-13T07:52:02Z</time>
      </trkpt>
      <trkpt lat="45.906521016731858" lon="9.055874990299344">
        <ele>777</ele>
        <time>2010-06-13T07:52:03Z</time>
      </trkpt>
      <trkpt lat="45.906529985368252" lon="9.055886976420879">
        <ele>776</ele>
        <time>2010-06-13T07:52:04Z</time>
      </trkpt>
      <trkpt lat="45.906539037823677" lon="9.055900974199176">
        <ele>777</ele>
        <time>2010-06-13T07:52:05Z</time>
      </trkpt>
      <trkpt lat="45.906548006460071" lon="9.055900974199176">
        <ele>777</ele>
        <time>2010-06-13T07:52:06Z</time>
      </trkpt>
      <trkpt lat="45.906566027551889" lon="9.055926036089659">
        <ele>778</ele>
        <time>2010-06-13T07:52:07Z</time>
      </trkpt>
      <trkpt lat="45.906574996188283" lon="9.055939028039575">
        <ele>778</ele>
        <time>2010-06-13T07:52:08Z</time>
      </trkpt>
      <trkpt lat="45.906583964824677" lon="9.055952019989491">
        <ele>778</ele>
        <time>2010-06-13T07:52:09Z</time>
      </trkpt>
      <trkpt lat="45.906583964824677" lon="9.055965011939406">
        <ele>779</ele>
        <time>2010-06-13T07:52:10Z</time>
      </trkpt>
      <trkpt lat="45.906593017280102" lon="9.055965011939406">
        <ele>778</ele>
        <time>2010-06-13T07:52:11Z</time>
      </trkpt>
      <trkpt lat="45.906593017280102" lon="9.055978003889322">
        <ele>778</ele>
        <time>2010-06-13T07:52:12Z</time>
      </trkpt>
      <trkpt lat="45.906601985916495" lon="9.056003987789154">
        <ele>778</ele>
        <time>2010-06-13T07:52:13Z</time>
      </trkpt>
      <trkpt lat="45.906601985916495" lon="9.05601697973907">
        <ele>779</ele>
        <time>2010-06-13T07:52:14Z</time>
      </trkpt>
      <trkpt lat="45.906601985916495" lon="9.056028965860605">
        <ele>780</ele>
        <time>2010-06-13T07:52:15Z</time>
      </trkpt>
      <trkpt lat="45.906611038371921" lon="9.056055033579469">
        <ele>780</ele>
        <time>2010-06-13T07:52:16Z</time>
      </trkpt>
      <trkpt lat="45.906611038371921" lon="9.056081017479301">
        <ele>780</ele>
        <time>2010-06-13T07:52:18Z</time>
      </trkpt>
      <trkpt lat="45.906611038371921" lon="9.056107001379132">
        <ele>780</ele>
        <time>2010-06-13T07:52:19Z</time>
      </trkpt>
      <trkpt lat="45.906620007008314" lon="9.056119993329048">
        <ele>781</ele>
        <time>2010-06-13T07:52:20Z</time>
      </trkpt>
      <trkpt lat="45.906628975644708" lon="9.05614597722888">
        <ele>781</ele>
        <time>2010-06-13T07:52:22Z</time>
      </trkpt>
      <trkpt lat="45.906628975644708" lon="9.056157963350415">
        <ele>781</ele>
        <time>2010-06-13T07:52:23Z</time>
      </trkpt>
      <trkpt lat="45.906638028100133" lon="9.056171039119363">
        <ele>781</ele>
        <time>2010-06-13T07:52:24Z</time>
      </trkpt>
      <trkpt lat="45.906638028100133" lon="9.056184031069279">
        <ele>781</ele>
        <time>2010-06-13T07:52:25Z</time>
      </trkpt>
      <trkpt lat="45.906638028100133" lon="9.056210014969111">
        <ele>781</ele>
        <time>2010-06-13T07:52:26Z</time>
      </trkpt>
      <trkpt lat="45.906638028100133" lon="9.056223006919026">
        <ele>781</ele>
        <time>2010-06-13T07:52:27Z</time>
      </trkpt>
      <trkpt lat="45.906638028100133" lon="9.056235998868942">
        <ele>782</ele>
        <time>2010-06-13T07:52:28Z</time>
      </trkpt>
      <trkpt lat="45.906628975644708" lon="9.056248990818858">
        <ele>782</ele>
        <time>2010-06-13T07:52:29Z</time>
      </trkpt>
      <trkpt lat="45.906628975644708" lon="9.056261982768774">
        <ele>783</ele>
        <time>2010-06-13T07:52:30Z</time>
      </trkpt>
      <trkpt lat="45.906628975644708" lon="9.056273968890309">
        <ele>783</ele>
        <time>2010-06-13T07:52:31Z</time>
      </trkpt>
      <trkpt lat="45.906628975644708" lon="9.056313028559089">
        <ele>782</ele>
        <time>2010-06-13T07:52:33Z</time>
      </trkpt>
      <trkpt lat="45.906637022271752" lon="9.056326020509005">
        <ele>782</ele>
        <time>2010-06-13T07:52:34Z</time>
      </trkpt>
      <trkpt lat="45.90665596537292" lon="9.056339012458921">
        <ele>782</ele>
        <time>2010-06-13T07:52:35Z</time>
      </trkpt>
      <trkpt lat="45.906665017828345" lon="9.056352004408836">
        <ele>782</ele>
        <time>2010-06-13T07:52:36Z</time>
      </trkpt>
      <trkpt lat="45.906673986464739" lon="9.056352004408836">
        <ele>782</ele>
        <time>2010-06-13T07:52:37Z</time>
      </trkpt>
      <trkpt lat="45.906682033091784" lon="9.056364996358752">
        <ele>782</ele>
        <time>2010-06-13T07:52:38Z</time>
      </trkpt>
      <trkpt lat="45.906700976192951" lon="9.056364996358752">
        <ele>783</ele>
        <time>2010-06-13T07:52:39Z</time>
      </trkpt>
      <trkpt lat="45.906726960092783" lon="9.056364996358752">
        <ele>784</ele>
        <time>2010-06-13T07:52:41Z</time>
      </trkpt>
      <trkpt lat="45.906737018376589" lon="9.056364996358752">
        <ele>784</ele>
        <time>2010-06-13T07:52:42Z</time>
      </trkpt>
      <trkpt lat="45.906745987012982" lon="9.056364996358752">
        <ele>784</ele>
        <time>2010-06-13T07:52:43Z</time>
      </trkpt>
      <trkpt lat="45.906755039468408" lon="9.056364996358752">
        <ele>784</ele>
        <time>2010-06-13T07:52:44Z</time>
      </trkpt>
      <trkpt lat="45.906764008104801" lon="9.056352004408836">
        <ele>784</ele>
        <time>2010-06-13T07:52:45Z</time>
      </trkpt>
      <trkpt lat="45.90678202919662" lon="9.056352004408836">
        <ele>784</ele>
        <time>2010-06-13T07:52:46Z</time>
      </trkpt>
      <trkpt lat="45.906790997833014" lon="9.056339012458921">
        <ele>784</ele>
        <time>2010-06-13T07:52:47Z</time>
      </trkpt>
      <trkpt lat="45.906799966469407" lon="9.056339012458921">
        <ele>784</ele>
        <time>2010-06-13T07:52:48Z</time>
      </trkpt>
      <trkpt lat="45.906816981732845" lon="9.056326020509005">
        <ele>784</ele>
        <time>2010-06-13T07:52:49Z</time>
      </trkpt>
      <trkpt lat="45.906827040016651" lon="9.056326020509005">
        <ele>784</ele>
        <time>2010-06-13T07:52:50Z</time>
      </trkpt>
      <trkpt lat="45.906844977289438" lon="9.056326020509005">
        <ele>785</ele>
        <time>2010-06-13T07:52:51Z</time>
      </trkpt>
      <trkpt lat="45.906861992552876" lon="9.056326020509005">
        <ele>785</ele>
        <time>2010-06-13T07:52:52Z</time>
      </trkpt>
      <trkpt lat="45.906871967017651" lon="9.056326020509005">
        <ele>784</ele>
        <time>2010-06-13T07:52:53Z</time>
      </trkpt>
      <trkpt lat="45.906881019473076" lon="9.056313028559089">
        <ele>784</ele>
        <time>2010-06-13T07:52:54Z</time>
      </trkpt>
      <trkpt lat="45.906899040564895" lon="9.056313028559089">
        <ele>784</ele>
        <time>2010-06-13T07:52:55Z</time>
      </trkpt>
      <trkpt lat="45.906908009201288" lon="9.056313028559089">
        <ele>784</ele>
        <time>2010-06-13T07:52:56Z</time>
      </trkpt>
      <trkpt lat="45.906916977837682" lon="9.056313028559089">
        <ele>785</ele>
        <time>2010-06-13T07:52:57Z</time>
      </trkpt>
      <trkpt lat="45.906926030293107" lon="9.056313028559089">
        <ele>785</ele>
        <time>2010-06-13T07:52:58Z</time>
      </trkpt>
      <trkpt lat="45.906934998929501" lon="9.056313028559089">
        <ele>785</ele>
        <time>2010-06-13T07:52:59Z</time>
      </trkpt>
      <trkpt lat="45.906953020021319" lon="9.056313028559089">
        <ele>785</ele>
        <time>2010-06-13T07:53:00Z</time>
      </trkpt>
      <trkpt lat="45.906971041113138" lon="9.056313028559089">
        <ele>785</ele>
        <time>2010-06-13T07:53:01Z</time>
      </trkpt>
      <trkpt lat="45.906980009749532" lon="9.056313028559089">
        <ele>785</ele>
        <time>2010-06-13T07:53:02Z</time>
      </trkpt>
      <trkpt lat="45.906988978385925" lon="9.056326020509005">
        <ele>785</ele>
        <time>2010-06-13T07:53:03Z</time>
      </trkpt>
      <trkpt lat="45.907006999477744" lon="9.056326020509005">
        <ele>786</ele>
        <time>2010-06-13T07:53:04Z</time>
      </trkpt>
      <trkpt lat="45.907015968114138" lon="9.056339012458921">
        <ele>786</ele>
        <time>2010-06-13T07:53:05Z</time>
      </trkpt>
      <trkpt lat="45.907025020569563" lon="9.056339012458921">
        <ele>786</ele>
        <time>2010-06-13T07:53:06Z</time>
      </trkpt>
      <trkpt lat="45.907033989205956" lon="9.056352004408836">
        <ele>786</ele>
        <time>2010-06-13T07:53:07Z</time>
      </trkpt>
      <trkpt lat="45.907042035833001" lon="9.056352004408836">
        <ele>786</ele>
        <time>2010-06-13T07:53:08Z</time>
      </trkpt>
      <trkpt lat="45.907052010297775" lon="9.056364996358752">
        <ele>786</ele>
        <time>2010-06-13T07:53:09Z</time>
      </trkpt>
      <trkpt lat="45.907060978934169" lon="9.056377988308668">
        <ele>786</ele>
        <time>2010-06-13T07:53:10Z</time>
      </trkpt>
      <trkpt lat="45.907070031389594" lon="9.056390980258584">
        <ele>786</ele>
        <time>2010-06-13T07:53:11Z</time>
      </trkpt>
      <trkpt lat="45.907086962834001" lon="9.056390980258584">
        <ele>786</ele>
        <time>2010-06-13T07:53:12Z</time>
      </trkpt>
      <trkpt lat="45.907086962834001" lon="9.0564039722085">
        <ele>787</ele>
        <time>2010-06-13T07:53:13Z</time>
      </trkpt>
      <trkpt lat="45.907097021117806" lon="9.056416964158416">
        <ele>786</ele>
        <time>2010-06-13T07:53:14Z</time>
      </trkpt>
      <trkpt lat="45.9071059897542" lon="9.056430039927363">
        <ele>786</ele>
        <time>2010-06-13T07:53:15Z</time>
      </trkpt>
      <trkpt lat="45.907114958390594" lon="9.056442026048899">
        <ele>786</ele>
        <time>2010-06-13T07:53:16Z</time>
      </trkpt>
      <trkpt lat="45.907124010846019" lon="9.056456023827195">
        <ele>786</ele>
        <time>2010-06-13T07:53:17Z</time>
      </trkpt>
      <trkpt lat="45.907131973654032" lon="9.056468009948731">
        <ele>786</ele>
        <time>2010-06-13T07:53:18Z</time>
      </trkpt>
      <trkpt lat="45.907142031937838" lon="9.056481001898646">
        <ele>786</ele>
        <time>2010-06-13T07:53:19Z</time>
      </trkpt>
      <trkpt lat="45.907151000574231" lon="9.056493993848562">
        <ele>786</ele>
        <time>2010-06-13T07:53:20Z</time>
      </trkpt>
      <trkpt lat="45.907158963382244" lon="9.056519977748394">
        <ele>786</ele>
        <time>2010-06-13T07:53:21Z</time>
      </trkpt>
      <trkpt lat="45.90716902166605" lon="9.05653296969831">
        <ele>787</ele>
        <time>2010-06-13T07:53:22Z</time>
      </trkpt>
      <trkpt lat="45.907176984474063" lon="9.056545961648226">
        <ele>787</ele>
        <time>2010-06-13T07:53:23Z</time>
      </trkpt>
      <trkpt lat="45.907186958938837" lon="9.056559037417173">
        <ele>787</ele>
        <time>2010-06-13T07:53:24Z</time>
      </trkpt>
      <trkpt lat="45.907196011394262" lon="9.056572029367089">
        <ele>787</ele>
        <time>2010-06-13T07:53:25Z</time>
      </trkpt>
      <trkpt lat="45.907196011394262" lon="9.056584015488625">
        <ele>787</ele>
        <time>2010-06-13T07:53:26Z</time>
      </trkpt>
      <trkpt lat="45.907203974202275" lon="9.056597007438541">
        <ele>786</ele>
        <time>2010-06-13T07:53:27Z</time>
      </trkpt>
      <trkpt lat="45.907214032486081" lon="9.056609999388456">
        <ele>787</ele>
        <time>2010-06-13T07:53:28Z</time>
      </trkpt>
      <trkpt lat="45.907214032486081" lon="9.056609999388456">
        <ele>787</ele>
        <time>2010-06-13T07:53:29Z</time>
      </trkpt>
      <trkpt lat="45.907221995294094" lon="9.056622991338372">
        <ele>788</ele>
        <time>2010-06-13T07:53:30Z</time>
      </trkpt>
      <trkpt lat="45.907230963930488" lon="9.056635983288288">
        <ele>789</ele>
        <time>2010-06-13T07:53:31Z</time>
      </trkpt>
      <trkpt lat="45.907241022214293" lon="9.056635983288288">
        <ele>788</ele>
        <time>2010-06-13T07:53:32Z</time>
      </trkpt>
      <trkpt lat="45.907248985022306" lon="9.056648975238204">
        <ele>788</ele>
        <time>2010-06-13T07:53:33Z</time>
      </trkpt>
      <trkpt lat="45.907267006114125" lon="9.05666196718812">
        <ele>788</ele>
        <time>2010-06-13T07:53:34Z</time>
      </trkpt>
      <trkpt lat="45.907275974750519" lon="9.056674959138036">
        <ele>788</ele>
        <time>2010-06-13T07:53:35Z</time>
      </trkpt>
      <trkpt lat="45.907286033034325" lon="9.056688034906983">
        <ele>788</ele>
        <time>2010-06-13T07:53:36Z</time>
      </trkpt>
      <trkpt lat="45.907293995842338" lon="9.056701026856899">
        <ele>787</ele>
        <time>2010-06-13T07:53:37Z</time>
      </trkpt>
      <trkpt lat="45.907303970307112" lon="9.056701026856899">
        <ele>788</ele>
        <time>2010-06-13T07:53:38Z</time>
      </trkpt>
      <trkpt lat="45.907312016934156" lon="9.056713012978435">
        <ele>788</ele>
        <time>2010-06-13T07:53:39Z</time>
      </trkpt>
      <trkpt lat="45.90732098557055" lon="9.05672600492835">
        <ele>788</ele>
        <time>2010-06-13T07:53:40Z</time>
      </trkpt>
      <trkpt lat="45.907330960035324" lon="9.056738996878266">
        <ele>789</ele>
        <time>2010-06-13T07:53:41Z</time>
      </trkpt>
      <trkpt lat="45.907330960035324" lon="9.056751988828182">
        <ele>789</ele>
        <time>2010-06-13T07:53:42Z</time>
      </trkpt>
      <trkpt lat="45.907339006662369" lon="9.056764980778098">
        <ele>789</ele>
        <time>2010-06-13T07:53:43Z</time>
      </trkpt>
      <trkpt lat="45.907347975298762" lon="9.05679096467793">
        <ele>789</ele>
        <time>2010-06-13T07:53:45Z</time>
      </trkpt>
      <trkpt lat="45.907347975298762" lon="9.056804040446878">
        <ele>790</ele>
        <time>2010-06-13T07:53:46Z</time>
      </trkpt>
      <trkpt lat="45.907347975298762" lon="9.056829018518329">
        <ele>790</ele>
        <time>2010-06-13T07:53:47Z</time>
      </trkpt>
      <trkpt lat="45.907357027754188" lon="9.056843016296625">
        <ele>790</ele>
        <time>2010-06-13T07:53:48Z</time>
      </trkpt>
      <trkpt lat="45.907357027754188" lon="9.05685500241816">
        <ele>790</ele>
        <time>2010-06-13T07:53:49Z</time>
      </trkpt>
      <trkpt lat="45.907357027754188" lon="9.05685500241816">
        <ele>790</ele>
        <time>2010-06-13T07:53:50Z</time>
      </trkpt>
      <trkpt lat="45.907365996390581" lon="9.056867994368076">
        <ele>790</ele>
        <time>2010-06-13T07:53:51Z</time>
      </trkpt>
      <trkpt lat="45.907365996390581" lon="9.056880986317992">
        <ele>790</ele>
        <time>2010-06-13T07:53:52Z</time>
      </trkpt>
      <trkpt lat="45.907365996390581" lon="9.056893978267908">
        <ele>790</ele>
        <time>2010-06-13T07:53:53Z</time>
      </trkpt>
      <trkpt lat="45.907374965026975" lon="9.05691996216774">
        <ele>790</ele>
        <time>2010-06-13T07:53:54Z</time>
      </trkpt>
      <trkpt lat="45.907374965026975" lon="9.056933037936688">
        <ele>790</ele>
        <time>2010-06-13T07:53:55Z</time>
      </trkpt>
      <trkpt lat="45.907374965026975" lon="9.056946029886603">
        <ele>790</ele>
        <time>2010-06-13T07:53:56Z</time>
      </trkpt>
      <trkpt lat="45.9073840174824" lon="9.056959021836519">
        <ele>791</ele>
        <time>2010-06-13T07:53:57Z</time>
      </trkpt>
      <trkpt lat="45.9073840174824" lon="9.056996991857886">
        <ele>790</ele>
        <time>2010-06-13T07:53:59Z</time>
      </trkpt>
      <trkpt lat="45.907392986118793" lon="9.056996991857886">
        <ele>790</ele>
        <time>2010-06-13T07:54:00Z</time>
      </trkpt>
      <trkpt lat="45.907402038574219" lon="9.057009983807802">
        <ele>790</ele>
        <time>2010-06-13T07:54:01Z</time>
      </trkpt>
      <trkpt lat="45.907402038574219" lon="9.057022975757718">
        <ele>791</ele>
        <time>2010-06-13T07:54:02Z</time>
      </trkpt>
      <trkpt lat="45.907402038574219" lon="9.057035967707634">
        <ele>791</ele>
        <time>2010-06-13T07:54:03Z</time>
      </trkpt>
      <trkpt lat="45.907411007210612" lon="9.057074021548033">
        <ele>791</ele>
        <time>2010-06-13T07:54:05Z</time>
      </trkpt>
      <trkpt lat="45.907411007210612" lon="9.057074021548033">
        <ele>791</ele>
        <time>2010-06-13T07:54:06Z</time>
      </trkpt>
      <trkpt lat="45.907411007210612" lon="9.05711299739778">
        <ele>792</ele>
        <time>2010-06-13T07:54:09Z</time>
      </trkpt>
      <trkpt lat="45.907411007210612" lon="9.057138981297612">
        <ele>792</ele>
        <time>2010-06-13T07:54:11Z</time>
      </trkpt>
      <trkpt lat="45.907419975847006" lon="9.057151973247528">
        <ele>792</ele>
        <time>2010-06-13T07:54:12Z</time>
      </trkpt>
      <trkpt lat="45.907411007210612" lon="9.057164965197444">
        <ele>792</ele>
        <time>2010-06-13T07:54:13Z</time>
      </trkpt>
      <trkpt lat="45.907411007210612" lon="9.057178040966392">
        <ele>793</ele>
        <time>2010-06-13T07:54:14Z</time>
      </trkpt>
      <trkpt lat="45.907419975847006" lon="9.057204024866223">
        <ele>793</ele>
        <time>2010-06-13T07:54:16Z</time>
      </trkpt>
      <trkpt lat="45.907411007210612" lon="9.057216010987759">
        <ele>793</ele>
        <time>2010-06-13T07:54:17Z</time>
      </trkpt>
      <trkpt lat="45.907411007210612" lon="9.057229002937675">
        <ele>793</ele>
        <time>2010-06-13T07:54:19Z</time>
      </trkpt>
      <trkpt lat="45.907402038574219" lon="9.05724199488759">
        <ele>794</ele>
        <time>2010-06-13T07:54:20Z</time>
      </trkpt>
      <trkpt lat="45.907411007210612" lon="9.057254986837506">
        <ele>794</ele>
        <time>2010-06-13T07:54:21Z</time>
      </trkpt>
      <trkpt lat="45.907411007210612" lon="9.057267978787422">
        <ele>794</ele>
        <time>2010-06-13T07:54:23Z</time>
      </trkpt>
      <trkpt lat="45.907419975847006" lon="9.057280970737338">
        <ele>793</ele>
        <time>2010-06-13T07:54:24Z</time>
      </trkpt>
      <trkpt lat="45.907419975847006" lon="9.057293962687254">
        <ele>794</ele>
        <time>2010-06-13T07:54:25Z</time>
      </trkpt>
      <trkpt lat="45.907419975847006" lon="9.057307038456202">
        <ele>794</ele>
        <time>2010-06-13T07:54:26Z</time>
      </trkpt>
      <trkpt lat="45.907429028302431" lon="9.057319024577737">
        <ele>795</ele>
        <time>2010-06-13T07:54:27Z</time>
      </trkpt>
      <trkpt lat="45.907437996938825" lon="9.057332016527653">
        <ele>795</ele>
        <time>2010-06-13T07:54:28Z</time>
      </trkpt>
      <trkpt lat="45.907446965575218" lon="9.057345008477569">
        <ele>795</ele>
        <time>2010-06-13T07:54:29Z</time>
      </trkpt>
      <trkpt lat="45.907464986667037" lon="9.057345008477569">
        <ele>794</ele>
        <time>2010-06-13T07:54:30Z</time>
      </trkpt>
      <trkpt lat="45.907474039122462" lon="9.057358000427485">
        <ele>794</ele>
        <time>2010-06-13T07:54:31Z</time>
      </trkpt>
      <trkpt lat="45.907491976395249" lon="9.057358000427485">
        <ele>794</ele>
        <time>2010-06-13T07:54:32Z</time>
      </trkpt>
      <trkpt lat="45.907501028850675" lon="9.057358000427485">
        <ele>795</ele>
        <time>2010-06-13T07:54:33Z</time>
      </trkpt>
      <trkpt lat="45.907509997487068" lon="9.057346014305949">
        <ele>795</ele>
        <time>2010-06-13T07:54:34Z</time>
      </trkpt>
      <trkpt lat="45.907518966123462" lon="9.057358000427485">
        <ele>795</ele>
        <time>2010-06-13T07:54:35Z</time>
      </trkpt>
      <trkpt lat="45.907536987215281" lon="9.057358000427485">
        <ele>795</ele>
        <time>2010-06-13T07:54:36Z</time>
      </trkpt>
      <trkpt lat="45.907546039670706" lon="9.057358000427485">
        <ele>795</ele>
        <time>2010-06-13T07:54:37Z</time>
      </trkpt>
      <trkpt lat="45.907555008307099" lon="9.0573709923774">
        <ele>796</ele>
        <time>2010-06-13T07:54:38Z</time>
      </trkpt>
      <trkpt lat="45.907573029398918" lon="9.0573709923774">
        <ele>796</ele>
        <time>2010-06-13T07:54:39Z</time>
      </trkpt>
      <trkpt lat="45.907600019127131" lon="9.0573709923774">
        <ele>795</ele>
        <time>2010-06-13T07:54:41Z</time>
      </trkpt>
      <trkpt lat="45.907608987763524" lon="9.057383984327316">
        <ele>795</ele>
        <time>2010-06-13T07:54:42Z</time>
      </trkpt>
      <trkpt lat="45.907627008855343" lon="9.057396976277232">
        <ele>795</ele>
        <time>2010-06-13T07:54:43Z</time>
      </trkpt>
      <trkpt lat="45.907645029947162" lon="9.057409968227148">
        <ele>795</ele>
        <time>2010-06-13T07:54:44Z</time>
      </trkpt>
      <trkpt lat="45.907653998583555" lon="9.057409968227148">
        <ele>795</ele>
        <time>2010-06-13T07:54:45Z</time>
      </trkpt>
      <trkpt lat="45.907672019675374" lon="9.057422960177064">
        <ele>795</ele>
        <time>2010-06-13T07:54:46Z</time>
      </trkpt>
      <trkpt lat="45.907690040767193" lon="9.057422960177064">
        <ele>795</ele>
        <time>2010-06-13T07:54:47Z</time>
      </trkpt>
      <trkpt lat="45.90770797803998" lon="9.057422960177064">
        <ele>795</ele>
        <time>2010-06-13T07:54:48Z</time>
      </trkpt>
      <trkpt lat="45.907725999131799" lon="9.057422960177064">
        <ele>796</ele>
        <time>2010-06-13T07:54:49Z</time>
      </trkpt>
      <trkpt lat="45.907744020223618" lon="9.057422960177064">
        <ele>796</ele>
        <time>2010-06-13T07:54:50Z</time>
      </trkpt>
      <trkpt lat="45.907762041315436" lon="9.057436035946012">
        <ele>796</ele>
        <time>2010-06-13T07:54:51Z</time>
      </trkpt>
      <trkpt lat="45.907779978588223" lon="9.057436035946012">
        <ele>796</ele>
        <time>2010-06-13T07:54:52Z</time>
      </trkpt>
      <trkpt lat="45.907806968316436" lon="9.057449027895927">
        <ele>796</ele>
        <time>2010-06-13T07:54:54Z</time>
      </trkpt>
      <trkpt lat="45.907816020771861" lon="9.057449027895927">
        <ele>797</ele>
        <time>2010-06-13T07:54:55Z</time>
      </trkpt>
      <trkpt lat="45.907824989408255" lon="9.057462019845843">
        <ele>796</ele>
        <time>2010-06-13T07:54:56Z</time>
      </trkpt>
      <trkpt lat="45.90783404186368" lon="9.057475011795759">
        <ele>797</ele>
        <time>2010-06-13T07:54:57Z</time>
      </trkpt>
      <trkpt lat="45.907851979136467" lon="9.057475011795759">
        <ele>797</ele>
        <time>2010-06-13T07:54:58Z</time>
      </trkpt>
      <trkpt lat="45.907870000228286" lon="9.057500995695591">
        <ele>797</ele>
        <time>2010-06-13T07:54:59Z</time>
      </trkpt>
      <trkpt lat="45.907888021320105" lon="9.057512981817126">
        <ele>796</ele>
        <time>2010-06-13T07:55:00Z</time>
      </trkpt>
      <trkpt lat="45.907905958592892" lon="9.057525973767042">
        <ele>796</ele>
        <time>2010-06-13T07:55:01Z</time>
      </trkpt>
      <trkpt lat="45.907915011048317" lon="9.057552041485906">
        <ele>796</ele>
        <time>2010-06-13T07:55:02Z</time>
      </trkpt>
      <trkpt lat="45.907933032140136" lon="9.057565033435822">
        <ele>796</ele>
        <time>2010-06-13T07:55:03Z</time>
      </trkpt>
      <trkpt lat="45.907950969412923" lon="9.057591017335653">
        <ele>796</ele>
        <time>2010-06-13T07:55:04Z</time>
      </trkpt>
      <trkpt lat="45.907968990504742" lon="9.057591017335653">
        <ele>796</ele>
        <time>2010-06-13T07:55:05Z</time>
      </trkpt>
      <trkpt lat="45.907977959141135" lon="9.057617001235485">
        <ele>796</ele>
        <time>2010-06-13T07:55:06Z</time>
      </trkpt>
      <trkpt lat="45.90798701159656" lon="9.057654971256852">
        <ele>796</ele>
        <time>2010-06-13T07:55:07Z</time>
      </trkpt>
      <trkpt lat="45.908005032688379" lon="9.057667963206768">
        <ele>796</ele>
        <time>2010-06-13T07:55:08Z</time>
      </trkpt>
      <trkpt lat="45.908022969961166" lon="9.057694030925632">
        <ele>796</ele>
        <time>2010-06-13T07:55:09Z</time>
      </trkpt>
      <trkpt lat="45.908032022416592" lon="9.057733006775379">
        <ele>797</ele>
        <time>2010-06-13T07:55:10Z</time>
      </trkpt>
      <trkpt lat="45.908049959689379" lon="9.057758990675211">
        <ele>796</ele>
        <time>2010-06-13T07:55:11Z</time>
      </trkpt>
      <trkpt lat="45.908067980781198" lon="9.057783968746662">
        <ele>796</ele>
        <time>2010-06-13T07:55:12Z</time>
      </trkpt>
      <trkpt lat="45.908086001873016" lon="9.057810036465526">
        <ele>796</ele>
        <time>2010-06-13T07:55:13Z</time>
      </trkpt>
      <trkpt lat="45.908104022964835" lon="9.057836020365357">
        <ele>795</ele>
        <time>2010-06-13T07:55:14Z</time>
      </trkpt>
      <trkpt lat="45.908121960237622" lon="9.057849012315273">
        <ele>795</ele>
        <time>2010-06-13T07:55:15Z</time>
      </trkpt>
      <trkpt lat="45.908139981329441" lon="9.057862004265189">
        <ele>795</ele>
        <time>2010-06-13T07:55:16Z</time>
      </trkpt>
      <trkpt lat="45.908149033784866" lon="9.057874996215105">
        <ele>795</ele>
        <time>2010-06-13T07:55:17Z</time>
      </trkpt>
      <trkpt lat="45.90815800242126" lon="9.05788698233664">
        <ele>795</ele>
        <time>2010-06-13T07:55:18Z</time>
      </trkpt>
      <trkpt lat="45.908176023513079" lon="9.057874996215105">
        <ele>796</ele>
        <time>2010-06-13T07:55:19Z</time>
      </trkpt>
      <trkpt lat="45.908184992149472" lon="9.057862004265189">
        <ele>796</ele>
        <time>2010-06-13T07:55:20Z</time>
      </trkpt>
      <trkpt lat="45.908184992149472" lon="9.057849012315273">
        <ele>795</ele>
        <time>2010-06-13T07:55:22Z</time>
      </trkpt>
      <trkpt lat="45.908176023513079" lon="9.057849012315273">
        <ele>796</ele>
        <time>2010-06-13T07:55:23Z</time>
      </trkpt>
      <trkpt lat="45.908166971057653" lon="9.057849012315273">
        <ele>796</ele>
        <time>2010-06-13T07:55:24Z</time>
      </trkpt>
      <trkpt lat="45.90815800242126" lon="9.057836020365357">
        <ele>796</ele>
        <time>2010-06-13T07:55:25Z</time>
      </trkpt>
      <trkpt lat="45.90815800242126" lon="9.057836020365357">
        <ele>796</ele>
        <time>2010-06-13T07:55:26Z</time>
      </trkpt>
      <trkpt lat="45.908149033784866" lon="9.057823028415442">
        <ele>796</ele>
        <time>2010-06-13T07:55:27Z</time>
      </trkpt>
      <trkpt lat="45.90815800242126" lon="9.057810036465526">
        <ele>797</ele>
        <time>2010-06-13T07:55:28Z</time>
      </trkpt>
      <trkpt lat="45.908121960237622" lon="9.057488003745675">
        <ele>800</ele>
        <time>2010-06-13T07:55:50Z</time>
      </trkpt>
      <trkpt lat="45.908112991601229" lon="9.057475011795759">
        <ele>800</ele>
        <time>2010-06-13T07:55:51Z</time>
      </trkpt>
      <trkpt lat="45.908112991601229" lon="9.057449027895927">
        <ele>801</ele>
        <time>2010-06-13T07:55:52Z</time>
      </trkpt>
      <trkpt lat="45.908112991601229" lon="9.057436035946012">
        <ele>800</ele>
        <time>2010-06-13T07:55:53Z</time>
      </trkpt>
      <trkpt lat="45.908104022964835" lon="9.057410974055529">
        <ele>800</ele>
        <time>2010-06-13T07:55:55Z</time>
      </trkpt>
      <trkpt lat="45.90809497050941" lon="9.057396976277232">
        <ele>800</ele>
        <time>2010-06-13T07:55:56Z</time>
      </trkpt>
      <trkpt lat="45.908086001873016" lon="9.057396976277232">
        <ele>800</ele>
        <time>2010-06-13T07:55:57Z</time>
      </trkpt>
      <trkpt lat="45.908077033236623" lon="9.057384990155697">
        <ele>800</ele>
        <time>2010-06-13T07:55:58Z</time>
      </trkpt>
      <trkpt lat="45.908077033236623" lon="9.057371998205781">
        <ele>801</ele>
        <time>2010-06-13T07:55:59Z</time>
      </trkpt>
      <trkpt lat="45.908067980781198" lon="9.057359006255865">
        <ele>801</ele>
        <time>2010-06-13T07:56:00Z</time>
      </trkpt>
      <trkpt lat="45.908059012144804" lon="9.057346014305949">
        <ele>801</ele>
        <time>2010-06-13T07:56:01Z</time>
      </trkpt>
      <trkpt lat="45.908059012144804" lon="9.057320030406117">
        <ele>801</ele>
        <time>2010-06-13T07:56:02Z</time>
      </trkpt>
      <trkpt lat="45.908049959689379" lon="9.057307038456202">
        <ele>802</ele>
        <time>2010-06-13T07:56:03Z</time>
      </trkpt>
      <trkpt lat="45.908049959689379" lon="9.057293962687254">
        <ele>802</ele>
        <time>2010-06-13T07:56:04Z</time>
      </trkpt>
      <trkpt lat="45.908049959689379" lon="9.057268984615803">
        <ele>802</ele>
        <time>2010-06-13T07:56:05Z</time>
      </trkpt>
      <trkpt lat="45.908040991052985" lon="9.057255992665887">
        <ele>802</ele>
        <time>2010-06-13T07:56:06Z</time>
      </trkpt>
      <trkpt lat="45.908040991052985" lon="9.057243000715971">
        <ele>802</ele>
        <time>2010-06-13T07:56:07Z</time>
      </trkpt>
      <trkpt lat="45.908032022416592" lon="9.057230008766055">
        <ele>802</ele>
        <time>2010-06-13T07:56:08Z</time>
      </trkpt>
      <trkpt lat="45.908032022416592" lon="9.057204024866223">
        <ele>802</ele>
        <time>2010-06-13T07:56:09Z</time>
      </trkpt>
      <trkpt lat="45.908022969961166" lon="9.057178040966392">
        <ele>802</ele>
        <time>2010-06-13T07:56:10Z</time>
      </trkpt>
      <trkpt lat="45.908022969961166" lon="9.057165971025825">
        <ele>802</ele>
        <time>2010-06-13T07:56:11Z</time>
      </trkpt>
      <trkpt lat="45.908014001324773" lon="9.057139987125993">
        <ele>802</ele>
        <time>2010-06-13T07:56:12Z</time>
      </trkpt>
      <trkpt lat="45.908014001324773" lon="9.057126995176077">
        <ele>802</ele>
        <time>2010-06-13T07:56:13Z</time>
      </trkpt>
      <trkpt lat="45.908014001324773" lon="9.057075027376413">
        <ele>803</ele>
        <time>2010-06-13T07:56:15Z</time>
      </trkpt>
      <trkpt lat="45.908014001324773" lon="9.057062035426498">
        <ele>803</ele>
        <time>2010-06-13T07:56:16Z</time>
      </trkpt>
      <trkpt lat="45.908005032688379" lon="9.057035967707634">
        <ele>804</ele>
        <time>2010-06-13T07:56:17Z</time>
      </trkpt>
      <trkpt lat="45.908005032688379" lon="9.057023981586099">
        <ele>803</ele>
        <time>2010-06-13T07:56:18Z</time>
      </trkpt>
      <trkpt lat="45.907995980232954" lon="9.056997997686267">
        <ele>804</ele>
        <time>2010-06-13T07:56:19Z</time>
      </trkpt>
      <trkpt lat="45.907995980232954" lon="9.056972013786435">
        <ele>803</ele>
        <time>2010-06-13T07:56:20Z</time>
      </trkpt>
      <trkpt lat="45.907995980232954" lon="9.056946029886603">
        <ele>804</ele>
        <time>2010-06-13T07:56:21Z</time>
      </trkpt>
      <trkpt lat="45.907995980232954" lon="9.056933037936688">
        <ele>803</ele>
        <time>2010-06-13T07:56:22Z</time>
      </trkpt>
      <trkpt lat="45.90798701159656" lon="9.056906970217824">
        <ele>803</ele>
        <time>2010-06-13T07:56:23Z</time>
      </trkpt>
      <trkpt lat="45.90798701159656" lon="9.056894984096289">
        <ele>803</ele>
        <time>2010-06-13T07:56:24Z</time>
      </trkpt>
      <trkpt lat="45.907977959141135" lon="9.056869000196457">
        <ele>804</ele>
        <time>2010-06-13T07:56:26Z</time>
      </trkpt>
      <trkpt lat="45.907977959141135" lon="9.056843016296625">
        <ele>804</ele>
        <time>2010-06-13T07:56:27Z</time>
      </trkpt>
      <trkpt lat="45.907977959141135" lon="9.056817032396793">
        <ele>804</ele>
        <time>2010-06-13T07:56:28Z</time>
      </trkpt>
      <trkpt lat="45.907978964969516" lon="9.056804040446878">
        <ele>804</ele>
        <time>2010-06-13T07:56:29Z</time>
      </trkpt>
      <trkpt lat="45.907968990504742" lon="9.056778978556395">
        <ele>803</ele>
        <time>2010-06-13T07:56:30Z</time>
      </trkpt>
      <trkpt lat="45.907968990504742" lon="9.056740002706647">
        <ele>803</ele>
        <time>2010-06-13T07:56:32Z</time>
      </trkpt>
      <trkpt lat="45.907968990504742" lon="9.056727010756731">
        <ele>803</ele>
        <time>2010-06-13T07:56:33Z</time>
      </trkpt>
      <trkpt lat="45.907968990504742" lon="9.056701026856899">
        <ele>803</ele>
        <time>2010-06-13T07:56:34Z</time>
      </trkpt>
      <trkpt lat="45.907968990504742" lon="9.056675964966416">
        <ele>803</ele>
        <time>2010-06-13T07:56:36Z</time>
      </trkpt>
      <trkpt lat="45.907961027696729" lon="9.05666196718812">
        <ele>804</ele>
        <time>2010-06-13T07:56:37Z</time>
      </trkpt>
      <trkpt lat="45.907951975241303" lon="9.056649981066585">
        <ele>804</ele>
        <time>2010-06-13T07:56:38Z</time>
      </trkpt>
      <trkpt lat="45.907951975241303" lon="9.056636989116669">
        <ele>804</ele>
        <time>2010-06-13T07:56:39Z</time>
      </trkpt>
      <trkpt lat="45.907942000776529" lon="9.056611005216837">
        <ele>804</ele>
        <time>2010-06-13T07:56:40Z</time>
      </trkpt>
      <trkpt lat="45.907942000776529" lon="9.056598013266921">
        <ele>804</ele>
        <time>2010-06-13T07:56:41Z</time>
      </trkpt>
      <trkpt lat="45.907934037968516" lon="9.056585021317005">
        <ele>804</ele>
        <time>2010-06-13T07:56:42Z</time>
      </trkpt>
      <trkpt lat="45.907934037968516" lon="9.056559037417173">
        <ele>804</ele>
        <time>2010-06-13T07:56:43Z</time>
      </trkpt>
      <trkpt lat="45.907934037968516" lon="9.056533975526691">
        <ele>804</ele>
        <time>2010-06-13T07:56:44Z</time>
      </trkpt>
      <trkpt lat="45.907924985513091" lon="9.056520983576775">
        <ele>804</ele>
        <time>2010-06-13T07:56:45Z</time>
      </trkpt>
      <trkpt lat="45.907924985513091" lon="9.056507991626859">
        <ele>804</ele>
        <time>2010-06-13T07:56:46Z</time>
      </trkpt>
      <trkpt lat="45.907924985513091" lon="9.056482007727027">
        <ele>804</ele>
        <time>2010-06-13T07:56:47Z</time>
      </trkpt>
      <trkpt lat="45.907916016876698" lon="9.056469015777111">
        <ele>804</ele>
        <time>2010-06-13T07:56:48Z</time>
      </trkpt>
      <trkpt lat="45.907924985513091" lon="9.056443031877279">
        <ele>804</ele>
        <time>2010-06-13T07:56:49Z</time>
      </trkpt>
      <trkpt lat="45.907916016876698" lon="9.056430961936712">
        <ele>804</ele>
        <time>2010-06-13T07:56:50Z</time>
      </trkpt>
      <trkpt lat="45.907916016876698" lon="9.056404978036881">
        <ele>804</ele>
        <time>2010-06-13T07:56:51Z</time>
      </trkpt>
      <trkpt lat="45.907916016876698" lon="9.056378994137049">
        <ele>804</ele>
        <time>2010-06-13T07:56:52Z</time>
      </trkpt>
      <trkpt lat="45.907906964421272" lon="9.056366002187133">
        <ele>804</ele>
        <time>2010-06-13T07:56:53Z</time>
      </trkpt>
      <trkpt lat="45.907897995784879" lon="9.056340018287301">
        <ele>804</ele>
        <time>2010-06-13T07:56:54Z</time>
      </trkpt>
      <trkpt lat="45.907897995784879" lon="9.056314034387469">
        <ele>804</ele>
        <time>2010-06-13T07:56:55Z</time>
      </trkpt>
      <trkpt lat="45.907897995784879" lon="9.056300958618522">
        <ele>804</ele>
        <time>2010-06-13T07:56:56Z</time>
      </trkpt>
      <trkpt lat="45.907889027148485" lon="9.056211020797491">
        <ele>804</ele>
        <time>2010-06-13T07:57:00Z</time>
      </trkpt>
      <trkpt lat="45.907889027148485" lon="9.056185958907008">
        <ele>804</ele>
        <time>2010-06-13T07:57:01Z</time>
      </trkpt>
      <trkpt lat="45.907889027148485" lon="9.056120999157429">
        <ele>805</ele>
        <time>2010-06-13T07:57:04Z</time>
      </trkpt>
      <trkpt lat="45.907889027148485" lon="9.056108007207513">
        <ele>805</ele>
        <time>2010-06-13T07:57:05Z</time>
      </trkpt>
      <trkpt lat="45.907889027148485" lon="9.056082023307681">
        <ele>805</ele>
        <time>2010-06-13T07:57:06Z</time>
      </trkpt>
      <trkpt lat="45.907889027148485" lon="9.056069031357765">
        <ele>805</ele>
        <time>2010-06-13T07:57:07Z</time>
      </trkpt>
      <trkpt lat="45.90787997469306" lon="9.056043969467282">
        <ele>805</ele>
        <time>2010-06-13T07:57:08Z</time>
      </trkpt>
      <trkpt lat="45.90787997469306" lon="9.056030977517366">
        <ele>806</ele>
        <time>2010-06-13T07:57:09Z</time>
      </trkpt>
      <trkpt lat="45.90787997469306" lon="9.056017985567451">
        <ele>805</ele>
        <time>2010-06-13T07:57:10Z</time>
      </trkpt>
      <trkpt lat="45.907871006056666" lon="9.055979009717703">
        <ele>806</ele>
        <time>2010-06-13T07:57:12Z</time>
      </trkpt>
      <trkpt lat="45.907871006056666" lon="9.055953025817871">
        <ele>806</ele>
        <time>2010-06-13T07:57:13Z</time>
      </trkpt>
      <trkpt lat="45.907871006056666" lon="9.055941039696336">
        <ele>806</ele>
        <time>2010-06-13T07:57:14Z</time>
      </trkpt>
      <trkpt lat="45.907862037420273" lon="9.055914971977472">
        <ele>806</ele>
        <time>2010-06-13T07:57:15Z</time>
      </trkpt>
      <trkpt lat="45.907862037420273" lon="9.055888988077641">
        <ele>806</ele>
        <time>2010-06-13T07:57:16Z</time>
      </trkpt>
      <trkpt lat="45.907862037420273" lon="9.055850012227893">
        <ele>806</ele>
        <time>2010-06-13T07:57:18Z</time>
      </trkpt>
      <trkpt lat="45.907862037420273" lon="9.055824028328061">
        <ele>806</ele>
        <time>2010-06-13T07:57:19Z</time>
      </trkpt>
      <trkpt lat="45.907852984964848" lon="9.055811036378145">
        <ele>806</ele>
        <time>2010-06-13T07:57:20Z</time>
      </trkpt>
      <trkpt lat="45.907852984964848" lon="9.055785974487662">
        <ele>806</ele>
        <time>2010-06-13T07:57:21Z</time>
      </trkpt>
      <trkpt lat="45.907844016328454" lon="9.055772982537746">
        <ele>806</ele>
        <time>2010-06-13T07:57:22Z</time>
      </trkpt>
      <trkpt lat="45.907834963873029" lon="9.055746998637915">
        <ele>806</ele>
        <time>2010-06-13T07:57:23Z</time>
      </trkpt>
      <trkpt lat="45.907825995236635" lon="9.055734006687999">
        <ele>807</ele>
        <time>2010-06-13T07:57:24Z</time>
      </trkpt>
      <trkpt lat="45.907817026600242" lon="9.055708022788167">
        <ele>807</ele>
        <time>2010-06-13T07:57:26Z</time>
      </trkpt>
      <trkpt lat="45.907817026600242" lon="9.055696036666632">
        <ele>807</ele>
        <time>2010-06-13T07:57:27Z</time>
      </trkpt>
      <trkpt lat="45.907817026600242" lon="9.055656976997852">
        <ele>807</ele>
        <time>2010-06-13T07:57:29Z</time>
      </trkpt>
      <trkpt lat="45.907807974144816" lon="9.055643985047936">
        <ele>807</ele>
        <time>2010-06-13T07:57:30Z</time>
      </trkpt>
      <trkpt lat="45.907807974144816" lon="9.055618001148105">
        <ele>807</ele>
        <time>2010-06-13T07:57:31Z</time>
      </trkpt>
      <trkpt lat="45.907799005508423" lon="9.055592017248273">
        <ele>807</ele>
        <time>2010-06-13T07:57:32Z</time>
      </trkpt>
      <trkpt lat="45.907799005508423" lon="9.055579025298357">
        <ele>807</ele>
        <time>2010-06-13T07:57:33Z</time>
      </trkpt>
      <trkpt lat="45.907799005508423" lon="9.055553963407874">
        <ele>807</ele>
        <time>2010-06-13T07:57:34Z</time>
      </trkpt>
      <trkpt lat="45.907799005508423" lon="9.055527979508042">
        <ele>807</ele>
        <time>2010-06-13T07:57:35Z</time>
      </trkpt>
      <trkpt lat="45.907790036872029" lon="9.055501995608211">
        <ele>807</ele>
        <time>2010-06-13T07:57:37Z</time>
      </trkpt>
      <trkpt lat="45.907780984416604" lon="9.055489003658295">
        <ele>808</ele>
        <time>2010-06-13T07:57:38Z</time>
      </trkpt>
      <trkpt lat="45.907780984416604" lon="9.055463019758463">
        <ele>808</ele>
        <time>2010-06-13T07:57:39Z</time>
      </trkpt>
      <trkpt lat="45.907780984416604" lon="9.055451033636928">
        <ele>808</ele>
        <time>2010-06-13T07:57:40Z</time>
      </trkpt>
      <trkpt lat="45.90777201578021" lon="9.055424965918064">
        <ele>808</ele>
        <time>2010-06-13T07:57:41Z</time>
      </trkpt>
      <trkpt lat="45.90777201578021" lon="9.055411973968148">
        <ele>808</ele>
        <time>2010-06-13T07:57:42Z</time>
      </trkpt>
      <trkpt lat="45.90777201578021" lon="9.055398982018232">
        <ele>808</ele>
        <time>2010-06-13T07:57:43Z</time>
      </trkpt>
      <trkpt lat="45.907762963324785" lon="9.055372998118401">
        <ele>808</ele>
        <time>2010-06-13T07:57:44Z</time>
      </trkpt>
      <trkpt lat="45.907762963324785" lon="9.055360006168485">
        <ele>808</ele>
        <time>2010-06-13T07:57:45Z</time>
      </trkpt>
      <trkpt lat="45.907762963324785" lon="9.055347014218569">
        <ele>809</ele>
        <time>2010-06-13T07:57:46Z</time>
      </trkpt>
      <trkpt lat="45.907753994688392" lon="9.055321030318737">
        <ele>809</ele>
        <time>2010-06-13T07:57:47Z</time>
      </trkpt>
      <trkpt lat="45.907753994688392" lon="9.055295968428254">
        <ele>809</ele>
        <time>2010-06-13T07:57:48Z</time>
      </trkpt>
      <trkpt lat="45.907753994688392" lon="9.055282976478338">
        <ele>809</ele>
        <time>2010-06-13T07:57:49Z</time>
      </trkpt>
      <trkpt lat="45.907745026051998" lon="9.055269984528422">
        <ele>809</ele>
        <time>2010-06-13T07:57:50Z</time>
      </trkpt>
      <trkpt lat="45.907745026051998" lon="9.055244000628591">
        <ele>809</ele>
        <time>2010-06-13T07:57:51Z</time>
      </trkpt>
      <trkpt lat="45.907745026051998" lon="9.055231008678675">
        <ele>809</ele>
        <time>2010-06-13T07:57:52Z</time>
      </trkpt>
      <trkpt lat="45.907745026051998" lon="9.055218016728759">
        <ele>809</ele>
        <time>2010-06-13T07:57:53Z</time>
      </trkpt>
      <trkpt lat="45.907745026051998" lon="9.055206030607224">
        <ele>810</ele>
        <time>2010-06-13T07:57:54Z</time>
      </trkpt>
      <trkpt lat="45.907735973596573" lon="9.055192032828927">
        <ele>811</ele>
        <time>2010-06-13T07:57:55Z</time>
      </trkpt>
      <trkpt lat="45.907735973596573" lon="9.05517996288836">
        <ele>811</ele>
        <time>2010-06-13T07:57:56Z</time>
      </trkpt>
      <trkpt lat="45.907735973596573" lon="9.055166970938444">
        <ele>811</ele>
        <time>2010-06-13T07:57:57Z</time>
      </trkpt>
      <trkpt lat="45.907735973596573" lon="9.055153978988528">
        <ele>810</ele>
        <time>2010-06-13T07:57:58Z</time>
      </trkpt>
      <trkpt lat="45.907727004960179" lon="9.055140987038612">
        <ele>810</ele>
        <time>2010-06-13T07:57:59Z</time>
      </trkpt>
      <trkpt lat="45.907718036323786" lon="9.055127995088697">
        <ele>811</ele>
        <time>2010-06-13T07:58:00Z</time>
      </trkpt>
      <trkpt lat="45.907718036323786" lon="9.055115003138781">
        <ele>811</ele>
        <time>2010-06-13T07:58:01Z</time>
      </trkpt>
      <trkpt lat="45.907708983868361" lon="9.055102011188865">
        <ele>811</ele>
        <time>2010-06-13T07:58:02Z</time>
      </trkpt>
      <trkpt lat="45.907700015231967" lon="9.055102011188865">
        <ele>811</ele>
        <time>2010-06-13T07:58:03Z</time>
      </trkpt>
      <trkpt lat="45.907690962776542" lon="9.055089019238949">
        <ele>811</ele>
        <time>2010-06-13T07:58:04Z</time>
      </trkpt>
      <trkpt lat="45.907681994140148" lon="9.055089019238949">
        <ele>812</ele>
        <time>2010-06-13T07:58:05Z</time>
      </trkpt>
      <trkpt lat="45.907681994140148" lon="9.055076027289033">
        <ele>812</ele>
        <time>2010-06-13T07:58:06Z</time>
      </trkpt>
      <trkpt lat="45.907673025503755" lon="9.055064041167498">
        <ele>812</ele>
        <time>2010-06-13T07:58:07Z</time>
      </trkpt>
      <trkpt lat="45.907673025503755" lon="9.05505096539855">
        <ele>812</ele>
        <time>2010-06-13T07:58:08Z</time>
      </trkpt>
      <trkpt lat="45.907673025503755" lon="9.055024981498718">
        <ele>812</ele>
        <time>2010-06-13T07:58:09Z</time>
      </trkpt>
      <trkpt lat="45.907663973048329" lon="9.055011989548802">
        <ele>812</ele>
        <time>2010-06-13T07:58:10Z</time>
      </trkpt>
      <trkpt lat="45.907663973048329" lon="9.055011989548802">
        <ele>813</ele>
        <time>2010-06-13T07:58:11Z</time>
      </trkpt>
      <trkpt lat="45.907655004411936" lon="9.054998997598887">
        <ele>813</ele>
        <time>2010-06-13T07:58:12Z</time>
      </trkpt>
      <trkpt lat="45.907646035775542" lon="9.054986005648971">
        <ele>814</ele>
        <time>2010-06-13T07:58:13Z</time>
      </trkpt>
      <trkpt lat="45.907636983320117" lon="9.054973013699055">
        <ele>813</ele>
        <time>2010-06-13T07:58:14Z</time>
      </trkpt>
      <trkpt lat="45.907636983320117" lon="9.054960021749139">
        <ele>813</ele>
        <time>2010-06-13T07:58:15Z</time>
      </trkpt>
      <trkpt lat="45.907628014683723" lon="9.054947029799223">
        <ele>813</ele>
        <time>2010-06-13T07:58:16Z</time>
      </trkpt>
      <trkpt lat="45.907618962228298" lon="9.054934037849307">
        <ele>813</ele>
        <time>2010-06-13T07:58:17Z</time>
      </trkpt>
      <trkpt lat="45.907609993591905" lon="9.054934037849307">
        <ele>813</ele>
        <time>2010-06-13T07:58:18Z</time>
      </trkpt>
      <trkpt lat="45.907609993591905" lon="9.05492196790874">
        <ele>814</ele>
        <time>2010-06-13T07:58:19Z</time>
      </trkpt>
      <trkpt lat="45.907601024955511" lon="9.054908975958824">
        <ele>814</ele>
        <time>2010-06-13T07:58:20Z</time>
      </trkpt>
      <trkpt lat="45.907601024955511" lon="9.054882992058992">
        <ele>814</ele>
        <time>2010-06-13T07:58:21Z</time>
      </trkpt>
      <trkpt lat="45.907601024955511" lon="9.054870000109077">
        <ele>814</ele>
        <time>2010-06-13T07:58:22Z</time>
      </trkpt>
      <trkpt lat="45.907601024955511" lon="9.054857008159161">
        <ele>814</ele>
        <time>2010-06-13T07:58:23Z</time>
      </trkpt>
      <trkpt lat="45.907592978328466" lon="9.054844016209245">
        <ele>814</ele>
        <time>2010-06-13T07:58:24Z</time>
      </trkpt>
      <trkpt lat="45.907592978328466" lon="9.054819038137794">
        <ele>814</ele>
        <time>2010-06-13T07:58:25Z</time>
      </trkpt>
      <trkpt lat="45.907592978328466" lon="9.054805962368846">
        <ele>814</ele>
        <time>2010-06-13T07:58:26Z</time>
      </trkpt>
      <trkpt lat="45.907583003863692" lon="9.054779978469014">
        <ele>814</ele>
        <time>2010-06-13T07:58:27Z</time>
      </trkpt>
      <trkpt lat="45.907583003863692" lon="9.054766986519098">
        <ele>815</ele>
        <time>2010-06-13T07:58:28Z</time>
      </trkpt>
      <trkpt lat="45.907574035227299" lon="9.054766986519098">
        <ele>815</ele>
        <time>2010-06-13T07:58:29Z</time>
      </trkpt>
      <trkpt lat="45.907574035227299" lon="9.054753994569182">
        <ele>815</ele>
        <time>2010-06-13T07:58:30Z</time>
      </trkpt>
      <trkpt lat="45.907565988600254" lon="9.054741002619267">
        <ele>815</ele>
        <time>2010-06-13T07:58:31Z</time>
      </trkpt>
      <trkpt lat="45.907565988600254" lon="9.054728010669351">
        <ele>815</ele>
        <time>2010-06-13T07:58:32Z</time>
      </trkpt>
      <trkpt lat="45.907565988600254" lon="9.054728010669351">
        <ele>815</ele>
        <time>2010-06-13T07:58:33Z</time>
      </trkpt>
      <trkpt lat="45.90755601413548" lon="9.054715018719435">
        <ele>816</ele>
        <time>2010-06-13T07:58:34Z</time>
      </trkpt>
      <trkpt lat="45.907565988600254" lon="9.054689034819603">
        <ele>816</ele>
        <time>2010-06-13T07:58:36Z</time>
      </trkpt>
      <trkpt lat="45.907565988600254" lon="9.054676964879036">
        <ele>816</ele>
        <time>2010-06-13T07:58:38Z</time>
      </trkpt>
      <trkpt lat="45.907565988600254" lon="9.054637989029288">
        <ele>816</ele>
        <time>2010-06-13T07:58:39Z</time>
      </trkpt>
      <trkpt lat="45.907565988600254" lon="9.054612005129457">
        <ele>816</ele>
        <time>2010-06-13T07:58:40Z</time>
      </trkpt>
      <trkpt lat="45.907574035227299" lon="9.054599013179541">
        <ele>816</ele>
        <time>2010-06-13T07:58:41Z</time>
      </trkpt>
      <trkpt lat="45.907574035227299" lon="9.054574035108089">
        <ele>816</ele>
        <time>2010-06-13T07:58:42Z</time>
      </trkpt>
      <trkpt lat="45.907574035227299" lon="9.05453497543931">
        <ele>816</ele>
        <time>2010-06-13T07:58:44Z</time>
      </trkpt>
      <trkpt lat="45.907584009692073" lon="9.054495999589562">
        <ele>817</ele>
        <time>2010-06-13T07:58:46Z</time>
      </trkpt>
      <trkpt lat="45.907575041055679" lon="9.054457023739815">
        <ele>817</ele>
        <time>2010-06-13T07:58:48Z</time>
      </trkpt>
      <trkpt lat="45.907584009692073" lon="9.054418969899416">
        <ele>817</ele>
        <time>2010-06-13T07:58:50Z</time>
      </trkpt>
      <trkpt lat="45.907584009692073" lon="9.054392985999584">
        <ele>817</ele>
        <time>2010-06-13T07:58:51Z</time>
      </trkpt>
      <trkpt lat="45.907584009692073" lon="9.054329032078385">
        <ele>818</ele>
        <time>2010-06-13T07:58:54Z</time>
      </trkpt>
      <trkpt lat="45.907584009692073" lon="9.05431604012847">
        <ele>817</ele>
        <time>2010-06-13T07:58:55Z</time>
      </trkpt>
      <trkpt lat="45.907592978328466" lon="9.054289972409606">
        <ele>818</ele>
        <time>2010-06-13T07:58:56Z</time>
      </trkpt>
      <trkpt lat="45.907592978328466" lon="9.05427698045969">
        <ele>818</ele>
        <time>2010-06-13T07:58:57Z</time>
      </trkpt>
      <trkpt lat="45.907602030783892" lon="9.054250996559858">
        <ele>818</ele>
        <time>2010-06-13T07:58:58Z</time>
      </trkpt>
      <trkpt lat="45.907602030783892" lon="9.054226018488407">
        <ele>818</ele>
        <time>2010-06-13T07:59:00Z</time>
      </trkpt>
      <trkpt lat="45.907610999420285" lon="9.054213026538491">
        <ele>818</ele>
        <time>2010-06-13T07:59:01Z</time>
      </trkpt>
      <trkpt lat="45.907610999420285" lon="9.054213026538491">
        <ele>819</ele>
        <time>2010-06-13T07:59:02Z</time>
      </trkpt>
      <trkpt lat="45.907610999420285" lon="9.054200034588575">
        <ele>819</ele>
        <time>2010-06-13T07:59:03Z</time>
      </trkpt>
      <trkpt lat="45.907610999420285" lon="9.054186958819628">
        <ele>819</ele>
        <time>2010-06-13T07:59:04Z</time>
      </trkpt>
      <trkpt lat="45.907610999420285" lon="9.054173966869712">
        <ele>819</ele>
        <time>2010-06-13T07:59:05Z</time>
      </trkpt>
      <trkpt lat="45.907619968056679" lon="9.05414798296988">
        <ele>819</ele>
        <time>2010-06-13T07:59:06Z</time>
      </trkpt>
      <trkpt lat="45.907619968056679" lon="9.054134991019964">
        <ele>820</ele>
        <time>2010-06-13T07:59:07Z</time>
      </trkpt>
      <trkpt lat="45.907619968056679" lon="9.054134991019964">
        <ele>820</ele>
        <time>2010-06-13T07:59:08Z</time>
      </trkpt>
      <trkpt lat="45.907619968056679" lon="9.054121999070048">
        <ele>820</ele>
        <time>2010-06-13T07:59:09Z</time>
      </trkpt>
      <trkpt lat="45.907610999420285" lon="9.054109007120132">
        <ele>820</ele>
        <time>2010-06-13T07:59:10Z</time>
      </trkpt>
      <trkpt lat="45.907610999420285" lon="9.054096015170217">
        <ele>820</ele>
        <time>2010-06-13T07:59:11Z</time>
      </trkpt>
      <trkpt lat="45.907610999420285" lon="9.054084029048681">
        <ele>820</ele>
        <time>2010-06-13T07:59:12Z</time>
      </trkpt>
      <trkpt lat="45.907602030783892" lon="9.054084029048681">
        <ele>820</ele>
        <time>2010-06-13T07:59:13Z</time>
      </trkpt>
      <trkpt lat="45.907610999420285" lon="9.054071037098765">
        <ele>820</ele>
        <time>2010-06-13T07:59:14Z</time>
      </trkpt>
      <trkpt lat="45.907610999420285" lon="9.054057961329818">
        <ele>820</ele>
        <time>2010-06-13T07:59:15Z</time>
      </trkpt>
      <trkpt lat="45.907647041603923" lon="9.054289972409606">
        <ele>822</ele>
        <time>2010-06-13T07:59:36Z</time>
      </trkpt>
      <trkpt lat="45.907647041603923" lon="9.054329032078385">
        <ele>823</ele>
        <time>2010-06-13T07:59:38Z</time>
      </trkpt>
      <trkpt lat="45.907647041603923" lon="9.054341018199921">
        <ele>823</ele>
        <time>2010-06-13T07:59:39Z</time>
      </trkpt>
      <trkpt lat="45.907656010240316" lon="9.054354010149837">
        <ele>823</ele>
        <time>2010-06-13T07:59:40Z</time>
      </trkpt>
      <trkpt lat="45.907656010240316" lon="9.054379994049668">
        <ele>823</ele>
        <time>2010-06-13T07:59:41Z</time>
      </trkpt>
      <trkpt lat="45.907656010240316" lon="9.054392985999584">
        <ele>824</ele>
        <time>2010-06-13T07:59:42Z</time>
      </trkpt>
      <trkpt lat="45.907656010240316" lon="9.054418969899416">
        <ele>824</ele>
        <time>2010-06-13T07:59:43Z</time>
      </trkpt>
      <trkpt lat="45.907656010240316" lon="9.05444503761828">
        <ele>824</ele>
        <time>2010-06-13T07:59:44Z</time>
      </trkpt>
      <trkpt lat="45.907656010240316" lon="9.054457023739815">
        <ele>824</ele>
        <time>2010-06-13T07:59:45Z</time>
      </trkpt>
      <trkpt lat="45.907656010240316" lon="9.054483007639647">
        <ele>824</ele>
        <time>2010-06-13T07:59:47Z</time>
      </trkpt>
      <trkpt lat="45.907656010240316" lon="9.054508991539478">
        <ele>824</ele>
        <time>2010-06-13T07:59:49Z</time>
      </trkpt>
      <trkpt lat="45.907663973048329" lon="9.054521983489394">
        <ele>825</ele>
        <time>2010-06-13T07:59:50Z</time>
      </trkpt>
      <trkpt lat="45.907663973048329" lon="9.054547967389226">
        <ele>825</ele>
        <time>2010-06-13T07:59:51Z</time>
      </trkpt>
      <trkpt lat="45.907663973048329" lon="9.054560959339142">
        <ele>825</ele>
        <time>2010-06-13T07:59:52Z</time>
      </trkpt>
      <trkpt lat="45.907682999968529" lon="9.054574035108089">
        <ele>825</ele>
        <time>2010-06-13T07:59:53Z</time>
      </trkpt>
      <trkpt lat="45.907682999968529" lon="9.054599013179541">
        <ele>825</ele>
        <time>2010-06-13T07:59:54Z</time>
      </trkpt>
      <trkpt lat="45.907690962776542" lon="9.054612005129457">
        <ele>825</ele>
        <time>2010-06-13T07:59:55Z</time>
      </trkpt>
      <trkpt lat="45.907701021060348" lon="9.054624997079372">
        <ele>826</ele>
        <time>2010-06-13T07:59:56Z</time>
      </trkpt>
      <trkpt lat="45.907701021060348" lon="9.054637989029288">
        <ele>826</ele>
        <time>2010-06-13T07:59:57Z</time>
      </trkpt>
      <trkpt lat="45.907708983868361" lon="9.054650980979204">
        <ele>826</ele>
        <time>2010-06-13T07:59:58Z</time>
      </trkpt>
      <trkpt lat="45.907718958333135" lon="9.05466397292912">
        <ele>826</ele>
        <time>2010-06-13T07:59:59Z</time>
      </trkpt>
      <trkpt lat="45.907718958333135" lon="9.054676964879036">
        <ele>826</ele>
        <time>2010-06-13T08:00:00Z</time>
      </trkpt>
      <trkpt lat="45.90772801078856" lon="9.054690040647984">
        <ele>826</ele>
        <time>2010-06-13T08:00:01Z</time>
      </trkpt>
      <trkpt lat="45.907735973596573" lon="9.054702026769519">
        <ele>826</ele>
        <time>2010-06-13T08:00:02Z</time>
      </trkpt>
      <trkpt lat="45.907746031880379" lon="9.054716024547815">
        <ele>826</ele>
        <time>2010-06-13T08:00:03Z</time>
      </trkpt>
      <trkpt lat="45.907753994688392" lon="9.054728010669351">
        <ele>826</ele>
        <time>2010-06-13T08:00:04Z</time>
      </trkpt>
      <trkpt lat="45.907753994688392" lon="9.054741002619267">
        <ele>826</ele>
        <time>2010-06-13T08:00:05Z</time>
      </trkpt>
      <trkpt lat="45.907773021608591" lon="9.054741002619267">
        <ele>826</ele>
        <time>2010-06-13T08:00:06Z</time>
      </trkpt>
      <trkpt lat="45.907773021608591" lon="9.054753994569182">
        <ele>826</ele>
        <time>2010-06-13T08:00:07Z</time>
      </trkpt>
      <trkpt lat="45.907780984416604" lon="9.054766986519098">
        <ele>826</ele>
        <time>2010-06-13T08:00:08Z</time>
      </trkpt>
      <trkpt lat="45.907790958881378" lon="9.054779978469014">
        <ele>827</ele>
        <time>2010-06-13T08:00:09Z</time>
      </trkpt>
      <trkpt lat="45.907799005508423" lon="9.05479297041893">
        <ele>827</ele>
        <time>2010-06-13T08:00:10Z</time>
      </trkpt>
      <trkpt lat="45.907799005508423" lon="9.054832030087709">
        <ele>827</ele>
        <time>2010-06-13T08:00:12Z</time>
      </trkpt>
      <trkpt lat="45.907799005508423" lon="9.054844016209245">
        <ele>827</ele>
        <time>2010-06-13T08:00:13Z</time>
      </trkpt>
      <trkpt lat="45.907807974144816" lon="9.054857008159161">
        <ele>827</ele>
        <time>2010-06-13T08:00:14Z</time>
      </trkpt>
      <trkpt lat="45.907818032428622" lon="9.054870000109077">
        <ele>827</ele>
        <time>2010-06-13T08:00:15Z</time>
      </trkpt>
      <trkpt lat="45.907825995236635" lon="9.054870000109077">
        <ele>827</ele>
        <time>2010-06-13T08:00:17Z</time>
      </trkpt>
      <trkpt lat="45.907844016328454" lon="9.054895984008908">
        <ele>827</ele>
        <time>2010-06-13T08:00:18Z</time>
      </trkpt>
      <trkpt lat="45.907844016328454" lon="9.054908975958824">
        <ele>827</ele>
        <time>2010-06-13T08:00:19Z</time>
      </trkpt>
      <trkpt lat="45.907852984964848" lon="9.05492196790874">
        <ele>828</ele>
        <time>2010-06-13T08:00:20Z</time>
      </trkpt>
      <trkpt lat="45.907862959429622" lon="9.054934959858656">
        <ele>828</ele>
        <time>2010-06-13T08:00:21Z</time>
      </trkpt>
      <trkpt lat="45.907862959429622" lon="9.054948035627604">
        <ele>828</ele>
        <time>2010-06-13T08:00:22Z</time>
      </trkpt>
      <trkpt lat="45.907871006056666" lon="9.054961027577519">
        <ele>828</ele>
        <time>2010-06-13T08:00:23Z</time>
      </trkpt>
      <trkpt lat="45.90787997469306" lon="9.054961027577519">
        <ele>828</ele>
        <time>2010-06-13T08:00:24Z</time>
      </trkpt>
      <trkpt lat="45.90787997469306" lon="9.054974019527435">
        <ele>828</ele>
        <time>2010-06-13T08:00:25Z</time>
      </trkpt>
      <trkpt lat="45.907889027148485" lon="9.054986005648971">
        <ele>828</ele>
        <time>2010-06-13T08:00:27Z</time>
      </trkpt>
      <trkpt lat="45.907897995784879" lon="9.055024981498718">
        <ele>828</ele>
        <time>2010-06-13T08:00:28Z</time>
      </trkpt>
      <trkpt lat="45.907906964421272" lon="9.055037973448634">
        <ele>829</ele>
        <time>2010-06-13T08:00:29Z</time>
      </trkpt>
      <trkpt lat="45.907906964421272" lon="9.05505096539855">
        <ele>828</ele>
        <time>2010-06-13T08:00:30Z</time>
      </trkpt>
      <trkpt lat="45.907916016876698" lon="9.055077033117414">
        <ele>828</ele>
        <time>2010-06-13T08:00:31Z</time>
      </trkpt>
      <trkpt lat="45.907924985513091" lon="9.055089019238949">
        <ele>829</ele>
        <time>2010-06-13T08:00:32Z</time>
      </trkpt>
      <trkpt lat="45.907924985513091" lon="9.055103017017245">
        <ele>828</ele>
        <time>2010-06-13T08:00:33Z</time>
      </trkpt>
      <trkpt lat="45.907924985513091" lon="9.055127995088697">
        <ele>829</ele>
        <time>2010-06-13T08:00:34Z</time>
      </trkpt>
      <trkpt lat="45.907934037968516" lon="9.055140987038612">
        <ele>829</ele>
        <time>2010-06-13T08:00:35Z</time>
      </trkpt>
      <trkpt lat="45.90794300660491" lon="9.055153978988528">
        <ele>829</ele>
        <time>2010-06-13T08:00:36Z</time>
      </trkpt>
      <trkpt lat="45.907951975241303" lon="9.055166970938444">
        <ele>829</ele>
        <time>2010-06-13T08:00:38Z</time>
      </trkpt>
      <trkpt lat="45.907969996333122" lon="9.05517996288836">
        <ele>829</ele>
        <time>2010-06-13T08:00:39Z</time>
      </trkpt>
      <trkpt lat="45.907969996333122" lon="9.055193038657308">
        <ele>830</ele>
        <time>2010-06-13T08:00:40Z</time>
      </trkpt>
      <trkpt lat="45.907969996333122" lon="9.055206030607224">
        <ele>830</ele>
        <time>2010-06-13T08:00:41Z</time>
      </trkpt>
      <trkpt lat="45.907978964969516" lon="9.055219022557139">
        <ele>830</ele>
        <time>2010-06-13T08:00:42Z</time>
      </trkpt>
      <trkpt lat="45.907978964969516" lon="9.055231008678675">
        <ele>830</ele>
        <time>2010-06-13T08:00:43Z</time>
      </trkpt>
      <trkpt lat="45.907988017424941" lon="9.055244000628591">
        <ele>830</ele>
        <time>2010-06-13T08:00:45Z</time>
      </trkpt>
      <trkpt lat="45.907996986061335" lon="9.055269984528422">
        <ele>830</ele>
        <time>2010-06-13T08:00:46Z</time>
      </trkpt>
      <trkpt lat="45.90800603851676" lon="9.055269984528422">
        <ele>830</ele>
        <time>2010-06-13T08:00:47Z</time>
      </trkpt>
      <trkpt lat="45.908015007153153" lon="9.055282976478338">
        <ele>830</ele>
        <time>2010-06-13T08:00:48Z</time>
      </trkpt>
      <trkpt lat="45.908015007153153" lon="9.055372998118401">
        <ele>832</ele>
        <time>2010-06-13T08:00:52Z</time>
      </trkpt>
      <trkpt lat="45.908015007153153" lon="9.055385990068317">
        <ele>831</ele>
        <time>2010-06-13T08:00:53Z</time>
      </trkpt>
      <trkpt lat="45.908023975789547" lon="9.055398982018232">
        <ele>832</ele>
        <time>2010-06-13T08:00:54Z</time>
      </trkpt>
      <trkpt lat="45.908033028244972" lon="9.055411973968148">
        <ele>831</ele>
        <time>2010-06-13T08:00:55Z</time>
      </trkpt>
      <trkpt lat="45.908033028244972" lon="9.055424965918064">
        <ele>832</ele>
        <time>2010-06-13T08:00:56Z</time>
      </trkpt>
      <trkpt lat="45.908041996881366" lon="9.055438041687012">
        <ele>832</ele>
        <time>2010-06-13T08:00:57Z</time>
      </trkpt>
      <trkpt lat="45.908041996881366" lon="9.055451033636928">
        <ele>832</ele>
        <time>2010-06-13T08:00:58Z</time>
      </trkpt>
      <trkpt lat="45.908050965517759" lon="9.055464025586844">
        <ele>832</ele>
        <time>2010-06-13T08:00:59Z</time>
      </trkpt>
      <trkpt lat="45.908060017973185" lon="9.055476011708379">
        <ele>832</ele>
        <time>2010-06-13T08:01:00Z</time>
      </trkpt>
      <trkpt lat="45.908068986609578" lon="9.055476011708379">
        <ele>832</ele>
        <time>2010-06-13T08:01:01Z</time>
      </trkpt>
      <trkpt lat="45.908068986609578" lon="9.055489003658295">
        <ele>831</ele>
        <time>2010-06-13T08:01:02Z</time>
      </trkpt>
      <trkpt lat="45.908078039065003" lon="9.055489003658295">
        <ele>831</ele>
        <time>2010-06-13T08:01:03Z</time>
      </trkpt>
      <trkpt lat="45.908087007701397" lon="9.055501995608211">
        <ele>831</ele>
        <time>2010-06-13T08:01:04Z</time>
      </trkpt>
      <trkpt lat="45.90809597633779" lon="9.055514987558126">
        <ele>831</ele>
        <time>2010-06-13T08:01:05Z</time>
      </trkpt>
      <trkpt lat="45.90809597633779" lon="9.055527979508042">
        <ele>831</ele>
        <time>2010-06-13T08:01:06Z</time>
      </trkpt>
      <trkpt lat="45.90809597633779" lon="9.055540971457958">
        <ele>832</ele>
        <time>2010-06-13T08:01:07Z</time>
      </trkpt>
      <trkpt lat="45.908105028793216" lon="9.055553963407874">
        <ele>831</ele>
        <time>2010-06-13T08:01:08Z</time>
      </trkpt>
      <trkpt lat="45.908113997429609" lon="9.055567039176822">
        <ele>832</ele>
        <time>2010-06-13T08:01:09Z</time>
      </trkpt>
      <trkpt lat="45.908122966066003" lon="9.055580031126738">
        <ele>832</ele>
        <time>2010-06-13T08:01:10Z</time>
      </trkpt>
      <trkpt lat="45.908132018521428" lon="9.055592017248273">
        <ele>832</ele>
        <time>2010-06-13T08:01:11Z</time>
      </trkpt>
      <trkpt lat="45.908132018521428" lon="9.055606015026569">
        <ele>832</ele>
        <time>2010-06-13T08:01:12Z</time>
      </trkpt>
      <trkpt lat="45.908140987157822" lon="9.055618001148105">
        <ele>832</ele>
        <time>2010-06-13T08:01:13Z</time>
      </trkpt>
      <trkpt lat="45.908140987157822" lon="9.055630993098021">
        <ele>833</ele>
        <time>2010-06-13T08:01:14Z</time>
      </trkpt>
      <trkpt lat="45.908150039613247" lon="9.055643985047936">
        <ele>833</ele>
        <time>2010-06-13T08:01:15Z</time>
      </trkpt>
      <trkpt lat="45.908150039613247" lon="9.055656976997852">
        <ele>833</ele>
        <time>2010-06-13T08:01:16Z</time>
      </trkpt>
      <trkpt lat="45.90815900824964" lon="9.055669968947768">
        <ele>833</ele>
        <time>2010-06-13T08:01:17Z</time>
      </trkpt>
      <trkpt lat="45.908167976886034" lon="9.055682960897684">
        <ele>833</ele>
        <time>2010-06-13T08:01:18Z</time>
      </trkpt>
      <trkpt lat="45.908185997977853" lon="9.055696036666632">
        <ele>833</ele>
        <time>2010-06-13T08:01:19Z</time>
      </trkpt>
      <trkpt lat="45.908194966614246" lon="9.055696036666632">
        <ele>835</ele>
        <time>2010-06-13T08:01:20Z</time>
      </trkpt>
      <trkpt lat="45.908204019069672" lon="9.055709028616548">
        <ele>835</ele>
        <time>2010-06-13T08:01:21Z</time>
      </trkpt>
      <trkpt lat="45.908212987706065" lon="9.055722020566464">
        <ele>835</ele>
        <time>2010-06-13T08:01:22Z</time>
      </trkpt>
      <trkpt lat="45.90822204016149" lon="9.055734006687999">
        <ele>835</ele>
        <time>2010-06-13T08:01:23Z</time>
      </trkpt>
      <trkpt lat="45.90822204016149" lon="9.055746998637915">
        <ele>835</ele>
        <time>2010-06-13T08:01:24Z</time>
      </trkpt>
      <trkpt lat="45.908231008797884" lon="9.055772982537746">
        <ele>835</ele>
        <time>2010-06-13T08:01:25Z</time>
      </trkpt>
      <trkpt lat="45.908231008797884" lon="9.055785974487662">
        <ele>835</ele>
        <time>2010-06-13T08:01:27Z</time>
      </trkpt>
      <trkpt lat="45.908231008797884" lon="9.055811958387494">
        <ele>835</ele>
        <time>2010-06-13T08:01:29Z</time>
      </trkpt>
      <trkpt lat="45.908239977434278" lon="9.055825034156442">
        <ele>835</ele>
        <time>2010-06-13T08:01:30Z</time>
      </trkpt>
      <trkpt lat="45.908239977434278" lon="9.055838026106358">
        <ele>835</ele>
        <time>2010-06-13T08:01:31Z</time>
      </trkpt>
      <trkpt lat="45.908249029889703" lon="9.055838026106358">
        <ele>835</ele>
        <time>2010-06-13T08:01:32Z</time>
      </trkpt>
      <trkpt lat="45.908249029889703" lon="9.055851018056274">
        <ele>835</ele>
        <time>2010-06-13T08:01:33Z</time>
      </trkpt>
      <trkpt lat="45.908257998526096" lon="9.055864010006189">
        <ele>835</ele>
        <time>2010-06-13T08:01:34Z</time>
      </trkpt>
      <trkpt lat="45.908257998526096" lon="9.055888988077641">
        <ele>835</ele>
        <time>2010-06-13T08:01:35Z</time>
      </trkpt>
      <trkpt lat="45.90826696716249" lon="9.055888988077641">
        <ele>835</ele>
        <time>2010-06-13T08:01:36Z</time>
      </trkpt>
      <trkpt lat="45.908276019617915" lon="9.055901980027556">
        <ele>835</ele>
        <time>2010-06-13T08:01:37Z</time>
      </trkpt>
      <trkpt lat="45.908276019617915" lon="9.055914971977472">
        <ele>836</ele>
        <time>2010-06-13T08:01:38Z</time>
      </trkpt>
      <trkpt lat="45.908284988254309" lon="9.055927963927388">
        <ele>836</ele>
        <time>2010-06-13T08:01:39Z</time>
      </trkpt>
      <trkpt lat="45.908294040709734" lon="9.055927963927388">
        <ele>835</ele>
        <time>2010-06-13T08:01:40Z</time>
      </trkpt>
      <trkpt lat="45.908294040709734" lon="9.055941039696336">
        <ele>835</ele>
        <time>2010-06-13T08:01:41Z</time>
      </trkpt>
      <trkpt lat="45.908303009346128" lon="9.055954031646252">
        <ele>836</ele>
        <time>2010-06-13T08:01:42Z</time>
      </trkpt>
      <trkpt lat="45.908311977982521" lon="9.055967023596168">
        <ele>836</ele>
        <time>2010-06-13T08:01:43Z</time>
      </trkpt>
      <trkpt lat="45.908311977982521" lon="9.055980015546084">
        <ele>836</ele>
        <time>2010-06-13T08:01:44Z</time>
      </trkpt>
      <trkpt lat="45.908321030437946" lon="9.055980015546084">
        <ele>837</ele>
        <time>2010-06-13T08:01:45Z</time>
      </trkpt>
      <trkpt lat="45.908338967710733" lon="9.055992001667619">
        <ele>837</ele>
        <time>2010-06-13T08:01:46Z</time>
      </trkpt>
      <trkpt lat="45.908338967710733" lon="9.055992001667619">
        <ele>836</ele>
        <time>2010-06-13T08:01:47Z</time>
      </trkpt>
      <trkpt lat="45.908356988802552" lon="9.056004993617535">
        <ele>837</ele>
        <time>2010-06-13T08:01:48Z</time>
      </trkpt>
      <trkpt lat="45.908366041257977" lon="9.056005999445915">
        <ele>836</ele>
        <time>2010-06-13T08:01:49Z</time>
      </trkpt>
      <trkpt lat="45.908375009894371" lon="9.056017985567451">
        <ele>836</ele>
        <time>2010-06-13T08:01:50Z</time>
      </trkpt>
      <trkpt lat="45.908383978530765" lon="9.056017985567451">
        <ele>836</ele>
        <time>2010-06-13T08:01:52Z</time>
      </trkpt>
      <trkpt lat="45.908383978530765" lon="9.056056961417198">
        <ele>837</ele>
        <time>2010-06-13T08:01:53Z</time>
      </trkpt>
      <trkpt lat="45.90839303098619" lon="9.056070037186146">
        <ele>837</ele>
        <time>2010-06-13T08:01:54Z</time>
      </trkpt>
      <trkpt lat="45.90839303098619" lon="9.056083029136062">
        <ele>837</ele>
        <time>2010-06-13T08:01:55Z</time>
      </trkpt>
      <trkpt lat="45.90839303098619" lon="9.056083029136062">
        <ele>838</ele>
        <time>2010-06-13T08:01:56Z</time>
      </trkpt>
      <trkpt lat="45.908401999622583" lon="9.056096021085978">
        <ele>838</ele>
        <time>2010-06-13T08:01:58Z</time>
      </trkpt>
      <trkpt lat="45.908401999622583" lon="9.056133991107345">
        <ele>837</ele>
        <time>2010-06-13T08:01:59Z</time>
      </trkpt>
      <trkpt lat="45.908401999622583" lon="9.056146983057261">
        <ele>838</ele>
        <time>2010-06-13T08:02:00Z</time>
      </trkpt>
      <trkpt lat="45.908410968258977" lon="9.056159975007176">
        <ele>838</ele>
        <time>2010-06-13T08:02:01Z</time>
      </trkpt>
      <trkpt lat="45.908410968258977" lon="9.056172966957092">
        <ele>838</ele>
        <time>2010-06-13T08:02:02Z</time>
      </trkpt>
      <trkpt lat="45.908420020714402" lon="9.056185958907008">
        <ele>839</ele>
        <time>2010-06-13T08:02:03Z</time>
      </trkpt>
      <trkpt lat="45.908428989350796" lon="9.056199034675956">
        <ele>838</ele>
        <time>2010-06-13T08:02:04Z</time>
      </trkpt>
      <trkpt lat="45.908438041806221" lon="9.056212026625872">
        <ele>839</ele>
        <time>2010-06-13T08:02:05Z</time>
      </trkpt>
      <trkpt lat="45.908447010442615" lon="9.056212026625872">
        <ele>838</ele>
        <time>2010-06-13T08:02:06Z</time>
      </trkpt>
      <trkpt lat="45.908455979079008" lon="9.056225018575788">
        <ele>839</ele>
        <time>2010-06-13T08:02:07Z</time>
      </trkpt>
      <trkpt lat="45.908465031534433" lon="9.056225018575788">
        <ele>839</ele>
        <time>2010-06-13T08:02:08Z</time>
      </trkpt>
      <trkpt lat="45.908465031534433" lon="9.056237004697323">
        <ele>839</ele>
        <time>2010-06-13T08:02:09Z</time>
      </trkpt>
      <trkpt lat="45.908474000170827" lon="9.056251002475619">
        <ele>839</ele>
        <time>2010-06-13T08:02:10Z</time>
      </trkpt>
      <trkpt lat="45.908474000170827" lon="9.056275980547071">
        <ele>839</ele>
        <time>2010-06-13T08:02:11Z</time>
      </trkpt>
      <trkpt lat="45.908474000170827" lon="9.056288972496986">
        <ele>839</ele>
        <time>2010-06-13T08:02:12Z</time>
      </trkpt>
      <trkpt lat="45.908474000170827" lon="9.056301964446902">
        <ele>839</ele>
        <time>2010-06-13T08:02:13Z</time>
      </trkpt>
      <trkpt lat="45.90848296880722" lon="9.05631504021585">
        <ele>840</ele>
        <time>2010-06-13T08:02:14Z</time>
      </trkpt>
      <trkpt lat="45.908492021262646" lon="9.056328032165766">
        <ele>840</ele>
        <time>2010-06-13T08:02:15Z</time>
      </trkpt>
      <trkpt lat="45.908500989899039" lon="9.056341024115682">
        <ele>840</ele>
        <time>2010-06-13T08:02:16Z</time>
      </trkpt>
      <trkpt lat="45.908500989899039" lon="9.056354016065598">
        <ele>839</ele>
        <time>2010-06-13T08:02:17Z</time>
      </trkpt>
      <trkpt lat="45.908509958535433" lon="9.056367008015513">
        <ele>839</ele>
        <time>2010-06-13T08:02:18Z</time>
      </trkpt>
      <trkpt lat="45.908519010990858" lon="9.056367008015513">
        <ele>839</ele>
        <time>2010-06-13T08:02:19Z</time>
      </trkpt>
      <trkpt lat="45.908527979627252" lon="9.056378994137049">
        <ele>839</ele>
        <time>2010-06-13T08:02:20Z</time>
      </trkpt>
      <trkpt lat="45.908537032082677" lon="9.056391986086965">
        <ele>839</ele>
        <time>2010-06-13T08:02:21Z</time>
      </trkpt>
      <trkpt lat="45.908537032082677" lon="9.056404978036881">
        <ele>840</ele>
        <time>2010-06-13T08:02:22Z</time>
      </trkpt>
      <trkpt lat="45.90854600071907" lon="9.056404978036881">
        <ele>839</ele>
        <time>2010-06-13T08:02:23Z</time>
      </trkpt>
      <trkpt lat="45.908554969355464" lon="9.056417969986796">
        <ele>840</ele>
        <time>2010-06-13T08:02:24Z</time>
      </trkpt>
      <trkpt lat="45.908554969355464" lon="9.056430961936712">
        <ele>840</ele>
        <time>2010-06-13T08:02:25Z</time>
      </trkpt>
      <trkpt lat="45.908564021810889" lon="9.056430961936712">
        <ele>840</ele>
        <time>2010-06-13T08:02:26Z</time>
      </trkpt>
      <trkpt lat="45.908564021810889" lon="9.056430961936712">
        <ele>840</ele>
        <time>2010-06-13T08:02:27Z</time>
      </trkpt>
      <trkpt lat="45.908572990447283" lon="9.05644403770566">
        <ele>840</ele>
        <time>2010-06-13T08:02:28Z</time>
      </trkpt>
      <trkpt lat="45.908581959083676" lon="9.05644403770566">
        <ele>839</ele>
        <time>2010-06-13T08:02:29Z</time>
      </trkpt>
      <trkpt lat="45.908591011539102" lon="9.05644403770566">
        <ele>839</ele>
        <time>2010-06-13T08:02:30Z</time>
      </trkpt>
      <trkpt lat="45.908599980175495" lon="9.056457029655576">
        <ele>840</ele>
        <time>2010-06-13T08:02:31Z</time>
      </trkpt>
      <trkpt lat="45.90860903263092" lon="9.056457029655576">
        <ele>840</ele>
        <time>2010-06-13T08:02:32Z</time>
      </trkpt>
      <trkpt lat="45.908618001267314" lon="9.056457029655576">
        <ele>840</ele>
        <time>2010-06-13T08:02:33Z</time>
      </trkpt>
      <trkpt lat="45.908626969903708" lon="9.056470021605492">
        <ele>839</ele>
        <time>2010-06-13T08:02:34Z</time>
      </trkpt>
      <trkpt lat="45.908636022359133" lon="9.056483013555408">
        <ele>840</ele>
        <time>2010-06-13T08:02:36Z</time>
      </trkpt>
      <trkpt lat="45.908779017627239" lon="9.05683103017509">
        <ele>844</ele>
        <time>2010-06-13T08:03:22Z</time>
      </trkpt>
      <trkpt lat="45.908779017627239" lon="9.056844022125006">
        <ele>844</ele>
        <time>2010-06-13T08:03:23Z</time>
      </trkpt>
      <trkpt lat="45.908779017627239" lon="9.056857014074922">
        <ele>844</ele>
        <time>2010-06-13T08:03:24Z</time>
      </trkpt>
      <trkpt lat="45.908788992092013" lon="9.056870006024838">
        <ele>844</ele>
        <time>2010-06-13T08:03:25Z</time>
      </trkpt>
      <trkpt lat="45.908788992092013" lon="9.056870006024838">
        <ele>844</ele>
        <time>2010-06-13T08:03:26Z</time>
      </trkpt>
      <trkpt lat="45.908788992092013" lon="9.056881992146373">
        <ele>844</ele>
        <time>2010-06-13T08:03:27Z</time>
      </trkpt>
      <trkpt lat="45.908797038719058" lon="9.056895989924669">
        <ele>844</ele>
        <time>2010-06-13T08:03:28Z</time>
      </trkpt>
      <trkpt lat="45.908797038719058" lon="9.056907976046205">
        <ele>844</ele>
        <time>2010-06-13T08:03:29Z</time>
      </trkpt>
      <trkpt lat="45.908797038719058" lon="9.056933959946036">
        <ele>843</ele>
        <time>2010-06-13T08:03:32Z</time>
      </trkpt>
      <trkpt lat="45.908806007355452" lon="9.0569600276649">
        <ele>843</ele>
        <time>2010-06-13T08:03:33Z</time>
      </trkpt>
      <trkpt lat="45.908806007355452" lon="9.056973019614816">
        <ele>844</ele>
        <time>2010-06-13T08:03:34Z</time>
      </trkpt>
      <trkpt lat="45.908815981820226" lon="9.056986011564732">
        <ele>844</ele>
        <time>2010-06-13T08:03:35Z</time>
      </trkpt>
      <trkpt lat="45.908815981820226" lon="9.056999003514648">
        <ele>844</ele>
        <time>2010-06-13T08:03:36Z</time>
      </trkpt>
      <trkpt lat="45.908815981820226" lon="9.057011995464563">
        <ele>844</ele>
        <time>2010-06-13T08:03:37Z</time>
      </trkpt>
      <trkpt lat="45.90882402844727" lon="9.057023981586099">
        <ele>844</ele>
        <time>2010-06-13T08:03:38Z</time>
      </trkpt>
      <trkpt lat="45.908814975991845" lon="9.057023981586099">
        <ele>844</ele>
        <time>2010-06-13T08:03:39Z</time>
      </trkpt>
      <trkpt lat="45.908869039267302" lon="9.057410974055529">
        <ele>846</ele>
        <time>2010-06-13T08:04:14Z</time>
      </trkpt>
      <trkpt lat="45.908869039267302" lon="9.057423966005445">
        <ele>846</ele>
        <time>2010-06-13T08:04:15Z</time>
      </trkpt>
      <trkpt lat="45.908869039267302" lon="9.057463025674224">
        <ele>846</ele>
        <time>2010-06-13T08:04:17Z</time>
      </trkpt>
      <trkpt lat="45.908869039267302" lon="9.057489009574056">
        <ele>846</ele>
        <time>2010-06-13T08:04:19Z</time>
      </trkpt>
      <trkpt lat="45.908869039267302" lon="9.057513987645507">
        <ele>847</ele>
        <time>2010-06-13T08:04:21Z</time>
      </trkpt>
      <trkpt lat="45.908878007903695" lon="9.057526979595423">
        <ele>847</ele>
        <time>2010-06-13T08:04:22Z</time>
      </trkpt>
      <trkpt lat="45.908878007903695" lon="9.057539971545339">
        <ele>846</ele>
        <time>2010-06-13T08:04:23Z</time>
      </trkpt>
      <trkpt lat="45.908886976540089" lon="9.057552963495255">
        <ele>847</ele>
        <time>2010-06-13T08:04:24Z</time>
      </trkpt>
      <trkpt lat="45.908886976540089" lon="9.057566039264202">
        <ele>847</ele>
        <time>2010-06-13T08:04:25Z</time>
      </trkpt>
      <trkpt lat="45.908886976540089" lon="9.057579031214118">
        <ele>847</ele>
        <time>2010-06-13T08:04:26Z</time>
      </trkpt>
      <trkpt lat="45.908896028995514" lon="9.057592023164034">
        <ele>846</ele>
        <time>2010-06-13T08:04:27Z</time>
      </trkpt>
      <trkpt lat="45.908896028995514" lon="9.05760501511395">
        <ele>846</ele>
        <time>2010-06-13T08:04:28Z</time>
      </trkpt>
      <trkpt lat="45.908896028995514" lon="9.057617001235485">
        <ele>846</ele>
        <time>2010-06-13T08:04:29Z</time>
      </trkpt>
      <trkpt lat="45.908904997631907" lon="9.057630999013782">
        <ele>846</ele>
        <time>2010-06-13T08:04:30Z</time>
      </trkpt>
      <trkpt lat="45.908913966268301" lon="9.057642985135317">
        <ele>847</ele>
        <time>2010-06-13T08:04:31Z</time>
      </trkpt>
      <trkpt lat="45.908913966268301" lon="9.057655977085233">
        <ele>847</ele>
        <time>2010-06-13T08:04:32Z</time>
      </trkpt>
      <trkpt lat="45.908923018723726" lon="9.057668969035149">
        <ele>847</ele>
        <time>2010-06-13T08:04:33Z</time>
      </trkpt>
      <trkpt lat="45.908923018723726" lon="9.057668969035149">
        <ele>847</ele>
        <time>2010-06-13T08:04:34Z</time>
      </trkpt>
      <trkpt lat="45.90893198736012" lon="9.057695036754012">
        <ele>847</ele>
        <time>2010-06-13T08:04:35Z</time>
      </trkpt>
      <trkpt lat="45.90893198736012" lon="9.057721020653844">
        <ele>847</ele>
        <time>2010-06-13T08:04:37Z</time>
      </trkpt>
      <trkpt lat="45.90893198736012" lon="9.05773401260376">
        <ele>847</ele>
        <time>2010-06-13T08:04:38Z</time>
      </trkpt>
      <trkpt lat="45.908941039815545" lon="9.057747004553676">
        <ele>846</ele>
        <time>2010-06-13T08:04:39Z</time>
      </trkpt>
      <trkpt lat="45.908941039815545" lon="9.057758990675211">
        <ele>846</ele>
        <time>2010-06-13T08:04:40Z</time>
      </trkpt>
      <trkpt lat="45.908941039815545" lon="9.057771982625127">
        <ele>847</ele>
        <time>2010-06-13T08:04:41Z</time>
      </trkpt>
      <trkpt lat="45.908950008451939" lon="9.057784974575043">
        <ele>847</ele>
        <time>2010-06-13T08:04:42Z</time>
      </trkpt>
      <trkpt lat="45.908950008451939" lon="9.057797966524959">
        <ele>848</ele>
        <time>2010-06-13T08:04:43Z</time>
      </trkpt>
      <trkpt lat="45.908958977088332" lon="9.057824034243822">
        <ele>848</ele>
        <time>2010-06-13T08:04:44Z</time>
      </trkpt>
      <trkpt lat="45.908968029543757" lon="9.057824034243822">
        <ele>848</ele>
        <time>2010-06-13T08:04:45Z</time>
      </trkpt>
      <trkpt lat="45.908976998180151" lon="9.057824034243822">
        <ele>848</ele>
        <time>2010-06-13T08:04:46Z</time>
      </trkpt>
      <trkpt lat="45.908985966816545" lon="9.057837026193738">
        <ele>848</ele>
        <time>2010-06-13T08:04:47Z</time>
      </trkpt>
      <trkpt lat="45.909003987908363" lon="9.057837026193738">
        <ele>848</ele>
        <time>2010-06-13T08:04:48Z</time>
      </trkpt>
      <trkpt lat="45.909003987908363" lon="9.057850018143654">
        <ele>848</ele>
        <time>2010-06-13T08:04:49Z</time>
      </trkpt>
      <trkpt lat="45.909013040363789" lon="9.057876002043486">
        <ele>848</ele>
        <time>2010-06-13T08:04:50Z</time>
      </trkpt>
      <trkpt lat="45.909013040363789" lon="9.057888993993402">
        <ele>848</ele>
        <time>2010-06-13T08:04:51Z</time>
      </trkpt>
      <trkpt lat="45.909013040363789" lon="9.057900980114937">
        <ele>848</ele>
        <time>2010-06-13T08:04:52Z</time>
      </trkpt>
      <trkpt lat="45.909022009000182" lon="9.057913972064853">
        <ele>848</ele>
        <time>2010-06-13T08:04:53Z</time>
      </trkpt>
      <trkpt lat="45.909030977636576" lon="9.057913972064853">
        <ele>849</ele>
        <time>2010-06-13T08:04:54Z</time>
      </trkpt>
      <trkpt lat="45.909030977636576" lon="9.057926964014769">
        <ele>849</ele>
        <time>2010-06-13T08:04:55Z</time>
      </trkpt>
      <trkpt lat="45.909040030092001" lon="9.057940039783716">
        <ele>849</ele>
        <time>2010-06-13T08:04:56Z</time>
      </trkpt>
      <trkpt lat="45.909048998728395" lon="9.057940039783716">
        <ele>849</ele>
        <time>2010-06-13T08:04:57Z</time>
      </trkpt>
      <trkpt lat="45.909048998728395" lon="9.057953031733632">
        <ele>849</ele>
        <time>2010-06-13T08:04:58Z</time>
      </trkpt>
      <trkpt lat="45.909057967364788" lon="9.057966023683548">
        <ele>849</ele>
        <time>2010-06-13T08:04:59Z</time>
      </trkpt>
      <trkpt lat="45.909057967364788" lon="9.057966023683548">
        <ele>849</ele>
        <time>2010-06-13T08:05:00Z</time>
      </trkpt>
      <trkpt lat="45.909067019820213" lon="9.057979015633464">
        <ele>849</ele>
        <time>2010-06-13T08:05:01Z</time>
      </trkpt>
      <trkpt lat="45.909075988456607" lon="9.05799200758338">
        <ele>849</ele>
        <time>2010-06-13T08:05:02Z</time>
      </trkpt>
      <trkpt lat="45.909075988456607" lon="9.05799200758338">
        <ele>849</ele>
        <time>2010-06-13T08:05:03Z</time>
      </trkpt>
      <trkpt lat="45.909085040912032" lon="9.058004999533296">
        <ele>849</ele>
        <time>2010-06-13T08:05:04Z</time>
      </trkpt>
      <trkpt lat="45.909085040912032" lon="9.058017991483212">
        <ele>850</ele>
        <time>2010-06-13T08:05:05Z</time>
      </trkpt>
      <trkpt lat="45.909094009548426" lon="9.058029977604747">
        <ele>850</ele>
        <time>2010-06-13T08:05:06Z</time>
      </trkpt>
      <trkpt lat="45.909094009548426" lon="9.058042969554663">
        <ele>850</ele>
        <time>2010-06-13T08:05:07Z</time>
      </trkpt>
      <trkpt lat="45.909094009548426" lon="9.058055961504579">
        <ele>850</ele>
        <time>2010-06-13T08:05:08Z</time>
      </trkpt>
      <trkpt lat="45.909094009548426" lon="9.058108013123274">
        <ele>850</ele>
        <time>2010-06-13T08:05:11Z</time>
      </trkpt>
      <trkpt lat="45.909102978184819" lon="9.05812100507319">
        <ele>850</ele>
        <time>2010-06-13T08:05:12Z</time>
      </trkpt>
      <trkpt lat="45.909112030640244" lon="9.058133997023106">
        <ele>850</ele>
        <time>2010-06-13T08:05:13Z</time>
      </trkpt>
      <trkpt lat="45.909120999276638" lon="9.058145983144641">
        <ele>850</ele>
        <time>2010-06-13T08:05:14Z</time>
      </trkpt>
      <trkpt lat="45.909129967913032" lon="9.058145983144641">
        <ele>849</ele>
        <time>2010-06-13T08:05:15Z</time>
      </trkpt>
      <trkpt lat="45.909139020368457" lon="9.058158975094557">
        <ele>849</ele>
        <time>2010-06-13T08:05:16Z</time>
      </trkpt>
      <trkpt lat="45.90914798900485" lon="9.058171967044473">
        <ele>850</ele>
        <time>2010-06-13T08:05:17Z</time>
      </trkpt>
      <trkpt lat="45.909157041460276" lon="9.058171967044473">
        <ele>850</ele>
        <time>2010-06-13T08:05:18Z</time>
      </trkpt>
      <trkpt lat="45.909166010096669" lon="9.058171967044473">
        <ele>851</ele>
        <time>2010-06-13T08:05:19Z</time>
      </trkpt>
      <trkpt lat="45.909174978733063" lon="9.058184958994389">
        <ele>851</ele>
        <time>2010-06-13T08:05:20Z</time>
      </trkpt>
      <trkpt lat="45.909184031188488" lon="9.058184958994389">
        <ele>851</ele>
        <time>2010-06-13T08:05:22Z</time>
      </trkpt>
      <trkpt lat="45.909201968461275" lon="9.058198034763336">
        <ele>851</ele>
        <time>2010-06-13T08:05:23Z</time>
      </trkpt>
      <trkpt lat="45.9092110209167" lon="9.058211026713252">
        <ele>852</ele>
        <time>2010-06-13T08:05:24Z</time>
      </trkpt>
      <trkpt lat="45.909228958189487" lon="9.058211026713252">
        <ele>852</ele>
        <time>2010-06-13T08:05:25Z</time>
      </trkpt>
      <trkpt lat="45.909238010644913" lon="9.058211026713252">
        <ele>852</ele>
        <time>2010-06-13T08:05:26Z</time>
      </trkpt>
      <trkpt lat="45.909246979281306" lon="9.058224018663168">
        <ele>852</ele>
        <time>2010-06-13T08:05:27Z</time>
      </trkpt>
      <trkpt lat="45.909256031736732" lon="9.058224018663168">
        <ele>852</ele>
        <time>2010-06-13T08:05:28Z</time>
      </trkpt>
      <trkpt lat="45.909265000373125" lon="9.058224018663168">
        <ele>852</ele>
        <time>2010-06-13T08:05:29Z</time>
      </trkpt>
      <trkpt lat="45.909273969009519" lon="9.058224018663168">
        <ele>852</ele>
        <time>2010-06-13T08:05:30Z</time>
      </trkpt>
      <trkpt lat="45.909283021464944" lon="9.058237010613084">
        <ele>851</ele>
        <time>2010-06-13T08:05:31Z</time>
      </trkpt>
      <trkpt lat="45.909291990101337" lon="9.058250002563">
        <ele>852</ele>
        <time>2010-06-13T08:05:32Z</time>
      </trkpt>
      <trkpt lat="45.909291990101337" lon="9.058250002563">
        <ele>852</ele>
        <time>2010-06-13T08:05:33Z</time>
      </trkpt>
      <trkpt lat="45.909300958737731" lon="9.058262994512916">
        <ele>852</ele>
        <time>2010-06-13T08:05:34Z</time>
      </trkpt>
      <trkpt lat="45.909310011193156" lon="9.058262994512916">
        <ele>852</ele>
        <time>2010-06-13T08:05:35Z</time>
      </trkpt>
      <trkpt lat="45.909328032284975" lon="9.058262994512916">
        <ele>852</ele>
        <time>2010-06-13T08:05:36Z</time>
      </trkpt>
      <trkpt lat="45.909337000921369" lon="9.058250002563">
        <ele>852</ele>
        <time>2010-06-13T08:05:37Z</time>
      </trkpt>
      <trkpt lat="45.909355022013187" lon="9.058250002563">
        <ele>853</ele>
        <time>2010-06-13T08:05:38Z</time>
      </trkpt>
      <trkpt lat="45.9093820117414" lon="9.058250002563">
        <ele>853</ele>
        <time>2010-06-13T08:05:40Z</time>
      </trkpt>
      <trkpt lat="45.909390980377793" lon="9.058250002563">
        <ele>852</ele>
        <time>2010-06-13T08:05:41Z</time>
      </trkpt>
      <trkpt lat="45.909409001469612" lon="9.058262994512916">
        <ele>852</ele>
        <time>2010-06-13T08:05:42Z</time>
      </trkpt>
      <trkpt lat="45.909417970106006" lon="9.058262994512916">
        <ele>852</ele>
        <time>2010-06-13T08:05:43Z</time>
      </trkpt>
      <trkpt lat="45.909427022561431" lon="9.058275986462832">
        <ele>852</ele>
        <time>2010-06-13T08:05:44Z</time>
      </trkpt>
      <trkpt lat="45.909444959834218" lon="9.058275986462832">
        <ele>852</ele>
        <time>2010-06-13T08:05:45Z</time>
      </trkpt>
      <trkpt lat="45.909462980926037" lon="9.058288978412747">
        <ele>852</ele>
        <time>2010-06-13T08:05:46Z</time>
      </trkpt>
      <trkpt lat="45.909472033381462" lon="9.058288978412747">
        <ele>852</ele>
        <time>2010-06-13T08:05:47Z</time>
      </trkpt>
      <trkpt lat="45.909489970654249" lon="9.058301970362663">
        <ele>853</ele>
        <time>2010-06-13T08:05:48Z</time>
      </trkpt>
      <trkpt lat="45.909489970654249" lon="9.05831404030323">
        <ele>853</ele>
        <time>2010-06-13T08:05:49Z</time>
      </trkpt>
      <trkpt lat="45.909499023109674" lon="9.05831404030323">
        <ele>852</ele>
        <time>2010-06-13T08:05:50Z</time>
      </trkpt>
      <trkpt lat="45.909499023109674" lon="9.058327032253146">
        <ele>852</ele>
        <time>2010-06-13T08:05:51Z</time>
      </trkpt>
      <trkpt lat="45.909499023109674" lon="9.058340024203062">
        <ele>853</ele>
        <time>2010-06-13T08:05:52Z</time>
      </trkpt>
      <trkpt lat="45.909516960382462" lon="9.058340024203062">
        <ele>853</ele>
        <time>2010-06-13T08:05:53Z</time>
      </trkpt>
      <trkpt lat="45.909526012837887" lon="9.058340024203062">
        <ele>853</ele>
        <time>2010-06-13T08:05:54Z</time>
      </trkpt>
      <trkpt lat="45.909553002566099" lon="9.058340024203062">
        <ele>853</ele>
        <time>2010-06-13T08:05:56Z</time>
      </trkpt>
      <trkpt lat="45.909561971202493" lon="9.058340024203062">
        <ele>853</ele>
        <time>2010-06-13T08:05:57Z</time>
      </trkpt>
      <trkpt lat="45.909571023657918" lon="9.058353016152978">
        <ele>853</ele>
        <time>2010-06-13T08:05:58Z</time>
      </trkpt>
      <trkpt lat="45.90959801338613" lon="9.058353016152978">
        <ele>854</ele>
        <time>2010-06-13T08:06:01Z</time>
      </trkpt>
      <trkpt lat="45.90970597229898" lon="9.058327032253146">
        <ele>855</ele>
        <time>2010-06-13T08:06:09Z</time>
      </trkpt>
      <trkpt lat="45.909715024754405" lon="9.058314962312579">
        <ele>855</ele>
        <time>2010-06-13T08:06:10Z</time>
      </trkpt>
      <trkpt lat="45.909723993390799" lon="9.058314962312579">
        <ele>855</ele>
        <time>2010-06-13T08:06:11Z</time>
      </trkpt>
      <trkpt lat="45.909732962027192" lon="9.058314962312579">
        <ele>855</ele>
        <time>2010-06-13T08:06:12Z</time>
      </trkpt>
      <trkpt lat="45.909742014482617" lon="9.058314962312579">
        <ele>855</ele>
        <time>2010-06-13T08:06:13Z</time>
      </trkpt>
      <trkpt lat="45.90976900421083" lon="9.058314962312579">
        <ele>855</ele>
        <time>2010-06-13T08:06:16Z</time>
      </trkpt>
      <trkpt lat="45.909777972847223" lon="9.058328038081527">
        <ele>856</ele>
        <time>2010-06-13T08:06:18Z</time>
      </trkpt>
      <trkpt lat="45.909787025302649" lon="9.058314962312579">
        <ele>856</ele>
        <time>2010-06-13T08:06:19Z</time>
      </trkpt>
      <trkpt lat="45.909795993939042" lon="9.058314962312579">
        <ele>856</ele>
        <time>2010-06-13T08:06:20Z</time>
      </trkpt>
      <trkpt lat="45.909814015030861" lon="9.058314962312579">
        <ele>856</ele>
        <time>2010-06-13T08:06:21Z</time>
      </trkpt>
      <trkpt lat="45.909822983667254" lon="9.058301970362663">
        <ele>856</ele>
        <time>2010-06-13T08:06:22Z</time>
      </trkpt>
      <trkpt lat="45.909849973395467" lon="9.058301970362663">
        <ele>857</ele>
        <time>2010-06-13T08:06:24Z</time>
      </trkpt>
      <trkpt lat="45.909867994487286" lon="9.058288978412747">
        <ele>857</ele>
        <time>2010-06-13T08:06:25Z</time>
      </trkpt>
      <trkpt lat="45.909876963123679" lon="9.058301970362663">
        <ele>857</ele>
        <time>2010-06-13T08:06:26Z</time>
      </trkpt>
      <trkpt lat="45.909886015579104" lon="9.058301970362663">
        <ele>857</ele>
        <time>2010-06-13T08:06:27Z</time>
      </trkpt>
      <trkpt lat="45.909886015579104" lon="9.058301970362663">
        <ele>857</ele>
        <time>2010-06-13T08:06:28Z</time>
      </trkpt>
      <trkpt lat="45.909894984215498" lon="9.058314962312579">
        <ele>857</ele>
        <time>2010-06-13T08:06:29Z</time>
      </trkpt>
      <trkpt lat="45.909904036670923" lon="9.058314962312579">
        <ele>858</ele>
        <time>2010-06-13T08:06:30Z</time>
      </trkpt>
      <trkpt lat="45.909913005307317" lon="9.058328038081527">
        <ele>858</ele>
        <time>2010-06-13T08:06:31Z</time>
      </trkpt>
      <trkpt lat="45.909939995035529" lon="9.058328038081527">
        <ele>858</ele>
        <time>2010-06-13T08:06:33Z</time>
      </trkpt>
      <trkpt lat="45.909958016127348" lon="9.058328038081527">
        <ele>857</ele>
        <time>2010-06-13T08:06:34Z</time>
      </trkpt>
      <trkpt lat="45.909966984763741" lon="9.058328038081527">
        <ele>857</ele>
        <time>2010-06-13T08:06:35Z</time>
      </trkpt>
      <trkpt lat="45.910011995583773" lon="9.058328038081527">
        <ele>858</ele>
        <time>2010-06-13T08:06:37Z</time>
      </trkpt>
      <trkpt lat="45.910020964220166" lon="9.058328038081527">
        <ele>857</ele>
        <time>2010-06-13T08:06:38Z</time>
      </trkpt>
      <trkpt lat="45.910038985311985" lon="9.058328038081527">
        <ele>857</ele>
        <time>2010-06-13T08:06:39Z</time>
      </trkpt>
      <trkpt lat="45.910057006403804" lon="9.058328038081527">
        <ele>857</ele>
        <time>2010-06-13T08:06:40Z</time>
      </trkpt>
      <trkpt lat="45.910083996132016" lon="9.058341030031443">
        <ele>857</ele>
        <time>2010-06-13T08:06:41Z</time>
      </trkpt>
      <trkpt lat="45.910110985860229" lon="9.058354021981359">
        <ele>857</ele>
        <time>2010-06-13T08:06:42Z</time>
      </trkpt>
      <trkpt lat="45.910129006952047" lon="9.058354021981359">
        <ele>856</ele>
        <time>2010-06-13T08:06:43Z</time>
      </trkpt>
      <trkpt lat="45.91015599668026" lon="9.058354021981359">
        <ele>856</ele>
        <time>2010-06-13T08:06:44Z</time>
      </trkpt>
      <trkpt lat="45.91015599668026" lon="9.058354021981359">
        <ele>856</ele>
        <time>2010-06-13T08:06:45Z</time>
      </trkpt>
      <trkpt lat="45.91015599668026" lon="9.058354021981359">
        <ele>856</ele>
        <time>2010-06-13T08:06:47Z</time>
      </trkpt>
      <trkpt lat="45.910083996132016" lon="9.058546973392367">
        <ele>859</ele>
        <time>2010-06-13T08:07:03Z</time>
      </trkpt>
      <trkpt lat="45.910083996132016" lon="9.058559965342283">
        <ele>859</ele>
        <time>2010-06-13T08:07:04Z</time>
      </trkpt>
      <trkpt lat="45.910075027495623" lon="9.058586033061147">
        <ele>858</ele>
        <time>2010-06-13T08:07:05Z</time>
      </trkpt>
      <trkpt lat="45.910075027495623" lon="9.058599025011063">
        <ele>859</ele>
        <time>2010-06-13T08:07:06Z</time>
      </trkpt>
      <trkpt lat="45.910065975040197" lon="9.058612016960979">
        <ele>859</ele>
        <time>2010-06-13T08:07:07Z</time>
      </trkpt>
      <trkpt lat="45.910065975040197" lon="9.058624003082514">
        <ele>858</ele>
        <time>2010-06-13T08:07:08Z</time>
      </trkpt>
      <trkpt lat="45.910057006403804" lon="9.058649986982346">
        <ele>859</ele>
        <time>2010-06-13T08:07:09Z</time>
      </trkpt>
      <trkpt lat="45.91004803776741" lon="9.058662978932262">
        <ele>859</ele>
        <time>2010-06-13T08:07:10Z</time>
      </trkpt>
      <trkpt lat="45.910038985311985" lon="9.058675970882177">
        <ele>859</ele>
        <time>2010-06-13T08:07:11Z</time>
      </trkpt>
      <trkpt lat="45.910030016675591" lon="9.058702038601041">
        <ele>859</ele>
        <time>2010-06-13T08:07:12Z</time>
      </trkpt>
      <trkpt lat="45.910020964220166" lon="9.058715030550957">
        <ele>859</ele>
        <time>2010-06-13T08:07:13Z</time>
      </trkpt>
      <trkpt lat="45.910011995583773" lon="9.058741014450789">
        <ele>860</ele>
        <time>2010-06-13T08:07:14Z</time>
      </trkpt>
      <trkpt lat="45.910002021118999" lon="9.058753000572324">
        <ele>860</ele>
        <time>2010-06-13T08:07:15Z</time>
      </trkpt>
      <trkpt lat="45.909993974491954" lon="9.05876599252224">
        <ele>860</ele>
        <time>2010-06-13T08:07:16Z</time>
      </trkpt>
      <trkpt lat="45.90998500585556" lon="9.058791976422072">
        <ele>860</ele>
        <time>2010-06-13T08:07:17Z</time>
      </trkpt>
      <trkpt lat="45.909976037219167" lon="9.058804968371987">
        <ele>860</ele>
        <time>2010-06-13T08:07:18Z</time>
      </trkpt>
      <trkpt lat="45.909966984763741" lon="9.058817960321903">
        <ele>860</ele>
        <time>2010-06-13T08:07:19Z</time>
      </trkpt>
      <trkpt lat="45.909957010298967" lon="9.058831036090851">
        <ele>860</ele>
        <time>2010-06-13T08:07:20Z</time>
      </trkpt>
      <trkpt lat="45.909957010298967" lon="9.058856014162302">
        <ele>861</ele>
        <time>2010-06-13T08:07:21Z</time>
      </trkpt>
      <trkpt lat="45.909957010298967" lon="9.058869006112218">
        <ele>861</ele>
        <time>2010-06-13T08:07:22Z</time>
      </trkpt>
      <trkpt lat="45.909957010298967" lon="9.058907981961966">
        <ele>861</ele>
        <time>2010-06-13T08:07:24Z</time>
      </trkpt>
      <trkpt lat="45.909957010298967" lon="9.058947041630745">
        <ele>861</ele>
        <time>2010-06-13T08:07:26Z</time>
      </trkpt>
      <trkpt lat="45.909957010298967" lon="9.058960033580661">
        <ele>861</ele>
        <time>2010-06-13T08:07:27Z</time>
      </trkpt>
      <trkpt lat="45.909957010298967" lon="9.058972019702196">
        <ele>861</ele>
        <time>2010-06-13T08:07:28Z</time>
      </trkpt>
      <trkpt lat="45.909957010298967" lon="9.058985011652112">
        <ele>861</ele>
        <time>2010-06-13T08:07:29Z</time>
      </trkpt>
      <trkpt lat="45.909957010298967" lon="9.058998003602028">
        <ele>861</ele>
        <time>2010-06-13T08:07:30Z</time>
      </trkpt>
      <trkpt lat="45.909957010298967" lon="9.05902398750186">
        <ele>862</ele>
        <time>2010-06-13T08:07:31Z</time>
      </trkpt>
      <trkpt lat="45.909965978935361" lon="9.059036979451776">
        <ele>862</ele>
        <time>2010-06-13T08:07:32Z</time>
      </trkpt>
      <trkpt lat="45.909965978935361" lon="9.059062963351607">
        <ele>862</ele>
        <time>2010-06-13T08:07:33Z</time>
      </trkpt>
      <trkpt lat="45.909965978935361" lon="9.059089031070471">
        <ele>862</ele>
        <time>2010-06-13T08:07:34Z</time>
      </trkpt>
      <trkpt lat="45.909965978935361" lon="9.059101017192006">
        <ele>862</ele>
        <time>2010-06-13T08:07:35Z</time>
      </trkpt>
      <trkpt lat="45.909976037219167" lon="9.059114009141922">
        <ele>862</ele>
        <time>2010-06-13T08:07:36Z</time>
      </trkpt>
      <trkpt lat="45.909975031390786" lon="9.059139993041754">
        <ele>862</ele>
        <time>2010-06-13T08:07:37Z</time>
      </trkpt>
      <trkpt lat="45.90998400002718" lon="9.05915298499167">
        <ele>862</ele>
        <time>2010-06-13T08:07:38Z</time>
      </trkpt>
      <trkpt lat="45.90998400002718" lon="9.059178968891501">
        <ele>863</ele>
        <time>2010-06-13T08:07:39Z</time>
      </trkpt>
      <trkpt lat="45.909992968663573" lon="9.059191960841417">
        <ele>863</ele>
        <time>2010-06-13T08:07:40Z</time>
      </trkpt>
      <trkpt lat="45.910002021118999" lon="9.059205036610365">
        <ele>863</ele>
        <time>2010-06-13T08:07:41Z</time>
      </trkpt>
      <trkpt lat="45.910010989755392" lon="9.059231020510197">
        <ele>864</ele>
        <time>2010-06-13T08:07:42Z</time>
      </trkpt>
      <trkpt lat="45.910010989755392" lon="9.059255998581648">
        <ele>864</ele>
        <time>2010-06-13T08:07:43Z</time>
      </trkpt>
      <trkpt lat="45.910019958391786" lon="9.059268990531564">
        <ele>864</ele>
        <time>2010-06-13T08:07:44Z</time>
      </trkpt>
      <trkpt lat="45.910029010847211" lon="9.05928198248148">
        <ele>863</ele>
        <time>2010-06-13T08:07:45Z</time>
      </trkpt>
      <trkpt lat="45.910029010847211" lon="9.059307966381311">
        <ele>863</ele>
        <time>2010-06-13T08:07:46Z</time>
      </trkpt>
      <trkpt lat="45.91004703193903" lon="9.059320958331227">
        <ele>863</ele>
        <time>2010-06-13T08:07:47Z</time>
      </trkpt>
      <trkpt lat="45.91004703193903" lon="9.059334034100175">
        <ele>864</ele>
        <time>2010-06-13T08:07:48Z</time>
      </trkpt>
      <trkpt lat="45.910056000575423" lon="9.059347026050091">
        <ele>864</ele>
        <time>2010-06-13T08:07:49Z</time>
      </trkpt>
      <trkpt lat="45.910074021667242" lon="9.059372004121542">
        <ele>864</ele>
        <time>2010-06-13T08:07:51Z</time>
      </trkpt>
      <trkpt lat="45.910082990303636" lon="9.059384996071458">
        <ele>864</ele>
        <time>2010-06-13T08:07:52Z</time>
      </trkpt>
      <trkpt lat="45.910091958940029" lon="9.059384996071458">
        <ele>864</ele>
        <time>2010-06-13T08:07:53Z</time>
      </trkpt>
      <trkpt lat="45.910091958940029" lon="9.05941097997129">
        <ele>864</ele>
        <time>2010-06-13T08:07:54Z</time>
      </trkpt>
      <trkpt lat="45.910101011395454" lon="9.059423971921206">
        <ele>865</ele>
        <time>2010-06-13T08:07:55Z</time>
      </trkpt>
      <trkpt lat="45.910109980031848" lon="9.059436963871121">
        <ele>865</ele>
        <time>2010-06-13T08:07:56Z</time>
      </trkpt>
      <trkpt lat="45.910119032487273" lon="9.059463031589985">
        <ele>865</ele>
        <time>2010-06-13T08:07:57Z</time>
      </trkpt>
      <trkpt lat="45.910119032487273" lon="9.059476023539901">
        <ele>865</ele>
        <time>2010-06-13T08:07:58Z</time>
      </trkpt>
      <trkpt lat="45.910128001123667" lon="9.059488009661436">
        <ele>865</ele>
        <time>2010-06-13T08:07:59Z</time>
      </trkpt>
      <trkpt lat="45.910128001123667" lon="9.059501001611352">
        <ele>865</ele>
        <time>2010-06-13T08:08:00Z</time>
      </trkpt>
      <trkpt lat="45.910128001123667" lon="9.059526985511184">
        <ele>865</ele>
        <time>2010-06-13T08:08:01Z</time>
      </trkpt>
      <trkpt lat="45.91013696976006" lon="9.0595399774611">
        <ele>865</ele>
        <time>2010-06-13T08:08:02Z</time>
      </trkpt>
      <trkpt lat="45.91013696976006" lon="9.059552969411016">
        <ele>865</ele>
        <time>2010-06-13T08:08:03Z</time>
      </trkpt>
      <trkpt lat="45.910146022215486" lon="9.059579037129879">
        <ele>865</ele>
        <time>2010-06-13T08:08:04Z</time>
      </trkpt>
      <trkpt lat="45.910154990851879" lon="9.059592029079795">
        <ele>865</ele>
        <time>2010-06-13T08:08:05Z</time>
      </trkpt>
      <trkpt lat="45.910154990851879" lon="9.05960401520133">
        <ele>866</ele>
        <time>2010-06-13T08:08:06Z</time>
      </trkpt>
      <trkpt lat="45.910163959488273" lon="9.059629999101162">
        <ele>865</ele>
        <time>2010-06-13T08:08:07Z</time>
      </trkpt>
      <trkpt lat="45.910173011943698" lon="9.059642991051078">
        <ele>865</ele>
        <time>2010-06-13T08:08:08Z</time>
      </trkpt>
      <trkpt lat="45.910181980580091" lon="9.059642991051078">
        <ele>865</ele>
        <time>2010-06-13T08:08:09Z</time>
      </trkpt>
      <trkpt lat="45.910181980580091" lon="9.059655983000994">
        <ele>866</ele>
        <time>2010-06-13T08:08:10Z</time>
      </trkpt>
      <trkpt lat="45.91020000167191" lon="9.059681966900826">
        <ele>866</ele>
        <time>2010-06-13T08:08:11Z</time>
      </trkpt>
      <trkpt lat="45.910208970308304" lon="9.059694958850741">
        <ele>867</ele>
        <time>2010-06-13T08:08:12Z</time>
      </trkpt>
      <trkpt lat="45.910208970308304" lon="9.059721026569605">
        <ele>867</ele>
        <time>2010-06-13T08:08:13Z</time>
      </trkpt>
      <trkpt lat="45.910208970308304" lon="9.059734018519521">
        <ele>867</ele>
        <time>2010-06-13T08:08:14Z</time>
      </trkpt>
      <trkpt lat="45.910218022763729" lon="9.059758996590972">
        <ele>867</ele>
        <time>2010-06-13T08:08:15Z</time>
      </trkpt>
      <trkpt lat="45.910218022763729" lon="9.059771988540888">
        <ele>867</ele>
        <time>2010-06-13T08:08:16Z</time>
      </trkpt>
      <trkpt lat="45.910218022763729" lon="9.059784980490804">
        <ele>867</ele>
        <time>2010-06-13T08:08:17Z</time>
      </trkpt>
      <trkpt lat="45.910218022763729" lon="9.059810964390636">
        <ele>867</ele>
        <time>2010-06-13T08:08:18Z</time>
      </trkpt>
      <trkpt lat="45.910226991400123" lon="9.059824040159583">
        <ele>867</ele>
        <time>2010-06-13T08:08:19Z</time>
      </trkpt>
      <trkpt lat="45.910218022763729" lon="9.059837032109499">
        <ele>867</ele>
        <time>2010-06-13T08:08:20Z</time>
      </trkpt>
      <trkpt lat="45.910218022763729" lon="9.05986201018095">
        <ele>867</ele>
        <time>2010-06-13T08:08:21Z</time>
      </trkpt>
      <trkpt lat="45.910226991400123" lon="9.059875002130866">
        <ele>867</ele>
        <time>2010-06-13T08:08:22Z</time>
      </trkpt>
      <trkpt lat="45.910235960036516" lon="9.05992696993053">
        <ele>867</ele>
        <time>2010-06-13T08:08:24Z</time>
      </trkpt>
      <trkpt lat="45.910235960036516" lon="9.059939961880446">
        <ele>867</ele>
        <time>2010-06-13T08:08:25Z</time>
      </trkpt>
      <trkpt lat="45.910245012491941" lon="9.059953037649393">
        <ele>867</ele>
        <time>2010-06-13T08:08:26Z</time>
      </trkpt>
      <trkpt lat="45.910253981128335" lon="9.059966029599309">
        <ele>868</ele>
        <time>2010-06-13T08:08:27Z</time>
      </trkpt>
      <trkpt lat="45.91026303358376" lon="9.059979021549225">
        <ele>868</ele>
        <time>2010-06-13T08:08:28Z</time>
      </trkpt>
      <trkpt lat="45.91026303358376" lon="9.05999100767076">
        <ele>868</ele>
        <time>2010-06-13T08:08:29Z</time>
      </trkpt>
      <trkpt lat="45.910272002220154" lon="9.060016991570592">
        <ele>868</ele>
        <time>2010-06-13T08:08:31Z</time>
      </trkpt>
      <trkpt lat="45.910280970856547" lon="9.060029983520508">
        <ele>868</ele>
        <time>2010-06-13T08:08:32Z</time>
      </trkpt>
      <trkpt lat="45.910290023311973" lon="9.060029983520508">
        <ele>868</ele>
        <time>2010-06-13T08:08:33Z</time>
      </trkpt>
      <trkpt lat="45.910298991948366" lon="9.060042975470424">
        <ele>868</ele>
        <time>2010-06-13T08:08:34Z</time>
      </trkpt>
      <trkpt lat="45.91030796058476" lon="9.060042975470424">
        <ele>870</ele>
        <time>2010-06-13T08:08:35Z</time>
      </trkpt>
      <trkpt lat="45.910325981676579" lon="9.06005596742034">
        <ele>870</ele>
        <time>2010-06-13T08:08:36Z</time>
      </trkpt>
      <trkpt lat="45.910335034132004" lon="9.06005596742034">
        <ele>869</ele>
        <time>2010-06-13T08:08:37Z</time>
      </trkpt>
      <trkpt lat="45.910344002768397" lon="9.060068959370256">
        <ele>869</ele>
        <time>2010-06-13T08:08:38Z</time>
      </trkpt>
      <trkpt lat="45.910344002768397" lon="9.060068959370256">
        <ele>869</ele>
        <time>2010-06-13T08:08:39Z</time>
      </trkpt>
      <trkpt lat="45.910352971404791" lon="9.060068959370256">
        <ele>869</ele>
        <time>2010-06-13T08:08:41Z</time>
      </trkpt>
      <trkpt lat="45.910362023860216" lon="9.060068959370256">
        <ele>870</ele>
        <time>2010-06-13T08:08:43Z</time>
      </trkpt>
      <trkpt lat="45.910362023860216" lon="9.060068959370256">
        <ele>870</ele>
        <time>2010-06-13T08:08:44Z</time>
      </trkpt>
      <trkpt lat="45.910362023860216" lon="9.06005596742034">
        <ele>870</ele>
        <time>2010-06-13T08:08:45Z</time>
      </trkpt>
      <trkpt lat="45.910362023860216" lon="9.060029983520508">
        <ele>870</ele>
        <time>2010-06-13T08:08:46Z</time>
      </trkpt>
      <trkpt lat="45.910362023860216" lon="9.060016991570592">
        <ele>870</ele>
        <time>2010-06-13T08:08:47Z</time>
      </trkpt>
      <trkpt lat="45.910362023860216" lon="9.060003999620676">
        <ele>870</ele>
        <time>2010-06-13T08:08:48Z</time>
      </trkpt>
      <trkpt lat="45.910352971404791" lon="9.059979021549225">
        <ele>871</ele>
        <time>2010-06-13T08:08:50Z</time>
      </trkpt>
      <trkpt lat="45.910352971404791" lon="9.059966029599309">
        <ele>871</ele>
        <time>2010-06-13T08:08:51Z</time>
      </trkpt>
      <trkpt lat="45.910352971404791" lon="9.059953037649393">
        <ele>871</ele>
        <time>2010-06-13T08:08:52Z</time>
      </trkpt>
      <trkpt lat="45.910344002768397" lon="9.05992696993053">
        <ele>872</ele>
        <time>2010-06-13T08:08:53Z</time>
      </trkpt>
      <trkpt lat="45.910344002768397" lon="9.059913977980614">
        <ele>872</ele>
        <time>2010-06-13T08:08:55Z</time>
      </trkpt>
      <trkpt lat="45.910335034132004" lon="9.059900986030698">
        <ele>871</ele>
        <time>2010-06-13T08:08:56Z</time>
      </trkpt>
      <trkpt lat="45.910325981676579" lon="9.059887994080782">
        <ele>872</ele>
        <time>2010-06-13T08:08:57Z</time>
      </trkpt>
      <trkpt lat="45.910317013040185" lon="9.059876007959247">
        <ele>872</ele>
        <time>2010-06-13T08:08:58Z</time>
      </trkpt>
      <trkpt lat="45.910317013040185" lon="9.059837032109499">
        <ele>872</ele>
        <time>2010-06-13T08:09:00Z</time>
      </trkpt>
      <trkpt lat="45.91030796058476" lon="9.059824040159583">
        <ele>873</ele>
        <time>2010-06-13T08:09:01Z</time>
      </trkpt>
      <trkpt lat="45.91030796058476" lon="9.059810964390636">
        <ele>873</ele>
        <time>2010-06-13T08:09:02Z</time>
      </trkpt>
      <trkpt lat="45.91030796058476" lon="9.05979797244072">
        <ele>873</ele>
        <time>2010-06-13T08:09:03Z</time>
      </trkpt>
      <trkpt lat="45.910298991948366" lon="9.059758996590972">
        <ele>874</ele>
        <time>2010-06-13T08:09:05Z</time>
      </trkpt>
      <trkpt lat="45.910290023311973" lon="9.059746004641056">
        <ele>873</ele>
        <time>2010-06-13T08:09:06Z</time>
      </trkpt>
      <trkpt lat="45.910280970856547" lon="9.059746004641056">
        <ele>873</ele>
        <time>2010-06-13T08:09:07Z</time>
      </trkpt>
      <trkpt lat="45.910280970856547" lon="9.059721026569605">
        <ele>873</ele>
        <time>2010-06-13T08:09:08Z</time>
      </trkpt>
      <trkpt lat="45.910280970856547" lon="9.059694958850741">
        <ele>874</ele>
        <time>2010-06-13T08:09:10Z</time>
      </trkpt>
      <trkpt lat="45.910280970856547" lon="9.059631004929543">
        <ele>874</ele>
        <time>2010-06-13T08:09:13Z</time>
      </trkpt>
      <trkpt lat="45.910280970856547" lon="9.059617007151246">
        <ele>874</ele>
        <time>2010-06-13T08:09:14Z</time>
      </trkpt>
      <trkpt lat="45.910272002220154" lon="9.059605021029711">
        <ele>874</ele>
        <time>2010-06-13T08:09:15Z</time>
      </trkpt>
      <trkpt lat="45.910272002220154" lon="9.059579037129879">
        <ele>874</ele>
        <time>2010-06-13T08:09:16Z</time>
      </trkpt>
      <trkpt lat="45.910272002220154" lon="9.059552969411016">
        <ele>874</ele>
        <time>2010-06-13T08:09:17Z</time>
      </trkpt>
      <trkpt lat="45.910272002220154" lon="9.059501001611352">
        <ele>874</ele>
        <time>2010-06-13T08:09:19Z</time>
      </trkpt>
      <trkpt lat="45.910272002220154" lon="9.059489015489817">
        <ele>875</ele>
        <time>2010-06-13T08:09:20Z</time>
      </trkpt>
      <trkpt lat="45.910272002220154" lon="9.059476023539901">
        <ele>875</ele>
        <time>2010-06-13T08:09:21Z</time>
      </trkpt>
      <trkpt lat="45.910272002220154" lon="9.059463031589985">
        <ele>875</ele>
        <time>2010-06-13T08:09:22Z</time>
      </trkpt>
      <trkpt lat="45.910272002220154" lon="9.059436963871121">
        <ele>875</ele>
        <time>2010-06-13T08:09:23Z</time>
      </trkpt>
      <trkpt lat="45.91026303358376" lon="9.059423971921206">
        <ele>875</ele>
        <time>2010-06-13T08:09:24Z</time>
      </trkpt>
      <trkpt lat="45.91026303358376" lon="9.059373009949923">
        <ele>876</ele>
        <time>2010-06-13T08:09:26Z</time>
      </trkpt>
      <trkpt lat="45.910253981128335" lon="9.059360018000007">
        <ele>876</ele>
        <time>2010-06-13T08:09:27Z</time>
      </trkpt>
      <trkpt lat="45.910245012491941" lon="9.059360018000007">
        <ele>876</ele>
        <time>2010-06-13T08:09:28Z</time>
      </trkpt>
      <trkpt lat="45.910235960036516" lon="9.059347026050091">
        <ele>876</ele>
        <time>2010-06-13T08:09:29Z</time>
      </trkpt>
      <trkpt lat="45.910235960036516" lon="9.059334034100175">
        <ele>876</ele>
        <time>2010-06-13T08:09:30Z</time>
      </trkpt>
      <trkpt lat="45.910226991400123" lon="9.059320958331227">
        <ele>876</ele>
        <time>2010-06-13T08:09:31Z</time>
      </trkpt>
      <trkpt lat="45.910218022763729" lon="9.059307966381311">
        <ele>876</ele>
        <time>2010-06-13T08:09:32Z</time>
      </trkpt>
      <trkpt lat="45.910218022763729" lon="9.05928198248148">
        <ele>876</ele>
        <time>2010-06-13T08:09:33Z</time>
      </trkpt>
      <trkpt lat="45.910218022763729" lon="9.059255998581648">
        <ele>876</ele>
        <time>2010-06-13T08:09:35Z</time>
      </trkpt>
      <trkpt lat="45.910218022763729" lon="9.059244012460113">
        <ele>876</ele>
        <time>2010-06-13T08:09:36Z</time>
      </trkpt>
      <trkpt lat="45.910218022763729" lon="9.059191960841417">
        <ele>876</ele>
        <time>2010-06-13T08:09:39Z</time>
      </trkpt>
      <trkpt lat="45.910218022763729" lon="9.059178968891501">
        <ele>876</ele>
        <time>2010-06-13T08:09:40Z</time>
      </trkpt>
      <trkpt lat="45.910218022763729" lon="9.059165976941586">
        <ele>876</ele>
        <time>2010-06-13T08:09:41Z</time>
      </trkpt>
      <trkpt lat="45.910226991400123" lon="9.059140998870134">
        <ele>877</ele>
        <time>2010-06-13T08:09:42Z</time>
      </trkpt>
      <trkpt lat="45.910226991400123" lon="9.059115014970303">
        <ele>877</ele>
        <time>2010-06-13T08:09:43Z</time>
      </trkpt>
      <trkpt lat="45.910235960036516" lon="9.059089031070471">
        <ele>878</ele>
        <time>2010-06-13T08:09:45Z</time>
      </trkpt>
      <trkpt lat="45.910235960036516" lon="9.059076039120555">
        <ele>878</ele>
        <time>2010-06-13T08:09:46Z</time>
      </trkpt>
      <trkpt lat="45.910235960036516" lon="9.059049971401691">
        <ele>878</ele>
        <time>2010-06-13T08:09:47Z</time>
      </trkpt>
      <trkpt lat="45.910246018320322" lon="9.059036979451776">
        <ele>878</ele>
        <time>2010-06-13T08:09:48Z</time>
      </trkpt>
      <trkpt lat="45.910246018320322" lon="9.059010995551944">
        <ele>878</ele>
        <time>2010-06-13T08:09:49Z</time>
      </trkpt>
      <trkpt lat="45.910253981128335" lon="9.058999009430409">
        <ele>878</ele>
        <time>2010-06-13T08:09:50Z</time>
      </trkpt>
      <trkpt lat="45.910253981128335" lon="9.058986017480493">
        <ele>877</ele>
        <time>2010-06-13T08:09:51Z</time>
      </trkpt>
      <trkpt lat="45.910253981128335" lon="9.058960033580661">
        <ele>878</ele>
        <time>2010-06-13T08:09:52Z</time>
      </trkpt>
      <trkpt lat="45.910264039412141" lon="9.058947041630745">
        <ele>878</ele>
        <time>2010-06-13T08:09:53Z</time>
      </trkpt>
      <trkpt lat="45.910264039412141" lon="9.058933965861797">
        <ele>878</ele>
        <time>2010-06-13T08:09:54Z</time>
      </trkpt>
      <trkpt lat="45.910272002220154" lon="9.058907981961966">
        <ele>878</ele>
        <time>2010-06-13T08:09:55Z</time>
      </trkpt>
      <trkpt lat="45.910272002220154" lon="9.05889599584043">
        <ele>878</ele>
        <time>2010-06-13T08:09:56Z</time>
      </trkpt>
      <trkpt lat="45.910281976684928" lon="9.058881998062134">
        <ele>878</ele>
        <time>2010-06-13T08:09:57Z</time>
      </trkpt>
      <trkpt lat="45.910281976684928" lon="9.058870011940599">
        <ele>878</ele>
        <time>2010-06-13T08:09:58Z</time>
      </trkpt>
      <trkpt lat="45.910291029140353" lon="9.058857019990683">
        <ele>879</ele>
        <time>2010-06-13T08:09:59Z</time>
      </trkpt>
      <trkpt lat="45.910298991948366" lon="9.058857019990683">
        <ele>878</ele>
        <time>2010-06-13T08:10:00Z</time>
      </trkpt>
      <trkpt lat="45.91030896641314" lon="9.058831036090851">
        <ele>878</ele>
        <time>2010-06-13T08:10:01Z</time>
      </trkpt>
      <trkpt lat="45.91030896641314" lon="9.058817960321903">
        <ele>879</ele>
        <time>2010-06-13T08:10:02Z</time>
      </trkpt>
      <trkpt lat="45.910317013040185" lon="9.058804968371987">
        <ele>879</ele>
        <time>2010-06-13T08:10:03Z</time>
      </trkpt>
      <trkpt lat="45.910326987504959" lon="9.058804968371987">
        <ele>879</ele>
        <time>2010-06-13T08:10:04Z</time>
      </trkpt>
      <trkpt lat="45.910336039960384" lon="9.058791976422072">
        <ele>879</ele>
        <time>2010-06-13T08:10:05Z</time>
      </trkpt>
      <trkpt lat="45.910345008596778" lon="9.058778984472156">
        <ele>879</ele>
        <time>2010-06-13T08:10:06Z</time>
      </trkpt>
      <trkpt lat="45.910353977233171" lon="9.05876699835062">
        <ele>879</ele>
        <time>2010-06-13T08:10:07Z</time>
      </trkpt>
      <trkpt lat="45.910363029688597" lon="9.058741014450789">
        <ele>880</ele>
        <time>2010-06-13T08:10:08Z</time>
      </trkpt>
      <trkpt lat="45.910363029688597" lon="9.058728022500873">
        <ele>880</ele>
        <time>2010-06-13T08:10:09Z</time>
      </trkpt>
      <trkpt lat="45.91037199832499" lon="9.058715030550957">
        <ele>880</ele>
        <time>2010-06-13T08:10:10Z</time>
      </trkpt>
      <trkpt lat="45.910380966961384" lon="9.058702038601041">
        <ele>880</ele>
        <time>2010-06-13T08:10:11Z</time>
      </trkpt>
      <trkpt lat="45.910380966961384" lon="9.058688962832093">
        <ele>880</ele>
        <time>2010-06-13T08:10:12Z</time>
      </trkpt>
      <trkpt lat="45.910390019416809" lon="9.058663984760642">
        <ele>880</ele>
        <time>2010-06-13T08:10:13Z</time>
      </trkpt>
      <trkpt lat="45.910398988053203" lon="9.058663984760642">
        <ele>880</ele>
        <time>2010-06-13T08:10:14Z</time>
      </trkpt>
      <trkpt lat="45.910398988053203" lon="9.058650992810726">
        <ele>881</ele>
        <time>2010-06-13T08:10:16Z</time>
      </trkpt>
      <trkpt lat="45.910408040508628" lon="9.05863800086081">
        <ele>880</ele>
        <time>2010-06-13T08:10:17Z</time>
      </trkpt>
      <trkpt lat="45.910417009145021" lon="9.05863800086081">
        <ele>881</ele>
        <time>2010-06-13T08:10:18Z</time>
      </trkpt>
      <trkpt lat="45.91043503023684" lon="9.05863800086081">
        <ele>881</ele>
        <time>2010-06-13T08:10:19Z</time>
      </trkpt>
      <trkpt lat="45.910443998873234" lon="9.05863800086081">
        <ele>881</ele>
        <time>2010-06-13T08:10:20Z</time>
      </trkpt>
      <trkpt lat="45.910452967509627" lon="9.05863800086081">
        <ele>881</ele>
        <time>2010-06-13T08:10:21Z</time>
      </trkpt>
      <trkpt lat="45.910452967509627" lon="9.058625008910894">
        <ele>882</ele>
        <time>2010-06-13T08:10:22Z</time>
      </trkpt>
      <trkpt lat="45.910462019965053" lon="9.058612016960979">
        <ele>882</ele>
        <time>2010-06-13T08:10:23Z</time>
      </trkpt>
      <trkpt lat="45.910470988601446" lon="9.058586033061147">
        <ele>882</ele>
        <time>2010-06-13T08:10:24Z</time>
      </trkpt>
      <trkpt lat="45.910470988601446" lon="9.058573041111231">
        <ele>882</ele>
        <time>2010-06-13T08:10:25Z</time>
      </trkpt>
      <trkpt lat="45.910480041056871" lon="9.058560971170664">
        <ele>883</ele>
        <time>2010-06-13T08:10:26Z</time>
      </trkpt>
      <trkpt lat="45.910489009693265" lon="9.058546973392367">
        <ele>883</ele>
        <time>2010-06-13T08:10:27Z</time>
      </trkpt>
      <trkpt lat="45.910489009693265" lon="9.058534987270832">
        <ele>882</ele>
        <time>2010-06-13T08:10:28Z</time>
      </trkpt>
      <trkpt lat="45.910497978329659" lon="9.058521995320916">
        <ele>882</ele>
        <time>2010-06-13T08:10:29Z</time>
      </trkpt>
      <trkpt lat="45.910515999421477" lon="9.058509003371">
        <ele>882</ele>
        <time>2010-06-13T08:10:30Z</time>
      </trkpt>
      <trkpt lat="45.910524968057871" lon="9.058509003371">
        <ele>882</ele>
        <time>2010-06-13T08:10:31Z</time>
      </trkpt>
      <trkpt lat="45.910534020513296" lon="9.058496011421084">
        <ele>883</ele>
        <time>2010-06-13T08:10:32Z</time>
      </trkpt>
      <trkpt lat="45.910534020513296" lon="9.058496011421084">
        <ele>883</ele>
        <time>2010-06-13T08:10:33Z</time>
      </trkpt>
      <trkpt lat="45.91054298914969" lon="9.058496011421084">
        <ele>882</ele>
        <time>2010-06-13T08:10:34Z</time>
      </trkpt>
      <trkpt lat="45.910552041605115" lon="9.058496011421084">
        <ele>882</ele>
        <time>2010-06-13T08:10:35Z</time>
      </trkpt>
      <trkpt lat="45.910552041605115" lon="9.058483019471169">
        <ele>882</ele>
        <time>2010-06-13T08:10:36Z</time>
      </trkpt>
      <trkpt lat="45.910561010241508" lon="9.058470027521253">
        <ele>883</ele>
        <time>2010-06-13T08:10:37Z</time>
      </trkpt>
      <trkpt lat="45.910569978877902" lon="9.058470027521253">
        <ele>883</ele>
        <time>2010-06-13T08:10:38Z</time>
      </trkpt>
      <trkpt lat="45.910579031333327" lon="9.058470027521253">
        <ele>883</ele>
        <time>2010-06-13T08:10:39Z</time>
      </trkpt>
      <trkpt lat="45.910569978877902" lon="9.058457035571337">
        <ele>883</ele>
        <time>2010-06-13T08:10:40Z</time>
      </trkpt>
      <trkpt lat="45.910579031333327" lon="9.058431973680854">
        <ele>884</ele>
        <time>2010-06-13T08:10:42Z</time>
      </trkpt>
      <trkpt lat="45.910587999969721" lon="9.058405989781022">
        <ele>883</ele>
        <time>2010-06-13T08:10:43Z</time>
      </trkpt>
      <trkpt lat="45.910596968606114" lon="9.058392997831106">
        <ele>884</ele>
        <time>2010-06-13T08:10:44Z</time>
      </trkpt>
      <trkpt lat="45.91060602106154" lon="9.05838000588119">
        <ele>884</ele>
        <time>2010-06-13T08:10:45Z</time>
      </trkpt>
      <trkpt lat="45.910614989697933" lon="9.05838000588119">
        <ele>884</ele>
        <time>2010-06-13T08:10:46Z</time>
      </trkpt>
      <trkpt lat="45.910623958334327" lon="9.058367013931274">
        <ele>884</ele>
        <time>2010-06-13T08:10:47Z</time>
      </trkpt>
      <trkpt lat="45.910633010789752" lon="9.058354021981359">
        <ele>884</ele>
        <time>2010-06-13T08:10:48Z</time>
      </trkpt>
      <trkpt lat="45.910641979426146" lon="9.058341030031443">
        <ele>884</ele>
        <time>2010-06-13T08:10:49Z</time>
      </trkpt>
      <trkpt lat="45.910651031881571" lon="9.058328960090876">
        <ele>884</ele>
        <time>2010-06-13T08:10:50Z</time>
      </trkpt>
      <trkpt lat="45.910660000517964" lon="9.058328960090876">
        <ele>884</ele>
        <time>2010-06-13T08:10:51Z</time>
      </trkpt>
      <trkpt lat="45.910668969154358" lon="9.05831596814096">
        <ele>885</ele>
        <time>2010-06-13T08:10:52Z</time>
      </trkpt>
      <trkpt lat="45.910678021609783" lon="9.058302976191044">
        <ele>884</ele>
        <time>2010-06-13T08:10:53Z</time>
      </trkpt>
      <trkpt lat="45.91069595888257" lon="9.058276992291212">
        <ele>884</ele>
        <time>2010-06-13T08:10:54Z</time>
      </trkpt>
      <trkpt lat="45.910713979974389" lon="9.05825100839138">
        <ele>884</ele>
        <time>2010-06-13T08:10:56Z</time>
      </trkpt>
      <trkpt lat="45.910723032429814" lon="9.058238016441464">
        <ele>885</ele>
        <time>2010-06-13T08:10:57Z</time>
      </trkpt>
      <trkpt lat="45.910732001066208" lon="9.058226030319929">
        <ele>885</ele>
        <time>2010-06-13T08:10:58Z</time>
      </trkpt>
      <trkpt lat="45.910732001066208" lon="9.058212032541633">
        <ele>885</ele>
        <time>2010-06-13T08:10:59Z</time>
      </trkpt>
      <trkpt lat="45.910740969702601" lon="9.058199962601066">
        <ele>885</ele>
        <time>2010-06-13T08:11:00Z</time>
      </trkpt>
      <trkpt lat="45.910740969702601" lon="9.058173978701234">
        <ele>885</ele>
        <time>2010-06-13T08:11:01Z</time>
      </trkpt>
      <trkpt lat="45.910750022158027" lon="9.058160986751318">
        <ele>886</ele>
        <time>2010-06-13T08:11:02Z</time>
      </trkpt>
      <trkpt lat="45.91075899079442" lon="9.058147994801402">
        <ele>886</ele>
        <time>2010-06-13T08:11:03Z</time>
      </trkpt>
      <trkpt lat="45.910767959430814" lon="9.058135002851486">
        <ele>886</ele>
        <time>2010-06-13T08:11:04Z</time>
      </trkpt>
      <trkpt lat="45.910785980522633" lon="9.05812201090157">
        <ele>886</ele>
        <time>2010-06-13T08:11:05Z</time>
      </trkpt>
      <trkpt lat="45.910785980522633" lon="9.058109018951654">
        <ele>886</ele>
        <time>2010-06-13T08:11:06Z</time>
      </trkpt>
      <trkpt lat="45.910795032978058" lon="9.058097032830119">
        <ele>886</ele>
        <time>2010-06-13T08:11:07Z</time>
      </trkpt>
      <trkpt lat="45.910795032978058" lon="9.058097032830119">
        <ele>887</ele>
        <time>2010-06-13T08:11:08Z</time>
      </trkpt>
      <trkpt lat="45.910804001614451" lon="9.058084040880203">
        <ele>887</ele>
        <time>2010-06-13T08:11:09Z</time>
      </trkpt>
      <trkpt lat="45.910812970250845" lon="9.058084040880203">
        <ele>888</ele>
        <time>2010-06-13T08:11:10Z</time>
      </trkpt>
      <trkpt lat="45.91082202270627" lon="9.058070965111256">
        <ele>887</ele>
        <time>2010-06-13T08:11:11Z</time>
      </trkpt>
      <trkpt lat="45.910830991342664" lon="9.05805797316134">
        <ele>887</ele>
        <time>2010-06-13T08:11:12Z</time>
      </trkpt>
      <trkpt lat="45.910830991342664" lon="9.058031989261508">
        <ele>887</ele>
        <time>2010-06-13T08:11:13Z</time>
      </trkpt>
      <trkpt lat="45.910839959979057" lon="9.058018997311592">
        <ele>887</ele>
        <time>2010-06-13T08:11:14Z</time>
      </trkpt>
      <trkpt lat="45.910849012434483" lon="9.058006005361676">
        <ele>887</ele>
        <time>2010-06-13T08:11:15Z</time>
      </trkpt>
      <trkpt lat="45.910857981070876" lon="9.057994019240141">
        <ele>887</ele>
        <time>2010-06-13T08:11:16Z</time>
      </trkpt>
      <trkpt lat="45.910867033526301" lon="9.057981027290225">
        <ele>888</ele>
        <time>2010-06-13T08:11:17Z</time>
      </trkpt>
      <trkpt lat="45.910876002162695" lon="9.057981027290225">
        <ele>888</ele>
        <time>2010-06-13T08:11:18Z</time>
      </trkpt>
      <trkpt lat="45.910876002162695" lon="9.057968035340309">
        <ele>888</ele>
        <time>2010-06-13T08:11:19Z</time>
      </trkpt>
      <trkpt lat="45.910884970799088" lon="9.057954959571362">
        <ele>888</ele>
        <time>2010-06-13T08:11:20Z</time>
      </trkpt>
      <trkpt lat="45.910894023254514" lon="9.05792897567153">
        <ele>888</ele>
        <time>2010-06-13T08:11:21Z</time>
      </trkpt>
      <trkpt lat="45.910894023254514" lon="9.057915983721614">
        <ele>888</ele>
        <time>2010-06-13T08:11:22Z</time>
      </trkpt>
      <trkpt lat="45.910902991890907" lon="9.057891005650163">
        <ele>888</ele>
        <time>2010-06-13T08:11:23Z</time>
      </trkpt>
      <trkpt lat="45.910911960527301" lon="9.057865021750331">
        <ele>889</ele>
        <time>2010-06-13T08:11:24Z</time>
      </trkpt>
      <trkpt lat="45.910921012982726" lon="9.057852029800415">
        <ele>889</ele>
        <time>2010-06-13T08:11:25Z</time>
      </trkpt>
      <trkpt lat="45.91092998161912" lon="9.057825962081552">
        <ele>889</ele>
        <time>2010-06-13T08:11:26Z</time>
      </trkpt>
      <trkpt lat="45.910939034074545" lon="9.057812970131636">
        <ele>889</ele>
        <time>2010-06-13T08:11:27Z</time>
      </trkpt>
      <trkpt lat="45.910948002710938" lon="9.05779997818172">
        <ele>889</ele>
        <time>2010-06-13T08:11:28Z</time>
      </trkpt>
      <trkpt lat="45.910956971347332" lon="9.05779997818172">
        <ele>888</ele>
        <time>2010-06-13T08:11:29Z</time>
      </trkpt>
      <trkpt lat="45.910966023802757" lon="9.057786986231804">
        <ele>889</ele>
        <time>2010-06-13T08:11:30Z</time>
      </trkpt>
      <trkpt lat="45.910966023802757" lon="9.057786986231804">
        <ele>889</ele>
        <time>2010-06-13T08:11:31Z</time>
      </trkpt>
      <trkpt lat="45.910974992439151" lon="9.057786986231804">
        <ele>889</ele>
        <time>2010-06-13T08:11:32Z</time>
      </trkpt>
      <trkpt lat="45.910974992439151" lon="9.057773994281888">
        <ele>889</ele>
        <time>2010-06-13T08:11:33Z</time>
      </trkpt>
      <trkpt lat="45.910983961075544" lon="9.057773994281888">
        <ele>889</ele>
        <time>2010-06-13T08:11:34Z</time>
      </trkpt>
      <trkpt lat="45.91099301353097" lon="9.057773994281888">
        <ele>890</ele>
        <time>2010-06-13T08:11:35Z</time>
      </trkpt>
      <trkpt lat="45.911001982167363" lon="9.057762008160353">
        <ele>890</ele>
        <time>2010-06-13T08:11:36Z</time>
      </trkpt>
      <trkpt lat="45.911001982167363" lon="9.057749016210437">
        <ele>890</ele>
        <time>2010-06-13T08:11:37Z</time>
      </trkpt>
      <trkpt lat="45.911011034622788" lon="9.057736024260521">
        <ele>890</ele>
        <time>2010-06-13T08:11:38Z</time>
      </trkpt>
      <trkpt lat="45.911011034622788" lon="9.057723032310605">
        <ele>890</ele>
        <time>2010-06-13T08:11:39Z</time>
      </trkpt>
      <trkpt lat="45.911020003259182" lon="9.057710040360689">
        <ele>890</ele>
        <time>2010-06-13T08:11:41Z</time>
      </trkpt>
      <trkpt lat="45.911028971895576" lon="9.057696964591742">
        <ele>890</ele>
        <time>2010-06-13T08:11:42Z</time>
      </trkpt>
      <trkpt lat="45.911028971895576" lon="9.057683972641826">
        <ele>890</ele>
        <time>2010-06-13T08:11:43Z</time>
      </trkpt>
      <trkpt lat="45.911028971895576" lon="9.057683972641826">
        <ele>891</ele>
        <time>2010-06-13T08:11:44Z</time>
      </trkpt>
      <trkpt lat="45.911038024351001" lon="9.05767098069191">
        <ele>891</ele>
        <time>2010-06-13T08:11:45Z</time>
      </trkpt>
      <trkpt lat="45.911038024351001" lon="9.05767098069191">
        <ele>891</ele>
        <time>2010-06-13T08:11:46Z</time>
      </trkpt>
      <trkpt lat="45.911046992987394" lon="9.05767098069191">
        <ele>890</ele>
        <time>2010-06-13T08:11:47Z</time>
      </trkpt>
      <trkpt lat="45.911055961623788" lon="9.05767098069191">
        <ele>890</ele>
        <time>2010-06-13T08:11:48Z</time>
      </trkpt>
      <trkpt lat="45.911073982715607" lon="9.05767098069191">
        <ele>890</ele>
        <time>2010-06-13T08:11:49Z</time>
      </trkpt>
      <trkpt lat="45.911073982715607" lon="9.057683972641826">
        <ele>891</ele>
        <time>2010-06-13T08:11:51Z</time>
      </trkpt>
      <trkpt lat="45.911073982715607" lon="9.057696964591742">
        <ele>891</ele>
        <time>2010-06-13T08:11:52Z</time>
      </trkpt>
      <trkpt lat="45.911073982715607" lon="9.057710040360689">
        <ele>891</ele>
        <time>2010-06-13T08:11:53Z</time>
      </trkpt>
      <trkpt lat="45.910911960527301" lon="9.05805797316134">
        <ele>895</ele>
        <time>2010-06-13T08:12:23Z</time>
      </trkpt>
      <trkpt lat="45.910911960527301" lon="9.058070965111256">
        <ele>895</ele>
        <time>2010-06-13T08:12:24Z</time>
      </trkpt>
      <trkpt lat="45.910902991890907" lon="9.058097032830119">
        <ele>895</ele>
        <time>2010-06-13T08:12:25Z</time>
      </trkpt>
      <trkpt lat="45.91082202270627" lon="9.05844496563077">
        <ele>897</ele>
        <time>2010-06-13T08:12:45Z</time>
      </trkpt>
      <trkpt lat="45.910812970250845" lon="9.058458041399717">
        <ele>897</ele>
        <time>2010-06-13T08:12:46Z</time>
      </trkpt>
      <trkpt lat="45.910812970250845" lon="9.058471033349633">
        <ele>897</ele>
        <time>2010-06-13T08:12:47Z</time>
      </trkpt>
      <trkpt lat="45.910812970250845" lon="9.058483019471169">
        <ele>897</ele>
        <time>2010-06-13T08:12:48Z</time>
      </trkpt>
      <trkpt lat="45.910804001614451" lon="9.058496011421084">
        <ele>898</ele>
        <time>2010-06-13T08:12:49Z</time>
      </trkpt>
      <trkpt lat="45.910804001614451" lon="9.058496011421084">
        <ele>898</ele>
        <time>2010-06-13T08:12:50Z</time>
      </trkpt>
      <trkpt lat="45.910795032978058" lon="9.058509003371">
        <ele>898</ele>
        <time>2010-06-13T08:12:51Z</time>
      </trkpt>
      <trkpt lat="45.910785980522633" lon="9.058534987270832">
        <ele>898</ele>
        <time>2010-06-13T08:12:52Z</time>
      </trkpt>
      <trkpt lat="45.910785980522633" lon="9.058534987270832">
        <ele>898</ele>
        <time>2010-06-13T08:12:53Z</time>
      </trkpt>
      <trkpt lat="45.910777011886239" lon="9.058560971170664">
        <ele>899</ele>
        <time>2010-06-13T08:12:54Z</time>
      </trkpt>
      <trkpt lat="45.910777011886239" lon="9.058599025011063">
        <ele>898</ele>
        <time>2010-06-13T08:12:56Z</time>
      </trkpt>
      <trkpt lat="45.910767959430814" lon="9.05863800086081">
        <ele>898</ele>
        <time>2010-06-13T08:12:58Z</time>
      </trkpt>
      <trkpt lat="45.910767959430814" lon="9.058650992810726">
        <ele>898</ele>
        <time>2010-06-13T08:12:59Z</time>
      </trkpt>
      <trkpt lat="45.910767959430814" lon="9.058676976710558">
        <ele>899</ele>
        <time>2010-06-13T08:13:00Z</time>
      </trkpt>
      <trkpt lat="45.91075899079442" lon="9.058689968660474">
        <ele>899</ele>
        <time>2010-06-13T08:13:01Z</time>
      </trkpt>
      <trkpt lat="45.910713979974389" lon="9.059076039120555">
        <ele>902</ele>
        <time>2010-06-13T08:13:30Z</time>
      </trkpt>
      <trkpt lat="45.910713979974389" lon="9.059089031070471">
        <ele>902</ele>
        <time>2010-06-13T08:13:31Z</time>
      </trkpt>
      <trkpt lat="45.910722026601434" lon="9.059102023020387">
        <ele>902</ele>
        <time>2010-06-13T08:13:32Z</time>
      </trkpt>
      <trkpt lat="45.910730995237827" lon="9.059115014970303">
        <ele>902</ele>
        <time>2010-06-13T08:13:33Z</time>
      </trkpt>
      <trkpt lat="45.910730995237827" lon="9.059128006920219">
        <ele>902</ele>
        <time>2010-06-13T08:13:34Z</time>
      </trkpt>
      <trkpt lat="45.910740969702601" lon="9.059140998870134">
        <ele>902</ele>
        <time>2010-06-13T08:13:35Z</time>
      </trkpt>
      <trkpt lat="45.910749016329646" lon="9.05915399082005">
        <ele>902</ele>
        <time>2010-06-13T08:13:36Z</time>
      </trkpt>
      <trkpt lat="45.91075798496604" lon="9.059166982769966">
        <ele>902</ele>
        <time>2010-06-13T08:13:37Z</time>
      </trkpt>
      <trkpt lat="45.910767037421465" lon="9.059179974719882">
        <ele>902</ele>
        <time>2010-06-13T08:13:38Z</time>
      </trkpt>
      <trkpt lat="45.910776006057858" lon="9.059179974719882">
        <ele>902</ele>
        <time>2010-06-13T08:13:39Z</time>
      </trkpt>
      <trkpt lat="45.910776006057858" lon="9.059192966669798">
        <ele>902</ele>
        <time>2010-06-13T08:13:40Z</time>
      </trkpt>
      <trkpt lat="45.910785980522633" lon="9.059205958619714">
        <ele>902</ele>
        <time>2010-06-13T08:13:41Z</time>
      </trkpt>
      <trkpt lat="45.910794027149677" lon="9.059218028560281">
        <ele>903</ele>
        <time>2010-06-13T08:13:42Z</time>
      </trkpt>
      <trkpt lat="45.910802995786071" lon="9.059231020510197">
        <ele>903</ele>
        <time>2010-06-13T08:13:43Z</time>
      </trkpt>
      <trkpt lat="45.910811964422464" lon="9.059244012460113">
        <ele>903</ele>
        <time>2010-06-13T08:13:44Z</time>
      </trkpt>
      <trkpt lat="45.910811964422464" lon="9.059257004410029">
        <ele>903</ele>
        <time>2010-06-13T08:13:45Z</time>
      </trkpt>
      <trkpt lat="45.91082101687789" lon="9.059269996359944">
        <ele>904</ele>
        <time>2010-06-13T08:13:46Z</time>
      </trkpt>
      <trkpt lat="45.910829985514283" lon="9.05928298830986">
        <ele>903</ele>
        <time>2010-06-13T08:13:47Z</time>
      </trkpt>
      <trkpt lat="45.910839037969708" lon="9.059295980259776">
        <ele>903</ele>
        <time>2010-06-13T08:13:48Z</time>
      </trkpt>
      <trkpt lat="45.910839037969708" lon="9.059308972209692">
        <ele>903</ele>
        <time>2010-06-13T08:13:49Z</time>
      </trkpt>
      <trkpt lat="45.910856975242496" lon="9.059334034100175">
        <ele>903</ele>
        <time>2010-06-13T08:13:51Z</time>
      </trkpt>
      <trkpt lat="45.910866027697921" lon="9.059347026050091">
        <ele>904</ele>
        <time>2010-06-13T08:13:52Z</time>
      </trkpt>
      <trkpt lat="45.910874996334314" lon="9.059373009949923">
        <ele>904</ele>
        <time>2010-06-13T08:13:54Z</time>
      </trkpt>
      <trkpt lat="45.910874996334314" lon="9.059373009949923">
        <ele>905</ele>
        <time>2010-06-13T08:13:55Z</time>
      </trkpt>
      <trkpt lat="45.910874996334314" lon="9.059386001899838">
        <ele>905</ele>
        <time>2010-06-13T08:13:56Z</time>
      </trkpt>
      <trkpt lat="45.910883964970708" lon="9.059398993849754">
        <ele>905</ele>
        <time>2010-06-13T08:13:57Z</time>
      </trkpt>
      <trkpt lat="45.910883964970708" lon="9.05941198579967">
        <ele>905</ele>
        <time>2010-06-13T08:13:58Z</time>
      </trkpt>
      <trkpt lat="45.910883964970708" lon="9.059424977749586">
        <ele>905</ele>
        <time>2010-06-13T08:13:59Z</time>
      </trkpt>
      <trkpt lat="45.910893017426133" lon="9.059437969699502">
        <ele>905</ele>
        <time>2010-06-13T08:14:00Z</time>
      </trkpt>
      <trkpt lat="45.910901986062527" lon="9.059450961649418">
        <ele>905</ele>
        <time>2010-06-13T08:14:02Z</time>
      </trkpt>
      <trkpt lat="45.910911038517952" lon="9.059476023539901">
        <ele>905</ele>
        <time>2010-06-13T08:14:03Z</time>
      </trkpt>
      <trkpt lat="45.910911038517952" lon="9.059489015489817">
        <ele>905</ele>
        <time>2010-06-13T08:14:04Z</time>
      </trkpt>
      <trkpt lat="45.910920007154346" lon="9.059502007439733">
        <ele>905</ele>
        <time>2010-06-13T08:14:05Z</time>
      </trkpt>
      <trkpt lat="45.910928975790739" lon="9.059527991339564">
        <ele>906</ele>
        <time>2010-06-13T08:14:06Z</time>
      </trkpt>
      <trkpt lat="45.910938028246164" lon="9.05954098328948">
        <ele>906</ele>
        <time>2010-06-13T08:14:07Z</time>
      </trkpt>
      <trkpt lat="45.910946996882558" lon="9.059553975239396">
        <ele>906</ele>
        <time>2010-06-13T08:14:08Z</time>
      </trkpt>
      <trkpt lat="45.910965017974377" lon="9.059553975239396">
        <ele>906</ele>
        <time>2010-06-13T08:14:09Z</time>
      </trkpt>
      <trkpt lat="45.910965017974377" lon="9.059566967189312">
        <ele>906</ele>
        <time>2010-06-13T08:14:10Z</time>
      </trkpt>
      <trkpt lat="45.91097398661077" lon="9.059579959139228">
        <ele>907</ele>
        <time>2010-06-13T08:14:11Z</time>
      </trkpt>
      <trkpt lat="45.91097398661077" lon="9.059592029079795">
        <ele>907</ele>
        <time>2010-06-13T08:14:12Z</time>
      </trkpt>
      <trkpt lat="45.910983039066195" lon="9.059618012979627">
        <ele>907</ele>
        <time>2010-06-13T08:14:13Z</time>
      </trkpt>
      <trkpt lat="45.910992007702589" lon="9.059631004929543">
        <ele>907</ele>
        <time>2010-06-13T08:14:14Z</time>
      </trkpt>
      <trkpt lat="45.910992007702589" lon="9.059656988829374">
        <ele>907</ele>
        <time>2010-06-13T08:14:15Z</time>
      </trkpt>
      <trkpt lat="45.911000976338983" lon="9.05966998077929">
        <ele>907</ele>
        <time>2010-06-13T08:14:16Z</time>
      </trkpt>
      <trkpt lat="45.911010028794408" lon="9.059682972729206">
        <ele>907</ele>
        <time>2010-06-13T08:14:17Z</time>
      </trkpt>
      <trkpt lat="45.911018997430801" lon="9.059682972729206">
        <ele>907</ele>
        <time>2010-06-13T08:14:18Z</time>
      </trkpt>
      <trkpt lat="45.911027966067195" lon="9.059695964679122">
        <ele>907</ele>
        <time>2010-06-13T08:14:19Z</time>
      </trkpt>
      <trkpt lat="45.911045987159014" lon="9.059721026569605">
        <ele>907</ele>
        <time>2010-06-13T08:14:21Z</time>
      </trkpt>
      <trkpt lat="45.911055039614439" lon="9.059772994369268">
        <ele>907</ele>
        <time>2010-06-13T08:14:24Z</time>
      </trkpt>
      <trkpt lat="45.911055039614439" lon="9.059785986319184">
        <ele>908</ele>
        <time>2010-06-13T08:14:25Z</time>
      </trkpt>
      <trkpt lat="45.911072976887226" lon="9.059837032109499">
        <ele>908</ele>
        <time>2010-06-13T08:14:28Z</time>
      </trkpt>
      <trkpt lat="45.911082029342651" lon="9.059837032109499">
        <ele>908</ele>
        <time>2010-06-13T08:14:29Z</time>
      </trkpt>
      <trkpt lat="45.911090997979045" lon="9.059851029887795">
        <ele>909</ele>
        <time>2010-06-13T08:14:30Z</time>
      </trkpt>
      <trkpt lat="45.911090997979045" lon="9.059851029887795">
        <ele>909</ele>
        <time>2010-06-13T08:14:31Z</time>
      </trkpt>
      <trkpt lat="45.911099966615438" lon="9.059863016009331">
        <ele>909</ele>
        <time>2010-06-13T08:14:32Z</time>
      </trkpt>
      <trkpt lat="45.911109019070864" lon="9.059876007959247">
        <ele>908</ele>
        <time>2010-06-13T08:14:33Z</time>
      </trkpt>
      <trkpt lat="45.911109019070864" lon="9.059888999909163">
        <ele>908</ele>
        <time>2010-06-13T08:14:34Z</time>
      </trkpt>
      <trkpt lat="45.911117987707257" lon="9.059901991859078">
        <ele>909</ele>
        <time>2010-06-13T08:14:35Z</time>
      </trkpt>
      <trkpt lat="45.911127040162683" lon="9.059901991859078">
        <ele>909</ele>
        <time>2010-06-13T08:14:36Z</time>
      </trkpt>
      <trkpt lat="45.911136008799076" lon="9.059914983808994">
        <ele>909</ele>
        <time>2010-06-13T08:14:37Z</time>
      </trkpt>
      <trkpt lat="45.91114497743547" lon="9.059914983808994">
        <ele>909</ele>
        <time>2010-06-13T08:14:38Z</time>
      </trkpt>
      <trkpt lat="45.911154029890895" lon="9.05992797575891">
        <ele>909</ele>
        <time>2010-06-13T08:14:39Z</time>
      </trkpt>
      <trkpt lat="45.911162998527288" lon="9.059940967708826">
        <ele>909</ele>
        <time>2010-06-13T08:14:40Z</time>
      </trkpt>
      <trkpt lat="45.911171967163682" lon="9.059953959658742">
        <ele>909</ele>
        <time>2010-06-13T08:14:41Z</time>
      </trkpt>
      <trkpt lat="45.911171967163682" lon="9.05996703542769">
        <ele>909</ele>
        <time>2010-06-13T08:14:42Z</time>
      </trkpt>
      <trkpt lat="45.911181019619107" lon="9.059979021549225">
        <ele>909</ele>
        <time>2010-06-13T08:14:43Z</time>
      </trkpt>
      <trkpt lat="45.911189988255501" lon="9.059979021549225">
        <ele>910</ele>
        <time>2010-06-13T08:14:44Z</time>
      </trkpt>
      <trkpt lat="45.911199040710926" lon="9.059992013499141">
        <ele>910</ele>
        <time>2010-06-13T08:14:45Z</time>
      </trkpt>
      <trkpt lat="45.91120800934732" lon="9.059992013499141">
        <ele>910</ele>
        <time>2010-06-13T08:14:46Z</time>
      </trkpt>
      <trkpt lat="45.911216977983713" lon="9.060005005449057">
        <ele>910</ele>
        <time>2010-06-13T08:14:47Z</time>
      </trkpt>
      <trkpt lat="45.911226030439138" lon="9.060017997398973">
        <ele>910</ele>
        <time>2010-06-13T08:14:48Z</time>
      </trkpt>
      <trkpt lat="45.911234999075532" lon="9.060030989348888">
        <ele>910</ele>
        <time>2010-06-13T08:14:49Z</time>
      </trkpt>
      <trkpt lat="45.911243967711926" lon="9.060043981298804">
        <ele>911</ele>
        <time>2010-06-13T08:14:50Z</time>
      </trkpt>
      <trkpt lat="45.911253020167351" lon="9.060043981298804">
        <ele>911</ele>
        <time>2010-06-13T08:14:51Z</time>
      </trkpt>
      <trkpt lat="45.911261988803744" lon="9.06005697324872">
        <ele>911</ele>
        <time>2010-06-13T08:14:52Z</time>
      </trkpt>
      <trkpt lat="45.911261988803744" lon="9.060069965198636">
        <ele>911</ele>
        <time>2010-06-13T08:14:53Z</time>
      </trkpt>
      <trkpt lat="45.91127104125917" lon="9.060134002938867">
        <ele>911</ele>
        <time>2010-06-13T08:14:57Z</time>
      </trkpt>
      <trkpt lat="45.911280009895563" lon="9.060146994888783">
        <ele>911</ele>
        <time>2010-06-13T08:14:58Z</time>
      </trkpt>
      <trkpt lat="45.911280009895563" lon="9.060198962688446">
        <ele>912</ele>
        <time>2010-06-13T08:15:01Z</time>
      </trkpt>
      <trkpt lat="45.911280009895563" lon="9.06022503040731">
        <ele>912</ele>
        <time>2010-06-13T08:15:03Z</time>
      </trkpt>
      <trkpt lat="45.911288978531957" lon="9.060237016528845">
        <ele>912</ele>
        <time>2010-06-13T08:15:04Z</time>
      </trkpt>
      <trkpt lat="45.911288978531957" lon="9.060250008478761">
        <ele>912</ele>
        <time>2010-06-13T08:15:05Z</time>
      </trkpt>
      <trkpt lat="45.911298030987382" lon="9.060275992378593">
        <ele>912</ele>
        <time>2010-06-13T08:15:06Z</time>
      </trkpt>
      <trkpt lat="45.911306999623775" lon="9.060288984328508">
        <ele>913</ele>
        <time>2010-06-13T08:15:07Z</time>
      </trkpt>
      <trkpt lat="45.911315968260169" lon="9.060301976278424">
        <ele>913</ele>
        <time>2010-06-13T08:15:08Z</time>
      </trkpt>
      <trkpt lat="45.911315968260169" lon="9.06031496822834">
        <ele>913</ele>
        <time>2010-06-13T08:15:09Z</time>
      </trkpt>
      <trkpt lat="45.911333989351988" lon="9.06031496822834">
        <ele>913</ele>
        <time>2010-06-13T08:15:10Z</time>
      </trkpt>
      <trkpt lat="45.911333989351988" lon="9.06031496822834">
        <ele>913</ele>
        <time>2010-06-13T08:15:11Z</time>
      </trkpt>
      <trkpt lat="45.911352010443807" lon="9.06031496822834">
        <ele>913</ele>
        <time>2010-06-13T08:15:12Z</time>
      </trkpt>
      <trkpt lat="45.9113609790802" lon="9.06031496822834">
        <ele>913</ele>
        <time>2010-06-13T08:15:13Z</time>
      </trkpt>
      <trkpt lat="45.911370031535625" lon="9.06031496822834">
        <ele>914</ele>
        <time>2010-06-13T08:15:14Z</time>
      </trkpt>
      <trkpt lat="45.911379000172019" lon="9.060327960178256">
        <ele>913</ele>
        <time>2010-06-13T08:15:15Z</time>
      </trkpt>
      <trkpt lat="45.911387968808413" lon="9.060341035947204">
        <ele>913</ele>
        <time>2010-06-13T08:15:16Z</time>
      </trkpt>
      <trkpt lat="45.911397021263838" lon="9.06035402789712">
        <ele>913</ele>
        <time>2010-06-13T08:15:17Z</time>
      </trkpt>
      <trkpt lat="45.911405989900231" lon="9.06035402789712">
        <ele>913</ele>
        <time>2010-06-13T08:15:18Z</time>
      </trkpt>
      <trkpt lat="45.911405989900231" lon="9.060367019847035">
        <ele>914</ele>
        <time>2010-06-13T08:15:19Z</time>
      </trkpt>
      <trkpt lat="45.911414958536625" lon="9.060379005968571">
        <ele>914</ele>
        <time>2010-06-13T08:15:20Z</time>
      </trkpt>
      <trkpt lat="45.91142401099205" lon="9.060391997918487">
        <ele>914</ele>
        <time>2010-06-13T08:15:21Z</time>
      </trkpt>
      <trkpt lat="45.91142401099205" lon="9.060391997918487">
        <ele>914</ele>
        <time>2010-06-13T08:15:22Z</time>
      </trkpt>
      <trkpt lat="45.911432979628444" lon="9.060404989868403">
        <ele>914</ele>
        <time>2010-06-13T08:15:23Z</time>
      </trkpt>
      <trkpt lat="45.911432979628444" lon="9.060417981818318">
        <ele>915</ele>
        <time>2010-06-13T08:15:24Z</time>
      </trkpt>
      <trkpt lat="45.911442032083869" lon="9.060430973768234">
        <ele>914</ele>
        <time>2010-06-13T08:15:25Z</time>
      </trkpt>
      <trkpt lat="45.911442032083869" lon="9.060457041487098">
        <ele>914</ele>
        <time>2010-06-13T08:15:26Z</time>
      </trkpt>
      <trkpt lat="45.911442032083869" lon="9.060457041487098">
        <ele>915</ele>
        <time>2010-06-13T08:15:27Z</time>
      </trkpt>
      <trkpt lat="45.911451000720263" lon="9.060470033437014">
        <ele>915</ele>
        <time>2010-06-13T08:15:28Z</time>
      </trkpt>
      <trkpt lat="45.911459969356656" lon="9.06048302538693">
        <ele>915</ele>
        <time>2010-06-13T08:15:29Z</time>
      </trkpt>
      <trkpt lat="45.911469021812081" lon="9.060496017336845">
        <ele>915</ele>
        <time>2010-06-13T08:15:30Z</time>
      </trkpt>
      <trkpt lat="45.911477990448475" lon="9.060496017336845">
        <ele>915</ele>
        <time>2010-06-13T08:15:31Z</time>
      </trkpt>
      <trkpt lat="45.911486959084868" lon="9.060496017336845">
        <ele>915</ele>
        <time>2010-06-13T08:15:32Z</time>
      </trkpt>
      <trkpt lat="45.911496011540294" lon="9.060509009286761">
        <ele>915</ele>
        <time>2010-06-13T08:15:33Z</time>
      </trkpt>
      <trkpt lat="45.911514032632113" lon="9.060509009286761">
        <ele>915</ele>
        <time>2010-06-13T08:15:34Z</time>
      </trkpt>
      <trkpt lat="45.911514032632113" lon="9.060520995408297">
        <ele>915</ele>
        <time>2010-06-13T08:15:35Z</time>
      </trkpt>
      <trkpt lat="45.911523001268506" lon="9.060533987358213">
        <ele>916</ele>
        <time>2010-06-13T08:15:36Z</time>
      </trkpt>
      <trkpt lat="45.9115319699049" lon="9.060533987358213">
        <ele>916</ele>
        <time>2010-06-13T08:15:37Z</time>
      </trkpt>
      <trkpt lat="45.9115319699049" lon="9.060546979308128">
        <ele>917</ele>
        <time>2010-06-13T08:15:38Z</time>
      </trkpt>
      <trkpt lat="45.911549990996718" lon="9.060546979308128">
        <ele>916</ele>
        <time>2010-06-13T08:15:40Z</time>
      </trkpt>
      <trkpt lat="45.911558959633112" lon="9.060559971258044">
        <ele>916</ele>
        <time>2010-06-13T08:15:41Z</time>
      </trkpt>
      <trkpt lat="45.911558959633112" lon="9.06057296320796">
        <ele>916</ele>
        <time>2010-06-13T08:15:42Z</time>
      </trkpt>
      <trkpt lat="45.911558959633112" lon="9.060586038976908">
        <ele>916</ele>
        <time>2010-06-13T08:15:43Z</time>
      </trkpt>
      <trkpt lat="45.911568012088537" lon="9.060599030926824">
        <ele>916</ele>
        <time>2010-06-13T08:15:44Z</time>
      </trkpt>
      <trkpt lat="45.911576980724931" lon="9.06061202287674">
        <ele>916</ele>
        <time>2010-06-13T08:15:45Z</time>
      </trkpt>
      <trkpt lat="45.911586033180356" lon="9.060625014826655">
        <ele>916</ele>
        <time>2010-06-13T08:15:46Z</time>
      </trkpt>
      <trkpt lat="45.91159500181675" lon="9.060625014826655">
        <ele>917</ele>
        <time>2010-06-13T08:15:47Z</time>
      </trkpt>
      <trkpt lat="45.91159500181675" lon="9.060650998726487">
        <ele>917</ele>
        <time>2010-06-13T08:15:48Z</time>
      </trkpt>
      <trkpt lat="45.911603970453143" lon="9.060662984848023">
        <ele>918</ele>
        <time>2010-06-13T08:15:49Z</time>
      </trkpt>
      <trkpt lat="45.911603970453143" lon="9.060675976797938">
        <ele>917</ele>
        <time>2010-06-13T08:15:50Z</time>
      </trkpt>
      <trkpt lat="45.911613022908568" lon="9.060688968747854">
        <ele>917</ele>
        <time>2010-06-13T08:15:51Z</time>
      </trkpt>
      <trkpt lat="45.911621991544962" lon="9.060688968747854">
        <ele>918</ele>
        <time>2010-06-13T08:15:52Z</time>
      </trkpt>
      <trkpt lat="45.911640012636781" lon="9.060688968747854">
        <ele>918</ele>
        <time>2010-06-13T08:15:53Z</time>
      </trkpt>
      <trkpt lat="45.911640012636781" lon="9.06070196069777">
        <ele>918</ele>
        <time>2010-06-13T08:15:54Z</time>
      </trkpt>
      <trkpt lat="45.911648981273174" lon="9.060715036466718">
        <ele>917</ele>
        <time>2010-06-13T08:15:55Z</time>
      </trkpt>
      <trkpt lat="45.9116580337286" lon="9.060715036466718">
        <ele>917</ele>
        <time>2010-06-13T08:15:56Z</time>
      </trkpt>
      <trkpt lat="45.9116580337286" lon="9.060728028416634">
        <ele>918</ele>
        <time>2010-06-13T08:15:57Z</time>
      </trkpt>
      <trkpt lat="45.911667002364993" lon="9.06074102036655">
        <ele>918</ele>
        <time>2010-06-13T08:15:58Z</time>
      </trkpt>
      <trkpt lat="45.911675971001387" lon="9.06074102036655">
        <ele>918</ele>
        <time>2010-06-13T08:15:59Z</time>
      </trkpt>
      <trkpt lat="45.911675971001387" lon="9.060754012316465">
        <ele>918</ele>
        <time>2010-06-13T08:16:00Z</time>
      </trkpt>
      <trkpt lat="45.911685023456812" lon="9.060754012316465">
        <ele>918</ele>
        <time>2010-06-13T08:16:01Z</time>
      </trkpt>
      <trkpt lat="45.911702960729599" lon="9.060767004266381">
        <ele>918</ele>
        <time>2010-06-13T08:16:02Z</time>
      </trkpt>
      <trkpt lat="45.911702960729599" lon="9.060778990387917">
        <ele>918</ele>
        <time>2010-06-13T08:16:03Z</time>
      </trkpt>
      <trkpt lat="45.911712013185024" lon="9.060791982337833">
        <ele>918</ele>
        <time>2010-06-13T08:16:04Z</time>
      </trkpt>
      <trkpt lat="45.911712013185024" lon="9.060791982337833">
        <ele>918</ele>
        <time>2010-06-13T08:16:05Z</time>
      </trkpt>
      <trkpt lat="45.911720981821418" lon="9.060804974287748">
        <ele>918</ele>
        <time>2010-06-13T08:16:06Z</time>
      </trkpt>
      <trkpt lat="45.911730034276843" lon="9.060817966237664">
        <ele>919</ele>
        <time>2010-06-13T08:16:07Z</time>
      </trkpt>
      <trkpt lat="45.91174797154963" lon="9.06083095818758">
        <ele>919</ele>
        <time>2010-06-13T08:16:08Z</time>
      </trkpt>
      <trkpt lat="45.91174797154963" lon="9.06083095818758">
        <ele>919</ele>
        <time>2010-06-13T08:16:09Z</time>
      </trkpt>
      <trkpt lat="45.911757024005055" lon="9.060844033956528">
        <ele>920</ele>
        <time>2010-06-13T08:16:10Z</time>
      </trkpt>
      <trkpt lat="45.911757024005055" lon="9.060857025906444">
        <ele>920</ele>
        <time>2010-06-13T08:16:11Z</time>
      </trkpt>
      <trkpt lat="45.911765992641449" lon="9.06087001785636">
        <ele>920</ele>
        <time>2010-06-13T08:16:12Z</time>
      </trkpt>
      <trkpt lat="45.911774961277843" lon="9.06087001785636">
        <ele>920</ele>
        <time>2010-06-13T08:16:13Z</time>
      </trkpt>
      <trkpt lat="45.911774961277843" lon="9.060883009806275">
        <ele>920</ele>
        <time>2010-06-13T08:16:14Z</time>
      </trkpt>
      <trkpt lat="45.911784013733268" lon="9.060883009806275">
        <ele>920</ele>
        <time>2010-06-13T08:16:15Z</time>
      </trkpt>
      <trkpt lat="45.911784013733268" lon="9.060908993706107">
        <ele>920</ele>
        <time>2010-06-13T08:16:16Z</time>
      </trkpt>
      <trkpt lat="45.911791976541281" lon="9.060920979827642">
        <ele>920</ele>
        <time>2010-06-13T08:16:17Z</time>
      </trkpt>
      <trkpt lat="45.911791976541281" lon="9.060933971777558">
        <ele>920</ele>
        <time>2010-06-13T08:16:18Z</time>
      </trkpt>
      <trkpt lat="45.911802034825087" lon="9.060946963727474">
        <ele>920</ele>
        <time>2010-06-13T08:16:19Z</time>
      </trkpt>
      <trkpt lat="45.91181100346148" lon="9.060960039496422">
        <ele>920</ele>
        <time>2010-06-13T08:16:20Z</time>
      </trkpt>
      <trkpt lat="45.91181100346148" lon="9.060986023396254">
        <ele>920</ele>
        <time>2010-06-13T08:16:21Z</time>
      </trkpt>
      <trkpt lat="45.911818966269493" lon="9.06099901534617">
        <ele>920</ele>
        <time>2010-06-13T08:16:22Z</time>
      </trkpt>
      <trkpt lat="45.911818966269493" lon="9.061012007296085">
        <ele>920</ele>
        <time>2010-06-13T08:16:23Z</time>
      </trkpt>
      <trkpt lat="45.911829024553299" lon="9.061024999246001">
        <ele>921</ele>
        <time>2010-06-13T08:16:24Z</time>
      </trkpt>
      <trkpt lat="45.911829024553299" lon="9.061036985367537">
        <ele>921</ele>
        <time>2010-06-13T08:16:25Z</time>
      </trkpt>
      <trkpt lat="45.911836987361312" lon="9.061036985367537">
        <ele>921</ele>
        <time>2010-06-13T08:16:26Z</time>
      </trkpt>
      <trkpt lat="45.911836987361312" lon="9.061050983145833">
        <ele>921</ele>
        <time>2010-06-13T08:16:27Z</time>
      </trkpt>
      <trkpt lat="45.911836987361312" lon="9.061062969267368">
        <ele>921</ele>
        <time>2010-06-13T08:16:28Z</time>
      </trkpt>
      <trkpt lat="45.911846039816737" lon="9.061062969267368">
        <ele>921</ele>
        <time>2010-06-13T08:16:29Z</time>
      </trkpt>
      <trkpt lat="45.911846039816737" lon="9.061075961217284">
        <ele>921</ele>
        <time>2010-06-13T08:16:30Z</time>
      </trkpt>
      <trkpt lat="45.911856014281511" lon="9.061089036986232">
        <ele>921</ele>
        <time>2010-06-13T08:16:31Z</time>
      </trkpt>
      <trkpt lat="45.911856014281511" lon="9.061102028936148">
        <ele>921</ele>
        <time>2010-06-13T08:16:32Z</time>
      </trkpt>
      <trkpt lat="45.911863977089524" lon="9.061102028936148">
        <ele>921</ele>
        <time>2010-06-13T08:16:33Z</time>
      </trkpt>
      <trkpt lat="45.911881998181343" lon="9.061115020886064">
        <ele>921</ele>
        <time>2010-06-13T08:16:34Z</time>
      </trkpt>
      <trkpt lat="45.911881998181343" lon="9.06112801283598">
        <ele>922</ele>
        <time>2010-06-13T08:16:35Z</time>
      </trkpt>
      <trkpt lat="45.911890966817737" lon="9.061141004785895">
        <ele>922</ele>
        <time>2010-06-13T08:16:36Z</time>
      </trkpt>
      <trkpt lat="45.911890966817737" lon="9.061153996735811">
        <ele>922</ele>
        <time>2010-06-13T08:16:37Z</time>
      </trkpt>
      <trkpt lat="45.911901025101542" lon="9.061166988685727">
        <ele>922</ele>
        <time>2010-06-13T08:16:38Z</time>
      </trkpt>
      <trkpt lat="45.911901025101542" lon="9.061178974807262">
        <ele>922</ele>
        <time>2010-06-13T08:16:39Z</time>
      </trkpt>
      <trkpt lat="45.911890966817737" lon="9.061191966757178">
        <ele>922</ele>
        <time>2010-06-13T08:16:40Z</time>
      </trkpt>
      <trkpt lat="45.911901025101542" lon="9.061204958707094">
        <ele>922</ele>
        <time>2010-06-13T08:16:41Z</time>
      </trkpt>
      <trkpt lat="45.911901025101542" lon="9.061218034476042">
        <ele>922</ele>
        <time>2010-06-13T08:16:42Z</time>
      </trkpt>
      <trkpt lat="45.911908987909555" lon="9.061231026425958">
        <ele>923</ele>
        <time>2010-06-13T08:16:43Z</time>
      </trkpt>
      <trkpt lat="45.911918040364981" lon="9.061231026425958">
        <ele>923</ele>
        <time>2010-06-13T08:16:44Z</time>
      </trkpt>
      <trkpt lat="45.911927009001374" lon="9.061244018375874">
        <ele>922</ele>
        <time>2010-06-13T08:16:45Z</time>
      </trkpt>
      <trkpt lat="45.911935977637768" lon="9.061244018375874">
        <ele>922</ele>
        <time>2010-06-13T08:16:46Z</time>
      </trkpt>
      <trkpt lat="45.911935977637768" lon="9.06125701032579">
        <ele>922</ele>
        <time>2010-06-13T08:16:47Z</time>
      </trkpt>
      <trkpt lat="45.911953998729587" lon="9.06125701032579">
        <ele>923</ele>
        <time>2010-06-13T08:16:48Z</time>
      </trkpt>
      <trkpt lat="45.911972019821405" lon="9.06125701032579">
        <ele>922</ele>
        <time>2010-06-13T08:16:51Z</time>
      </trkpt>
      <trkpt lat="45.911972019821405" lon="9.061244018375874">
        <ele>923</ele>
        <time>2010-06-13T08:16:53Z</time>
      </trkpt>
      <trkpt lat="45.911972019821405" lon="9.061231026425958">
        <ele>923</ele>
        <time>2010-06-13T08:16:54Z</time>
      </trkpt>
      <trkpt lat="45.91196296736598" lon="9.061218034476042">
        <ele>923</ele>
        <time>2010-06-13T08:16:55Z</time>
      </trkpt>
      <trkpt lat="45.91196296736598" lon="9.061218034476042">
        <ele>923</ele>
        <time>2010-06-13T08:16:56Z</time>
      </trkpt>
      <trkpt lat="45.911953998729587" lon="9.061191966757178">
        <ele>923</ele>
        <time>2010-06-13T08:16:57Z</time>
      </trkpt>
      <trkpt lat="45.911953998729587" lon="9.061178974807262">
        <ele>923</ele>
        <time>2010-06-13T08:16:58Z</time>
      </trkpt>
      <trkpt lat="45.911946035921574" lon="9.061178974807262">
        <ele>923</ele>
        <time>2010-06-13T08:16:59Z</time>
      </trkpt>
      <trkpt lat="45.911935977637768" lon="9.061178974807262">
        <ele>923</ele>
        <time>2010-06-13T08:17:00Z</time>
      </trkpt>
      <trkpt lat="45.911927009001374" lon="9.061178974807262">
        <ele>923</ele>
        <time>2010-06-13T08:17:01Z</time>
      </trkpt>
      <trkpt lat="45.911908987909555" lon="9.061166988685727">
        <ele>923</ele>
        <time>2010-06-13T08:17:03Z</time>
      </trkpt>
      <trkpt lat="45.911890966817737" lon="9.061141004785895">
        <ele>924</ele>
        <time>2010-06-13T08:17:04Z</time>
      </trkpt>
      <trkpt lat="45.91187403537333" lon="9.06112801283598">
        <ele>924</ele>
        <time>2010-06-13T08:17:05Z</time>
      </trkpt>
      <trkpt lat="45.91187403537333" lon="9.06112801283598">
        <ele>924</ele>
        <time>2010-06-13T08:17:06Z</time>
      </trkpt>
      <trkpt lat="45.911863977089524" lon="9.061115020886064">
        <ele>924</ele>
        <time>2010-06-13T08:17:07Z</time>
      </trkpt>
      <trkpt lat="45.911856014281511" lon="9.061115020886064">
        <ele>924</ele>
        <time>2010-06-13T08:17:08Z</time>
      </trkpt>
      <trkpt lat="45.911856014281511" lon="9.061102028936148">
        <ele>924</ele>
        <time>2010-06-13T08:17:09Z</time>
      </trkpt>
      <trkpt lat="45.911846039816737" lon="9.061089036986232">
        <ele>925</ele>
        <time>2010-06-13T08:17:10Z</time>
      </trkpt>
      <trkpt lat="45.911836987361312" lon="9.061075961217284">
        <ele>925</ele>
        <time>2010-06-13T08:17:11Z</time>
      </trkpt>
      <trkpt lat="45.911836987361312" lon="9.061062969267368">
        <ele>925</ele>
        <time>2010-06-13T08:17:12Z</time>
      </trkpt>
      <trkpt lat="45.911829024553299" lon="9.061024999246001">
        <ele>925</ele>
        <time>2010-06-13T08:17:14Z</time>
      </trkpt>
      <trkpt lat="45.911836987361312" lon="9.061012007296085">
        <ele>925</ele>
        <time>2010-06-13T08:17:15Z</time>
      </trkpt>
      <trkpt lat="45.911829024553299" lon="9.06099901534617">
        <ele>926</ele>
        <time>2010-06-13T08:17:16Z</time>
      </trkpt>
      <trkpt lat="45.911829024553299" lon="9.060986023396254">
        <ele>925</ele>
        <time>2010-06-13T08:17:17Z</time>
      </trkpt>
      <trkpt lat="45.911829024553299" lon="9.060960039496422">
        <ele>925</ele>
        <time>2010-06-13T08:17:18Z</time>
      </trkpt>
      <trkpt lat="45.911818966269493" lon="9.060960039496422">
        <ele>925</ele>
        <time>2010-06-13T08:17:19Z</time>
      </trkpt>
      <trkpt lat="45.911829024553299" lon="9.060946963727474">
        <ele>925</ele>
        <time>2010-06-13T08:17:20Z</time>
      </trkpt>
      <trkpt lat="45.911829024553299" lon="9.060920979827642">
        <ele>925</ele>
        <time>2010-06-13T08:17:21Z</time>
      </trkpt>
      <trkpt lat="45.911829024553299" lon="9.060908993706107">
        <ele>925</ele>
        <time>2010-06-13T08:17:22Z</time>
      </trkpt>
      <trkpt lat="45.911829024553299" lon="9.060857025906444">
        <ele>925</ele>
        <time>2010-06-13T08:17:24Z</time>
      </trkpt>
      <trkpt lat="45.911836987361312" lon="9.060844033956528">
        <ele>925</ele>
        <time>2010-06-13T08:17:25Z</time>
      </trkpt>
      <trkpt lat="45.911837993189692" lon="9.060817966237664">
        <ele>926</ele>
        <time>2010-06-13T08:17:26Z</time>
      </trkpt>
      <trkpt lat="45.911837993189692" lon="9.060805980116129">
        <ele>926</ele>
        <time>2010-06-13T08:17:27Z</time>
      </trkpt>
      <trkpt lat="45.911829024553299" lon="9.060754012316465">
        <ele>927</ele>
        <time>2010-06-13T08:17:32Z</time>
      </trkpt>
      <trkpt lat="45.911829024553299" lon="9.06074102036655">
        <ele>927</ele>
        <time>2010-06-13T08:17:33Z</time>
      </trkpt>
      <trkpt lat="45.911829024553299" lon="9.060728028416634">
        <ele>927</ele>
        <time>2010-06-13T08:17:34Z</time>
      </trkpt>
      <trkpt lat="45.911819972097874" lon="9.06070196069777">
        <ele>926</ele>
        <time>2010-06-13T08:17:35Z</time>
      </trkpt>
      <trkpt lat="45.911819972097874" lon="9.060688968747854">
        <ele>926</ele>
        <time>2010-06-13T08:17:36Z</time>
      </trkpt>
      <trkpt lat="45.911819972097874" lon="9.060675976797938">
        <ele>927</ele>
        <time>2010-06-13T08:17:37Z</time>
      </trkpt>
      <trkpt lat="45.91181100346148" lon="9.060663990676403">
        <ele>928</ele>
        <time>2010-06-13T08:17:38Z</time>
      </trkpt>
      <trkpt lat="45.91181100346148" lon="9.060650998726487">
        <ele>927</ele>
        <time>2010-06-13T08:17:39Z</time>
      </trkpt>
      <trkpt lat="45.91181100346148" lon="9.060625014826655">
        <ele>927</ele>
        <time>2010-06-13T08:17:41Z</time>
      </trkpt>
      <trkpt lat="45.911802034825087" lon="9.060638006776571">
        <ele>927</ele>
        <time>2010-06-13T08:17:42Z</time>
      </trkpt>
      <trkpt lat="45.911792982369661" lon="9.060625014826655">
        <ele>927</ele>
        <time>2010-06-13T08:17:43Z</time>
      </trkpt>
      <trkpt lat="45.911784013733268" lon="9.060625014826655">
        <ele>928</ele>
        <time>2010-06-13T08:17:44Z</time>
      </trkpt>
      <trkpt lat="45.911774961277843" lon="9.06061202287674">
        <ele>928</ele>
        <time>2010-06-13T08:17:46Z</time>
      </trkpt>
      <trkpt lat="45.911757024005055" lon="9.060599030926824">
        <ele>928</ele>
        <time>2010-06-13T08:17:47Z</time>
      </trkpt>
      <trkpt lat="45.91174797154963" lon="9.060586038976908">
        <ele>928</ele>
        <time>2010-06-13T08:17:48Z</time>
      </trkpt>
      <trkpt lat="45.91174797154963" lon="9.06057296320796">
        <ele>929</ele>
        <time>2010-06-13T08:17:49Z</time>
      </trkpt>
      <trkpt lat="45.91174797154963" lon="9.060559971258044">
        <ele>929</ele>
        <time>2010-06-13T08:17:50Z</time>
      </trkpt>
      <trkpt lat="45.91174797154963" lon="9.060533987358213">
        <ele>930</ele>
        <time>2010-06-13T08:17:51Z</time>
      </trkpt>
      <trkpt lat="45.91174797154963" lon="9.060522001236677">
        <ele>929</ele>
        <time>2010-06-13T08:17:52Z</time>
      </trkpt>
      <trkpt lat="45.911702960729599" lon="9.060238022357225">
        <ele>931</ele>
        <time>2010-06-13T08:18:10Z</time>
      </trkpt>
      <trkpt lat="45.911693992093205" lon="9.060238022357225">
        <ele>931</ele>
        <time>2010-06-13T08:18:11Z</time>
      </trkpt>
      <trkpt lat="45.911693992093205" lon="9.060212038457394">
        <ele>931</ele>
        <time>2010-06-13T08:18:12Z</time>
      </trkpt>
      <trkpt lat="45.911685023456812" lon="9.060198962688446">
        <ele>931</ele>
        <time>2010-06-13T08:18:13Z</time>
      </trkpt>
      <trkpt lat="45.911693992093205" lon="9.06018597073853">
        <ele>932</ele>
        <time>2010-06-13T08:18:14Z</time>
      </trkpt>
      <trkpt lat="45.911685023456812" lon="9.060173984616995">
        <ele>932</ele>
        <time>2010-06-13T08:18:15Z</time>
      </trkpt>
      <trkpt lat="45.911685023456812" lon="9.060160992667079">
        <ele>932</ele>
        <time>2010-06-13T08:18:16Z</time>
      </trkpt>
      <trkpt lat="45.911685023456812" lon="9.060148000717163">
        <ele>932</ele>
        <time>2010-06-13T08:18:17Z</time>
      </trkpt>
      <trkpt lat="45.911685023456812" lon="9.060122016817331">
        <ele>932</ele>
        <time>2010-06-13T08:18:18Z</time>
      </trkpt>
      <trkpt lat="45.911675971001387" lon="9.060109024867415">
        <ele>932</ele>
        <time>2010-06-13T08:18:19Z</time>
      </trkpt>
      <trkpt lat="45.911675971001387" lon="9.0600960329175">
        <ele>932</ele>
        <time>2010-06-13T08:18:20Z</time>
      </trkpt>
      <trkpt lat="45.911667002364993" lon="9.060083040967584">
        <ele>932</ele>
        <time>2010-06-13T08:18:21Z</time>
      </trkpt>
      <trkpt lat="45.911667002364993" lon="9.060083040967584">
        <ele>932</ele>
        <time>2010-06-13T08:18:22Z</time>
      </trkpt>
      <trkpt lat="45.9116580337286" lon="9.060069965198636">
        <ele>933</ele>
        <time>2010-06-13T08:18:23Z</time>
      </trkpt>
      <trkpt lat="45.9116580337286" lon="9.06005697324872">
        <ele>933</ele>
        <time>2010-06-13T08:18:24Z</time>
      </trkpt>
      <trkpt lat="45.9116580337286" lon="9.060031995177269">
        <ele>932</ele>
        <time>2010-06-13T08:18:26Z</time>
      </trkpt>
      <trkpt lat="45.9116580337286" lon="9.060019003227353">
        <ele>932</ele>
        <time>2010-06-13T08:18:27Z</time>
      </trkpt>
      <trkpt lat="45.911648981273174" lon="9.060019003227353">
        <ele>932</ele>
        <time>2010-06-13T08:18:28Z</time>
      </trkpt>
      <trkpt lat="45.911648981273174" lon="9.060006011277437">
        <ele>933</ele>
        <time>2010-06-13T08:18:29Z</time>
      </trkpt>
      <trkpt lat="45.911648981273174" lon="9.059993019327521">
        <ele>933</ele>
        <time>2010-06-13T08:18:30Z</time>
      </trkpt>
      <trkpt lat="45.911640012636781" lon="9.059980027377605">
        <ele>933</ele>
        <time>2010-06-13T08:18:31Z</time>
      </trkpt>
      <trkpt lat="45.911630960181355" lon="9.05996703542769">
        <ele>933</ele>
        <time>2010-06-13T08:18:32Z</time>
      </trkpt>
      <trkpt lat="45.911630960181355" lon="9.059953959658742">
        <ele>933</ele>
        <time>2010-06-13T08:18:33Z</time>
      </trkpt>
      <trkpt lat="45.911630960181355" lon="9.059940967708826">
        <ele>933</ele>
        <time>2010-06-13T08:18:34Z</time>
      </trkpt>
      <trkpt lat="45.911630960181355" lon="9.05992797575891">
        <ele>933</ele>
        <time>2010-06-13T08:18:35Z</time>
      </trkpt>
      <trkpt lat="45.911621991544962" lon="9.059915989637375">
        <ele>934</ele>
        <time>2010-06-13T08:18:36Z</time>
      </trkpt>
      <trkpt lat="45.911621991544962" lon="9.059901991859078">
        <ele>934</ele>
        <time>2010-06-13T08:18:37Z</time>
      </trkpt>
      <trkpt lat="45.911613022908568" lon="9.059901991859078">
        <ele>934</ele>
        <time>2010-06-13T08:18:38Z</time>
      </trkpt>
      <trkpt lat="45.911603970453143" lon="9.059890005737543">
        <ele>934</ele>
        <time>2010-06-13T08:18:39Z</time>
      </trkpt>
      <trkpt lat="45.91159500181675" lon="9.059877013787627">
        <ele>934</ele>
        <time>2010-06-13T08:18:40Z</time>
      </trkpt>
      <trkpt lat="45.91159500181675" lon="9.059824962168932">
        <ele>934</ele>
        <time>2010-06-13T08:18:43Z</time>
      </trkpt>
      <trkpt lat="45.911586033180356" lon="9.059811970219016">
        <ele>934</ele>
        <time>2010-06-13T08:18:44Z</time>
      </trkpt>
      <trkpt lat="45.911586033180356" lon="9.0597989782691">
        <ele>934</ele>
        <time>2010-06-13T08:18:45Z</time>
      </trkpt>
      <trkpt lat="45.911576980724931" lon="9.059774000197649">
        <ele>934</ele>
        <time>2010-06-13T08:18:46Z</time>
      </trkpt>
      <trkpt lat="45.911576980724931" lon="9.059761008247733">
        <ele>935</ele>
        <time>2010-06-13T08:18:47Z</time>
      </trkpt>
      <trkpt lat="45.911576980724931" lon="9.059748016297817">
        <ele>935</ele>
        <time>2010-06-13T08:18:48Z</time>
      </trkpt>
      <trkpt lat="45.911568012088537" lon="9.059735024347901">
        <ele>934</ele>
        <time>2010-06-13T08:18:49Z</time>
      </trkpt>
      <trkpt lat="45.911558959633112" lon="9.059722032397986">
        <ele>935</ele>
        <time>2010-06-13T08:18:50Z</time>
      </trkpt>
      <trkpt lat="45.911558959633112" lon="9.059695964679122">
        <ele>935</ele>
        <time>2010-06-13T08:18:52Z</time>
      </trkpt>
      <trkpt lat="45.911549990996718" lon="9.059682972729206">
        <ele>936</ele>
        <time>2010-06-13T08:18:53Z</time>
      </trkpt>
      <trkpt lat="45.911549990996718" lon="9.059670986607671">
        <ele>936</ele>
        <time>2010-06-13T08:18:54Z</time>
      </trkpt>
      <trkpt lat="45.911549990996718" lon="9.059645002707839">
        <ele>936</ele>
        <time>2010-06-13T08:18:56Z</time>
      </trkpt>
      <trkpt lat="45.911541022360325" lon="9.059632010757923">
        <ele>936</ele>
        <time>2010-06-13T08:18:57Z</time>
      </trkpt>
      <trkpt lat="45.911541022360325" lon="9.059606026858091">
        <ele>936</ele>
        <time>2010-06-13T08:18:58Z</time>
      </trkpt>
      <trkpt lat="45.911541022360325" lon="9.059579959139228">
        <ele>936</ele>
        <time>2010-06-13T08:18:59Z</time>
      </trkpt>
      <trkpt lat="45.9115319699049" lon="9.059566967189312">
        <ele>937</ele>
        <time>2010-06-13T08:19:00Z</time>
      </trkpt>
      <trkpt lat="45.9115319699049" lon="9.05954098328948">
        <ele>937</ele>
        <time>2010-06-13T08:19:01Z</time>
      </trkpt>
      <trkpt lat="45.9115319699049" lon="9.05954098328948">
        <ele>937</ele>
        <time>2010-06-13T08:19:02Z</time>
      </trkpt>
      <trkpt lat="45.911523001268506" lon="9.059516005218029">
        <ele>937</ele>
        <time>2010-06-13T08:19:03Z</time>
      </trkpt>
      <trkpt lat="45.911523001268506" lon="9.059503013268113">
        <ele>937</ele>
        <time>2010-06-13T08:19:04Z</time>
      </trkpt>
      <trkpt lat="45.911514032632113" lon="9.059490021318197">
        <ele>937</ele>
        <time>2010-06-13T08:19:05Z</time>
      </trkpt>
      <trkpt lat="45.911514032632113" lon="9.059477029368281">
        <ele>937</ele>
        <time>2010-06-13T08:19:06Z</time>
      </trkpt>
      <trkpt lat="45.911504980176687" lon="9.059477029368281">
        <ele>937</ele>
        <time>2010-06-13T08:19:07Z</time>
      </trkpt>
      <trkpt lat="45.911504980176687" lon="9.059464037418366">
        <ele>937</ele>
        <time>2010-06-13T08:19:08Z</time>
      </trkpt>
      <trkpt lat="45.911496011540294" lon="9.059450961649418">
        <ele>937</ele>
        <time>2010-06-13T08:19:09Z</time>
      </trkpt>
      <trkpt lat="45.911486959084868" lon="9.059437969699502">
        <ele>938</ele>
        <time>2010-06-13T08:19:10Z</time>
      </trkpt>
      <trkpt lat="45.911487964913249" lon="9.059425983577967">
        <ele>938</ele>
        <time>2010-06-13T08:19:11Z</time>
      </trkpt>
      <trkpt lat="45.911487964913249" lon="9.05941198579967">
        <ele>937</ele>
        <time>2010-06-13T08:19:12Z</time>
      </trkpt>
      <trkpt lat="45.911477990448475" lon="9.05941198579967">
        <ele>937</ele>
        <time>2010-06-13T08:19:13Z</time>
      </trkpt>
      <trkpt lat="45.911487964913249" lon="9.059361023828387">
        <ele>938</ele>
        <time>2010-06-13T08:19:16Z</time>
      </trkpt>
      <trkpt lat="45.911477990448475" lon="9.059335039928556">
        <ele>938</ele>
        <time>2010-06-13T08:19:19Z</time>
      </trkpt>
      <trkpt lat="45.911477990448475" lon="9.059321964159608">
        <ele>939</ele>
        <time>2010-06-13T08:19:20Z</time>
      </trkpt>
      <trkpt lat="45.911477990448475" lon="9.059295980259776">
        <ele>939</ele>
        <time>2010-06-13T08:19:21Z</time>
      </trkpt>
      <trkpt lat="45.911477990448475" lon="9.059283994138241">
        <ele>939</ele>
        <time>2010-06-13T08:19:22Z</time>
      </trkpt>
      <trkpt lat="45.911470027640462" lon="9.058897001668811">
        <ele>941</ele>
        <time>2010-06-13T08:19:50Z</time>
      </trkpt>
      <trkpt lat="45.911470027640462" lon="9.058884009718895">
        <ele>941</ele>
        <time>2010-06-13T08:19:51Z</time>
      </trkpt>
      <trkpt lat="45.911478996276855" lon="9.058871017768979">
        <ele>941</ele>
        <time>2010-06-13T08:19:52Z</time>
      </trkpt>
      <trkpt lat="45.911478996276855" lon="9.058845033869147">
        <ele>942</ele>
        <time>2010-06-13T08:19:53Z</time>
      </trkpt>
      <trkpt lat="45.911478996276855" lon="9.0588319581002">
        <ele>942</ele>
        <time>2010-06-13T08:19:54Z</time>
      </trkpt>
      <trkpt lat="45.911487964913249" lon="9.058818966150284">
        <ele>943</ele>
        <time>2010-06-13T08:19:55Z</time>
      </trkpt>
      <trkpt lat="45.911487964913249" lon="9.058818966150284">
        <ele>943</ele>
        <time>2010-06-13T08:19:56Z</time>
      </trkpt>
      <trkpt lat="45.91165903955698" lon="9.058510009199381">
        <ele>945</ele>
        <time>2010-06-13T08:22:23Z</time>
      </trkpt>
      <trkpt lat="45.911668008193374" lon="9.058510009199381">
        <ele>945</ele>
        <time>2010-06-13T08:22:24Z</time>
      </trkpt>
      <trkpt lat="45.911676976829767" lon="9.058497017249465">
        <ele>945</ele>
        <time>2010-06-13T08:22:25Z</time>
      </trkpt>
      <trkpt lat="45.911676976829767" lon="9.058497017249465">
        <ele>945</ele>
        <time>2010-06-13T08:22:26Z</time>
      </trkpt>
      <trkpt lat="45.911686029285192" lon="9.058484025299549">
        <ele>945</ele>
        <time>2010-06-13T08:22:27Z</time>
      </trkpt>
      <trkpt lat="45.911694997921586" lon="9.058471033349633">
        <ele>945</ele>
        <time>2010-06-13T08:22:28Z</time>
      </trkpt>
      <trkpt lat="45.911694997921586" lon="9.058471033349633">
        <ele>945</ele>
        <time>2010-06-13T08:22:29Z</time>
      </trkpt>
      <trkpt lat="45.91170396655798" lon="9.058458963409066">
        <ele>945</ele>
        <time>2010-06-13T08:22:30Z</time>
      </trkpt>
      <trkpt lat="45.911713019013405" lon="9.058458963409066">
        <ele>945</ele>
        <time>2010-06-13T08:22:31Z</time>
      </trkpt>
      <trkpt lat="45.911721987649798" lon="9.05844597145915">
        <ele>945</ele>
        <time>2010-06-13T08:22:32Z</time>
      </trkpt>
      <trkpt lat="45.911731040105224" lon="9.058432979509234">
        <ele>945</ele>
        <time>2010-06-13T08:22:33Z</time>
      </trkpt>
      <trkpt lat="45.911731040105224" lon="9.058419987559319">
        <ele>945</ele>
        <time>2010-06-13T08:22:34Z</time>
      </trkpt>
      <trkpt lat="45.911740008741617" lon="9.058419987559319">
        <ele>945</ele>
        <time>2010-06-13T08:22:35Z</time>
      </trkpt>
      <trkpt lat="45.911748977378011" lon="9.058406995609403">
        <ele>945</ele>
        <time>2010-06-13T08:22:36Z</time>
      </trkpt>
      <trkpt lat="45.911748977378011" lon="9.058406995609403">
        <ele>946</ele>
        <time>2010-06-13T08:22:37Z</time>
      </trkpt>
      <trkpt lat="45.911875041201711" lon="9.05818797647953">
        <ele>948</ele>
        <time>2010-06-13T08:23:39Z</time>
      </trkpt>
      <trkpt lat="45.911884009838104" lon="9.058174984529614">
        <ele>949</ele>
        <time>2010-06-13T08:23:40Z</time>
      </trkpt>
      <trkpt lat="45.911892978474498" lon="9.058174984529614">
        <ele>949</ele>
        <time>2010-06-13T08:23:41Z</time>
      </trkpt>
      <trkpt lat="45.911902030929923" lon="9.058161992579699">
        <ele>949</ele>
        <time>2010-06-13T08:23:42Z</time>
      </trkpt>
      <trkpt lat="45.911910999566317" lon="9.058149000629783">
        <ele>948</ele>
        <time>2010-06-13T08:23:43Z</time>
      </trkpt>
      <trkpt lat="45.91191996820271" lon="9.058149000629783">
        <ele>948</ele>
        <time>2010-06-13T08:23:44Z</time>
      </trkpt>
      <trkpt lat="45.911929020658135" lon="9.058136008679867">
        <ele>949</ele>
        <time>2010-06-13T08:23:45Z</time>
      </trkpt>
      <trkpt lat="45.911937989294529" lon="9.058124022558332">
        <ele>949</ele>
        <time>2010-06-13T08:23:46Z</time>
      </trkpt>
      <trkpt lat="45.911947041749954" lon="9.058124022558332">
        <ele>949</ele>
        <time>2010-06-13T08:23:47Z</time>
      </trkpt>
      <trkpt lat="45.911947041749954" lon="9.058111030608416">
        <ele>949</ele>
        <time>2010-06-13T08:23:48Z</time>
      </trkpt>
      <trkpt lat="45.911956010386348" lon="9.0580980386585">
        <ele>950</ele>
        <time>2010-06-13T08:23:49Z</time>
      </trkpt>
      <trkpt lat="45.911964979022741" lon="9.058084962889552">
        <ele>949</ele>
        <time>2010-06-13T08:23:50Z</time>
      </trkpt>
      <trkpt lat="45.911974031478167" lon="9.058084962889552">
        <ele>949</ele>
        <time>2010-06-13T08:23:51Z</time>
      </trkpt>
      <trkpt lat="45.911991968750954" lon="9.058071970939636">
        <ele>949</ele>
        <time>2010-06-13T08:23:52Z</time>
      </trkpt>
      <trkpt lat="45.912001021206379" lon="9.058071970939636">
        <ele>950</ele>
        <time>2010-06-13T08:23:54Z</time>
      </trkpt>
      <trkpt lat="45.912028010934591" lon="9.058071970939636">
        <ele>950</ele>
        <time>2010-06-13T08:23:56Z</time>
      </trkpt>
      <trkpt lat="45.912036979570985" lon="9.058071970939636">
        <ele>950</ele>
        <time>2010-06-13T08:23:57Z</time>
      </trkpt>
      <trkpt lat="45.91204603202641" lon="9.05805897898972">
        <ele>950</ele>
        <time>2010-06-13T08:23:58Z</time>
      </trkpt>
      <trkpt lat="45.912055000662804" lon="9.05805897898972">
        <ele>950</ele>
        <time>2010-06-13T08:23:59Z</time>
      </trkpt>
      <trkpt lat="45.912063969299197" lon="9.058045987039805">
        <ele>951</ele>
        <time>2010-06-13T08:24:00Z</time>
      </trkpt>
      <trkpt lat="45.912063969299197" lon="9.058034000918269">
        <ele>950</ele>
        <time>2010-06-13T08:24:01Z</time>
      </trkpt>
      <trkpt lat="45.912073021754622" lon="9.058021008968353">
        <ele>950</ele>
        <time>2010-06-13T08:24:02Z</time>
      </trkpt>
      <trkpt lat="45.912081990391016" lon="9.058021008968353">
        <ele>950</ele>
        <time>2010-06-13T08:24:03Z</time>
      </trkpt>
      <trkpt lat="45.91209095902741" lon="9.058008017018437">
        <ele>950</ele>
        <time>2010-06-13T08:24:04Z</time>
      </trkpt>
      <trkpt lat="45.912100011482835" lon="9.058008017018437">
        <ele>951</ele>
        <time>2010-06-13T08:24:05Z</time>
      </trkpt>
      <trkpt lat="45.912108980119228" lon="9.057995025068522">
        <ele>951</ele>
        <time>2010-06-13T08:24:06Z</time>
      </trkpt>
      <trkpt lat="45.912118032574654" lon="9.057982033118606">
        <ele>951</ele>
        <time>2010-06-13T08:24:07Z</time>
      </trkpt>
      <trkpt lat="45.912127001211047" lon="9.057982033118606">
        <ele>952</ele>
        <time>2010-06-13T08:24:09Z</time>
      </trkpt>
      <trkpt lat="45.912145022302866" lon="9.05796904116869">
        <ele>952</ele>
        <time>2010-06-13T08:24:10Z</time>
      </trkpt>
      <trkpt lat="45.91215399093926" lon="9.05796904116869">
        <ele>953</ele>
        <time>2010-06-13T08:24:11Z</time>
      </trkpt>
      <trkpt lat="45.912162959575653" lon="9.05796904116869">
        <ele>953</ele>
        <time>2010-06-13T08:24:12Z</time>
      </trkpt>
      <trkpt lat="45.912172012031078" lon="9.05796904116869">
        <ele>953</ele>
        <time>2010-06-13T08:24:13Z</time>
      </trkpt>
      <trkpt lat="45.912180980667472" lon="9.057955965399742">
        <ele>952</ele>
        <time>2010-06-13T08:24:14Z</time>
      </trkpt>
      <trkpt lat="45.912190033122897" lon="9.057955965399742">
        <ele>952</ele>
        <time>2010-06-13T08:24:15Z</time>
      </trkpt>
      <trkpt lat="45.912199001759291" lon="9.057942973449826">
        <ele>951</ele>
        <time>2010-06-13T08:24:16Z</time>
      </trkpt>
      <trkpt lat="45.912207970395684" lon="9.057930987328291">
        <ele>952</ele>
        <time>2010-06-13T08:24:17Z</time>
      </trkpt>
      <trkpt lat="45.91221702285111" lon="9.057930987328291">
        <ele>952</ele>
        <time>2010-06-13T08:24:18Z</time>
      </trkpt>
      <trkpt lat="45.912225991487503" lon="9.057930987328291">
        <ele>953</ele>
        <time>2010-06-13T08:24:19Z</time>
      </trkpt>
      <trkpt lat="45.912225991487503" lon="9.057930987328291">
        <ele>953</ele>
        <time>2010-06-13T08:24:20Z</time>
      </trkpt>
      <trkpt lat="45.912234960123897" lon="9.057930987328291">
        <ele>953</ele>
        <time>2010-06-13T08:24:21Z</time>
      </trkpt>
      <trkpt lat="45.912244012579322" lon="9.057916989549995">
        <ele>953</ele>
        <time>2010-06-13T08:24:22Z</time>
      </trkpt>
      <trkpt lat="45.912252981215715" lon="9.057917995378375">
        <ele>953</ele>
        <time>2010-06-13T08:24:23Z</time>
      </trkpt>
      <trkpt lat="45.912262033671141" lon="9.057905003428459">
        <ele>953</ele>
        <time>2010-06-13T08:24:24Z</time>
      </trkpt>
      <trkpt lat="45.912262033671141" lon="9.057905003428459">
        <ele>953</ele>
        <time>2010-06-13T08:24:25Z</time>
      </trkpt>
      <trkpt lat="45.912271002307534" lon="9.057892011478543">
        <ele>953</ele>
        <time>2010-06-13T08:24:26Z</time>
      </trkpt>
      <trkpt lat="45.912279970943928" lon="9.057892011478543">
        <ele>953</ele>
        <time>2010-06-13T08:24:27Z</time>
      </trkpt>
      <trkpt lat="45.912289023399353" lon="9.057879019528627">
        <ele>953</ele>
        <time>2010-06-13T08:24:28Z</time>
      </trkpt>
      <trkpt lat="45.912289023399353" lon="9.057866027578712">
        <ele>953</ele>
        <time>2010-06-13T08:24:29Z</time>
      </trkpt>
      <trkpt lat="45.912297992035747" lon="9.057853035628796">
        <ele>953</ele>
        <time>2010-06-13T08:24:30Z</time>
      </trkpt>
      <trkpt lat="45.91230696067214" lon="9.057839959859848">
        <ele>953</ele>
        <time>2010-06-13T08:24:31Z</time>
      </trkpt>
      <trkpt lat="45.912316013127565" lon="9.057839959859848">
        <ele>954</ele>
        <time>2010-06-13T08:24:32Z</time>
      </trkpt>
      <trkpt lat="45.912324981763959" lon="9.057827973738313">
        <ele>954</ele>
        <time>2010-06-13T08:24:33Z</time>
      </trkpt>
      <trkpt lat="45.912334034219384" lon="9.057827973738313">
        <ele>954</ele>
        <time>2010-06-13T08:24:34Z</time>
      </trkpt>
      <trkpt lat="45.912343002855778" lon="9.057814981788397">
        <ele>954</ele>
        <time>2010-06-13T08:24:35Z</time>
      </trkpt>
      <trkpt lat="45.912351971492171" lon="9.057801989838481">
        <ele>954</ele>
        <time>2010-06-13T08:24:36Z</time>
      </trkpt>
      <trkpt lat="45.912351971492171" lon="9.057788997888565">
        <ele>954</ele>
        <time>2010-06-13T08:24:37Z</time>
      </trkpt>
      <trkpt lat="45.912351971492171" lon="9.057776005938649">
        <ele>954</ele>
        <time>2010-06-13T08:24:38Z</time>
      </trkpt>
      <trkpt lat="45.912361023947597" lon="9.057763013988733">
        <ele>954</ele>
        <time>2010-06-13T08:24:39Z</time>
      </trkpt>
      <trkpt lat="45.91236999258399" lon="9.057750022038817">
        <ele>955</ele>
        <time>2010-06-13T08:24:40Z</time>
      </trkpt>
      <trkpt lat="45.912378961220384" lon="9.057750022038817">
        <ele>955</ele>
        <time>2010-06-13T08:24:41Z</time>
      </trkpt>
      <trkpt lat="45.912388013675809" lon="9.057737030088902">
        <ele>955</ele>
        <time>2010-06-13T08:24:42Z</time>
      </trkpt>
      <trkpt lat="45.912396982312202" lon="9.057737030088902">
        <ele>955</ele>
        <time>2010-06-13T08:24:43Z</time>
      </trkpt>
      <trkpt lat="45.912406034767628" lon="9.057724038138986">
        <ele>956</ele>
        <time>2010-06-13T08:24:44Z</time>
      </trkpt>
      <trkpt lat="45.912415003404021" lon="9.057710962370038">
        <ele>956</ele>
        <time>2010-06-13T08:24:45Z</time>
      </trkpt>
      <trkpt lat="45.912415003404021" lon="9.057698976248503">
        <ele>956</ele>
        <time>2010-06-13T08:24:46Z</time>
      </trkpt>
      <trkpt lat="45.912423972040415" lon="9.057685984298587">
        <ele>956</ele>
        <time>2010-06-13T08:24:47Z</time>
      </trkpt>
      <trkpt lat="45.91243302449584" lon="9.057685984298587">
        <ele>956</ele>
        <time>2010-06-13T08:24:48Z</time>
      </trkpt>
      <trkpt lat="45.912441993132234" lon="9.057672992348671">
        <ele>956</ele>
        <time>2010-06-13T08:24:49Z</time>
      </trkpt>
      <trkpt lat="45.912441993132234" lon="9.057647008448839">
        <ele>956</ele>
        <time>2010-06-13T08:24:50Z</time>
      </trkpt>
      <trkpt lat="45.912450961768627" lon="9.057634016498923">
        <ele>956</ele>
        <time>2010-06-13T08:24:51Z</time>
      </trkpt>
      <trkpt lat="45.912460014224052" lon="9.057634016498923">
        <ele>956</ele>
        <time>2010-06-13T08:24:52Z</time>
      </trkpt>
      <trkpt lat="45.912460014224052" lon="9.057621024549007">
        <ele>955</ele>
        <time>2010-06-13T08:24:53Z</time>
      </trkpt>
      <trkpt lat="45.912468982860446" lon="9.057595962658525">
        <ele>956</ele>
        <time>2010-06-13T08:24:54Z</time>
      </trkpt>
      <trkpt lat="45.912468982860446" lon="9.057595962658525">
        <ele>956</ele>
        <time>2010-06-13T08:24:55Z</time>
      </trkpt>
      <trkpt lat="45.912487003952265" lon="9.057595962658525">
        <ele>956</ele>
        <time>2010-06-13T08:24:57Z</time>
      </trkpt>
      <trkpt lat="45.912495972588658" lon="9.057582970708609">
        <ele>957</ele>
        <time>2010-06-13T08:24:58Z</time>
      </trkpt>
      <trkpt lat="45.912505025044084" lon="9.057569978758693">
        <ele>956</ele>
        <time>2010-06-13T08:24:59Z</time>
      </trkpt>
      <trkpt lat="45.912513993680477" lon="9.057569978758693">
        <ele>957</ele>
        <time>2010-06-13T08:25:00Z</time>
      </trkpt>
      <trkpt lat="45.912513993680477" lon="9.057543994858861">
        <ele>956</ele>
        <time>2010-06-13T08:25:01Z</time>
      </trkpt>
      <trkpt lat="45.912522962316871" lon="9.057531002908945">
        <ele>956</ele>
        <time>2010-06-13T08:25:02Z</time>
      </trkpt>
      <trkpt lat="45.912532014772296" lon="9.057531002908945">
        <ele>956</ele>
        <time>2010-06-13T08:25:03Z</time>
      </trkpt>
      <trkpt lat="45.912540983408689" lon="9.057518010959029">
        <ele>956</ele>
        <time>2010-06-13T08:25:04Z</time>
      </trkpt>
      <trkpt lat="45.912550035864115" lon="9.057505019009113">
        <ele>957</ele>
        <time>2010-06-13T08:25:05Z</time>
      </trkpt>
      <trkpt lat="45.912559004500508" lon="9.057505019009113">
        <ele>957</ele>
        <time>2010-06-13T08:25:06Z</time>
      </trkpt>
      <trkpt lat="45.912567973136902" lon="9.057505019009113">
        <ele>958</ele>
        <time>2010-06-13T08:25:07Z</time>
      </trkpt>
      <trkpt lat="45.912577025592327" lon="9.057479035109282">
        <ele>957</ele>
        <time>2010-06-13T08:25:08Z</time>
      </trkpt>
      <trkpt lat="45.912577025592327" lon="9.057479035109282">
        <ele>957</ele>
        <time>2010-06-13T08:25:09Z</time>
      </trkpt>
      <trkpt lat="45.912585994228721" lon="9.057466965168715">
        <ele>957</ele>
        <time>2010-06-13T08:25:10Z</time>
      </trkpt>
      <trkpt lat="45.912585994228721" lon="9.057453973218799">
        <ele>958</ele>
        <time>2010-06-13T08:25:11Z</time>
      </trkpt>
      <trkpt lat="45.912595968693495" lon="9.057440981268883">
        <ele>958</ele>
        <time>2010-06-13T08:25:12Z</time>
      </trkpt>
      <trkpt lat="45.912604015320539" lon="9.057427989318967">
        <ele>958</ele>
        <time>2010-06-13T08:25:13Z</time>
      </trkpt>
      <trkpt lat="45.912604015320539" lon="9.057414997369051">
        <ele>958</ele>
        <time>2010-06-13T08:25:14Z</time>
      </trkpt>
      <trkpt lat="45.912612983956933" lon="9.057402005419135">
        <ele>958</ele>
        <time>2010-06-13T08:25:15Z</time>
      </trkpt>
      <trkpt lat="45.912622036412358" lon="9.057389013469219">
        <ele>958</ele>
        <time>2010-06-13T08:25:16Z</time>
      </trkpt>
      <trkpt lat="45.912622036412358" lon="9.057376021519303">
        <ele>959</ele>
        <time>2010-06-13T08:25:17Z</time>
      </trkpt>
      <trkpt lat="45.912631005048752" lon="9.057364035397768">
        <ele>959</ele>
        <time>2010-06-13T08:25:18Z</time>
      </trkpt>
      <trkpt lat="45.912631005048752" lon="9.05735095962882">
        <ele>958</ele>
        <time>2010-06-13T08:25:19Z</time>
      </trkpt>
      <trkpt lat="45.912640979513526" lon="9.05735095962882">
        <ele>958</ele>
        <time>2010-06-13T08:25:20Z</time>
      </trkpt>
      <trkpt lat="45.912649026140571" lon="9.057337967678905">
        <ele>958</ele>
        <time>2010-06-13T08:25:21Z</time>
      </trkpt>
      <trkpt lat="45.912649026140571" lon="9.057324975728989">
        <ele>959</ele>
        <time>2010-06-13T08:25:22Z</time>
      </trkpt>
      <trkpt lat="45.912659000605345" lon="9.057311983779073">
        <ele>959</ele>
        <time>2010-06-13T08:25:23Z</time>
      </trkpt>
      <trkpt lat="45.912659000605345" lon="9.057298991829157">
        <ele>959</ele>
        <time>2010-06-13T08:25:24Z</time>
      </trkpt>
      <trkpt lat="45.912666963413358" lon="9.057298991829157">
        <ele>959</ele>
        <time>2010-06-13T08:25:25Z</time>
      </trkpt>
      <trkpt lat="45.912677021697164" lon="9.057285999879241">
        <ele>960</ele>
        <time>2010-06-13T08:25:26Z</time>
      </trkpt>
      <trkpt lat="45.912694036960602" lon="9.057285999879241">
        <ele>960</ele>
        <time>2010-06-13T08:25:28Z</time>
      </trkpt>
      <trkpt lat="45.912704011425376" lon="9.057285999879241">
        <ele>960</ele>
        <time>2010-06-13T08:25:29Z</time>
      </trkpt>
      <trkpt lat="45.912711974233389" lon="9.057285999879241">
        <ele>960</ele>
        <time>2010-06-13T08:25:30Z</time>
      </trkpt>
      <trkpt lat="45.912711974233389" lon="9.057273007929325">
        <ele>960</ele>
        <time>2010-06-13T08:25:31Z</time>
      </trkpt>
      <trkpt lat="45.912722032517195" lon="9.057273007929325">
        <ele>960</ele>
        <time>2010-06-13T08:25:32Z</time>
      </trkpt>
      <trkpt lat="45.91254198923707" lon="9.05696396715939">
        <ele>963</ele>
        <time>2010-06-13T08:26:08Z</time>
      </trkpt>
      <trkpt lat="45.912533020600677" lon="9.056950975209475">
        <ele>963</ele>
        <time>2010-06-13T08:26:09Z</time>
      </trkpt>
      <trkpt lat="45.912523968145251" lon="9.056950975209475">
        <ele>963</ele>
        <time>2010-06-13T08:26:10Z</time>
      </trkpt>
      <trkpt lat="45.912514999508858" lon="9.056937983259559">
        <ele>963</ele>
        <time>2010-06-13T08:26:11Z</time>
      </trkpt>
      <trkpt lat="45.912506030872464" lon="9.056937983259559">
        <ele>963</ele>
        <time>2010-06-13T08:26:12Z</time>
      </trkpt>
      <trkpt lat="45.912496978417039" lon="9.056937983259559">
        <ele>963</ele>
        <time>2010-06-13T08:26:13Z</time>
      </trkpt>
      <trkpt lat="45.912488009780645" lon="9.056924991309643">
        <ele>964</ele>
        <time>2010-06-13T08:26:14Z</time>
      </trkpt>
      <trkpt lat="45.912479041144252" lon="9.056924991309643">
        <ele>963</ele>
        <time>2010-06-13T08:26:15Z</time>
      </trkpt>
      <trkpt lat="45.912469988688827" lon="9.056924991309643">
        <ele>964</ele>
        <time>2010-06-13T08:26:17Z</time>
      </trkpt>
      <trkpt lat="45.912451967597008" lon="9.056911999359727">
        <ele>964</ele>
        <time>2010-06-13T08:26:18Z</time>
      </trkpt>
      <trkpt lat="45.912451967597008" lon="9.056899007409811">
        <ele>964</ele>
        <time>2010-06-13T08:26:19Z</time>
      </trkpt>
      <trkpt lat="45.912451967597008" lon="9.056861037388444">
        <ele>964</ele>
        <time>2010-06-13T08:26:21Z</time>
      </trkpt>
      <trkpt lat="45.912442998960614" lon="9.056847039610148">
        <ele>965</ele>
        <time>2010-06-13T08:26:22Z</time>
      </trkpt>
      <trkpt lat="45.912434030324221" lon="9.056834969669581">
        <ele>965</ele>
        <time>2010-06-13T08:26:23Z</time>
      </trkpt>
      <trkpt lat="45.912424977868795" lon="9.056834969669581">
        <ele>965</ele>
        <time>2010-06-13T08:26:24Z</time>
      </trkpt>
      <trkpt lat="45.912416009232402" lon="9.056834969669581">
        <ele>965</ele>
        <time>2010-06-13T08:26:25Z</time>
      </trkpt>
      <trkpt lat="45.912407040596008" lon="9.056834969669581">
        <ele>964</ele>
        <time>2010-06-13T08:26:26Z</time>
      </trkpt>
      <trkpt lat="45.912397988140583" lon="9.056821977719665">
        <ele>964</ele>
        <time>2010-06-13T08:26:27Z</time>
      </trkpt>
      <trkpt lat="45.912389019504189" lon="9.056821977719665">
        <ele>964</ele>
        <time>2010-06-13T08:26:28Z</time>
      </trkpt>
      <trkpt lat="45.912379967048764" lon="9.056808985769749">
        <ele>965</ele>
        <time>2010-06-13T08:26:29Z</time>
      </trkpt>
      <trkpt lat="45.912370998412371" lon="9.056808985769749">
        <ele>965</ele>
        <time>2010-06-13T08:26:30Z</time>
      </trkpt>
      <trkpt lat="45.912362029775977" lon="9.056795993819833">
        <ele>966</ele>
        <time>2010-06-13T08:26:31Z</time>
      </trkpt>
      <trkpt lat="45.912352977320552" lon="9.056795993819833">
        <ele>966</ele>
        <time>2010-06-13T08:26:32Z</time>
      </trkpt>
      <trkpt lat="45.912352977320552" lon="9.056783001869917">
        <ele>965</ele>
        <time>2010-06-13T08:26:33Z</time>
      </trkpt>
      <trkpt lat="45.912344008684158" lon="9.056770009920001">
        <ele>965</ele>
        <time>2010-06-13T08:26:34Z</time>
      </trkpt>
      <trkpt lat="45.912335040047765" lon="9.056757017970085">
        <ele>966</ele>
        <time>2010-06-13T08:26:35Z</time>
      </trkpt>
      <trkpt lat="45.912335040047765" lon="9.056744026020169">
        <ele>966</ele>
        <time>2010-06-13T08:26:36Z</time>
      </trkpt>
      <trkpt lat="45.912317018955946" lon="9.056692980229855">
        <ele>966</ele>
        <time>2010-06-13T08:26:40Z</time>
      </trkpt>
      <trkpt lat="45.912298997864127" lon="9.056679988279939">
        <ele>966</ele>
        <time>2010-06-13T08:26:41Z</time>
      </trkpt>
      <trkpt lat="45.912298997864127" lon="9.056666996330023">
        <ele>966</ele>
        <time>2010-06-13T08:26:42Z</time>
      </trkpt>
      <trkpt lat="45.912290029227734" lon="9.056666996330023">
        <ele>967</ele>
        <time>2010-06-13T08:26:43Z</time>
      </trkpt>
      <trkpt lat="45.912290029227734" lon="9.056654004380107">
        <ele>967</ele>
        <time>2010-06-13T08:26:44Z</time>
      </trkpt>
      <trkpt lat="45.912280976772308" lon="9.056641012430191">
        <ele>967</ele>
        <time>2010-06-13T08:26:45Z</time>
      </trkpt>
      <trkpt lat="45.912280976772308" lon="9.056628020480275">
        <ele>967</ele>
        <time>2010-06-13T08:26:46Z</time>
      </trkpt>
      <trkpt lat="45.912280976772308" lon="9.056615028530359">
        <ele>967</ele>
        <time>2010-06-13T08:26:47Z</time>
      </trkpt>
      <trkpt lat="45.912272008135915" lon="9.056602036580443">
        <ele>967</ele>
        <time>2010-06-13T08:26:48Z</time>
      </trkpt>
      <trkpt lat="45.912263039499521" lon="9.056602036580443">
        <ele>967</ele>
        <time>2010-06-13T08:26:49Z</time>
      </trkpt>
      <trkpt lat="45.912253987044096" lon="9.056588960811496">
        <ele>967</ele>
        <time>2010-06-13T08:26:50Z</time>
      </trkpt>
      <trkpt lat="45.912245018407702" lon="9.056588960811496">
        <ele>967</ele>
        <time>2010-06-13T08:26:51Z</time>
      </trkpt>
      <trkpt lat="45.912245018407702" lon="9.056563982740045">
        <ele>967</ele>
        <time>2010-06-13T08:26:52Z</time>
      </trkpt>
      <trkpt lat="45.912245018407702" lon="9.056537998840213">
        <ele>967</ele>
        <time>2010-06-13T08:26:54Z</time>
      </trkpt>
      <trkpt lat="45.912235965952277" lon="9.056525006890297">
        <ele>967</ele>
        <time>2010-06-13T08:26:55Z</time>
      </trkpt>
      <trkpt lat="45.912235965952277" lon="9.056525006890297">
        <ele>967</ele>
        <time>2010-06-13T08:26:56Z</time>
      </trkpt>
      <trkpt lat="45.912226997315884" lon="9.056512014940381">
        <ele>967</ele>
        <time>2010-06-13T08:26:57Z</time>
      </trkpt>
      <trkpt lat="45.912226997315884" lon="9.056499022990465">
        <ele>967</ele>
        <time>2010-06-13T08:26:58Z</time>
      </trkpt>
      <trkpt lat="45.91221802867949" lon="9.056486031040549">
        <ele>967</ele>
        <time>2010-06-13T08:26:59Z</time>
      </trkpt>
      <trkpt lat="45.912208976224065" lon="9.056473961099982">
        <ele>967</ele>
        <time>2010-06-13T08:27:00Z</time>
      </trkpt>
      <trkpt lat="45.912208976224065" lon="9.056473961099982">
        <ele>967</ele>
        <time>2010-06-13T08:27:01Z</time>
      </trkpt>
      <trkpt lat="45.912200007587671" lon="9.056460969150066">
        <ele>967</ele>
        <time>2010-06-13T08:27:02Z</time>
      </trkpt>
      <trkpt lat="45.912191038951278" lon="9.056447977200151">
        <ele>967</ele>
        <time>2010-06-13T08:27:03Z</time>
      </trkpt>
      <trkpt lat="45.912181986495852" lon="9.056447977200151">
        <ele>968</ele>
        <time>2010-06-13T08:27:04Z</time>
      </trkpt>
      <trkpt lat="45.912173017859459" lon="9.056434985250235">
        <ele>968</ele>
        <time>2010-06-13T08:27:05Z</time>
      </trkpt>
      <trkpt lat="45.912163965404034" lon="9.056434985250235">
        <ele>968</ele>
        <time>2010-06-13T08:27:06Z</time>
      </trkpt>
      <trkpt lat="45.91215499676764" lon="9.056421993300319">
        <ele>968</ele>
        <time>2010-06-13T08:27:07Z</time>
      </trkpt>
      <trkpt lat="45.912146028131247" lon="9.056409001350403">
        <ele>969</ele>
        <time>2010-06-13T08:27:08Z</time>
      </trkpt>
      <trkpt lat="45.912146028131247" lon="9.056409001350403">
        <ele>969</ele>
        <time>2010-06-13T08:27:09Z</time>
      </trkpt>
      <trkpt lat="45.912136975675821" lon="9.056396009400487">
        <ele>969</ele>
        <time>2010-06-13T08:27:10Z</time>
      </trkpt>
      <trkpt lat="45.912128007039428" lon="9.056396009400487">
        <ele>969</ele>
        <time>2010-06-13T08:27:11Z</time>
      </trkpt>
      <trkpt lat="45.912119038403034" lon="9.056383017450571">
        <ele>969</ele>
        <time>2010-06-13T08:27:12Z</time>
      </trkpt>
      <trkpt lat="45.912109985947609" lon="9.056370025500655">
        <ele>969</ele>
        <time>2010-06-13T08:27:13Z</time>
      </trkpt>
      <trkpt lat="45.912109985947609" lon="9.056370025500655">
        <ele>969</ele>
        <time>2010-06-13T08:27:14Z</time>
      </trkpt>
      <trkpt lat="45.912101017311215" lon="9.056357033550739">
        <ele>969</ele>
        <time>2010-06-13T08:27:15Z</time>
      </trkpt>
      <trkpt lat="45.91209196485579" lon="9.056357033550739">
        <ele>970</ele>
        <time>2010-06-13T08:27:16Z</time>
      </trkpt>
      <trkpt lat="45.912082996219397" lon="9.056357033550739">
        <ele>970</ele>
        <time>2010-06-13T08:27:17Z</time>
      </trkpt>
      <trkpt lat="45.912074027583003" lon="9.056344041600823">
        <ele>970</ele>
        <time>2010-06-13T08:27:18Z</time>
      </trkpt>
      <trkpt lat="45.912064975127578" lon="9.056330965831876">
        <ele>969</ele>
        <time>2010-06-13T08:27:19Z</time>
      </trkpt>
      <trkpt lat="45.912056006491184" lon="9.056330965831876">
        <ele>969</ele>
        <time>2010-06-13T08:27:20Z</time>
      </trkpt>
      <trkpt lat="45.912056006491184" lon="9.056318979710341">
        <ele>970</ele>
        <time>2010-06-13T08:27:21Z</time>
      </trkpt>
      <trkpt lat="45.912047037854791" lon="9.056318979710341">
        <ele>970</ele>
        <time>2010-06-13T08:27:22Z</time>
      </trkpt>
      <trkpt lat="45.912037985399365" lon="9.056318979710341">
        <ele>970</ele>
        <time>2010-06-13T08:27:23Z</time>
      </trkpt>
      <trkpt lat="45.912019964307547" lon="9.056318979710341">
        <ele>970</ele>
        <time>2010-06-13T08:27:25Z</time>
      </trkpt>
      <trkpt lat="45.912010995671153" lon="9.056305987760425">
        <ele>970</ele>
        <time>2010-06-13T08:27:26Z</time>
      </trkpt>
      <trkpt lat="45.91200202703476" lon="9.056305987760425">
        <ele>971</ele>
        <time>2010-06-13T08:27:27Z</time>
      </trkpt>
      <trkpt lat="45.91200202703476" lon="9.056292995810509">
        <ele>970</ele>
        <time>2010-06-13T08:27:28Z</time>
      </trkpt>
      <trkpt lat="45.911992974579334" lon="9.056292995810509">
        <ele>971</ele>
        <time>2010-06-13T08:27:29Z</time>
      </trkpt>
      <trkpt lat="45.911984005942941" lon="9.056280003860593">
        <ele>971</ele>
        <time>2010-06-13T08:27:30Z</time>
      </trkpt>
      <trkpt lat="45.911975037306547" lon="9.056267011910677">
        <ele>971</ele>
        <time>2010-06-13T08:27:31Z</time>
      </trkpt>
      <trkpt lat="45.911957016214728" lon="9.056267011910677">
        <ele>971</ele>
        <time>2010-06-13T08:27:32Z</time>
      </trkpt>
      <trkpt lat="45.911947963759303" lon="9.056267011910677">
        <ele>971</ele>
        <time>2010-06-13T08:27:33Z</time>
      </trkpt>
      <trkpt lat="45.91193899512291" lon="9.056254019960761">
        <ele>971</ele>
        <time>2010-06-13T08:27:34Z</time>
      </trkpt>
      <trkpt lat="45.911930026486516" lon="9.056254019960761">
        <ele>971</ele>
        <time>2010-06-13T08:27:35Z</time>
      </trkpt>
      <trkpt lat="45.911920974031091" lon="9.056254019960761">
        <ele>971</ele>
        <time>2010-06-13T08:27:36Z</time>
      </trkpt>
      <trkpt lat="45.911912005394697" lon="9.056241028010845">
        <ele>971</ele>
        <time>2010-06-13T08:27:37Z</time>
      </trkpt>
      <trkpt lat="45.911903036758304" lon="9.056228036060929">
        <ele>971</ele>
        <time>2010-06-13T08:27:38Z</time>
      </trkpt>
      <trkpt lat="45.911893984302878" lon="9.056228036060929">
        <ele>971</ele>
        <time>2010-06-13T08:27:39Z</time>
      </trkpt>
      <trkpt lat="45.911885015666485" lon="9.056214960291982">
        <ele>972</ele>
        <time>2010-06-13T08:27:40Z</time>
      </trkpt>
      <trkpt lat="45.91187596321106" lon="9.056214960291982">
        <ele>972</ele>
        <time>2010-06-13T08:27:41Z</time>
      </trkpt>
      <trkpt lat="45.911866994574666" lon="9.056201968342066">
        <ele>972</ele>
        <time>2010-06-13T08:27:42Z</time>
      </trkpt>
      <trkpt lat="45.911858025938272" lon="9.056201968342066">
        <ele>972</ele>
        <time>2010-06-13T08:27:43Z</time>
      </trkpt>
      <trkpt lat="45.911848973482847" lon="9.05618897639215">
        <ele>972</ele>
        <time>2010-06-13T08:27:44Z</time>
      </trkpt>
      <trkpt lat="45.911848973482847" lon="9.056176990270615">
        <ele>972</ele>
        <time>2010-06-13T08:27:45Z</time>
      </trkpt>
      <trkpt lat="45.911840004846454" lon="9.056163998320699">
        <ele>972</ele>
        <time>2010-06-13T08:27:46Z</time>
      </trkpt>
      <trkpt lat="45.91183103621006" lon="9.056163998320699">
        <ele>973</ele>
        <time>2010-06-13T08:27:47Z</time>
      </trkpt>
      <trkpt lat="45.911821983754635" lon="9.056151006370783">
        <ele>973</ele>
        <time>2010-06-13T08:27:48Z</time>
      </trkpt>
      <trkpt lat="45.911813015118241" lon="9.056151006370783">
        <ele>973</ele>
        <time>2010-06-13T08:27:49Z</time>
      </trkpt>
      <trkpt lat="45.911803962662816" lon="9.056138014420867">
        <ele>973</ele>
        <time>2010-06-13T08:27:50Z</time>
      </trkpt>
      <trkpt lat="45.911794994026423" lon="9.056138014420867">
        <ele>973</ele>
        <time>2010-06-13T08:27:51Z</time>
      </trkpt>
      <trkpt lat="45.911786025390029" lon="9.056125022470951">
        <ele>973</ele>
        <time>2010-06-13T08:27:52Z</time>
      </trkpt>
      <trkpt lat="45.91176800429821" lon="9.056138014420867">
        <ele>973</ele>
        <time>2010-06-13T08:27:53Z</time>
      </trkpt>
      <trkpt lat="45.911759035661817" lon="9.056125022470951">
        <ele>974</ele>
        <time>2010-06-13T08:27:55Z</time>
      </trkpt>
      <trkpt lat="45.911741014569998" lon="9.056125022470951">
        <ele>974</ele>
        <time>2010-06-13T08:27:56Z</time>
      </trkpt>
      <trkpt lat="45.911731962114573" lon="9.056112030521035">
        <ele>974</ele>
        <time>2010-06-13T08:27:57Z</time>
      </trkpt>
      <trkpt lat="45.911731962114573" lon="9.056099038571119">
        <ele>973</ele>
        <time>2010-06-13T08:27:58Z</time>
      </trkpt>
      <trkpt lat="45.911722993478179" lon="9.056085962802172">
        <ele>973</ele>
        <time>2010-06-13T08:27:59Z</time>
      </trkpt>
      <trkpt lat="45.911714024841785" lon="9.056072970852256">
        <ele>973</ele>
        <time>2010-06-13T08:28:00Z</time>
      </trkpt>
      <trkpt lat="45.91170497238636" lon="9.05605997890234">
        <ele>974</ele>
        <time>2010-06-13T08:28:01Z</time>
      </trkpt>
      <trkpt lat="45.911696003749967" lon="9.05605997890234">
        <ele>974</ele>
        <time>2010-06-13T08:28:02Z</time>
      </trkpt>
      <trkpt lat="45.911687035113573" lon="9.056047992780805">
        <ele>975</ele>
        <time>2010-06-13T08:28:03Z</time>
      </trkpt>
      <trkpt lat="45.911677982658148" lon="9.056033995002508">
        <ele>975</ele>
        <time>2010-06-13T08:28:04Z</time>
      </trkpt>
      <trkpt lat="45.911669014021754" lon="9.056033995002508">
        <ele>974</ele>
        <time>2010-06-13T08:28:05Z</time>
      </trkpt>
      <trkpt lat="45.911659961566329" lon="9.056022008880973">
        <ele>974</ele>
        <time>2010-06-13T08:28:06Z</time>
      </trkpt>
      <trkpt lat="45.911650992929935" lon="9.056022008880973">
        <ele>974</ele>
        <time>2010-06-13T08:28:07Z</time>
      </trkpt>
      <trkpt lat="45.911642024293542" lon="9.056009016931057">
        <ele>974</ele>
        <time>2010-06-13T08:28:08Z</time>
      </trkpt>
      <trkpt lat="45.911642024293542" lon="9.055996024981141">
        <ele>975</ele>
        <time>2010-06-13T08:28:09Z</time>
      </trkpt>
      <trkpt lat="45.911632971838117" lon="9.055996024981141">
        <ele>974</ele>
        <time>2010-06-13T08:28:10Z</time>
      </trkpt>
      <trkpt lat="45.911624003201723" lon="9.055983033031225">
        <ele>975</ele>
        <time>2010-06-13T08:28:11Z</time>
      </trkpt>
      <trkpt lat="45.911624003201723" lon="9.055970041081309">
        <ele>975</ele>
        <time>2010-06-13T08:28:12Z</time>
      </trkpt>
      <trkpt lat="45.91161503456533" lon="9.055970041081309">
        <ele>975</ele>
        <time>2010-06-13T08:28:13Z</time>
      </trkpt>
      <trkpt lat="45.911605982109904" lon="9.055956965312362">
        <ele>975</ele>
        <time>2010-06-13T08:28:14Z</time>
      </trkpt>
      <trkpt lat="45.911597013473511" lon="9.055956965312362">
        <ele>975</ele>
        <time>2010-06-13T08:28:15Z</time>
      </trkpt>
      <trkpt lat="45.911587961018085" lon="9.055943973362446">
        <ele>975</ele>
        <time>2010-06-13T08:28:17Z</time>
      </trkpt>
      <trkpt lat="45.911597013473511" lon="9.055943973362446">
        <ele>976</ele>
        <time>2010-06-13T08:28:18Z</time>
      </trkpt>
      <trkpt lat="45.911866994574666" lon="9.056060984730721">
        <ele>978</ele>
        <time>2010-06-13T08:28:50Z</time>
      </trkpt>
      <trkpt lat="45.91187596321106" lon="9.056060984730721">
        <ele>978</ele>
        <time>2010-06-13T08:28:51Z</time>
      </trkpt>
      <trkpt lat="45.911893984302878" lon="9.056060984730721">
        <ele>978</ele>
        <time>2010-06-13T08:28:52Z</time>
      </trkpt>
      <trkpt lat="45.911893984302878" lon="9.056047992780805">
        <ele>978</ele>
        <time>2010-06-13T08:28:53Z</time>
      </trkpt>
      <trkpt lat="45.91215499676764" lon="9.056138014420867">
        <ele>980</ele>
        <time>2010-06-13T08:29:47Z</time>
      </trkpt>
      <trkpt lat="45.912163965404034" lon="9.056138014420867">
        <ele>981</ele>
        <time>2010-06-13T08:29:48Z</time>
      </trkpt>
      <trkpt lat="45.912173017859459" lon="9.056138014420867">
        <ele>981</ele>
        <time>2010-06-13T08:29:50Z</time>
      </trkpt>
      <trkpt lat="45.912200007587671" lon="9.056138014420867">
        <ele>980</ele>
        <time>2010-06-13T08:29:53Z</time>
      </trkpt>
      <trkpt lat="45.912208976224065" lon="9.056138014420867">
        <ele>980</ele>
        <time>2010-06-13T08:29:54Z</time>
      </trkpt>
      <trkpt lat="45.912226997315884" lon="9.056151006370783">
        <ele>981</ele>
        <time>2010-06-13T08:29:56Z</time>
      </trkpt>
      <trkpt lat="45.912245018407702" lon="9.056151006370783">
        <ele>981</ele>
        <time>2010-06-13T08:29:57Z</time>
      </trkpt>
      <trkpt lat="45.912253987044096" lon="9.056151006370783">
        <ele>981</ele>
        <time>2010-06-13T08:29:58Z</time>
      </trkpt>
      <trkpt lat="45.912280976772308" lon="9.056151006370783">
        <ele>982</ele>
        <time>2010-06-13T08:30:00Z</time>
      </trkpt>
      <trkpt lat="45.912290029227734" lon="9.056163998320699">
        <ele>982</ele>
        <time>2010-06-13T08:30:02Z</time>
      </trkpt>
      <trkpt lat="45.912317018955946" lon="9.056163998320699">
        <ele>982</ele>
        <time>2010-06-13T08:30:03Z</time>
      </trkpt>
      <trkpt lat="45.912317018955946" lon="9.056163998320699">
        <ele>982</ele>
        <time>2010-06-13T08:30:04Z</time>
      </trkpt>
      <trkpt lat="45.912335040047765" lon="9.056163998320699">
        <ele>982</ele>
        <time>2010-06-13T08:30:05Z</time>
      </trkpt>
      <trkpt lat="45.912344008684158" lon="9.056163998320699">
        <ele>982</ele>
        <time>2010-06-13T08:30:06Z</time>
      </trkpt>
      <trkpt lat="45.912344008684158" lon="9.056176990270615">
        <ele>983</ele>
        <time>2010-06-13T08:30:07Z</time>
      </trkpt>
      <trkpt lat="45.912352977320552" lon="9.056189982220531">
        <ele>983</ele>
        <time>2010-06-13T08:30:08Z</time>
      </trkpt>
      <trkpt lat="45.912370998412371" lon="9.056189982220531">
        <ele>983</ele>
        <time>2010-06-13T08:30:09Z</time>
      </trkpt>
      <trkpt lat="45.912379967048764" lon="9.056189982220531">
        <ele>982</ele>
        <time>2010-06-13T08:30:10Z</time>
      </trkpt>
      <trkpt lat="45.912389019504189" lon="9.056202974170446">
        <ele>982</ele>
        <time>2010-06-13T08:30:11Z</time>
      </trkpt>
      <trkpt lat="45.912397988140583" lon="9.056215966120362">
        <ele>983</ele>
        <time>2010-06-13T08:30:12Z</time>
      </trkpt>
      <trkpt lat="45.912397988140583" lon="9.05622904188931">
        <ele>983</ele>
        <time>2010-06-13T08:30:13Z</time>
      </trkpt>
      <trkpt lat="45.912407040596008" lon="9.05622904188931">
        <ele>983</ele>
        <time>2010-06-13T08:30:14Z</time>
      </trkpt>
      <trkpt lat="45.912416009232402" lon="9.056242033839226">
        <ele>983</ele>
        <time>2010-06-13T08:30:15Z</time>
      </trkpt>
      <trkpt lat="45.912424977868795" lon="9.056254019960761">
        <ele>983</ele>
        <time>2010-06-13T08:30:16Z</time>
      </trkpt>
      <trkpt lat="45.912434030324221" lon="9.056267011910677">
        <ele>983</ele>
        <time>2010-06-13T08:30:18Z</time>
      </trkpt>
      <trkpt lat="45.912442998960614" lon="9.056280003860593">
        <ele>983</ele>
        <time>2010-06-13T08:30:19Z</time>
      </trkpt>
      <trkpt lat="45.912451967597008" lon="9.056292995810509">
        <ele>983</ele>
        <time>2010-06-13T08:30:20Z</time>
      </trkpt>
      <trkpt lat="45.912461020052433" lon="9.056305987760425">
        <ele>983</ele>
        <time>2010-06-13T08:30:21Z</time>
      </trkpt>
      <trkpt lat="45.912469988688827" lon="9.056305987760425">
        <ele>984</ele>
        <time>2010-06-13T08:30:22Z</time>
      </trkpt>
      <trkpt lat="45.912469988688827" lon="9.056318979710341">
        <ele>984</ele>
        <time>2010-06-13T08:30:23Z</time>
      </trkpt>
      <trkpt lat="45.912479041144252" lon="9.056331971660256">
        <ele>984</ele>
        <time>2010-06-13T08:30:24Z</time>
      </trkpt>
      <trkpt lat="45.912488009780645" lon="9.056331971660256">
        <ele>984</ele>
        <time>2010-06-13T08:30:25Z</time>
      </trkpt>
      <trkpt lat="45.912496978417039" lon="9.056344963610172">
        <ele>984</ele>
        <time>2010-06-13T08:30:26Z</time>
      </trkpt>
      <trkpt lat="45.912506030872464" lon="9.056344963610172">
        <ele>984</ele>
        <time>2010-06-13T08:30:27Z</time>
      </trkpt>
      <trkpt lat="45.912523968145251" lon="9.056331971660256">
        <ele>984</ele>
        <time>2010-06-13T08:30:28Z</time>
      </trkpt>
      <trkpt lat="45.912533020600677" lon="9.056344963610172">
        <ele>984</ele>
        <time>2010-06-13T08:30:29Z</time>
      </trkpt>
      <trkpt lat="45.91254198923707" lon="9.056344963610172">
        <ele>985</ele>
        <time>2010-06-13T08:30:30Z</time>
      </trkpt>
      <trkpt lat="45.91254198923707" lon="9.05635803937912">
        <ele>985</ele>
        <time>2010-06-13T08:30:31Z</time>
      </trkpt>
      <trkpt lat="45.912551041692495" lon="9.05635803937912">
        <ele>985</ele>
        <time>2010-06-13T08:30:32Z</time>
      </trkpt>
      <trkpt lat="45.912568978965282" lon="9.056371031329036">
        <ele>985</ele>
        <time>2010-06-13T08:30:33Z</time>
      </trkpt>
      <trkpt lat="45.912595968693495" lon="9.056371031329036">
        <ele>985</ele>
        <time>2010-06-13T08:30:35Z</time>
      </trkpt>
      <trkpt lat="45.912613989785314" lon="9.056371031329036">
        <ele>985</ele>
        <time>2010-06-13T08:30:36Z</time>
      </trkpt>
      <trkpt lat="45.912622958421707" lon="9.056371031329036">
        <ele>985</ele>
        <time>2010-06-13T08:30:37Z</time>
      </trkpt>
      <trkpt lat="45.912632010877132" lon="9.056384023278952">
        <ele>986</ele>
        <time>2010-06-13T08:30:38Z</time>
      </trkpt>
      <trkpt lat="45.912632010877132" lon="9.056397015228868">
        <ele>986</ele>
        <time>2010-06-13T08:30:39Z</time>
      </trkpt>
      <trkpt lat="45.912640979513526" lon="9.056397015228868">
        <ele>986</ele>
        <time>2010-06-13T08:30:40Z</time>
      </trkpt>
      <trkpt lat="45.912650031968951" lon="9.056409001350403">
        <ele>985</ele>
        <time>2010-06-13T08:30:41Z</time>
      </trkpt>
      <trkpt lat="45.912659000605345" lon="9.056421993300319">
        <ele>986</ele>
        <time>2010-06-13T08:30:42Z</time>
      </trkpt>
      <trkpt lat="45.912667969241738" lon="9.056422999128699">
        <ele>986</ele>
        <time>2010-06-13T08:30:43Z</time>
      </trkpt>
      <trkpt lat="45.912685990333557" lon="9.056434985250235">
        <ele>987</ele>
        <time>2010-06-13T08:30:45Z</time>
      </trkpt>
      <trkpt lat="45.912694958969951" lon="9.056447977200151">
        <ele>986</ele>
        <time>2010-06-13T08:30:46Z</time>
      </trkpt>
      <trkpt lat="45.912694958969951" lon="9.056460969150066">
        <ele>986</ele>
        <time>2010-06-13T08:30:47Z</time>
      </trkpt>
      <trkpt lat="45.912704011425376" lon="9.056460969150066">
        <ele>986</ele>
        <time>2010-06-13T08:30:48Z</time>
      </trkpt>
      <trkpt lat="45.912712980061769" lon="9.056473961099982">
        <ele>987</ele>
        <time>2010-06-13T08:30:49Z</time>
      </trkpt>
      <trkpt lat="45.912722032517195" lon="9.05648703686893">
        <ele>987</ele>
        <time>2010-06-13T08:30:50Z</time>
      </trkpt>
      <trkpt lat="45.912722032517195" lon="9.056500028818846">
        <ele>987</ele>
        <time>2010-06-13T08:30:51Z</time>
      </trkpt>
      <trkpt lat="45.912739969789982" lon="9.056513020768762">
        <ele>987</ele>
        <time>2010-06-13T08:30:52Z</time>
      </trkpt>
      <trkpt lat="45.912739969789982" lon="9.056526012718678">
        <ele>987</ele>
        <time>2010-06-13T08:30:53Z</time>
      </trkpt>
      <trkpt lat="45.912757990881801" lon="9.056539004668593">
        <ele>987</ele>
        <time>2010-06-13T08:30:54Z</time>
      </trkpt>
      <trkpt lat="45.912766959518194" lon="9.056539004668593">
        <ele>988</ele>
        <time>2010-06-13T08:30:55Z</time>
      </trkpt>
      <trkpt lat="45.912776011973619" lon="9.056550990790129">
        <ele>988</ele>
        <time>2010-06-13T08:30:56Z</time>
      </trkpt>
      <trkpt lat="45.912794033065438" lon="9.056550990790129">
        <ele>988</ele>
        <time>2010-06-13T08:30:57Z</time>
      </trkpt>
      <trkpt lat="45.912811970338225" lon="9.056550990790129">
        <ele>988</ele>
        <time>2010-06-13T08:30:59Z</time>
      </trkpt>
      <trkpt lat="45.912821022793651" lon="9.056563982740045">
        <ele>988</ele>
        <time>2010-06-13T08:31:00Z</time>
      </trkpt>
      <trkpt lat="45.912829991430044" lon="9.056576974689961">
        <ele>988</ele>
        <time>2010-06-13T08:31:01Z</time>
      </trkpt>
      <trkpt lat="45.912838960066438" lon="9.056576974689961">
        <ele>988</ele>
        <time>2010-06-13T08:31:02Z</time>
      </trkpt>
      <trkpt lat="45.912856981158257" lon="9.056589966639876">
        <ele>988</ele>
        <time>2010-06-13T08:31:03Z</time>
      </trkpt>
      <trkpt lat="45.912866033613682" lon="9.056602958589792">
        <ele>988</ele>
        <time>2010-06-13T08:31:04Z</time>
      </trkpt>
      <trkpt lat="45.912875002250075" lon="9.05661603435874">
        <ele>989</ele>
        <time>2010-06-13T08:31:05Z</time>
      </trkpt>
      <trkpt lat="45.912883970886469" lon="9.05661603435874">
        <ele>989</ele>
        <time>2010-06-13T08:31:06Z</time>
      </trkpt>
      <trkpt lat="45.912883970886469" lon="9.056629026308656">
        <ele>989</ele>
        <time>2010-06-13T08:31:07Z</time>
      </trkpt>
      <trkpt lat="45.912893023341894" lon="9.056642018258572">
        <ele>989</ele>
        <time>2010-06-13T08:31:08Z</time>
      </trkpt>
      <trkpt lat="45.912901991978288" lon="9.056642018258572">
        <ele>989</ele>
        <time>2010-06-13T08:31:09Z</time>
      </trkpt>
      <trkpt lat="45.912910960614681" lon="9.056655010208488">
        <ele>989</ele>
        <time>2010-06-13T08:31:10Z</time>
      </trkpt>
      <trkpt lat="45.912920013070107" lon="9.056666996330023">
        <ele>989</ele>
        <time>2010-06-13T08:31:11Z</time>
      </trkpt>
      <trkpt lat="45.9129289817065" lon="9.056666996330023">
        <ele>989</ele>
        <time>2010-06-13T08:31:12Z</time>
      </trkpt>
      <trkpt lat="45.9129289817065" lon="9.056692980229855">
        <ele>990</ele>
        <time>2010-06-13T08:31:13Z</time>
      </trkpt>
      <trkpt lat="45.912938034161925" lon="9.056705972179771">
        <ele>989</ele>
        <time>2010-06-13T08:31:14Z</time>
      </trkpt>
      <trkpt lat="45.912947002798319" lon="9.056705972179771">
        <ele>989</ele>
        <time>2010-06-13T08:31:15Z</time>
      </trkpt>
      <trkpt lat="45.912955971434712" lon="9.056718964129686">
        <ele>990</ele>
        <time>2010-06-13T08:31:16Z</time>
      </trkpt>
      <trkpt lat="45.912965023890138" lon="9.056732039898634">
        <ele>990</ele>
        <time>2010-06-13T08:31:17Z</time>
      </trkpt>
      <trkpt lat="45.912973992526531" lon="9.056732039898634">
        <ele>990</ele>
        <time>2010-06-13T08:31:18Z</time>
      </trkpt>
      <trkpt lat="45.912973992526531" lon="9.05674503184855">
        <ele>990</ele>
        <time>2010-06-13T08:31:19Z</time>
      </trkpt>
      <trkpt lat="45.912982961162925" lon="9.056758023798466">
        <ele>990</ele>
        <time>2010-06-13T08:31:20Z</time>
      </trkpt>
      <trkpt lat="45.912982961162925" lon="9.056771015748382">
        <ele>990</ele>
        <time>2010-06-13T08:31:21Z</time>
      </trkpt>
      <trkpt lat="45.91299201361835" lon="9.056771015748382">
        <ele>990</ele>
        <time>2010-06-13T08:31:22Z</time>
      </trkpt>
      <trkpt lat="45.913000982254744" lon="9.056784007698298">
        <ele>990</ele>
        <time>2010-06-13T08:31:23Z</time>
      </trkpt>
      <trkpt lat="45.913010034710169" lon="9.056796999648213">
        <ele>990</ele>
        <time>2010-06-13T08:31:24Z</time>
      </trkpt>
      <trkpt lat="45.913019003346562" lon="9.056808985769749">
        <ele>991</ele>
        <time>2010-06-13T08:31:25Z</time>
      </trkpt>
      <trkpt lat="45.913019003346562" lon="9.056821977719665">
        <ele>991</ele>
        <time>2010-06-13T08:31:26Z</time>
      </trkpt>
      <trkpt lat="45.913027971982956" lon="9.056821977719665">
        <ele>991</ele>
        <time>2010-06-13T08:31:27Z</time>
      </trkpt>
      <trkpt lat="45.913045993074775" lon="9.056834969669581">
        <ele>991</ele>
        <time>2010-06-13T08:31:28Z</time>
      </trkpt>
      <trkpt lat="45.913054961711168" lon="9.056834969669581">
        <ele>992</ele>
        <time>2010-06-13T08:31:29Z</time>
      </trkpt>
      <trkpt lat="45.913064014166594" lon="9.056834969669581">
        <ele>992</ele>
        <time>2010-06-13T08:31:31Z</time>
      </trkpt>
      <trkpt lat="45.913091003894806" lon="9.056847961619496">
        <ele>991</ele>
        <time>2010-06-13T08:31:32Z</time>
      </trkpt>
      <trkpt lat="45.913099972531199" lon="9.056861037388444">
        <ele>991</ele>
        <time>2010-06-13T08:31:33Z</time>
      </trkpt>
      <trkpt lat="45.913109024986625" lon="9.056861037388444">
        <ele>991</ele>
        <time>2010-06-13T08:31:34Z</time>
      </trkpt>
      <trkpt lat="45.913117993623018" lon="9.05687402933836">
        <ele>991</ele>
        <time>2010-06-13T08:31:35Z</time>
      </trkpt>
      <trkpt lat="45.913126962259412" lon="9.056887021288276">
        <ele>992</ele>
        <time>2010-06-13T08:31:37Z</time>
      </trkpt>
      <trkpt lat="45.913144983351231" lon="9.056900013238192">
        <ele>992</ele>
        <time>2010-06-13T08:31:38Z</time>
      </trkpt>
      <trkpt lat="45.913154035806656" lon="9.056913005188108">
        <ele>992</ele>
        <time>2010-06-13T08:31:39Z</time>
      </trkpt>
      <trkpt lat="45.913171973079443" lon="9.056913005188108">
        <ele>992</ele>
        <time>2010-06-13T08:31:40Z</time>
      </trkpt>
      <trkpt lat="45.913181025534868" lon="9.056925997138023">
        <ele>992</ele>
        <time>2010-06-13T08:31:41Z</time>
      </trkpt>
      <trkpt lat="45.913189994171262" lon="9.056925997138023">
        <ele>992</ele>
        <time>2010-06-13T08:31:42Z</time>
      </trkpt>
      <trkpt lat="45.913198962807655" lon="9.056925997138023">
        <ele>992</ele>
        <time>2010-06-13T08:31:43Z</time>
      </trkpt>
      <trkpt lat="45.913208015263081" lon="9.056938989087939">
        <ele>993</ele>
        <time>2010-06-13T08:31:44Z</time>
      </trkpt>
      <trkpt lat="45.913226036354899" lon="9.056938989087939">
        <ele>993</ele>
        <time>2010-06-13T08:31:45Z</time>
      </trkpt>
      <trkpt lat="45.913235004991293" lon="9.056951981037855">
        <ele>993</ele>
        <time>2010-06-13T08:31:46Z</time>
      </trkpt>
      <trkpt lat="45.913243973627687" lon="9.056951981037855">
        <ele>993</ele>
        <time>2010-06-13T08:31:47Z</time>
      </trkpt>
      <trkpt lat="45.913261994719505" lon="9.05696396715939">
        <ele>993</ele>
        <time>2010-06-13T08:31:48Z</time>
      </trkpt>
      <trkpt lat="45.913270963355899" lon="9.05696396715939">
        <ele>993</ele>
        <time>2010-06-13T08:31:49Z</time>
      </trkpt>
      <trkpt lat="45.913280015811324" lon="9.056976959109306">
        <ele>994</ele>
        <time>2010-06-13T08:31:50Z</time>
      </trkpt>
      <trkpt lat="45.913288984447718" lon="9.056990034878254">
        <ele>994</ele>
        <time>2010-06-13T08:31:51Z</time>
      </trkpt>
      <trkpt lat="45.913288984447718" lon="9.056990034878254">
        <ele>994</ele>
        <time>2010-06-13T08:31:52Z</time>
      </trkpt>
      <trkpt lat="45.913307005539536" lon="9.056990034878254">
        <ele>994</ele>
        <time>2010-06-13T08:31:53Z</time>
      </trkpt>
      <trkpt lat="45.913307005539536" lon="9.05700302682817">
        <ele>994</ele>
        <time>2010-06-13T08:31:54Z</time>
      </trkpt>
      <trkpt lat="45.91331597417593" lon="9.057016018778086">
        <ele>994</ele>
        <time>2010-06-13T08:31:55Z</time>
      </trkpt>
      <trkpt lat="45.913325026631355" lon="9.057016018778086">
        <ele>994</ele>
        <time>2010-06-13T08:31:56Z</time>
      </trkpt>
      <trkpt lat="45.913325026631355" lon="9.057029010728002">
        <ele>994</ele>
        <time>2010-06-13T08:31:57Z</time>
      </trkpt>
      <trkpt lat="45.913333995267749" lon="9.057042002677918">
        <ele>994</ele>
        <time>2010-06-13T08:31:58Z</time>
      </trkpt>
      <trkpt lat="45.913342963904142" lon="9.057042002677918">
        <ele>994</ele>
        <time>2010-06-13T08:31:59Z</time>
      </trkpt>
      <trkpt lat="45.913352016359568" lon="9.057042002677918">
        <ele>994</ele>
        <time>2010-06-13T08:32:00Z</time>
      </trkpt>
      <trkpt lat="45.913360984995961" lon="9.057054994627833">
        <ele>994</ele>
        <time>2010-06-13T08:32:01Z</time>
      </trkpt>
      <trkpt lat="45.913370037451386" lon="9.057067986577749">
        <ele>995</ele>
        <time>2010-06-13T08:32:02Z</time>
      </trkpt>
      <trkpt lat="45.91337900608778" lon="9.057067986577749">
        <ele>995</ele>
        <time>2010-06-13T08:32:03Z</time>
      </trkpt>
      <trkpt lat="45.913387974724174" lon="9.057080978527665">
        <ele>995</ele>
        <time>2010-06-13T08:32:04Z</time>
      </trkpt>
      <trkpt lat="45.913405995815992" lon="9.057080978527665">
        <ele>995</ele>
        <time>2010-06-13T08:32:05Z</time>
      </trkpt>
      <trkpt lat="45.913414964452386" lon="9.057080978527665">
        <ele>995</ele>
        <time>2010-06-13T08:32:06Z</time>
      </trkpt>
      <trkpt lat="45.913414964452386" lon="9.057093970477581">
        <ele>995</ele>
        <time>2010-06-13T08:32:07Z</time>
      </trkpt>
      <trkpt lat="45.913424016907811" lon="9.057106040418148">
        <ele>995</ele>
        <time>2010-06-13T08:32:08Z</time>
      </trkpt>
      <trkpt lat="45.913424016907811" lon="9.057119032368064">
        <ele>995</ele>
        <time>2010-06-13T08:32:09Z</time>
      </trkpt>
      <trkpt lat="45.913432985544205" lon="9.05713202431798">
        <ele>996</ele>
        <time>2010-06-13T08:32:10Z</time>
      </trkpt>
      <trkpt lat="45.913459975272417" lon="9.057145016267896">
        <ele>996</ele>
        <time>2010-06-13T08:32:12Z</time>
      </trkpt>
      <trkpt lat="45.913469027727842" lon="9.057158008217812">
        <ele>996</ele>
        <time>2010-06-13T08:32:13Z</time>
      </trkpt>
      <trkpt lat="45.913476990535855" lon="9.057171000167728">
        <ele>996</ele>
        <time>2010-06-13T08:32:14Z</time>
      </trkpt>
      <trkpt lat="45.913486965000629" lon="9.057183992117643">
        <ele>996</ele>
        <time>2010-06-13T08:32:15Z</time>
      </trkpt>
      <trkpt lat="45.913496017456055" lon="9.057196984067559">
        <ele>996</ele>
        <time>2010-06-13T08:32:16Z</time>
      </trkpt>
      <trkpt lat="45.913504986092448" lon="9.057209976017475">
        <ele>996</ele>
        <time>2010-06-13T08:32:17Z</time>
      </trkpt>
      <trkpt lat="45.913522001355886" lon="9.057222967967391">
        <ele>997</ele>
        <time>2010-06-13T08:32:18Z</time>
      </trkpt>
      <trkpt lat="45.913531975820661" lon="9.057235959917307">
        <ele>998</ele>
        <time>2010-06-13T08:32:19Z</time>
      </trkpt>
      <trkpt lat="45.913541028276086" lon="9.057235959917307">
        <ele>998</ele>
        <time>2010-06-13T08:32:20Z</time>
      </trkpt>
      <trkpt lat="45.913541028276086" lon="9.057249035686255">
        <ele>997</ele>
        <time>2010-06-13T08:32:21Z</time>
      </trkpt>
      <trkpt lat="45.913558965548873" lon="9.05726102180779">
        <ele>997</ele>
        <time>2010-06-13T08:32:22Z</time>
      </trkpt>
      <trkpt lat="45.913567012175918" lon="9.057274013757706">
        <ele>997</ele>
        <time>2010-06-13T08:32:23Z</time>
      </trkpt>
      <trkpt lat="45.913567012175918" lon="9.057287005707622">
        <ele>997</ele>
        <time>2010-06-13T08:32:24Z</time>
      </trkpt>
      <trkpt lat="45.913576986640692" lon="9.057299997657538">
        <ele>997</ele>
        <time>2010-06-13T08:32:25Z</time>
      </trkpt>
      <trkpt lat="45.913586039096117" lon="9.057299997657538">
        <ele>998</ele>
        <time>2010-06-13T08:32:26Z</time>
      </trkpt>
      <trkpt lat="45.91359400190413" lon="9.057312989607453">
        <ele>998</ele>
        <time>2010-06-13T08:32:27Z</time>
      </trkpt>
      <trkpt lat="45.91359400190413" lon="9.057325981557369">
        <ele>998</ele>
        <time>2010-06-13T08:32:28Z</time>
      </trkpt>
      <trkpt lat="45.913612022995949" lon="9.057325981557369">
        <ele>998</ele>
        <time>2010-06-13T08:32:29Z</time>
      </trkpt>
      <trkpt lat="45.913621997460723" lon="9.057338973507285">
        <ele>998</ele>
        <time>2010-06-13T08:32:30Z</time>
      </trkpt>
      <trkpt lat="45.913630966097116" lon="9.057351965457201">
        <ele>998</ele>
        <time>2010-06-13T08:32:31Z</time>
      </trkpt>
      <trkpt lat="45.913639012724161" lon="9.057365041226149">
        <ele>998</ele>
        <time>2010-06-13T08:32:32Z</time>
      </trkpt>
      <trkpt lat="45.913639012724161" lon="9.057377027347684">
        <ele>998</ele>
        <time>2010-06-13T08:32:33Z</time>
      </trkpt>
      <trkpt lat="45.913648987188935" lon="9.057377027347684">
        <ele>998</ele>
        <time>2010-06-13T08:32:34Z</time>
      </trkpt>
      <trkpt lat="45.91365703381598" lon="9.05739102512598">
        <ele>999</ele>
        <time>2010-06-13T08:32:35Z</time>
      </trkpt>
      <trkpt lat="45.913667008280754" lon="9.05739102512598">
        <ele>999</ele>
        <time>2010-06-13T08:32:36Z</time>
      </trkpt>
      <trkpt lat="45.913675976917148" lon="9.05739102512598">
        <ele>998</ele>
        <time>2010-06-13T08:32:37Z</time>
      </trkpt>
      <trkpt lat="45.913684023544192" lon="9.057403011247516">
        <ele>999</ele>
        <time>2010-06-13T08:32:38Z</time>
      </trkpt>
      <trkpt lat="45.913693998008966" lon="9.057403011247516">
        <ele>999</ele>
        <time>2010-06-13T08:32:39Z</time>
      </trkpt>
      <trkpt lat="45.913701960816979" lon="9.057416003197432">
        <ele>999</ele>
        <time>2010-06-13T08:32:40Z</time>
      </trkpt>
      <trkpt lat="45.913712019100785" lon="9.057416003197432">
        <ele>999</ele>
        <time>2010-06-13T08:32:41Z</time>
      </trkpt>
      <trkpt lat="45.913729034364223" lon="9.057416003197432">
        <ele>999</ele>
        <time>2010-06-13T08:32:42Z</time>
      </trkpt>
      <trkpt lat="45.913739008828998" lon="9.057428995147348">
        <ele>1000</ele>
        <time>2010-06-13T08:32:43Z</time>
      </trkpt>
      <trkpt lat="45.913746971637011" lon="9.057428995147348">
        <ele>999</ele>
        <time>2010-06-13T08:32:44Z</time>
      </trkpt>
      <trkpt lat="45.913756024092436" lon="9.057441987097263">
        <ele>999</ele>
        <time>2010-06-13T08:32:45Z</time>
      </trkpt>
      <trkpt lat="45.91376599855721" lon="9.057441987097263">
        <ele>1000</ele>
        <time>2010-06-13T08:32:46Z</time>
      </trkpt>
      <trkpt lat="45.913773961365223" lon="9.057454979047179">
        <ele>1000</ele>
        <time>2010-06-13T08:32:47Z</time>
      </trkpt>
      <trkpt lat="45.913792988285422" lon="9.057454979047179">
        <ele>1000</ele>
        <time>2010-06-13T08:32:48Z</time>
      </trkpt>
      <trkpt lat="45.913801034912467" lon="9.057467970997095">
        <ele>1000</ele>
        <time>2010-06-13T08:32:49Z</time>
      </trkpt>
      <trkpt lat="45.913811009377241" lon="9.057480962947011">
        <ele>1000</ele>
        <time>2010-06-13T08:32:50Z</time>
      </trkpt>
      <trkpt lat="45.913818972185254" lon="9.057480962947011">
        <ele>1000</ele>
        <time>2010-06-13T08:32:51Z</time>
      </trkpt>
      <trkpt lat="45.91382903046906" lon="9.057494038715959">
        <ele>1000</ele>
        <time>2010-06-13T08:32:52Z</time>
      </trkpt>
      <trkpt lat="45.913837999105453" lon="9.057494038715959">
        <ele>1001</ele>
        <time>2010-06-13T08:32:53Z</time>
      </trkpt>
      <trkpt lat="45.913856020197272" lon="9.057494038715959">
        <ele>1001</ele>
        <time>2010-06-13T08:32:54Z</time>
      </trkpt>
      <trkpt lat="45.914007984101772" lon="9.057583976536989">
        <ele>1003</ele>
        <time>2010-06-13T08:33:08Z</time>
      </trkpt>
      <trkpt lat="45.914017958566546" lon="9.057596968486905">
        <ele>1003</ele>
        <time>2010-06-13T08:33:09Z</time>
      </trkpt>
      <trkpt lat="45.914026005193591" lon="9.057609960436821">
        <ele>1003</ele>
        <time>2010-06-13T08:33:10Z</time>
      </trkpt>
      <trkpt lat="45.914035979658365" lon="9.057623036205769">
        <ele>1003</ele>
        <time>2010-06-13T08:33:11Z</time>
      </trkpt>
      <trkpt lat="45.91404402628541" lon="9.057636028155685">
        <ele>1003</ele>
        <time>2010-06-13T08:33:12Z</time>
      </trkpt>
      <trkpt lat="45.914052994921803" lon="9.0576490201056">
        <ele>1003</ele>
        <time>2010-06-13T08:33:13Z</time>
      </trkpt>
      <trkpt lat="45.914062969386578" lon="9.057662012055516">
        <ele>1003</ele>
        <time>2010-06-13T08:33:14Z</time>
      </trkpt>
      <trkpt lat="45.914062969386578" lon="9.057673998177052">
        <ele>1003</ele>
        <time>2010-06-13T08:33:15Z</time>
      </trkpt>
      <trkpt lat="45.914071016013622" lon="9.057687995955348">
        <ele>1003</ele>
        <time>2010-06-13T08:33:16Z</time>
      </trkpt>
      <trkpt lat="45.914079984650016" lon="9.057699982076883">
        <ele>1004</ele>
        <time>2010-06-13T08:33:17Z</time>
      </trkpt>
      <trkpt lat="45.914079984650016" lon="9.057712974026799">
        <ele>1004</ele>
        <time>2010-06-13T08:33:18Z</time>
      </trkpt>
      <trkpt lat="45.914089037105441" lon="9.057725965976715">
        <ele>1005</ele>
        <time>2010-06-13T08:33:19Z</time>
      </trkpt>
      <trkpt lat="45.914089037105441" lon="9.057739041745663">
        <ele>1005</ele>
        <time>2010-06-13T08:33:20Z</time>
      </trkpt>
      <trkpt lat="45.914098005741835" lon="9.057752033695579">
        <ele>1004</ele>
        <time>2010-06-13T08:33:21Z</time>
      </trkpt>
      <trkpt lat="45.914107980206609" lon="9.057752033695579">
        <ele>1004</ele>
        <time>2010-06-13T08:33:22Z</time>
      </trkpt>
      <trkpt lat="45.914107980206609" lon="9.057765025645495">
        <ele>1004</ele>
        <time>2010-06-13T08:33:23Z</time>
      </trkpt>
      <trkpt lat="45.914107980206609" lon="9.05777801759541">
        <ele>1004</ele>
        <time>2010-06-13T08:33:24Z</time>
      </trkpt>
      <trkpt lat="45.914116026833653" lon="9.057791009545326">
        <ele>1005</ele>
        <time>2010-06-13T08:33:25Z</time>
      </trkpt>
      <trkpt lat="45.914124995470047" lon="9.057804001495242">
        <ele>1004</ele>
        <time>2010-06-13T08:33:26Z</time>
      </trkpt>
      <trkpt lat="45.914124995470047" lon="9.057815987616777">
        <ele>1004</ele>
        <time>2010-06-13T08:33:27Z</time>
      </trkpt>
      <trkpt lat="45.914133964106441" lon="9.057828979566693">
        <ele>1004</ele>
        <time>2010-06-13T08:33:28Z</time>
      </trkpt>
      <trkpt lat="45.914133964106441" lon="9.057841971516609">
        <ele>1005</ele>
        <time>2010-06-13T08:33:29Z</time>
      </trkpt>
      <trkpt lat="45.914143016561866" lon="9.057854963466525">
        <ele>1004</ele>
        <time>2010-06-13T08:33:30Z</time>
      </trkpt>
      <trkpt lat="45.914151985198259" lon="9.057868039235473">
        <ele>1005</ele>
        <time>2010-06-13T08:33:31Z</time>
      </trkpt>
      <trkpt lat="45.914161037653685" lon="9.057868039235473">
        <ele>1005</ele>
        <time>2010-06-13T08:33:32Z</time>
      </trkpt>
      <trkpt lat="45.914170006290078" lon="9.057881031185389">
        <ele>1006</ele>
        <time>2010-06-13T08:33:33Z</time>
      </trkpt>
      <trkpt lat="45.914178974926472" lon="9.057894023135305">
        <ele>1006</ele>
        <time>2010-06-13T08:33:34Z</time>
      </trkpt>
      <trkpt lat="45.914188027381897" lon="9.05790701508522">
        <ele>1006</ele>
        <time>2010-06-13T08:33:35Z</time>
      </trkpt>
      <trkpt lat="45.914196996018291" lon="9.05790701508522">
        <ele>1006</ele>
        <time>2010-06-13T08:33:36Z</time>
      </trkpt>
      <trkpt lat="45.914196996018291" lon="9.057920007035136">
        <ele>1006</ele>
        <time>2010-06-13T08:33:37Z</time>
      </trkpt>
      <trkpt lat="45.914205964654684" lon="9.057920007035136">
        <ele>1006</ele>
        <time>2010-06-13T08:33:38Z</time>
      </trkpt>
      <trkpt lat="45.914215017110109" lon="9.057931993156672">
        <ele>1006</ele>
        <time>2010-06-13T08:33:39Z</time>
      </trkpt>
      <trkpt lat="45.914223985746503" lon="9.057945990934968">
        <ele>1006</ele>
        <time>2010-06-13T08:33:40Z</time>
      </trkpt>
      <trkpt lat="45.914242006838322" lon="9.057945990934968">
        <ele>1006</ele>
        <time>2010-06-13T08:33:41Z</time>
      </trkpt>
      <trkpt lat="45.914242006838322" lon="9.057957977056503">
        <ele>1006</ele>
        <time>2010-06-13T08:33:42Z</time>
      </trkpt>
      <trkpt lat="45.91426002793014" lon="9.057970969006419">
        <ele>1006</ele>
        <time>2010-06-13T08:33:43Z</time>
      </trkpt>
      <trkpt lat="45.914268996566534" lon="9.057983960956335">
        <ele>1007</ele>
        <time>2010-06-13T08:33:44Z</time>
      </trkpt>
      <trkpt lat="45.914268996566534" lon="9.057997036725283">
        <ele>1006</ele>
        <time>2010-06-13T08:33:45Z</time>
      </trkpt>
      <trkpt lat="45.914287017658353" lon="9.058023020625114">
        <ele>1007</ele>
        <time>2010-06-13T08:33:47Z</time>
      </trkpt>
      <trkpt lat="45.914295986294746" lon="9.058023020625114">
        <ele>1007</ele>
        <time>2010-06-13T08:33:48Z</time>
      </trkpt>
      <trkpt lat="45.914305038750172" lon="9.05803601257503">
        <ele>1007</ele>
        <time>2010-06-13T08:33:49Z</time>
      </trkpt>
      <trkpt lat="45.914314007386565" lon="9.058049004524946">
        <ele>1007</ele>
        <time>2010-06-13T08:33:50Z</time>
      </trkpt>
      <trkpt lat="45.914314007386565" lon="9.058061996474862">
        <ele>1007</ele>
        <time>2010-06-13T08:33:51Z</time>
      </trkpt>
      <trkpt lat="45.914322976022959" lon="9.058061996474862">
        <ele>1007</ele>
        <time>2010-06-13T08:33:53Z</time>
      </trkpt>
      <trkpt lat="45.914340997114778" lon="9.058086974546313">
        <ele>1008</ele>
        <time>2010-06-13T08:33:54Z</time>
      </trkpt>
      <trkpt lat="45.914349965751171" lon="9.058086974546313">
        <ele>1008</ele>
        <time>2010-06-13T08:33:55Z</time>
      </trkpt>
      <trkpt lat="45.914359018206596" lon="9.058099966496229">
        <ele>1008</ele>
        <time>2010-06-13T08:33:56Z</time>
      </trkpt>
      <trkpt lat="45.91436798684299" lon="9.058112958446145">
        <ele>1008</ele>
        <time>2010-06-13T08:33:57Z</time>
      </trkpt>
      <trkpt lat="45.914377039298415" lon="9.058112958446145">
        <ele>1008</ele>
        <time>2010-06-13T08:33:58Z</time>
      </trkpt>
      <trkpt lat="45.914377039298415" lon="9.058126034215093">
        <ele>1008</ele>
        <time>2010-06-13T08:33:59Z</time>
      </trkpt>
      <trkpt lat="45.914386007934809" lon="9.058126034215093">
        <ele>1009</ele>
        <time>2010-06-13T08:34:00Z</time>
      </trkpt>
      <trkpt lat="45.914394976571202" lon="9.058139026165009">
        <ele>1008</ele>
        <time>2010-06-13T08:34:01Z</time>
      </trkpt>
      <trkpt lat="45.914404029026628" lon="9.058139026165009">
        <ele>1008</ele>
        <time>2010-06-13T08:34:02Z</time>
      </trkpt>
      <trkpt lat="45.914412997663021" lon="9.058152018114924">
        <ele>1008</ele>
        <time>2010-06-13T08:34:03Z</time>
      </trkpt>
      <trkpt lat="45.914421966299415" lon="9.05816501006484">
        <ele>1009</ele>
        <time>2010-06-13T08:34:04Z</time>
      </trkpt>
      <trkpt lat="45.91443101875484" lon="9.05816501006484">
        <ele>1009</ele>
        <time>2010-06-13T08:34:05Z</time>
      </trkpt>
      <trkpt lat="45.914439987391233" lon="9.058178002014756">
        <ele>1009</ele>
        <time>2010-06-13T08:34:06Z</time>
      </trkpt>
      <trkpt lat="45.914449039846659" lon="9.058178002014756">
        <ele>1009</ele>
        <time>2010-06-13T08:34:07Z</time>
      </trkpt>
      <trkpt lat="45.914458008483052" lon="9.058190993964672">
        <ele>1009</ele>
        <time>2010-06-13T08:34:08Z</time>
      </trkpt>
      <trkpt lat="45.914466977119446" lon="9.058203985914588">
        <ele>1009</ele>
        <time>2010-06-13T08:34:09Z</time>
      </trkpt>
      <trkpt lat="45.914476029574871" lon="9.058203985914588">
        <ele>1010</ele>
        <time>2010-06-13T08:34:10Z</time>
      </trkpt>
      <trkpt lat="45.914484998211265" lon="9.058216977864504">
        <ele>1010</ele>
        <time>2010-06-13T08:34:11Z</time>
      </trkpt>
      <trkpt lat="45.914493966847658" lon="9.058228963986039">
        <ele>1010</ele>
        <time>2010-06-13T08:34:12Z</time>
      </trkpt>
      <trkpt lat="45.914511987939477" lon="9.058228963986039">
        <ele>1010</ele>
        <time>2010-06-13T08:34:14Z</time>
      </trkpt>
      <trkpt lat="45.914530009031296" lon="9.058255031704903">
        <ele>1011</ele>
        <time>2010-06-13T08:34:15Z</time>
      </trkpt>
      <trkpt lat="45.914538977667689" lon="9.058255031704903">
        <ele>1011</ele>
        <time>2010-06-13T08:34:16Z</time>
      </trkpt>
      <trkpt lat="45.914556998759508" lon="9.058268023654819">
        <ele>1011</ele>
        <time>2010-06-13T08:34:17Z</time>
      </trkpt>
      <trkpt lat="45.914565967395902" lon="9.058281015604734">
        <ele>1012</ele>
        <time>2010-06-13T08:34:18Z</time>
      </trkpt>
      <trkpt lat="45.914575019851327" lon="9.058281015604734">
        <ele>1012</ele>
        <time>2010-06-13T08:34:19Z</time>
      </trkpt>
      <trkpt lat="45.91458398848772" lon="9.05829400755465">
        <ele>1012</ele>
        <time>2010-06-13T08:34:20Z</time>
      </trkpt>
      <trkpt lat="45.91458398848772" lon="9.058306999504566">
        <ele>1012</ele>
        <time>2010-06-13T08:34:21Z</time>
      </trkpt>
      <trkpt lat="45.914593040943146" lon="9.058306999504566">
        <ele>1012</ele>
        <time>2010-06-13T08:34:22Z</time>
      </trkpt>
      <trkpt lat="45.914602009579539" lon="9.058306999504566">
        <ele>1012</ele>
        <time>2010-06-13T08:34:23Z</time>
      </trkpt>
      <trkpt lat="45.914610978215933" lon="9.058319991454482">
        <ele>1012</ele>
        <time>2010-06-13T08:34:24Z</time>
      </trkpt>
      <trkpt lat="45.914620030671358" lon="9.058319991454482">
        <ele>1012</ele>
        <time>2010-06-13T08:34:25Z</time>
      </trkpt>
      <trkpt lat="45.914628999307752" lon="9.058332983404398">
        <ele>1012</ele>
        <time>2010-06-13T08:34:26Z</time>
      </trkpt>
      <trkpt lat="45.914637967944145" lon="9.058332983404398">
        <ele>1012</ele>
        <time>2010-06-13T08:34:27Z</time>
      </trkpt>
      <trkpt lat="45.91464702039957" lon="9.058345975354314">
        <ele>1012</ele>
        <time>2010-06-13T08:34:28Z</time>
      </trkpt>
      <trkpt lat="45.91464702039957" lon="9.058345975354314">
        <ele>1012</ele>
        <time>2010-06-13T08:34:29Z</time>
      </trkpt>
      <trkpt lat="45.914655989035964" lon="9.05835896730423">
        <ele>1012</ele>
        <time>2010-06-13T08:34:30Z</time>
      </trkpt>
      <trkpt lat="45.914665041491389" lon="9.05835896730423">
        <ele>1012</ele>
        <time>2010-06-13T08:34:31Z</time>
      </trkpt>
      <trkpt lat="45.914674010127783" lon="9.058371037244797">
        <ele>1012</ele>
        <time>2010-06-13T08:34:32Z</time>
      </trkpt>
      <trkpt lat="45.914682978764176" lon="9.058384029194713">
        <ele>1012</ele>
        <time>2010-06-13T08:34:33Z</time>
      </trkpt>
      <trkpt lat="45.914692031219602" lon="9.058397021144629">
        <ele>1013</ele>
        <time>2010-06-13T08:34:34Z</time>
      </trkpt>
      <trkpt lat="45.914700999855995" lon="9.058410013094544">
        <ele>1012</ele>
        <time>2010-06-13T08:34:35Z</time>
      </trkpt>
      <trkpt lat="45.914709968492389" lon="9.058410013094544">
        <ele>1012</ele>
        <time>2010-06-13T08:34:36Z</time>
      </trkpt>
      <trkpt lat="45.914719020947814" lon="9.05842300504446">
        <ele>1012</ele>
        <time>2010-06-13T08:34:37Z</time>
      </trkpt>
      <trkpt lat="45.914727989584208" lon="9.05842300504446">
        <ele>1012</ele>
        <time>2010-06-13T08:34:38Z</time>
      </trkpt>
      <trkpt lat="45.914736958220601" lon="9.058435996994376">
        <ele>1012</ele>
        <time>2010-06-13T08:34:39Z</time>
      </trkpt>
      <trkpt lat="45.914746010676026" lon="9.058448988944292">
        <ele>1013</ele>
        <time>2010-06-13T08:34:40Z</time>
      </trkpt>
      <trkpt lat="45.91475497931242" lon="9.058461980894208">
        <ele>1012</ele>
        <time>2010-06-13T08:34:41Z</time>
      </trkpt>
      <trkpt lat="45.914764031767845" lon="9.058461980894208">
        <ele>1013</ele>
        <time>2010-06-13T08:34:42Z</time>
      </trkpt>
      <trkpt lat="45.914773000404239" lon="9.058474972844124">
        <ele>1013</ele>
        <time>2010-06-13T08:34:43Z</time>
      </trkpt>
      <trkpt lat="45.914781969040632" lon="9.05848796479404">
        <ele>1013</ele>
        <time>2010-06-13T08:34:44Z</time>
      </trkpt>
      <trkpt lat="45.914781969040632" lon="9.05848796479404">
        <ele>1013</ele>
        <time>2010-06-13T08:34:45Z</time>
      </trkpt>
      <trkpt lat="45.914791021496058" lon="9.058501040562987">
        <ele>1013</ele>
        <time>2010-06-13T08:34:46Z</time>
      </trkpt>
      <trkpt lat="45.914799990132451" lon="9.058513026684523">
        <ele>1013</ele>
        <time>2010-06-13T08:34:47Z</time>
      </trkpt>
      <trkpt lat="45.914808958768845" lon="9.058526018634439">
        <ele>1014</ele>
        <time>2010-06-13T08:34:48Z</time>
      </trkpt>
      <trkpt lat="45.914808958768845" lon="9.058539010584354">
        <ele>1014</ele>
        <time>2010-06-13T08:34:49Z</time>
      </trkpt>
      <trkpt lat="45.91481801122427" lon="9.05855200253427">
        <ele>1013</ele>
        <time>2010-06-13T08:34:50Z</time>
      </trkpt>
      <trkpt lat="45.914826979860663" lon="9.058564994484186">
        <ele>1013</ele>
        <time>2010-06-13T08:34:51Z</time>
      </trkpt>
      <trkpt lat="45.914826979860663" lon="9.058577986434102">
        <ele>1013</ele>
        <time>2010-06-13T08:34:52Z</time>
      </trkpt>
      <trkpt lat="45.914836032316089" lon="9.058590978384018">
        <ele>1013</ele>
        <time>2010-06-13T08:34:53Z</time>
      </trkpt>
      <trkpt lat="45.914836032316089" lon="9.058603970333934">
        <ele>1014</ele>
        <time>2010-06-13T08:34:55Z</time>
      </trkpt>
      <trkpt lat="45.914853969588876" lon="9.05861696228385">
        <ele>1014</ele>
        <time>2010-06-13T08:34:56Z</time>
      </trkpt>
      <trkpt lat="45.914853969588876" lon="9.058629032224417">
        <ele>1014</ele>
        <time>2010-06-13T08:34:57Z</time>
      </trkpt>
      <trkpt lat="45.914863022044301" lon="9.058642024174333">
        <ele>1014</ele>
        <time>2010-06-13T08:34:58Z</time>
      </trkpt>
      <trkpt lat="45.914871990680695" lon="9.058655016124249">
        <ele>1014</ele>
        <time>2010-06-13T08:34:59Z</time>
      </trkpt>
      <trkpt lat="45.914880959317088" lon="9.058668008074164">
        <ele>1015</ele>
        <time>2010-06-13T08:35:00Z</time>
      </trkpt>
      <trkpt lat="45.914880959317088" lon="9.05868100002408">
        <ele>1015</ele>
        <time>2010-06-13T08:35:01Z</time>
      </trkpt>
      <trkpt lat="45.914890011772513" lon="9.058706983923912">
        <ele>1014</ele>
        <time>2010-06-13T08:35:03Z</time>
      </trkpt>
      <trkpt lat="45.914890011772513" lon="9.058732967823744">
        <ele>1015</ele>
        <time>2010-06-13T08:35:04Z</time>
      </trkpt>
      <trkpt lat="45.914898980408907" lon="9.05874595977366">
        <ele>1015</ele>
        <time>2010-06-13T08:35:05Z</time>
      </trkpt>
      <trkpt lat="45.914898980408907" lon="9.058759035542607">
        <ele>1015</ele>
        <time>2010-06-13T08:35:06Z</time>
      </trkpt>
      <trkpt lat="45.914908032864332" lon="9.058771021664143">
        <ele>1015</ele>
        <time>2010-06-13T08:35:07Z</time>
      </trkpt>
      <trkpt lat="45.914908032864332" lon="9.058784013614059">
        <ele>1015</ele>
        <time>2010-06-13T08:35:09Z</time>
      </trkpt>
      <trkpt lat="45.914917001500726" lon="9.05880999751389">
        <ele>1015</ele>
        <time>2010-06-13T08:35:10Z</time>
      </trkpt>
      <trkpt lat="45.914925970137119" lon="9.058822989463806">
        <ele>1015</ele>
        <time>2010-06-13T08:35:11Z</time>
      </trkpt>
      <trkpt lat="45.914925970137119" lon="9.058835981413722">
        <ele>1016</ele>
        <time>2010-06-13T08:35:12Z</time>
      </trkpt>
      <trkpt lat="45.914935022592545" lon="9.058848973363638">
        <ele>1016</ele>
        <time>2010-06-13T08:35:13Z</time>
      </trkpt>
      <trkpt lat="45.914935022592545" lon="9.058861965313554">
        <ele>1017</ele>
        <time>2010-06-13T08:35:14Z</time>
      </trkpt>
      <trkpt lat="45.914935022592545" lon="9.058875041082501">
        <ele>1017</ele>
        <time>2010-06-13T08:35:15Z</time>
      </trkpt>
      <trkpt lat="45.914943991228938" lon="9.058887027204037">
        <ele>1017</ele>
        <time>2010-06-13T08:35:16Z</time>
      </trkpt>
      <trkpt lat="45.914943991228938" lon="9.058901024982333">
        <ele>1017</ele>
        <time>2010-06-13T08:35:18Z</time>
      </trkpt>
      <trkpt lat="45.914962012320757" lon="9.0589389950037">
        <ele>1017</ele>
        <time>2010-06-13T08:35:19Z</time>
      </trkpt>
      <trkpt lat="45.914962012320757" lon="9.058951986953616">
        <ele>1017</ele>
        <time>2010-06-13T08:35:20Z</time>
      </trkpt>
      <trkpt lat="45.914962012320757" lon="9.058964978903532">
        <ele>1017</ele>
        <time>2010-06-13T08:35:21Z</time>
      </trkpt>
      <trkpt lat="45.91497098095715" lon="9.058977970853448">
        <ele>1018</ele>
        <time>2010-06-13T08:35:22Z</time>
      </trkpt>
      <trkpt lat="45.914980033412576" lon="9.058990962803364">
        <ele>1018</ele>
        <time>2010-06-13T08:35:23Z</time>
      </trkpt>
      <trkpt lat="45.914980033412576" lon="9.058990962803364">
        <ele>1018</ele>
        <time>2010-06-13T08:35:24Z</time>
      </trkpt>
      <trkpt lat="45.914989002048969" lon="9.059004038572311">
        <ele>1018</ele>
        <time>2010-06-13T08:35:25Z</time>
      </trkpt>
      <trkpt lat="45.914989002048969" lon="9.059017030522227">
        <ele>1018</ele>
        <time>2010-06-13T08:35:26Z</time>
      </trkpt>
      <trkpt lat="45.914997970685363" lon="9.059029016643763">
        <ele>1018</ele>
        <time>2010-06-13T08:35:27Z</time>
      </trkpt>
      <trkpt lat="45.915007023140788" lon="9.059042008593679">
        <ele>1018</ele>
        <time>2010-06-13T08:35:28Z</time>
      </trkpt>
      <trkpt lat="45.915015991777182" lon="9.059055000543594">
        <ele>1018</ele>
        <time>2010-06-13T08:35:29Z</time>
      </trkpt>
      <trkpt lat="45.915024960413575" lon="9.059055000543594">
        <ele>1017</ele>
        <time>2010-06-13T08:35:30Z</time>
      </trkpt>
      <trkpt lat="45.915034012869" lon="9.05906799249351">
        <ele>1018</ele>
        <time>2010-06-13T08:35:31Z</time>
      </trkpt>
      <trkpt lat="45.915052033960819" lon="9.05906799249351">
        <ele>1018</ele>
        <time>2010-06-13T08:35:32Z</time>
      </trkpt>
      <trkpt lat="45.915061002597213" lon="9.05906799249351">
        <ele>1018</ele>
        <time>2010-06-13T08:35:33Z</time>
      </trkpt>
      <trkpt lat="45.915069971233606" lon="9.05906799249351">
        <ele>1019</ele>
        <time>2010-06-13T08:35:34Z</time>
      </trkpt>
      <trkpt lat="45.915079023689032" lon="9.059055000543594">
        <ele>1019</ele>
        <time>2010-06-13T08:35:35Z</time>
      </trkpt>
      <trkpt lat="45.915079023689032" lon="9.059029016643763">
        <ele>1019</ele>
        <time>2010-06-13T08:35:36Z</time>
      </trkpt>
      <trkpt lat="45.915087992325425" lon="9.059017030522227">
        <ele>1019</ele>
        <time>2010-06-13T08:35:37Z</time>
      </trkpt>
      <trkpt lat="45.915096960961819" lon="9.059004038572311">
        <ele>1019</ele>
        <time>2010-06-13T08:35:38Z</time>
      </trkpt>
      <trkpt lat="45.915087992325425" lon="9.058964978903532">
        <ele>1019</ele>
        <time>2010-06-13T08:35:40Z</time>
      </trkpt>
      <trkpt lat="45.915087992325425" lon="9.0589389950037">
        <ele>1019</ele>
        <time>2010-06-13T08:35:41Z</time>
      </trkpt>
      <trkpt lat="45.915087992325425" lon="9.058926003053784">
        <ele>1020</ele>
        <time>2010-06-13T08:35:42Z</time>
      </trkpt>
      <trkpt lat="45.915079023689032" lon="9.058901024982333">
        <ele>1020</ele>
        <time>2010-06-13T08:35:43Z</time>
      </trkpt>
      <trkpt lat="45.915079023689032" lon="9.058888033032417">
        <ele>1020</ele>
        <time>2010-06-13T08:35:44Z</time>
      </trkpt>
      <trkpt lat="45.915079023689032" lon="9.058875041082501">
        <ele>1020</ele>
        <time>2010-06-13T08:35:45Z</time>
      </trkpt>
      <trkpt lat="45.915069971233606" lon="9.058848973363638">
        <ele>1019</ele>
        <time>2010-06-13T08:35:47Z</time>
      </trkpt>
      <trkpt lat="45.915069971233606" lon="9.058822989463806">
        <ele>1020</ele>
        <time>2010-06-13T08:35:48Z</time>
      </trkpt>
      <trkpt lat="45.915069971233606" lon="9.05880999751389">
        <ele>1021</ele>
        <time>2010-06-13T08:35:49Z</time>
      </trkpt>
      <trkpt lat="45.915061002597213" lon="9.058784013614059">
        <ele>1021</ele>
        <time>2010-06-13T08:35:50Z</time>
      </trkpt>
      <trkpt lat="45.915069971233606" lon="9.058732967823744">
        <ele>1021</ele>
        <time>2010-06-13T08:35:54Z</time>
      </trkpt>
      <trkpt lat="45.915061002597213" lon="9.058719975873828">
        <ele>1021</ele>
        <time>2010-06-13T08:35:55Z</time>
      </trkpt>
      <trkpt lat="45.915069971233606" lon="9.05861696228385">
        <ele>1022</ele>
        <time>2010-06-13T08:36:03Z</time>
      </trkpt>
      <trkpt lat="45.915069971233606" lon="9.05861696228385">
        <ele>1022</ele>
        <time>2010-06-13T08:36:04Z</time>
      </trkpt>
      <trkpt lat="45.915087992325425" lon="9.05861696228385">
        <ele>1022</ele>
        <time>2010-06-13T08:36:05Z</time>
      </trkpt>
      <trkpt lat="45.915087992325425" lon="9.058630038052797">
        <ele>1022</ele>
        <time>2010-06-13T08:36:06Z</time>
      </trkpt>
      <trkpt lat="45.915096960961819" lon="9.058643030002713">
        <ele>1022</ele>
        <time>2010-06-13T08:36:07Z</time>
      </trkpt>
      <trkpt lat="45.915096960961819" lon="9.058656021952629">
        <ele>1022</ele>
        <time>2010-06-13T08:36:08Z</time>
      </trkpt>
      <trkpt lat="45.915096960961819" lon="9.05868100002408">
        <ele>1021</ele>
        <time>2010-06-13T08:36:10Z</time>
      </trkpt>
      <trkpt lat="45.915106013417244" lon="9.058706983923912">
        <ele>1022</ele>
        <time>2010-06-13T08:36:11Z</time>
      </trkpt>
      <trkpt lat="45.915106013417244" lon="9.058719975873828">
        <ele>1022</ele>
        <time>2010-06-13T08:36:12Z</time>
      </trkpt>
      <trkpt lat="45.915106013417244" lon="9.058732967823744">
        <ele>1022</ele>
        <time>2010-06-13T08:36:13Z</time>
      </trkpt>
      <trkpt lat="45.915114982053638" lon="9.05874595977366">
        <ele>1022</ele>
        <time>2010-06-13T08:36:14Z</time>
      </trkpt>
      <trkpt lat="45.915124034509063" lon="9.058759035542607">
        <ele>1023</ele>
        <time>2010-06-13T08:36:15Z</time>
      </trkpt>
      <trkpt lat="45.915124034509063" lon="9.058772027492523">
        <ele>1023</ele>
        <time>2010-06-13T08:36:16Z</time>
      </trkpt>
      <trkpt lat="45.915124034509063" lon="9.058784013614059">
        <ele>1023</ele>
        <time>2010-06-13T08:36:17Z</time>
      </trkpt>
      <trkpt lat="45.915124034509063" lon="9.058797005563974">
        <ele>1024</ele>
        <time>2010-06-13T08:36:18Z</time>
      </trkpt>
      <trkpt lat="45.915133003145456" lon="9.05880999751389">
        <ele>1024</ele>
        <time>2010-06-13T08:36:19Z</time>
      </trkpt>
      <trkpt lat="45.915133003145456" lon="9.058822989463806">
        <ele>1024</ele>
        <time>2010-06-13T08:36:20Z</time>
      </trkpt>
      <trkpt lat="45.91514197178185" lon="9.058835981413722">
        <ele>1023</ele>
        <time>2010-06-13T08:36:22Z</time>
      </trkpt>
      <trkpt lat="45.915151024237275" lon="9.058861965313554">
        <ele>1023</ele>
        <time>2010-06-13T08:36:23Z</time>
      </trkpt>
      <trkpt lat="45.915151024237275" lon="9.058875041082501">
        <ele>1024</ele>
        <time>2010-06-13T08:36:24Z</time>
      </trkpt>
      <trkpt lat="45.915159992873669" lon="9.058888033032417">
        <ele>1024</ele>
        <time>2010-06-13T08:36:25Z</time>
      </trkpt>
      <trkpt lat="45.915159992873669" lon="9.058901024982333">
        <ele>1025</ele>
        <time>2010-06-13T08:36:26Z</time>
      </trkpt>
      <trkpt lat="45.915168961510062" lon="9.058914016932249">
        <ele>1024</ele>
        <time>2010-06-13T08:36:27Z</time>
      </trkpt>
      <trkpt lat="45.915178013965487" lon="9.058926003053784">
        <ele>1024</ele>
        <time>2010-06-13T08:36:28Z</time>
      </trkpt>
      <trkpt lat="45.915178013965487" lon="9.0589389950037">
        <ele>1025</ele>
        <time>2010-06-13T08:36:29Z</time>
      </trkpt>
      <trkpt lat="45.915186982601881" lon="9.058951986953616">
        <ele>1025</ele>
        <time>2010-06-13T08:36:30Z</time>
      </trkpt>
      <trkpt lat="45.915186982601881" lon="9.058964978903532">
        <ele>1025</ele>
        <time>2010-06-13T08:36:31Z</time>
      </trkpt>
      <trkpt lat="45.915196035057306" lon="9.058977970853448">
        <ele>1025</ele>
        <time>2010-06-13T08:36:32Z</time>
      </trkpt>
      <trkpt lat="45.915223024785519" lon="9.058964978903532">
        <ele>1025</ele>
        <time>2010-06-13T08:36:34Z</time>
      </trkpt>
      <trkpt lat="45.915231993421912" lon="9.058951986953616">
        <ele>1025</ele>
        <time>2010-06-13T08:36:35Z</time>
      </trkpt>
      <trkpt lat="45.915223024785519" lon="9.0589389950037">
        <ele>1025</ele>
        <time>2010-06-13T08:36:36Z</time>
      </trkpt>
      <trkpt lat="45.915223024785519" lon="9.058914016932249">
        <ele>1025</ele>
        <time>2010-06-13T08:36:37Z</time>
      </trkpt>
      <trkpt lat="45.915223024785519" lon="9.058901024982333">
        <ele>1025</ele>
        <time>2010-06-13T08:36:38Z</time>
      </trkpt>
      <trkpt lat="45.915213972330093" lon="9.058888033032417">
        <ele>1025</ele>
        <time>2010-06-13T08:36:39Z</time>
      </trkpt>
      <trkpt lat="45.915213972330093" lon="9.058861965313554">
        <ele>1025</ele>
        <time>2010-06-13T08:36:40Z</time>
      </trkpt>
      <trkpt lat="45.915213972330093" lon="9.058848973363638">
        <ele>1025</ele>
        <time>2010-06-13T08:36:41Z</time>
      </trkpt>
      <trkpt lat="45.915213972330093" lon="9.058822989463806">
        <ele>1025</ele>
        <time>2010-06-13T08:36:42Z</time>
      </trkpt>
      <trkpt lat="45.9152050036937" lon="9.058811003342271">
        <ele>1026</ele>
        <time>2010-06-13T08:36:43Z</time>
      </trkpt>
      <trkpt lat="45.9152050036937" lon="9.058797005563974">
        <ele>1026</ele>
        <time>2010-06-13T08:36:44Z</time>
      </trkpt>
      <trkpt lat="45.9152050036937" lon="9.058772027492523">
        <ele>1026</ele>
        <time>2010-06-13T08:36:45Z</time>
      </trkpt>
      <trkpt lat="45.915196035057306" lon="9.058693991973996">
        <ele>1026</ele>
        <time>2010-06-13T08:36:51Z</time>
      </trkpt>
      <trkpt lat="45.915186982601881" lon="9.058669013902545">
        <ele>1026</ele>
        <time>2010-06-13T08:36:52Z</time>
      </trkpt>
      <trkpt lat="45.915186982601881" lon="9.058656021952629">
        <ele>1026</ele>
        <time>2010-06-13T08:36:53Z</time>
      </trkpt>
      <trkpt lat="45.915186982601881" lon="9.058643030002713">
        <ele>1026</ele>
        <time>2010-06-13T08:36:54Z</time>
      </trkpt>
      <trkpt lat="45.915178013965487" lon="9.05861696228385">
        <ele>1026</ele>
        <time>2010-06-13T08:36:56Z</time>
      </trkpt>
      <trkpt lat="45.915168961510062" lon="9.058603970333934">
        <ele>1026</ele>
        <time>2010-06-13T08:36:57Z</time>
      </trkpt>
      <trkpt lat="45.915186982601881" lon="9.058785019442439">
        <ele>1027</ele>
        <time>2010-06-13T08:40:29Z</time>
      </trkpt>
      <trkpt lat="45.915186982601881" lon="9.058811003342271">
        <ele>1026</ele>
        <time>2010-06-13T08:40:30Z</time>
      </trkpt>
      <trkpt lat="45.915186982601881" lon="9.058861965313554">
        <ele>1026</ele>
        <time>2010-06-13T08:40:32Z</time>
      </trkpt>
      <trkpt lat="45.915186982601881" lon="9.058888033032417">
        <ele>1026</ele>
        <time>2010-06-13T08:40:33Z</time>
      </trkpt>
      <trkpt lat="45.915186982601881" lon="9.058914016932249">
        <ele>1026</ele>
        <time>2010-06-13T08:40:34Z</time>
      </trkpt>
      <trkpt lat="45.915196035057306" lon="9.058951986953616">
        <ele>1025</ele>
        <time>2010-06-13T08:40:35Z</time>
      </trkpt>
      <trkpt lat="45.915196035057306" lon="9.058977970853448">
        <ele>1025</ele>
        <time>2010-06-13T08:40:36Z</time>
      </trkpt>
      <trkpt lat="45.9152050036937" lon="9.059004038572311">
        <ele>1025</ele>
        <time>2010-06-13T08:40:37Z</time>
      </trkpt>
      <trkpt lat="45.9152050036937" lon="9.059030022472143">
        <ele>1025</ele>
        <time>2010-06-13T08:40:38Z</time>
      </trkpt>
      <trkpt lat="45.9152050036937" lon="9.059056006371975">
        <ele>1025</ele>
        <time>2010-06-13T08:40:39Z</time>
      </trkpt>
      <trkpt lat="45.915213972330093" lon="9.059080984443426">
        <ele>1025</ele>
        <time>2010-06-13T08:40:40Z</time>
      </trkpt>
      <trkpt lat="45.915213972330093" lon="9.059106968343258">
        <ele>1025</ele>
        <time>2010-06-13T08:40:41Z</time>
      </trkpt>
      <trkpt lat="45.915213972330093" lon="9.059133036062121">
        <ele>1026</ele>
        <time>2010-06-13T08:40:42Z</time>
      </trkpt>
      <trkpt lat="45.915213972330093" lon="9.059222973883152">
        <ele>1025</ele>
        <time>2010-06-13T08:40:45Z</time>
      </trkpt>
      <trkpt lat="45.915223024785519" lon="9.059235965833068">
        <ele>1025</ele>
        <time>2010-06-13T08:40:46Z</time>
      </trkpt>
      <trkpt lat="45.915223024785519" lon="9.059262033551931">
        <ele>1025</ele>
        <time>2010-06-13T08:40:47Z</time>
      </trkpt>
      <trkpt lat="45.915223024785519" lon="9.059312995523214">
        <ele>1027</ele>
        <time>2010-06-13T08:40:49Z</time>
      </trkpt>
      <trkpt lat="45.915222018957138" lon="9.059378039091826">
        <ele>1026</ele>
        <time>2010-06-13T08:40:52Z</time>
      </trkpt>
      <trkpt lat="45.915231993421912" lon="9.059429001063108">
        <ele>1025</ele>
        <time>2010-06-13T08:40:54Z</time>
      </trkpt>
      <trkpt lat="45.915231993421912" lon="9.059441993013024">
        <ele>1026</ele>
        <time>2010-06-13T08:40:55Z</time>
      </trkpt>
      <trkpt lat="45.915231993421912" lon="9.059493960812688">
        <ele>1026</ele>
        <time>2010-06-13T08:40:57Z</time>
      </trkpt>
      <trkpt lat="45.915231993421912" lon="9.059557998552918">
        <ele>1026</ele>
        <time>2010-06-13T08:41:00Z</time>
      </trkpt>
      <trkpt lat="45.915230987593532" lon="9.05958398245275">
        <ele>1027</ele>
        <time>2010-06-13T08:41:01Z</time>
      </trkpt>
      <trkpt lat="45.915230987593532" lon="9.059609966352582">
        <ele>1027</ele>
        <time>2010-06-13T08:41:02Z</time>
      </trkpt>
      <trkpt lat="45.915230987593532" lon="9.059636034071446">
        <ele>1027</ele>
        <time>2010-06-13T08:41:03Z</time>
      </trkpt>
      <trkpt lat="45.915240962058306" lon="9.059699987992644">
        <ele>1026</ele>
        <time>2010-06-13T08:41:06Z</time>
      </trkpt>
      <trkpt lat="45.915240962058306" lon="9.05971297994256">
        <ele>1026</ele>
        <time>2010-06-13T08:41:07Z</time>
      </trkpt>
      <trkpt lat="45.91524900868535" lon="9.059738963842392">
        <ele>1026</ele>
        <time>2010-06-13T08:41:08Z</time>
      </trkpt>
      <trkpt lat="45.91524900868535" lon="9.05975203961134">
        <ele>1026</ele>
        <time>2010-06-13T08:41:09Z</time>
      </trkpt>
      <trkpt lat="45.915257977321744" lon="9.059777017682791">
        <ele>1027</ele>
        <time>2010-06-13T08:41:10Z</time>
      </trkpt>
      <trkpt lat="45.915257977321744" lon="9.059803001582623">
        <ele>1027</ele>
        <time>2010-06-13T08:41:11Z</time>
      </trkpt>
      <trkpt lat="45.915257977321744" lon="9.059828985482454">
        <ele>1027</ele>
        <time>2010-06-13T08:41:12Z</time>
      </trkpt>
      <trkpt lat="45.915267029777169" lon="9.059854969382286">
        <ele>1027</ele>
        <time>2010-06-13T08:41:13Z</time>
      </trkpt>
      <trkpt lat="45.915267029777169" lon="9.05988103710115">
        <ele>1027</ele>
        <time>2010-06-13T08:41:14Z</time>
      </trkpt>
      <trkpt lat="45.915275998413563" lon="9.059907021000981">
        <ele>1027</ele>
        <time>2010-06-13T08:41:15Z</time>
      </trkpt>
      <trkpt lat="45.915284967049956" lon="9.059919007122517">
        <ele>1026</ele>
        <time>2010-06-13T08:41:16Z</time>
      </trkpt>
      <trkpt lat="45.915284967049956" lon="9.059944991022348">
        <ele>1026</ele>
        <time>2010-06-13T08:41:17Z</time>
      </trkpt>
      <trkpt lat="45.915294019505382" lon="9.05997097492218">
        <ele>1026</ele>
        <time>2010-06-13T08:41:18Z</time>
      </trkpt>
      <trkpt lat="45.915294019505382" lon="9.059983966872096">
        <ele>1026</ele>
        <time>2010-06-13T08:41:19Z</time>
      </trkpt>
      <trkpt lat="45.9153120405972" lon="9.06001003459096">
        <ele>1027</ele>
        <time>2010-06-13T08:41:20Z</time>
      </trkpt>
      <trkpt lat="45.915321009233594" lon="9.060036018490791">
        <ele>1027</ele>
        <time>2010-06-13T08:41:21Z</time>
      </trkpt>
      <trkpt lat="45.915329977869987" lon="9.060060996562243">
        <ele>1027</ele>
        <time>2010-06-13T08:41:22Z</time>
      </trkpt>
      <trkpt lat="45.915347998961806" lon="9.060073988512158">
        <ele>1027</ele>
        <time>2010-06-13T08:41:23Z</time>
      </trkpt>
      <trkpt lat="45.9153569675982" lon="9.06009997241199">
        <ele>1027</ele>
        <time>2010-06-13T08:41:24Z</time>
      </trkpt>
      <trkpt lat="45.915374988690019" lon="9.060126040130854">
        <ele>1027</ele>
        <time>2010-06-13T08:41:25Z</time>
      </trkpt>
      <trkpt lat="45.915384041145444" lon="9.06013903208077">
        <ele>1027</ele>
        <time>2010-06-13T08:41:26Z</time>
      </trkpt>
      <trkpt lat="45.915393009781837" lon="9.060165015980601">
        <ele>1027</ele>
        <time>2010-06-13T08:41:27Z</time>
      </trkpt>
      <trkpt lat="45.915401978418231" lon="9.060178007930517">
        <ele>1027</ele>
        <time>2010-06-13T08:41:28Z</time>
      </trkpt>
      <trkpt lat="45.915411030873656" lon="9.060202986001968">
        <ele>1027</ele>
        <time>2010-06-13T08:41:29Z</time>
      </trkpt>
      <trkpt lat="45.91541999951005" lon="9.060215977951884">
        <ele>1027</ele>
        <time>2010-06-13T08:41:30Z</time>
      </trkpt>
      <trkpt lat="45.915428968146443" lon="9.0602289699018">
        <ele>1028</ele>
        <time>2010-06-13T08:41:31Z</time>
      </trkpt>
      <trkpt lat="45.915438020601869" lon="9.060241961851716">
        <ele>1028</ele>
        <time>2010-06-13T08:41:32Z</time>
      </trkpt>
      <trkpt lat="45.915446989238262" lon="9.06026802957058">
        <ele>1028</ele>
        <time>2010-06-13T08:41:33Z</time>
      </trkpt>
      <trkpt lat="45.915456041693687" lon="9.06026802957058">
        <ele>1028</ele>
        <time>2010-06-13T08:41:34Z</time>
      </trkpt>
      <trkpt lat="45.915465010330081" lon="9.060281021520495">
        <ele>1028</ele>
        <time>2010-06-13T08:41:35Z</time>
      </trkpt>
      <trkpt lat="45.915473978966475" lon="9.060294013470411">
        <ele>1028</ele>
        <time>2010-06-13T08:41:36Z</time>
      </trkpt>
      <trkpt lat="45.9154830314219" lon="9.060318991541863">
        <ele>1029</ele>
        <time>2010-06-13T08:41:38Z</time>
      </trkpt>
      <trkpt lat="45.915500968694687" lon="9.06035796739161">
        <ele>1028</ele>
        <time>2010-06-13T08:41:39Z</time>
      </trkpt>
      <trkpt lat="45.915500968694687" lon="9.060370959341526">
        <ele>1028</ele>
        <time>2010-06-13T08:41:40Z</time>
      </trkpt>
      <trkpt lat="45.915518989786506" lon="9.06039702706039">
        <ele>1029</ele>
        <time>2010-06-13T08:41:41Z</time>
      </trkpt>
      <trkpt lat="45.915527958422899" lon="9.060410019010305">
        <ele>1029</ele>
        <time>2010-06-13T08:41:42Z</time>
      </trkpt>
      <trkpt lat="45.915537010878325" lon="9.060436002910137">
        <ele>1030</ele>
        <time>2010-06-13T08:41:43Z</time>
      </trkpt>
      <trkpt lat="45.915545979514718" lon="9.060460980981588">
        <ele>1029</ele>
        <time>2010-06-13T08:41:44Z</time>
      </trkpt>
      <trkpt lat="45.915545979514718" lon="9.060473972931504">
        <ele>1030</ele>
        <time>2010-06-13T08:41:45Z</time>
      </trkpt>
      <trkpt lat="45.915555031970143" lon="9.060500040650368">
        <ele>1030</ele>
        <time>2010-06-13T08:41:46Z</time>
      </trkpt>
      <trkpt lat="45.915564000606537" lon="9.0605260245502">
        <ele>1030</ele>
        <time>2010-06-13T08:41:47Z</time>
      </trkpt>
      <trkpt lat="45.915564000606537" lon="9.060539016500115">
        <ele>1030</ele>
        <time>2010-06-13T08:41:48Z</time>
      </trkpt>
      <trkpt lat="45.91557296924293" lon="9.060552008450031">
        <ele>1030</ele>
        <time>2010-06-13T08:41:49Z</time>
      </trkpt>
      <trkpt lat="45.91557296924293" lon="9.060576986521483">
        <ele>1031</ele>
        <time>2010-06-13T08:41:50Z</time>
      </trkpt>
      <trkpt lat="45.915582021698356" lon="9.060589978471398">
        <ele>1031</ele>
        <time>2010-06-13T08:41:51Z</time>
      </trkpt>
      <trkpt lat="45.915582021698356" lon="9.06061596237123">
        <ele>1031</ele>
        <time>2010-06-13T08:41:52Z</time>
      </trkpt>
      <trkpt lat="45.915590990334749" lon="9.060629038140178">
        <ele>1031</ele>
        <time>2010-06-13T08:41:53Z</time>
      </trkpt>
      <trkpt lat="45.915599958971143" lon="9.060642030090094">
        <ele>1031</ele>
        <time>2010-06-13T08:41:54Z</time>
      </trkpt>
      <trkpt lat="45.915609011426568" lon="9.06065502204001">
        <ele>1032</ele>
        <time>2010-06-13T08:41:55Z</time>
      </trkpt>
      <trkpt lat="45.915609011426568" lon="9.060668013989925">
        <ele>1032</ele>
        <time>2010-06-13T08:41:56Z</time>
      </trkpt>
      <trkpt lat="45.915617980062962" lon="9.060681005939841">
        <ele>1031</ele>
        <time>2010-06-13T08:41:57Z</time>
      </trkpt>
      <trkpt lat="45.915627032518387" lon="9.060847973451018">
        <ele>1033</ele>
        <time>2010-06-13T08:42:11Z</time>
      </trkpt>
      <trkpt lat="45.915617980062962" lon="9.060860965400934">
        <ele>1033</ele>
        <time>2010-06-13T08:42:12Z</time>
      </trkpt>
      <trkpt lat="45.915627032518387" lon="9.060887033119798">
        <ele>1033</ele>
        <time>2010-06-13T08:42:15Z</time>
      </trkpt>
      <trkpt lat="45.915627032518387" lon="9.060900025069714">
        <ele>1034</ele>
        <time>2010-06-13T08:42:16Z</time>
      </trkpt>
      <trkpt lat="45.915617980062962" lon="9.060939000919461">
        <ele>1033</ele>
        <time>2010-06-13T08:42:20Z</time>
      </trkpt>
      <trkpt lat="45.915617980062962" lon="9.060950987040997">
        <ele>1033</ele>
        <time>2010-06-13T08:42:21Z</time>
      </trkpt>
      <trkpt lat="45.915617980062962" lon="9.060963978990912">
        <ele>1033</ele>
        <time>2010-06-13T08:42:22Z</time>
      </trkpt>
      <trkpt lat="45.915617980062962" lon="9.060976970940828">
        <ele>1034</ele>
        <time>2010-06-13T08:42:23Z</time>
      </trkpt>
      <trkpt lat="45.915609011426568" lon="9.060989962890744">
        <ele>1034</ele>
        <time>2010-06-13T08:42:24Z</time>
      </trkpt>
      <trkpt lat="45.915599958971143" lon="9.061003038659692">
        <ele>1034</ele>
        <time>2010-06-13T08:42:25Z</time>
      </trkpt>
      <trkpt lat="45.915599958971143" lon="9.061016030609608">
        <ele>1035</ele>
        <time>2010-06-13T08:42:26Z</time>
      </trkpt>
      <trkpt lat="45.915590990334749" lon="9.061016030609608">
        <ele>1034</ele>
        <time>2010-06-13T08:42:27Z</time>
      </trkpt>
      <trkpt lat="45.915582021698356" lon="9.061029022559524">
        <ele>1034</ele>
        <time>2010-06-13T08:42:28Z</time>
      </trkpt>
      <trkpt lat="45.915582021698356" lon="9.06104201450944">
        <ele>1034</ele>
        <time>2010-06-13T08:42:29Z</time>
      </trkpt>
      <trkpt lat="45.915582021698356" lon="9.061054000630975">
        <ele>1035</ele>
        <time>2010-06-13T08:42:30Z</time>
      </trkpt>
      <trkpt lat="45.915582021698356" lon="9.061054000630975">
        <ele>1035</ele>
        <time>2010-06-13T08:42:31Z</time>
      </trkpt>
      <trkpt lat="45.91557296924293" lon="9.061092976480722">
        <ele>1036</ele>
        <time>2010-06-13T08:42:35Z</time>
      </trkpt>
      <trkpt lat="45.91557296924293" lon="9.061092976480722">
        <ele>1035</ele>
        <time>2010-06-13T08:42:36Z</time>
      </trkpt>
      <trkpt lat="45.91557296924293" lon="9.061105968430638">
        <ele>1035</ele>
        <time>2010-06-13T08:42:37Z</time>
      </trkpt>
      <trkpt lat="45.915564000606537" lon="9.061118960380554">
        <ele>1035</ele>
        <time>2010-06-13T08:42:38Z</time>
      </trkpt>
      <trkpt lat="45.915564000606537" lon="9.061132036149502">
        <ele>1036</ele>
        <time>2010-06-13T08:42:39Z</time>
      </trkpt>
      <trkpt lat="45.915564000606537" lon="9.061145028099418">
        <ele>1036</ele>
        <time>2010-06-13T08:42:40Z</time>
      </trkpt>
      <trkpt lat="45.915564000606537" lon="9.061158020049334">
        <ele>1037</ele>
        <time>2010-06-13T08:42:41Z</time>
      </trkpt>
      <trkpt lat="45.915555031970143" lon="9.06117101199925">
        <ele>1037</ele>
        <time>2010-06-13T08:42:42Z</time>
      </trkpt>
      <trkpt lat="45.915555031970143" lon="9.06117101199925">
        <ele>1037</ele>
        <time>2010-06-13T08:42:43Z</time>
      </trkpt>
      <trkpt lat="45.915545979514718" lon="9.061182998120785">
        <ele>1037</ele>
        <time>2010-06-13T08:42:44Z</time>
      </trkpt>
      <trkpt lat="45.915545979514718" lon="9.061208982020617">
        <ele>1037</ele>
        <time>2010-06-13T08:42:46Z</time>
      </trkpt>
      <trkpt lat="45.915545979514718" lon="9.061221973970532">
        <ele>1037</ele>
        <time>2010-06-13T08:42:47Z</time>
      </trkpt>
      <trkpt lat="45.915537010878325" lon="9.061234965920448">
        <ele>1038</ele>
        <time>2010-06-13T08:42:49Z</time>
      </trkpt>
      <trkpt lat="45.915527958422899" lon="9.061248041689396">
        <ele>1038</ele>
        <time>2010-06-13T08:42:50Z</time>
      </trkpt>
      <trkpt lat="45.915527958422899" lon="9.061261033639312">
        <ele>1038</ele>
        <time>2010-06-13T08:42:51Z</time>
      </trkpt>
      <trkpt lat="45.915527958422899" lon="9.061274025589228">
        <ele>1038</ele>
        <time>2010-06-13T08:42:52Z</time>
      </trkpt>
      <trkpt lat="45.91552703641355" lon="9.061287017539144">
        <ele>1038</ele>
        <time>2010-06-13T08:42:53Z</time>
      </trkpt>
      <trkpt lat="45.915518989786506" lon="9.061299003660679">
        <ele>1038</ele>
        <time>2010-06-13T08:42:54Z</time>
      </trkpt>
      <trkpt lat="45.915518989786506" lon="9.061324987560511">
        <ele>1039</ele>
        <time>2010-06-13T08:42:57Z</time>
      </trkpt>
      <trkpt lat="45.915518989786506" lon="9.061324987560511">
        <ele>1039</ele>
        <time>2010-06-13T08:42:58Z</time>
      </trkpt>
      <trkpt lat="45.915510021150112" lon="9.061337979510427">
        <ele>1040</ele>
        <time>2010-06-13T08:42:59Z</time>
      </trkpt>
      <trkpt lat="45.915510021150112" lon="9.061363963410258">
        <ele>1040</ele>
        <time>2010-06-13T08:43:02Z</time>
      </trkpt>
      <trkpt lat="45.915500968694687" lon="9.061377039179206">
        <ele>1039</ele>
        <time>2010-06-13T08:43:03Z</time>
      </trkpt>
      <trkpt lat="45.915492000058293" lon="9.061390031129122">
        <ele>1039</ele>
        <time>2010-06-13T08:43:04Z</time>
      </trkpt>
      <trkpt lat="45.915482025593519" lon="9.061390031129122">
        <ele>1040</ele>
        <time>2010-06-13T08:43:05Z</time>
      </trkpt>
      <trkpt lat="45.915473978966475" lon="9.061402017250657">
        <ele>1040</ele>
        <time>2010-06-13T08:43:06Z</time>
      </trkpt>
      <trkpt lat="45.915456041693687" lon="9.061416015028954">
        <ele>1040</ele>
        <time>2010-06-13T08:43:07Z</time>
      </trkpt>
      <trkpt lat="45.915446989238262" lon="9.061428001150489">
        <ele>1040</ele>
        <time>2010-06-13T08:43:08Z</time>
      </trkpt>
      <trkpt lat="45.915437014773488" lon="9.061428001150489">
        <ele>1041</ele>
        <time>2010-06-13T08:43:09Z</time>
      </trkpt>
      <trkpt lat="45.915428968146443" lon="9.061440993100405">
        <ele>1041</ele>
        <time>2010-06-13T08:43:10Z</time>
      </trkpt>
      <trkpt lat="45.915418993681669" lon="9.061440993100405">
        <ele>1041</ele>
        <time>2010-06-13T08:43:11Z</time>
      </trkpt>
      <trkpt lat="45.915418993681669" lon="9.061453985050321">
        <ele>1041</ele>
        <time>2010-06-13T08:43:12Z</time>
      </trkpt>
      <trkpt lat="45.915411030873656" lon="9.061466977000237">
        <ele>1041</ele>
        <time>2010-06-13T08:43:13Z</time>
      </trkpt>
      <trkpt lat="45.91540097258985" lon="9.061479968950152">
        <ele>1041</ele>
        <time>2010-06-13T08:43:14Z</time>
      </trkpt>
      <trkpt lat="45.915392003953457" lon="9.061492960900068">
        <ele>1041</ele>
        <time>2010-06-13T08:43:15Z</time>
      </trkpt>
      <trkpt lat="45.915366020053625" lon="9.061492960900068">
        <ele>1041</ele>
        <time>2010-06-13T08:43:18Z</time>
      </trkpt>
      <trkpt lat="45.915355961769819" lon="9.061506036669016">
        <ele>1041</ele>
        <time>2010-06-13T08:43:19Z</time>
      </trkpt>
      <trkpt lat="45.915346993133426" lon="9.061506036669016">
        <ele>1042</ele>
        <time>2010-06-13T08:43:20Z</time>
      </trkpt>
      <trkpt lat="45.91518497094512" lon="9.061789009720087">
        <ele>1048</ele>
        <time>2010-06-13T08:43:56Z</time>
      </trkpt>
      <trkpt lat="45.915176002308726" lon="9.061802001670003">
        <ele>1048</ele>
        <time>2010-06-13T08:43:58Z</time>
      </trkpt>
      <trkpt lat="45.915167033672333" lon="9.061814993619919">
        <ele>1049</ele>
        <time>2010-06-13T08:43:59Z</time>
      </trkpt>
      <trkpt lat="45.915167033672333" lon="9.061827985569835">
        <ele>1049</ele>
        <time>2010-06-13T08:44:00Z</time>
      </trkpt>
      <trkpt lat="45.915157981216908" lon="9.061827985569835">
        <ele>1049</ele>
        <time>2010-06-13T08:44:01Z</time>
      </trkpt>
      <trkpt lat="45.915157981216908" lon="9.061840977519751">
        <ele>1049</ele>
        <time>2010-06-13T08:44:02Z</time>
      </trkpt>
      <trkpt lat="45.915157981216908" lon="9.061853969469667">
        <ele>1049</ele>
        <time>2010-06-13T08:44:04Z</time>
      </trkpt>
      <trkpt lat="45.915149012580514" lon="9.061866039410234">
        <ele>1050</ele>
        <time>2010-06-13T08:44:05Z</time>
      </trkpt>
      <trkpt lat="45.915157981216908" lon="9.061879031360149">
        <ele>1050</ele>
        <time>2010-06-13T08:44:07Z</time>
      </trkpt>
      <trkpt lat="45.915157981216908" lon="9.061879031360149">
        <ele>1049</ele>
        <time>2010-06-13T08:44:08Z</time>
      </trkpt>
      <trkpt lat="45.91501398012042" lon="9.062071982771158">
        <ele>1056</ele>
        <time>2010-06-13T08:45:15Z</time>
      </trkpt>
      <trkpt lat="45.91501398012042" lon="9.062124034389854">
        <ele>1056</ele>
        <time>2010-06-13T08:45:20Z</time>
      </trkpt>
      <trkpt lat="45.91501398012042" lon="9.062150018289685">
        <ele>1057</ele>
        <time>2010-06-13T08:45:22Z</time>
      </trkpt>
      <trkpt lat="45.91501398012042" lon="9.062163010239601">
        <ele>1057</ele>
        <time>2010-06-13T08:45:23Z</time>
      </trkpt>
      <trkpt lat="45.91501398012042" lon="9.062176002189517">
        <ele>1056</ele>
        <time>2010-06-13T08:45:24Z</time>
      </trkpt>
      <trkpt lat="45.91501398012042" lon="9.062188994139433">
        <ele>1057</ele>
        <time>2010-06-13T08:45:26Z</time>
      </trkpt>
      <trkpt lat="45.914879031479359" lon="9.062574980780482">
        <ele>1068</ele>
        <time>2010-06-13T08:46:47Z</time>
      </trkpt>
      <trkpt lat="45.914896968752146" lon="9.062974965199828">
        <ele>1077</ele>
        <time>2010-06-13T08:49:43Z</time>
      </trkpt>
      <trkpt lat="45.914906021207571" lon="9.063001032918692">
        <ele>1077</ele>
        <time>2010-06-13T08:49:45Z</time>
      </trkpt>
      <trkpt lat="45.914906021207571" lon="9.063014024868608">
        <ele>1077</ele>
        <time>2010-06-13T08:49:47Z</time>
      </trkpt>
      <trkpt lat="45.914906021207571" lon="9.063027016818523">
        <ele>1077</ele>
        <time>2010-06-13T08:49:48Z</time>
      </trkpt>
      <trkpt lat="45.914906021207571" lon="9.063039002940059">
        <ele>1077</ele>
        <time>2010-06-13T08:49:50Z</time>
      </trkpt>
      <trkpt lat="45.914906021207571" lon="9.063051994889975">
        <ele>1077</ele>
        <time>2010-06-13T08:49:51Z</time>
      </trkpt>
      <trkpt lat="45.914906021207571" lon="9.063064986839891">
        <ele>1078</ele>
        <time>2010-06-13T08:49:52Z</time>
      </trkpt>
      <trkpt lat="45.914896968752146" lon="9.063064986839891">
        <ele>1077</ele>
        <time>2010-06-13T08:49:53Z</time>
      </trkpt>
      <trkpt lat="45.914896968752146" lon="9.063077978789806">
        <ele>1078</ele>
        <time>2010-06-13T08:49:54Z</time>
      </trkpt>
      <trkpt lat="45.914940973743796" lon="9.06345197930932">
        <ele>1085</ele>
        <time>2010-06-13T08:50:38Z</time>
      </trkpt>
      <trkpt lat="45.914940973743796" lon="9.063464971259236">
        <ele>1085</ele>
        <time>2010-06-13T08:50:41Z</time>
      </trkpt>
      <trkpt lat="45.914940973743796" lon="9.063477963209152">
        <ele>1085</ele>
        <time>2010-06-13T08:50:42Z</time>
      </trkpt>
      <trkpt lat="45.914940973743796" lon="9.0634910389781">
        <ele>1086</ele>
        <time>2010-06-13T08:50:44Z</time>
      </trkpt>
      <trkpt lat="45.914940973743796" lon="9.063504030928016">
        <ele>1086</ele>
        <time>2010-06-13T08:50:45Z</time>
      </trkpt>
      <trkpt lat="45.914950026199222" lon="9.063504030928016">
        <ele>1086</ele>
        <time>2010-06-13T08:50:46Z</time>
      </trkpt>
      <trkpt lat="45.914950026199222" lon="9.063517022877932">
        <ele>1086</ele>
        <time>2010-06-13T08:50:47Z</time>
      </trkpt>
      <trkpt lat="45.914958994835615" lon="9.063517022877932">
        <ele>1087</ele>
        <time>2010-06-13T08:50:48Z</time>
      </trkpt>
      <trkpt lat="45.914958994835615" lon="9.063530014827848">
        <ele>1087</ele>
        <time>2010-06-13T08:50:49Z</time>
      </trkpt>
      <trkpt lat="45.914958994835615" lon="9.063928993418813">
        <ele>1093</ele>
        <time>2010-06-13T08:51:52Z</time>
      </trkpt>
      <trkpt lat="45.914958994835615" lon="9.063941985368729">
        <ele>1094</ele>
        <time>2010-06-13T08:51:53Z</time>
      </trkpt>
      <trkpt lat="45.914958994835615" lon="9.06396796926856">
        <ele>1094</ele>
        <time>2010-06-13T08:51:55Z</time>
      </trkpt>
      <trkpt lat="45.914958994835615" lon="9.063980961218476">
        <ele>1094</ele>
        <time>2010-06-13T08:51:56Z</time>
      </trkpt>
      <trkpt lat="45.914958994835615" lon="9.063994036987424">
        <ele>1094</ele>
        <time>2010-06-13T08:51:57Z</time>
      </trkpt>
      <trkpt lat="45.914958994835615" lon="9.064020020887256">
        <ele>1094</ele>
        <time>2010-06-13T08:52:00Z</time>
      </trkpt>
      <trkpt lat="45.914958994835615" lon="9.064044998958707">
        <ele>1094</ele>
        <time>2010-06-13T08:52:02Z</time>
      </trkpt>
      <trkpt lat="45.914958994835615" lon="9.064057990908623">
        <ele>1095</ele>
        <time>2010-06-13T08:52:04Z</time>
      </trkpt>
      <trkpt lat="45.914958994835615" lon="9.064070982858539">
        <ele>1095</ele>
        <time>2010-06-13T08:52:05Z</time>
      </trkpt>
      <trkpt lat="45.914958994835615" lon="9.064070982858539">
        <ele>1095</ele>
        <time>2010-06-13T08:52:06Z</time>
      </trkpt>
      <trkpt lat="45.914958994835615" lon="9.064083974808455">
        <ele>1095</ele>
        <time>2010-06-13T08:52:07Z</time>
      </trkpt>
      <trkpt lat="45.914958994835615" lon="9.06409696675837">
        <ele>1095</ele>
        <time>2010-06-13T08:52:08Z</time>
      </trkpt>
      <trkpt lat="45.91484198346734" lon="9.064444983378053">
        <ele>1102</ele>
        <time>2010-06-13T08:52:56Z</time>
      </trkpt>
      <trkpt lat="45.914823962375522" lon="9.064444983378053">
        <ele>1102</ele>
        <time>2010-06-13T08:52:58Z</time>
      </trkpt>
      <trkpt lat="45.914814993739128" lon="9.064457975327969">
        <ele>1102</ele>
        <time>2010-06-13T08:53:00Z</time>
      </trkpt>
      <trkpt lat="45.914806025102735" lon="9.064457975327969">
        <ele>1102</ele>
        <time>2010-06-13T08:53:01Z</time>
      </trkpt>
      <trkpt lat="45.914644002914429" lon="9.064767016097903">
        <ele>1108</ele>
        <time>2010-06-13T08:53:43Z</time>
      </trkpt>
      <trkpt lat="45.914644002914429" lon="9.064767016097903">
        <ele>1108</ele>
        <time>2010-06-13T08:53:44Z</time>
      </trkpt>
      <trkpt lat="45.914644002914429" lon="9.064780008047819">
        <ele>1108</ele>
        <time>2010-06-13T08:53:45Z</time>
      </trkpt>
      <trkpt lat="45.914635034278035" lon="9.064792999997735">
        <ele>1108</ele>
        <time>2010-06-13T08:53:46Z</time>
      </trkpt>
      <trkpt lat="45.914635034278035" lon="9.064805991947651">
        <ele>1108</ele>
        <time>2010-06-13T08:53:47Z</time>
      </trkpt>
      <trkpt lat="45.91462598182261" lon="9.064818983897567">
        <ele>1108</ele>
        <time>2010-06-13T08:53:48Z</time>
      </trkpt>
      <trkpt lat="45.914617013186216" lon="9.064831975847483">
        <ele>1108</ele>
        <time>2010-06-13T08:53:49Z</time>
      </trkpt>
      <trkpt lat="45.914617013186216" lon="9.064843961969018">
        <ele>1108</ele>
        <time>2010-06-13T08:53:50Z</time>
      </trkpt>
      <trkpt lat="45.914607038721442" lon="9.064857037737966">
        <ele>1108</ele>
        <time>2010-06-13T08:53:51Z</time>
      </trkpt>
      <trkpt lat="45.914607038721442" lon="9.064870029687882">
        <ele>1108</ele>
        <time>2010-06-13T08:53:52Z</time>
      </trkpt>
      <trkpt lat="45.914607038721442" lon="9.064883021637797">
        <ele>1109</ele>
        <time>2010-06-13T08:53:53Z</time>
      </trkpt>
      <trkpt lat="45.914598992094398" lon="9.064896013587713">
        <ele>1109</ele>
        <time>2010-06-13T08:53:54Z</time>
      </trkpt>
      <trkpt lat="45.914598992094398" lon="9.064909005537629">
        <ele>1109</ele>
        <time>2010-06-13T08:53:55Z</time>
      </trkpt>
      <trkpt lat="45.914598992094398" lon="9.064909005537629">
        <ele>1109</ele>
        <time>2010-06-13T08:53:56Z</time>
      </trkpt>
      <trkpt lat="45.914607038721442" lon="9.064921997487545">
        <ele>1109</ele>
        <time>2010-06-13T08:53:57Z</time>
      </trkpt>
      <trkpt lat="45.914607038721442" lon="9.064934989437461">
        <ele>1109</ele>
        <time>2010-06-13T08:53:58Z</time>
      </trkpt>
      <trkpt lat="45.914607038721442" lon="9.064946975558996">
        <ele>1109</ele>
        <time>2010-06-13T08:53:59Z</time>
      </trkpt>
      <trkpt lat="45.914607038721442" lon="9.064972959458828">
        <ele>1109</ele>
        <time>2010-06-13T08:54:01Z</time>
      </trkpt>
      <trkpt lat="45.914598992094398" lon="9.064986035227776">
        <ele>1110</ele>
        <time>2010-06-13T08:54:02Z</time>
      </trkpt>
      <trkpt lat="45.914607038721442" lon="9.064999027177692">
        <ele>1111</ele>
        <time>2010-06-13T08:54:04Z</time>
      </trkpt>
      <trkpt lat="45.914607038721442" lon="9.064999027177692">
        <ele>1111</ele>
        <time>2010-06-13T08:54:05Z</time>
      </trkpt>
      <trkpt lat="45.914607038721442" lon="9.065012019127607">
        <ele>1110</ele>
        <time>2010-06-13T08:54:06Z</time>
      </trkpt>
      <trkpt lat="45.914598992094398" lon="9.065025011077523">
        <ele>1110</ele>
        <time>2010-06-13T08:54:07Z</time>
      </trkpt>
      <trkpt lat="45.914598992094398" lon="9.065038003027439">
        <ele>1109</ele>
        <time>2010-06-13T08:54:08Z</time>
      </trkpt>
      <trkpt lat="45.914589017629623" lon="9.065050994977355">
        <ele>1110</ele>
        <time>2010-06-13T08:54:09Z</time>
      </trkpt>
      <trkpt lat="45.914589017629623" lon="9.065063986927271">
        <ele>1110</ele>
        <time>2010-06-13T08:54:10Z</time>
      </trkpt>
      <trkpt lat="45.914589017629623" lon="9.065075973048806">
        <ele>1110</ele>
        <time>2010-06-13T08:54:11Z</time>
      </trkpt>
      <trkpt lat="45.914589017629623" lon="9.065075973048806">
        <ele>1110</ele>
        <time>2010-06-13T08:54:12Z</time>
      </trkpt>
      <trkpt lat="45.914580971002579" lon="9.065088964998722">
        <ele>1111</ele>
        <time>2010-06-13T08:54:13Z</time>
      </trkpt>
      <trkpt lat="45.914580971002579" lon="9.06510204076767">
        <ele>1111</ele>
        <time>2010-06-13T08:54:15Z</time>
      </trkpt>
      <trkpt lat="45.914580971002579" lon="9.065128024667501">
        <ele>1111</ele>
        <time>2010-06-13T08:54:16Z</time>
      </trkpt>
      <trkpt lat="45.914570996537805" lon="9.065141016617417">
        <ele>1111</ele>
        <time>2010-06-13T08:54:17Z</time>
      </trkpt>
      <trkpt lat="45.914580971002579" lon="9.065154008567333">
        <ele>1111</ele>
        <time>2010-06-13T08:54:18Z</time>
      </trkpt>
      <trkpt lat="45.914580971002579" lon="9.065167000517249">
        <ele>1112</ele>
        <time>2010-06-13T08:54:19Z</time>
      </trkpt>
      <trkpt lat="45.914580971002579" lon="9.065179992467165">
        <ele>1112</ele>
        <time>2010-06-13T08:54:20Z</time>
      </trkpt>
      <trkpt lat="45.914579965174198" lon="9.065192984417081">
        <ele>1112</ele>
        <time>2010-06-13T08:54:21Z</time>
      </trkpt>
      <trkpt lat="45.914570996537805" lon="9.065205976366997">
        <ele>1112</ele>
        <time>2010-06-13T08:54:22Z</time>
      </trkpt>
      <trkpt lat="45.914562027901411" lon="9.065217962488532">
        <ele>1112</ele>
        <time>2010-06-13T08:54:23Z</time>
      </trkpt>
      <trkpt lat="45.914552975445986" lon="9.06523103825748">
        <ele>1112</ele>
        <time>2010-06-13T08:54:24Z</time>
      </trkpt>
      <trkpt lat="45.914535038173199" lon="9.065244030207396">
        <ele>1112</ele>
        <time>2010-06-13T08:54:25Z</time>
      </trkpt>
      <trkpt lat="45.914535038173199" lon="9.065257022157311">
        <ele>1112</ele>
        <time>2010-06-13T08:54:26Z</time>
      </trkpt>
      <trkpt lat="45.914525985717773" lon="9.065270014107227">
        <ele>1111</ele>
        <time>2010-06-13T08:54:27Z</time>
      </trkpt>
      <trkpt lat="45.914525985717773" lon="9.065283006057143">
        <ele>1112</ele>
        <time>2010-06-13T08:54:28Z</time>
      </trkpt>
      <trkpt lat="45.91451701708138" lon="9.065295998007059">
        <ele>1112</ele>
        <time>2010-06-13T08:54:29Z</time>
      </trkpt>
      <trkpt lat="45.914507964625955" lon="9.065308989956975">
        <ele>1113</ele>
        <time>2010-06-13T08:54:30Z</time>
      </trkpt>
      <trkpt lat="45.914498995989561" lon="9.06532097607851">
        <ele>1113</ele>
        <time>2010-06-13T08:54:31Z</time>
      </trkpt>
      <trkpt lat="45.914498995989561" lon="9.065333968028426">
        <ele>1113</ele>
        <time>2010-06-13T08:54:32Z</time>
      </trkpt>
      <trkpt lat="45.914490027353168" lon="9.065346959978342">
        <ele>1113</ele>
        <time>2010-06-13T08:54:33Z</time>
      </trkpt>
      <trkpt lat="45.914490027353168" lon="9.06536003574729">
        <ele>1113</ele>
        <time>2010-06-13T08:54:34Z</time>
      </trkpt>
      <trkpt lat="45.914480974897742" lon="9.065373027697206">
        <ele>1112</ele>
        <time>2010-06-13T08:54:35Z</time>
      </trkpt>
      <trkpt lat="45.914472006261349" lon="9.065386019647121">
        <ele>1112</ele>
        <time>2010-06-13T08:54:36Z</time>
      </trkpt>
      <trkpt lat="45.914463037624955" lon="9.065386019647121">
        <ele>1112</ele>
        <time>2010-06-13T08:54:37Z</time>
      </trkpt>
      <trkpt lat="45.91445398516953" lon="9.065399011597037">
        <ele>1112</ele>
        <time>2010-06-13T08:54:38Z</time>
      </trkpt>
      <trkpt lat="45.91445398516953" lon="9.065423989668489">
        <ele>1112</ele>
        <time>2010-06-13T08:54:39Z</time>
      </trkpt>
      <trkpt lat="45.914445016533136" lon="9.065436981618404">
        <ele>1112</ele>
        <time>2010-06-13T08:54:40Z</time>
      </trkpt>
      <trkpt lat="45.914445016533136" lon="9.06544997356832">
        <ele>1113</ele>
        <time>2010-06-13T08:54:41Z</time>
      </trkpt>
      <trkpt lat="45.914435964077711" lon="9.065476041287184">
        <ele>1113</ele>
        <time>2010-06-13T08:54:42Z</time>
      </trkpt>
      <trkpt lat="45.914435964077711" lon="9.0654890332371">
        <ele>1113</ele>
        <time>2010-06-13T08:54:43Z</time>
      </trkpt>
      <trkpt lat="45.914435964077711" lon="9.065502025187016">
        <ele>1113</ele>
        <time>2010-06-13T08:54:44Z</time>
      </trkpt>
      <trkpt lat="45.914445016533136" lon="9.065528009086847">
        <ele>1113</ele>
        <time>2010-06-13T08:54:45Z</time>
      </trkpt>
      <trkpt lat="45.914445016533136" lon="9.065541001036763">
        <ele>1113</ele>
        <time>2010-06-13T08:54:46Z</time>
      </trkpt>
      <trkpt lat="45.914435964077711" lon="9.065565979108214">
        <ele>1112</ele>
        <time>2010-06-13T08:54:47Z</time>
      </trkpt>
      <trkpt lat="45.914445016533136" lon="9.06557897105813">
        <ele>1113</ele>
        <time>2010-06-13T08:54:48Z</time>
      </trkpt>
      <trkpt lat="45.914426995441318" lon="9.06561803072691">
        <ele>1113</ele>
        <time>2010-06-13T08:54:51Z</time>
      </trkpt>
      <trkpt lat="45.914426995441318" lon="9.065631022676826">
        <ele>1112</ele>
        <time>2010-06-13T08:54:52Z</time>
      </trkpt>
      <trkpt lat="45.914426995441318" lon="9.065644014626741">
        <ele>1112</ele>
        <time>2010-06-13T08:54:53Z</time>
      </trkpt>
      <trkpt lat="45.914418026804924" lon="9.065644014626741">
        <ele>1112</ele>
        <time>2010-06-13T08:54:54Z</time>
      </trkpt>
      <trkpt lat="45.914408974349499" lon="9.065657006576657">
        <ele>1112</ele>
        <time>2010-06-13T08:54:55Z</time>
      </trkpt>
      <trkpt lat="45.914400005713105" lon="9.065668992698193">
        <ele>1112</ele>
        <time>2010-06-13T08:54:56Z</time>
      </trkpt>
      <trkpt lat="45.914381984621286" lon="9.065694976598024">
        <ele>1113</ele>
        <time>2010-06-13T08:54:58Z</time>
      </trkpt>
      <trkpt lat="45.914373015984893" lon="9.065694976598024">
        <ele>1113</ele>
        <time>2010-06-13T08:54:59Z</time>
      </trkpt>
      <trkpt lat="45.914373015984893" lon="9.06570796854794">
        <ele>1113</ele>
        <time>2010-06-13T08:55:00Z</time>
      </trkpt>
      <trkpt lat="45.914363963529468" lon="9.06570796854794">
        <ele>1113</ele>
        <time>2010-06-13T08:55:01Z</time>
      </trkpt>
      <trkpt lat="45.914363963529468" lon="9.065720960497856">
        <ele>1113</ele>
        <time>2010-06-13T08:55:02Z</time>
      </trkpt>
      <trkpt lat="45.914354994893074" lon="9.065786004066467">
        <ele>1113</ele>
        <time>2010-06-13T08:55:07Z</time>
      </trkpt>
      <trkpt lat="45.914354994893074" lon="9.065823974087834">
        <ele>1115</ele>
        <time>2010-06-13T08:55:09Z</time>
      </trkpt>
      <trkpt lat="45.914354994893074" lon="9.06583696603775">
        <ele>1115</ele>
        <time>2010-06-13T08:55:10Z</time>
      </trkpt>
      <trkpt lat="45.91434602625668" lon="9.065863033756614">
        <ele>1114</ele>
        <time>2010-06-13T08:55:11Z</time>
      </trkpt>
      <trkpt lat="45.91434602625668" lon="9.06587602570653">
        <ele>1115</ele>
        <time>2010-06-13T08:55:12Z</time>
      </trkpt>
      <trkpt lat="45.914336973801255" lon="9.065889017656446">
        <ele>1115</ele>
        <time>2010-06-13T08:55:13Z</time>
      </trkpt>
      <trkpt lat="45.914336973801255" lon="9.065901003777981">
        <ele>1115</ele>
        <time>2010-06-13T08:55:14Z</time>
      </trkpt>
      <trkpt lat="45.914336973801255" lon="9.065926987677813">
        <ele>1115</ele>
        <time>2010-06-13T08:55:15Z</time>
      </trkpt>
      <trkpt lat="45.914336973801255" lon="9.065939979627729">
        <ele>1116</ele>
        <time>2010-06-13T08:55:16Z</time>
      </trkpt>
      <trkpt lat="45.914336973801255" lon="9.065952971577644">
        <ele>1115</ele>
        <time>2010-06-13T08:55:17Z</time>
      </trkpt>
      <trkpt lat="45.914336973801255" lon="9.06596596352756">
        <ele>1116</ele>
        <time>2010-06-13T08:55:18Z</time>
      </trkpt>
      <trkpt lat="45.914336973801255" lon="9.065992031246424">
        <ele>1116</ele>
        <time>2010-06-13T08:55:19Z</time>
      </trkpt>
      <trkpt lat="45.914328005164862" lon="9.06600502319634">
        <ele>1116</ele>
        <time>2010-06-13T08:55:20Z</time>
      </trkpt>
      <trkpt lat="45.914328005164862" lon="9.066030001267791">
        <ele>1116</ele>
        <time>2010-06-13T08:55:21Z</time>
      </trkpt>
      <trkpt lat="45.914319036528468" lon="9.066042993217707">
        <ele>1116</ele>
        <time>2010-06-13T08:55:22Z</time>
      </trkpt>
      <trkpt lat="45.914319036528468" lon="9.066055985167623">
        <ele>1116</ele>
        <time>2010-06-13T08:55:23Z</time>
      </trkpt>
      <trkpt lat="45.914309984073043" lon="9.066068977117539">
        <ele>1116</ele>
        <time>2010-06-13T08:55:24Z</time>
      </trkpt>
      <trkpt lat="45.914301015436649" lon="9.066081969067454">
        <ele>1116</ele>
        <time>2010-06-13T08:55:25Z</time>
      </trkpt>
      <trkpt lat="45.914301015436649" lon="9.066081969067454">
        <ele>1116</ele>
        <time>2010-06-13T08:55:26Z</time>
      </trkpt>
      <trkpt lat="45.914291962981224" lon="9.06609496101737">
        <ele>1116</ele>
        <time>2010-06-13T08:55:27Z</time>
      </trkpt>
      <trkpt lat="45.914291962981224" lon="9.066108036786318">
        <ele>1116</ele>
        <time>2010-06-13T08:55:28Z</time>
      </trkpt>
      <trkpt lat="45.914282994344831" lon="9.066121028736234">
        <ele>1116</ele>
        <time>2010-06-13T08:55:29Z</time>
      </trkpt>
      <trkpt lat="45.914282994344831" lon="9.06613402068615">
        <ele>1117</ele>
        <time>2010-06-13T08:55:30Z</time>
      </trkpt>
      <trkpt lat="45.914274025708437" lon="9.066146006807685">
        <ele>1118</ele>
        <time>2010-06-13T08:55:31Z</time>
      </trkpt>
      <trkpt lat="45.914264973253012" lon="9.066171990707517">
        <ele>1118</ele>
        <time>2010-06-13T08:55:32Z</time>
      </trkpt>
      <trkpt lat="45.914256004616618" lon="9.066184982657433">
        <ele>1118</ele>
        <time>2010-06-13T08:55:33Z</time>
      </trkpt>
      <trkpt lat="45.914247035980225" lon="9.066197974607348">
        <ele>1117</ele>
        <time>2010-06-13T08:55:34Z</time>
      </trkpt>
      <trkpt lat="45.914237983524799" lon="9.066210966557264">
        <ele>1117</ele>
        <time>2010-06-13T08:55:35Z</time>
      </trkpt>
      <trkpt lat="45.914237983524799" lon="9.066237034276128">
        <ele>1117</ele>
        <time>2010-06-13T08:55:36Z</time>
      </trkpt>
      <trkpt lat="45.914229014888406" lon="9.066237034276128">
        <ele>1117</ele>
        <time>2010-06-13T08:55:37Z</time>
      </trkpt>
      <trkpt lat="45.914219962432981" lon="9.066249020397663">
        <ele>1117</ele>
        <time>2010-06-13T08:55:38Z</time>
      </trkpt>
      <trkpt lat="45.914219962432981" lon="9.066262012347579">
        <ele>1117</ele>
        <time>2010-06-13T08:55:39Z</time>
      </trkpt>
      <trkpt lat="45.914210993796587" lon="9.066275004297495">
        <ele>1117</ele>
        <time>2010-06-13T08:55:40Z</time>
      </trkpt>
      <trkpt lat="45.914210993796587" lon="9.066287996247411">
        <ele>1117</ele>
        <time>2010-06-13T08:55:41Z</time>
      </trkpt>
      <trkpt lat="45.914202025160193" lon="9.066300988197327">
        <ele>1117</ele>
        <time>2010-06-13T08:55:42Z</time>
      </trkpt>
      <trkpt lat="45.914192972704768" lon="9.066326972097158">
        <ele>1117</ele>
        <time>2010-06-13T08:55:43Z</time>
      </trkpt>
      <trkpt lat="45.914184004068375" lon="9.066326972097158">
        <ele>1118</ele>
        <time>2010-06-13T08:55:44Z</time>
      </trkpt>
      <trkpt lat="45.914165982976556" lon="9.066339964047074">
        <ele>1118</ele>
        <time>2010-06-13T08:55:45Z</time>
      </trkpt>
      <trkpt lat="45.914157014340162" lon="9.066352033987641">
        <ele>1118</ele>
        <time>2010-06-13T08:55:46Z</time>
      </trkpt>
      <trkpt lat="45.914147961884737" lon="9.066366031765938">
        <ele>1118</ele>
        <time>2010-06-13T08:55:47Z</time>
      </trkpt>
      <trkpt lat="45.914138993248343" lon="9.066378017887473">
        <ele>1117</ele>
        <time>2010-06-13T08:55:48Z</time>
      </trkpt>
      <trkpt lat="45.914120972156525" lon="9.066391009837389">
        <ele>1118</ele>
        <time>2010-06-13T08:55:49Z</time>
      </trkpt>
      <trkpt lat="45.914112003520131" lon="9.066404001787305">
        <ele>1118</ele>
        <time>2010-06-13T08:55:50Z</time>
      </trkpt>
      <trkpt lat="45.914093982428312" lon="9.066404001787305">
        <ele>1119</ele>
        <time>2010-06-13T08:55:51Z</time>
      </trkpt>
      <trkpt lat="45.914075961336493" lon="9.066416993737221">
        <ele>1118</ele>
        <time>2010-06-13T08:55:52Z</time>
      </trkpt>
      <trkpt lat="45.914058024063706" lon="9.066416993737221">
        <ele>1118</ele>
        <time>2010-06-13T08:55:53Z</time>
      </trkpt>
      <trkpt lat="45.914048971608281" lon="9.066429985687137">
        <ele>1118</ele>
        <time>2010-06-13T08:55:54Z</time>
      </trkpt>
      <trkpt lat="45.914031034335494" lon="9.066442977637053">
        <ele>1119</ele>
        <time>2010-06-13T08:55:55Z</time>
      </trkpt>
      <trkpt lat="45.914021981880069" lon="9.066468039527535">
        <ele>1119</ele>
        <time>2010-06-13T08:55:56Z</time>
      </trkpt>
      <trkpt lat="45.914012007415295" lon="9.066481031477451">
        <ele>1119</ele>
        <time>2010-06-13T08:55:57Z</time>
      </trkpt>
      <trkpt lat="45.91400396078825" lon="9.066494023427367">
        <ele>1119</ele>
        <time>2010-06-13T08:55:58Z</time>
      </trkpt>
      <trkpt lat="45.913994992151856" lon="9.066520007327199">
        <ele>1119</ele>
        <time>2010-06-13T08:55:59Z</time>
      </trkpt>
      <trkpt lat="45.913986023515463" lon="9.066545991227031">
        <ele>1119</ele>
        <time>2010-06-13T08:56:00Z</time>
      </trkpt>
      <trkpt lat="45.913986023515463" lon="9.066571975126863">
        <ele>1119</ele>
        <time>2010-06-13T08:56:01Z</time>
      </trkpt>
      <trkpt lat="45.913993986323476" lon="9.066597037017345">
        <ele>1119</ele>
        <time>2010-06-13T08:56:02Z</time>
      </trkpt>
      <trkpt lat="45.91400396078825" lon="9.066623020917177">
        <ele>1118</ele>
        <time>2010-06-13T08:56:03Z</time>
      </trkpt>
      <trkpt lat="45.914012007415295" lon="9.066661996766925">
        <ele>1117</ele>
        <time>2010-06-13T08:56:04Z</time>
      </trkpt>
      <trkpt lat="45.914020976051688" lon="9.066700972616673">
        <ele>1117</ele>
        <time>2010-06-13T08:56:05Z</time>
      </trkpt>
      <trkpt lat="45.914012007415295" lon="9.066739026457071">
        <ele>1117</ele>
        <time>2010-06-13T08:56:06Z</time>
      </trkpt>
      <trkpt lat="45.913993986323476" lon="9.066790994256735">
        <ele>1118</ele>
        <time>2010-06-13T08:56:07Z</time>
      </trkpt>
      <trkpt lat="45.913975965231657" lon="9.066828964278102">
        <ele>1118</ele>
        <time>2010-06-13T08:56:08Z</time>
      </trkpt>
      <trkpt lat="45.913966996595263" lon="9.066855031996965">
        <ele>1118</ele>
        <time>2010-06-13T08:56:09Z</time>
      </trkpt>
      <trkpt lat="45.91395802795887" lon="9.066894007846713">
        <ele>1119</ele>
        <time>2010-06-13T08:56:10Z</time>
      </trkpt>
      <trkpt lat="45.913948975503445" lon="9.066919991746545">
        <ele>1119</ele>
        <time>2010-06-13T08:56:11Z</time>
      </trkpt>
      <trkpt lat="45.913940006867051" lon="9.066945975646377">
        <ele>1118</ele>
        <time>2010-06-13T08:56:12Z</time>
      </trkpt>
      <trkpt lat="45.913921985775232" lon="9.06697103753686">
        <ele>1119</ele>
        <time>2010-06-13T08:56:13Z</time>
      </trkpt>
      <trkpt lat="45.913921985775232" lon="9.067010013386607">
        <ele>1119</ele>
        <time>2010-06-13T08:56:14Z</time>
      </trkpt>
      <trkpt lat="45.913913017138839" lon="9.067048989236355">
        <ele>1118</ele>
        <time>2010-06-13T08:56:15Z</time>
      </trkpt>
      <trkpt lat="45.913903964683414" lon="9.067086959257722">
        <ele>1118</ele>
        <time>2010-06-13T08:56:16Z</time>
      </trkpt>
      <trkpt lat="45.91389499604702" lon="9.067126018926501">
        <ele>1118</ele>
        <time>2010-06-13T08:56:17Z</time>
      </trkpt>
      <trkpt lat="45.913876974955201" lon="9.067163988947868">
        <ele>1118</ele>
        <time>2010-06-13T08:56:18Z</time>
      </trkpt>
      <trkpt lat="45.913868006318808" lon="9.067216040566564">
        <ele>1118</ele>
        <time>2010-06-13T08:56:19Z</time>
      </trkpt>
      <trkpt lat="45.913859037682414" lon="9.067255016416311">
        <ele>1118</ele>
        <time>2010-06-13T08:56:20Z</time>
      </trkpt>
      <trkpt lat="45.913849985226989" lon="9.067293992266059">
        <ele>1118</ele>
        <time>2010-06-13T08:56:21Z</time>
      </trkpt>
      <trkpt lat="45.913841016590595" lon="9.067331962287426">
        <ele>1118</ele>
        <time>2010-06-13T08:56:22Z</time>
      </trkpt>
      <trkpt lat="45.91383196413517" lon="9.067371021956205">
        <ele>1118</ele>
        <time>2010-06-13T08:56:23Z</time>
      </trkpt>
      <trkpt lat="45.913822995498776" lon="9.067408991977572">
        <ele>1118</ele>
        <time>2010-06-13T08:56:24Z</time>
      </trkpt>
      <trkpt lat="45.913814026862383" lon="9.067460959777236">
        <ele>1118</ele>
        <time>2010-06-13T08:56:26Z</time>
      </trkpt>
      <trkpt lat="45.913814026862383" lon="9.067513011395931">
        <ele>1119</ele>
        <time>2010-06-13T08:56:28Z</time>
      </trkpt>
      <trkpt lat="45.913804974406958" lon="9.06757696531713">
        <ele>1119</ele>
        <time>2010-06-13T08:56:30Z</time>
      </trkpt>
      <trkpt lat="45.913796005770564" lon="9.06761602498591">
        <ele>1120</ele>
        <time>2010-06-13T08:56:31Z</time>
      </trkpt>
      <trkpt lat="45.913796005770564" lon="9.067642008885741">
        <ele>1120</ele>
        <time>2010-06-13T08:56:32Z</time>
      </trkpt>
      <trkpt lat="45.913787037134171" lon="9.067666986957192">
        <ele>1119</ele>
        <time>2010-06-13T08:56:33Z</time>
      </trkpt>
      <trkpt lat="45.913787037134171" lon="9.067692970857024">
        <ele>1119</ele>
        <time>2010-06-13T08:56:34Z</time>
      </trkpt>
      <trkpt lat="45.913777984678745" lon="9.067719038575888">
        <ele>1120</ele>
        <time>2010-06-13T08:56:35Z</time>
      </trkpt>
      <trkpt lat="45.913777984678745" lon="9.067821968346834">
        <ele>1120</ele>
        <time>2010-06-13T08:56:39Z</time>
      </trkpt>
      <trkpt lat="45.913777984678745" lon="9.067848036065698">
        <ele>1120</ele>
        <time>2010-06-13T08:56:40Z</time>
      </trkpt>
      <trkpt lat="45.913777984678745" lon="9.067874019965529">
        <ele>1120</ele>
        <time>2010-06-13T08:56:41Z</time>
      </trkpt>
      <trkpt lat="45.913777984678745" lon="9.067911989986897">
        <ele>1120</ele>
        <time>2010-06-13T08:56:42Z</time>
      </trkpt>
      <trkpt lat="45.913777984678745" lon="9.067937973886728">
        <ele>1120</ele>
        <time>2010-06-13T08:56:43Z</time>
      </trkpt>
      <trkpt lat="45.913769016042352" lon="9.068016009405255">
        <ele>1120</ele>
        <time>2010-06-13T08:56:45Z</time>
      </trkpt>
      <trkpt lat="45.913769016042352" lon="9.068053979426622">
        <ele>1120</ele>
        <time>2010-06-13T08:56:46Z</time>
      </trkpt>
      <trkpt lat="45.913759963586926" lon="9.068079963326454">
        <ele>1120</ele>
        <time>2010-06-13T08:56:47Z</time>
      </trkpt>
      <trkpt lat="45.913759963586926" lon="9.068106031045318">
        <ele>1120</ele>
        <time>2010-06-13T08:56:48Z</time>
      </trkpt>
      <trkpt lat="45.913750994950533" lon="9.068131009116769">
        <ele>1120</ele>
        <time>2010-06-13T08:56:49Z</time>
      </trkpt>
      <trkpt lat="45.913750994950533" lon="9.068144001066685">
        <ele>1121</ele>
        <time>2010-06-13T08:56:50Z</time>
      </trkpt>
      <trkpt lat="45.913742026314139" lon="9.068169984966517">
        <ele>1121</ele>
        <time>2010-06-13T08:56:51Z</time>
      </trkpt>
      <trkpt lat="45.913731968030334" lon="9.068195968866348">
        <ele>1121</ele>
        <time>2010-06-13T08:56:52Z</time>
      </trkpt>
      <trkpt lat="45.913731968030334" lon="9.068222036585212">
        <ele>1121</ele>
        <time>2010-06-13T08:56:53Z</time>
      </trkpt>
      <trkpt lat="45.913731968030334" lon="9.068261012434959">
        <ele>1121</ele>
        <time>2010-06-13T08:56:54Z</time>
      </trkpt>
      <trkpt lat="45.913724005222321" lon="9.068311974406242">
        <ele>1121</ele>
        <time>2010-06-13T08:56:56Z</time>
      </trkpt>
      <trkpt lat="45.913714030757546" lon="9.068337958306074">
        <ele>1121</ele>
        <time>2010-06-13T08:56:57Z</time>
      </trkpt>
      <trkpt lat="45.913705984130502" lon="9.068376012146473">
        <ele>1121</ele>
        <time>2010-06-13T08:56:58Z</time>
      </trkpt>
      <trkpt lat="45.913705984130502" lon="9.068401996046305">
        <ele>1121</ele>
        <time>2010-06-13T08:56:59Z</time>
      </trkpt>
      <trkpt lat="45.913696009665728" lon="9.068440971896052">
        <ele>1121</ele>
        <time>2010-06-13T08:57:00Z</time>
      </trkpt>
      <trkpt lat="45.913696009665728" lon="9.068492017686367">
        <ele>1121</ele>
        <time>2010-06-13T08:57:01Z</time>
      </trkpt>
      <trkpt lat="45.913677988573909" lon="9.068543985486031">
        <ele>1120</ele>
        <time>2010-06-13T08:57:02Z</time>
      </trkpt>
      <trkpt lat="45.91365996748209" lon="9.068609029054642">
        <ele>1120</ele>
        <time>2010-06-13T08:57:03Z</time>
      </trkpt>
      <trkpt lat="45.913642030209303" lon="9.068659991025925">
        <ele>1120</ele>
        <time>2010-06-13T08:57:04Z</time>
      </trkpt>
      <trkpt lat="45.913624009117484" lon="9.068698966875672">
        <ele>1120</ele>
        <time>2010-06-13T08:57:05Z</time>
      </trkpt>
      <trkpt lat="45.913597019389272" lon="9.068750012665987">
        <ele>1120</ele>
        <time>2010-06-13T08:57:06Z</time>
      </trkpt>
      <trkpt lat="45.913578998297453" lon="9.068775996565819">
        <ele>1120</ele>
        <time>2010-06-13T08:57:07Z</time>
      </trkpt>
      <trkpt lat="45.913552008569241" lon="9.068814972415566">
        <ele>1120</ele>
        <time>2010-06-13T08:57:08Z</time>
      </trkpt>
      <trkpt lat="45.913533987477422" lon="9.068826958537102">
        <ele>1120</ele>
        <time>2010-06-13T08:57:09Z</time>
      </trkpt>
      <trkpt lat="45.913525018841028" lon="9.068853026255965">
        <ele>1121</ele>
        <time>2010-06-13T08:57:10Z</time>
      </trkpt>
      <trkpt lat="45.913525018841028" lon="9.068879010155797">
        <ele>1121</ele>
        <time>2010-06-13T08:57:11Z</time>
      </trkpt>
      <trkpt lat="45.913515966385603" lon="9.068892002105713">
        <ele>1120</ele>
        <time>2010-06-13T08:57:12Z</time>
      </trkpt>
      <trkpt lat="45.913515966385603" lon="9.068930977955461">
        <ele>1120</ele>
        <time>2010-06-13T08:57:13Z</time>
      </trkpt>
      <trkpt lat="45.913506997749209" lon="9.068969031795859">
        <ele>1120</ele>
        <time>2010-06-13T08:57:14Z</time>
      </trkpt>
      <trkpt lat="45.913498029112816" lon="9.069020999595523">
        <ele>1120</ele>
        <time>2010-06-13T08:57:15Z</time>
      </trkpt>
      <trkpt lat="45.913488976657391" lon="9.06905896961689">
        <ele>1120</ele>
        <time>2010-06-13T08:57:16Z</time>
      </trkpt>
      <trkpt lat="45.913471039384604" lon="9.069111021235585">
        <ele>1120</ele>
        <time>2010-06-13T08:57:17Z</time>
      </trkpt>
      <trkpt lat="45.913461986929178" lon="9.069162989035249">
        <ele>1120</ele>
        <time>2010-06-13T08:57:18Z</time>
      </trkpt>
      <trkpt lat="45.913453018292785" lon="9.069214034825563">
        <ele>1121</ele>
        <time>2010-06-13T08:57:19Z</time>
      </trkpt>
      <trkpt lat="45.913443965837359" lon="9.069266002625227">
        <ele>1121</ele>
        <time>2010-06-13T08:57:20Z</time>
      </trkpt>
      <trkpt lat="45.913443965837359" lon="9.069303972646594">
        <ele>1121</ele>
        <time>2010-06-13T08:57:21Z</time>
      </trkpt>
      <trkpt lat="45.913434997200966" lon="9.069343032315373">
        <ele>1121</ele>
        <time>2010-06-13T08:57:22Z</time>
      </trkpt>
      <trkpt lat="45.913426028564572" lon="9.069382008165121">
        <ele>1121</ele>
        <time>2010-06-13T08:57:23Z</time>
      </trkpt>
      <trkpt lat="45.913426028564572" lon="9.069420984014869">
        <ele>1121</ele>
        <time>2010-06-13T08:57:24Z</time>
      </trkpt>
      <trkpt lat="45.913416976109147" lon="9.06944596208632">
        <ele>1121</ele>
        <time>2010-06-13T08:57:25Z</time>
      </trkpt>
      <trkpt lat="45.913416976109147" lon="9.069485021755099">
        <ele>1121</ele>
        <time>2010-06-13T08:57:26Z</time>
      </trkpt>
      <trkpt lat="45.913416976109147" lon="9.069498013705015">
        <ele>1122</ele>
        <time>2010-06-13T08:57:27Z</time>
      </trkpt>
      <trkpt lat="45.91339903883636" lon="9.069523997604847">
        <ele>1122</ele>
        <time>2010-06-13T08:57:28Z</time>
      </trkpt>
      <trkpt lat="45.913408007472754" lon="9.069548975676298">
        <ele>1122</ele>
        <time>2010-06-13T08:57:29Z</time>
      </trkpt>
      <trkpt lat="45.913408007472754" lon="9.069601027294993">
        <ele>1123</ele>
        <time>2010-06-13T08:57:31Z</time>
      </trkpt>
      <trkpt lat="45.913408007472754" lon="9.069627011194825">
        <ele>1123</ele>
        <time>2010-06-13T08:57:32Z</time>
      </trkpt>
      <trkpt lat="45.91339903883636" lon="9.069665987044573">
        <ele>1123</ele>
        <time>2010-06-13T08:57:33Z</time>
      </trkpt>
      <trkpt lat="45.913389986380935" lon="9.069730024784803">
        <ele>1123</ele>
        <time>2010-06-13T08:57:35Z</time>
      </trkpt>
      <trkpt lat="45.913389986380935" lon="9.069780986756086">
        <ele>1124</ele>
        <time>2010-06-13T08:57:37Z</time>
      </trkpt>
      <trkpt lat="45.913381017744541" lon="9.069859022274613">
        <ele>1124</ele>
        <time>2010-06-13T08:57:40Z</time>
      </trkpt>
      <trkpt lat="45.913371965289116" lon="9.069885006174445">
        <ele>1124</ele>
        <time>2010-06-13T08:57:41Z</time>
      </trkpt>
      <trkpt lat="45.913371965289116" lon="9.069910990074277">
        <ele>1124</ele>
        <time>2010-06-13T08:57:42Z</time>
      </trkpt>
      <trkpt lat="45.913381017744541" lon="9.069922976195812">
        <ele>1124</ele>
        <time>2010-06-13T08:57:43Z</time>
      </trkpt>
      <trkpt lat="45.913381017744541" lon="9.069948960095644">
        <ele>1125</ele>
        <time>2010-06-13T08:57:44Z</time>
      </trkpt>
      <trkpt lat="45.91339903883636" lon="9.069975027814508">
        <ele>1124</ele>
        <time>2010-06-13T08:57:45Z</time>
      </trkpt>
      <trkpt lat="45.913415970280766" lon="9.070014003664255">
        <ele>1124</ele>
        <time>2010-06-13T08:57:46Z</time>
      </trkpt>
      <trkpt lat="45.913442960008979" lon="9.070064965635538">
        <ele>1123</ele>
        <time>2010-06-13T08:57:47Z</time>
      </trkpt>
      <trkpt lat="45.913452012464404" lon="9.070130009204149">
        <ele>1124</ele>
        <time>2010-06-13T08:57:48Z</time>
      </trkpt>
      <trkpt lat="45.913460981100798" lon="9.070180971175432">
        <ele>1124</ele>
        <time>2010-06-13T08:57:49Z</time>
      </trkpt>
      <trkpt lat="45.913460981100798" lon="9.070220030844212">
        <ele>1124</ele>
        <time>2010-06-13T08:57:50Z</time>
      </trkpt>
      <trkpt lat="45.913470033556223" lon="9.07028398476541">
        <ele>1125</ele>
        <time>2010-06-13T08:57:52Z</time>
      </trkpt>
      <trkpt lat="45.913470033556223" lon="9.070309968665242">
        <ele>1125</ele>
        <time>2010-06-13T08:57:53Z</time>
      </trkpt>
      <trkpt lat="45.913479002192616" lon="9.070336036384106">
        <ele>1124</ele>
        <time>2010-06-13T08:57:54Z</time>
      </trkpt>
      <trkpt lat="45.91348797082901" lon="9.070349028334022">
        <ele>1125</ele>
        <time>2010-06-13T08:57:55Z</time>
      </trkpt>
      <trkpt lat="45.913497023284435" lon="9.070375012233853">
        <ele>1125</ele>
        <time>2010-06-13T08:57:56Z</time>
      </trkpt>
      <trkpt lat="45.913505991920829" lon="9.070400996133685">
        <ele>1125</ele>
        <time>2010-06-13T08:57:57Z</time>
      </trkpt>
      <trkpt lat="45.913514960557222" lon="9.070438966155052">
        <ele>1125</ele>
        <time>2010-06-13T08:57:58Z</time>
      </trkpt>
      <trkpt lat="45.913505991920829" lon="9.070528987795115">
        <ele>1125</ele>
        <time>2010-06-13T08:58:01Z</time>
      </trkpt>
      <trkpt lat="45.913514960557222" lon="9.070554971694946">
        <ele>1125</ele>
        <time>2010-06-13T08:58:02Z</time>
      </trkpt>
      <trkpt lat="45.913514960557222" lon="9.07058103941381">
        <ele>1125</ele>
        <time>2010-06-13T08:58:03Z</time>
      </trkpt>
      <trkpt lat="45.913514960557222" lon="9.070607023313642">
        <ele>1125</ele>
        <time>2010-06-13T08:58:04Z</time>
      </trkpt>
      <trkpt lat="45.913524013012648" lon="9.070658991113305">
        <ele>1125</ele>
        <time>2010-06-13T08:58:06Z</time>
      </trkpt>
      <trkpt lat="45.913524013012648" lon="9.070683969184756">
        <ele>1125</ele>
        <time>2010-06-13T08:58:07Z</time>
      </trkpt>
      <trkpt lat="45.913524013012648" lon="9.07071003690362">
        <ele>1125</ele>
        <time>2010-06-13T08:58:08Z</time>
      </trkpt>
      <trkpt lat="45.913524013012648" lon="9.070773990824819">
        <ele>1125</ele>
        <time>2010-06-13T08:58:10Z</time>
      </trkpt>
      <trkpt lat="45.913524013012648" lon="9.07079997472465">
        <ele>1124</ele>
        <time>2010-06-13T08:58:11Z</time>
      </trkpt>
      <trkpt lat="45.913524013012648" lon="9.07083903439343">
        <ele>1125</ele>
        <time>2010-06-13T08:58:13Z</time>
      </trkpt>
      <trkpt lat="45.913524013012648" lon="9.070865018293262">
        <ele>1124</ele>
        <time>2010-06-13T08:58:14Z</time>
      </trkpt>
      <trkpt lat="45.913532981649041" lon="9.070903994143009">
        <ele>1124</ele>
        <time>2010-06-13T08:58:15Z</time>
      </trkpt>
      <trkpt lat="45.913532981649041" lon="9.07092897221446">
        <ele>1125</ele>
        <time>2010-06-13T08:58:16Z</time>
      </trkpt>
      <trkpt lat="45.913542034104466" lon="9.07096803188324">
        <ele>1124</ele>
        <time>2010-06-13T08:58:17Z</time>
      </trkpt>
      <trkpt lat="45.91355100274086" lon="9.071007007732987">
        <ele>1124</ele>
        <time>2010-06-13T08:58:18Z</time>
      </trkpt>
      <trkpt lat="45.913559971377254" lon="9.071044977754355">
        <ele>1123</ele>
        <time>2010-06-13T08:58:19Z</time>
      </trkpt>
      <trkpt lat="45.913569023832679" lon="9.07109702937305">
        <ele>1122</ele>
        <time>2010-06-13T08:58:20Z</time>
      </trkpt>
      <trkpt lat="45.913586961105466" lon="9.071148997172713">
        <ele>1122</ele>
        <time>2010-06-13T08:58:21Z</time>
      </trkpt>
      <trkpt lat="45.913604982197285" lon="9.07122602686286">
        <ele>1123</ele>
        <time>2010-06-13T08:58:22Z</time>
      </trkpt>
      <trkpt lat="45.91361403465271" lon="9.071290986612439">
        <ele>1123</ele>
        <time>2010-06-13T08:58:23Z</time>
      </trkpt>
      <trkpt lat="45.913631971925497" lon="9.071368016302586">
        <ele>1123</ele>
        <time>2010-06-13T08:58:24Z</time>
      </trkpt>
      <trkpt lat="45.913649993017316" lon="9.071431970223784">
        <ele>1123</ele>
        <time>2010-06-13T08:58:25Z</time>
      </trkpt>
      <trkpt lat="45.913658961653709" lon="9.071497013792396">
        <ele>1123</ele>
        <time>2010-06-13T08:58:26Z</time>
      </trkpt>
      <trkpt lat="45.913676982745528" lon="9.071560967713594">
        <ele>1123</ele>
        <time>2010-06-13T08:58:27Z</time>
      </trkpt>
      <trkpt lat="45.913693998008966" lon="9.071639003232122">
        <ele>1123</ele>
        <time>2010-06-13T08:58:28Z</time>
      </trkpt>
      <trkpt lat="45.91370296664536" lon="9.071689965203404">
        <ele>1122</ele>
        <time>2010-06-13T08:58:29Z</time>
      </trkpt>
      <trkpt lat="45.913712019100785" lon="9.071768000721932">
        <ele>1122</ele>
        <time>2010-06-13T08:58:30Z</time>
      </trkpt>
      <trkpt lat="45.913712019100785" lon="9.071818962693214">
        <ele>1121</ele>
        <time>2010-06-13T08:58:31Z</time>
      </trkpt>
      <trkpt lat="45.913712019100785" lon="9.071858022361994">
        <ele>1121</ele>
        <time>2010-06-13T08:58:32Z</time>
      </trkpt>
      <trkpt lat="45.913712019100785" lon="9.071947960183024">
        <ele>1122</ele>
        <time>2010-06-13T08:58:34Z</time>
      </trkpt>
      <trkpt lat="45.913693998008966" lon="9.072025995701551">
        <ele>1121</ele>
        <time>2010-06-13T08:58:36Z</time>
      </trkpt>
      <trkpt lat="45.913675976917148" lon="9.072063965722919">
        <ele>1121</ele>
        <time>2010-06-13T08:58:37Z</time>
      </trkpt>
      <trkpt lat="45.913658039644361" lon="9.072103025391698">
        <ele>1121</ele>
        <time>2010-06-13T08:58:38Z</time>
      </trkpt>
      <trkpt lat="45.913640018552542" lon="9.072153987362981">
        <ele>1122</ele>
        <time>2010-06-13T08:58:39Z</time>
      </trkpt>
      <trkpt lat="45.913613028824329" lon="9.072192963212729">
        <ele>1121</ele>
        <time>2010-06-13T08:58:40Z</time>
      </trkpt>
      <trkpt lat="45.913586039096117" lon="9.072244009003043">
        <ele>1121</ele>
        <time>2010-06-13T08:58:41Z</time>
      </trkpt>
      <trkpt lat="45.913558965548873" lon="9.072308968752623">
        <ele>1120</ele>
        <time>2010-06-13T08:58:42Z</time>
      </trkpt>
      <trkpt lat="45.913523007184267" lon="9.072373006492853">
        <ele>1121</ele>
        <time>2010-06-13T08:58:43Z</time>
      </trkpt>
      <trkpt lat="45.913477996364236" lon="9.072437966242433">
        <ele>1121</ele>
        <time>2010-06-13T08:58:44Z</time>
      </trkpt>
      <trkpt lat="45.913432985544205" lon="9.072502003982663">
        <ele>1121</ele>
        <time>2010-06-13T08:58:45Z</time>
      </trkpt>
      <trkpt lat="45.913397027179599" lon="9.072566963732243">
        <ele>1121</ele>
        <time>2010-06-13T08:58:46Z</time>
      </trkpt>
      <trkpt lat="45.913370037451386" lon="9.072643993422389">
        <ele>1120</ele>
        <time>2010-06-13T08:58:47Z</time>
      </trkpt>
      <trkpt lat="45.913342963904142" lon="9.072721023112536">
        <ele>1119</ele>
        <time>2010-06-13T08:58:48Z</time>
      </trkpt>
      <trkpt lat="45.913325026631355" lon="9.072798974812031">
        <ele>1118</ele>
        <time>2010-06-13T08:58:49Z</time>
      </trkpt>
      <trkpt lat="45.913307005539536" lon="9.072863012552261">
        <ele>1117</ele>
        <time>2010-06-13T08:58:50Z</time>
      </trkpt>
      <trkpt lat="45.913288984447718" lon="9.07292696647346">
        <ele>1117</ele>
        <time>2010-06-13T08:58:51Z</time>
      </trkpt>
      <trkpt lat="45.913270963355899" lon="9.07296602614224">
        <ele>1116</ele>
        <time>2010-06-13T08:58:52Z</time>
      </trkpt>
      <trkpt lat="45.913243973627687" lon="9.073005001991987">
        <ele>1116</ele>
        <time>2010-06-13T08:58:53Z</time>
      </trkpt>
      <trkpt lat="45.9132070094347" lon="9.073030985891819">
        <ele>1117</ele>
        <time>2010-06-13T08:58:54Z</time>
      </trkpt>
      <trkpt lat="45.913181025534868" lon="9.073043977841735">
        <ele>1116</ele>
        <time>2010-06-13T08:58:55Z</time>
      </trkpt>
      <trkpt lat="45.913154035806656" lon="9.073069039732218">
        <ele>1116</ele>
        <time>2010-06-13T08:58:56Z</time>
      </trkpt>
      <trkpt lat="45.913136014714837" lon="9.073069039732218">
        <ele>1115</ele>
        <time>2010-06-13T08:58:57Z</time>
      </trkpt>
      <trkpt lat="45.913116987794638" lon="9.073082031682134">
        <ele>1115</ele>
        <time>2010-06-13T08:58:58Z</time>
      </trkpt>
      <trkpt lat="45.913109024986625" lon="9.07309502363205">
        <ele>1116</ele>
        <time>2010-06-13T08:58:59Z</time>
      </trkpt>
      <trkpt lat="45.913098966702819" lon="9.07322402112186">
        <ele>1117</ele>
        <time>2010-06-13T09:26:50Z</time>
      </trkpt>
      <trkpt lat="45.913091003894806" lon="9.073237013071775">
        <ele>1117</ele>
        <time>2010-06-13T09:26:51Z</time>
      </trkpt>
      <trkpt lat="45.913081029430032" lon="9.073250005021691">
        <ele>1117</ele>
        <time>2010-06-13T09:26:52Z</time>
      </trkpt>
      <trkpt lat="45.913071976974607" lon="9.073275988921523">
        <ele>1118</ele>
        <time>2010-06-13T09:26:53Z</time>
      </trkpt>
      <trkpt lat="45.913071976974607" lon="9.073287975043058">
        <ele>1118</ele>
        <time>2010-06-13T09:26:54Z</time>
      </trkpt>
      <trkpt lat="45.913071976974607" lon="9.073287975043058">
        <ele>1118</ele>
        <time>2010-06-13T09:26:55Z</time>
      </trkpt>
      <trkpt lat="45.913063008338213" lon="9.073300966992974">
        <ele>1117</ele>
        <time>2010-06-13T09:26:56Z</time>
      </trkpt>
      <trkpt lat="45.913054039701819" lon="9.07331395894289">
        <ele>1118</ele>
        <time>2010-06-13T09:26:57Z</time>
      </trkpt>
      <trkpt lat="45.913054039701819" lon="9.073327034711838">
        <ele>1118</ele>
        <time>2010-06-13T09:26:58Z</time>
      </trkpt>
      <trkpt lat="45.913044987246394" lon="9.073327034711838">
        <ele>1118</ele>
        <time>2010-06-13T09:26:59Z</time>
      </trkpt>
      <trkpt lat="45.913026966154575" lon="9.073469024151564">
        <ele>1118</ele>
        <time>2010-06-13T09:27:30Z</time>
      </trkpt>
      <trkpt lat="45.913026966154575" lon="9.073494002223015">
        <ele>1118</ele>
        <time>2010-06-13T09:27:31Z</time>
      </trkpt>
      <trkpt lat="45.913026966154575" lon="9.073519986122847">
        <ele>1118</ele>
        <time>2010-06-13T09:27:32Z</time>
      </trkpt>
      <trkpt lat="45.913036018610001" lon="9.073558961972594">
        <ele>1118</ele>
        <time>2010-06-13T09:27:33Z</time>
      </trkpt>
      <trkpt lat="45.913044987246394" lon="9.073598021641374">
        <ele>1116</ele>
        <time>2010-06-13T09:27:34Z</time>
      </trkpt>
      <trkpt lat="45.913044987246394" lon="9.073624005541205">
        <ele>1116</ele>
        <time>2010-06-13T09:27:35Z</time>
      </trkpt>
      <trkpt lat="45.913044987246394" lon="9.073701035231352">
        <ele>1117</ele>
        <time>2010-06-13T09:27:37Z</time>
      </trkpt>
      <trkpt lat="45.913044987246394" lon="9.073777981102467">
        <ele>1117</ele>
        <time>2010-06-13T09:27:39Z</time>
      </trkpt>
      <trkpt lat="45.913044987246394" lon="9.073817040771246">
        <ele>1117</ele>
        <time>2010-06-13T09:27:40Z</time>
      </trkpt>
      <trkpt lat="45.913036018610001" lon="9.073856016620994">
        <ele>1117</ele>
        <time>2010-06-13T09:27:41Z</time>
      </trkpt>
      <trkpt lat="45.913036018610001" lon="9.073893986642361">
        <ele>1118</ele>
        <time>2010-06-13T09:27:42Z</time>
      </trkpt>
      <trkpt lat="45.913036018610001" lon="9.073932962492108">
        <ele>1118</ele>
        <time>2010-06-13T09:27:43Z</time>
      </trkpt>
      <trkpt lat="45.913026966154575" lon="9.073959030210972">
        <ele>1119</ele>
        <time>2010-06-13T09:27:44Z</time>
      </trkpt>
      <trkpt lat="45.913026966154575" lon="9.073997000232339">
        <ele>1119</ele>
        <time>2010-06-13T09:27:45Z</time>
      </trkpt>
      <trkpt lat="45.913026966154575" lon="9.074035976082087">
        <ele>1118</ele>
        <time>2010-06-13T09:27:46Z</time>
      </trkpt>
      <trkpt lat="45.913026966154575" lon="9.074164973571897">
        <ele>1119</ele>
        <time>2010-06-13T09:27:50Z</time>
      </trkpt>
      <trkpt lat="45.913026966154575" lon="9.07419104129076">
        <ele>1119</ele>
        <time>2010-06-13T09:27:51Z</time>
      </trkpt>
      <trkpt lat="45.913036018610001" lon="9.074217025190592">
        <ele>1119</ele>
        <time>2010-06-13T09:27:52Z</time>
      </trkpt>
      <trkpt lat="45.913044987246394" lon="9.074242003262043">
        <ele>1118</ele>
        <time>2010-06-13T09:27:53Z</time>
      </trkpt>
      <trkpt lat="45.913044987246394" lon="9.074267987161875">
        <ele>1118</ele>
        <time>2010-06-13T09:27:54Z</time>
      </trkpt>
      <trkpt lat="45.913054039701819" lon="9.074306963011622">
        <ele>1119</ele>
        <time>2010-06-13T09:27:55Z</time>
      </trkpt>
      <trkpt lat="45.913063008338213" lon="9.074346022680402">
        <ele>1118</ele>
        <time>2010-06-13T09:27:56Z</time>
      </trkpt>
      <trkpt lat="45.913054039701819" lon="9.074383992701769">
        <ele>1118</ele>
        <time>2010-06-13T09:27:57Z</time>
      </trkpt>
      <trkpt lat="45.913071976974607" lon="9.074551966041327">
        <ele>1118</ele>
        <time>2010-06-13T09:28:00Z</time>
      </trkpt>
      <trkpt lat="45.913081029430032" lon="9.074616003781557">
        <ele>1117</ele>
        <time>2010-06-13T09:28:01Z</time>
      </trkpt>
      <trkpt lat="45.913081029430032" lon="9.074667971581221">
        <ele>1117</ele>
        <time>2010-06-13T09:28:02Z</time>
      </trkpt>
      <trkpt lat="45.913088992238045" lon="9.074732009321451">
        <ele>1117</ele>
        <time>2010-06-13T09:28:03Z</time>
      </trkpt>
      <trkpt lat="45.913097960874438" lon="9.074783977121115">
        <ele>1117</ele>
        <time>2010-06-13T09:28:04Z</time>
      </trkpt>
      <trkpt lat="45.913107013329864" lon="9.074849020689726">
        <ele>1117</ele>
        <time>2010-06-13T09:28:05Z</time>
      </trkpt>
      <trkpt lat="45.913115981966257" lon="9.074925966560841">
        <ele>1117</ele>
        <time>2010-06-13T09:28:06Z</time>
      </trkpt>
      <trkpt lat="45.913125034421682" lon="9.075002996250987">
        <ele>1116</ele>
        <time>2010-06-13T09:28:07Z</time>
      </trkpt>
      <trkpt lat="45.913134003058076" lon="9.075144985690713">
        <ele>1117</ele>
        <time>2010-06-13T09:28:09Z</time>
      </trkpt>
      <trkpt lat="45.913134003058076" lon="9.075236013159156">
        <ele>1117</ele>
        <time>2010-06-13T09:28:10Z</time>
      </trkpt>
      <trkpt lat="45.913134003058076" lon="9.075312959030271">
        <ele>1116</ele>
        <time>2010-06-13T09:28:11Z</time>
      </trkpt>
      <trkpt lat="45.913142971694469" lon="9.075389988720417">
        <ele>1116</ele>
        <time>2010-06-13T09:28:12Z</time>
      </trkpt>
      <trkpt lat="45.913152024149895" lon="9.07548101618886">
        <ele>1115</ele>
        <time>2010-06-13T09:28:13Z</time>
      </trkpt>
      <trkpt lat="45.913152024149895" lon="9.075557962059975">
        <ele>1114</ele>
        <time>2010-06-13T09:28:14Z</time>
      </trkpt>
      <trkpt lat="45.913160992786288" lon="9.075647983700037">
        <ele>1114</ele>
        <time>2010-06-13T09:28:15Z</time>
      </trkpt>
      <trkpt lat="45.913152024149895" lon="9.075738005340099">
        <ele>1114</ele>
        <time>2010-06-13T09:28:16Z</time>
      </trkpt>
      <trkpt lat="45.913142971694469" lon="9.075816040858626">
        <ele>1115</ele>
        <time>2010-06-13T09:28:17Z</time>
      </trkpt>
      <trkpt lat="45.913134003058076" lon="9.075905978679657">
        <ele>1114</ele>
        <time>2010-06-13T09:28:18Z</time>
      </trkpt>
      <trkpt lat="45.913134003058076" lon="9.075983008369803">
        <ele>1112</ele>
        <time>2010-06-13T09:28:19Z</time>
      </trkpt>
      <trkpt lat="45.913134003058076" lon="9.076060960069299">
        <ele>1110</ele>
        <time>2010-06-13T09:28:20Z</time>
      </trkpt>
      <trkpt lat="45.913152024149895" lon="9.076137989759445">
        <ele>1111</ele>
        <time>2010-06-13T09:28:21Z</time>
      </trkpt>
      <trkpt lat="45.913179013878107" lon="9.076216025277972">
        <ele>1111</ele>
        <time>2010-06-13T09:28:22Z</time>
      </trkpt>
      <trkpt lat="45.913206003606319" lon="9.076292971149087">
        <ele>1111</ele>
        <time>2010-06-13T09:28:23Z</time>
      </trkpt>
      <trkpt lat="45.913285966962576" lon="9.076434960588813">
        <ele>1112</ele>
        <time>2010-06-13T09:28:25Z</time>
      </trkpt>
      <trkpt lat="45.913322009146214" lon="9.076524982228875">
        <ele>1112</ele>
        <time>2010-06-13T09:28:26Z</time>
      </trkpt>
      <trkpt lat="45.913348998874426" lon="9.076602011919022">
        <ele>1112</ele>
        <time>2010-06-13T09:28:27Z</time>
      </trkpt>
      <trkpt lat="45.913385041058064" lon="9.076666971668601">
        <ele>1111</ele>
        <time>2010-06-13T09:28:28Z</time>
      </trkpt>
      <trkpt lat="45.913439020514488" lon="9.076719023287296">
        <ele>1109</ele>
        <time>2010-06-13T09:28:29Z</time>
      </trkpt>
      <trkpt lat="45.913492999970913" lon="9.076756993308663">
        <ele>1106</ele>
        <time>2010-06-13T09:28:30Z</time>
      </trkpt>
      <trkpt lat="45.913556031882763" lon="9.07683502882719">
        <ele>1106</ele>
        <time>2010-06-13T09:28:31Z</time>
      </trkpt>
      <trkpt lat="45.913610011339188" lon="9.076898982748389">
        <ele>1105</ele>
        <time>2010-06-13T09:28:32Z</time>
      </trkpt>
      <trkpt lat="45.913645969703794" lon="9.076951034367085">
        <ele>1103</ele>
        <time>2010-06-13T09:28:33Z</time>
      </trkpt>
      <trkpt lat="45.913682011887431" lon="9.077003002166748">
        <ele>1104</ele>
        <time>2010-06-13T09:28:34Z</time>
      </trkpt>
      <trkpt lat="45.913709001615644" lon="9.077053964138031">
        <ele>1104</ele>
        <time>2010-06-13T09:28:35Z</time>
      </trkpt>
      <trkpt lat="45.913735991343856" lon="9.077106015756726">
        <ele>1104</ele>
        <time>2010-06-13T09:28:36Z</time>
      </trkpt>
      <trkpt lat="45.913762981072068" lon="9.07715798355639">
        <ele>1103</ele>
        <time>2010-06-13T09:28:37Z</time>
      </trkpt>
      <trkpt lat="45.913772033527493" lon="9.077209029346705">
        <ele>1103</ele>
        <time>2010-06-13T09:28:38Z</time>
      </trkpt>
      <trkpt lat="45.913789970800281" lon="9.077260997146368">
        <ele>1103</ele>
        <time>2010-06-13T09:28:39Z</time>
      </trkpt>
      <trkpt lat="45.913816960528493" lon="9.0772869810462">
        <ele>1102</ele>
        <time>2010-06-13T09:28:40Z</time>
      </trkpt>
      <trkpt lat="45.913853002712131" lon="9.077325034886599">
        <ele>1102</ele>
        <time>2010-06-13T09:28:41Z</time>
      </trkpt>
      <trkpt lat="45.913888961076736" lon="9.07735101878643">
        <ele>1102</ele>
        <time>2010-06-13T09:28:42Z</time>
      </trkpt>
      <trkpt lat="45.913933971896768" lon="9.077377002686262">
        <ele>1102</ele>
        <time>2010-06-13T09:28:43Z</time>
      </trkpt>
      <trkpt lat="45.913970014080405" lon="9.07741597853601">
        <ele>1102</ele>
        <time>2010-06-13T09:28:44Z</time>
      </trkpt>
      <trkpt lat="45.914005972445011" lon="9.077441962435842">
        <ele>1100</ele>
        <time>2010-06-13T09:28:45Z</time>
      </trkpt>
      <trkpt lat="45.914050983265042" lon="9.07748001627624">
        <ele>1099</ele>
        <time>2010-06-13T09:28:46Z</time>
      </trkpt>
      <trkpt lat="45.914077972993255" lon="9.077518992125988">
        <ele>1098</ele>
        <time>2010-06-13T09:28:47Z</time>
      </trkpt>
      <trkpt lat="45.914114015176892" lon="9.077570959925652">
        <ele>1099</ele>
        <time>2010-06-13T09:28:48Z</time>
      </trkpt>
      <trkpt lat="45.914141004905105" lon="9.077647989615798">
        <ele>1099</ele>
        <time>2010-06-13T09:28:49Z</time>
      </trkpt>
      <trkpt lat="45.914159025996923" lon="9.077726025134325">
        <ele>1099</ele>
        <time>2010-06-13T09:28:50Z</time>
      </trkpt>
      <trkpt lat="45.914176041260362" lon="9.07780297100544">
        <ele>1098</ele>
        <time>2010-06-13T09:28:51Z</time>
      </trkpt>
      <trkpt lat="45.914186015725136" lon="9.077892992645502">
        <ele>1098</ele>
        <time>2010-06-13T09:28:52Z</time>
      </trkpt>
      <trkpt lat="45.914185009896755" lon="9.078176971524954">
        <ele>1094</ele>
        <time>2010-06-13T09:28:55Z</time>
      </trkpt>
      <trkpt lat="45.914193978533149" lon="9.078266993165016">
        <ele>1094</ele>
        <time>2010-06-13T09:28:56Z</time>
      </trkpt>
      <trkpt lat="45.914203030988574" lon="9.078370006754994">
        <ele>1094</ele>
        <time>2010-06-13T09:28:57Z</time>
      </trkpt>
      <trkpt lat="45.914211999624968" lon="9.078473020344973">
        <ele>1094</ele>
        <time>2010-06-13T09:28:58Z</time>
      </trkpt>
      <trkpt lat="45.914220968261361" lon="9.078563963994384">
        <ele>1094</ele>
        <time>2010-06-13T09:28:59Z</time>
      </trkpt>
      <trkpt lat="45.914230020716786" lon="9.078666977584362">
        <ele>1094</ele>
        <time>2010-06-13T09:29:00Z</time>
      </trkpt>
      <trkpt lat="45.914248041808605" lon="9.07876999117434">
        <ele>1094</ele>
        <time>2010-06-13T09:29:01Z</time>
      </trkpt>
      <trkpt lat="45.91423898935318" lon="9.078873004764319">
        <ele>1093</ele>
        <time>2010-06-13T09:29:02Z</time>
      </trkpt>
      <trkpt lat="45.91423898935318" lon="9.078976018354297">
        <ele>1093</ele>
        <time>2010-06-13T09:29:03Z</time>
      </trkpt>
      <trkpt lat="45.914247035980225" lon="9.079066962003708">
        <ele>1092</ele>
        <time>2010-06-13T09:29:04Z</time>
      </trkpt>
      <trkpt lat="45.914274025708437" lon="9.079169975593686">
        <ele>1094</ele>
        <time>2010-06-13T09:29:05Z</time>
      </trkpt>
      <trkpt lat="45.914310989901423" lon="9.079272989183664">
        <ele>1094</ele>
        <time>2010-06-13T09:29:06Z</time>
      </trkpt>
      <trkpt lat="45.914336973801255" lon="9.079388994723558">
        <ele>1092</ele>
        <time>2010-06-13T09:29:07Z</time>
      </trkpt>
      <trkpt lat="45.914373015984893" lon="9.079492008313537">
        <ele>1091</ele>
        <time>2010-06-13T09:29:08Z</time>
      </trkpt>
      <trkpt lat="45.914400005713105" lon="9.079596027731895">
        <ele>1091</ele>
        <time>2010-06-13T09:29:09Z</time>
      </trkpt>
      <trkpt lat="45.914418026804924" lon="9.079699041321874">
        <ele>1090</ele>
        <time>2010-06-13T09:29:10Z</time>
      </trkpt>
      <trkpt lat="45.914445016533136" lon="9.07980197109282">
        <ele>1090</ele>
        <time>2010-06-13T09:29:11Z</time>
      </trkpt>
      <trkpt lat="45.914472006261349" lon="9.079917976632714">
        <ele>1090</ele>
        <time>2010-06-13T09:29:12Z</time>
      </trkpt>
      <trkpt lat="45.91451701708138" lon="9.080020990222693">
        <ele>1090</ele>
        <time>2010-06-13T09:29:13Z</time>
      </trkpt>
      <trkpt lat="45.914552975445986" lon="9.080111011862755">
        <ele>1090</ele>
        <time>2010-06-13T09:29:14Z</time>
      </trkpt>
      <trkpt lat="45.914597986266017" lon="9.080202039331198">
        <ele>1090</ele>
        <time>2010-06-13T09:29:15Z</time>
      </trkpt>
      <trkpt lat="45.914651965722442" lon="9.080291977152228">
        <ele>1090</ele>
        <time>2010-06-13T09:29:16Z</time>
      </trkpt>
      <trkpt lat="45.914706028997898" lon="9.080381998792291">
        <ele>1090</ele>
        <time>2010-06-13T09:29:17Z</time>
      </trkpt>
      <trkpt lat="45.914760008454323" lon="9.080460034310818">
        <ele>1088</ele>
        <time>2010-06-13T09:29:18Z</time>
      </trkpt>
      <trkpt lat="45.914805019274354" lon="9.080536980181932">
        <ele>1087</ele>
        <time>2010-06-13T09:29:19Z</time>
      </trkpt>
      <trkpt lat="45.914850030094385" lon="9.08061501570046">
        <ele>1086</ele>
        <time>2010-06-13T09:29:20Z</time>
      </trkpt>
      <trkpt lat="45.914894035086036" lon="9.080705037340522">
        <ele>1085</ele>
        <time>2010-06-13T09:29:21Z</time>
      </trkpt>
      <trkpt lat="45.914938962087035" lon="9.080781983211637">
        <ele>1085</ele>
        <time>2010-06-13T09:29:22Z</time>
      </trkpt>
      <trkpt lat="45.914993025362492" lon="9.080847026780248">
        <ele>1084</ele>
        <time>2010-06-13T09:29:23Z</time>
      </trkpt>
      <trkpt lat="45.915048010647297" lon="9.080911986529827">
        <ele>1084</ele>
        <time>2010-06-13T09:29:24Z</time>
      </trkpt>
      <trkpt lat="45.915092015638947" lon="9.080976024270058">
        <ele>1085</ele>
        <time>2010-06-13T09:29:25Z</time>
      </trkpt>
      <trkpt lat="45.915137026458979" lon="9.081040984019637">
        <ele>1085</ele>
        <time>2010-06-13T09:29:26Z</time>
      </trkpt>
      <trkpt lat="45.915164016187191" lon="9.081118013709784">
        <ele>1086</ele>
        <time>2010-06-13T09:29:27Z</time>
      </trkpt>
      <trkpt lat="45.915209027007222" lon="9.081195965409279">
        <ele>1085</ele>
        <time>2010-06-13T09:29:28Z</time>
      </trkpt>
      <trkpt lat="45.915236016735435" lon="9.081285987049341">
        <ele>1085</ele>
        <time>2010-06-13T09:29:29Z</time>
      </trkpt>
      <trkpt lat="45.91527197510004" lon="9.081350024789572">
        <ele>1083</ele>
        <time>2010-06-13T09:29:30Z</time>
      </trkpt>
      <trkpt lat="45.915289996191859" lon="9.081414984539151">
        <ele>1083</ele>
        <time>2010-06-13T09:29:31Z</time>
      </trkpt>
      <trkpt lat="45.915298964828253" lon="9.081466030329466">
        <ele>1082</ele>
        <time>2010-06-13T09:29:32Z</time>
      </trkpt>
      <trkpt lat="45.915298964828253" lon="9.081505006179214">
        <ele>1081</ele>
        <time>2010-06-13T09:29:33Z</time>
      </trkpt>
      <trkpt lat="45.915298964828253" lon="9.081530990079045">
        <ele>1082</ele>
        <time>2010-06-13T09:29:34Z</time>
      </trkpt>
      <trkpt lat="45.915289996191859" lon="9.081556973978877">
        <ele>1081</ele>
        <time>2010-06-13T09:29:35Z</time>
      </trkpt>
      <trkpt lat="45.915289996191859" lon="9.081569965928793">
        <ele>1081</ele>
        <time>2010-06-13T09:29:36Z</time>
      </trkpt>
      <trkpt lat="45.915289996191859" lon="9.08158203586936">
        <ele>1081</ele>
        <time>2010-06-13T09:29:37Z</time>
      </trkpt>
      <trkpt lat="45.915281027555466" lon="9.081608019769192">
        <ele>1082</ele>
        <time>2010-06-13T09:29:38Z</time>
      </trkpt>
      <trkpt lat="45.91527197510004" lon="9.081634003669024">
        <ele>1081</ele>
        <time>2010-06-13T09:29:39Z</time>
      </trkpt>
      <trkpt lat="45.91527197510004" lon="9.081659987568855">
        <ele>1080</ele>
        <time>2010-06-13T09:29:40Z</time>
      </trkpt>
      <trkpt lat="45.915263006463647" lon="9.081672979518771">
        <ele>1080</ele>
        <time>2010-06-13T09:29:41Z</time>
      </trkpt>
      <trkpt lat="45.915263006463647" lon="9.081685971468687">
        <ele>1081</ele>
        <time>2010-06-13T09:29:42Z</time>
      </trkpt>
      <trkpt lat="45.915254037827253" lon="9.081685971468687">
        <ele>1081</ele>
        <time>2010-06-13T09:29:43Z</time>
      </trkpt>
      <trkpt lat="45.915244985371828" lon="9.081698963418603">
        <ele>1081</ele>
        <time>2010-06-13T09:29:44Z</time>
      </trkpt>
      <trkpt lat="45.915226964280009" lon="9.081698963418603">
        <ele>1081</ele>
        <time>2010-06-13T09:29:45Z</time>
      </trkpt>
      <trkpt lat="45.915217995643616" lon="9.081698041409254">
        <ele>1081</ele>
        <time>2010-06-13T09:29:46Z</time>
      </trkpt>
      <trkpt lat="45.915199974551797" lon="9.081698041409254">
        <ele>1081</ele>
        <time>2010-06-13T09:29:47Z</time>
      </trkpt>
      <trkpt lat="45.915191005915403" lon="9.081698041409254">
        <ele>1082</ele>
        <time>2010-06-13T09:29:48Z</time>
      </trkpt>
      <trkpt lat="45.915172984823585" lon="9.081698041409254">
        <ele>1082</ele>
        <time>2010-06-13T09:29:49Z</time>
      </trkpt>
      <trkpt lat="45.915127974003553" lon="9.08171103335917">
        <ele>1082</ele>
        <time>2010-06-13T09:29:52Z</time>
      </trkpt>
      <trkpt lat="45.915110036730766" lon="9.08171103335917">
        <ele>1082</ele>
        <time>2010-06-13T09:29:53Z</time>
      </trkpt>
      <trkpt lat="45.915092015638947" lon="9.08171103335917">
        <ele>1082</ele>
        <time>2010-06-13T09:29:55Z</time>
      </trkpt>
      <trkpt lat="45.915082963183522" lon="9.08171103335917">
        <ele>1081</ele>
        <time>2010-06-13T09:29:57Z</time>
      </trkpt>
      <trkpt lat="45.915073994547129" lon="9.081724025309086">
        <ele>1082</ele>
        <time>2010-06-13T09:29:58Z</time>
      </trkpt>
      <trkpt lat="45.91494801454246" lon="9.081775993108749">
        <ele>1085</ele>
        <time>2010-06-13T09:30:09Z</time>
      </trkpt>
      <trkpt lat="45.914929993450642" lon="9.081774987280369">
        <ele>1085</ele>
        <time>2010-06-13T09:30:10Z</time>
      </trkpt>
      <trkpt lat="45.914921024814248" lon="9.081787979230285">
        <ele>1085</ele>
        <time>2010-06-13T09:30:11Z</time>
      </trkpt>
      <trkpt lat="45.914903003722429" lon="9.081787979230285">
        <ele>1085</ele>
        <time>2010-06-13T09:30:13Z</time>
      </trkpt>
      <trkpt lat="45.914894035086036" lon="9.081787979230285">
        <ele>1084</ele>
        <time>2010-06-13T09:30:14Z</time>
      </trkpt>
      <trkpt lat="45.914740981534123" lon="9.08184003084898">
        <ele>1087</ele>
        <time>2010-06-13T09:30:28Z</time>
      </trkpt>
      <trkpt lat="45.91473201289773" lon="9.081853022798896">
        <ele>1088</ele>
        <time>2010-06-13T09:30:29Z</time>
      </trkpt>
      <trkpt lat="45.914713991805911" lon="9.081853022798896">
        <ele>1088</ele>
        <time>2010-06-13T09:30:30Z</time>
      </trkpt>
      <trkpt lat="45.914695970714092" lon="9.081865008920431">
        <ele>1087</ele>
        <time>2010-06-13T09:30:31Z</time>
      </trkpt>
      <trkpt lat="45.914678033441305" lon="9.081865008920431">
        <ele>1087</ele>
        <time>2010-06-13T09:30:32Z</time>
      </trkpt>
      <trkpt lat="45.914660012349486" lon="9.081865008920431">
        <ele>1087</ele>
        <time>2010-06-13T09:30:33Z</time>
      </trkpt>
      <trkpt lat="45.914633022621274" lon="9.081878000870347">
        <ele>1087</ele>
        <time>2010-06-13T09:30:35Z</time>
      </trkpt>
      <trkpt lat="45.914623970165849" lon="9.081878000870347">
        <ele>1087</ele>
        <time>2010-06-13T09:30:36Z</time>
      </trkpt>
      <trkpt lat="45.914606032893062" lon="9.081878000870347">
        <ele>1088</ele>
        <time>2010-06-13T09:30:37Z</time>
      </trkpt>
      <trkpt lat="45.914588011801243" lon="9.081890992820263">
        <ele>1088</ele>
        <time>2010-06-13T09:30:38Z</time>
      </trkpt>
      <trkpt lat="45.914569990709424" lon="9.081890992820263">
        <ele>1088</ele>
        <time>2010-06-13T09:30:39Z</time>
      </trkpt>
      <trkpt lat="45.914551969617605" lon="9.081903984770179">
        <ele>1088</ele>
        <time>2010-06-13T09:30:40Z</time>
      </trkpt>
      <trkpt lat="45.914543000981212" lon="9.081903984770179">
        <ele>1088</ele>
        <time>2010-06-13T09:30:41Z</time>
      </trkpt>
      <trkpt lat="45.914524979889393" lon="9.081916976720095">
        <ele>1088</ele>
        <time>2010-06-13T09:30:42Z</time>
      </trkpt>
      <trkpt lat="45.914506958797574" lon="9.081916976720095">
        <ele>1090</ele>
        <time>2010-06-13T09:30:43Z</time>
      </trkpt>
      <trkpt lat="45.914489021524787" lon="9.08192896284163">
        <ele>1090</ele>
        <time>2010-06-13T09:30:44Z</time>
      </trkpt>
      <trkpt lat="45.914471000432968" lon="9.08192896284163">
        <ele>1090</ele>
        <time>2010-06-13T09:30:45Z</time>
      </trkpt>
      <trkpt lat="45.914462031796575" lon="9.081942038610578">
        <ele>1090</ele>
        <time>2010-06-13T09:30:46Z</time>
      </trkpt>
      <trkpt lat="45.914451973512769" lon="9.081942038610578">
        <ele>1090</ele>
        <time>2010-06-13T09:30:47Z</time>
      </trkpt>
      <trkpt lat="45.914462031796575" lon="9.081942038610578">
        <ele>1090</ele>
        <time>2010-06-13T09:30:48Z</time>
      </trkpt>
      <trkpt lat="45.914201019331813" lon="9.082134990021586">
        <ele>1092</ele>
        <time>2010-06-13T09:31:11Z</time>
      </trkpt>
      <trkpt lat="45.914181992411613" lon="9.082134990021586">
        <ele>1092</ele>
        <time>2010-06-13T09:31:12Z</time>
      </trkpt>
      <trkpt lat="45.914181992411613" lon="9.082147981971502">
        <ele>1092</ele>
        <time>2010-06-13T09:31:13Z</time>
      </trkpt>
      <trkpt lat="45.914163971319795" lon="9.082147981971502">
        <ele>1093</ele>
        <time>2010-06-13T09:31:14Z</time>
      </trkpt>
      <trkpt lat="45.914146034047008" lon="9.082160973921418">
        <ele>1092</ele>
        <time>2010-06-13T09:31:15Z</time>
      </trkpt>
      <trkpt lat="45.914128012955189" lon="9.082173965871334">
        <ele>1093</ele>
        <time>2010-06-13T09:31:16Z</time>
      </trkpt>
      <trkpt lat="45.914118960499763" lon="9.082187041640282">
        <ele>1093</ele>
        <time>2010-06-13T09:31:17Z</time>
      </trkpt>
      <trkpt lat="45.914110997691751" lon="9.082187041640282">
        <ele>1093</ele>
        <time>2010-06-13T09:31:18Z</time>
      </trkpt>
      <trkpt lat="45.913984011858702" lon="9.082354009151459">
        <ele>1094</ele>
        <time>2010-06-13T09:31:32Z</time>
      </trkpt>
      <trkpt lat="45.913965990766883" lon="9.082367001101375">
        <ele>1095</ele>
        <time>2010-06-13T09:31:33Z</time>
      </trkpt>
      <trkpt lat="45.913957022130489" lon="9.082379993051291">
        <ele>1096</ele>
        <time>2010-06-13T09:31:34Z</time>
      </trkpt>
      <trkpt lat="45.913939001038671" lon="9.082392985001206">
        <ele>1096</ele>
        <time>2010-06-13T09:31:35Z</time>
      </trkpt>
      <trkpt lat="45.913930032402277" lon="9.082392985001206">
        <ele>1095</ele>
        <time>2010-06-13T09:31:36Z</time>
      </trkpt>
      <trkpt lat="45.913930032402277" lon="9.082392985001206">
        <ele>1095</ele>
        <time>2010-06-13T09:31:37Z</time>
      </trkpt>
      <trkpt lat="45.913920979946852" lon="9.082405976951122">
        <ele>1095</ele>
        <time>2010-06-13T09:31:38Z</time>
      </trkpt>
      <trkpt lat="45.913912011310458" lon="9.082418968901038">
        <ele>1096</ele>
        <time>2010-06-13T09:31:39Z</time>
      </trkpt>
      <trkpt lat="45.913902958855033" lon="9.082418968901038">
        <ele>1096</ele>
        <time>2010-06-13T09:31:40Z</time>
      </trkpt>
      <trkpt lat="45.913885021582246" lon="9.082444030791521">
        <ele>1096</ele>
        <time>2010-06-13T09:31:41Z</time>
      </trkpt>
      <trkpt lat="45.913875969126821" lon="9.082457022741437">
        <ele>1096</ele>
        <time>2010-06-13T09:31:42Z</time>
      </trkpt>
      <trkpt lat="45.913867000490427" lon="9.082457022741437">
        <ele>1096</ele>
        <time>2010-06-13T09:31:43Z</time>
      </trkpt>
      <trkpt lat="45.913867000490427" lon="9.082470014691353">
        <ele>1096</ele>
        <time>2010-06-13T09:31:44Z</time>
      </trkpt>
      <trkpt lat="45.913867000490427" lon="9.082470014691353">
        <ele>1096</ele>
        <time>2010-06-13T09:31:45Z</time>
      </trkpt>
      <trkpt lat="45.913858031854033" lon="9.082483006641269">
        <ele>1096</ele>
        <time>2010-06-13T09:31:46Z</time>
      </trkpt>
      <trkpt lat="45.913848979398608" lon="9.082495998591185">
        <ele>1096</ele>
        <time>2010-06-13T09:31:47Z</time>
      </trkpt>
      <trkpt lat="45.913840010762215" lon="9.082508990541101">
        <ele>1096</ele>
        <time>2010-06-13T09:31:48Z</time>
      </trkpt>
      <trkpt lat="45.913840010762215" lon="9.082521982491016">
        <ele>1096</ele>
        <time>2010-06-13T09:31:49Z</time>
      </trkpt>
      <trkpt lat="45.913830958306789" lon="9.082533968612552">
        <ele>1096</ele>
        <time>2010-06-13T09:31:50Z</time>
      </trkpt>
      <trkpt lat="45.913830958306789" lon="9.082546960562468">
        <ele>1096</ele>
        <time>2010-06-13T09:31:51Z</time>
      </trkpt>
      <trkpt lat="45.913830958306789" lon="9.082560036331415">
        <ele>1097</ele>
        <time>2010-06-13T09:31:52Z</time>
      </trkpt>
      <trkpt lat="45.913821989670396" lon="9.082586020231247">
        <ele>1097</ele>
        <time>2010-06-13T09:31:53Z</time>
      </trkpt>
      <trkpt lat="45.913821989670396" lon="9.082599012181163">
        <ele>1097</ele>
        <time>2010-06-13T09:31:54Z</time>
      </trkpt>
      <trkpt lat="45.913813021034002" lon="9.082612004131079">
        <ele>1097</ele>
        <time>2010-06-13T09:31:55Z</time>
      </trkpt>
      <trkpt lat="45.913803968578577" lon="9.082624996080995">
        <ele>1097</ele>
        <time>2010-06-13T09:31:56Z</time>
      </trkpt>
      <trkpt lat="45.91378603130579" lon="9.082637988030911">
        <ele>1097</ele>
        <time>2010-06-13T09:31:57Z</time>
      </trkpt>
      <trkpt lat="45.913776978850365" lon="9.082650979980826">
        <ele>1097</ele>
        <time>2010-06-13T09:31:58Z</time>
      </trkpt>
      <trkpt lat="45.913768010213971" lon="9.082662966102362">
        <ele>1097</ele>
        <time>2010-06-13T09:31:59Z</time>
      </trkpt>
      <trkpt lat="45.913759041577578" lon="9.082676041871309">
        <ele>1097</ele>
        <time>2010-06-13T09:32:00Z</time>
      </trkpt>
      <trkpt lat="45.913759041577578" lon="9.082689033821225">
        <ele>1097</ele>
        <time>2010-06-13T09:32:01Z</time>
      </trkpt>
      <trkpt lat="45.913749989122152" lon="9.082715017721057">
        <ele>1097</ele>
        <time>2010-06-13T09:32:03Z</time>
      </trkpt>
      <trkpt lat="45.913749989122152" lon="9.082728009670973">
        <ele>1097</ele>
        <time>2010-06-13T09:32:04Z</time>
      </trkpt>
      <trkpt lat="45.913741020485759" lon="9.082741001620889">
        <ele>1098</ele>
        <time>2010-06-13T09:32:05Z</time>
      </trkpt>
      <trkpt lat="45.913731968030334" lon="9.082741001620889">
        <ele>1098</ele>
        <time>2010-06-13T09:32:06Z</time>
      </trkpt>
      <trkpt lat="45.913731968030334" lon="9.082753993570805">
        <ele>1098</ele>
        <time>2010-06-13T09:32:07Z</time>
      </trkpt>
      <trkpt lat="45.913731968030334" lon="9.08276597969234">
        <ele>1099</ele>
        <time>2010-06-13T09:32:08Z</time>
      </trkpt>
      <trkpt lat="45.91372299939394" lon="9.082791963592172">
        <ele>1099</ele>
        <time>2010-06-13T09:32:09Z</time>
      </trkpt>
      <trkpt lat="45.913704978302121" lon="9.082805039361119">
        <ele>1099</ele>
        <time>2010-06-13T09:32:10Z</time>
      </trkpt>
      <trkpt lat="45.913704978302121" lon="9.082818031311035">
        <ele>1099</ele>
        <time>2010-06-13T09:32:11Z</time>
      </trkpt>
      <trkpt lat="45.913704978302121" lon="9.082831023260951">
        <ele>1099</ele>
        <time>2010-06-13T09:32:12Z</time>
      </trkpt>
      <trkpt lat="45.913696009665728" lon="9.082857007160783">
        <ele>1099</ele>
        <time>2010-06-13T09:32:13Z</time>
      </trkpt>
      <trkpt lat="45.913687041029334" lon="9.082869999110699">
        <ele>1100</ele>
        <time>2010-06-13T09:32:14Z</time>
      </trkpt>
      <trkpt lat="45.913687041029334" lon="9.082882991060615">
        <ele>1099</ele>
        <time>2010-06-13T09:32:15Z</time>
      </trkpt>
      <trkpt lat="45.913687041029334" lon="9.08289497718215">
        <ele>1100</ele>
        <time>2010-06-13T09:32:16Z</time>
      </trkpt>
      <trkpt lat="45.913687041029334" lon="9.082920961081982">
        <ele>1100</ele>
        <time>2010-06-13T09:32:17Z</time>
      </trkpt>
      <trkpt lat="45.913677988573909" lon="9.082934036850929">
        <ele>1100</ele>
        <time>2010-06-13T09:32:18Z</time>
      </trkpt>
      <trkpt lat="45.913677988573909" lon="9.082947028800845">
        <ele>1100</ele>
        <time>2010-06-13T09:32:19Z</time>
      </trkpt>
      <trkpt lat="45.913669019937515" lon="9.082960020750761">
        <ele>1100</ele>
        <time>2010-06-13T09:32:20Z</time>
      </trkpt>
      <trkpt lat="45.913669019937515" lon="9.082973012700677">
        <ele>1101</ele>
        <time>2010-06-13T09:32:21Z</time>
      </trkpt>
      <trkpt lat="45.91365996748209" lon="9.082986004650593">
        <ele>1101</ele>
        <time>2010-06-13T09:32:22Z</time>
      </trkpt>
      <trkpt lat="45.913650998845696" lon="9.082998996600509">
        <ele>1100</ele>
        <time>2010-06-13T09:32:23Z</time>
      </trkpt>
      <trkpt lat="45.913642030209303" lon="9.083010982722044">
        <ele>1101</ele>
        <time>2010-06-13T09:32:24Z</time>
      </trkpt>
      <trkpt lat="45.913632977753878" lon="9.083010982722044">
        <ele>1101</ele>
        <time>2010-06-13T09:32:25Z</time>
      </trkpt>
      <trkpt lat="45.913615040481091" lon="9.08302397467196">
        <ele>1101</ele>
        <time>2010-06-13T09:32:26Z</time>
      </trkpt>
      <trkpt lat="45.913605988025665" lon="9.08302397467196">
        <ele>1102</ele>
        <time>2010-06-13T09:32:28Z</time>
      </trkpt>
      <trkpt lat="45.913488976657391" lon="9.083076026290655">
        <ele>1102</ele>
        <time>2010-06-13T09:32:35Z</time>
      </trkpt>
      <trkpt lat="45.913461986929178" lon="9.08308801241219">
        <ele>1102</ele>
        <time>2010-06-13T09:32:36Z</time>
      </trkpt>
      <trkpt lat="45.913443965837359" lon="9.083101004362106">
        <ele>1102</ele>
        <time>2010-06-13T09:32:37Z</time>
      </trkpt>
      <trkpt lat="45.913434997200966" lon="9.083113996312022">
        <ele>1103</ele>
        <time>2010-06-13T09:32:38Z</time>
      </trkpt>
      <trkpt lat="45.913416976109147" lon="9.083126988261938">
        <ele>1103</ele>
        <time>2010-06-13T09:32:39Z</time>
      </trkpt>
      <trkpt lat="45.91339903883636" lon="9.083126988261938">
        <ele>1103</ele>
        <time>2010-06-13T09:32:40Z</time>
      </trkpt>
      <trkpt lat="45.913381017744541" lon="9.083139980211854">
        <ele>1103</ele>
        <time>2010-06-13T09:32:41Z</time>
      </trkpt>
      <trkpt lat="45.913362996652722" lon="9.08315297216177">
        <ele>1103</ele>
        <time>2010-06-13T09:32:42Z</time>
      </trkpt>
      <trkpt lat="45.913344975560904" lon="9.083165964111686">
        <ele>1103</ele>
        <time>2010-06-13T09:32:43Z</time>
      </trkpt>
      <trkpt lat="45.91333600692451" lon="9.083165964111686">
        <ele>1103</ele>
        <time>2010-06-13T09:32:44Z</time>
      </trkpt>
      <trkpt lat="45.913327038288116" lon="9.083179039880633">
        <ele>1104</ele>
        <time>2010-06-13T09:32:45Z</time>
      </trkpt>
      <trkpt lat="45.913317985832691" lon="9.083179039880633">
        <ele>1104</ele>
        <time>2010-06-13T09:32:46Z</time>
      </trkpt>
      <trkpt lat="45.913317985832691" lon="9.083179039880633">
        <ele>1104</ele>
        <time>2010-06-13T09:32:47Z</time>
      </trkpt>
      <trkpt lat="45.913200974464417" lon="9.083307031542063">
        <ele>1105</ele>
        <time>2010-06-13T09:33:00Z</time>
      </trkpt>
      <trkpt lat="45.913182031363249" lon="9.083320023491979">
        <ele>1105</ele>
        <time>2010-06-13T09:33:01Z</time>
      </trkpt>
      <trkpt lat="45.913173984736204" lon="9.083333015441895">
        <ele>1105</ele>
        <time>2010-06-13T09:33:02Z</time>
      </trkpt>
      <trkpt lat="45.913173984736204" lon="9.08334600739181">
        <ele>1106</ele>
        <time>2010-06-13T09:33:03Z</time>
      </trkpt>
      <trkpt lat="45.913155963644385" lon="9.083358999341726">
        <ele>1106</ele>
        <time>2010-06-13T09:33:04Z</time>
      </trkpt>
      <trkpt lat="45.913137020543218" lon="9.083371991291642">
        <ele>1106</ele>
        <time>2010-06-13T09:33:05Z</time>
      </trkpt>
      <trkpt lat="45.913128973916173" lon="9.083383977413178">
        <ele>1105</ele>
        <time>2010-06-13T09:33:06Z</time>
      </trkpt>
      <trkpt lat="45.913111036643386" lon="9.083397975191474">
        <ele>1105</ele>
        <time>2010-06-13T09:33:07Z</time>
      </trkpt>
      <trkpt lat="45.913092009723186" lon="9.083409961313009">
        <ele>1106</ele>
        <time>2010-06-13T09:33:08Z</time>
      </trkpt>
      <trkpt lat="45.913083041086793" lon="9.083423037081957">
        <ele>1106</ele>
        <time>2010-06-13T09:33:09Z</time>
      </trkpt>
      <trkpt lat="45.913066025823355" lon="9.083436029031873">
        <ele>1106</ele>
        <time>2010-06-13T09:33:10Z</time>
      </trkpt>
      <trkpt lat="45.913055967539549" lon="9.083449020981789">
        <ele>1106</ele>
        <time>2010-06-13T09:33:11Z</time>
      </trkpt>
      <trkpt lat="45.913046998903155" lon="9.083462012931705">
        <ele>1106</ele>
        <time>2010-06-13T09:33:12Z</time>
      </trkpt>
      <trkpt lat="45.913028977811337" lon="9.08347500488162">
        <ele>1106</ele>
        <time>2010-06-13T09:33:13Z</time>
      </trkpt>
      <trkpt lat="45.913020009174943" lon="9.083486991003156">
        <ele>1105</ele>
        <time>2010-06-13T09:33:14Z</time>
      </trkpt>
      <trkpt lat="45.913001988083124" lon="9.083499982953072">
        <ele>1105</ele>
        <time>2010-06-13T09:33:15Z</time>
      </trkpt>
      <trkpt lat="45.912993019446731" lon="9.083499982953072">
        <ele>1105</ele>
        <time>2010-06-13T09:33:16Z</time>
      </trkpt>
      <trkpt lat="45.912974998354912" lon="9.083525966852903">
        <ele>1106</ele>
        <time>2010-06-13T09:33:17Z</time>
      </trkpt>
      <trkpt lat="45.912956977263093" lon="9.083538958802819">
        <ele>1106</ele>
        <time>2010-06-13T09:33:18Z</time>
      </trkpt>
      <trkpt lat="45.912948008626699" lon="9.083552034571767">
        <ele>1106</ele>
        <time>2010-06-13T09:33:19Z</time>
      </trkpt>
      <trkpt lat="45.912939039990306" lon="9.083565026521683">
        <ele>1106</ele>
        <time>2010-06-13T09:33:20Z</time>
      </trkpt>
      <trkpt lat="45.912921018898487" lon="9.083578018471599">
        <ele>1107</ele>
        <time>2010-06-13T09:33:21Z</time>
      </trkpt>
      <trkpt lat="45.912902997806668" lon="9.083591010421515">
        <ele>1107</ele>
        <time>2010-06-13T09:33:22Z</time>
      </trkpt>
      <trkpt lat="45.912884976714849" lon="9.083615988492966">
        <ele>1107</ele>
        <time>2010-06-13T09:33:23Z</time>
      </trkpt>
      <trkpt lat="45.912884976714849" lon="9.083615988492966">
        <ele>1107</ele>
        <time>2010-06-13T09:33:24Z</time>
      </trkpt>
      <trkpt lat="45.912876008078456" lon="9.083628980442882">
        <ele>1107</ele>
        <time>2010-06-13T09:33:25Z</time>
      </trkpt>
      <trkpt lat="45.912867039442062" lon="9.083641972392798">
        <ele>1107</ele>
        <time>2010-06-13T09:33:26Z</time>
      </trkpt>
      <trkpt lat="45.912857986986637" lon="9.083654964342713">
        <ele>1108</ele>
        <time>2010-06-13T09:33:27Z</time>
      </trkpt>
      <trkpt lat="45.912839965894818" lon="9.083668040111661">
        <ele>1108</ele>
        <time>2010-06-13T09:33:28Z</time>
      </trkpt>
      <trkpt lat="45.912822028622031" lon="9.083668040111661">
        <ele>1107</ele>
        <time>2010-06-13T09:33:29Z</time>
      </trkpt>
      <trkpt lat="45.912822028622031" lon="9.083681032061577">
        <ele>1107</ele>
        <time>2010-06-13T09:33:30Z</time>
      </trkpt>
      <trkpt lat="45.912804007530212" lon="9.083706010133028">
        <ele>1107</ele>
        <time>2010-06-13T09:33:31Z</time>
      </trkpt>
      <trkpt lat="45.912785986438394" lon="9.083719002082944">
        <ele>1108</ele>
        <time>2010-06-13T09:33:32Z</time>
      </trkpt>
      <trkpt lat="45.912777017802" lon="9.083719002082944">
        <ele>1108</ele>
        <time>2010-06-13T09:33:33Z</time>
      </trkpt>
      <trkpt lat="45.912758996710181" lon="9.083744985982776">
        <ele>1108</ele>
        <time>2010-06-13T09:33:34Z</time>
      </trkpt>
      <trkpt lat="45.912740975618362" lon="9.083770969882608">
        <ele>1109</ele>
        <time>2010-06-13T09:33:35Z</time>
      </trkpt>
      <trkpt lat="45.912732006981969" lon="9.083783961832523">
        <ele>1109</ele>
        <time>2010-06-13T09:33:36Z</time>
      </trkpt>
      <trkpt lat="45.912723038345575" lon="9.083797037601471">
        <ele>1108</ele>
        <time>2010-06-13T09:33:37Z</time>
      </trkpt>
      <trkpt lat="45.912705017253757" lon="9.083822015672922">
        <ele>1108</ele>
        <time>2010-06-13T09:33:38Z</time>
      </trkpt>
      <trkpt lat="45.912705017253757" lon="9.083822015672922">
        <ele>1108</ele>
        <time>2010-06-13T09:33:39Z</time>
      </trkpt>
      <trkpt lat="45.912705017253757" lon="9.083835007622838">
        <ele>1109</ele>
        <time>2010-06-13T09:33:40Z</time>
      </trkpt>
      <trkpt lat="45.912705017253757" lon="9.083847999572754">
        <ele>1109</ele>
        <time>2010-06-13T09:33:41Z</time>
      </trkpt>
      <trkpt lat="45.912686996161938" lon="9.08386099152267">
        <ele>1110</ele>
        <time>2010-06-13T09:33:42Z</time>
      </trkpt>
      <trkpt lat="45.912678027525544" lon="9.083886975422502">
        <ele>1110</ele>
        <time>2010-06-13T09:33:43Z</time>
      </trkpt>
      <trkpt lat="45.912668975070119" lon="9.083899967372417">
        <ele>1110</ele>
        <time>2010-06-13T09:33:44Z</time>
      </trkpt>
      <trkpt lat="45.912668975070119" lon="9.083912959322333">
        <ele>1110</ele>
        <time>2010-06-13T09:33:45Z</time>
      </trkpt>
      <trkpt lat="45.912651037797332" lon="9.083938021212816">
        <ele>1109</ele>
        <time>2010-06-13T09:33:47Z</time>
      </trkpt>
      <trkpt lat="45.912633016705513" lon="9.08398998901248">
        <ele>1110</ele>
        <time>2010-06-13T09:33:48Z</time>
      </trkpt>
      <trkpt lat="45.912623964250088" lon="9.084002980962396">
        <ele>1110</ele>
        <time>2010-06-13T09:33:49Z</time>
      </trkpt>
      <trkpt lat="45.912614995613694" lon="9.084028964862227">
        <ele>1109</ele>
        <time>2010-06-13T09:33:50Z</time>
      </trkpt>
      <trkpt lat="45.912606026977301" lon="9.084041034802795">
        <ele>1109</ele>
        <time>2010-06-13T09:33:51Z</time>
      </trkpt>
      <trkpt lat="45.912606026977301" lon="9.084080010652542">
        <ele>1110</ele>
        <time>2010-06-13T09:33:53Z</time>
      </trkpt>
      <trkpt lat="45.912606026977301" lon="9.084105994552374">
        <ele>1110</ele>
        <time>2010-06-13T09:33:54Z</time>
      </trkpt>
      <trkpt lat="45.912596974521875" lon="9.084143964573741">
        <ele>1111</ele>
        <time>2010-06-13T09:33:56Z</time>
      </trkpt>
      <trkpt lat="45.912588005885482" lon="9.084170032292604">
        <ele>1110</ele>
        <time>2010-06-13T09:33:57Z</time>
      </trkpt>
      <trkpt lat="45.912579037249088" lon="9.084196016192436">
        <ele>1110</ele>
        <time>2010-06-13T09:33:58Z</time>
      </trkpt>
      <trkpt lat="45.912569984793663" lon="9.084222000092268">
        <ele>1111</ele>
        <time>2010-06-13T09:33:59Z</time>
      </trkpt>
      <trkpt lat="45.912561016157269" lon="9.0842479839921">
        <ele>1111</ele>
        <time>2010-06-13T09:34:00Z</time>
      </trkpt>
      <trkpt lat="45.912561016157269" lon="9.084272962063551">
        <ele>1111</ele>
        <time>2010-06-13T09:34:01Z</time>
      </trkpt>
      <trkpt lat="45.912569984793663" lon="9.084286037832499">
        <ele>1111</ele>
        <time>2010-06-13T09:34:02Z</time>
      </trkpt>
      <trkpt lat="45.912569984793663" lon="9.08431202173233">
        <ele>1111</ele>
        <time>2010-06-13T09:34:03Z</time>
      </trkpt>
      <trkpt lat="45.912569984793663" lon="9.084338005632162">
        <ele>1112</ele>
        <time>2010-06-13T09:34:04Z</time>
      </trkpt>
      <trkpt lat="45.912579037249088" lon="9.084350997582078">
        <ele>1112</ele>
        <time>2010-06-13T09:34:05Z</time>
      </trkpt>
      <trkpt lat="45.912579037249088" lon="9.084363989531994">
        <ele>1111</ele>
        <time>2010-06-13T09:34:06Z</time>
      </trkpt>
      <trkpt lat="45.912569984793663" lon="9.084401959553361">
        <ele>1111</ele>
        <time>2010-06-13T09:34:08Z</time>
      </trkpt>
      <trkpt lat="45.912551963701844" lon="9.084415035322309">
        <ele>1112</ele>
        <time>2010-06-13T09:34:09Z</time>
      </trkpt>
      <trkpt lat="45.912542995065451" lon="9.084428027272224">
        <ele>1112</ele>
        <time>2010-06-13T09:34:10Z</time>
      </trkpt>
      <trkpt lat="45.912534026429057" lon="9.08444101922214">
        <ele>1112</ele>
        <time>2010-06-13T09:34:11Z</time>
      </trkpt>
      <trkpt lat="45.912534026429057" lon="9.084467003121972">
        <ele>1112</ele>
        <time>2010-06-13T09:34:12Z</time>
      </trkpt>
      <trkpt lat="45.912524973973632" lon="9.084479995071888">
        <ele>1112</ele>
        <time>2010-06-13T09:34:13Z</time>
      </trkpt>
      <trkpt lat="45.912516005337238" lon="9.084491981193423">
        <ele>1112</ele>
        <time>2010-06-13T09:34:14Z</time>
      </trkpt>
      <trkpt lat="45.912507036700845" lon="9.084504973143339">
        <ele>1112</ele>
        <time>2010-06-13T09:34:15Z</time>
      </trkpt>
      <trkpt lat="45.912507036700845" lon="9.084517965093255">
        <ele>1113</ele>
        <time>2010-06-13T09:34:16Z</time>
      </trkpt>
      <trkpt lat="45.912496978417039" lon="9.084531040862203">
        <ele>1113</ele>
        <time>2010-06-13T09:34:17Z</time>
      </trkpt>
      <trkpt lat="45.912479963153601" lon="9.084557024762034">
        <ele>1113</ele>
        <time>2010-06-13T09:34:18Z</time>
      </trkpt>
      <trkpt lat="45.912470994517207" lon="9.08457001671195">
        <ele>1113</ele>
        <time>2010-06-13T09:34:19Z</time>
      </trkpt>
      <trkpt lat="45.912462025880814" lon="9.084596000611782">
        <ele>1113</ele>
        <time>2010-06-13T09:34:20Z</time>
      </trkpt>
      <trkpt lat="45.912451967597008" lon="9.084620978683233">
        <ele>1113</ele>
        <time>2010-06-13T09:34:21Z</time>
      </trkpt>
      <trkpt lat="45.912451967597008" lon="9.084633970633149">
        <ele>1114</ele>
        <time>2010-06-13T09:34:22Z</time>
      </trkpt>
      <trkpt lat="45.912444004788995" lon="9.084646962583065">
        <ele>1114</ele>
        <time>2010-06-13T09:34:23Z</time>
      </trkpt>
      <trkpt lat="45.912444004788995" lon="9.084660038352013">
        <ele>1114</ele>
        <time>2010-06-13T09:34:24Z</time>
      </trkpt>
      <trkpt lat="45.912451967597008" lon="9.084673030301929">
        <ele>1115</ele>
        <time>2010-06-13T09:34:25Z</time>
      </trkpt>
      <trkpt lat="45.912444004788995" lon="9.084712006151676">
        <ele>1115</ele>
        <time>2010-06-13T09:34:27Z</time>
      </trkpt>
      <trkpt lat="45.912442998960614" lon="9.084723992273212">
        <ele>1115</ele>
        <time>2010-06-13T09:34:28Z</time>
      </trkpt>
      <trkpt lat="45.912442998960614" lon="9.084749976173043">
        <ele>1115</ele>
        <time>2010-06-13T09:34:29Z</time>
      </trkpt>
      <trkpt lat="45.912442998960614" lon="9.084762968122959">
        <ele>1115</ele>
        <time>2010-06-13T09:34:30Z</time>
      </trkpt>
      <trkpt lat="45.912434030324221" lon="9.084789035841823">
        <ele>1115</ele>
        <time>2010-06-13T09:34:31Z</time>
      </trkpt>
      <trkpt lat="45.912424977868795" lon="9.084802027791739">
        <ele>1115</ele>
        <time>2010-06-13T09:34:32Z</time>
      </trkpt>
      <trkpt lat="45.912416009232402" lon="9.08482700586319">
        <ele>1115</ele>
        <time>2010-06-13T09:34:33Z</time>
      </trkpt>
      <trkpt lat="45.912407040596008" lon="9.084865981712937">
        <ele>1116</ele>
        <time>2010-06-13T09:34:35Z</time>
      </trkpt>
      <trkpt lat="45.912397988140583" lon="9.084878973662853">
        <ele>1116</ele>
        <time>2010-06-13T09:34:36Z</time>
      </trkpt>
      <trkpt lat="45.912389019504189" lon="9.084905041381717">
        <ele>1116</ele>
        <time>2010-06-13T09:34:37Z</time>
      </trkpt>
      <trkpt lat="45.912379967048764" lon="9.084931025281549">
        <ele>1117</ele>
        <time>2010-06-13T09:34:38Z</time>
      </trkpt>
      <trkpt lat="45.912370998412371" lon="9.084956003353">
        <ele>1117</ele>
        <time>2010-06-13T09:34:39Z</time>
      </trkpt>
      <trkpt lat="45.912362029775977" lon="9.084968995302916">
        <ele>1117</ele>
        <time>2010-06-13T09:34:40Z</time>
      </trkpt>
      <trkpt lat="45.912362029775977" lon="9.084994979202747">
        <ele>1117</ele>
        <time>2010-06-13T09:34:41Z</time>
      </trkpt>
      <trkpt lat="45.912352977320552" lon="9.085007971152663">
        <ele>1117</ele>
        <time>2010-06-13T09:34:42Z</time>
      </trkpt>
      <trkpt lat="45.912344008684158" lon="9.085020963102579">
        <ele>1117</ele>
        <time>2010-06-13T09:34:43Z</time>
      </trkpt>
      <trkpt lat="45.912335040047765" lon="9.085059016942978">
        <ele>1117</ele>
        <time>2010-06-13T09:34:44Z</time>
      </trkpt>
      <trkpt lat="45.912335040047765" lon="9.085072008892894">
        <ele>1117</ele>
        <time>2010-06-13T09:34:45Z</time>
      </trkpt>
      <trkpt lat="45.912317018955946" lon="9.085097992792726">
        <ele>1117</ele>
        <time>2010-06-13T09:34:46Z</time>
      </trkpt>
      <trkpt lat="45.912317018955946" lon="9.085149960592389">
        <ele>1117</ele>
        <time>2010-06-13T09:34:48Z</time>
      </trkpt>
      <trkpt lat="45.912307966500521" lon="9.085163036361337">
        <ele>1118</ele>
        <time>2010-06-13T09:34:49Z</time>
      </trkpt>
      <trkpt lat="45.912307966500521" lon="9.085176028311253">
        <ele>1118</ele>
        <time>2010-06-13T09:34:50Z</time>
      </trkpt>
      <trkpt lat="45.912307966500521" lon="9.085201006382704">
        <ele>1118</ele>
        <time>2010-06-13T09:34:52Z</time>
      </trkpt>
      <trkpt lat="45.912307966500521" lon="9.08521399833262">
        <ele>1117</ele>
        <time>2010-06-13T09:34:53Z</time>
      </trkpt>
      <trkpt lat="45.912317018955946" lon="9.085239982232451">
        <ele>1118</ele>
        <time>2010-06-13T09:34:54Z</time>
      </trkpt>
      <trkpt lat="45.91232598759234" lon="9.085279041901231">
        <ele>1118</ele>
        <time>2010-06-13T09:34:55Z</time>
      </trkpt>
      <trkpt lat="45.91232598759234" lon="9.085330003872514">
        <ele>1118</ele>
        <time>2010-06-13T09:34:57Z</time>
      </trkpt>
      <trkpt lat="45.91232598759234" lon="9.085355987772346">
        <ele>1118</ele>
        <time>2010-06-13T09:34:58Z</time>
      </trkpt>
      <trkpt lat="45.91232598759234" lon="9.085368979722261">
        <ele>1118</ele>
        <time>2010-06-13T09:34:59Z</time>
      </trkpt>
      <trkpt lat="45.912317018955946" lon="9.085408039391041">
        <ele>1119</ele>
        <time>2010-06-13T09:35:01Z</time>
      </trkpt>
      <trkpt lat="45.912317018955946" lon="9.085433017462492">
        <ele>1119</ele>
        <time>2010-06-13T09:35:02Z</time>
      </trkpt>
      <trkpt lat="45.912307966500521" lon="9.085459001362324">
        <ele>1119</ele>
        <time>2010-06-13T09:35:03Z</time>
      </trkpt>
      <trkpt lat="45.912307966500521" lon="9.08547199331224">
        <ele>1119</ele>
        <time>2010-06-13T09:35:04Z</time>
      </trkpt>
      <trkpt lat="45.912317018955946" lon="9.085523961111903">
        <ele>1119</ele>
        <time>2010-06-13T09:35:06Z</time>
      </trkpt>
      <trkpt lat="45.912307966500521" lon="9.085549023002386">
        <ele>1120</ele>
        <time>2010-06-13T09:35:07Z</time>
      </trkpt>
      <trkpt lat="45.912307966500521" lon="9.085575006902218">
        <ele>1119</ele>
        <time>2010-06-13T09:35:08Z</time>
      </trkpt>
      <trkpt lat="45.912307966500521" lon="9.085587998852134">
        <ele>1119</ele>
        <time>2010-06-13T09:35:09Z</time>
      </trkpt>
      <trkpt lat="45.912298997864127" lon="9.085613982751966">
        <ele>1119</ele>
        <time>2010-06-13T09:35:10Z</time>
      </trkpt>
      <trkpt lat="45.912307966500521" lon="9.085639966651797">
        <ele>1120</ele>
        <time>2010-06-13T09:35:12Z</time>
      </trkpt>
      <trkpt lat="45.912298997864127" lon="9.085652958601713">
        <ele>1120</ele>
        <time>2010-06-13T09:35:13Z</time>
      </trkpt>
      <trkpt lat="45.912290029227734" lon="9.085678020492196">
        <ele>1120</ele>
        <time>2010-06-13T09:35:14Z</time>
      </trkpt>
      <trkpt lat="45.912307966500521" lon="9.085704004392028">
        <ele>1120</ele>
        <time>2010-06-13T09:35:15Z</time>
      </trkpt>
      <trkpt lat="45.912335040047765" lon="9.08572998829186">
        <ele>1120</ele>
        <time>2010-06-13T09:35:16Z</time>
      </trkpt>
      <trkpt lat="45.912352977320552" lon="9.085755972191691">
        <ele>1120</ele>
        <time>2010-06-13T09:35:17Z</time>
      </trkpt>
      <trkpt lat="45.912370998412371" lon="9.085782039910555">
        <ele>1121</ele>
        <time>2010-06-13T09:35:18Z</time>
      </trkpt>
      <trkpt lat="45.912379967048764" lon="9.085807017982006">
        <ele>1120</ele>
        <time>2010-06-13T09:35:19Z</time>
      </trkpt>
      <trkpt lat="45.912389019504189" lon="9.085833001881838">
        <ele>1120</ele>
        <time>2010-06-13T09:35:20Z</time>
      </trkpt>
      <trkpt lat="45.912396982312202" lon="9.085845993831754">
        <ele>1120</ele>
        <time>2010-06-13T09:35:21Z</time>
      </trkpt>
      <trkpt lat="45.912396982312202" lon="9.085897961631417">
        <ele>1121</ele>
        <time>2010-06-13T09:35:24Z</time>
      </trkpt>
      <trkpt lat="45.912407040596008" lon="9.085924029350281">
        <ele>1121</ele>
        <time>2010-06-13T09:35:26Z</time>
      </trkpt>
      <trkpt lat="45.912407040596008" lon="9.085949007421732">
        <ele>1121</ele>
        <time>2010-06-13T09:35:27Z</time>
      </trkpt>
      <trkpt lat="45.912407040596008" lon="9.085974991321564">
        <ele>1122</ele>
        <time>2010-06-13T09:35:28Z</time>
      </trkpt>
      <trkpt lat="45.912416009232402" lon="9.08598798327148">
        <ele>1121</ele>
        <time>2010-06-13T09:35:29Z</time>
      </trkpt>
      <trkpt lat="45.912416009232402" lon="9.086000975221396">
        <ele>1121</ele>
        <time>2010-06-13T09:35:30Z</time>
      </trkpt>
      <trkpt lat="45.912423972040415" lon="9.086026959121227">
        <ele>1121</ele>
        <time>2010-06-13T09:35:31Z</time>
      </trkpt>
      <trkpt lat="45.912416009232402" lon="9.086066018790007">
        <ele>1122</ele>
        <time>2010-06-13T09:35:33Z</time>
      </trkpt>
      <trkpt lat="45.912416009232402" lon="9.086078004911542">
        <ele>1122</ele>
        <time>2010-06-13T09:35:34Z</time>
      </trkpt>
      <trkpt lat="45.912406034767628" lon="9.086090996861458">
        <ele>1122</ele>
        <time>2010-06-13T09:35:35Z</time>
      </trkpt>
      <trkpt lat="45.912406034767628" lon="9.08611698076129">
        <ele>1122</ele>
        <time>2010-06-13T09:35:36Z</time>
      </trkpt>
      <trkpt lat="45.912415003404021" lon="9.086129972711206">
        <ele>1122</ele>
        <time>2010-06-13T09:35:37Z</time>
      </trkpt>
      <trkpt lat="45.912423972040415" lon="9.086156040430069">
        <ele>1122</ele>
        <time>2010-06-13T09:35:38Z</time>
      </trkpt>
      <trkpt lat="45.912423972040415" lon="9.08618101850152">
        <ele>1122</ele>
        <time>2010-06-13T09:35:39Z</time>
      </trkpt>
      <trkpt lat="45.91243302449584" lon="9.086207002401352">
        <ele>1122</ele>
        <time>2010-06-13T09:35:40Z</time>
      </trkpt>
      <trkpt lat="45.91243302449584" lon="9.086219994351268">
        <ele>1122</ele>
        <time>2010-06-13T09:35:41Z</time>
      </trkpt>
      <trkpt lat="45.912441993132234" lon="9.0862459782511">
        <ele>1122</ele>
        <time>2010-06-13T09:35:42Z</time>
      </trkpt>
      <trkpt lat="45.91243302449584" lon="9.086258970201016">
        <ele>1123</ele>
        <time>2010-06-13T09:35:43Z</time>
      </trkpt>
      <trkpt lat="45.912441993132234" lon="9.086285037919879">
        <ele>1123</ele>
        <time>2010-06-13T09:35:44Z</time>
      </trkpt>
      <trkpt lat="45.912441993132234" lon="9.086311021819711">
        <ele>1123</ele>
        <time>2010-06-13T09:35:45Z</time>
      </trkpt>
      <trkpt lat="45.912450961768627" lon="9.086323007941246">
        <ele>1122</ele>
        <time>2010-06-13T09:35:46Z</time>
      </trkpt>
      <trkpt lat="45.912450961768627" lon="9.086348991841078">
        <ele>1123</ele>
        <time>2010-06-13T09:35:47Z</time>
      </trkpt>
      <trkpt lat="45.912460014224052" lon="9.086387967690826">
        <ele>1124</ele>
        <time>2010-06-13T09:35:49Z</time>
      </trkpt>
      <trkpt lat="45.912460014224052" lon="9.086400959640741">
        <ele>1124</ele>
        <time>2010-06-13T09:35:50Z</time>
      </trkpt>
      <trkpt lat="45.912460014224052" lon="9.086426021531224">
        <ele>1124</ele>
        <time>2010-06-13T09:35:51Z</time>
      </trkpt>
      <trkpt lat="45.912450961768627" lon="9.08643901348114">
        <ele>1124</ele>
        <time>2010-06-13T09:35:52Z</time>
      </trkpt>
      <trkpt lat="45.912450961768627" lon="9.086452005431056">
        <ele>1124</ele>
        <time>2010-06-13T09:35:53Z</time>
      </trkpt>
      <trkpt lat="45.912441993132234" lon="9.086477989330888">
        <ele>1124</ele>
        <time>2010-06-13T09:35:54Z</time>
      </trkpt>
      <trkpt lat="45.912441993132234" lon="9.08650397323072">
        <ele>1124</ele>
        <time>2010-06-13T09:35:56Z</time>
      </trkpt>
      <trkpt lat="45.912450961768627" lon="9.086530040949583">
        <ele>1124</ele>
        <time>2010-06-13T09:35:57Z</time>
      </trkpt>
      <trkpt lat="45.912441993132234" lon="9.086556024849415">
        <ele>1125</ele>
        <time>2010-06-13T09:35:59Z</time>
      </trkpt>
      <trkpt lat="45.912441993132234" lon="9.08656801097095">
        <ele>1124</ele>
        <time>2010-06-13T09:36:00Z</time>
      </trkpt>
      <trkpt lat="45.912441993132234" lon="9.086581002920866">
        <ele>1124</ele>
        <time>2010-06-13T09:36:01Z</time>
      </trkpt>
      <trkpt lat="45.912450961768627" lon="9.086593994870782">
        <ele>1125</ele>
        <time>2010-06-13T09:36:02Z</time>
      </trkpt>
      <trkpt lat="45.912450961768627" lon="9.086606986820698">
        <ele>1125</ele>
        <time>2010-06-13T09:36:03Z</time>
      </trkpt>
      <trkpt lat="45.912441993132234" lon="9.086659038439393">
        <ele>1125</ele>
        <time>2010-06-13T09:36:05Z</time>
      </trkpt>
      <trkpt lat="45.91243302449584" lon="9.08669700846076">
        <ele>1125</ele>
        <time>2010-06-13T09:36:06Z</time>
      </trkpt>
      <trkpt lat="45.912415003404021" lon="9.086722992360592">
        <ele>1124</ele>
        <time>2010-06-13T09:36:07Z</time>
      </trkpt>
      <trkpt lat="45.912396982312202" lon="9.086748976260424">
        <ele>1124</ele>
        <time>2010-06-13T09:36:08Z</time>
      </trkpt>
      <trkpt lat="45.91236999258399" lon="9.086774038150907">
        <ele>1123</ele>
        <time>2010-06-13T09:36:09Z</time>
      </trkpt>
      <trkpt lat="45.912351971492171" lon="9.086800022050738">
        <ele>1124</ele>
        <time>2010-06-13T09:36:10Z</time>
      </trkpt>
      <trkpt lat="45.912324981763959" lon="9.08682600595057">
        <ele>1124</ele>
        <time>2010-06-13T09:36:11Z</time>
      </trkpt>
      <trkpt lat="45.912297992035747" lon="9.086851989850402">
        <ele>1124</ele>
        <time>2010-06-13T09:36:12Z</time>
      </trkpt>
      <trkpt lat="45.912279970943928" lon="9.08689096570015">
        <ele>1124</ele>
        <time>2010-06-13T09:36:13Z</time>
      </trkpt>
      <trkpt lat="45.912252981215715" lon="9.086916027590632">
        <ele>1123</ele>
        <time>2010-06-13T09:36:14Z</time>
      </trkpt>
      <trkpt lat="45.912225991487503" lon="9.08695500344038">
        <ele>1123</ele>
        <time>2010-06-13T09:36:15Z</time>
      </trkpt>
      <trkpt lat="45.912207970395684" lon="9.086992973461747">
        <ele>1123</ele>
        <time>2010-06-13T09:36:16Z</time>
      </trkpt>
      <trkpt lat="45.912180980667472" lon="9.087032033130527">
        <ele>1123</ele>
        <time>2010-06-13T09:36:17Z</time>
      </trkpt>
      <trkpt lat="45.912145022302866" lon="9.08708400093019">
        <ele>1123</ele>
        <time>2010-06-13T09:36:18Z</time>
      </trkpt>
      <trkpt lat="45.912118032574654" lon="9.087121970951557">
        <ele>1122</ele>
        <time>2010-06-13T09:36:19Z</time>
      </trkpt>
      <trkpt lat="45.91209095902741" lon="9.087161030620337">
        <ele>1122</ele>
        <time>2010-06-13T09:36:20Z</time>
      </trkpt>
      <trkpt lat="45.912063969299197" lon="9.087199000641704">
        <ele>1122</ele>
        <time>2010-06-13T09:36:21Z</time>
      </trkpt>
      <trkpt lat="45.912036979570985" lon="9.087237976491451">
        <ele>1122</ele>
        <time>2010-06-13T09:36:22Z</time>
      </trkpt>
      <trkpt lat="45.912018958479166" lon="9.087290028110147">
        <ele>1122</ele>
        <time>2010-06-13T09:36:23Z</time>
      </trkpt>
      <trkpt lat="45.911990962922573" lon="9.087327998131514">
        <ele>1122</ele>
        <time>2010-06-13T09:36:24Z</time>
      </trkpt>
      <trkpt lat="45.911973025649786" lon="9.087366973981261">
        <ele>1122</ele>
        <time>2010-06-13T09:36:25Z</time>
      </trkpt>
      <trkpt lat="45.911956010386348" lon="9.087393041700125">
        <ele>1123</ele>
        <time>2010-06-13T09:36:26Z</time>
      </trkpt>
      <trkpt lat="45.911928014829755" lon="9.087431011721492">
        <ele>1122</ele>
        <time>2010-06-13T09:36:27Z</time>
      </trkpt>
      <trkpt lat="45.911883004009724" lon="9.087482979521155">
        <ele>1121</ele>
        <time>2010-06-13T09:36:28Z</time>
      </trkpt>
      <trkpt lat="45.911856014281511" lon="9.087547017261386">
        <ele>1121</ele>
        <time>2010-06-13T09:36:29Z</time>
      </trkpt>
      <trkpt lat="45.911829024553299" lon="9.08759898506105">
        <ele>1119</ele>
        <time>2010-06-13T09:36:30Z</time>
      </trkpt>
      <trkpt lat="45.91181100346148" lon="9.087651036679745">
        <ele>1120</ele>
        <time>2010-06-13T09:36:31Z</time>
      </trkpt>
      <trkpt lat="45.911792982369661" lon="9.087714990600944">
        <ele>1120</ele>
        <time>2010-06-13T09:36:32Z</time>
      </trkpt>
      <trkpt lat="45.911757024005055" lon="9.087779028341174">
        <ele>1119</ele>
        <time>2010-06-13T09:36:33Z</time>
      </trkpt>
      <trkpt lat="45.911730034276843" lon="9.087830996140838">
        <ele>1119</ele>
        <time>2010-06-13T09:36:34Z</time>
      </trkpt>
      <trkpt lat="45.911702960729599" lon="9.087895033881068">
        <ele>1119</ele>
        <time>2010-06-13T09:36:35Z</time>
      </trkpt>
      <trkpt lat="45.911693992093205" lon="9.087947001680732">
        <ele>1119</ele>
        <time>2010-06-13T09:36:36Z</time>
      </trkpt>
      <trkpt lat="45.911685023456812" lon="9.088011039420962">
        <ele>1119</ele>
        <time>2010-06-13T09:36:37Z</time>
      </trkpt>
      <trkpt lat="45.911675971001387" lon="9.088075999170542">
        <ele>1119</ele>
        <time>2010-06-13T09:36:38Z</time>
      </trkpt>
      <trkpt lat="45.9116580337286" lon="9.088153028860688">
        <ele>1118</ele>
        <time>2010-06-13T09:36:39Z</time>
      </trkpt>
      <trkpt lat="45.911648981273174" lon="9.088216982781887">
        <ele>1116</ele>
        <time>2010-06-13T09:36:40Z</time>
      </trkpt>
      <trkpt lat="45.911640012636781" lon="9.088282026350498">
        <ele>1115</ele>
        <time>2010-06-13T09:36:42Z</time>
      </trkpt>
      <trkpt lat="45.911640012636781" lon="9.088411023840308">
        <ele>1115</ele>
        <time>2010-06-13T09:36:43Z</time>
      </trkpt>
      <trkpt lat="45.911621991544962" lon="9.088487969711423">
        <ele>1115</ele>
        <time>2010-06-13T09:36:44Z</time>
      </trkpt>
      <trkpt lat="45.911603970453143" lon="9.08856600522995">
        <ele>1115</ele>
        <time>2010-06-13T09:36:45Z</time>
      </trkpt>
      <trkpt lat="45.911602964624763" lon="9.088656026870012">
        <ele>1115</ele>
        <time>2010-06-13T09:36:46Z</time>
      </trkpt>
      <trkpt lat="45.911602964624763" lon="9.088732972741127">
        <ele>1114</ele>
        <time>2010-06-13T09:36:47Z</time>
      </trkpt>
      <trkpt lat="45.911602964624763" lon="9.088811008259654">
        <ele>1115</ele>
        <time>2010-06-13T09:36:48Z</time>
      </trkpt>
      <trkpt lat="45.911612017080188" lon="9.088874962180853">
        <ele>1114</ele>
        <time>2010-06-13T09:36:49Z</time>
      </trkpt>
      <trkpt lat="45.911602964624763" lon="9.089030027389526">
        <ele>1113</ele>
        <time>2010-06-13T09:36:51Z</time>
      </trkpt>
      <trkpt lat="45.911593995988369" lon="9.089106973260641">
        <ele>1114</ele>
        <time>2010-06-13T09:36:52Z</time>
      </trkpt>
      <trkpt lat="45.911585027351975" lon="9.089184002950788">
        <ele>1113</ele>
        <time>2010-06-13T09:36:53Z</time>
      </trkpt>
      <trkpt lat="45.91157597489655" lon="9.089248962700367">
        <ele>1113</ele>
        <time>2010-06-13T09:36:54Z</time>
      </trkpt>
      <trkpt lat="45.91157597489655" lon="9.089325992390513">
        <ele>1112</ele>
        <time>2010-06-13T09:36:55Z</time>
      </trkpt>
      <trkpt lat="45.91157597489655" lon="9.089377960190177">
        <ele>1112</ele>
        <time>2010-06-13T09:36:56Z</time>
      </trkpt>
      <trkpt lat="45.911585027351975" lon="9.089441997930408">
        <ele>1110</ele>
        <time>2010-06-13T09:36:57Z</time>
      </trkpt>
      <trkpt lat="45.911585027351975" lon="9.089493965730071">
        <ele>1110</ele>
        <time>2010-06-13T09:36:58Z</time>
      </trkpt>
      <trkpt lat="45.911585027351975" lon="9.089546017348766">
        <ele>1110</ele>
        <time>2010-06-13T09:36:59Z</time>
      </trkpt>
      <trkpt lat="45.91157597489655" lon="9.089596979320049">
        <ele>1110</ele>
        <time>2010-06-13T09:37:00Z</time>
      </trkpt>
      <trkpt lat="45.911567006260157" lon="9.089636038988829">
        <ele>1110</ele>
        <time>2010-06-13T09:37:01Z</time>
      </trkpt>
      <trkpt lat="45.911540016531944" lon="9.089674009010196">
        <ele>1110</ele>
        <time>2010-06-13T09:37:02Z</time>
      </trkpt>
      <trkpt lat="45.911512020975351" lon="9.089712984859943">
        <ele>1110</ele>
        <time>2010-06-13T09:37:03Z</time>
      </trkpt>
      <trkpt lat="45.911476984620094" lon="9.089751960709691">
        <ele>1110</ele>
        <time>2010-06-13T09:37:04Z</time>
      </trkpt>
      <trkpt lat="45.911430967971683" lon="9.089803006500006">
        <ele>1110</ele>
        <time>2010-06-13T09:37:05Z</time>
      </trkpt>
      <trkpt lat="45.911396015435457" lon="9.089854974299669">
        <ele>1110</ele>
        <time>2010-06-13T09:37:06Z</time>
      </trkpt>
      <trkpt lat="45.911358967423439" lon="9.089906020089984">
        <ele>1110</ele>
        <time>2010-06-13T09:37:07Z</time>
      </trkpt>
      <trkpt lat="45.911332983523607" lon="9.089944995939732">
        <ele>1110</ele>
        <time>2010-06-13T09:37:08Z</time>
      </trkpt>
      <trkpt lat="45.911287972703576" lon="9.089970979839563">
        <ele>1110</ele>
        <time>2010-06-13T09:37:09Z</time>
      </trkpt>
      <trkpt lat="45.911259977146983" lon="9.090009033679962">
        <ele>1110</ele>
        <time>2010-06-13T09:37:10Z</time>
      </trkpt>
      <trkpt lat="45.911205997690558" lon="9.09004800952971">
        <ele>1105</ele>
        <time>2010-06-13T09:37:11Z</time>
      </trkpt>
      <trkpt lat="45.911142965778708" lon="9.090098971500993">
        <ele>1105</ele>
        <time>2010-06-13T09:37:12Z</time>
      </trkpt>
      <trkpt lat="45.911088986322284" lon="9.090138031169772">
        <ele>1105</ele>
        <time>2010-06-13T09:37:13Z</time>
      </trkpt>
      <trkpt lat="45.911035006865859" lon="9.090176001191139">
        <ele>1105</ele>
        <time>2010-06-13T09:37:14Z</time>
      </trkpt>
      <trkpt lat="45.910981027409434" lon="9.090214977040887">
        <ele>1101</ele>
        <time>2010-06-13T09:37:15Z</time>
      </trkpt>
      <trkpt lat="45.910926964133978" lon="9.090240960940719">
        <ele>1101</ele>
        <time>2010-06-13T09:37:16Z</time>
      </trkpt>
      <trkpt lat="45.910872984677553" lon="9.090266022831202">
        <ele>1099</ele>
        <time>2010-06-13T09:37:17Z</time>
      </trkpt>
      <trkpt lat="45.910819005221128" lon="9.090279014781117">
        <ele>1098</ele>
        <time>2010-06-13T09:37:18Z</time>
      </trkpt>
      <trkpt lat="45.910747004672885" lon="9.090317990630865">
        <ele>1097</ele>
        <time>2010-06-13T09:37:19Z</time>
      </trkpt>
      <trkpt lat="45.910701993852854" lon="9.090330982580781">
        <ele>1094</ele>
        <time>2010-06-13T09:37:20Z</time>
      </trkpt>
      <trkpt lat="45.910638961941004" lon="9.090342968702316">
        <ele>1094</ele>
        <time>2010-06-13T09:37:21Z</time>
      </trkpt>
      <trkpt lat="45.910584982484579" lon="9.090355960652232">
        <ele>1096</ele>
        <time>2010-06-13T09:37:22Z</time>
      </trkpt>
      <trkpt lat="45.910522034391761" lon="9.090382028371096">
        <ele>1097</ele>
        <time>2010-06-13T09:37:23Z</time>
      </trkpt>
      <trkpt lat="45.910459002479911" lon="9.090421004220843">
        <ele>1097</ele>
        <time>2010-06-13T09:37:24Z</time>
      </trkpt>
      <trkpt lat="45.910405023023486" lon="9.090445982292295">
        <ele>1097</ele>
        <time>2010-06-13T09:37:25Z</time>
      </trkpt>
      <trkpt lat="45.910341991111636" lon="9.090484958142042">
        <ele>1097</ele>
        <time>2010-06-13T09:37:26Z</time>
      </trkpt>
      <trkpt lat="45.910251969471574" lon="9.090561987832189">
        <ele>1097</ele>
        <time>2010-06-13T09:37:27Z</time>
      </trkpt>
      <trkpt lat="45.910162031650543" lon="9.090665001422167">
        <ele>1097</ele>
        <time>2010-06-13T09:37:28Z</time>
      </trkpt>
      <trkpt lat="45.9100900311023" lon="9.090755023062229">
        <ele>1097</ele>
        <time>2010-06-13T09:37:29Z</time>
      </trkpt>
      <trkpt lat="45.91002699919045" lon="9.090805985033512">
        <ele>1097</ele>
        <time>2010-06-13T09:37:30Z</time>
      </trkpt>
      <trkpt lat="45.909972013905644" lon="9.090858036652207">
        <ele>1097</ele>
        <time>2010-06-13T09:37:31Z</time>
      </trkpt>
      <trkpt lat="45.9099190402776" lon="9.090921990573406">
        <ele>1097</ele>
        <time>2010-06-13T09:37:32Z</time>
      </trkpt>
      <trkpt lat="45.909863971173763" lon="9.09097395837307">
        <ele>1097</ele>
        <time>2010-06-13T09:37:33Z</time>
      </trkpt>
      <trkpt lat="45.909818960353732" lon="9.091025004163384">
        <ele>1097</ele>
        <time>2010-06-13T09:37:34Z</time>
      </trkpt>
      <trkpt lat="45.909783001989126" lon="9.091089963912964">
        <ele>1097</ele>
        <time>2010-06-13T09:37:35Z</time>
      </trkpt>
      <trkpt lat="45.909737991169095" lon="9.091141009703279">
        <ele>1097</ele>
        <time>2010-06-13T09:37:36Z</time>
      </trkpt>
      <trkpt lat="45.909692980349064" lon="9.091205969452858">
        <ele>1097</ele>
        <time>2010-06-13T09:37:37Z</time>
      </trkpt>
      <trkpt lat="45.909639000892639" lon="9.091270007193089">
        <ele>1097</ele>
        <time>2010-06-13T09:37:38Z</time>
      </trkpt>
      <trkpt lat="45.909593990072608" lon="9.091333961114287">
        <ele>1097</ele>
        <time>2010-06-13T09:37:39Z</time>
      </trkpt>
      <trkpt lat="45.909548979252577" lon="9.091411996632814">
        <ele>1097</ele>
        <time>2010-06-13T09:37:40Z</time>
      </trkpt>
      <trkpt lat="45.909521989524364" lon="9.091462958604097">
        <ele>1076</ele>
        <time>2010-06-13T09:37:41Z</time>
      </trkpt>
      <trkpt lat="45.90946801006794" lon="9.091528002172709">
        <ele>1075</ele>
        <time>2010-06-13T09:37:42Z</time>
      </trkpt>
      <trkpt lat="45.909441020339727" lon="9.091578964143992">
        <ele>1075</ele>
        <time>2010-06-13T09:37:43Z</time>
      </trkpt>
      <trkpt lat="45.90940497815609" lon="9.091631015762687">
        <ele>1074</ele>
        <time>2010-06-13T09:37:44Z</time>
      </trkpt>
      <trkpt lat="45.909387040883303" lon="9.091668985784054">
        <ele>1072</ele>
        <time>2010-06-13T09:37:45Z</time>
      </trkpt>
      <trkpt lat="45.909369019791484" lon="9.091734029352665">
        <ele>1073</ele>
        <time>2010-06-13T09:37:46Z</time>
      </trkpt>
      <trkpt lat="45.909342030063272" lon="9.09181097522378">
        <ele>1073</ele>
        <time>2010-06-13T09:37:47Z</time>
      </trkpt>
      <trkpt lat="45.909315040335059" lon="9.091888004913926">
        <ele>1071</ele>
        <time>2010-06-13T09:37:48Z</time>
      </trkpt>
      <trkpt lat="45.909278998151422" lon="9.091979032382369">
        <ele>1070</ele>
        <time>2010-06-13T09:37:49Z</time>
      </trkpt>
      <trkpt lat="45.909242033958435" lon="9.0920689702034">
        <ele>1068</ele>
        <time>2010-06-13T09:37:50Z</time>
      </trkpt>
      <trkpt lat="45.909205991774797" lon="9.092158991843462">
        <ele>1068</ele>
        <time>2010-06-13T09:37:51Z</time>
      </trkpt>
      <trkpt lat="45.909179002046585" lon="9.092236021533608">
        <ele>1069</ele>
        <time>2010-06-13T09:37:52Z</time>
      </trkpt>
      <trkpt lat="45.909142959862947" lon="9.092313973233104">
        <ele>1068</ele>
        <time>2010-06-13T09:37:53Z</time>
      </trkpt>
      <trkpt lat="45.909107001498342" lon="9.09239100292325">
        <ele>1066</ele>
        <time>2010-06-13T09:37:54Z</time>
      </trkpt>
      <trkpt lat="45.909070959314704" lon="9.092455040663481">
        <ele>1064</ele>
        <time>2010-06-13T09:37:55Z</time>
      </trkpt>
      <trkpt lat="45.909035000950098" lon="9.092545984312892">
        <ele>1064</ele>
        <time>2010-06-13T09:37:56Z</time>
      </trkpt>
      <trkpt lat="45.90899895876646" lon="9.092623014003038">
        <ele>1064</ele>
        <time>2010-06-13T09:37:57Z</time>
      </trkpt>
      <trkpt lat="45.908963000401855" lon="9.092686967924237">
        <ele>1064</ele>
        <time>2010-06-13T09:37:58Z</time>
      </trkpt>
      <trkpt lat="45.908926958218217" lon="9.092763997614384">
        <ele>1064</ele>
        <time>2010-06-13T09:37:59Z</time>
      </trkpt>
      <trkpt lat="45.908899968490005" lon="9.092829041182995">
        <ele>1063</ele>
        <time>2010-06-13T09:38:00Z</time>
      </trkpt>
      <trkpt lat="45.908864010125399" lon="9.092892995104194">
        <ele>1061</ele>
        <time>2010-06-13T09:38:01Z</time>
      </trkpt>
      <trkpt lat="45.908855041489005" lon="9.092931970953941">
        <ele>1060</ele>
        <time>2010-06-13T09:38:02Z</time>
      </trkpt>
      <trkpt lat="45.908837020397186" lon="9.092984022572637">
        <ele>1059</ele>
        <time>2010-06-13T09:38:03Z</time>
      </trkpt>
      <trkpt lat="45.908818999305367" lon="9.093021992594004">
        <ele>1058</ele>
        <time>2010-06-13T09:38:04Z</time>
      </trkpt>
      <trkpt lat="45.908818999305367" lon="9.093060968443751">
        <ele>1056</ele>
        <time>2010-06-13T09:38:05Z</time>
      </trkpt>
      <trkpt lat="45.908827967941761" lon="9.093113020062447">
        <ele>1056</ele>
        <time>2010-06-13T09:38:06Z</time>
      </trkpt>
      <trkpt lat="45.908818999305367" lon="9.09316398203373">
        <ele>1057</ele>
        <time>2010-06-13T09:38:07Z</time>
      </trkpt>
      <trkpt lat="45.908800978213549" lon="9.093216033652425">
        <ele>1057</ele>
        <time>2010-06-13T09:38:08Z</time>
      </trkpt>
      <trkpt lat="45.908764014020562" lon="9.093266995623708">
        <ele>1056</ele>
        <time>2010-06-13T09:38:09Z</time>
      </trkpt>
      <trkpt lat="45.908719003200531" lon="9.093305971473455">
        <ele>1055</ele>
        <time>2010-06-13T09:38:10Z</time>
      </trkpt>
      <trkpt lat="45.9086739923805" lon="9.09335701726377">
        <ele>1055</ele>
        <time>2010-06-13T09:38:11Z</time>
      </trkpt>
      <trkpt lat="45.908647002652287" lon="9.093383001163602">
        <ele>1055</ele>
        <time>2010-06-13T09:38:12Z</time>
      </trkpt>
      <trkpt lat="45.908621018752456" lon="9.093383001163602">
        <ele>1054</ele>
        <time>2010-06-13T09:38:13Z</time>
      </trkpt>
      <trkpt lat="45.90861096046865" lon="9.093383001163602">
        <ele>1054</ele>
        <time>2010-06-13T09:38:14Z</time>
      </trkpt>
      <trkpt lat="45.908601991832256" lon="9.093383001163602">
        <ele>1054</ele>
        <time>2010-06-13T09:38:15Z</time>
      </trkpt>
      <trkpt lat="45.9085030015558" lon="9.093420971184969">
        <ele>1053</ele>
        <time>2010-06-13T09:38:47Z</time>
      </trkpt>
      <trkpt lat="45.908476011827588" lon="9.093460030853748">
        <ele>1052</ele>
        <time>2010-06-13T09:38:48Z</time>
      </trkpt>
      <trkpt lat="45.908449022099376" lon="9.093499006703496">
        <ele>1050</ele>
        <time>2010-06-13T09:38:49Z</time>
      </trkpt>
      <trkpt lat="45.908404011279345" lon="9.093549968674779">
        <ele>1051</ele>
        <time>2010-06-13T09:38:50Z</time>
      </trkpt>
      <trkpt lat="45.908359000459313" lon="9.093602020293474">
        <ele>1051</ele>
        <time>2010-06-13T09:38:51Z</time>
      </trkpt>
      <trkpt lat="45.908305021002889" lon="9.093652982264757">
        <ele>1051</ele>
        <time>2010-06-13T09:38:52Z</time>
      </trkpt>
      <trkpt lat="45.908260010182858" lon="9.093717020004988">
        <ele>1049</ele>
        <time>2010-06-13T09:38:53Z</time>
      </trkpt>
      <trkpt lat="45.908214999362826" lon="9.093781979754567">
        <ele>1048</ele>
        <time>2010-06-13T09:38:54Z</time>
      </trkpt>
      <trkpt lat="45.908169988542795" lon="9.093859009444714">
        <ele>1048</ele>
        <time>2010-06-13T09:38:55Z</time>
      </trkpt>
      <trkpt lat="45.908124977722764" lon="9.093910977244377">
        <ele>1048</ele>
        <time>2010-06-13T09:38:56Z</time>
      </trkpt>
      <trkpt lat="45.908079966902733" lon="9.093949031084776">
        <ele>1048</ele>
        <time>2010-06-13T09:38:57Z</time>
      </trkpt>
      <trkpt lat="45.908035039901733" lon="9.09400099888444">
        <ele>1048</ele>
        <time>2010-06-13T09:38:58Z</time>
      </trkpt>
      <trkpt lat="45.907998997718096" lon="9.094051960855722">
        <ele>1048</ele>
        <time>2010-06-13T09:38:59Z</time>
      </trkpt>
      <trkpt lat="45.907953986898065" lon="9.094091020524502">
        <ele>1047</ele>
        <time>2010-06-13T09:39:00Z</time>
      </trkpt>
      <trkpt lat="45.907908976078033" lon="9.094141982495785">
        <ele>1047</ele>
        <time>2010-06-13T09:39:01Z</time>
      </trkpt>
      <trkpt lat="45.907863965258002" lon="9.09419403411448">
        <ele>1047</ele>
        <time>2010-06-13T09:39:02Z</time>
      </trkpt>
      <trkpt lat="45.907828006893396" lon="9.094244996085763">
        <ele>1047</ele>
        <time>2010-06-13T09:39:03Z</time>
      </trkpt>
      <trkpt lat="45.907782996073365" lon="9.094296963885427">
        <ele>1047</ele>
        <time>2010-06-13T09:39:04Z</time>
      </trkpt>
      <trkpt lat="45.907736979424953" lon="9.094336023554206">
        <ele>1047</ele>
        <time>2010-06-13T09:39:05Z</time>
      </trkpt>
      <trkpt lat="45.907684005796909" lon="9.094373993575573">
        <ele>1047</ele>
        <time>2010-06-13T09:39:06Z</time>
      </trkpt>
      <trkpt lat="45.907638994976878" lon="9.094412969425321">
        <ele>1046</ele>
        <time>2010-06-13T09:39:07Z</time>
      </trkpt>
      <trkpt lat="45.907593984156847" lon="9.094451023265719">
        <ele>1046</ele>
        <time>2010-06-13T09:39:08Z</time>
      </trkpt>
      <trkpt lat="45.907538998872042" lon="9.094477007165551">
        <ele>1045</ele>
        <time>2010-06-13T09:39:09Z</time>
      </trkpt>
      <trkpt lat="45.907486025243998" lon="9.094527969136834">
        <ele>1046</ele>
        <time>2010-06-13T09:39:10Z</time>
      </trkpt>
      <trkpt lat="45.907441014423966" lon="9.094567028805614">
        <ele>1045</ele>
        <time>2010-06-13T09:39:11Z</time>
      </trkpt>
      <trkpt lat="45.907413018867373" lon="9.094606004655361">
        <ele>1046</ele>
        <time>2010-06-13T09:39:12Z</time>
      </trkpt>
      <trkpt lat="45.907386029139161" lon="9.094630982726812">
        <ele>1046</ele>
        <time>2010-06-13T09:39:13Z</time>
      </trkpt>
      <trkpt lat="45.907359039410949" lon="9.094656966626644">
        <ele>1047</ele>
        <time>2010-06-13T09:39:14Z</time>
      </trkpt>
      <trkpt lat="45.907331965863705" lon="9.094696026295424">
        <ele>1046</ele>
        <time>2010-06-13T09:39:15Z</time>
      </trkpt>
      <trkpt lat="45.907304976135492" lon="9.094721004366875">
        <ele>1046</ele>
        <time>2010-06-13T09:39:16Z</time>
      </trkpt>
      <trkpt lat="45.90727798640728" lon="9.094746988266707">
        <ele>1045</ele>
        <time>2010-06-13T09:39:17Z</time>
      </trkpt>
      <trkpt lat="45.907250996679068" lon="9.094772972166538">
        <ele>1045</ele>
        <time>2010-06-13T09:39:18Z</time>
      </trkpt>
      <trkpt lat="45.907205985859036" lon="9.094799039885402">
        <ele>1045</ele>
        <time>2010-06-13T09:39:19Z</time>
      </trkpt>
      <trkpt lat="45.907160975039005" lon="9.094837009906769">
        <ele>1046</ele>
        <time>2010-06-13T09:39:20Z</time>
      </trkpt>
      <trkpt lat="45.907115964218974" lon="9.094862993806601">
        <ele>1046</ele>
        <time>2010-06-13T09:39:21Z</time>
      </trkpt>
      <trkpt lat="45.907071037217975" lon="9.094888977706432">
        <ele>1045</ele>
        <time>2010-06-13T09:39:22Z</time>
      </trkpt>
      <trkpt lat="45.907034995034337" lon="9.094927031546831">
        <ele>1044</ele>
        <time>2010-06-13T09:39:23Z</time>
      </trkpt>
      <trkpt lat="45.906999036669731" lon="9.094978999346495">
        <ele>1044</ele>
        <time>2010-06-13T09:39:24Z</time>
      </trkpt>
      <trkpt lat="45.906971963122487" lon="9.095016969367862">
        <ele>1043</ele>
        <time>2010-06-13T09:39:25Z</time>
      </trkpt>
      <trkpt lat="45.906944973394275" lon="9.095069020986557">
        <ele>1043</ele>
        <time>2010-06-13T09:39:26Z</time>
      </trkpt>
      <trkpt lat="45.906927036121488" lon="9.095120988786221">
        <ele>1043</ele>
        <time>2010-06-13T09:39:27Z</time>
      </trkpt>
      <trkpt lat="45.906899962574244" lon="9.095185026526451">
        <ele>1042</ele>
        <time>2010-06-13T09:39:28Z</time>
      </trkpt>
      <trkpt lat="45.906882025301456" lon="9.095261972397566">
        <ele>1041</ele>
        <time>2010-06-13T09:39:29Z</time>
      </trkpt>
      <trkpt lat="45.906855035573244" lon="9.095340007916093">
        <ele>1041</ele>
        <time>2010-06-13T09:39:30Z</time>
      </trkpt>
      <trkpt lat="45.906827962026" lon="9.095417037606239">
        <ele>1041</ele>
        <time>2010-06-13T09:39:31Z</time>
      </trkpt>
      <trkpt lat="45.906810024753213" lon="9.095480991527438">
        <ele>1041</ele>
        <time>2010-06-13T09:39:32Z</time>
      </trkpt>
      <trkpt lat="45.906792003661394" lon="9.095546035096049">
        <ele>1042</ele>
        <time>2010-06-13T09:39:33Z</time>
      </trkpt>
      <trkpt lat="45.906773982569575" lon="9.095609989017248">
        <ele>1041</ele>
        <time>2010-06-13T09:39:35Z</time>
      </trkpt>
      <trkpt lat="45.906737018376589" lon="9.095725994557142">
        <ele>1040</ele>
        <time>2010-06-13T09:39:36Z</time>
      </trkpt>
      <trkpt lat="45.90671899728477" lon="9.095791038125753">
        <ele>1040</ele>
        <time>2010-06-13T09:39:37Z</time>
      </trkpt>
      <trkpt lat="45.906700976192951" lon="9.095854992046952">
        <ele>1039</ele>
        <time>2010-06-13T09:39:38Z</time>
      </trkpt>
      <trkpt lat="45.906692007556558" lon="9.095933027565479">
        <ele>1040</ele>
        <time>2010-06-13T09:39:39Z</time>
      </trkpt>
      <trkpt lat="45.906673986464739" lon="9.095996981486678">
        <ele>1039</ele>
        <time>2010-06-13T09:39:40Z</time>
      </trkpt>
      <trkpt lat="45.906665017828345" lon="9.096074011176825">
        <ele>1039</ele>
        <time>2010-06-13T09:39:41Z</time>
      </trkpt>
      <trkpt lat="45.906646996736526" lon="9.096138970926404">
        <ele>1039</ele>
        <time>2010-06-13T09:39:42Z</time>
      </trkpt>
      <trkpt lat="45.90665596537292" lon="9.09621600061655">
        <ele>1040</ele>
        <time>2010-06-13T09:39:43Z</time>
      </trkpt>
      <trkpt lat="45.906665017828345" lon="9.096266962587833">
        <ele>1041</ele>
        <time>2010-06-13T09:39:44Z</time>
      </trkpt>
      <trkpt lat="45.906683038920164" lon="9.096319014206529">
        <ele>1041</ele>
        <time>2010-06-13T09:39:45Z</time>
      </trkpt>
      <trkpt lat="45.906692007556558" lon="9.096370982006192">
        <ele>1041</ele>
        <time>2010-06-13T09:39:46Z</time>
      </trkpt>
      <trkpt lat="45.906692007556558" lon="9.096409035846591">
        <ele>1040</ele>
        <time>2010-06-13T09:39:47Z</time>
      </trkpt>
      <trkpt lat="45.906700976192951" lon="9.096461003646255">
        <ele>1041</ele>
        <time>2010-06-13T09:39:48Z</time>
      </trkpt>
      <trkpt lat="45.906700976192951" lon="9.096511965617538">
        <ele>1041</ele>
        <time>2010-06-13T09:39:49Z</time>
      </trkpt>
      <trkpt lat="45.906710028648376" lon="9.096538033336401">
        <ele>1041</ele>
        <time>2010-06-13T09:39:50Z</time>
      </trkpt>
      <trkpt lat="45.90671899728477" lon="9.096564017236233">
        <ele>1041</ele>
        <time>2010-06-13T09:39:51Z</time>
      </trkpt>
      <trkpt lat="45.90671899728477" lon="9.096590001136065">
        <ele>1042</ele>
        <time>2010-06-13T09:39:52Z</time>
      </trkpt>
      <trkpt lat="45.906727965921164" lon="9.096615985035896">
        <ele>1042</ele>
        <time>2010-06-13T09:39:53Z</time>
      </trkpt>
      <trkpt lat="45.906727965921164" lon="9.096628976985812">
        <ele>1042</ele>
        <time>2010-06-13T09:39:54Z</time>
      </trkpt>
      <trkpt lat="45.906737018376589" lon="9.096654038876295">
        <ele>1042</ele>
        <time>2010-06-13T09:39:55Z</time>
      </trkpt>
      <trkpt lat="45.906737018376589" lon="9.096667030826211">
        <ele>1042</ele>
        <time>2010-06-13T09:39:56Z</time>
      </trkpt>
      <trkpt lat="45.906745987012982" lon="9.096693014726043">
        <ele>1042</ele>
        <time>2010-06-13T09:39:57Z</time>
      </trkpt>
      <trkpt lat="45.906754033640027" lon="9.096718998625875">
        <ele>1042</ele>
        <time>2010-06-13T09:39:58Z</time>
      </trkpt>
      <trkpt lat="45.906754033640027" lon="9.096756968647242">
        <ele>1042</ele>
        <time>2010-06-13T09:39:59Z</time>
      </trkpt>
      <trkpt lat="45.906764008104801" lon="9.096783036366105">
        <ele>1042</ele>
        <time>2010-06-13T09:40:00Z</time>
      </trkpt>
      <trkpt lat="45.906771970912814" lon="9.096822012215853">
        <ele>1042</ele>
        <time>2010-06-13T09:40:01Z</time>
      </trkpt>
      <trkpt lat="45.906790997833014" lon="9.096847996115685">
        <ele>1042</ele>
        <time>2010-06-13T09:40:02Z</time>
      </trkpt>
      <trkpt lat="45.906798960641026" lon="9.096886971965432">
        <ele>1043</ele>
        <time>2010-06-13T09:40:03Z</time>
      </trkpt>
      <trkpt lat="45.906808013096452" lon="9.096913039684296">
        <ele>1042</ele>
        <time>2010-06-13T09:40:04Z</time>
      </trkpt>
      <trkpt lat="45.906816981732845" lon="9.096938017755747">
        <ele>1043</ele>
        <time>2010-06-13T09:40:05Z</time>
      </trkpt>
      <trkpt lat="45.906826034188271" lon="9.096976993605495">
        <ele>1043</ele>
        <time>2010-06-13T09:40:06Z</time>
      </trkpt>
      <trkpt lat="45.906835002824664" lon="9.097002977505326">
        <ele>1044</ele>
        <time>2010-06-13T09:40:07Z</time>
      </trkpt>
      <trkpt lat="45.906843971461058" lon="9.097028961405158">
        <ele>1044</ele>
        <time>2010-06-13T09:40:08Z</time>
      </trkpt>
      <trkpt lat="45.906861992552876" lon="9.097054023295641">
        <ele>1044</ele>
        <time>2010-06-13T09:40:09Z</time>
      </trkpt>
      <trkpt lat="45.906880013644695" lon="9.097092999145389">
        <ele>1044</ele>
        <time>2010-06-13T09:40:10Z</time>
      </trkpt>
      <trkpt lat="45.906888982281089" lon="9.097131974995136">
        <ele>1044</ele>
        <time>2010-06-13T09:40:11Z</time>
      </trkpt>
      <trkpt lat="45.906898034736514" lon="9.097157036885619">
        <ele>1044</ele>
        <time>2010-06-13T09:40:12Z</time>
      </trkpt>
      <trkpt lat="45.906907003372908" lon="9.097183020785451">
        <ele>1045</ele>
        <time>2010-06-13T09:40:13Z</time>
      </trkpt>
      <trkpt lat="45.906907003372908" lon="9.097209004685283">
        <ele>1045</ele>
        <time>2010-06-13T09:40:14Z</time>
      </trkpt>
      <trkpt lat="45.906907003372908" lon="9.097234988585115">
        <ele>1046</ele>
        <time>2010-06-13T09:40:15Z</time>
      </trkpt>
      <trkpt lat="45.906915972009301" lon="9.097260972484946">
        <ele>1046</ele>
        <time>2010-06-13T09:40:16Z</time>
      </trkpt>
      <trkpt lat="45.906925024464726" lon="9.097286034375429">
        <ele>1046</ele>
        <time>2010-06-13T09:40:17Z</time>
      </trkpt>
      <trkpt lat="45.906925024464726" lon="9.097312018275261">
        <ele>1045</ele>
        <time>2010-06-13T09:40:18Z</time>
      </trkpt>
      <trkpt lat="45.90693399310112" lon="9.097338002175093">
        <ele>1046</ele>
        <time>2010-06-13T09:40:19Z</time>
      </trkpt>
      <trkpt lat="45.90693399310112" lon="9.097363986074925">
        <ele>1046</ele>
        <time>2010-06-13T09:40:20Z</time>
      </trkpt>
      <trkpt lat="45.90693399310112" lon="9.097389969974756">
        <ele>1046</ele>
        <time>2010-06-13T09:40:21Z</time>
      </trkpt>
      <trkpt lat="45.906942961737514" lon="9.09741603769362">
        <ele>1046</ele>
        <time>2010-06-13T09:40:22Z</time>
      </trkpt>
      <trkpt lat="45.906942961737514" lon="9.097441015765071">
        <ele>1047</ele>
        <time>2010-06-13T09:40:23Z</time>
      </trkpt>
      <trkpt lat="45.906952014192939" lon="9.097454007714987">
        <ele>1047</ele>
        <time>2010-06-13T09:40:24Z</time>
      </trkpt>
      <trkpt lat="45.906952014192939" lon="9.097479991614819">
        <ele>1048</ele>
        <time>2010-06-13T09:40:25Z</time>
      </trkpt>
      <trkpt lat="45.906960982829332" lon="9.09750597551465">
        <ele>1047</ele>
        <time>2010-06-13T09:40:26Z</time>
      </trkpt>
      <trkpt lat="45.906970035284758" lon="9.097531959414482">
        <ele>1048</ele>
        <time>2010-06-13T09:40:27Z</time>
      </trkpt>
      <trkpt lat="45.906979003921151" lon="9.097557021304965">
        <ele>1048</ele>
        <time>2010-06-13T09:40:28Z</time>
      </trkpt>
      <trkpt lat="45.906987972557545" lon="9.097570013254881">
        <ele>1048</ele>
        <time>2010-06-13T09:40:29Z</time>
      </trkpt>
      <trkpt lat="45.90699702501297" lon="9.097595997154713">
        <ele>1048</ele>
        <time>2010-06-13T09:40:30Z</time>
      </trkpt>
      <trkpt lat="45.907005993649364" lon="9.097608989104629">
        <ele>1048</ele>
        <time>2010-06-13T09:40:31Z</time>
      </trkpt>
      <trkpt lat="45.907014962285757" lon="9.09763497300446">
        <ele>1050</ele>
        <time>2010-06-13T09:40:32Z</time>
      </trkpt>
      <trkpt lat="45.907024014741182" lon="9.097647964954376">
        <ele>1050</ele>
        <time>2010-06-13T09:40:33Z</time>
      </trkpt>
      <trkpt lat="45.907024014741182" lon="9.097661040723324">
        <ele>1050</ele>
        <time>2010-06-13T09:40:34Z</time>
      </trkpt>
      <trkpt lat="45.907032983377576" lon="9.097699010744691">
        <ele>1051</ele>
        <time>2010-06-13T09:40:36Z</time>
      </trkpt>
      <trkpt lat="45.907032983377576" lon="9.097712002694607">
        <ele>1051</ele>
        <time>2010-06-13T09:40:37Z</time>
      </trkpt>
      <trkpt lat="45.907032983377576" lon="9.097724994644523">
        <ele>1051</ele>
        <time>2010-06-13T09:40:38Z</time>
      </trkpt>
      <trkpt lat="45.907032983377576" lon="9.097737986594439">
        <ele>1052</ele>
        <time>2010-06-13T09:40:39Z</time>
      </trkpt>
      <trkpt lat="45.907042035833001" lon="9.09776397049427">
        <ele>1052</ele>
        <time>2010-06-13T09:40:40Z</time>
      </trkpt>
      <trkpt lat="45.907032983377576" lon="9.097776962444186">
        <ele>1052</ele>
        <time>2010-06-13T09:40:41Z</time>
      </trkpt>
      <trkpt lat="45.907032983377576" lon="9.097789032384753">
        <ele>1052</ele>
        <time>2010-06-13T09:40:42Z</time>
      </trkpt>
      <trkpt lat="45.907032983377576" lon="9.09780303016305">
        <ele>1052</ele>
        <time>2010-06-13T09:40:43Z</time>
      </trkpt>
      <trkpt lat="45.907042035833001" lon="9.097841000184417">
        <ele>1053</ele>
        <time>2010-06-13T09:40:46Z</time>
      </trkpt>
      <trkpt lat="45.907051004469395" lon="9.097866984084249">
        <ele>1053</ele>
        <time>2010-06-13T09:40:47Z</time>
      </trkpt>
      <trkpt lat="45.907051004469395" lon="9.097866984084249">
        <ele>1053</ele>
        <time>2010-06-13T09:40:48Z</time>
      </trkpt>
      <trkpt lat="45.907049998641014" lon="9.098253976553679">
        <ele>1057</ele>
        <time>2010-06-13T09:41:48Z</time>
      </trkpt>
      <trkpt lat="45.907049998641014" lon="9.098266968503594">
        <ele>1057</ele>
        <time>2010-06-13T09:41:49Z</time>
      </trkpt>
      <trkpt lat="45.907041030004621" lon="9.098279038444161">
        <ele>1057</ele>
        <time>2010-06-13T09:41:50Z</time>
      </trkpt>
      <trkpt lat="45.907041030004621" lon="9.098279038444161">
        <ele>1057</ele>
        <time>2010-06-13T09:41:51Z</time>
      </trkpt>
      <trkpt lat="45.907031977549195" lon="9.098292030394077">
        <ele>1057</ele>
        <time>2010-06-13T09:41:52Z</time>
      </trkpt>
      <trkpt lat="45.907031977549195" lon="9.098305022343993">
        <ele>1057</ele>
        <time>2010-06-13T09:41:53Z</time>
      </trkpt>
      <trkpt lat="45.907031977549195" lon="9.098305022343993">
        <ele>1058</ele>
        <time>2010-06-13T09:41:54Z</time>
      </trkpt>
      <trkpt lat="45.906969029456377" lon="9.098510965704918">
        <ele>1058</ele>
        <time>2010-06-13T09:44:13Z</time>
      </trkpt>
      <trkpt lat="45.906959977000952" lon="9.098537033423781">
        <ele>1058</ele>
        <time>2010-06-13T09:44:14Z</time>
      </trkpt>
      <trkpt lat="45.906959977000952" lon="9.098563017323613">
        <ele>1057</ele>
        <time>2010-06-13T09:44:15Z</time>
      </trkpt>
      <trkpt lat="45.906951008364558" lon="9.098589001223445">
        <ele>1057</ele>
        <time>2010-06-13T09:44:16Z</time>
      </trkpt>
      <trkpt lat="45.906951008364558" lon="9.098613979294896">
        <ele>1057</ele>
        <time>2010-06-13T09:44:17Z</time>
      </trkpt>
      <trkpt lat="45.906942039728165" lon="9.098639963194728">
        <ele>1058</ele>
        <time>2010-06-13T09:44:18Z</time>
      </trkpt>
      <trkpt lat="45.906942039728165" lon="9.098679022863507">
        <ele>1058</ele>
        <time>2010-06-13T09:44:19Z</time>
      </trkpt>
      <trkpt lat="45.906942039728165" lon="9.098692014813423">
        <ele>1058</ele>
        <time>2010-06-13T09:44:20Z</time>
      </trkpt>
      <trkpt lat="45.906932987272739" lon="9.098716992884874">
        <ele>1058</ele>
        <time>2010-06-13T09:44:21Z</time>
      </trkpt>
      <trkpt lat="45.906932987272739" lon="9.098742976784706">
        <ele>1058</ele>
        <time>2010-06-13T09:44:22Z</time>
      </trkpt>
      <trkpt lat="45.906924018636346" lon="9.098768960684538">
        <ele>1058</ele>
        <time>2010-06-13T09:44:23Z</time>
      </trkpt>
      <trkpt lat="45.906924018636346" lon="9.098795028403401">
        <ele>1058</ele>
        <time>2010-06-13T09:44:24Z</time>
      </trkpt>
      <trkpt lat="45.906914966180921" lon="9.098808020353317">
        <ele>1058</ele>
        <time>2010-06-13T09:44:25Z</time>
      </trkpt>
      <trkpt lat="45.906914966180921" lon="9.098834004253149">
        <ele>1058</ele>
        <time>2010-06-13T09:44:26Z</time>
      </trkpt>
      <trkpt lat="45.906914966180921" lon="9.0988589823246">
        <ele>1058</ele>
        <time>2010-06-13T09:44:27Z</time>
      </trkpt>
      <trkpt lat="45.906905997544527" lon="9.098911033943296">
        <ele>1058</ele>
        <time>2010-06-13T09:44:29Z</time>
      </trkpt>
      <trkpt lat="45.906914966180921" lon="9.098937017843127">
        <ele>1057</ele>
        <time>2010-06-13T09:44:30Z</time>
      </trkpt>
      <trkpt lat="45.906914966180921" lon="9.098975993692875">
        <ele>1059</ele>
        <time>2010-06-13T09:44:32Z</time>
      </trkpt>
      <trkpt lat="45.906914966180921" lon="9.099000971764326">
        <ele>1059</ele>
        <time>2010-06-13T09:44:33Z</time>
      </trkpt>
      <trkpt lat="45.906924018636346" lon="9.09902703948319">
        <ele>1059</ele>
        <time>2010-06-13T09:44:34Z</time>
      </trkpt>
      <trkpt lat="45.906924018636346" lon="9.099040031433106">
        <ele>1059</ele>
        <time>2010-06-13T09:44:35Z</time>
      </trkpt>
      <trkpt lat="45.906931981444359" lon="9.099066015332937">
        <ele>1059</ele>
        <time>2010-06-13T09:44:36Z</time>
      </trkpt>
      <trkpt lat="45.906931981444359" lon="9.099079007282853">
        <ele>1059</ele>
        <time>2010-06-13T09:44:37Z</time>
      </trkpt>
      <trkpt lat="45.906931981444359" lon="9.099103985354304">
        <ele>1059</ele>
        <time>2010-06-13T09:44:38Z</time>
      </trkpt>
      <trkpt lat="45.906942039728165" lon="9.09911697730422">
        <ele>1059</ele>
        <time>2010-06-13T09:44:39Z</time>
      </trkpt>
      <trkpt lat="45.906941033899784" lon="9.099142961204052">
        <ele>1060</ele>
        <time>2010-06-13T09:44:40Z</time>
      </trkpt>
      <trkpt lat="45.906941033899784" lon="9.099182020872831">
        <ele>1061</ele>
        <time>2010-06-13T09:44:42Z</time>
      </trkpt>
      <trkpt lat="45.906941033899784" lon="9.099195012822747">
        <ele>1061</ele>
        <time>2010-06-13T09:44:43Z</time>
      </trkpt>
      <trkpt lat="45.906951008364558" lon="9.099206998944283">
        <ele>1061</ele>
        <time>2010-06-13T09:44:44Z</time>
      </trkpt>
      <trkpt lat="45.906951008364558" lon="9.099232982844114">
        <ele>1061</ele>
        <time>2010-06-13T09:44:45Z</time>
      </trkpt>
      <trkpt lat="45.906951008364558" lon="9.09924597479403">
        <ele>1061</ele>
        <time>2010-06-13T09:44:46Z</time>
      </trkpt>
      <trkpt lat="45.906950002536178" lon="9.09928503446281">
        <ele>1062</ele>
        <time>2010-06-13T09:44:48Z</time>
      </trkpt>
      <trkpt lat="45.906958971172571" lon="9.099298026412725">
        <ele>1062</ele>
        <time>2010-06-13T09:44:49Z</time>
      </trkpt>
      <trkpt lat="45.906950002536178" lon="9.099311018362641">
        <ele>1062</ele>
        <time>2010-06-13T09:44:50Z</time>
      </trkpt>
      <trkpt lat="45.906950002536178" lon="9.099348988384008">
        <ele>1062</ele>
        <time>2010-06-13T09:44:52Z</time>
      </trkpt>
      <trkpt lat="45.906950002536178" lon="9.09937497228384">
        <ele>1062</ele>
        <time>2010-06-13T09:44:53Z</time>
      </trkpt>
      <trkpt lat="45.906941033899784" lon="9.099427023902535">
        <ele>1063</ele>
        <time>2010-06-13T09:44:55Z</time>
      </trkpt>
      <trkpt lat="45.906931981444359" lon="9.099440015852451">
        <ele>1064</ele>
        <time>2010-06-13T09:44:56Z</time>
      </trkpt>
      <trkpt lat="45.906931981444359" lon="9.099464993923903">
        <ele>1064</ele>
        <time>2010-06-13T09:44:57Z</time>
      </trkpt>
      <trkpt lat="45.906931981444359" lon="9.099490977823734">
        <ele>1064</ele>
        <time>2010-06-13T09:44:58Z</time>
      </trkpt>
      <trkpt lat="45.906923012807965" lon="9.099516961723566">
        <ele>1064</ele>
        <time>2010-06-13T09:44:59Z</time>
      </trkpt>
      <trkpt lat="45.90691396035254" lon="9.09954302944243">
        <ele>1063</ele>
        <time>2010-06-13T09:45:00Z</time>
      </trkpt>
      <trkpt lat="45.90691396035254" lon="9.099556021392345">
        <ele>1063</ele>
        <time>2010-06-13T09:45:01Z</time>
      </trkpt>
      <trkpt lat="45.906904991716146" lon="9.099569013342261">
        <ele>1063</ele>
        <time>2010-06-13T09:45:02Z</time>
      </trkpt>
      <trkpt lat="45.906886970624328" lon="9.099593991413713">
        <ele>1063</ele>
        <time>2010-06-13T09:45:03Z</time>
      </trkpt>
      <trkpt lat="45.906886970624328" lon="9.099619975313544">
        <ele>1064</ele>
        <time>2010-06-13T09:45:04Z</time>
      </trkpt>
      <trkpt lat="45.906869033351541" lon="9.09963296726346">
        <ele>1064</ele>
        <time>2010-06-13T09:45:05Z</time>
      </trkpt>
      <trkpt lat="45.906859980896115" lon="9.099659034982324">
        <ele>1063</ele>
        <time>2010-06-13T09:45:06Z</time>
      </trkpt>
      <trkpt lat="45.906851012259722" lon="9.099684013053775">
        <ele>1063</ele>
        <time>2010-06-13T09:45:07Z</time>
      </trkpt>
      <trkpt lat="45.906851012259722" lon="9.099697005003691">
        <ele>1063</ele>
        <time>2010-06-13T09:45:08Z</time>
      </trkpt>
      <trkpt lat="45.906832991167903" lon="9.099722988903523">
        <ele>1062</ele>
        <time>2010-06-13T09:45:09Z</time>
      </trkpt>
      <trkpt lat="45.906824022531509" lon="9.099748972803354">
        <ele>1062</ele>
        <time>2010-06-13T09:45:10Z</time>
      </trkpt>
      <trkpt lat="45.906824022531509" lon="9.09976196475327">
        <ele>1062</ele>
        <time>2010-06-13T09:45:11Z</time>
      </trkpt>
      <trkpt lat="45.906814970076084" lon="9.099787026643753">
        <ele>1063</ele>
        <time>2010-06-13T09:45:12Z</time>
      </trkpt>
      <trkpt lat="45.906806001439691" lon="9.099800018593669">
        <ele>1063</ele>
        <time>2010-06-13T09:45:13Z</time>
      </trkpt>
      <trkpt lat="45.906806001439691" lon="9.099826002493501">
        <ele>1064</ele>
        <time>2010-06-13T09:45:14Z</time>
      </trkpt>
      <trkpt lat="45.906797032803297" lon="9.099851986393333">
        <ele>1064</ele>
        <time>2010-06-13T09:45:15Z</time>
      </trkpt>
      <trkpt lat="45.906787980347872" lon="9.099877970293164">
        <ele>1064</ele>
        <time>2010-06-13T09:45:16Z</time>
      </trkpt>
      <trkpt lat="45.906779011711478" lon="9.09989096224308">
        <ele>1064</ele>
        <time>2010-06-13T09:45:17Z</time>
      </trkpt>
      <trkpt lat="45.906769959256053" lon="9.099916024133563">
        <ele>1063</ele>
        <time>2010-06-13T09:45:18Z</time>
      </trkpt>
      <trkpt lat="45.906769959256053" lon="9.099942008033395">
        <ele>1063</ele>
        <time>2010-06-13T09:45:19Z</time>
      </trkpt>
      <trkpt lat="45.906760990619659" lon="9.099954999983311">
        <ele>1063</ele>
        <time>2010-06-13T09:45:20Z</time>
      </trkpt>
      <trkpt lat="45.906752021983266" lon="9.099980983883143">
        <ele>1063</ele>
        <time>2010-06-13T09:45:21Z</time>
      </trkpt>
      <trkpt lat="45.906742969527841" lon="9.100006967782974">
        <ele>1063</ele>
        <time>2010-06-13T09:45:22Z</time>
      </trkpt>
      <trkpt lat="45.906734000891447" lon="9.100019037723541">
        <ele>1063</ele>
        <time>2010-06-13T09:45:23Z</time>
      </trkpt>
      <trkpt lat="45.906734000891447" lon="9.100045021623373">
        <ele>1063</ele>
        <time>2010-06-13T09:45:24Z</time>
      </trkpt>
      <trkpt lat="45.906725032255054" lon="9.100058013573289">
        <ele>1063</ele>
        <time>2010-06-13T09:45:25Z</time>
      </trkpt>
      <trkpt lat="45.906715979799628" lon="9.100083997473121">
        <ele>1064</ele>
        <time>2010-06-13T09:45:26Z</time>
      </trkpt>
      <trkpt lat="45.906715979799628" lon="9.100096989423037">
        <ele>1063</ele>
        <time>2010-06-13T09:45:27Z</time>
      </trkpt>
      <trkpt lat="45.906715979799628" lon="9.100121967494488">
        <ele>1063</ele>
        <time>2010-06-13T09:45:28Z</time>
      </trkpt>
      <trkpt lat="45.906707011163235" lon="9.100148035213351">
        <ele>1063</ele>
        <time>2010-06-13T09:45:29Z</time>
      </trkpt>
      <trkpt lat="45.906697958707809" lon="9.100161027163267">
        <ele>1064</ele>
        <time>2010-06-13T09:45:30Z</time>
      </trkpt>
      <trkpt lat="45.906697958707809" lon="9.100187011063099">
        <ele>1064</ele>
        <time>2010-06-13T09:45:31Z</time>
      </trkpt>
      <trkpt lat="45.906688990071416" lon="9.100200003013015">
        <ele>1064</ele>
        <time>2010-06-13T09:45:32Z</time>
      </trkpt>
      <trkpt lat="45.906679015606642" lon="9.100225986912847">
        <ele>1064</ele>
        <time>2010-06-13T09:45:33Z</time>
      </trkpt>
      <trkpt lat="45.906670968979597" lon="9.100250964984298">
        <ele>1064</ele>
        <time>2010-06-13T09:45:34Z</time>
      </trkpt>
      <trkpt lat="45.906670968979597" lon="9.100264040753245">
        <ele>1064</ele>
        <time>2010-06-13T09:45:35Z</time>
      </trkpt>
      <trkpt lat="45.906660994514823" lon="9.100277032703161">
        <ele>1063</ele>
        <time>2010-06-13T09:45:36Z</time>
      </trkpt>
      <trkpt lat="45.90665303170681" lon="9.100303016602993">
        <ele>1064</ele>
        <time>2010-06-13T09:45:37Z</time>
      </trkpt>
      <trkpt lat="45.906643979251385" lon="9.100316008552909">
        <ele>1064</ele>
        <time>2010-06-13T09:45:38Z</time>
      </trkpt>
      <trkpt lat="45.906634004786611" lon="9.100341992452741">
        <ele>1064</ele>
        <time>2010-06-13T09:45:39Z</time>
      </trkpt>
      <trkpt lat="45.906634004786611" lon="9.100366970524192">
        <ele>1065</ele>
        <time>2010-06-13T09:45:40Z</time>
      </trkpt>
      <trkpt lat="45.906625958159566" lon="9.100379962474108">
        <ele>1065</ele>
        <time>2010-06-13T09:45:41Z</time>
      </trkpt>
      <trkpt lat="45.906615983694792" lon="9.100406030192971">
        <ele>1065</ele>
        <time>2010-06-13T09:45:42Z</time>
      </trkpt>
      <trkpt lat="45.906608020886779" lon="9.100419022142887">
        <ele>1065</ele>
        <time>2010-06-13T09:45:43Z</time>
      </trkpt>
      <trkpt lat="45.906607015058398" lon="9.100445006042719">
        <ele>1065</ele>
        <time>2010-06-13T09:45:44Z</time>
      </trkpt>
      <trkpt lat="45.906597962602973" lon="9.100456992164254">
        <ele>1065</ele>
        <time>2010-06-13T09:45:45Z</time>
      </trkpt>
      <trkpt lat="45.906588993966579" lon="9.100482976064086">
        <ele>1065</ele>
        <time>2010-06-13T09:45:47Z</time>
      </trkpt>
      <trkpt lat="45.906562004238367" lon="9.100508959963918">
        <ele>1065</ele>
        <time>2010-06-13T09:45:48Z</time>
      </trkpt>
      <trkpt lat="45.906562004238367" lon="9.100522035732865">
        <ele>1065</ele>
        <time>2010-06-13T09:45:49Z</time>
      </trkpt>
      <trkpt lat="45.906553035601974" lon="9.100548019632697">
        <ele>1065</ele>
        <time>2010-06-13T09:45:50Z</time>
      </trkpt>
      <trkpt lat="45.906535014510155" lon="9.100561011582613">
        <ele>1065</ele>
        <time>2010-06-13T09:45:51Z</time>
      </trkpt>
      <trkpt lat="45.906535014510155" lon="9.100572997704148">
        <ele>1065</ele>
        <time>2010-06-13T09:45:52Z</time>
      </trkpt>
      <trkpt lat="45.906525962054729" lon="9.10059898160398">
        <ele>1065</ele>
        <time>2010-06-13T09:45:53Z</time>
      </trkpt>
      <trkpt lat="45.906508024781942" lon="9.100624965503812">
        <ele>1067</ele>
        <time>2010-06-13T09:45:55Z</time>
      </trkpt>
      <trkpt lat="45.906490003690124" lon="9.100638041272759">
        <ele>1067</ele>
        <time>2010-06-13T09:45:56Z</time>
      </trkpt>
      <trkpt lat="45.90648103505373" lon="9.100651033222675">
        <ele>1067</ele>
        <time>2010-06-13T09:45:57Z</time>
      </trkpt>
      <trkpt lat="45.906471982598305" lon="9.100664025172591">
        <ele>1067</ele>
        <time>2010-06-13T09:45:58Z</time>
      </trkpt>
      <trkpt lat="45.906463013961911" lon="9.100676011294127">
        <ele>1068</ele>
        <time>2010-06-13T09:45:59Z</time>
      </trkpt>
      <trkpt lat="45.906453961506486" lon="9.100701995193958">
        <ele>1067</ele>
        <time>2010-06-13T09:46:00Z</time>
      </trkpt>
      <trkpt lat="45.906444992870092" lon="9.100714987143874">
        <ele>1067</ele>
        <time>2010-06-13T09:46:01Z</time>
      </trkpt>
      <trkpt lat="45.906436024233699" lon="9.10072797909379">
        <ele>1067</ele>
        <time>2010-06-13T09:46:02Z</time>
      </trkpt>
      <trkpt lat="45.906426971778274" lon="9.100740971043706">
        <ele>1067</ele>
        <time>2010-06-13T09:46:03Z</time>
      </trkpt>
      <trkpt lat="45.90641800314188" lon="9.100753962993622">
        <ele>1068</ele>
        <time>2010-06-13T09:46:04Z</time>
      </trkpt>
      <trkpt lat="45.906409034505486" lon="9.100767038762569">
        <ele>1068</ele>
        <time>2010-06-13T09:46:05Z</time>
      </trkpt>
      <trkpt lat="45.906399982050061" lon="9.100779024884105">
        <ele>1068</ele>
        <time>2010-06-13T09:46:06Z</time>
      </trkpt>
      <trkpt lat="45.906391013413668" lon="9.100792016834021">
        <ele>1068</ele>
        <time>2010-06-13T09:46:07Z</time>
      </trkpt>
      <trkpt lat="45.906381960958242" lon="9.100818000733852">
        <ele>1068</ele>
        <time>2010-06-13T09:46:08Z</time>
      </trkpt>
      <trkpt lat="45.906381960958242" lon="9.100830992683768">
        <ele>1068</ele>
        <time>2010-06-13T09:46:09Z</time>
      </trkpt>
      <trkpt lat="45.906372992321849" lon="9.100843984633684">
        <ele>1068</ele>
        <time>2010-06-13T09:46:10Z</time>
      </trkpt>
      <trkpt lat="45.906364023685455" lon="9.1008569765836">
        <ele>1068</ele>
        <time>2010-06-13T09:46:11Z</time>
      </trkpt>
      <trkpt lat="45.90635497123003" lon="9.100869968533516">
        <ele>1068</ele>
        <time>2010-06-13T09:46:12Z</time>
      </trkpt>
      <trkpt lat="45.906346002593637" lon="9.100882038474083">
        <ele>1069</ele>
        <time>2010-06-13T09:46:13Z</time>
      </trkpt>
      <trkpt lat="45.906346002593637" lon="9.100896036252379">
        <ele>1068</ele>
        <time>2010-06-13T09:46:14Z</time>
      </trkpt>
      <trkpt lat="45.906337033957243" lon="9.100908022373915">
        <ele>1069</ele>
        <time>2010-06-13T09:46:15Z</time>
      </trkpt>
      <trkpt lat="45.906327981501818" lon="9.100921014323831">
        <ele>1069</ele>
        <time>2010-06-13T09:46:16Z</time>
      </trkpt>
      <trkpt lat="45.906327981501818" lon="9.100934006273747">
        <ele>1069</ele>
        <time>2010-06-13T09:46:17Z</time>
      </trkpt>
      <trkpt lat="45.906319012865424" lon="9.100946998223662">
        <ele>1069</ele>
        <time>2010-06-13T09:46:18Z</time>
      </trkpt>
      <trkpt lat="45.906309960409999" lon="9.100959990173578">
        <ele>1069</ele>
        <time>2010-06-13T09:46:19Z</time>
      </trkpt>
      <trkpt lat="45.906309960409999" lon="9.100972982123494">
        <ele>1070</ele>
        <time>2010-06-13T09:46:20Z</time>
      </trkpt>
      <trkpt lat="45.906300991773605" lon="9.101011035963893">
        <ele>1072</ele>
        <time>2010-06-13T09:46:22Z</time>
      </trkpt>
      <trkpt lat="45.906300991773605" lon="9.101024027913809">
        <ele>1072</ele>
        <time>2010-06-13T09:46:23Z</time>
      </trkpt>
      <trkpt lat="45.906292023137212" lon="9.101037019863725">
        <ele>1071</ele>
        <time>2010-06-13T09:46:24Z</time>
      </trkpt>
      <trkpt lat="45.906274002045393" lon="9.101050011813641">
        <ele>1071</ele>
        <time>2010-06-13T09:46:25Z</time>
      </trkpt>
      <trkpt lat="45.906265033408999" lon="9.101063003763557">
        <ele>1071</ele>
        <time>2010-06-13T09:46:26Z</time>
      </trkpt>
      <trkpt lat="45.906247012317181" lon="9.101075995713472">
        <ele>1072</ele>
        <time>2010-06-13T09:46:27Z</time>
      </trkpt>
      <trkpt lat="45.906237959861755" lon="9.101100973784924">
        <ele>1071</ele>
        <time>2010-06-13T09:46:28Z</time>
      </trkpt>
      <trkpt lat="45.906228991225362" lon="9.101127041503787">
        <ele>1072</ele>
        <time>2010-06-13T09:46:29Z</time>
      </trkpt>
      <trkpt lat="45.906220022588968" lon="9.101140033453703">
        <ele>1071</ele>
        <time>2010-06-13T09:46:30Z</time>
      </trkpt>
      <trkpt lat="45.906202001497149" lon="9.101166017353535">
        <ele>1072</ele>
        <time>2010-06-13T09:46:31Z</time>
      </trkpt>
      <trkpt lat="45.906193032860756" lon="9.101192001253367">
        <ele>1071</ele>
        <time>2010-06-13T09:46:32Z</time>
      </trkpt>
      <trkpt lat="45.906183980405331" lon="9.101203987374902">
        <ele>1071</ele>
        <time>2010-06-13T09:46:33Z</time>
      </trkpt>
      <trkpt lat="45.906175011768937" lon="9.101216979324818">
        <ele>1071</ele>
        <time>2010-06-13T09:46:35Z</time>
      </trkpt>
      <trkpt lat="45.906147016212344" lon="9.101269030943513">
        <ele>1072</ele>
        <time>2010-06-13T09:46:37Z</time>
      </trkpt>
      <trkpt lat="45.906121032312512" lon="9.101295014843345">
        <ele>1072</ele>
        <time>2010-06-13T09:46:38Z</time>
      </trkpt>
      <trkpt lat="45.906121032312512" lon="9.10130700096488">
        <ele>1072</ele>
        <time>2010-06-13T09:46:39Z</time>
      </trkpt>
      <trkpt lat="45.906102005392313" lon="9.101320998743177">
        <ele>1072</ele>
        <time>2010-06-13T09:46:40Z</time>
      </trkpt>
      <trkpt lat="45.906083984300494" lon="9.101345976814628">
        <ele>1072</ele>
        <time>2010-06-13T09:46:41Z</time>
      </trkpt>
      <trkpt lat="45.906076021492481" lon="9.101358968764544">
        <ele>1071</ele>
        <time>2010-06-13T09:46:42Z</time>
      </trkpt>
      <trkpt lat="45.906056994572282" lon="9.101385036483407">
        <ele>1072</ele>
        <time>2010-06-13T09:46:43Z</time>
      </trkpt>
      <trkpt lat="45.906038973480463" lon="9.101398028433323">
        <ele>1072</ele>
        <time>2010-06-13T09:46:44Z</time>
      </trkpt>
      <trkpt lat="45.906021036207676" lon="9.101398028433323">
        <ele>1072</ele>
        <time>2010-06-13T09:46:45Z</time>
      </trkpt>
      <trkpt lat="45.906003015115857" lon="9.101423006504774">
        <ele>1072</ele>
        <time>2010-06-13T09:46:46Z</time>
      </trkpt>
      <trkpt lat="45.905985999852419" lon="9.10143599845469">
        <ele>1072</ele>
        <time>2010-06-13T09:46:47Z</time>
      </trkpt>
      <trkpt lat="45.905976025387645" lon="9.101448990404606">
        <ele>1072</ele>
        <time>2010-06-13T09:46:48Z</time>
      </trkpt>
      <trkpt lat="45.90596697293222" lon="9.101474974304438">
        <ele>1073</ele>
        <time>2010-06-13T09:46:49Z</time>
      </trkpt>
      <trkpt lat="45.905949035659432" lon="9.101487966254354">
        <ele>1073</ele>
        <time>2010-06-13T09:46:50Z</time>
      </trkpt>
      <trkpt lat="45.905931014567614" lon="9.101514033973217">
        <ele>1073</ele>
        <time>2010-06-13T09:46:51Z</time>
      </trkpt>
      <trkpt lat="45.905912993475795" lon="9.101526020094752">
        <ele>1073</ele>
        <time>2010-06-13T09:46:52Z</time>
      </trkpt>
      <trkpt lat="45.905894972383976" lon="9.101539012044668">
        <ele>1073</ele>
        <time>2010-06-13T09:46:53Z</time>
      </trkpt>
      <trkpt lat="45.905877035111189" lon="9.1015649959445">
        <ele>1074</ele>
        <time>2010-06-13T09:46:54Z</time>
      </trkpt>
      <trkpt lat="45.90585901401937" lon="9.101577987894416">
        <ele>1074</ele>
        <time>2010-06-13T09:46:55Z</time>
      </trkpt>
      <trkpt lat="45.905840992927551" lon="9.101590979844332">
        <ele>1074</ele>
        <time>2010-06-13T09:46:56Z</time>
      </trkpt>
      <trkpt lat="45.905822971835732" lon="9.101590979844332">
        <ele>1074</ele>
        <time>2010-06-13T09:46:57Z</time>
      </trkpt>
      <trkpt lat="45.905814003199339" lon="9.101603971794248">
        <ele>1074</ele>
        <time>2010-06-13T09:46:58Z</time>
      </trkpt>
      <trkpt lat="45.90579598210752" lon="9.101629033684731">
        <ele>1074</ele>
        <time>2010-06-13T09:46:59Z</time>
      </trkpt>
      <trkpt lat="45.905787013471127" lon="9.101642025634646">
        <ele>1073</ele>
        <time>2010-06-13T09:47:00Z</time>
      </trkpt>
      <trkpt lat="45.905768992379308" lon="9.101655017584562">
        <ele>1074</ele>
        <time>2010-06-13T09:47:02Z</time>
      </trkpt>
      <trkpt lat="45.905733034014702" lon="9.101681001484394">
        <ele>1074</ele>
        <time>2010-06-13T09:47:03Z</time>
      </trkpt>
      <trkpt lat="45.905723981559277" lon="9.10169399343431">
        <ele>1074</ele>
        <time>2010-06-13T09:47:04Z</time>
      </trkpt>
      <trkpt lat="45.905715012922883" lon="9.101705979555845">
        <ele>1075</ele>
        <time>2010-06-13T09:47:05Z</time>
      </trkpt>
      <trkpt lat="45.905705960467458" lon="9.101718971505761">
        <ele>1076</ele>
        <time>2010-06-13T09:47:06Z</time>
      </trkpt>
      <trkpt lat="45.905696991831064" lon="9.101731963455677">
        <ele>1076</ele>
        <time>2010-06-13T09:47:07Z</time>
      </trkpt>
      <trkpt lat="45.905688023194671" lon="9.101758031174541">
        <ele>1076</ele>
        <time>2010-06-13T09:47:08Z</time>
      </trkpt>
      <trkpt lat="45.905678970739245" lon="9.101771023124456">
        <ele>1076</ele>
        <time>2010-06-13T09:47:09Z</time>
      </trkpt>
      <trkpt lat="45.905670002102852" lon="9.101784015074372">
        <ele>1077</ele>
        <time>2010-06-13T09:47:10Z</time>
      </trkpt>
      <trkpt lat="45.905661033466458" lon="9.101797007024288">
        <ele>1077</ele>
        <time>2010-06-13T09:47:11Z</time>
      </trkpt>
      <trkpt lat="45.905651981011033" lon="9.101808993145824">
        <ele>1077</ele>
        <time>2010-06-13T09:47:12Z</time>
      </trkpt>
      <trkpt lat="45.905633959919214" lon="9.101821985095739">
        <ele>1076</ele>
        <time>2010-06-13T09:47:13Z</time>
      </trkpt>
      <trkpt lat="45.905624991282821" lon="9.101834977045655">
        <ele>1077</ele>
        <time>2010-06-13T09:47:14Z</time>
      </trkpt>
      <trkpt lat="45.905616022646427" lon="9.101860960945487">
        <ele>1078</ele>
        <time>2010-06-13T09:47:15Z</time>
      </trkpt>
      <trkpt lat="45.905598001554608" lon="9.101874036714435">
        <ele>1078</ele>
        <time>2010-06-13T09:47:16Z</time>
      </trkpt>
      <trkpt lat="45.905589032918215" lon="9.101887028664351">
        <ele>1078</ele>
        <time>2010-06-13T09:47:18Z</time>
      </trkpt>
      <trkpt lat="45.90557998046279" lon="9.101926004514098">
        <ele>1078</ele>
        <time>2010-06-13T09:47:19Z</time>
      </trkpt>
      <trkpt lat="45.905571011826396" lon="9.101937990635634">
        <ele>1078</ele>
        <time>2010-06-13T09:47:20Z</time>
      </trkpt>
      <trkpt lat="45.905561959370971" lon="9.101963974535465">
        <ele>1079</ele>
        <time>2010-06-13T09:47:21Z</time>
      </trkpt>
      <trkpt lat="45.905552990734577" lon="9.101976966485381">
        <ele>1079</ele>
        <time>2010-06-13T09:47:22Z</time>
      </trkpt>
      <trkpt lat="45.905544022098184" lon="9.101989958435297">
        <ele>1080</ele>
        <time>2010-06-13T09:47:23Z</time>
      </trkpt>
      <trkpt lat="45.905534969642758" lon="9.102003034204245">
        <ele>1080</ele>
        <time>2010-06-13T09:47:24Z</time>
      </trkpt>
      <trkpt lat="45.905526001006365" lon="9.102016026154161">
        <ele>1080</ele>
        <time>2010-06-13T09:47:25Z</time>
      </trkpt>
      <trkpt lat="45.905526001006365" lon="9.102041004225612">
        <ele>1080</ele>
        <time>2010-06-13T09:47:26Z</time>
      </trkpt>
      <trkpt lat="45.905507979914546" lon="9.102053996175528">
        <ele>1081</ele>
        <time>2010-06-13T09:47:27Z</time>
      </trkpt>
      <trkpt lat="45.905507979914546" lon="9.102066988125444">
        <ele>1080</ele>
        <time>2010-06-13T09:47:28Z</time>
      </trkpt>
      <trkpt lat="45.905499011278152" lon="9.102079980075359">
        <ele>1080</ele>
        <time>2010-06-13T09:47:29Z</time>
      </trkpt>
      <trkpt lat="45.905489958822727" lon="9.102092972025275">
        <ele>1080</ele>
        <time>2010-06-13T09:47:30Z</time>
      </trkpt>
      <trkpt lat="45.905480990186334" lon="9.102092972025275">
        <ele>1080</ele>
        <time>2010-06-13T09:47:31Z</time>
      </trkpt>
      <trkpt lat="45.905462969094515" lon="9.102105963975191">
        <ele>1080</ele>
        <time>2010-06-13T09:47:32Z</time>
      </trkpt>
      <trkpt lat="45.905462969094515" lon="9.102131025865674">
        <ele>1081</ele>
        <time>2010-06-13T09:47:33Z</time>
      </trkpt>
      <trkpt lat="45.905445031821728" lon="9.10214401781559">
        <ele>1081</ele>
        <time>2010-06-13T09:47:35Z</time>
      </trkpt>
      <trkpt lat="45.90540898963809" lon="9.102182993665338">
        <ele>1081</ele>
        <time>2010-06-13T09:47:36Z</time>
      </trkpt>
      <trkpt lat="45.905400021001697" lon="9.102195985615253">
        <ele>1081</ele>
        <time>2010-06-13T09:47:37Z</time>
      </trkpt>
      <trkpt lat="45.905381999909878" lon="9.102208977565169">
        <ele>1082</ele>
        <time>2010-06-13T09:47:38Z</time>
      </trkpt>
      <trkpt lat="45.905373031273484" lon="9.102221969515085">
        <ele>1082</ele>
        <time>2010-06-13T09:47:39Z</time>
      </trkpt>
      <trkpt lat="45.905363978818059" lon="9.102234039455652">
        <ele>1082</ele>
        <time>2010-06-13T09:47:40Z</time>
      </trkpt>
      <trkpt lat="45.905355010181665" lon="9.102247031405568">
        <ele>1082</ele>
        <time>2010-06-13T09:47:41Z</time>
      </trkpt>
      <trkpt lat="45.905346041545272" lon="9.102260023355484">
        <ele>1082</ele>
        <time>2010-06-13T09:47:42Z</time>
      </trkpt>
      <trkpt lat="45.905336989089847" lon="9.1022730153054">
        <ele>1082</ele>
        <time>2010-06-13T09:47:43Z</time>
      </trkpt>
      <trkpt lat="45.905327014625072" lon="9.102298999205232">
        <ele>1082</ele>
        <time>2010-06-13T09:47:44Z</time>
      </trkpt>
      <trkpt lat="45.905318967998028" lon="9.102298999205232">
        <ele>1082</ele>
        <time>2010-06-13T09:47:45Z</time>
      </trkpt>
      <trkpt lat="45.905309999361634" lon="9.102324983105063">
        <ele>1083</ele>
        <time>2010-06-13T09:47:46Z</time>
      </trkpt>
      <trkpt lat="45.905301030725241" lon="9.102324983105063">
        <ele>1083</ele>
        <time>2010-06-13T09:47:47Z</time>
      </trkpt>
      <trkpt lat="45.905282003805041" lon="9.102349961176515">
        <ele>1082</ele>
        <time>2010-06-13T09:47:48Z</time>
      </trkpt>
      <trkpt lat="45.905274040997028" lon="9.102363036945462">
        <ele>1082</ele>
        <time>2010-06-13T09:47:49Z</time>
      </trkpt>
      <trkpt lat="45.905263982713223" lon="9.102376028895378">
        <ele>1083</ele>
        <time>2010-06-13T09:47:51Z</time>
      </trkpt>
      <trkpt lat="45.905246967449784" lon="9.10240201279521">
        <ele>1083</ele>
        <time>2010-06-13T09:47:52Z</time>
      </trkpt>
      <trkpt lat="45.90523699298501" lon="9.102415004745126">
        <ele>1082</ele>
        <time>2010-06-13T09:47:53Z</time>
      </trkpt>
      <trkpt lat="45.905218971893191" lon="9.102440988644958">
        <ele>1082</ele>
        <time>2010-06-13T09:47:54Z</time>
      </trkpt>
      <trkpt lat="45.905211009085178" lon="9.102452974766493">
        <ele>1082</ele>
        <time>2010-06-13T09:47:56Z</time>
      </trkpt>
      <trkpt lat="45.905183013528585" lon="9.102478958666325">
        <ele>1082</ele>
        <time>2010-06-13T09:47:57Z</time>
      </trkpt>
      <trkpt lat="45.905183013528585" lon="9.102492034435272">
        <ele>1082</ele>
        <time>2010-06-13T09:47:58Z</time>
      </trkpt>
      <trkpt lat="45.90517396107316" lon="9.102505026385188">
        <ele>1083</ele>
        <time>2010-06-13T09:47:59Z</time>
      </trkpt>
      <trkpt lat="45.905156023800373" lon="9.102518018335104">
        <ele>1083</ele>
        <time>2010-06-13T09:48:00Z</time>
      </trkpt>
      <trkpt lat="45.905146971344948" lon="9.10253101028502">
        <ele>1084</ele>
        <time>2010-06-13T09:48:02Z</time>
      </trkpt>
      <trkpt lat="45.905129034072161" lon="9.102555988356471">
        <ele>1085</ele>
        <time>2010-06-13T09:48:03Z</time>
      </trkpt>
      <trkpt lat="45.905129034072161" lon="9.102568980306387">
        <ele>1084</ele>
        <time>2010-06-13T09:48:04Z</time>
      </trkpt>
      <trkpt lat="45.905119981616735" lon="9.102581972256303">
        <ele>1084</ele>
        <time>2010-06-13T09:48:05Z</time>
      </trkpt>
      <trkpt lat="45.905111012980342" lon="9.102608039975166">
        <ele>1084</ele>
        <time>2010-06-13T09:48:07Z</time>
      </trkpt>
      <trkpt lat="45.905092991888523" lon="9.102634023874998">
        <ele>1084</ele>
        <time>2010-06-13T09:48:08Z</time>
      </trkpt>
      <trkpt lat="45.905074970796704" lon="9.102646009996533">
        <ele>1085</ele>
        <time>2010-06-13T09:48:09Z</time>
      </trkpt>
      <trkpt lat="45.905066002160311" lon="9.102659001946449">
        <ele>1085</ele>
        <time>2010-06-13T09:48:10Z</time>
      </trkpt>
      <trkpt lat="45.905057033523917" lon="9.102671993896365">
        <ele>1085</ele>
        <time>2010-06-13T09:48:11Z</time>
      </trkpt>
      <trkpt lat="45.905057033523917" lon="9.102684985846281">
        <ele>1086</ele>
        <time>2010-06-13T09:48:12Z</time>
      </trkpt>
      <trkpt lat="45.905047981068492" lon="9.102710969746113">
        <ele>1086</ele>
        <time>2010-06-13T09:48:13Z</time>
      </trkpt>
      <trkpt lat="45.905039012432098" lon="9.102723961696029">
        <ele>1087</ele>
        <time>2010-06-13T09:48:15Z</time>
      </trkpt>
      <trkpt lat="45.90502099134028" lon="9.102749023586512">
        <ele>1087</ele>
        <time>2010-06-13T09:48:16Z</time>
      </trkpt>
      <trkpt lat="45.905012022703886" lon="9.102762015536428">
        <ele>1087</ele>
        <time>2010-06-13T09:48:17Z</time>
      </trkpt>
      <trkpt lat="45.904994001612067" lon="9.102775007486343">
        <ele>1086</ele>
        <time>2010-06-13T09:48:18Z</time>
      </trkpt>
      <trkpt lat="45.904985032975674" lon="9.102800991386175">
        <ele>1086</ele>
        <time>2010-06-13T09:48:19Z</time>
      </trkpt>
      <trkpt lat="45.904967011883855" lon="9.102813983336091">
        <ele>1087</ele>
        <time>2010-06-13T09:48:20Z</time>
      </trkpt>
      <trkpt lat="45.90495795942843" lon="9.102826975286007">
        <ele>1087</ele>
        <time>2010-06-13T09:48:21Z</time>
      </trkpt>
      <trkpt lat="45.904940022155643" lon="9.102839967235923">
        <ele>1087</ele>
        <time>2010-06-13T09:48:22Z</time>
      </trkpt>
      <trkpt lat="45.904930969700217" lon="9.10285203717649">
        <ele>1086</ele>
        <time>2010-06-13T09:48:23Z</time>
      </trkpt>
      <trkpt lat="45.904922001063824" lon="9.102865029126406">
        <ele>1087</ele>
        <time>2010-06-13T09:48:24Z</time>
      </trkpt>
      <trkpt lat="45.904903979972005" lon="9.102878021076322">
        <ele>1088</ele>
        <time>2010-06-13T09:48:25Z</time>
      </trkpt>
      <trkpt lat="45.904903979972005" lon="9.102891013026238">
        <ele>1088</ele>
        <time>2010-06-13T09:48:26Z</time>
      </trkpt>
      <trkpt lat="45.904885958880186" lon="9.102891013026238">
        <ele>1087</ele>
        <time>2010-06-13T09:48:27Z</time>
      </trkpt>
      <trkpt lat="45.904885958880186" lon="9.102904004976153">
        <ele>1088</ele>
        <time>2010-06-13T09:48:29Z</time>
      </trkpt>
      <trkpt lat="45.904876990243793" lon="9.102904004976153">
        <ele>1088</ele>
        <time>2010-06-13T09:48:30Z</time>
      </trkpt>
      <trkpt lat="45.904868021607399" lon="9.102916996926069">
        <ele>1088</ele>
        <time>2010-06-13T09:48:31Z</time>
      </trkpt>
      <trkpt lat="45.904858969151974" lon="9.102929988875985">
        <ele>1088</ele>
        <time>2010-06-13T09:48:32Z</time>
      </trkpt>
      <trkpt lat="45.90485000051558" lon="9.102929988875985">
        <ele>1088</ele>
        <time>2010-06-13T09:48:33Z</time>
      </trkpt>
      <trkpt lat="45.904841031879187" lon="9.10294197499752">
        <ele>1088</ele>
        <time>2010-06-13T09:48:35Z</time>
      </trkpt>
      <trkpt lat="45.904751010239124" lon="9.103007018566132">
        <ele>1089</ele>
        <time>2010-06-13T09:48:43Z</time>
      </trkpt>
      <trkpt lat="45.904742041602731" lon="9.103007018566132">
        <ele>1089</ele>
        <time>2010-06-13T09:48:44Z</time>
      </trkpt>
      <trkpt lat="45.904724020510912" lon="9.103020010516048">
        <ele>1090</ele>
        <time>2010-06-13T09:48:45Z</time>
      </trkpt>
      <trkpt lat="45.904714968055487" lon="9.103031996637583">
        <ele>1089</ele>
        <time>2010-06-13T09:48:46Z</time>
      </trkpt>
      <trkpt lat="45.9046970307827" lon="9.103031996637583">
        <ele>1090</ele>
        <time>2010-06-13T09:48:47Z</time>
      </trkpt>
      <trkpt lat="45.904687978327274" lon="9.103045994415879">
        <ele>1090</ele>
        <time>2010-06-13T09:48:48Z</time>
      </trkpt>
      <trkpt lat="45.904679009690881" lon="9.103031996637583">
        <ele>1090</ele>
        <time>2010-06-13T09:48:49Z</time>
      </trkpt>
      <trkpt lat="45.904670041054487" lon="9.103031996637583">
        <ele>1090</ele>
        <time>2010-06-13T09:48:50Z</time>
      </trkpt>
      <trkpt lat="45.904652019962668" lon="9.103044988587499">
        <ele>1090</ele>
        <time>2010-06-13T09:48:51Z</time>
      </trkpt>
      <trkpt lat="45.90463399887085" lon="9.103044988587499">
        <ele>1091</ele>
        <time>2010-06-13T09:48:52Z</time>
      </trkpt>
      <trkpt lat="45.904625030234456" lon="9.103057980537415">
        <ele>1091</ele>
        <time>2010-06-13T09:48:53Z</time>
      </trkpt>
      <trkpt lat="45.904615977779031" lon="9.10307097248733">
        <ele>1090</ele>
        <time>2010-06-13T09:48:55Z</time>
      </trkpt>
      <trkpt lat="45.904580019414425" lon="9.103083964437246">
        <ele>1090</ele>
        <time>2010-06-13T09:48:56Z</time>
      </trkpt>
      <trkpt lat="45.904553029686213" lon="9.10311003215611">
        <ele>1091</ele>
        <time>2010-06-13T09:48:57Z</time>
      </trkpt>
      <trkpt lat="45.904543977230787" lon="9.10311003215611">
        <ele>1091</ele>
        <time>2010-06-13T09:48:58Z</time>
      </trkpt>
      <trkpt lat="45.904543977230787" lon="9.10311003215611">
        <ele>1091</ele>
        <time>2010-06-13T09:49:00Z</time>
      </trkpt>
      <trkpt lat="45.904535008594394" lon="9.10311003215611">
        <ele>1091</ele>
        <time>2010-06-13T09:49:01Z</time>
      </trkpt>
      <trkpt lat="45.904526039958" lon="9.10311003215611">
        <ele>1091</ele>
        <time>2010-06-13T09:49:02Z</time>
      </trkpt>
      <trkpt lat="45.904391007497907" lon="9.103186978027225">
        <ele>1093</ele>
        <time>2010-06-13T09:49:12Z</time>
      </trkpt>
      <trkpt lat="45.904372986406088" lon="9.10319896414876">
        <ele>1093</ele>
        <time>2010-06-13T09:49:13Z</time>
      </trkpt>
      <trkpt lat="45.904354965314269" lon="9.103212039917707">
        <ele>1093</ele>
        <time>2010-06-13T09:49:14Z</time>
      </trkpt>
      <trkpt lat="45.904337028041482" lon="9.103225031867623">
        <ele>1093</ele>
        <time>2010-06-13T09:49:16Z</time>
      </trkpt>
      <trkpt lat="45.904319006949663" lon="9.103238023817539">
        <ele>1093</ele>
        <time>2010-06-13T09:49:17Z</time>
      </trkpt>
      <trkpt lat="45.904300985857844" lon="9.103251015767455">
        <ele>1094</ele>
        <time>2010-06-13T09:49:18Z</time>
      </trkpt>
      <trkpt lat="45.904282964766026" lon="9.103251015767455">
        <ele>1093</ele>
        <time>2010-06-13T09:49:19Z</time>
      </trkpt>
      <trkpt lat="45.904273996129632" lon="9.103264007717371">
        <ele>1093</ele>
        <time>2010-06-13T09:49:20Z</time>
      </trkpt>
      <trkpt lat="45.904255975037813" lon="9.103264007717371">
        <ele>1093</ele>
        <time>2010-06-13T09:49:21Z</time>
      </trkpt>
      <trkpt lat="45.904238037765026" lon="9.103276999667287">
        <ele>1094</ele>
        <time>2010-06-13T09:49:22Z</time>
      </trkpt>
      <trkpt lat="45.904228985309601" lon="9.103276999667287">
        <ele>1094</ele>
        <time>2010-06-13T09:49:23Z</time>
      </trkpt>
      <trkpt lat="45.904220016673207" lon="9.103288985788822">
        <ele>1094</ele>
        <time>2010-06-13T09:49:24Z</time>
      </trkpt>
      <trkpt lat="45.904210964217782" lon="9.103288985788822">
        <ele>1094</ele>
        <time>2010-06-13T09:49:25Z</time>
      </trkpt>
      <trkpt lat="45.904193026944995" lon="9.103288985788822">
        <ele>1094</ele>
        <time>2010-06-13T09:49:26Z</time>
      </trkpt>
      <trkpt lat="45.904193026944995" lon="9.103276999667287">
        <ele>1094</ele>
        <time>2010-06-13T09:49:27Z</time>
      </trkpt>
      <trkpt lat="45.90418397448957" lon="9.103288985788822">
        <ele>1094</ele>
        <time>2010-06-13T09:49:28Z</time>
      </trkpt>
      <trkpt lat="45.904175005853176" lon="9.103288985788822">
        <ele>1094</ele>
        <time>2010-06-13T09:49:29Z</time>
      </trkpt>
      <trkpt lat="45.904166037216783" lon="9.103288985788822">
        <ele>1095</ele>
        <time>2010-06-13T09:49:30Z</time>
      </trkpt>
      <trkpt lat="45.904148016124964" lon="9.103301977738738">
        <ele>1096</ele>
        <time>2010-06-13T09:49:31Z</time>
      </trkpt>
      <trkpt lat="45.904138963669538" lon="9.103288985788822">
        <ele>1096</ele>
        <time>2010-06-13T09:49:32Z</time>
      </trkpt>
      <trkpt lat="45.904138963669538" lon="9.103288985788822">
        <ele>1096</ele>
        <time>2010-06-13T09:49:33Z</time>
      </trkpt>
      <trkpt lat="45.904121026396751" lon="9.103275993838906">
        <ele>1096</ele>
        <time>2010-06-13T09:49:34Z</time>
      </trkpt>
      <trkpt lat="45.904103005304933" lon="9.103275993838906">
        <ele>1096</ele>
        <time>2010-06-13T09:49:35Z</time>
      </trkpt>
      <trkpt lat="45.904094036668539" lon="9.103275993838906">
        <ele>1096</ele>
        <time>2010-06-13T09:49:36Z</time>
      </trkpt>
      <trkpt lat="45.90407601557672" lon="9.103275993838906">
        <ele>1096</ele>
        <time>2010-06-13T09:49:37Z</time>
      </trkpt>
      <trkpt lat="45.90407601557672" lon="9.10326300188899">
        <ele>1096</ele>
        <time>2010-06-13T09:49:38Z</time>
      </trkpt>
      <trkpt lat="45.904066963121295" lon="9.10326300188899">
        <ele>1096</ele>
        <time>2010-06-13T09:49:39Z</time>
      </trkpt>
      <trkpt lat="45.904057994484901" lon="9.103275993838906">
        <ele>1097</ele>
        <time>2010-06-13T09:49:40Z</time>
      </trkpt>
      <trkpt lat="45.904049025848508" lon="9.103275993838906">
        <ele>1097</ele>
        <time>2010-06-13T09:49:41Z</time>
      </trkpt>
      <trkpt lat="45.904022036120296" lon="9.103288985788822">
        <ele>1098</ele>
        <time>2010-06-13T09:49:42Z</time>
      </trkpt>
      <trkpt lat="45.904004015028477" lon="9.103288985788822">
        <ele>1097</ele>
        <time>2010-06-13T09:49:43Z</time>
      </trkpt>
      <trkpt lat="45.903985993936658" lon="9.103301977738738">
        <ele>1097</ele>
        <time>2010-06-13T09:49:44Z</time>
      </trkpt>
      <trkpt lat="45.903985993936658" lon="9.103288985788822">
        <ele>1098</ele>
        <time>2010-06-13T09:49:45Z</time>
      </trkpt>
      <trkpt lat="45.903967972844839" lon="9.103288985788822">
        <ele>1098</ele>
        <time>2010-06-13T09:49:46Z</time>
      </trkpt>
      <trkpt lat="45.903940983116627" lon="9.103288985788822">
        <ele>1098</ele>
        <time>2010-06-13T09:49:48Z</time>
      </trkpt>
      <trkpt lat="45.903932014480233" lon="9.103288985788822">
        <ele>1098</ele>
        <time>2010-06-13T09:49:50Z</time>
      </trkpt>
      <trkpt lat="45.903922962024808" lon="9.103288985788822">
        <ele>1098</ele>
        <time>2010-06-13T09:49:51Z</time>
      </trkpt>
      <trkpt lat="45.903913993388414" lon="9.103288985788822">
        <ele>1098</ele>
        <time>2010-06-13T09:49:53Z</time>
      </trkpt>
      <trkpt lat="45.903895972296596" lon="9.103301977738738">
        <ele>1099</ele>
        <time>2010-06-13T09:49:54Z</time>
      </trkpt>
      <trkpt lat="45.903878035023808" lon="9.103314969688654">
        <ele>1099</ele>
        <time>2010-06-13T09:49:55Z</time>
      </trkpt>
      <trkpt lat="45.903878035023808" lon="9.103314969688654">
        <ele>1099</ele>
        <time>2010-06-13T09:49:56Z</time>
      </trkpt>
      <trkpt lat="45.90386001393199" lon="9.103314969688654">
        <ele>1098</ele>
        <time>2010-06-13T09:49:57Z</time>
      </trkpt>
      <trkpt lat="45.903823971748352" lon="9.103313963860273">
        <ele>1099</ele>
        <time>2010-06-13T09:50:01Z</time>
      </trkpt>
      <trkpt lat="45.903815003111959" lon="9.103313963860273">
        <ele>1099</ele>
        <time>2010-06-13T09:50:02Z</time>
      </trkpt>
      <trkpt lat="45.903806034475565" lon="9.103301977738738">
        <ele>1100</ele>
        <time>2010-06-13T09:50:03Z</time>
      </trkpt>
      <trkpt lat="45.90379698202014" lon="9.103301977738738">
        <ele>1100</ele>
        <time>2010-06-13T09:50:04Z</time>
      </trkpt>
      <trkpt lat="45.903769992291927" lon="9.103301977738738">
        <ele>1099</ele>
        <time>2010-06-13T09:50:06Z</time>
      </trkpt>
      <trkpt lat="45.903761023655534" lon="9.103288985788822">
        <ele>1099</ele>
        <time>2010-06-13T09:50:07Z</time>
      </trkpt>
      <trkpt lat="45.903761023655534" lon="9.103288985788822">
        <ele>1099</ele>
        <time>2010-06-13T09:50:08Z</time>
      </trkpt>
      <trkpt lat="45.903751971200109" lon="9.103275993838906">
        <ele>1099</ele>
        <time>2010-06-13T09:50:10Z</time>
      </trkpt>
      <trkpt lat="45.903734033927321" lon="9.103288985788822">
        <ele>1100</ele>
        <time>2010-06-13T09:50:11Z</time>
      </trkpt>
      <trkpt lat="45.903724981471896" lon="9.103288985788822">
        <ele>1100</ele>
        <time>2010-06-13T09:50:13Z</time>
      </trkpt>
      <trkpt lat="45.903706960380077" lon="9.103300971910358">
        <ele>1101</ele>
        <time>2010-06-13T09:50:14Z</time>
      </trkpt>
      <trkpt lat="45.903697991743684" lon="9.103300971910358">
        <ele>1101</ele>
        <time>2010-06-13T09:50:15Z</time>
      </trkpt>
      <trkpt lat="45.90368902310729" lon="9.103288985788822">
        <ele>1101</ele>
        <time>2010-06-13T09:50:16Z</time>
      </trkpt>
      <trkpt lat="45.903671002015471" lon="9.103288985788822">
        <ele>1101</ele>
        <time>2010-06-13T09:50:17Z</time>
      </trkpt>
      <trkpt lat="45.903662033379078" lon="9.103288985788822">
        <ele>1101</ele>
        <time>2010-06-13T09:50:18Z</time>
      </trkpt>
      <trkpt lat="45.903652980923653" lon="9.103275993838906">
        <ele>1101</ele>
        <time>2010-06-13T09:50:19Z</time>
      </trkpt>
      <trkpt lat="45.903634959831834" lon="9.103275993838906">
        <ele>1101</ele>
        <time>2010-06-13T09:50:21Z</time>
      </trkpt>
      <trkpt lat="45.903617022559047" lon="9.103250009939075">
        <ele>1101</ele>
        <time>2010-06-13T09:50:22Z</time>
      </trkpt>
      <trkpt lat="45.903607970103621" lon="9.103237017989159">
        <ele>1101</ele>
        <time>2010-06-13T09:50:23Z</time>
      </trkpt>
      <trkpt lat="45.903599001467228" lon="9.103224026039243">
        <ele>1101</ele>
        <time>2010-06-13T09:50:24Z</time>
      </trkpt>
      <trkpt lat="45.903580980375409" lon="9.103224026039243">
        <ele>1101</ele>
        <time>2010-06-13T09:50:25Z</time>
      </trkpt>
      <trkpt lat="45.903572011739016" lon="9.103211034089327">
        <ele>1101</ele>
        <time>2010-06-13T09:50:26Z</time>
      </trkpt>
      <trkpt lat="45.90356295928359" lon="9.103197958320379">
        <ele>1102</ele>
        <time>2010-06-13T09:50:27Z</time>
      </trkpt>
      <trkpt lat="45.903553990647197" lon="9.103197958320379">
        <ele>1102</ele>
        <time>2010-06-13T09:50:28Z</time>
      </trkpt>
      <trkpt lat="45.903545022010803" lon="9.103197958320379">
        <ele>1102</ele>
        <time>2010-06-13T09:50:29Z</time>
      </trkpt>
      <trkpt lat="45.903535969555378" lon="9.103184966370463">
        <ele>1102</ele>
        <time>2010-06-13T09:50:30Z</time>
      </trkpt>
      <trkpt lat="45.903518032282591" lon="9.103184966370463">
        <ele>1102</ele>
        <time>2010-06-13T09:50:32Z</time>
      </trkpt>
      <trkpt lat="45.903508979827166" lon="9.103171974420548">
        <ele>1101</ele>
        <time>2010-06-13T09:50:33Z</time>
      </trkpt>
      <trkpt lat="45.903500011190772" lon="9.103158982470632">
        <ele>1102</ele>
        <time>2010-06-13T09:50:34Z</time>
      </trkpt>
      <trkpt lat="45.903490958735347" lon="9.103158982470632">
        <ele>1102</ele>
        <time>2010-06-13T09:50:35Z</time>
      </trkpt>
      <trkpt lat="45.903490958735347" lon="9.103145990520716">
        <ele>1102</ele>
        <time>2010-06-13T09:50:36Z</time>
      </trkpt>
      <trkpt lat="45.903481990098953" lon="9.103121012449265">
        <ele>1102</ele>
        <time>2010-06-13T09:50:37Z</time>
      </trkpt>
      <trkpt lat="45.903463969007134" lon="9.103121012449265">
        <ele>1102</ele>
        <time>2010-06-13T09:50:38Z</time>
      </trkpt>
      <trkpt lat="45.903455000370741" lon="9.103108020499349">
        <ele>1102</ele>
        <time>2010-06-13T09:50:39Z</time>
      </trkpt>
      <trkpt lat="45.903446031734347" lon="9.103108020499349">
        <ele>1102</ele>
        <time>2010-06-13T09:50:40Z</time>
      </trkpt>
      <trkpt lat="45.903436979278922" lon="9.103082036599517">
        <ele>1102</ele>
        <time>2010-06-13T09:50:41Z</time>
      </trkpt>
      <trkpt lat="45.903428010642529" lon="9.103068960830569">
        <ele>1102</ele>
        <time>2010-06-13T09:50:42Z</time>
      </trkpt>
      <trkpt lat="45.903418958187103" lon="9.103055968880653">
        <ele>1102</ele>
        <time>2010-06-13T09:50:43Z</time>
      </trkpt>
      <trkpt lat="45.90340998955071" lon="9.103042976930738">
        <ele>1102</ele>
        <time>2010-06-13T09:50:44Z</time>
      </trkpt>
      <trkpt lat="45.903401020914316" lon="9.103029984980822">
        <ele>1102</ele>
        <time>2010-06-13T09:50:45Z</time>
      </trkpt>
      <trkpt lat="45.903391968458891" lon="9.103016993030906">
        <ele>1103</ele>
        <time>2010-06-13T09:50:46Z</time>
      </trkpt>
      <trkpt lat="45.903382999822497" lon="9.10300400108099">
        <ele>1104</ele>
        <time>2010-06-13T09:50:47Z</time>
      </trkpt>
      <trkpt lat="45.903374031186104" lon="9.102991009131074">
        <ele>1104</ele>
        <time>2010-06-13T09:50:48Z</time>
      </trkpt>
      <trkpt lat="45.903374031186104" lon="9.102979023009539">
        <ele>1104</ele>
        <time>2010-06-13T09:50:49Z</time>
      </trkpt>
      <trkpt lat="45.903356010094285" lon="9.102939963340759">
        <ele>1104</ele>
        <time>2010-06-13T09:50:51Z</time>
      </trkpt>
      <trkpt lat="45.903356010094285" lon="9.102926971390843">
        <ele>1104</ele>
        <time>2010-06-13T09:50:52Z</time>
      </trkpt>
      <trkpt lat="45.903347041457891" lon="9.102913979440928">
        <ele>1104</ele>
        <time>2010-06-13T09:50:53Z</time>
      </trkpt>
      <trkpt lat="45.903337989002466" lon="9.102900987491012">
        <ele>1103</ele>
        <time>2010-06-13T09:50:54Z</time>
      </trkpt>
      <trkpt lat="45.903329020366073" lon="9.102887995541096">
        <ele>1104</ele>
        <time>2010-06-13T09:50:55Z</time>
      </trkpt>
      <trkpt lat="45.903319967910647" lon="9.10287500359118">
        <ele>1104</ele>
        <time>2010-06-13T09:50:56Z</time>
      </trkpt>
      <trkpt lat="45.903310999274254" lon="9.102862011641264">
        <ele>1104</ele>
        <time>2010-06-13T09:50:58Z</time>
      </trkpt>
      <trkpt lat="45.903284009546041" lon="9.102837033569813">
        <ele>1104</ele>
        <time>2010-06-13T09:50:59Z</time>
      </trkpt>
      <trkpt lat="45.903275040909648" lon="9.102810965850949">
        <ele>1104</ele>
        <time>2010-06-13T09:51:01Z</time>
      </trkpt>
      <trkpt lat="45.903265988454223" lon="9.102797973901033">
        <ele>1105</ele>
        <time>2010-06-13T09:51:02Z</time>
      </trkpt>
      <trkpt lat="45.903257019817829" lon="9.102771990001202">
        <ele>1106</ele>
        <time>2010-06-13T09:51:03Z</time>
      </trkpt>
      <trkpt lat="45.903247967362404" lon="9.102758998051286">
        <ele>1106</ele>
        <time>2010-06-13T09:51:05Z</time>
      </trkpt>
      <trkpt lat="45.903230030089617" lon="9.102721028029919">
        <ele>1106</ele>
        <time>2010-06-13T09:51:06Z</time>
      </trkpt>
      <trkpt lat="45.903220977634192" lon="9.102707030251622">
        <ele>1106</ele>
        <time>2010-06-13T09:51:07Z</time>
      </trkpt>
      <trkpt lat="45.903212008997798" lon="9.102694960311055">
        <ele>1106</ele>
        <time>2010-06-13T09:51:08Z</time>
      </trkpt>
      <trkpt lat="45.903212008997798" lon="9.102668976411223">
        <ele>1107</ele>
        <time>2010-06-13T09:51:10Z</time>
      </trkpt>
      <trkpt lat="45.903212008997798" lon="9.102655984461308">
        <ele>1107</ele>
        <time>2010-06-13T09:51:11Z</time>
      </trkpt>
      <trkpt lat="45.903193987905979" lon="9.102630000561476">
        <ele>1107</ele>
        <time>2010-06-13T09:51:12Z</time>
      </trkpt>
      <trkpt lat="45.903185019269586" lon="9.102604016661644">
        <ele>1107</ele>
        <time>2010-06-13T09:51:13Z</time>
      </trkpt>
      <trkpt lat="45.90317596681416" lon="9.102591024711728">
        <ele>1107</ele>
        <time>2010-06-13T09:51:14Z</time>
      </trkpt>
      <trkpt lat="45.903166998177767" lon="9.102579038590193">
        <ele>1108</ele>
        <time>2010-06-13T09:51:15Z</time>
      </trkpt>
      <trkpt lat="45.903158029541373" lon="9.102565962821245">
        <ele>1108</ele>
        <time>2010-06-13T09:51:17Z</time>
      </trkpt>
      <trkpt lat="45.903140008449554" lon="9.102539978921413">
        <ele>1108</ele>
        <time>2010-06-13T09:51:18Z</time>
      </trkpt>
      <trkpt lat="45.903140008449554" lon="9.102526986971498">
        <ele>1109</ele>
        <time>2010-06-13T09:51:19Z</time>
      </trkpt>
      <trkpt lat="45.903140008449554" lon="9.102501003071666">
        <ele>1108</ele>
        <time>2010-06-13T09:51:20Z</time>
      </trkpt>
      <trkpt lat="45.903131039813161" lon="9.10248801112175">
        <ele>1108</ele>
        <time>2010-06-13T09:51:22Z</time>
      </trkpt>
      <trkpt lat="45.903121987357736" lon="9.102475019171834">
        <ele>1108</ele>
        <time>2010-06-13T09:51:23Z</time>
      </trkpt>
      <trkpt lat="45.903103966265917" lon="9.102449035272002">
        <ele>1109</ele>
        <time>2010-06-13T09:51:24Z</time>
      </trkpt>
      <trkpt lat="45.903103966265917" lon="9.102436965331435">
        <ele>1109</ele>
        <time>2010-06-13T09:51:25Z</time>
      </trkpt>
      <trkpt lat="45.903094997629523" lon="9.102423973381519">
        <ele>1109</ele>
        <time>2010-06-13T09:51:26Z</time>
      </trkpt>
      <trkpt lat="45.90308602899313" lon="9.102410981431603">
        <ele>1109</ele>
        <time>2010-06-13T09:51:27Z</time>
      </trkpt>
      <trkpt lat="45.903076976537704" lon="9.102397989481688">
        <ele>1109</ele>
        <time>2010-06-13T09:51:28Z</time>
      </trkpt>
      <trkpt lat="45.903076976537704" lon="9.102384997531772">
        <ele>1110</ele>
        <time>2010-06-13T09:51:29Z</time>
      </trkpt>
      <trkpt lat="45.903068007901311" lon="9.102384997531772">
        <ele>1110</ele>
        <time>2010-06-13T09:51:30Z</time>
      </trkpt>
      <trkpt lat="45.903059039264917" lon="9.102372005581856">
        <ele>1110</ele>
        <time>2010-06-13T09:51:31Z</time>
      </trkpt>
      <trkpt lat="45.903059039264917" lon="9.10235901363194">
        <ele>1110</ele>
        <time>2010-06-13T09:51:32Z</time>
      </trkpt>
      <trkpt lat="45.903050992637873" lon="9.10235901363194">
        <ele>1109</ele>
        <time>2010-06-13T09:51:33Z</time>
      </trkpt>
      <trkpt lat="45.903041018173099" lon="9.102346021682024">
        <ele>1109</ele>
        <time>2010-06-13T09:51:35Z</time>
      </trkpt>
      <trkpt lat="45.903031965717673" lon="9.102333029732108">
        <ele>1110</ele>
        <time>2010-06-13T09:51:36Z</time>
      </trkpt>
      <trkpt lat="45.90302299708128" lon="9.102320037782192">
        <ele>1111</ele>
        <time>2010-06-13T09:51:37Z</time>
      </trkpt>
      <trkpt lat="45.903014028444886" lon="9.102307967841625">
        <ele>1111</ele>
        <time>2010-06-13T09:51:38Z</time>
      </trkpt>
      <trkpt lat="45.903005981817842" lon="9.102294975891709">
        <ele>1111</ele>
        <time>2010-06-13T09:51:40Z</time>
      </trkpt>
      <trkpt lat="45.902987038716674" lon="9.102268991991878">
        <ele>1111</ele>
        <time>2010-06-13T09:51:41Z</time>
      </trkpt>
      <trkpt lat="45.902978992089629" lon="9.102256000041962">
        <ele>1111</ele>
        <time>2010-06-13T09:51:42Z</time>
      </trkpt>
      <trkpt lat="45.902969017624855" lon="9.102256000041962">
        <ele>1111</ele>
        <time>2010-06-13T09:51:43Z</time>
      </trkpt>
      <trkpt lat="45.90296097099781" lon="9.102243008092046">
        <ele>1111</ele>
        <time>2010-06-13T09:51:44Z</time>
      </trkpt>
      <trkpt lat="45.902952002361417" lon="9.10223001614213">
        <ele>1112</ele>
        <time>2010-06-13T09:51:45Z</time>
      </trkpt>
      <trkpt lat="45.902942027896643" lon="9.102217024192214">
        <ele>1111</ele>
        <time>2010-06-13T09:51:47Z</time>
      </trkpt>
      <trkpt lat="45.902924006804824" lon="9.102191040292382">
        <ele>1112</ele>
        <time>2010-06-13T09:51:48Z</time>
      </trkpt>
      <trkpt lat="45.902915960177779" lon="9.102177964523435">
        <ele>1112</ele>
        <time>2010-06-13T09:51:49Z</time>
      </trkpt>
      <trkpt lat="45.902915960177779" lon="9.102151980623603">
        <ele>1112</ele>
        <time>2010-06-13T09:51:50Z</time>
      </trkpt>
      <trkpt lat="45.902906991541386" lon="9.102139994502068">
        <ele>1112</ele>
        <time>2010-06-13T09:51:51Z</time>
      </trkpt>
      <trkpt lat="45.902897017076612" lon="9.102127002552152">
        <ele>1112</ele>
        <time>2010-06-13T09:51:52Z</time>
      </trkpt>
      <trkpt lat="45.902888970449567" lon="9.102114010602236">
        <ele>1112</ele>
        <time>2010-06-13T09:51:54Z</time>
      </trkpt>
      <trkpt lat="45.90287103317678" lon="9.10210101865232">
        <ele>1113</ele>
        <time>2010-06-13T09:51:55Z</time>
      </trkpt>
      <trkpt lat="45.902861980721354" lon="9.102088026702404">
        <ele>1113</ele>
        <time>2010-06-13T09:51:56Z</time>
      </trkpt>
      <trkpt lat="45.902853012084961" lon="9.102075034752488">
        <ele>1113</ele>
        <time>2010-06-13T09:51:57Z</time>
      </trkpt>
      <trkpt lat="45.902843959629536" lon="9.102061958983541">
        <ele>1113</ele>
        <time>2010-06-13T09:51:58Z</time>
      </trkpt>
      <trkpt lat="45.902834990993142" lon="9.102061958983541">
        <ele>1113</ele>
        <time>2010-06-13T09:52:00Z</time>
      </trkpt>
      <trkpt lat="45.902826022356749" lon="9.102048967033625">
        <ele>1113</ele>
        <time>2010-06-13T09:52:01Z</time>
      </trkpt>
      <trkpt lat="45.902799032628536" lon="9.102035975083709">
        <ele>1113</ele>
        <time>2010-06-13T09:52:02Z</time>
      </trkpt>
      <trkpt lat="45.902789980173111" lon="9.102022983133793">
        <ele>1113</ele>
        <time>2010-06-13T09:52:03Z</time>
      </trkpt>
      <trkpt lat="45.902781011536717" lon="9.102022983133793">
        <ele>1114</ele>
        <time>2010-06-13T09:52:04Z</time>
      </trkpt>
      <trkpt lat="45.902762990444899" lon="9.102022983133793">
        <ele>1114</ele>
        <time>2010-06-13T09:52:05Z</time>
      </trkpt>
      <trkpt lat="45.902754021808505" lon="9.102010997012258">
        <ele>1114</ele>
        <time>2010-06-13T09:52:06Z</time>
      </trkpt>
      <trkpt lat="45.902736000716686" lon="9.101996999233961">
        <ele>1114</ele>
        <time>2010-06-13T09:52:07Z</time>
      </trkpt>
      <trkpt lat="45.902727032080293" lon="9.101996999233961">
        <ele>1114</ele>
        <time>2010-06-13T09:52:09Z</time>
      </trkpt>
      <trkpt lat="45.902709010988474" lon="9.10197202116251">
        <ele>1115</ele>
        <time>2010-06-13T09:52:11Z</time>
      </trkpt>
      <trkpt lat="45.902690989896655" lon="9.10197202116251">
        <ele>1114</ele>
        <time>2010-06-13T09:52:13Z</time>
      </trkpt>
      <trkpt lat="45.902672968804836" lon="9.10197202116251">
        <ele>1115</ele>
        <time>2010-06-13T09:52:14Z</time>
      </trkpt>
      <trkpt lat="45.902664000168443" lon="9.10197202116251">
        <ele>1115</ele>
        <time>2010-06-13T09:52:15Z</time>
      </trkpt>
      <trkpt lat="45.902655031532049" lon="9.101984007284045">
        <ele>1115</ele>
        <time>2010-06-13T09:52:16Z</time>
      </trkpt>
      <trkpt lat="45.902645979076624" lon="9.101984007284045">
        <ele>1115</ele>
        <time>2010-06-13T09:52:17Z</time>
      </trkpt>
      <trkpt lat="45.902628041803837" lon="9.101996999233961">
        <ele>1115</ele>
        <time>2010-06-13T09:52:18Z</time>
      </trkpt>
      <trkpt lat="45.902618989348412" lon="9.101996999233961">
        <ele>1115</ele>
        <time>2010-06-13T09:52:19Z</time>
      </trkpt>
      <trkpt lat="45.902610020712018" lon="9.102009991183877">
        <ele>1115</ele>
        <time>2010-06-13T09:52:20Z</time>
      </trkpt>
      <trkpt lat="45.902610020712018" lon="9.102022983133793">
        <ele>1115</ele>
        <time>2010-06-13T09:52:21Z</time>
      </trkpt>
      <trkpt lat="45.902600968256593" lon="9.102035975083709">
        <ele>1115</ele>
        <time>2010-06-13T09:52:22Z</time>
      </trkpt>
      <trkpt lat="45.902600968256593" lon="9.102048967033625">
        <ele>1115</ele>
        <time>2010-06-13T09:52:23Z</time>
      </trkpt>
      <trkpt lat="45.902591999620199" lon="9.102061958983541">
        <ele>1115</ele>
        <time>2010-06-13T09:52:25Z</time>
      </trkpt>
      <trkpt lat="45.902583030983806" lon="9.102075034752488">
        <ele>1115</ele>
        <time>2010-06-13T09:52:26Z</time>
      </trkpt>
      <trkpt lat="45.90257397852838" lon="9.102113004773855">
        <ele>1115</ele>
        <time>2010-06-13T09:52:27Z</time>
      </trkpt>
      <trkpt lat="45.902565009891987" lon="9.102138988673687">
        <ele>1114</ele>
        <time>2010-06-13T09:52:28Z</time>
      </trkpt>
      <trkpt lat="45.902556041255593" lon="9.102151980623603">
        <ele>1114</ele>
        <time>2010-06-13T09:52:29Z</time>
      </trkpt>
      <trkpt lat="45.902546988800168" lon="9.102164972573519">
        <ele>1115</ele>
        <time>2010-06-13T09:52:31Z</time>
      </trkpt>
      <trkpt lat="45.902518993243575" lon="9.102203026413918">
        <ele>1115</ele>
        <time>2010-06-13T09:52:32Z</time>
      </trkpt>
      <trkpt lat="45.902511030435562" lon="9.102229010313749">
        <ele>1115</ele>
        <time>2010-06-13T09:52:33Z</time>
      </trkpt>
      <trkpt lat="45.902500972151756" lon="9.102242002263665">
        <ele>1115</ele>
        <time>2010-06-13T09:52:34Z</time>
      </trkpt>
      <trkpt lat="45.90248404070735" lon="9.102267986163497">
        <ele>1115</ele>
        <time>2010-06-13T09:52:35Z</time>
      </trkpt>
      <trkpt lat="45.902473982423544" lon="9.102293970063329">
        <ele>1115</ele>
        <time>2010-06-13T09:52:36Z</time>
      </trkpt>
      <trkpt lat="45.902466019615531" lon="9.102319031953812">
        <ele>1115</ele>
        <time>2010-06-13T09:52:37Z</time>
      </trkpt>
      <trkpt lat="45.902446992695332" lon="9.102358007803559">
        <ele>1115</ele>
        <time>2010-06-13T09:52:38Z</time>
      </trkpt>
      <trkpt lat="45.902438024058938" lon="9.102383991703391">
        <ele>1116</ele>
        <time>2010-06-13T09:52:39Z</time>
      </trkpt>
      <trkpt lat="45.902420002967119" lon="9.102396983653307">
        <ele>1116</ele>
        <time>2010-06-13T09:52:40Z</time>
      </trkpt>
      <trkpt lat="45.9024019818753" lon="9.102421961724758">
        <ele>1116</ele>
        <time>2010-06-13T09:52:41Z</time>
      </trkpt>
      <trkpt lat="45.902393013238907" lon="9.102435037493706">
        <ele>1116</ele>
        <time>2010-06-13T09:52:42Z</time>
      </trkpt>
      <trkpt lat="45.902374992147088" lon="9.102461021393538">
        <ele>1116</ele>
        <time>2010-06-13T09:52:43Z</time>
      </trkpt>
      <trkpt lat="45.902356971055269" lon="9.102474013343453">
        <ele>1115</ele>
        <time>2010-06-13T09:52:44Z</time>
      </trkpt>
      <trkpt lat="45.902348002418876" lon="9.102487005293369">
        <ele>1115</ele>
        <time>2010-06-13T09:52:45Z</time>
      </trkpt>
      <trkpt lat="45.902329981327057" lon="9.102511983364821">
        <ele>1115</ele>
        <time>2010-06-13T09:52:46Z</time>
      </trkpt>
      <trkpt lat="45.902311960235238" lon="9.102537967264652">
        <ele>1116</ele>
        <time>2010-06-13T09:52:47Z</time>
      </trkpt>
      <trkpt lat="45.902302991598845" lon="9.102550959214568">
        <ele>1116</ele>
        <time>2010-06-13T09:52:48Z</time>
      </trkpt>
      <trkpt lat="45.902284970507026" lon="9.102577026933432">
        <ele>1116</ele>
        <time>2010-06-13T09:52:49Z</time>
      </trkpt>
      <trkpt lat="45.902267033234239" lon="9.102590018883348">
        <ele>1116</ele>
        <time>2010-06-13T09:52:50Z</time>
      </trkpt>
      <trkpt lat="45.90224901214242" lon="9.102616002783179">
        <ele>1116</ele>
        <time>2010-06-13T09:52:51Z</time>
      </trkpt>
      <trkpt lat="45.902230991050601" lon="9.102640980854631">
        <ele>1116</ele>
        <time>2010-06-13T09:52:52Z</time>
      </trkpt>
      <trkpt lat="45.902222022414207" lon="9.102653972804546">
        <ele>1116</ele>
        <time>2010-06-13T09:52:53Z</time>
      </trkpt>
      <trkpt lat="45.902212969958782" lon="9.102666964754462">
        <ele>1116</ele>
        <time>2010-06-13T09:52:54Z</time>
      </trkpt>
      <trkpt lat="45.902195032685995" lon="9.102693032473326">
        <ele>1116</ele>
        <time>2010-06-13T09:52:55Z</time>
      </trkpt>
      <trkpt lat="45.902177011594176" lon="9.102706024423242">
        <ele>1116</ele>
        <time>2010-06-13T09:52:56Z</time>
      </trkpt>
      <trkpt lat="45.902158990502357" lon="9.102731002494693">
        <ele>1116</ele>
        <time>2010-06-13T09:52:57Z</time>
      </trkpt>
      <trkpt lat="45.902150021865964" lon="9.102743994444609">
        <ele>1116</ele>
        <time>2010-06-13T09:52:58Z</time>
      </trkpt>
      <trkpt lat="45.902132000774145" lon="9.102769978344441">
        <ele>1117</ele>
        <time>2010-06-13T09:53:00Z</time>
      </trkpt>
      <trkpt lat="45.902105011045933" lon="9.102782970294356">
        <ele>1116</ele>
        <time>2010-06-13T09:53:01Z</time>
      </trkpt>
      <trkpt lat="45.902068968862295" lon="9.102821024134755">
        <ele>1116</ele>
        <time>2010-06-13T09:53:02Z</time>
      </trkpt>
      <trkpt lat="45.902051031589508" lon="9.102847008034587">
        <ele>1117</ele>
        <time>2010-06-13T09:53:03Z</time>
      </trkpt>
      <trkpt lat="45.902033010497689" lon="9.102859999984503">
        <ele>1117</ele>
        <time>2010-06-13T09:53:05Z</time>
      </trkpt>
      <trkpt lat="45.902006020769477" lon="9.102885983884335">
        <ele>1117</ele>
        <time>2010-06-13T09:53:06Z</time>
      </trkpt>
      <trkpt lat="45.901979031041265" lon="9.102898975834251">
        <ele>1116</ele>
        <time>2010-06-13T09:53:07Z</time>
      </trkpt>
      <trkpt lat="45.901961009949446" lon="9.102910961955786">
        <ele>1116</ele>
        <time>2010-06-13T09:53:08Z</time>
      </trkpt>
      <trkpt lat="45.901942988857627" lon="9.102924037724733">
        <ele>1117</ele>
        <time>2010-06-13T09:53:09Z</time>
      </trkpt>
      <trkpt lat="45.901934020221233" lon="9.102950021624565">
        <ele>1117</ele>
        <time>2010-06-13T09:53:10Z</time>
      </trkpt>
      <trkpt lat="45.901915999129415" lon="9.102963013574481">
        <ele>1117</ele>
        <time>2010-06-13T09:53:11Z</time>
      </trkpt>
      <trkpt lat="45.901897978037596" lon="9.102976005524397">
        <ele>1117</ele>
        <time>2010-06-13T09:53:12Z</time>
      </trkpt>
      <trkpt lat="45.901880040764809" lon="9.102988997474313">
        <ele>1117</ele>
        <time>2010-06-13T09:53:13Z</time>
      </trkpt>
      <trkpt lat="45.90186201967299" lon="9.103000983595848">
        <ele>1117</ele>
        <time>2010-06-13T09:53:14Z</time>
      </trkpt>
      <trkpt lat="45.901843998581171" lon="9.103000983595848">
        <ele>1117</ele>
        <time>2010-06-13T09:53:15Z</time>
      </trkpt>
      <trkpt lat="45.901825977489352" lon="9.103013975545764">
        <ele>1117</ele>
        <time>2010-06-13T09:53:16Z</time>
      </trkpt>
      <trkpt lat="45.901825977489352" lon="9.10302696749568">
        <ele>1117</ele>
        <time>2010-06-13T09:53:17Z</time>
      </trkpt>
      <trkpt lat="45.901808040216565" lon="9.10302696749568">
        <ele>1117</ele>
        <time>2010-06-13T09:53:18Z</time>
      </trkpt>
      <trkpt lat="45.90179898776114" lon="9.103039959445596">
        <ele>1117</ele>
        <time>2010-06-13T09:53:19Z</time>
      </trkpt>
      <trkpt lat="45.901780966669321" lon="9.103053035214543">
        <ele>1118</ele>
        <time>2010-06-13T09:53:20Z</time>
      </trkpt>
      <trkpt lat="45.901771998032928" lon="9.103053035214543">
        <ele>1118</ele>
        <time>2010-06-13T09:53:21Z</time>
      </trkpt>
      <trkpt lat="45.901753976941109" lon="9.103066027164459">
        <ele>1117</ele>
        <time>2010-06-13T09:53:22Z</time>
      </trkpt>
      <trkpt lat="45.901745008304715" lon="9.103092011064291">
        <ele>1118</ele>
        <time>2010-06-13T09:53:23Z</time>
      </trkpt>
      <trkpt lat="45.901736039668322" lon="9.103116989135742">
        <ele>1118</ele>
        <time>2010-06-13T09:53:24Z</time>
      </trkpt>
      <trkpt lat="45.901726987212896" lon="9.103116989135742">
        <ele>1117</ele>
        <time>2010-06-13T09:53:25Z</time>
      </trkpt>
      <trkpt lat="45.901718018576503" lon="9.103129981085658">
        <ele>1117</ele>
        <time>2010-06-13T09:53:26Z</time>
      </trkpt>
      <trkpt lat="45.901699997484684" lon="9.10315596498549">
        <ele>1117</ele>
        <time>2010-06-13T09:53:28Z</time>
      </trkpt>
      <trkpt lat="45.901672001928091" lon="9.103182032704353">
        <ele>1118</ele>
        <time>2010-06-13T09:53:29Z</time>
      </trkpt>
      <trkpt lat="45.901664039120078" lon="9.103207010775805">
        <ele>1117</ele>
        <time>2010-06-13T09:53:30Z</time>
      </trkpt>
      <trkpt lat="45.901646018028259" lon="9.10322000272572">
        <ele>1118</ele>
        <time>2010-06-13T09:53:31Z</time>
      </trkpt>
      <trkpt lat="45.901636965572834" lon="9.103232994675636">
        <ele>1119</ele>
        <time>2010-06-13T09:53:33Z</time>
      </trkpt>
      <trkpt lat="45.901619028300047" lon="9.103245986625552">
        <ele>1119</ele>
        <time>2010-06-13T09:53:34Z</time>
      </trkpt>
      <trkpt lat="45.901591032743454" lon="9.103298038244247">
        <ele>1119</ele>
        <time>2010-06-13T09:53:35Z</time>
      </trkpt>
      <trkpt lat="45.901573011651635" lon="9.103336008265615">
        <ele>1119</ele>
        <time>2010-06-13T09:53:36Z</time>
      </trkpt>
      <trkpt lat="45.90156395919621" lon="9.10334900021553">
        <ele>1118</ele>
        <time>2010-06-13T09:53:37Z</time>
      </trkpt>
      <trkpt lat="45.901555996388197" lon="9.103374984115362">
        <ele>1119</ele>
        <time>2010-06-13T09:53:38Z</time>
      </trkpt>
      <trkpt lat="45.901536969467998" lon="9.103400968015194">
        <ele>1119</ele>
        <time>2010-06-13T09:53:40Z</time>
      </trkpt>
      <trkpt lat="45.90151903219521" lon="9.103426029905677">
        <ele>1119</ele>
        <time>2010-06-13T09:53:41Z</time>
      </trkpt>
      <trkpt lat="45.901509979739785" lon="9.103452013805509">
        <ele>1119</ele>
        <time>2010-06-13T09:53:42Z</time>
      </trkpt>
      <trkpt lat="45.901482990011573" lon="9.103503981605172">
        <ele>1118</ele>
        <time>2010-06-13T09:53:43Z</time>
      </trkpt>
      <trkpt lat="45.901474021375179" lon="9.103528959676623">
        <ele>1118</ele>
        <time>2010-06-13T09:53:44Z</time>
      </trkpt>
      <trkpt lat="45.901464968919754" lon="9.103555027395487">
        <ele>1119</ele>
        <time>2010-06-13T09:53:45Z</time>
      </trkpt>
      <trkpt lat="45.90145600028336" lon="9.103581011295319">
        <ele>1119</ele>
        <time>2010-06-13T09:53:46Z</time>
      </trkpt>
      <trkpt lat="45.901447031646967" lon="9.103594003245235">
        <ele>1119</ele>
        <time>2010-06-13T09:53:48Z</time>
      </trkpt>
      <trkpt lat="45.901419958099723" lon="9.103644965216517">
        <ele>1118</ele>
        <time>2010-06-13T09:53:49Z</time>
      </trkpt>
      <trkpt lat="45.901410989463329" lon="9.103671032935381">
        <ele>1119</ele>
        <time>2010-06-13T09:53:50Z</time>
      </trkpt>
      <trkpt lat="45.901402020826936" lon="9.103697016835213">
        <ele>1119</ele>
        <time>2010-06-13T09:53:51Z</time>
      </trkpt>
      <trkpt lat="45.901392968371511" lon="9.103721994906664">
        <ele>1119</ele>
        <time>2010-06-13T09:53:52Z</time>
      </trkpt>
      <trkpt lat="45.901383999735117" lon="9.10373599268496">
        <ele>1119</ele>
        <time>2010-06-13T09:53:53Z</time>
      </trkpt>
      <trkpt lat="45.901365978643298" lon="9.103760970756412">
        <ele>1119</ele>
        <time>2010-06-13T09:53:54Z</time>
      </trkpt>
      <trkpt lat="45.901348041370511" lon="9.103787038475275">
        <ele>1119</ele>
        <time>2010-06-13T09:53:55Z</time>
      </trkpt>
      <trkpt lat="45.901338988915086" lon="9.103800030425191">
        <ele>1119</ele>
        <time>2010-06-13T09:53:57Z</time>
      </trkpt>
      <trkpt lat="45.901320967823267" lon="9.103826014325023">
        <ele>1120</ele>
        <time>2010-06-13T09:53:58Z</time>
      </trkpt>
      <trkpt lat="45.901293978095055" lon="9.103876976296306">
        <ele>1120</ele>
        <time>2010-06-13T09:53:59Z</time>
      </trkpt>
      <trkpt lat="45.901285009458661" lon="9.103889968246222">
        <ele>1119</ele>
        <time>2010-06-13T09:54:00Z</time>
      </trkpt>
      <trkpt lat="45.901276040822268" lon="9.103916035965085">
        <ele>1120</ele>
        <time>2010-06-13T09:54:01Z</time>
      </trkpt>
      <trkpt lat="45.901258019730449" lon="9.103941014036536">
        <ele>1120</ele>
        <time>2010-06-13T09:54:02Z</time>
      </trkpt>
      <trkpt lat="45.901248967275023" lon="9.103966997936368">
        <ele>1120</ele>
        <time>2010-06-13T09:54:04Z</time>
      </trkpt>
      <trkpt lat="45.901221977546811" lon="9.104005973786116">
        <ele>1120</ele>
        <time>2010-06-13T09:54:05Z</time>
      </trkpt>
      <trkpt lat="45.901213008910418" lon="9.104032041504979">
        <ele>1120</ele>
        <time>2010-06-13T09:54:06Z</time>
      </trkpt>
      <trkpt lat="45.901204040274024" lon="9.10405701957643">
        <ele>1120</ele>
        <time>2010-06-13T09:54:07Z</time>
      </trkpt>
      <trkpt lat="45.901194987818599" lon="9.104070011526346">
        <ele>1120</ele>
        <time>2010-06-13T09:54:08Z</time>
      </trkpt>
      <trkpt lat="45.90117696672678" lon="9.104095995426178">
        <ele>1120</ele>
        <time>2010-06-13T09:54:09Z</time>
      </trkpt>
      <trkpt lat="45.901167998090386" lon="9.10412197932601">
        <ele>1120</ele>
        <time>2010-06-13T09:54:10Z</time>
      </trkpt>
      <trkpt lat="45.901149976998568" lon="9.104147041216493">
        <ele>1120</ele>
        <time>2010-06-13T09:54:11Z</time>
      </trkpt>
      <trkpt lat="45.90113203972578" lon="9.104173025116324">
        <ele>1120</ele>
        <time>2010-06-13T09:54:12Z</time>
      </trkpt>
      <trkpt lat="45.901122987270355" lon="9.10418601706624">
        <ele>1120</ele>
        <time>2010-06-13T09:54:13Z</time>
      </trkpt>
      <trkpt lat="45.901114018633962" lon="9.104199009016156">
        <ele>1120</ele>
        <time>2010-06-13T09:54:14Z</time>
      </trkpt>
      <trkpt lat="45.901104966178536" lon="9.104224992915988">
        <ele>1121</ele>
        <time>2010-06-13T09:54:15Z</time>
      </trkpt>
      <trkpt lat="45.901087028905749" lon="9.10425097681582">
        <ele>1121</ele>
        <time>2010-06-13T09:54:16Z</time>
      </trkpt>
      <trkpt lat="45.901069007813931" lon="9.104276038706303">
        <ele>1122</ele>
        <time>2010-06-13T09:54:17Z</time>
      </trkpt>
      <trkpt lat="45.901059033349156" lon="9.104302022606134">
        <ele>1122</ele>
        <time>2010-06-13T09:54:18Z</time>
      </trkpt>
      <trkpt lat="45.901042018085718" lon="9.10431501455605">
        <ele>1122</ele>
        <time>2010-06-13T09:54:19Z</time>
      </trkpt>
      <trkpt lat="45.901023996993899" lon="9.104340998455882">
        <ele>1122</ele>
        <time>2010-06-13T09:54:21Z</time>
      </trkpt>
      <trkpt lat="45.900996001437306" lon="9.104378968477249">
        <ele>1122</ele>
        <time>2010-06-13T09:54:22Z</time>
      </trkpt>
      <trkpt lat="45.900924000889063" lon="9.104468990117312">
        <ele>1122</ele>
        <time>2010-06-13T09:54:28Z</time>
      </trkpt>
      <trkpt lat="45.900905979797244" lon="9.104481982067227">
        <ele>1122</ele>
        <time>2010-06-13T09:54:29Z</time>
      </trkpt>
      <trkpt lat="45.900897011160851" lon="9.104494974017143">
        <ele>1122</ele>
        <time>2010-06-13T09:54:30Z</time>
      </trkpt>
      <trkpt lat="45.900887958705425" lon="9.104494974017143">
        <ele>1122</ele>
        <time>2010-06-13T09:54:32Z</time>
      </trkpt>
      <trkpt lat="45.900887958705425" lon="9.104494974017143">
        <ele>1123</ele>
        <time>2010-06-13T09:54:33Z</time>
      </trkpt>
      <trkpt lat="45.900860968977213" lon="9.104521041736007">
        <ele>1123</ele>
        <time>2010-06-13T09:54:34Z</time>
      </trkpt>
      <trkpt lat="45.900852000340819" lon="9.104521041736007">
        <ele>1124</ele>
        <time>2010-06-13T09:54:35Z</time>
      </trkpt>
      <trkpt lat="45.900833979249001" lon="9.104534033685923">
        <ele>1123</ele>
        <time>2010-06-13T09:54:36Z</time>
      </trkpt>
      <trkpt lat="45.900825010612607" lon="9.104534033685923">
        <ele>1123</ele>
        <time>2010-06-13T09:54:37Z</time>
      </trkpt>
      <trkpt lat="45.900806989520788" lon="9.104547025635839">
        <ele>1123</ele>
        <time>2010-06-13T09:54:38Z</time>
      </trkpt>
      <trkpt lat="45.900806989520788" lon="9.104547025635839">
        <ele>1123</ele>
        <time>2010-06-13T09:54:39Z</time>
      </trkpt>
      <trkpt lat="45.900788968428969" lon="9.104546019807458">
        <ele>1123</ele>
        <time>2010-06-13T09:54:41Z</time>
      </trkpt>
      <trkpt lat="45.900771031156182" lon="9.104559011757374">
        <ele>1124</ele>
        <time>2010-06-13T09:54:42Z</time>
      </trkpt>
      <trkpt lat="45.900771031156182" lon="9.10457200370729">
        <ele>1124</ele>
        <time>2010-06-13T09:54:43Z</time>
      </trkpt>
      <trkpt lat="45.900761978700757" lon="9.104559011757374">
        <ele>1123</ele>
        <time>2010-06-13T09:54:44Z</time>
      </trkpt>
      <trkpt lat="45.90074404142797" lon="9.10457200370729">
        <ele>1124</ele>
        <time>2010-06-13T09:54:47Z</time>
      </trkpt>
      <trkpt lat="45.900716967880726" lon="9.104584995657206">
        <ele>1124</ele>
        <time>2010-06-13T09:54:48Z</time>
      </trkpt>
      <trkpt lat="45.900707999244332" lon="9.104584995657206">
        <ele>1124</ele>
        <time>2010-06-13T09:54:49Z</time>
      </trkpt>
      <trkpt lat="45.900689978152514" lon="9.104584995657206">
        <ele>1124</ele>
        <time>2010-06-13T09:54:51Z</time>
      </trkpt>
      <trkpt lat="45.900672040879726" lon="9.104584995657206">
        <ele>1124</ele>
        <time>2010-06-13T09:54:52Z</time>
      </trkpt>
      <trkpt lat="45.900672040879726" lon="9.104584995657206">
        <ele>1125</ele>
        <time>2010-06-13T09:54:54Z</time>
      </trkpt>
      <trkpt lat="45.900654019787908" lon="9.104597987607122">
        <ele>1125</ele>
        <time>2010-06-13T09:54:55Z</time>
      </trkpt>
      <trkpt lat="45.900627030059695" lon="9.104597987607122">
        <ele>1126</ele>
        <time>2010-06-13T09:55:00Z</time>
      </trkpt>
      <trkpt lat="45.900627030059695" lon="9.104597987607122">
        <ele>1126</ele>
        <time>2010-06-13T09:55:01Z</time>
      </trkpt>
      <trkpt lat="45.90061797760427" lon="9.104597987607122">
        <ele>1126</ele>
        <time>2010-06-13T09:55:03Z</time>
      </trkpt>
      <trkpt lat="45.900609008967876" lon="9.104597987607122">
        <ele>1127</ele>
        <time>2010-06-13T09:55:04Z</time>
      </trkpt>
      <trkpt lat="45.900609008967876" lon="9.104584995657206">
        <ele>1127</ele>
        <time>2010-06-13T09:55:05Z</time>
      </trkpt>
      <trkpt lat="45.900590987876058" lon="9.104584995657206">
        <ele>1127</ele>
        <time>2010-06-13T09:55:06Z</time>
      </trkpt>
      <trkpt lat="45.900572966784239" lon="9.104584995657206">
        <ele>1127</ele>
        <time>2010-06-13T09:55:08Z</time>
      </trkpt>
      <trkpt lat="45.900563998147845" lon="9.104597987607122">
        <ele>1128</ele>
        <time>2010-06-13T09:55:10Z</time>
      </trkpt>
      <trkpt lat="45.900545977056026" lon="9.104584995657206">
        <ele>1128</ele>
        <time>2010-06-13T09:55:12Z</time>
      </trkpt>
      <trkpt lat="45.900528039783239" lon="9.104596981778741">
        <ele>1128</ele>
        <time>2010-06-13T09:55:15Z</time>
      </trkpt>
      <trkpt lat="45.900518987327814" lon="9.104610979557037">
        <ele>1129</ele>
        <time>2010-06-13T09:55:16Z</time>
      </trkpt>
      <trkpt lat="45.900366017594934" lon="9.104699995368719">
        <ele>1130</ele>
        <time>2010-06-13T09:55:53Z</time>
      </trkpt>
      <trkpt lat="45.900366017594934" lon="9.104699995368719">
        <ele>1130</ele>
        <time>2010-06-13T09:55:54Z</time>
      </trkpt>
      <trkpt lat="45.900096036493778" lon="9.104816000908613">
        <ele>1136</ele>
        <time>2010-06-13T09:56:34Z</time>
      </trkpt>
      <trkpt lat="45.900078015401959" lon="9.104816000908613">
        <ele>1136</ele>
        <time>2010-06-13T09:56:37Z</time>
      </trkpt>
      <trkpt lat="45.900059994310141" lon="9.104803008958697">
        <ele>1136</ele>
        <time>2010-06-13T09:56:38Z</time>
      </trkpt>
      <trkpt lat="45.900051025673747" lon="9.104803008958697">
        <ele>1137</ele>
        <time>2010-06-13T09:56:39Z</time>
      </trkpt>
      <trkpt lat="45.900041973218322" lon="9.104803008958697">
        <ele>1137</ele>
        <time>2010-06-13T09:56:41Z</time>
      </trkpt>
      <trkpt lat="45.900033004581928" lon="9.104803008958697">
        <ele>1137</ele>
        <time>2010-06-13T09:56:43Z</time>
      </trkpt>
      <trkpt lat="45.900024035945535" lon="9.104803008958697">
        <ele>1137</ele>
        <time>2010-06-13T09:56:44Z</time>
      </trkpt>
      <trkpt lat="45.900006014853716" lon="9.104803008958697">
        <ele>1138</ele>
        <time>2010-06-13T09:56:46Z</time>
      </trkpt>
      <trkpt lat="45.900006014853716" lon="9.104816000908613">
        <ele>1138</ele>
        <time>2010-06-13T09:56:47Z</time>
      </trkpt>
      <trkpt lat="45.899979025125504" lon="9.104816000908613">
        <ele>1138</ele>
        <time>2010-06-13T09:56:51Z</time>
      </trkpt>
      <trkpt lat="45.899969972670078" lon="9.104816000908613">
        <ele>1138</ele>
        <time>2010-06-13T09:56:52Z</time>
      </trkpt>
      <trkpt lat="45.899961004033685" lon="9.104828992858529">
        <ele>1139</ele>
        <time>2010-06-13T09:56:53Z</time>
      </trkpt>
      <trkpt lat="45.899961004033685" lon="9.104828992858529">
        <ele>1139</ele>
        <time>2010-06-13T09:56:54Z</time>
      </trkpt>
      <trkpt lat="45.899961004033685" lon="9.104840978980064">
        <ele>1139</ele>
        <time>2010-06-13T09:56:55Z</time>
      </trkpt>
      <trkpt lat="45.899952035397291" lon="9.104840978980064">
        <ele>1139</ele>
        <time>2010-06-13T09:56:57Z</time>
      </trkpt>
      <trkpt lat="45.899942982941866" lon="9.10485397092998">
        <ele>1139</ele>
        <time>2010-06-13T09:56:58Z</time>
      </trkpt>
      <trkpt lat="45.899934014305472" lon="9.104866962879896">
        <ele>1140</ele>
        <time>2010-06-13T09:56:59Z</time>
      </trkpt>
      <trkpt lat="45.899934014305472" lon="9.104880038648844">
        <ele>1140</ele>
        <time>2010-06-13T09:57:00Z</time>
      </trkpt>
      <trkpt lat="45.899924961850047" lon="9.10489303059876">
        <ele>1140</ele>
        <time>2010-06-13T09:57:02Z</time>
      </trkpt>
      <trkpt lat="45.89990702457726" lon="9.10489303059876">
        <ele>1139</ele>
        <time>2010-06-13T09:57:03Z</time>
      </trkpt>
      <trkpt lat="45.899699991568923" lon="9.105150019749999">
        <ele>1143</ele>
        <time>2010-06-13T09:57:34Z</time>
      </trkpt>
      <trkpt lat="45.899691022932529" lon="9.105150019749999">
        <ele>1143</ele>
        <time>2010-06-13T09:57:36Z</time>
      </trkpt>
      <trkpt lat="45.899691022932529" lon="9.105176003649831">
        <ele>1142</ele>
        <time>2010-06-13T09:57:37Z</time>
      </trkpt>
      <trkpt lat="45.899681970477104" lon="9.105188995599747">
        <ele>1142</ele>
        <time>2010-06-13T09:57:38Z</time>
      </trkpt>
      <trkpt lat="45.899664033204317" lon="9.105214979499579">
        <ele>1143</ele>
        <time>2010-06-13T09:57:39Z</time>
      </trkpt>
      <trkpt lat="45.899646012112498" lon="9.10524096339941">
        <ele>1143</ele>
        <time>2010-06-13T09:57:40Z</time>
      </trkpt>
      <trkpt lat="45.899636959657073" lon="9.105266025289893">
        <ele>1143</ele>
        <time>2010-06-13T09:57:41Z</time>
      </trkpt>
      <trkpt lat="45.899626985192299" lon="9.105266025289893">
        <ele>1143</ele>
        <time>2010-06-13T09:57:42Z</time>
      </trkpt>
      <trkpt lat="45.899626985192299" lon="9.105279017239809">
        <ele>1144</ele>
        <time>2010-06-13T09:57:43Z</time>
      </trkpt>
      <trkpt lat="45.899619022384286" lon="9.105279017239809">
        <ele>1144</ele>
        <time>2010-06-13T09:57:45Z</time>
      </trkpt>
      <trkpt lat="45.899591026827693" lon="9.105317993089557">
        <ele>1144</ele>
        <time>2010-06-13T09:57:46Z</time>
      </trkpt>
      <trkpt lat="45.899581974372268" lon="9.105330985039473">
        <ele>1144</ele>
        <time>2010-06-13T09:57:47Z</time>
      </trkpt>
      <trkpt lat="45.899574011564255" lon="9.105330985039473">
        <ele>1144</ele>
        <time>2010-06-13T09:57:48Z</time>
      </trkpt>
      <trkpt lat="45.899574011564255" lon="9.105342971161008">
        <ele>1145</ele>
        <time>2010-06-13T09:57:49Z</time>
      </trkpt>
      <trkpt lat="45.899564037099481" lon="9.105355963110924">
        <ele>1144</ele>
        <time>2010-06-13T09:57:50Z</time>
      </trkpt>
      <trkpt lat="45.899555990472436" lon="9.105369038879871">
        <ele>1144</ele>
        <time>2010-06-13T09:57:51Z</time>
      </trkpt>
      <trkpt lat="45.899546016007662" lon="9.105382030829787">
        <ele>1145</ele>
        <time>2010-06-13T09:57:53Z</time>
      </trkpt>
      <trkpt lat="45.899527994915843" lon="9.105408014729619">
        <ele>1145</ele>
        <time>2010-06-13T09:57:54Z</time>
      </trkpt>
      <trkpt lat="45.899519026279449" lon="9.105421006679535">
        <ele>1144</ele>
        <time>2010-06-13T09:57:55Z</time>
      </trkpt>
      <trkpt lat="45.899510979652405" lon="9.105421006679535">
        <ele>1144</ele>
        <time>2010-06-13T09:57:56Z</time>
      </trkpt>
      <trkpt lat="45.899501005187631" lon="9.105433998629451">
        <ele>1145</ele>
        <time>2010-06-13T09:57:57Z</time>
      </trkpt>
      <trkpt lat="45.899492036551237" lon="9.105458976700902">
        <ele>1144</ele>
        <time>2010-06-13T09:57:58Z</time>
      </trkpt>
      <trkpt lat="45.899482984095812" lon="9.105471968650818">
        <ele>1145</ele>
        <time>2010-06-13T09:57:59Z</time>
      </trkpt>
      <trkpt lat="45.899464963003993" lon="9.105484960600734">
        <ele>1145</ele>
        <time>2010-06-13T09:58:01Z</time>
      </trkpt>
      <trkpt lat="45.899447025731206" lon="9.105498036369681">
        <ele>1145</ele>
        <time>2010-06-13T09:58:02Z</time>
      </trkpt>
      <trkpt lat="45.899437973275781" lon="9.105511028319597">
        <ele>1145</ele>
        <time>2010-06-13T09:58:03Z</time>
      </trkpt>
      <trkpt lat="45.899437973275781" lon="9.105511028319597">
        <ele>1145</ele>
        <time>2010-06-13T09:58:04Z</time>
      </trkpt>
      <trkpt lat="45.899429004639387" lon="9.105524020269513">
        <ele>1146</ele>
        <time>2010-06-13T09:58:06Z</time>
      </trkpt>
      <trkpt lat="45.899410983547568" lon="9.105536006391048">
        <ele>1146</ele>
        <time>2010-06-13T09:58:07Z</time>
      </trkpt>
      <trkpt lat="45.899383993819356" lon="9.10556199029088">
        <ele>1145</ele>
        <time>2010-06-13T09:58:08Z</time>
      </trkpt>
      <trkpt lat="45.899365972727537" lon="9.105574982240796">
        <ele>1146</ele>
        <time>2010-06-13T09:58:09Z</time>
      </trkpt>
      <trkpt lat="45.899357004091144" lon="9.105587974190712">
        <ele>1146</ele>
        <time>2010-06-13T09:58:10Z</time>
      </trkpt>
      <trkpt lat="45.89934803545475" lon="9.105587974190712">
        <ele>1146</ele>
        <time>2010-06-13T09:58:11Z</time>
      </trkpt>
      <trkpt lat="45.899330014362931" lon="9.105600966140628">
        <ele>1147</ele>
        <time>2010-06-13T09:58:12Z</time>
      </trkpt>
      <trkpt lat="45.899320961907506" lon="9.105600966140628">
        <ele>1147</ele>
        <time>2010-06-13T09:58:14Z</time>
      </trkpt>
      <trkpt lat="45.899303024634719" lon="9.105613958090544">
        <ele>1146</ele>
        <time>2010-06-13T09:58:15Z</time>
      </trkpt>
      <trkpt lat="45.899293972179294" lon="9.105613958090544">
        <ele>1146</ele>
        <time>2010-06-13T09:58:16Z</time>
      </trkpt>
      <trkpt lat="45.899276034906507" lon="9.105613958090544">
        <ele>1147</ele>
        <time>2010-06-13T09:58:18Z</time>
      </trkpt>
      <trkpt lat="45.899266982451081" lon="9.105613958090544">
        <ele>1148</ele>
        <time>2010-06-13T09:58:19Z</time>
      </trkpt>
      <trkpt lat="45.899266982451081" lon="9.105613958090544">
        <ele>1148</ele>
        <time>2010-06-13T09:58:20Z</time>
      </trkpt>
      <trkpt lat="45.899258013814688" lon="9.105626028031111">
        <ele>1148</ele>
        <time>2010-06-13T09:58:21Z</time>
      </trkpt>
      <trkpt lat="45.899248961359262" lon="9.105626028031111">
        <ele>1148</ele>
        <time>2010-06-13T09:58:22Z</time>
      </trkpt>
      <trkpt lat="45.899231024086475" lon="9.105639019981027">
        <ele>1149</ele>
        <time>2010-06-13T09:58:23Z</time>
      </trkpt>
      <trkpt lat="45.899213002994657" lon="9.105652011930943">
        <ele>1148</ele>
        <time>2010-06-13T09:58:24Z</time>
      </trkpt>
      <trkpt lat="45.899213002994657" lon="9.105665003880858">
        <ele>1148</ele>
        <time>2010-06-13T09:58:25Z</time>
      </trkpt>
      <trkpt lat="45.899204034358263" lon="9.105677995830774">
        <ele>1149</ele>
        <time>2010-06-13T09:58:26Z</time>
      </trkpt>
      <trkpt lat="45.899186013266444" lon="9.105677995830774">
        <ele>1148</ele>
        <time>2010-06-13T09:58:27Z</time>
      </trkpt>
      <trkpt lat="45.899186013266444" lon="9.105677995830774">
        <ele>1149</ele>
        <time>2010-06-13T09:58:29Z</time>
      </trkpt>
      <trkpt lat="45.898906979709864" lon="9.105715965852141">
        <ele>1149</ele>
        <time>2010-06-13T09:58:53Z</time>
      </trkpt>
      <trkpt lat="45.89889801107347" lon="9.105715965852141">
        <ele>1149</ele>
        <time>2010-06-13T09:58:54Z</time>
      </trkpt>
      <trkpt lat="45.898879989981651" lon="9.105729041621089">
        <ele>1149</ele>
        <time>2010-06-13T09:58:55Z</time>
      </trkpt>
      <trkpt lat="45.898861968889832" lon="9.105729041621089">
        <ele>1149</ele>
        <time>2010-06-13T09:58:56Z</time>
      </trkpt>
      <trkpt lat="45.898844031617045" lon="9.105729041621089">
        <ele>1150</ele>
        <time>2010-06-13T09:58:57Z</time>
      </trkpt>
      <trkpt lat="45.89883497916162" lon="9.105742033571005">
        <ele>1150</ele>
        <time>2010-06-13T09:58:58Z</time>
      </trkpt>
      <trkpt lat="45.898807989433408" lon="9.10575401969254">
        <ele>1150</ele>
        <time>2010-06-13T09:58:59Z</time>
      </trkpt>
      <trkpt lat="45.898799020797014" lon="9.10575401969254">
        <ele>1150</ele>
        <time>2010-06-13T09:59:00Z</time>
      </trkpt>
      <trkpt lat="45.898780999705195" lon="9.105767011642456">
        <ele>1150</ele>
        <time>2010-06-13T09:59:01Z</time>
      </trkpt>
      <trkpt lat="45.898762978613377" lon="9.105780003592372">
        <ele>1150</ele>
        <time>2010-06-13T09:59:02Z</time>
      </trkpt>
      <trkpt lat="45.898754009976983" lon="9.105792995542288">
        <ele>1151</ele>
        <time>2010-06-13T09:59:03Z</time>
      </trkpt>
      <trkpt lat="45.898735988885164" lon="9.105805987492204">
        <ele>1151</ele>
        <time>2010-06-13T09:59:04Z</time>
      </trkpt>
      <trkpt lat="45.898727020248771" lon="9.105805987492204">
        <ele>1152</ele>
        <time>2010-06-13T09:59:05Z</time>
      </trkpt>
      <trkpt lat="45.898717967793345" lon="9.105805987492204">
        <ele>1152</ele>
        <time>2010-06-13T09:59:06Z</time>
      </trkpt>
      <trkpt lat="45.898700030520558" lon="9.105805987492204">
        <ele>1152</ele>
        <time>2010-06-13T09:59:07Z</time>
      </trkpt>
      <trkpt lat="45.89868200942874" lon="9.10581897944212">
        <ele>1152</ele>
        <time>2010-06-13T09:59:08Z</time>
      </trkpt>
      <trkpt lat="45.898663988336921" lon="9.10581897944212">
        <ele>1152</ele>
        <time>2010-06-13T09:59:09Z</time>
      </trkpt>
      <trkpt lat="45.898655019700527" lon="9.10581897944212">
        <ele>1152</ele>
        <time>2010-06-13T09:59:10Z</time>
      </trkpt>
      <trkpt lat="45.898645967245102" lon="9.10581897944212">
        <ele>1152</ele>
        <time>2010-06-13T09:59:12Z</time>
      </trkpt>
      <trkpt lat="45.898610008880496" lon="9.10581897944212">
        <ele>1152</ele>
        <time>2010-06-13T09:59:13Z</time>
      </trkpt>
      <trkpt lat="45.898583019152284" lon="9.10581897944212">
        <ele>1153</ele>
        <time>2010-06-13T09:59:15Z</time>
      </trkpt>
      <trkpt lat="45.898573966696858" lon="9.105805987492204">
        <ele>1152</ele>
        <time>2010-06-13T09:59:16Z</time>
      </trkpt>
      <trkpt lat="45.898564998060465" lon="9.105792995542288">
        <ele>1153</ele>
        <time>2010-06-13T09:59:18Z</time>
      </trkpt>
      <trkpt lat="45.898529039695859" lon="9.105792995542288">
        <ele>1153</ele>
        <time>2010-06-13T09:59:20Z</time>
      </trkpt>
      <trkpt lat="45.89851101860404" lon="9.105780003592372">
        <ele>1154</ele>
        <time>2010-06-13T09:59:21Z</time>
      </trkpt>
      <trkpt lat="45.898501966148615" lon="9.105780003592372">
        <ele>1153</ele>
        <time>2010-06-13T09:59:22Z</time>
      </trkpt>
      <trkpt lat="45.898492997512221" lon="9.105791989713907">
        <ele>1153</ele>
        <time>2010-06-13T09:59:23Z</time>
      </trkpt>
      <trkpt lat="45.898484028875828" lon="9.105805987492204">
        <ele>1153</ele>
        <time>2010-06-13T09:59:24Z</time>
      </trkpt>
      <trkpt lat="45.898474976420403" lon="9.105805987492204">
        <ele>1153</ele>
        <time>2010-06-13T09:59:25Z</time>
      </trkpt>
      <trkpt lat="45.898204995319247" lon="9.105778997763991">
        <ele>1156</ele>
        <time>2010-06-13T09:59:53Z</time>
      </trkpt>
      <trkpt lat="45.898196026682854" lon="9.105766005814076">
        <ele>1157</ele>
        <time>2010-06-13T09:59:55Z</time>
      </trkpt>
      <trkpt lat="45.898186974227428" lon="9.105766005814076">
        <ele>1157</ele>
        <time>2010-06-13T09:59:56Z</time>
      </trkpt>
      <trkpt lat="45.898178005591035" lon="9.105766005814076">
        <ele>1157</ele>
        <time>2010-06-13T09:59:57Z</time>
      </trkpt>
      <trkpt lat="45.898169036954641" lon="9.105766005814076">
        <ele>1157</ele>
        <time>2010-06-13T09:59:58Z</time>
      </trkpt>
      <trkpt lat="45.898079015314579" lon="9.105804981663823">
        <ele>1158</ele>
        <time>2010-06-13T10:00:26Z</time>
      </trkpt>
      <trkpt lat="45.898069962859154" lon="9.105791989713907">
        <ele>1158</ele>
        <time>2010-06-13T10:00:28Z</time>
      </trkpt>
      <trkpt lat="45.89806099422276" lon="9.105804981663823">
        <ele>1158</ele>
        <time>2010-06-13T10:00:29Z</time>
      </trkpt>
      <trkpt lat="45.89806099422276" lon="9.105778997763991">
        <ele>1158</ele>
        <time>2010-06-13T10:00:30Z</time>
      </trkpt>
      <trkpt lat="45.89806099422276" lon="9.105778997763991">
        <ele>1158</ele>
        <time>2010-06-13T10:00:31Z</time>
      </trkpt>
      <trkpt lat="45.898052025586367" lon="9.10575301386416">
        <ele>1159</ele>
        <time>2010-06-13T10:00:34Z</time>
      </trkpt>
      <trkpt lat="45.898042973130941" lon="9.10575301386416">
        <ele>1160</ele>
        <time>2010-06-13T10:00:35Z</time>
      </trkpt>
      <trkpt lat="45.898034004494548" lon="9.10575301386416">
        <ele>1160</ele>
        <time>2010-06-13T10:00:36Z</time>
      </trkpt>
      <trkpt lat="45.898025035858154" lon="9.10575301386416">
        <ele>1161</ele>
        <time>2010-06-13T10:00:37Z</time>
      </trkpt>
      <trkpt lat="45.898015983402729" lon="9.105740021914244">
        <ele>1160</ele>
        <time>2010-06-13T10:00:38Z</time>
      </trkpt>
      <trkpt lat="45.898007014766335" lon="9.105740021914244">
        <ele>1160</ele>
        <time>2010-06-13T10:00:39Z</time>
      </trkpt>
      <trkpt lat="45.89799796231091" lon="9.105740021914244">
        <ele>1160</ele>
        <time>2010-06-13T10:00:40Z</time>
      </trkpt>
      <trkpt lat="45.897988993674517" lon="9.105727029964328">
        <ele>1160</ele>
        <time>2010-06-13T10:00:41Z</time>
      </trkpt>
      <trkpt lat="45.897988993674517" lon="9.105727029964328">
        <ele>1160</ele>
        <time>2010-06-13T10:00:42Z</time>
      </trkpt>
      <trkpt lat="45.897970972582698" lon="9.105727029964328">
        <ele>1160</ele>
        <time>2010-06-13T10:00:44Z</time>
      </trkpt>
      <trkpt lat="45.897970972582698" lon="9.105727029964328">
        <ele>1161</ele>
        <time>2010-06-13T10:00:46Z</time>
      </trkpt>
      <trkpt lat="45.897953035309911" lon="9.105727029964328">
        <ele>1161</ele>
        <time>2010-06-13T10:00:49Z</time>
      </trkpt>
      <trkpt lat="45.897943982854486" lon="9.105727029964328">
        <ele>1162</ele>
        <time>2010-06-13T10:00:50Z</time>
      </trkpt>
      <trkpt lat="45.897935014218092" lon="9.105727029964328">
        <ele>1161</ele>
        <time>2010-06-13T10:00:52Z</time>
      </trkpt>
      <trkpt lat="45.897925961762667" lon="9.105727029964328">
        <ele>1161</ele>
        <time>2010-06-13T10:00:53Z</time>
      </trkpt>
      <trkpt lat="45.897916993126273" lon="9.105727029964328">
        <ele>1161</ele>
        <time>2010-06-13T10:00:54Z</time>
      </trkpt>
      <trkpt lat="45.897898972034454" lon="9.105727029964328">
        <ele>1162</ele>
        <time>2010-06-13T10:00:56Z</time>
      </trkpt>
      <trkpt lat="45.897890003398061" lon="9.105727029964328">
        <ele>1162</ele>
        <time>2010-06-13T10:00:57Z</time>
      </trkpt>
      <trkpt lat="45.897871982306242" lon="9.105727029964328">
        <ele>1162</ele>
        <time>2010-06-13T10:00:58Z</time>
      </trkpt>
      <trkpt lat="45.897863013669848" lon="9.105740021914244">
        <ele>1162</ele>
        <time>2010-06-13T10:00:59Z</time>
      </trkpt>
      <trkpt lat="45.89784499257803" lon="9.10575301386416">
        <ele>1163</ele>
        <time>2010-06-13T10:01:00Z</time>
      </trkpt>
      <trkpt lat="45.89784499257803" lon="9.10575301386416">
        <ele>1163</ele>
        <time>2010-06-13T10:01:01Z</time>
      </trkpt>
      <trkpt lat="45.897836023941636" lon="9.10575301386416">
        <ele>1163</ele>
        <time>2010-06-13T10:01:02Z</time>
      </trkpt>
      <trkpt lat="45.897826971486211" lon="9.10575301386416">
        <ele>1162</ele>
        <time>2010-06-13T10:01:03Z</time>
      </trkpt>
      <trkpt lat="45.897818002849817" lon="9.10575301386416">
        <ele>1162</ele>
        <time>2010-06-13T10:01:04Z</time>
      </trkpt>
      <trkpt lat="45.897809034213424" lon="9.105752008035779">
        <ele>1163</ele>
        <time>2010-06-13T10:01:05Z</time>
      </trkpt>
      <trkpt lat="45.897799981757998" lon="9.105752008035779">
        <ele>1163</ele>
        <time>2010-06-13T10:01:06Z</time>
      </trkpt>
      <trkpt lat="45.897791013121605" lon="9.105740021914244">
        <ele>1163</ele>
        <time>2010-06-13T10:01:07Z</time>
      </trkpt>
      <trkpt lat="45.89778196066618" lon="9.105740021914244">
        <ele>1163</ele>
        <time>2010-06-13T10:01:10Z</time>
      </trkpt>
      <trkpt lat="45.897764023393393" lon="9.105727029964328">
        <ele>1163</ele>
        <time>2010-06-13T10:01:11Z</time>
      </trkpt>
      <trkpt lat="45.897754970937967" lon="9.105727029964328">
        <ele>1163</ele>
        <time>2010-06-13T10:01:12Z</time>
      </trkpt>
      <trkpt lat="45.897746002301574" lon="9.105727029964328">
        <ele>1162</ele>
        <time>2010-06-13T10:01:13Z</time>
      </trkpt>
      <trkpt lat="45.89773703366518" lon="9.105714038014412">
        <ele>1162</ele>
        <time>2010-06-13T10:01:14Z</time>
      </trkpt>
      <trkpt lat="45.897727981209755" lon="9.105714038014412">
        <ele>1162</ele>
        <time>2010-06-13T10:01:15Z</time>
      </trkpt>
      <trkpt lat="45.897719012573361" lon="9.105714038014412">
        <ele>1163</ele>
        <time>2010-06-13T10:01:16Z</time>
      </trkpt>
      <trkpt lat="45.897709960117936" lon="9.105700962245464">
        <ele>1163</ele>
        <time>2010-06-13T10:01:17Z</time>
      </trkpt>
      <trkpt lat="45.897700991481543" lon="9.105687970295548">
        <ele>1162</ele>
        <time>2010-06-13T10:01:18Z</time>
      </trkpt>
      <trkpt lat="45.897692022845149" lon="9.105687970295548">
        <ele>1162</ele>
        <time>2010-06-13T10:01:19Z</time>
      </trkpt>
      <trkpt lat="45.89767400175333" lon="9.105674978345633">
        <ele>1163</ele>
        <time>2010-06-13T10:01:20Z</time>
      </trkpt>
      <trkpt lat="45.897665033116937" lon="9.105674978345633">
        <ele>1163</ele>
        <time>2010-06-13T10:01:21Z</time>
      </trkpt>
      <trkpt lat="45.897655980661511" lon="9.105674978345633">
        <ele>1164</ele>
        <time>2010-06-13T10:01:22Z</time>
      </trkpt>
      <trkpt lat="45.897637959569693" lon="9.105674978345633">
        <ele>1164</ele>
        <time>2010-06-13T10:01:23Z</time>
      </trkpt>
      <trkpt lat="45.897628990933299" lon="9.105661986395717">
        <ele>1164</ele>
        <time>2010-06-13T10:01:24Z</time>
      </trkpt>
      <trkpt lat="45.89761096984148" lon="9.105648994445801">
        <ele>1164</ele>
        <time>2010-06-13T10:01:25Z</time>
      </trkpt>
      <trkpt lat="45.897602001205087" lon="9.105648994445801">
        <ele>1163</ele>
        <time>2010-06-13T10:01:27Z</time>
      </trkpt>
      <trkpt lat="45.897583980113268" lon="9.105636002495885">
        <ele>1164</ele>
        <time>2010-06-13T10:01:28Z</time>
      </trkpt>
      <trkpt lat="45.897575011476874" lon="9.105623010545969">
        <ele>1164</ele>
        <time>2010-06-13T10:01:29Z</time>
      </trkpt>
      <trkpt lat="45.897548021748662" lon="9.105610018596053">
        <ele>1164</ele>
        <time>2010-06-13T10:01:31Z</time>
      </trkpt>
      <trkpt lat="45.897538969293237" lon="9.105610018596053">
        <ele>1165</ele>
        <time>2010-06-13T10:01:33Z</time>
      </trkpt>
      <trkpt lat="45.89752103202045" lon="9.105598032474518">
        <ele>1165</ele>
        <time>2010-06-13T10:01:34Z</time>
      </trkpt>
      <trkpt lat="45.897511979565024" lon="9.105598032474518">
        <ele>1165</ele>
        <time>2010-06-13T10:01:35Z</time>
      </trkpt>
      <trkpt lat="45.897503010928631" lon="9.105584034696221">
        <ele>1165</ele>
        <time>2010-06-13T10:01:36Z</time>
      </trkpt>
      <trkpt lat="45.897493958473206" lon="9.105571964755654">
        <ele>1165</ele>
        <time>2010-06-13T10:01:38Z</time>
      </trkpt>
      <trkpt lat="45.897466968744993" lon="9.105558972805738">
        <ele>1166</ele>
        <time>2010-06-13T10:01:39Z</time>
      </trkpt>
      <trkpt lat="45.8974580001086" lon="9.105558972805738">
        <ele>1166</ele>
        <time>2010-06-13T10:01:40Z</time>
      </trkpt>
      <trkpt lat="45.897449031472206" lon="9.105545980855823">
        <ele>1166</ele>
        <time>2010-06-13T10:01:41Z</time>
      </trkpt>
      <trkpt lat="45.897439979016781" lon="9.105545980855823">
        <ele>1166</ele>
        <time>2010-06-13T10:01:43Z</time>
      </trkpt>
      <trkpt lat="45.897422041743994" lon="9.105532988905907">
        <ele>1165</ele>
        <time>2010-06-13T10:01:44Z</time>
      </trkpt>
      <trkpt lat="45.897412989288568" lon="9.105519996955991">
        <ele>1166</ele>
        <time>2010-06-13T10:01:45Z</time>
      </trkpt>
      <trkpt lat="45.897385999560356" lon="9.105519996955991">
        <ele>1166</ele>
        <time>2010-06-13T10:01:47Z</time>
      </trkpt>
      <trkpt lat="45.897367978468537" lon="9.105519996955991">
        <ele>1166</ele>
        <time>2010-06-13T10:01:48Z</time>
      </trkpt>
      <trkpt lat="45.897359009832144" lon="9.105507005006075">
        <ele>1165</ele>
        <time>2010-06-13T10:01:49Z</time>
      </trkpt>
      <trkpt lat="45.89735004119575" lon="9.105494013056159">
        <ele>1165</ele>
        <time>2010-06-13T10:01:50Z</time>
      </trkpt>
      <trkpt lat="45.897340988740325" lon="9.105481021106243">
        <ele>1165</ele>
        <time>2010-06-13T10:01:51Z</time>
      </trkpt>
      <trkpt lat="45.897332020103931" lon="9.105455037206411">
        <ele>1165</ele>
        <time>2010-06-13T10:01:52Z</time>
      </trkpt>
      <trkpt lat="45.897322967648506" lon="9.105455037206411">
        <ele>1165</ele>
        <time>2010-06-13T10:01:54Z</time>
      </trkpt>
      <trkpt lat="45.897305030375719" lon="9.105441961437464">
        <ele>1166</ele>
        <time>2010-06-13T10:01:55Z</time>
      </trkpt>
      <trkpt lat="45.897295977920294" lon="9.105428969487548">
        <ele>1166</ele>
        <time>2010-06-13T10:01:56Z</time>
      </trkpt>
      <trkpt lat="45.897278040647507" lon="9.105415977537632">
        <ele>1166</ele>
        <time>2010-06-13T10:01:57Z</time>
      </trkpt>
      <trkpt lat="45.897268988192081" lon="9.105403991416097">
        <ele>1166</ele>
        <time>2010-06-13T10:01:58Z</time>
      </trkpt>
      <trkpt lat="45.897260019555688" lon="9.105390999466181">
        <ele>1167</ele>
        <time>2010-06-13T10:01:59Z</time>
      </trkpt>
      <trkpt lat="45.897250967100263" lon="9.105365015566349">
        <ele>1166</ele>
        <time>2010-06-13T10:02:00Z</time>
      </trkpt>
      <trkpt lat="45.897241998463869" lon="9.105352023616433">
        <ele>1166</ele>
        <time>2010-06-13T10:02:01Z</time>
      </trkpt>
      <trkpt lat="45.89722397737205" lon="9.105339031666517">
        <ele>1166</ele>
        <time>2010-06-13T10:02:02Z</time>
      </trkpt>
      <trkpt lat="45.897215008735657" lon="9.105326039716601">
        <ele>1166</ele>
        <time>2010-06-13T10:02:03Z</time>
      </trkpt>
      <trkpt lat="45.897196987643838" lon="9.105312963947654">
        <ele>1166</ele>
        <time>2010-06-13T10:02:04Z</time>
      </trkpt>
      <trkpt lat="45.897188019007444" lon="9.105299971997738">
        <ele>1166</ele>
        <time>2010-06-13T10:02:05Z</time>
      </trkpt>
      <trkpt lat="45.897178966552019" lon="9.105286980047822">
        <ele>1166</ele>
        <time>2010-06-13T10:02:06Z</time>
      </trkpt>
      <trkpt lat="45.897169997915626" lon="9.105286980047822">
        <ele>1166</ele>
        <time>2010-06-13T10:02:07Z</time>
      </trkpt>
      <trkpt lat="45.897151976823807" lon="9.105262001976371">
        <ele>1167</ele>
        <time>2010-06-13T10:02:08Z</time>
      </trkpt>
      <trkpt lat="45.897143008187413" lon="9.105249010026455">
        <ele>1167</ele>
        <time>2010-06-13T10:02:09Z</time>
      </trkpt>
      <trkpt lat="45.89713403955102" lon="9.105223026126623">
        <ele>1167</ele>
        <time>2010-06-13T10:02:10Z</time>
      </trkpt>
      <trkpt lat="45.897116018459201" lon="9.105223026126623">
        <ele>1166</ele>
        <time>2010-06-13T10:02:11Z</time>
      </trkpt>
      <trkpt lat="45.897106966003776" lon="9.105210034176707">
        <ele>1167</ele>
        <time>2010-06-13T10:02:13Z</time>
      </trkpt>
      <trkpt lat="45.897080982103944" lon="9.105183966457844">
        <ele>1167</ele>
        <time>2010-06-13T10:02:14Z</time>
      </trkpt>
      <trkpt lat="45.89707100763917" lon="9.105170974507928">
        <ele>1168</ele>
        <time>2010-06-13T10:02:15Z</time>
      </trkpt>
      <trkpt lat="45.897053992375731" lon="9.105157982558012">
        <ele>1168</ele>
        <time>2010-06-13T10:02:16Z</time>
      </trkpt>
      <trkpt lat="45.897044017910957" lon="9.105144990608096">
        <ele>1168</ele>
        <time>2010-06-13T10:02:17Z</time>
      </trkpt>
      <trkpt lat="45.897035971283913" lon="9.10513199865818">
        <ele>1169</ele>
        <time>2010-06-13T10:02:18Z</time>
      </trkpt>
      <trkpt lat="45.897035971283913" lon="9.105119006708264">
        <ele>1169</ele>
        <time>2010-06-13T10:02:19Z</time>
      </trkpt>
      <trkpt lat="45.897027002647519" lon="9.105107020586729">
        <ele>1168</ele>
        <time>2010-06-13T10:02:20Z</time>
      </trkpt>
      <trkpt lat="45.8970089815557" lon="9.105107020586729">
        <ele>1169</ele>
        <time>2010-06-13T10:02:21Z</time>
      </trkpt>
      <trkpt lat="45.896999007090926" lon="9.105094028636813">
        <ele>1169</ele>
        <time>2010-06-13T10:02:22Z</time>
      </trkpt>
      <trkpt lat="45.896990960463881" lon="9.105081036686897">
        <ele>1168</ele>
        <time>2010-06-13T10:02:24Z</time>
      </trkpt>
      <trkpt lat="45.896972017362714" lon="9.10506796091795">
        <ele>1169</ele>
        <time>2010-06-13T10:02:25Z</time>
      </trkpt>
      <trkpt lat="45.896963970735669" lon="9.105054968968034">
        <ele>1169</ele>
        <time>2010-06-13T10:02:26Z</time>
      </trkpt>
      <trkpt lat="45.896946033462882" lon="9.105041977018118">
        <ele>1169</ele>
        <time>2010-06-13T10:02:27Z</time>
      </trkpt>
      <trkpt lat="45.896946033462882" lon="9.105028985068202">
        <ele>1169</ele>
        <time>2010-06-13T10:02:28Z</time>
      </trkpt>
      <trkpt lat="45.896936981007457" lon="9.105015993118286">
        <ele>1169</ele>
        <time>2010-06-13T10:02:30Z</time>
      </trkpt>
      <trkpt lat="45.896918959915638" lon="9.104990009218454">
        <ele>1169</ele>
        <time>2010-06-13T10:02:31Z</time>
      </trkpt>
      <trkpt lat="45.896918959915638" lon="9.104965031147003">
        <ele>1169</ele>
        <time>2010-06-13T10:02:32Z</time>
      </trkpt>
      <trkpt lat="45.896909991279244" lon="9.104965031147003">
        <ele>1169</ele>
        <time>2010-06-13T10:02:33Z</time>
      </trkpt>
      <trkpt lat="45.896909991279244" lon="9.10493896342814">
        <ele>1170</ele>
        <time>2010-06-13T10:02:34Z</time>
      </trkpt>
      <trkpt lat="45.896901022642851" lon="9.104899987578392">
        <ele>1170</ele>
        <time>2010-06-13T10:02:36Z</time>
      </trkpt>
      <trkpt lat="45.896901022642851" lon="9.104886995628476">
        <ele>1170</ele>
        <time>2010-06-13T10:02:37Z</time>
      </trkpt>
      <trkpt lat="45.896901022642851" lon="9.104861011728644">
        <ele>1170</ele>
        <time>2010-06-13T10:02:38Z</time>
      </trkpt>
      <trkpt lat="45.896901022642851" lon="9.104836033657193">
        <ele>1170</ele>
        <time>2010-06-13T10:02:39Z</time>
      </trkpt>
      <trkpt lat="45.896891970187426" lon="9.104836033657193">
        <ele>1170</ele>
        <time>2010-06-13T10:02:40Z</time>
      </trkpt>
      <trkpt lat="45.896883001551032" lon="9.104823041707277">
        <ele>1170</ele>
        <time>2010-06-13T10:02:41Z</time>
      </trkpt>
      <trkpt lat="45.896874032914639" lon="9.104796973988414">
        <ele>1170</ele>
        <time>2010-06-13T10:02:42Z</time>
      </trkpt>
      <trkpt lat="45.896864980459213" lon="9.104796973988414">
        <ele>1171</ele>
        <time>2010-06-13T10:02:43Z</time>
      </trkpt>
      <trkpt lat="45.896837990731001" lon="9.104783982038498">
        <ele>1170</ele>
        <time>2010-06-13T10:02:45Z</time>
      </trkpt>
      <trkpt lat="45.896837990731001" lon="9.104770990088582">
        <ele>1171</ele>
        <time>2010-06-13T10:02:46Z</time>
      </trkpt>
      <trkpt lat="45.896837990731001" lon="9.10474500618875">
        <ele>1171</ele>
        <time>2010-06-13T10:02:48Z</time>
      </trkpt>
      <trkpt lat="45.896829022094607" lon="9.104707036167383">
        <ele>1171</ele>
        <time>2010-06-13T10:02:49Z</time>
      </trkpt>
      <trkpt lat="45.896829022094607" lon="9.104693960398436">
        <ele>1172</ele>
        <time>2010-06-13T10:02:50Z</time>
      </trkpt>
      <trkpt lat="45.896819969639182" lon="9.104667976498604">
        <ele>1172</ele>
        <time>2010-06-13T10:02:51Z</time>
      </trkpt>
      <trkpt lat="45.896811001002789" lon="9.104641992598772">
        <ele>1172</ele>
        <time>2010-06-13T10:02:52Z</time>
      </trkpt>
      <trkpt lat="45.896811001002789" lon="9.104629000648856">
        <ele>1172</ele>
        <time>2010-06-13T10:02:53Z</time>
      </trkpt>
      <trkpt lat="45.896811001002789" lon="9.104604022577405">
        <ele>1171</ele>
        <time>2010-06-13T10:02:54Z</time>
      </trkpt>
      <trkpt lat="45.896811001002789" lon="9.104591030627489">
        <ele>1171</ele>
        <time>2010-06-13T10:02:55Z</time>
      </trkpt>
      <trkpt lat="45.896802032366395" lon="9.104564962908626">
        <ele>1171</ele>
        <time>2010-06-13T10:02:56Z</time>
      </trkpt>
      <trkpt lat="45.896802032366395" lon="9.104538979008794">
        <ele>1172</ele>
        <time>2010-06-13T10:02:57Z</time>
      </trkpt>
      <trkpt lat="45.896802032366395" lon="9.104525987058878">
        <ele>1172</ele>
        <time>2010-06-13T10:02:58Z</time>
      </trkpt>
      <trkpt lat="45.89679297991097" lon="9.10448701120913">
        <ele>1172</ele>
        <time>2010-06-13T10:03:00Z</time>
      </trkpt>
      <trkpt lat="45.896784011274576" lon="9.104462033137679">
        <ele>1172</ele>
        <time>2010-06-13T10:03:01Z</time>
      </trkpt>
      <trkpt lat="45.896774958819151" lon="9.104449041187763">
        <ele>1172</ele>
        <time>2010-06-13T10:03:02Z</time>
      </trkpt>
      <trkpt lat="45.896765990182757" lon="9.104435965418816">
        <ele>1172</ele>
        <time>2010-06-13T10:03:03Z</time>
      </trkpt>
      <trkpt lat="45.896765990182757" lon="9.1044229734689">
        <ele>1173</ele>
        <time>2010-06-13T10:03:04Z</time>
      </trkpt>
      <trkpt lat="45.896765990182757" lon="9.104396989569068">
        <ele>1173</ele>
        <time>2010-06-13T10:03:06Z</time>
      </trkpt>
      <trkpt lat="45.896765990182757" lon="9.104371005669236">
        <ele>1173</ele>
        <time>2010-06-13T10:03:07Z</time>
      </trkpt>
      <trkpt lat="45.896757021546364" lon="9.10435801371932">
        <ele>1173</ele>
        <time>2010-06-13T10:03:08Z</time>
      </trkpt>
      <trkpt lat="45.896757021546364" lon="9.104346027597785">
        <ele>1172</ele>
        <time>2010-06-13T10:03:09Z</time>
      </trkpt>
      <trkpt lat="45.896757021546364" lon="9.104333035647869">
        <ele>1172</ele>
        <time>2010-06-13T10:03:10Z</time>
      </trkpt>
      <trkpt lat="45.896747969090939" lon="9.10429397597909">
        <ele>1173</ele>
        <time>2010-06-13T10:03:12Z</time>
      </trkpt>
      <trkpt lat="45.896747969090939" lon="9.104280984029174">
        <ele>1173</ele>
        <time>2010-06-13T10:03:13Z</time>
      </trkpt>
      <trkpt lat="45.896739000454545" lon="9.10422901622951">
        <ele>1173</ele>
        <time>2010-06-13T10:03:16Z</time>
      </trkpt>
      <trkpt lat="45.896739000454545" lon="9.104217030107975">
        <ele>1173</ele>
        <time>2010-06-13T10:03:18Z</time>
      </trkpt>
      <trkpt lat="45.896730031818151" lon="9.104190962389112">
        <ele>1173</ele>
        <time>2010-06-13T10:03:19Z</time>
      </trkpt>
      <trkpt lat="45.896720979362726" lon="9.104177970439196">
        <ele>1173</ele>
        <time>2010-06-13T10:03:20Z</time>
      </trkpt>
      <trkpt lat="45.896720979362726" lon="9.10416497848928">
        <ele>1173</ele>
        <time>2010-06-13T10:03:21Z</time>
      </trkpt>
      <trkpt lat="45.896720979362726" lon="9.104151986539364">
        <ele>1173</ele>
        <time>2010-06-13T10:03:23Z</time>
      </trkpt>
      <trkpt lat="45.896713016554713" lon="9.104138994589448">
        <ele>1174</ele>
        <time>2010-06-13T10:03:24Z</time>
      </trkpt>
      <trkpt lat="45.896702958270907" lon="9.104101024568081">
        <ele>1174</ele>
        <time>2010-06-13T10:03:25Z</time>
      </trkpt>
      <trkpt lat="45.896702958270907" lon="9.104088032618165">
        <ele>1174</ele>
        <time>2010-06-13T10:03:26Z</time>
      </trkpt>
      <trkpt lat="45.896693989634514" lon="9.104075040668249">
        <ele>1174</ele>
        <time>2010-06-13T10:03:27Z</time>
      </trkpt>
      <trkpt lat="45.896693989634514" lon="9.104048972949386">
        <ele>1174</ele>
        <time>2010-06-13T10:03:28Z</time>
      </trkpt>
      <trkpt lat="45.896693989634514" lon="9.10403598099947">
        <ele>1174</ele>
        <time>2010-06-13T10:03:29Z</time>
      </trkpt>
      <trkpt lat="45.896686026826501" lon="9.104022989049554">
        <ele>1175</ele>
        <time>2010-06-13T10:03:30Z</time>
      </trkpt>
      <trkpt lat="45.896686026826501" lon="9.104009997099638">
        <ele>1175</ele>
        <time>2010-06-13T10:03:31Z</time>
      </trkpt>
      <trkpt lat="45.896676974371076" lon="9.103984013199806">
        <ele>1175</ele>
        <time>2010-06-13T10:03:32Z</time>
      </trkpt>
      <trkpt lat="45.896668005734682" lon="9.103959035128355">
        <ele>1175</ele>
        <time>2010-06-13T10:03:33Z</time>
      </trkpt>
      <trkpt lat="45.896659037098289" lon="9.103945959359407">
        <ele>1175</ele>
        <time>2010-06-13T10:03:35Z</time>
      </trkpt>
      <trkpt lat="45.896649984642863" lon="9.103932967409492">
        <ele>1175</ele>
        <time>2010-06-13T10:03:36Z</time>
      </trkpt>
      <trkpt lat="45.89664101600647" lon="9.10390698350966">
        <ele>1175</ele>
        <time>2010-06-13T10:03:37Z</time>
      </trkpt>
      <trkpt lat="45.896631963551044" lon="9.103868007659912">
        <ele>1175</ele>
        <time>2010-06-13T10:03:39Z</time>
      </trkpt>
      <trkpt lat="45.896631963551044" lon="9.103856021538377">
        <ele>1175</ele>
        <time>2010-06-13T10:03:41Z</time>
      </trkpt>
      <trkpt lat="45.896622994914651" lon="9.103816961869597">
        <ele>1175</ele>
        <time>2010-06-13T10:03:42Z</time>
      </trkpt>
      <trkpt lat="45.896614026278257" lon="9.103803969919682">
        <ele>1175</ele>
        <time>2010-06-13T10:03:43Z</time>
      </trkpt>
      <trkpt lat="45.896604973822832" lon="9.10377798601985">
        <ele>1176</ele>
        <time>2010-06-13T10:03:45Z</time>
      </trkpt>
      <trkpt lat="45.896596005186439" lon="9.103764994069934">
        <ele>1176</ele>
        <time>2010-06-13T10:03:46Z</time>
      </trkpt>
      <trkpt lat="45.896596005186439" lon="9.103752002120018">
        <ele>1176</ele>
        <time>2010-06-13T10:03:47Z</time>
      </trkpt>
      <trkpt lat="45.896596005186439" lon="9.103727024048567">
        <ele>1176</ele>
        <time>2010-06-13T10:03:48Z</time>
      </trkpt>
      <trkpt lat="45.896587036550045" lon="9.103714032098651">
        <ele>1176</ele>
        <time>2010-06-13T10:03:49Z</time>
      </trkpt>
      <trkpt lat="45.89657798409462" lon="9.103687964379787">
        <ele>1177</ele>
        <time>2010-06-13T10:03:50Z</time>
      </trkpt>
      <trkpt lat="45.89657798409462" lon="9.103674972429872">
        <ele>1177</ele>
        <time>2010-06-13T10:03:51Z</time>
      </trkpt>
      <trkpt lat="45.896569015458226" lon="9.10364898853004">
        <ele>1177</ele>
        <time>2010-06-13T10:03:52Z</time>
      </trkpt>
      <trkpt lat="45.896569015458226" lon="9.103635996580124">
        <ele>1177</ele>
        <time>2010-06-13T10:03:53Z</time>
      </trkpt>
      <trkpt lat="45.896559963002801" lon="9.103623004630208">
        <ele>1177</ele>
        <time>2010-06-13T10:03:54Z</time>
      </trkpt>
      <trkpt lat="45.896559963002801" lon="9.103611018508673">
        <ele>1178</ele>
        <time>2010-06-13T10:03:56Z</time>
      </trkpt>
      <trkpt lat="45.896550994366407" lon="9.103571958839893">
        <ele>1177</ele>
        <time>2010-06-13T10:03:57Z</time>
      </trkpt>
      <trkpt lat="45.896542025730014" lon="9.103558966889978">
        <ele>1178</ele>
        <time>2010-06-13T10:03:58Z</time>
      </trkpt>
      <trkpt lat="45.896532973274589" lon="9.103545974940062">
        <ele>1179</ele>
        <time>2010-06-13T10:03:59Z</time>
      </trkpt>
      <trkpt lat="45.896524004638195" lon="9.103532982990146">
        <ele>1179</ele>
        <time>2010-06-13T10:04:01Z</time>
      </trkpt>
      <trkpt lat="45.896515036001801" lon="9.103494007140398">
        <ele>1179</ele>
        <time>2010-06-13T10:04:02Z</time>
      </trkpt>
      <trkpt lat="45.896505983546376" lon="9.103481015190482">
        <ele>1179</ele>
        <time>2010-06-13T10:04:03Z</time>
      </trkpt>
      <trkpt lat="45.896497014909983" lon="9.103469029068947">
        <ele>1179</ele>
        <time>2010-06-13T10:04:04Z</time>
      </trkpt>
      <trkpt lat="45.896497014909983" lon="9.103456037119031">
        <ele>1179</ele>
        <time>2010-06-13T10:04:05Z</time>
      </trkpt>
      <trkpt lat="45.896487962454557" lon="9.103442961350083">
        <ele>1180</ele>
        <time>2010-06-13T10:04:07Z</time>
      </trkpt>
      <trkpt lat="45.896478993818164" lon="9.103416977450252">
        <ele>1180</ele>
        <time>2010-06-13T10:04:08Z</time>
      </trkpt>
      <trkpt lat="45.896460972726345" lon="9.103403985500336">
        <ele>1180</ele>
        <time>2010-06-13T10:04:09Z</time>
      </trkpt>
      <trkpt lat="45.896452004089952" lon="9.103403985500336">
        <ele>1181</ele>
        <time>2010-06-13T10:04:10Z</time>
      </trkpt>
      <trkpt lat="45.896443035453558" lon="9.10339099355042">
        <ele>1181</ele>
        <time>2010-06-13T10:04:11Z</time>
      </trkpt>
      <trkpt lat="45.896433982998133" lon="9.10339099355042">
        <ele>1181</ele>
        <time>2010-06-13T10:04:12Z</time>
      </trkpt>
      <trkpt lat="45.896425014361739" lon="9.103378001600504">
        <ele>1181</ele>
        <time>2010-06-13T10:04:14Z</time>
      </trkpt>
      <trkpt lat="45.89640699326992" lon="9.103378001600504">
        <ele>1181</ele>
        <time>2010-06-13T10:04:15Z</time>
      </trkpt>
      <trkpt lat="45.896398024633527" lon="9.103378001600504">
        <ele>1181</ele>
        <time>2010-06-13T10:04:16Z</time>
      </trkpt>
      <trkpt lat="45.896388972178102" lon="9.103378001600504">
        <ele>1181</ele>
        <time>2010-06-13T10:04:17Z</time>
      </trkpt>
      <trkpt lat="45.896371034905314" lon="9.10339099355042">
        <ele>1181</ele>
        <time>2010-06-13T10:04:18Z</time>
      </trkpt>
      <trkpt lat="45.89634396135807" lon="9.103416977450252">
        <ele>1181</ele>
        <time>2010-06-13T10:04:20Z</time>
      </trkpt>
      <trkpt lat="45.896281013265252" lon="9.103494007140398">
        <ele>1180</ele>
        <time>2010-06-13T10:04:21Z</time>
      </trkpt>
      <trkpt lat="45.89625402353704" lon="9.103532982990146">
        <ele>1179</ele>
        <time>2010-06-13T10:04:22Z</time>
      </trkpt>
      <trkpt lat="45.896227033808827" lon="9.103571036830545">
        <ele>1178</ele>
        <time>2010-06-13T10:04:23Z</time>
      </trkpt>
      <trkpt lat="45.896209012717009" lon="9.103610012680292">
        <ele>1178</ele>
        <time>2010-06-13T10:04:24Z</time>
      </trkpt>
      <trkpt lat="45.896182022988796" lon="9.103635996580124">
        <ele>1177</ele>
        <time>2010-06-13T10:04:25Z</time>
      </trkpt>
      <trkpt lat="45.896155033260584" lon="9.103673966601491">
        <ele>1176</ele>
        <time>2010-06-13T10:04:26Z</time>
      </trkpt>
      <trkpt lat="45.896118991076946" lon="9.10371302627027">
        <ele>1176</ele>
        <time>2010-06-13T10:04:28Z</time>
      </trkpt>
      <trkpt lat="45.896092001348734" lon="9.103739010170102">
        <ele>1175</ele>
        <time>2010-06-13T10:04:29Z</time>
      </trkpt>
      <trkpt lat="45.896065011620522" lon="9.103776980191469">
        <ele>1174</ele>
        <time>2010-06-13T10:04:30Z</time>
      </trkpt>
      <trkpt lat="45.896011032164097" lon="9.103854009881616">
        <ele>1171</ele>
        <time>2010-06-13T10:04:31Z</time>
      </trkpt>
      <trkpt lat="45.895974989980459" lon="9.103879993781447">
        <ele>1170</ele>
        <time>2010-06-13T10:04:32Z</time>
      </trkpt>
      <trkpt lat="45.895946994423866" lon="9.103918969631195">
        <ele>1169</ele>
        <time>2010-06-13T10:04:33Z</time>
      </trkpt>
      <trkpt lat="45.895921010524035" lon="9.103944031521678">
        <ele>1168</ele>
        <time>2010-06-13T10:04:34Z</time>
      </trkpt>
      <trkpt lat="45.895894020795822" lon="9.103983007371426">
        <ele>1168</ele>
        <time>2010-06-13T10:04:35Z</time>
      </trkpt>
      <trkpt lat="45.895866025239229" lon="9.104021983221173">
        <ele>1167</ele>
        <time>2010-06-13T10:04:36Z</time>
      </trkpt>
      <trkpt lat="45.895839035511017" lon="9.104060037061572">
        <ele>1167</ele>
        <time>2010-06-13T10:04:38Z</time>
      </trkpt>
      <trkpt lat="45.89578497223556" lon="9.104124996811152">
        <ele>1165</ele>
        <time>2010-06-13T10:04:39Z</time>
      </trkpt>
      <trkpt lat="45.895757982507348" lon="9.104162966832519">
        <ele>1165</ele>
        <time>2010-06-13T10:04:40Z</time>
      </trkpt>
      <trkpt lat="45.895739961415529" lon="9.104189034551382">
        <ele>1164</ele>
        <time>2010-06-13T10:04:41Z</time>
      </trkpt>
      <trkpt lat="45.895712971687317" lon="9.104227004572749">
        <ele>1164</ele>
        <time>2010-06-13T10:04:42Z</time>
      </trkpt>
      <trkpt lat="45.895685981959105" lon="9.104265980422497">
        <ele>1164</ele>
        <time>2010-06-13T10:04:44Z</time>
      </trkpt>
      <trkpt lat="45.89563200250268" lon="9.104331023991108">
        <ele>1162</ele>
        <time>2010-06-13T10:04:45Z</time>
      </trkpt>
      <trkpt lat="45.895613981410861" lon="9.104356002062559">
        <ele>1162</ele>
        <time>2010-06-13T10:04:46Z</time>
      </trkpt>
      <trkpt lat="45.895586991682649" lon="9.104394977912307">
        <ele>1160</ele>
        <time>2010-06-13T10:04:47Z</time>
      </trkpt>
      <trkpt lat="45.895560001954436" lon="9.104420961812139">
        <ele>1160</ele>
        <time>2010-06-13T10:04:48Z</time>
      </trkpt>
      <trkpt lat="45.895541980862617" lon="9.104446023702622">
        <ele>1160</ele>
        <time>2010-06-13T10:04:50Z</time>
      </trkpt>
      <trkpt lat="45.895488001406193" lon="9.104497991502285">
        <ele>1159</ele>
        <time>2010-06-13T10:04:51Z</time>
      </trkpt>
      <trkpt lat="45.89546101167798" lon="9.104535961523652">
        <ele>1158</ele>
        <time>2010-06-13T10:04:52Z</time>
      </trkpt>
      <trkpt lat="45.895424969494343" lon="9.104562029242516">
        <ele>1158</ele>
        <time>2010-06-13T10:04:53Z</time>
      </trkpt>
      <trkpt lat="45.895389011129737" lon="9.104601005092263">
        <ele>1157</ele>
        <time>2010-06-13T10:04:54Z</time>
      </trkpt>
      <trkpt lat="45.895370990037918" lon="9.10463897511363">
        <ele>1156</ele>
        <time>2010-06-13T10:04:56Z</time>
      </trkpt>
      <trkpt lat="45.895335031673312" lon="9.104664959013462">
        <ele>1155</ele>
        <time>2010-06-13T10:04:57Z</time>
      </trkpt>
      <trkpt lat="45.895290020853281" lon="9.104704018682241">
        <ele>1155</ele>
        <time>2010-06-13T10:04:58Z</time>
      </trkpt>
      <trkpt lat="45.895271999761462" lon="9.104741988703609">
        <ele>1154</ele>
        <time>2010-06-13T10:04:59Z</time>
      </trkpt>
      <trkpt lat="45.89524501003325" lon="9.104754980653524">
        <ele>1153</ele>
        <time>2010-06-13T10:05:00Z</time>
      </trkpt>
      <trkpt lat="45.895218020305037" lon="9.104794040322304">
        <ele>1152</ele>
        <time>2010-06-13T10:05:01Z</time>
      </trkpt>
      <trkpt lat="45.895191030576825" lon="9.104819018393755">
        <ele>1152</ele>
        <time>2010-06-13T10:05:03Z</time>
      </trkpt>
      <trkpt lat="45.895173009485006" lon="9.104845002293587">
        <ele>1152</ele>
        <time>2010-06-13T10:05:04Z</time>
      </trkpt>
      <trkpt lat="45.895119030028582" lon="9.10489697009325">
        <ele>1151</ele>
        <time>2010-06-13T10:05:05Z</time>
      </trkpt>
      <trkpt lat="45.895101008936763" lon="9.104922031983733">
        <ele>1151</ele>
        <time>2010-06-13T10:05:06Z</time>
      </trkpt>
      <trkpt lat="45.89507401920855" lon="9.104948015883565">
        <ele>1149</ele>
        <time>2010-06-13T10:05:07Z</time>
      </trkpt>
      <trkpt lat="45.895055998116732" lon="9.104973999783397">
        <ele>1148</ele>
        <time>2010-06-13T10:05:08Z</time>
      </trkpt>
      <trkpt lat="45.895029008388519" lon="9.105011969804764">
        <ele>1148</ele>
        <time>2010-06-13T10:05:10Z</time>
      </trkpt>
      <trkpt lat="45.895001012831926" lon="9.105038037523627">
        <ele>1148</ele>
        <time>2010-06-13T10:05:11Z</time>
      </trkpt>
      <trkpt lat="45.894982991740108" lon="9.105064021423459">
        <ele>1148</ele>
        <time>2010-06-13T10:05:12Z</time>
      </trkpt>
      <trkpt lat="45.894937980920076" lon="9.105115989223123">
        <ele>1147</ele>
        <time>2010-06-13T10:05:13Z</time>
      </trkpt>
      <trkpt lat="45.894919959828258" lon="9.105140967294574">
        <ele>1147</ele>
        <time>2010-06-13T10:05:14Z</time>
      </trkpt>
      <trkpt lat="45.89490202255547" lon="9.10515395924449">
        <ele>1146</ele>
        <time>2010-06-13T10:05:15Z</time>
      </trkpt>
      <trkpt lat="45.894884001463652" lon="9.105180026963353">
        <ele>1146</ele>
        <time>2010-06-13T10:05:16Z</time>
      </trkpt>
      <trkpt lat="45.894857011735439" lon="9.105206010863185">
        <ele>1146</ele>
        <time>2010-06-13T10:05:18Z</time>
      </trkpt>
      <trkpt lat="45.894830022007227" lon="9.105230988934636">
        <ele>1146</ele>
        <time>2010-06-13T10:05:19Z</time>
      </trkpt>
      <trkpt lat="45.894793979823589" lon="9.105296032503247">
        <ele>1144</ele>
        <time>2010-06-13T10:05:20Z</time>
      </trkpt>
      <trkpt lat="45.894766990095377" lon="9.105321010574698">
        <ele>1144</ele>
        <time>2010-06-13T10:05:21Z</time>
      </trkpt>
      <trkpt lat="45.894748969003558" lon="9.10534699447453">
        <ele>1144</ele>
        <time>2010-06-13T10:05:22Z</time>
      </trkpt>
      <trkpt lat="45.894721979275346" lon="9.105372978374362">
        <ele>1144</ele>
        <time>2010-06-13T10:05:23Z</time>
      </trkpt>
      <trkpt lat="45.894703958183527" lon="9.105412038043141">
        <ele>1144</ele>
        <time>2010-06-13T10:05:25Z</time>
      </trkpt>
      <trkpt lat="45.89468602091074" lon="9.105437016114593">
        <ele>1143</ele>
        <time>2010-06-13T10:05:26Z</time>
      </trkpt>
      <trkpt lat="45.894667999818921" lon="9.105463000014424">
        <ele>1142</ele>
        <time>2010-06-13T10:05:27Z</time>
      </trkpt>
      <trkpt lat="45.894632041454315" lon="9.105527037754655">
        <ele>1142</ele>
        <time>2010-06-13T10:05:28Z</time>
      </trkpt>
      <trkpt lat="45.894614020362496" lon="9.105553021654487">
        <ele>1142</ele>
        <time>2010-06-13T10:05:29Z</time>
      </trkpt>
      <trkpt lat="45.894604967907071" lon="9.105579005554318">
        <ele>1142</ele>
        <time>2010-06-13T10:05:30Z</time>
      </trkpt>
      <trkpt lat="45.894587030634284" lon="9.105616975575686">
        <ele>1141</ele>
        <time>2010-06-13T10:05:31Z</time>
      </trkpt>
      <trkpt lat="45.894569009542465" lon="9.105656035244465">
        <ele>1141</ele>
        <time>2010-06-13T10:05:32Z</time>
      </trkpt>
      <trkpt lat="45.894550988450646" lon="9.105695011094213">
        <ele>1140</ele>
        <time>2010-06-13T10:05:34Z</time>
      </trkpt>
      <trkpt lat="45.89451503008604" lon="9.105772040784359">
        <ele>1139</ele>
        <time>2010-06-13T10:05:36Z</time>
      </trkpt>
      <trkpt lat="45.894488040357828" lon="9.105848986655474">
        <ele>1138</ele>
        <time>2010-06-13T10:05:38Z</time>
      </trkpt>
      <trkpt lat="45.894478987902403" lon="9.105940014123917">
        <ele>1137</ele>
        <time>2010-06-13T10:05:39Z</time>
      </trkpt>
      <trkpt lat="45.894478987902403" lon="9.106003968045116">
        <ele>1137</ele>
        <time>2010-06-13T10:05:40Z</time>
      </trkpt>
      <trkpt lat="45.894478987902403" lon="9.106056019663811">
        <ele>1137</ele>
        <time>2010-06-13T10:05:42Z</time>
      </trkpt>
      <trkpt lat="45.894496003165841" lon="9.106185017153621">
        <ele>1136</ele>
        <time>2010-06-13T10:05:43Z</time>
      </trkpt>
      <trkpt lat="45.894504971802235" lon="9.10624897107482">
        <ele>1135</ele>
        <time>2010-06-13T10:05:44Z</time>
      </trkpt>
      <trkpt lat="45.894504971802235" lon="9.106326000764966">
        <ele>1134</ele>
        <time>2010-06-13T10:05:45Z</time>
      </trkpt>
      <trkpt lat="45.89451402425766" lon="9.106390960514545">
        <ele>1134</ele>
        <time>2010-06-13T10:05:46Z</time>
      </trkpt>
      <trkpt lat="45.894504971802235" lon="9.106443012133241">
        <ele>1134</ele>
        <time>2010-06-13T10:05:48Z</time>
      </trkpt>
      <trkpt lat="45.894477982074022" lon="9.106520041823387">
        <ele>1135</ele>
        <time>2010-06-13T10:05:49Z</time>
      </trkpt>
      <trkpt lat="45.894459960982203" lon="9.106558011844754">
        <ele>1135</ele>
        <time>2010-06-13T10:05:50Z</time>
      </trkpt>
      <trkpt lat="45.894432971253991" lon="9.106596987694502">
        <ele>1134</ele>
        <time>2010-06-13T10:05:51Z</time>
      </trkpt>
      <trkpt lat="45.894405981525779" lon="9.10663596354425">
        <ele>1134</ele>
        <time>2010-06-13T10:05:52Z</time>
      </trkpt>
      <trkpt lat="45.894378991797566" lon="9.106687009334564">
        <ele>1134</ele>
        <time>2010-06-13T10:05:53Z</time>
      </trkpt>
      <trkpt lat="45.894343033432961" lon="9.106725985184312">
        <ele>1134</ele>
        <time>2010-06-13T10:05:55Z</time>
      </trkpt>
      <trkpt lat="45.894253011792898" lon="9.106840984895825">
        <ele>1133</ele>
        <time>2010-06-13T10:05:56Z</time>
      </trkpt>
      <trkpt lat="45.894199032336473" lon="9.106906028464437">
        <ele>1133</ele>
        <time>2010-06-13T10:05:57Z</time>
      </trkpt>
      <trkpt lat="45.894154021516442" lon="9.106969982385635">
        <ele>1133</ele>
        <time>2010-06-13T10:05:58Z</time>
      </trkpt>
      <trkpt lat="45.894109010696411" lon="9.107008958235383">
        <ele>1133</ele>
        <time>2010-06-13T10:05:59Z</time>
      </trkpt>
      <trkpt lat="45.89406399987638" lon="9.107048017904162">
        <ele>1133</ele>
        <time>2010-06-13T10:06:01Z</time>
      </trkpt>
      <trkpt lat="45.894036004319787" lon="9.10708598792553">
        <ele>1133</ele>
        <time>2010-06-13T10:06:02Z</time>
      </trkpt>
      <trkpt lat="45.893972972407937" lon="9.10715002566576">
        <ele>1132</ele>
        <time>2010-06-13T10:06:03Z</time>
      </trkpt>
      <trkpt lat="45.893938019871712" lon="9.107201993465424">
        <ele>1133</ele>
        <time>2010-06-13T10:06:04Z</time>
      </trkpt>
      <trkpt lat="45.893910024315119" lon="9.107266031205654">
        <ele>1133</ele>
        <time>2010-06-13T10:06:05Z</time>
      </trkpt>
      <trkpt lat="45.893873982131481" lon="9.107305007055402">
        <ele>1133</ele>
        <time>2010-06-13T10:06:06Z</time>
      </trkpt>
      <trkpt lat="45.893838023766875" lon="9.107342977076769">
        <ele>1133</ele>
        <time>2010-06-13T10:06:07Z</time>
      </trkpt>
      <trkpt lat="45.893793012946844" lon="9.107395028695464">
        <ele>1132</ele>
        <time>2010-06-13T10:06:08Z</time>
      </trkpt>
      <trkpt lat="45.893756970763206" lon="9.107434004545212">
        <ele>1132</ele>
        <time>2010-06-13T10:06:10Z</time>
      </trkpt>
      <trkpt lat="45.893711959943175" lon="9.107484966516495">
        <ele>1132</ele>
        <time>2010-06-13T10:06:11Z</time>
      </trkpt>
      <trkpt lat="45.893667032942176" lon="9.107536012306809">
        <ele>1131</ele>
        <time>2010-06-13T10:06:12Z</time>
      </trkpt>
      <trkpt lat="45.893622022122145" lon="9.107587980106473">
        <ele>1131</ele>
        <time>2010-06-13T10:06:13Z</time>
      </trkpt>
      <trkpt lat="45.893495958298445" lon="9.107690993696451">
        <ele>1131</ele>
        <time>2010-06-13T10:06:14Z</time>
      </trkpt>
      <trkpt lat="45.893433010205626" lon="9.107703985646367">
        <ele>1130</ele>
        <time>2010-06-13T10:06:15Z</time>
      </trkpt>
      <trkpt lat="45.893379030749202" lon="9.107715971767902">
        <ele>1130</ele>
        <time>2010-06-13T10:06:16Z</time>
      </trkpt>
      <trkpt lat="45.893324967473745" lon="9.107742039486766">
        <ele>1130</ele>
        <time>2010-06-13T10:06:18Z</time>
      </trkpt>
      <trkpt lat="45.893235029652715" lon="9.107767017558217">
        <ele>1131</ele>
        <time>2010-06-13T10:06:19Z</time>
      </trkpt>
      <trkpt lat="45.893190018832684" lon="9.107793001458049">
        <ele>1130</ele>
        <time>2010-06-13T10:06:20Z</time>
      </trkpt>
      <trkpt lat="45.89311801828444" lon="9.107780009508133">
        <ele>1130</ele>
        <time>2010-06-13T10:06:22Z</time>
      </trkpt>
      <trkpt lat="45.893081976100802" lon="9.107780009508133">
        <ele>1130</ele>
        <time>2010-06-13T10:06:23Z</time>
      </trkpt>
      <trkpt lat="45.89305498637259" lon="9.107767017558217">
        <ele>1131</ele>
        <time>2010-06-13T10:06:24Z</time>
      </trkpt>
      <trkpt lat="45.893009975552559" lon="9.107780009508133">
        <ele>1131</ele>
        <time>2010-06-13T10:06:25Z</time>
      </trkpt>
      <trkpt lat="45.892947027459741" lon="9.107767017558217">
        <ele>1131</ele>
        <time>2010-06-13T10:06:27Z</time>
      </trkpt>
      <trkpt lat="45.892910985276103" lon="9.107754025608301">
        <ele>1131</ele>
        <time>2010-06-13T10:06:28Z</time>
      </trkpt>
      <trkpt lat="45.892883995547891" lon="9.107741033658385">
        <ele>1132</ele>
        <time>2010-06-13T10:06:30Z</time>
      </trkpt>
      <trkpt lat="45.892811994999647" lon="9.107728041708469">
        <ele>1131</ele>
        <time>2010-06-13T10:06:32Z</time>
      </trkpt>
      <trkpt lat="45.89273102581501" lon="9.107714965939522">
        <ele>1131</ele>
        <time>2010-06-13T10:06:33Z</time>
      </trkpt>
      <trkpt lat="45.892704036086798" lon="9.107714965939522">
        <ele>1131</ele>
        <time>2010-06-13T10:06:34Z</time>
      </trkpt>
      <trkpt lat="45.892659025266767" lon="9.107714965939522">
        <ele>1132</ele>
        <time>2010-06-13T10:06:35Z</time>
      </trkpt>
      <trkpt lat="45.892622983083129" lon="9.107714965939522">
        <ele>1132</ele>
        <time>2010-06-13T10:06:36Z</time>
      </trkpt>
      <trkpt lat="45.892587024718523" lon="9.107714965939522">
        <ele>1132</ele>
        <time>2010-06-13T10:06:37Z</time>
      </trkpt>
      <trkpt lat="45.892523992806673" lon="9.107701973989606">
        <ele>1132</ele>
        <time>2010-06-13T10:06:39Z</time>
      </trkpt>
      <trkpt lat="45.892505971714854" lon="9.107701973989606">
        <ele>1131</ele>
        <time>2010-06-13T10:06:41Z</time>
      </trkpt>
      <trkpt lat="45.892443023622036" lon="9.10768898203969">
        <ele>1132</ele>
        <time>2010-06-13T10:06:42Z</time>
      </trkpt>
      <trkpt lat="45.892416033893824" lon="9.107675990089774">
        <ele>1132</ele>
        <time>2010-06-13T10:06:43Z</time>
      </trkpt>
      <trkpt lat="45.892371023073792" lon="9.107662998139858">
        <ele>1133</ele>
        <time>2010-06-13T10:06:44Z</time>
      </trkpt>
      <trkpt lat="45.89234403334558" lon="9.107662998139858">
        <ele>1132</ele>
        <time>2010-06-13T10:06:45Z</time>
      </trkpt>
      <trkpt lat="45.892299022525549" lon="9.107650006189942">
        <ele>1131</ele>
        <time>2010-06-13T10:06:46Z</time>
      </trkpt>
      <trkpt lat="45.892254011705518" lon="9.107637014240027">
        <ele>1131</ele>
        <time>2010-06-13T10:06:47Z</time>
      </trkpt>
      <trkpt lat="45.892137000337243" lon="9.107649000361562">
        <ele>1130</ele>
        <time>2010-06-13T10:06:49Z</time>
      </trkpt>
      <trkpt lat="45.892064999789" lon="9.107674984261394">
        <ele>1129</ele>
        <time>2010-06-13T10:06:50Z</time>
      </trkpt>
      <trkpt lat="45.891984030604362" lon="9.107713960111141">
        <ele>1129</ele>
        <time>2010-06-13T10:06:51Z</time>
      </trkpt>
      <trkpt lat="45.891912030056119" lon="9.107739022001624">
        <ele>1127</ele>
        <time>2010-06-13T10:06:52Z</time>
      </trkpt>
      <trkpt lat="45.891822008416057" lon="9.107777997851372">
        <ele>1125</ele>
        <time>2010-06-13T10:06:53Z</time>
      </trkpt>
      <trkpt lat="45.89174103923142" lon="9.107802975922823">
        <ele>1124</ele>
        <time>2010-06-13T10:06:54Z</time>
      </trkpt>
      <trkpt lat="45.891659986227751" lon="9.107842035591602">
        <ele>1122</ele>
        <time>2010-06-13T10:06:55Z</time>
      </trkpt>
      <trkpt lat="45.891587985679507" lon="9.10788101144135">
        <ele>1122</ele>
        <time>2010-06-13T10:06:56Z</time>
      </trkpt>
      <trkpt lat="45.89150701649487" lon="9.107931973412633">
        <ele>1121</ele>
        <time>2010-06-13T10:06:57Z</time>
      </trkpt>
      <trkpt lat="45.89144398458302" lon="9.107983019202948">
        <ele>1120</ele>
        <time>2010-06-13T10:06:58Z</time>
      </trkpt>
      <trkpt lat="45.891363015398383" lon="9.108009003102779">
        <ele>1119</ele>
        <time>2010-06-13T10:06:59Z</time>
      </trkpt>
      <trkpt lat="45.89129101485014" lon="9.108046973124147">
        <ele>1119</ele>
        <time>2010-06-13T10:07:00Z</time>
      </trkpt>
      <trkpt lat="45.891218008473516" lon="9.108059965074062">
        <ele>1119</ele>
        <time>2010-06-13T10:07:02Z</time>
      </trkpt>
      <trkpt lat="45.891065038740635" lon="9.108086032792926">
        <ele>1116</ele>
        <time>2010-06-13T10:07:03Z</time>
      </trkpt>
      <trkpt lat="45.890993038192391" lon="9.108072035014629">
        <ele>1114</ele>
        <time>2010-06-13T10:07:04Z</time>
      </trkpt>
      <trkpt lat="45.890930006280541" lon="9.108046973124147">
        <ele>1114</ele>
        <time>2010-06-13T10:07:05Z</time>
      </trkpt>
      <trkpt lat="45.890858005732298" lon="9.107982013374567">
        <ele>1113</ele>
        <time>2010-06-13T10:07:06Z</time>
      </trkpt>
      <trkpt lat="45.890787011012435" lon="9.107891991734505">
        <ele>1112</ele>
        <time>2010-06-13T10:07:07Z</time>
      </trkpt>
      <trkpt lat="45.890715010464191" lon="9.107800964266062">
        <ele>1110</ele>
        <time>2010-06-13T10:07:08Z</time>
      </trkpt>
      <trkpt lat="45.890643009915948" lon="9.107724018394947">
        <ele>1109</ele>
        <time>2010-06-13T10:07:09Z</time>
      </trkpt>
      <trkpt lat="45.890571009367704" lon="9.107658974826336">
        <ele>1108</ele>
        <time>2010-06-13T10:07:10Z</time>
      </trkpt>
      <trkpt lat="45.890507977455854" lon="9.107595020905137">
        <ele>1108</ele>
        <time>2010-06-13T10:07:11Z</time>
      </trkpt>
      <trkpt lat="45.89045399799943" lon="9.107542969286442">
        <ele>1108</ele>
        <time>2010-06-13T10:07:12Z</time>
      </trkpt>
      <trkpt lat="45.890400018543005" lon="9.107491001486778">
        <ele>1108</ele>
        <time>2010-06-13T10:07:13Z</time>
      </trkpt>
      <trkpt lat="45.890355007722974" lon="9.107453031465411">
        <ele>1106</ele>
        <time>2010-06-13T10:07:14Z</time>
      </trkpt>
      <trkpt lat="45.890318965539336" lon="9.107413971796632">
        <ele>1105</ele>
        <time>2010-06-13T10:07:15Z</time>
      </trkpt>
      <trkpt lat="45.89028300717473" lon="9.107374995946884">
        <ele>1105</ele>
        <time>2010-06-13T10:07:16Z</time>
      </trkpt>
      <trkpt lat="45.890256017446518" lon="9.107349012047052">
        <ele>1104</ele>
        <time>2010-06-13T10:07:17Z</time>
      </trkpt>
      <trkpt lat="45.890237996354699" lon="9.107324033975601">
        <ele>1103</ele>
        <time>2010-06-13T10:07:18Z</time>
      </trkpt>
      <trkpt lat="45.89021997526288" lon="9.107310958206654">
        <ele>1103</ele>
        <time>2010-06-13T10:07:19Z</time>
      </trkpt>
      <trkpt lat="45.89021997526288" lon="9.107310958206654">
        <ele>1102</ele>
        <time>2010-06-13T10:07:20Z</time>
      </trkpt>
      <trkpt lat="45.89013003744185" lon="9.107336020097137">
        <ele>1102</ele>
        <time>2010-06-13T10:10:01Z</time>
      </trkpt>
      <trkpt lat="45.890120984986424" lon="9.107336020097137">
        <ele>1102</ele>
        <time>2010-06-13T10:10:02Z</time>
      </trkpt>
      <trkpt lat="45.890102963894606" lon="9.107336020097137">
        <ele>1102</ele>
        <time>2010-06-13T10:10:03Z</time>
      </trkpt>
      <trkpt lat="45.890093995258212" lon="9.107323028147221">
        <ele>1103</ele>
        <time>2010-06-13T10:10:04Z</time>
      </trkpt>
      <trkpt lat="45.890085026621819" lon="9.107323028147221">
        <ele>1103</ele>
        <time>2010-06-13T10:10:05Z</time>
      </trkpt>
      <trkpt lat="45.890075974166393" lon="9.107310036197305">
        <ele>1103</ele>
        <time>2010-06-13T10:10:06Z</time>
      </trkpt>
      <trkpt lat="45.89006700553" lon="9.107310036197305">
        <ele>1102</ele>
        <time>2010-06-13T10:10:07Z</time>
      </trkpt>
      <trkpt lat="45.890058036893606" lon="9.107310036197305">
        <ele>1102</ele>
        <time>2010-06-13T10:10:08Z</time>
      </trkpt>
      <trkpt lat="45.890048984438181" lon="9.107296960428357">
        <ele>1102</ele>
        <time>2010-06-13T10:10:09Z</time>
      </trkpt>
      <trkpt lat="45.890030963346362" lon="9.107296960428357">
        <ele>1102</ele>
        <time>2010-06-13T10:10:10Z</time>
      </trkpt>
      <trkpt lat="45.890021994709969" lon="9.107283968478441">
        <ele>1102</ele>
        <time>2010-06-13T10:10:11Z</time>
      </trkpt>
      <trkpt lat="45.890013026073575" lon="9.107271982356906">
        <ele>1102</ele>
        <time>2010-06-13T10:10:12Z</time>
      </trkpt>
      <trkpt lat="45.889995004981756" lon="9.10725899040699">
        <ele>1102</ele>
        <time>2010-06-13T10:10:13Z</time>
      </trkpt>
      <trkpt lat="45.889986036345363" lon="9.107245998457074">
        <ele>1102</ele>
        <time>2010-06-13T10:10:14Z</time>
      </trkpt>
      <trkpt lat="45.889968015253544" lon="9.107233006507158">
        <ele>1102</ele>
        <time>2010-06-13T10:10:15Z</time>
      </trkpt>
      <trkpt lat="45.889958962798119" lon="9.107207022607327">
        <ele>1102</ele>
        <time>2010-06-13T10:10:16Z</time>
      </trkpt>
      <trkpt lat="45.889949994161725" lon="9.107194030657411">
        <ele>1103</ele>
        <time>2010-06-13T10:10:17Z</time>
      </trkpt>
      <trkpt lat="45.889931973069906" lon="9.107181038707495">
        <ele>1103</ele>
        <time>2010-06-13T10:10:18Z</time>
      </trkpt>
      <trkpt lat="45.889914035797119" lon="9.107181038707495">
        <ele>1103</ele>
        <time>2010-06-13T10:10:19Z</time>
      </trkpt>
      <trkpt lat="45.889904983341694" lon="9.107154970988631">
        <ele>1103</ele>
        <time>2010-06-13T10:10:20Z</time>
      </trkpt>
      <trkpt lat="45.889886962249875" lon="9.107142984867096">
        <ele>1103</ele>
        <time>2010-06-13T10:10:21Z</time>
      </trkpt>
      <trkpt lat="45.889877993613482" lon="9.107117000967264">
        <ele>1103</ele>
        <time>2010-06-13T10:10:23Z</time>
      </trkpt>
      <trkpt lat="45.889842035248876" lon="9.107078025117517">
        <ele>1103</ele>
        <time>2010-06-13T10:10:24Z</time>
      </trkpt>
      <trkpt lat="45.889824014157057" lon="9.107065033167601">
        <ele>1103</ele>
        <time>2010-06-13T10:10:25Z</time>
      </trkpt>
      <trkpt lat="45.889814961701632" lon="9.107038965448737">
        <ele>1103</ele>
        <time>2010-06-13T10:10:26Z</time>
      </trkpt>
      <trkpt lat="45.889797024428844" lon="9.107025973498821">
        <ele>1103</ele>
        <time>2010-06-13T10:10:27Z</time>
      </trkpt>
      <trkpt lat="45.889779003337026" lon="9.107012981548905">
        <ele>1103</ele>
        <time>2010-06-13T10:10:28Z</time>
      </trkpt>
      <trkpt lat="45.889760982245207" lon="9.10700099542737">
        <ele>1103</ele>
        <time>2010-06-13T10:10:29Z</time>
      </trkpt>
      <trkpt lat="45.889742961153388" lon="9.106986997649074">
        <ele>1103</ele>
        <time>2010-06-13T10:10:30Z</time>
      </trkpt>
      <trkpt lat="45.889733992516994" lon="9.106975011527538">
        <ele>1104</ele>
        <time>2010-06-13T10:10:31Z</time>
      </trkpt>
      <trkpt lat="45.889715971425176" lon="9.106975011527538">
        <ele>1104</ele>
        <time>2010-06-13T10:10:32Z</time>
      </trkpt>
      <trkpt lat="45.889707002788782" lon="9.106962019577622">
        <ele>1105</ele>
        <time>2010-06-13T10:10:33Z</time>
      </trkpt>
      <trkpt lat="45.889688981696963" lon="9.106949027627707">
        <ele>1104</ele>
        <time>2010-06-13T10:10:34Z</time>
      </trkpt>
      <trkpt lat="45.889661991968751" lon="9.106936035677791">
        <ele>1104</ele>
        <time>2010-06-13T10:10:36Z</time>
      </trkpt>
      <trkpt lat="45.889643970876932" lon="9.106922959908843">
        <ele>1104</ele>
        <time>2010-06-13T10:10:37Z</time>
      </trkpt>
      <trkpt lat="45.889626033604145" lon="9.106922959908843">
        <ele>1104</ele>
        <time>2010-06-13T10:10:38Z</time>
      </trkpt>
      <trkpt lat="45.8896179869771" lon="9.106909967958927">
        <ele>1104</ele>
        <time>2010-06-13T10:10:39Z</time>
      </trkpt>
      <trkpt lat="45.889598960056901" lon="9.106896976009011">
        <ele>1104</ele>
        <time>2010-06-13T10:10:41Z</time>
      </trkpt>
      <trkpt lat="45.889572976157069" lon="9.10687099210918">
        <ele>1105</ele>
        <time>2010-06-13T10:10:42Z</time>
      </trkpt>
      <trkpt lat="45.889563001692295" lon="9.106858000159264">
        <ele>1105</ele>
        <time>2010-06-13T10:10:43Z</time>
      </trkpt>
      <trkpt lat="45.889554033055902" lon="9.106845008209348">
        <ele>1105</ele>
        <time>2010-06-13T10:10:44Z</time>
      </trkpt>
      <trkpt lat="45.889545986428857" lon="9.106845008209348">
        <ele>1105</ele>
        <time>2010-06-13T10:10:45Z</time>
      </trkpt>
      <trkpt lat="45.889536011964083" lon="9.106832016259432">
        <ele>1105</ele>
        <time>2010-06-13T10:10:46Z</time>
      </trkpt>
      <trkpt lat="45.889517990872264" lon="9.106832016259432">
        <ele>1105</ele>
        <time>2010-06-13T10:10:47Z</time>
      </trkpt>
      <trkpt lat="45.889500975608826" lon="9.106832016259432">
        <ele>1105</ele>
        <time>2010-06-13T10:10:48Z</time>
      </trkpt>
      <trkpt lat="45.889491001144052" lon="9.106819024309516">
        <ele>1105</ele>
        <time>2010-06-13T10:10:49Z</time>
      </trkpt>
      <trkpt lat="45.889472980052233" lon="9.106819024309516">
        <ele>1106</ele>
        <time>2010-06-13T10:10:50Z</time>
      </trkpt>
      <trkpt lat="45.889464011415839" lon="9.106807038187981">
        <ele>1106</ele>
        <time>2010-06-13T10:10:51Z</time>
      </trkpt>
      <trkpt lat="45.88944599032402" lon="9.1068060323596">
        <ele>1106</ele>
        <time>2010-06-13T10:10:52Z</time>
      </trkpt>
      <trkpt lat="45.889438027516007" lon="9.106793962419033">
        <ele>1106</ele>
        <time>2010-06-13T10:10:53Z</time>
      </trkpt>
      <trkpt lat="45.889419000595808" lon="9.106793962419033">
        <ele>1106</ele>
        <time>2010-06-13T10:10:54Z</time>
      </trkpt>
      <trkpt lat="45.889400979503989" lon="9.106780970469117">
        <ele>1106</ele>
        <time>2010-06-13T10:10:55Z</time>
      </trkpt>
      <trkpt lat="45.889393016695976" lon="9.106767978519201">
        <ele>1107</ele>
        <time>2010-06-13T10:10:56Z</time>
      </trkpt>
      <trkpt lat="45.889373989775777" lon="9.106754986569285">
        <ele>1107</ele>
        <time>2010-06-13T10:10:57Z</time>
      </trkpt>
      <trkpt lat="45.889366026967764" lon="9.10674199461937">
        <ele>1107</ele>
        <time>2010-06-13T10:10:58Z</time>
      </trkpt>
      <trkpt lat="45.889348005875945" lon="9.106729002669454">
        <ele>1107</ele>
        <time>2010-06-13T10:10:59Z</time>
      </trkpt>
      <trkpt lat="45.889339037239552" lon="9.106716010719538">
        <ele>1107</ele>
        <time>2010-06-13T10:11:00Z</time>
      </trkpt>
      <trkpt lat="45.889328978955746" lon="9.106703018769622">
        <ele>1107</ele>
        <time>2010-06-13T10:11:01Z</time>
      </trkpt>
      <trkpt lat="45.889321016147733" lon="9.106690026819706">
        <ele>1107</ele>
        <time>2010-06-13T10:11:02Z</time>
      </trkpt>
      <trkpt lat="45.889301989227533" lon="9.10667703486979">
        <ele>1108</ele>
        <time>2010-06-13T10:11:03Z</time>
      </trkpt>
      <trkpt lat="45.88929402641952" lon="9.106651972979307">
        <ele>1107</ele>
        <time>2010-06-13T10:11:04Z</time>
      </trkpt>
      <trkpt lat="45.889276005327702" lon="9.106638981029391">
        <ele>1107</ele>
        <time>2010-06-13T10:11:05Z</time>
      </trkpt>
      <trkpt lat="45.889267036691308" lon="9.106625989079475">
        <ele>1108</ele>
        <time>2010-06-13T10:11:06Z</time>
      </trkpt>
      <trkpt lat="45.889256978407502" lon="9.106625989079475">
        <ele>1108</ele>
        <time>2010-06-13T10:11:08Z</time>
      </trkpt>
      <trkpt lat="45.88923099450767" lon="9.106600005179644">
        <ele>1107</ele>
        <time>2010-06-13T10:11:09Z</time>
      </trkpt>
      <trkpt lat="45.889222025871277" lon="9.106587013229728">
        <ele>1108</ele>
        <time>2010-06-13T10:11:10Z</time>
      </trkpt>
      <trkpt lat="45.889212973415852" lon="9.106574021279812">
        <ele>1109</ele>
        <time>2010-06-13T10:11:11Z</time>
      </trkpt>
      <trkpt lat="45.889195036143064" lon="9.106561029329896">
        <ele>1109</ele>
        <time>2010-06-13T10:11:12Z</time>
      </trkpt>
      <trkpt lat="45.889185983687639" lon="9.106534961611033">
        <ele>1109</ele>
        <time>2010-06-13T10:11:13Z</time>
      </trkpt>
      <trkpt lat="45.889177015051246" lon="9.106521969661117">
        <ele>1108</ele>
        <time>2010-06-13T10:11:14Z</time>
      </trkpt>
      <trkpt lat="45.88916796259582" lon="9.106508977711201">
        <ele>1108</ele>
        <time>2010-06-13T10:11:15Z</time>
      </trkpt>
      <trkpt lat="45.889158993959427" lon="9.106496991589665">
        <ele>1109</ele>
        <time>2010-06-13T10:11:16Z</time>
      </trkpt>
      <trkpt lat="45.889150025323033" lon="9.106471007689834">
        <ele>1109</ele>
        <time>2010-06-13T10:11:17Z</time>
      </trkpt>
      <trkpt lat="45.889140972867608" lon="9.106458015739918">
        <ele>1109</ele>
        <time>2010-06-13T10:11:19Z</time>
      </trkpt>
      <trkpt lat="45.889123035594821" lon="9.106432031840086">
        <ele>1108</ele>
        <time>2010-06-13T10:11:20Z</time>
      </trkpt>
      <trkpt lat="45.889113983139396" lon="9.10641903989017">
        <ele>1108</ele>
        <time>2010-06-13T10:11:21Z</time>
      </trkpt>
      <trkpt lat="45.889095962047577" lon="9.106405964121223">
        <ele>1108</ele>
        <time>2010-06-13T10:11:22Z</time>
      </trkpt>
      <trkpt lat="45.889086993411183" lon="9.106392972171307">
        <ele>1109</ele>
        <time>2010-06-13T10:11:23Z</time>
      </trkpt>
      <trkpt lat="45.88907802477479" lon="9.106380986049771">
        <ele>1108</ele>
        <time>2010-06-13T10:11:25Z</time>
      </trkpt>
      <trkpt lat="45.889060003682971" lon="9.10635500214994">
        <ele>1109</ele>
        <time>2010-06-13T10:11:26Z</time>
      </trkpt>
      <trkpt lat="45.889051035046577" lon="9.106342010200024">
        <ele>1109</ele>
        <time>2010-06-13T10:11:27Z</time>
      </trkpt>
      <trkpt lat="45.889033013954759" lon="9.106329018250108">
        <ele>1109</ele>
        <time>2010-06-13T10:11:28Z</time>
      </trkpt>
      <trkpt lat="45.88901499286294" lon="9.106316026300192">
        <ele>1109</ele>
        <time>2010-06-13T10:11:29Z</time>
      </trkpt>
      <trkpt lat="45.888996971771121" lon="9.106303034350276">
        <ele>1109</ele>
        <time>2010-06-13T10:11:30Z</time>
      </trkpt>
      <trkpt lat="45.888988003134727" lon="9.106289958581328">
        <ele>1110</ele>
        <time>2010-06-13T10:11:31Z</time>
      </trkpt>
      <trkpt lat="45.888979034498334" lon="9.106276966631413">
        <ele>1110</ele>
        <time>2010-06-13T10:11:32Z</time>
      </trkpt>
      <trkpt lat="45.888969982042909" lon="9.106263974681497">
        <ele>1111</ele>
        <time>2010-06-13T10:11:33Z</time>
      </trkpt>
      <trkpt lat="45.88895196095109" lon="9.106237990781665">
        <ele>1110</ele>
        <time>2010-06-13T10:11:34Z</time>
      </trkpt>
      <trkpt lat="45.888942992314696" lon="9.10622600466013">
        <ele>1110</ele>
        <time>2010-06-13T10:11:35Z</time>
      </trkpt>
      <trkpt lat="45.888924971222878" lon="9.106213012710214">
        <ele>1110</ele>
        <time>2010-06-13T10:11:36Z</time>
      </trkpt>
      <trkpt lat="45.888916002586484" lon="9.106200020760298">
        <ele>1111</ele>
        <time>2010-06-13T10:11:37Z</time>
      </trkpt>
      <trkpt lat="45.88890703395009" lon="9.106187028810382">
        <ele>1110</ele>
        <time>2010-06-13T10:11:38Z</time>
      </trkpt>
      <trkpt lat="45.888897981494665" lon="9.106174036860466">
        <ele>1111</ele>
        <time>2010-06-13T10:11:40Z</time>
      </trkpt>
      <trkpt lat="45.888870991766453" lon="9.106147969141603">
        <ele>1111</ele>
        <time>2010-06-13T10:11:41Z</time>
      </trkpt>
      <trkpt lat="45.888862023130059" lon="9.106134977191687">
        <ele>1112</ele>
        <time>2010-06-13T10:11:42Z</time>
      </trkpt>
      <trkpt lat="45.888835033401847" lon="9.106121985241771">
        <ele>1112</ele>
        <time>2010-06-13T10:11:45Z</time>
      </trkpt>
      <trkpt lat="45.888817012310028" lon="9.106096001341939">
        <ele>1111</ele>
        <time>2010-06-13T10:11:46Z</time>
      </trkpt>
      <trkpt lat="45.888798991218209" lon="9.106071023270488">
        <ele>1111</ele>
        <time>2010-06-13T10:11:48Z</time>
      </trkpt>
      <trkpt lat="45.888772001489997" lon="9.106045039370656">
        <ele>1111</ele>
        <time>2010-06-13T10:11:49Z</time>
      </trkpt>
      <trkpt lat="45.888763032853603" lon="9.106018971651793">
        <ele>1111</ele>
        <time>2010-06-13T10:11:50Z</time>
      </trkpt>
      <trkpt lat="45.888753980398178" lon="9.106005979701877">
        <ele>1111</ele>
        <time>2010-06-13T10:11:51Z</time>
      </trkpt>
      <trkpt lat="45.888745011761785" lon="9.105979995802045">
        <ele>1111</ele>
        <time>2010-06-13T10:11:52Z</time>
      </trkpt>
      <trkpt lat="45.888726990669966" lon="9.10596800968051">
        <ele>1111</ele>
        <time>2010-06-13T10:11:53Z</time>
      </trkpt>
      <trkpt lat="45.888726990669966" lon="9.105942025780678">
        <ele>1112</ele>
        <time>2010-06-13T10:11:54Z</time>
      </trkpt>
      <trkpt lat="45.888708969578147" lon="9.105942025780678">
        <ele>1113</ele>
        <time>2010-06-13T10:11:55Z</time>
      </trkpt>
      <trkpt lat="45.888708969578147" lon="9.105929033830762">
        <ele>1114</ele>
        <time>2010-06-13T10:11:56Z</time>
      </trkpt>
      <trkpt lat="45.888700000941753" lon="9.105902966111898">
        <ele>1114</ele>
        <time>2010-06-13T10:11:57Z</time>
      </trkpt>
      <trkpt lat="45.888681979849935" lon="9.105876982212067">
        <ele>1113</ele>
        <time>2010-06-13T10:11:58Z</time>
      </trkpt>
      <trkpt lat="45.888673011213541" lon="9.105863990262151">
        <ele>1113</ele>
        <time>2010-06-13T10:11:59Z</time>
      </trkpt>
      <trkpt lat="45.888663958758116" lon="9.105838006362319">
        <ele>1113</ele>
        <time>2010-06-13T10:12:00Z</time>
      </trkpt>
      <trkpt lat="45.888646021485329" lon="9.105826020240784">
        <ele>1114</ele>
        <time>2010-06-13T10:12:01Z</time>
      </trkpt>
      <trkpt lat="45.888646021485329" lon="9.105800036340952">
        <ele>1113</ele>
        <time>2010-06-13T10:12:02Z</time>
      </trkpt>
      <trkpt lat="45.88862800039351" lon="9.105786960572004">
        <ele>1113</ele>
        <time>2010-06-13T10:12:03Z</time>
      </trkpt>
      <trkpt lat="45.888619031757116" lon="9.105760976672173">
        <ele>1114</ele>
        <time>2010-06-13T10:12:04Z</time>
      </trkpt>
      <trkpt lat="45.888619031757116" lon="9.105747984722257">
        <ele>1114</ele>
        <time>2010-06-13T10:12:05Z</time>
      </trkpt>
      <trkpt lat="45.888610985130072" lon="9.105709008872509">
        <ele>1114</ele>
        <time>2010-06-13T10:12:07Z</time>
      </trkpt>
      <trkpt lat="45.888601010665298" lon="9.105696016922593">
        <ele>1114</ele>
        <time>2010-06-13T10:12:08Z</time>
      </trkpt>
      <trkpt lat="45.888591958209872" lon="9.105671038851142">
        <ele>1114</ele>
        <time>2010-06-13T10:12:09Z</time>
      </trkpt>
      <trkpt lat="45.888583995401859" lon="9.105657963082194">
        <ele>1114</ele>
        <time>2010-06-13T10:12:10Z</time>
      </trkpt>
      <trkpt lat="45.888574020937085" lon="9.105631979182363">
        <ele>1114</ele>
        <time>2010-06-13T10:12:11Z</time>
      </trkpt>
      <trkpt lat="45.88856597431004" lon="9.105605995282531">
        <ele>1114</ele>
        <time>2010-06-13T10:12:12Z</time>
      </trkpt>
      <trkpt lat="45.888547031208873" lon="9.105580011382699">
        <ele>1114</ele>
        <time>2010-06-13T10:12:13Z</time>
      </trkpt>
      <trkpt lat="45.888538984581828" lon="9.105567019432783">
        <ele>1115</ele>
        <time>2010-06-13T10:12:14Z</time>
      </trkpt>
      <trkpt lat="45.888529010117054" lon="9.105554027482867">
        <ele>1115</ele>
        <time>2010-06-13T10:12:15Z</time>
      </trkpt>
      <trkpt lat="45.888520963490009" lon="9.105528965592384">
        <ele>1114</ele>
        <time>2010-06-13T10:12:16Z</time>
      </trkpt>
      <trkpt lat="45.888511994853616" lon="9.105502981692553">
        <ele>1114</ele>
        <time>2010-06-13T10:12:17Z</time>
      </trkpt>
      <trkpt lat="45.888493973761797" lon="9.105489989742637">
        <ele>1114</ele>
        <time>2010-06-13T10:12:18Z</time>
      </trkpt>
      <trkpt lat="45.888485005125403" lon="9.105464005842805">
        <ele>1114</ele>
        <time>2010-06-13T10:12:19Z</time>
      </trkpt>
      <trkpt lat="45.88847603648901" lon="9.105439027771354">
        <ele>1114</ele>
        <time>2010-06-13T10:12:20Z</time>
      </trkpt>
      <trkpt lat="45.888466984033585" lon="9.10541296005249">
        <ele>1114</ele>
        <time>2010-06-13T10:12:21Z</time>
      </trkpt>
      <trkpt lat="45.888448962941766" lon="9.105386976152659">
        <ele>1113</ele>
        <time>2010-06-13T10:12:22Z</time>
      </trkpt>
      <trkpt lat="45.888439994305372" lon="9.105360992252827">
        <ele>1113</ele>
        <time>2010-06-13T10:12:24Z</time>
      </trkpt>
      <trkpt lat="45.888421973213553" lon="9.105322016403079">
        <ele>1112</ele>
        <time>2010-06-13T10:12:25Z</time>
      </trkpt>
      <trkpt lat="45.888404035940766" lon="9.105297038331628">
        <ele>1113</ele>
        <time>2010-06-13T10:12:26Z</time>
      </trkpt>
      <trkpt lat="45.888394983485341" lon="9.105257978662849">
        <ele>1113</ele>
        <time>2010-06-13T10:12:27Z</time>
      </trkpt>
      <trkpt lat="45.888386014848948" lon="9.105231994763017">
        <ele>1114</ele>
        <time>2010-06-13T10:12:29Z</time>
      </trkpt>
      <trkpt lat="45.888367993757129" lon="9.105193018913269">
        <ele>1113</ele>
        <time>2010-06-13T10:12:30Z</time>
      </trkpt>
      <trkpt lat="45.88834997266531" lon="9.105167035013437">
        <ele>1113</ele>
        <time>2010-06-13T10:12:31Z</time>
      </trkpt>
      <trkpt lat="45.888341004028916" lon="9.105141973122954">
        <ele>1113</ele>
        <time>2010-06-13T10:12:33Z</time>
      </trkpt>
      <trkpt lat="45.888322982937098" lon="9.105090005323291">
        <ele>1114</ele>
        <time>2010-06-13T10:12:34Z</time>
      </trkpt>
      <trkpt lat="45.888322982937098" lon="9.105064021423459">
        <ele>1115</ele>
        <time>2010-06-13T10:12:35Z</time>
      </trkpt>
      <trkpt lat="45.888314014300704" lon="9.10502596758306">
        <ele>1115</ele>
        <time>2010-06-13T10:12:37Z</time>
      </trkpt>
      <trkpt lat="45.888314014300704" lon="9.104973999783397">
        <ele>1113</ele>
        <time>2010-06-13T10:12:38Z</time>
      </trkpt>
      <trkpt lat="45.888304961845279" lon="9.10493602976203">
        <ele>1112</ele>
        <time>2010-06-13T10:12:39Z</time>
      </trkpt>
      <trkpt lat="45.888287024572492" lon="9.104883978143334">
        <ele>1112</ele>
        <time>2010-06-13T10:12:40Z</time>
      </trkpt>
      <trkpt lat="45.888269003480673" lon="9.104845002293587">
        <ele>1113</ele>
        <time>2010-06-13T10:12:41Z</time>
      </trkpt>
      <trkpt lat="45.88824201375246" lon="9.104780964553356">
        <ele>1113</ele>
        <time>2010-06-13T10:12:42Z</time>
      </trkpt>
      <trkpt lat="45.888215024024248" lon="9.104716004803777">
        <ele>1112</ele>
        <time>2010-06-13T10:12:43Z</time>
      </trkpt>
      <trkpt lat="45.888188034296036" lon="9.10463897511363">
        <ele>1112</ele>
        <time>2010-06-13T10:12:44Z</time>
      </trkpt>
      <trkpt lat="45.888143023476005" lon="9.104561023414135">
        <ele>1113</ele>
        <time>2010-06-13T10:12:45Z</time>
      </trkpt>
      <trkpt lat="45.888106981292367" lon="9.104496985673904">
        <ele>1113</ele>
        <time>2010-06-13T10:12:46Z</time>
      </trkpt>
      <trkpt lat="45.888061970472336" lon="9.104419033974409">
        <ele>1113</ele>
        <time>2010-06-13T10:12:47Z</time>
      </trkpt>
      <trkpt lat="45.88802701793611" lon="9.104329012334347">
        <ele>1113</ele>
        <time>2010-06-13T10:12:48Z</time>
      </trkpt>
      <trkpt lat="45.887973038479686" lon="9.1042519826442">
        <ele>1112</ele>
        <time>2010-06-13T10:12:49Z</time>
      </trkpt>
      <trkpt lat="45.887928027659655" lon="9.104174030944705">
        <ele>1111</ele>
        <time>2010-06-13T10:12:50Z</time>
      </trkpt>
      <trkpt lat="45.887883016839623" lon="9.104084009304643">
        <ele>1111</ele>
        <time>2010-06-13T10:12:51Z</time>
      </trkpt>
      <trkpt lat="45.887829037383199" lon="9.104006979614496">
        <ele>1108</ele>
        <time>2010-06-13T10:12:52Z</time>
      </trkpt>
      <trkpt lat="45.887784026563168" lon="9.103929027915001">
        <ele>1108</ele>
        <time>2010-06-13T10:12:53Z</time>
      </trkpt>
      <trkpt lat="45.88774798437953" lon="9.103851998224855">
        <ele>1108</ele>
        <time>2010-06-13T10:12:54Z</time>
      </trkpt>
      <trkpt lat="45.887712026014924" lon="9.103773962706327">
        <ele>1108</ele>
        <time>2010-06-13T10:12:55Z</time>
      </trkpt>
      <trkpt lat="45.887667015194893" lon="9.103723000735045">
        <ele>1107</ele>
        <time>2010-06-13T10:12:56Z</time>
      </trkpt>
      <trkpt lat="45.887622004374862" lon="9.103671032935381">
        <ele>1106</ele>
        <time>2010-06-13T10:12:58Z</time>
      </trkpt>
      <trkpt lat="45.887568024918437" lon="9.103581011295319">
        <ele>1106</ele>
        <time>2010-06-13T10:12:59Z</time>
      </trkpt>
      <trkpt lat="45.887541035190225" lon="9.103542035445571">
        <ele>1108</ele>
        <time>2010-06-13T10:13:00Z</time>
      </trkpt>
      <trkpt lat="45.887513961642981" lon="9.103502975776792">
        <ele>1108</ele>
        <time>2010-06-13T10:13:02Z</time>
      </trkpt>
      <trkpt lat="45.887486971914768" lon="9.103452013805509">
        <ele>1108</ele>
        <time>2010-06-13T10:13:03Z</time>
      </trkpt>
      <trkpt lat="45.887469034641981" lon="9.103426029905677">
        <ele>1107</ele>
        <time>2010-06-13T10:13:04Z</time>
      </trkpt>
      <trkpt lat="45.887460988014936" lon="9.103399962186813">
        <ele>1107</ele>
        <time>2010-06-13T10:13:05Z</time>
      </trkpt>
      <trkpt lat="45.887451013550162" lon="9.103386970236898">
        <ele>1107</ele>
        <time>2010-06-13T10:13:06Z</time>
      </trkpt>
      <trkpt lat="45.887433998286724" lon="9.103373978286982">
        <ele>1107</ele>
        <time>2010-06-13T10:13:08Z</time>
      </trkpt>
      <trkpt lat="45.887407008558512" lon="9.103323016315699">
        <ele>1108</ele>
        <time>2010-06-13T10:13:09Z</time>
      </trkpt>
      <trkpt lat="45.887407008558512" lon="9.103310024365783">
        <ele>1108</ele>
        <time>2010-06-13T10:13:10Z</time>
      </trkpt>
      <trkpt lat="45.887397034093738" lon="9.103297032415867">
        <ele>1108</ele>
        <time>2010-06-13T10:13:11Z</time>
      </trkpt>
      <trkpt lat="45.887397034093738" lon="9.103284040465951">
        <ele>1108</ele>
        <time>2010-06-13T10:13:12Z</time>
      </trkpt>
      <trkpt lat="45.887379013001919" lon="9.103270964697003">
        <ele>1108</ele>
        <time>2010-06-13T10:13:13Z</time>
      </trkpt>
      <trkpt lat="45.887370966374874" lon="9.103244980797172">
        <ele>1107</ele>
        <time>2010-06-13T10:13:14Z</time>
      </trkpt>
      <trkpt lat="45.887361997738481" lon="9.103231988847256">
        <ele>1108</ele>
        <time>2010-06-13T10:13:15Z</time>
      </trkpt>
      <trkpt lat="45.887352023273706" lon="9.10321899689734">
        <ele>1108</ele>
        <time>2010-06-13T10:13:16Z</time>
      </trkpt>
      <trkpt lat="45.887335008010268" lon="9.103207010775805">
        <ele>1108</ele>
        <time>2010-06-13T10:13:17Z</time>
      </trkpt>
      <trkpt lat="45.887316986918449" lon="9.103194018825889">
        <ele>1109</ele>
        <time>2010-06-13T10:13:19Z</time>
      </trkpt>
      <trkpt lat="45.887298965826631" lon="9.103154959157109">
        <ele>1109</ele>
        <time>2010-06-13T10:13:20Z</time>
      </trkpt>
      <trkpt lat="45.887281028553843" lon="9.103128975257278">
        <ele>1109</ele>
        <time>2010-06-13T10:13:21Z</time>
      </trkpt>
      <trkpt lat="45.887271976098418" lon="9.103102991357446">
        <ele>1109</ele>
        <time>2010-06-13T10:13:22Z</time>
      </trkpt>
      <trkpt lat="45.887281028553843" lon="9.103052029386163">
        <ele>1108</ele>
        <time>2010-06-13T10:13:24Z</time>
      </trkpt>
      <trkpt lat="45.887271976098418" lon="9.103012969717383">
        <ele>1108</ele>
        <time>2010-06-13T10:13:25Z</time>
      </trkpt>
      <trkpt lat="45.887271976098418" lon="9.102973993867636">
        <ele>1108</ele>
        <time>2010-06-13T10:13:26Z</time>
      </trkpt>
      <trkpt lat="45.887263007462025" lon="9.102936023846269">
        <ele>1108</ele>
        <time>2010-06-13T10:13:27Z</time>
      </trkpt>
      <trkpt lat="45.887263007462025" lon="9.102883972227573">
        <ele>1108</ele>
        <time>2010-06-13T10:13:28Z</time>
      </trkpt>
      <trkpt lat="45.887254038825631" lon="9.102846002206206">
        <ele>1108</ele>
        <time>2010-06-13T10:13:29Z</time>
      </trkpt>
      <trkpt lat="45.887236017733812" lon="9.102807026356459">
        <ele>1107</ele>
        <time>2010-06-13T10:13:30Z</time>
      </trkpt>
      <trkpt lat="45.887236017733812" lon="9.102780958637595">
        <ele>1107</ele>
        <time>2010-06-13T10:13:31Z</time>
      </trkpt>
      <trkpt lat="45.887226965278387" lon="9.102741982787848">
        <ele>1107</ele>
        <time>2010-06-13T10:13:32Z</time>
      </trkpt>
      <trkpt lat="45.887217996641994" lon="9.10270401276648">
        <ele>1107</ele>
        <time>2010-06-13T10:13:33Z</time>
      </trkpt>
      <trkpt lat="45.8872090280056" lon="9.102651961147785">
        <ele>1107</ele>
        <time>2010-06-13T10:13:34Z</time>
      </trkpt>
      <trkpt lat="45.887199975550175" lon="9.102613991126418">
        <ele>1106</ele>
        <time>2010-06-13T10:13:35Z</time>
      </trkpt>
      <trkpt lat="45.887191006913781" lon="9.102575015276671">
        <ele>1107</ele>
        <time>2010-06-13T10:13:36Z</time>
      </trkpt>
      <trkpt lat="45.887182038277388" lon="9.102536039426923">
        <ele>1107</ele>
        <time>2010-06-13T10:13:37Z</time>
      </trkpt>
      <trkpt lat="45.887182038277388" lon="9.102484993636608">
        <ele>1107</ele>
        <time>2010-06-13T10:13:38Z</time>
      </trkpt>
      <trkpt lat="45.887172985821962" lon="9.102433025836945">
        <ele>1107</ele>
        <time>2010-06-13T10:13:39Z</time>
      </trkpt>
      <trkpt lat="45.887172985821962" lon="9.102380974218249">
        <ele>1107</ele>
        <time>2010-06-13T10:13:41Z</time>
      </trkpt>
      <trkpt lat="45.887155970558524" lon="9.102265974506736">
        <ele>1107</ele>
        <time>2010-06-13T10:13:42Z</time>
      </trkpt>
      <trkpt lat="45.88714599609375" lon="9.102201014757156">
        <ele>1107</ele>
        <time>2010-06-13T10:13:43Z</time>
      </trkpt>
      <trkpt lat="45.887128980830312" lon="9.102136977016926">
        <ele>1107</ele>
        <time>2010-06-13T10:13:44Z</time>
      </trkpt>
      <trkpt lat="45.887092016637325" lon="9.102072017267346">
        <ele>1107</ele>
        <time>2010-06-13T10:13:45Z</time>
      </trkpt>
      <trkpt lat="45.887056980282068" lon="9.102020971477032">
        <ele>1106</ele>
        <time>2010-06-13T10:13:46Z</time>
      </trkpt>
      <trkpt lat="45.887021021917462" lon="9.1019949875772">
        <ele>1105</ele>
        <time>2010-06-13T10:13:47Z</time>
      </trkpt>
      <trkpt lat="45.886984979733825" lon="9.101956011727452">
        <ele>1104</ele>
        <time>2010-06-13T10:13:48Z</time>
      </trkpt>
      <trkpt lat="45.886949021369219" lon="9.101930027827621">
        <ele>1105</ele>
        <time>2010-06-13T10:13:49Z</time>
      </trkpt>
      <trkpt lat="45.886922031641006" lon="9.101917035877705">
        <ele>1104</ele>
        <time>2010-06-13T10:13:50Z</time>
      </trkpt>
      <trkpt lat="45.886894958093762" lon="9.101890968158841">
        <ele>1104</ele>
        <time>2010-06-13T10:13:51Z</time>
      </trkpt>
      <trkpt lat="45.886858999729156" lon="9.101877976208925">
        <ele>1103</ele>
        <time>2010-06-13T10:13:52Z</time>
      </trkpt>
      <trkpt lat="45.886813988909125" lon="9.101877976208925">
        <ele>1104</ele>
        <time>2010-06-13T10:13:54Z</time>
      </trkpt>
      <trkpt lat="45.886723967269063" lon="9.101903960108757">
        <ele>1102</ele>
        <time>2010-06-13T10:13:55Z</time>
      </trkpt>
      <trkpt lat="45.886679040268064" lon="9.101903960108757">
        <ele>1100</ele>
        <time>2010-06-13T10:13:56Z</time>
      </trkpt>
      <trkpt lat="45.886634029448032" lon="9.101890968158841">
        <ele>1100</ele>
        <time>2010-06-13T10:13:57Z</time>
      </trkpt>
      <trkpt lat="45.886589018628001" lon="9.101864984259009">
        <ele>1100</ele>
        <time>2010-06-13T10:13:58Z</time>
      </trkpt>
      <trkpt lat="45.88654400780797" lon="9.101877976208925">
        <ele>1100</ele>
        <time>2010-06-13T10:13:59Z</time>
      </trkpt>
      <trkpt lat="45.886490028351545" lon="9.101890968158841">
        <ele>1100</ele>
        <time>2010-06-13T10:14:00Z</time>
      </trkpt>
      <trkpt lat="45.886435965076089" lon="9.101903038099408">
        <ele>1100</ele>
        <time>2010-06-13T10:14:01Z</time>
      </trkpt>
      <trkpt lat="45.886400006711483" lon="9.101916030049324">
        <ele>1100</ele>
        <time>2010-06-13T10:14:02Z</time>
      </trkpt>
      <trkpt lat="45.886354995891452" lon="9.10192902199924">
        <ele>1100</ele>
        <time>2010-06-13T10:14:03Z</time>
      </trkpt>
      <trkpt lat="45.886309985071421" lon="9.101903038099408">
        <ele>1100</ele>
        <time>2010-06-13T10:14:04Z</time>
      </trkpt>
      <trkpt lat="45.886247036978602" lon="9.101876970380545">
        <ele>1100</ele>
        <time>2010-06-13T10:14:05Z</time>
      </trkpt>
      <trkpt lat="45.886184005066752" lon="9.101863978430629">
        <ele>1100</ele>
        <time>2010-06-13T10:14:06Z</time>
      </trkpt>
      <trkpt lat="45.886120973154902" lon="9.101837994530797">
        <ele>1100</ele>
        <time>2010-06-13T10:14:07Z</time>
      </trkpt>
      <trkpt lat="45.886048972606659" lon="9.101799018681049">
        <ele>1100</ele>
        <time>2010-06-13T10:14:08Z</time>
      </trkpt>
      <trkpt lat="45.885986024513841" lon="9.101760964840651">
        <ele>1100</ele>
        <time>2010-06-13T10:14:09Z</time>
      </trkpt>
      <trkpt lat="45.885914023965597" lon="9.101747972890735">
        <ele>1088</ele>
        <time>2010-06-13T10:14:10Z</time>
      </trkpt>
      <trkpt lat="45.885859960690141" lon="9.101734980940819">
        <ele>1089</ele>
        <time>2010-06-13T10:14:11Z</time>
      </trkpt>
      <trkpt lat="45.885805981233716" lon="9.101734980940819">
        <ele>1089</ele>
        <time>2010-06-13T10:14:12Z</time>
      </trkpt>
      <trkpt lat="45.885733980685472" lon="9.101721988990903">
        <ele>1088</ele>
        <time>2010-06-13T10:14:13Z</time>
      </trkpt>
      <trkpt lat="45.885680001229048" lon="9.101708997040987">
        <ele>1088</ele>
        <time>2010-06-13T10:14:14Z</time>
      </trkpt>
      <trkpt lat="45.885608000680804" lon="9.101696005091071">
        <ele>1087</ele>
        <time>2010-06-13T10:14:15Z</time>
      </trkpt>
      <trkpt lat="45.885472968220711" lon="9.101694999262691">
        <ele>1086</ele>
        <time>2010-06-13T10:14:17Z</time>
      </trkpt>
      <trkpt lat="45.885410020127892" lon="9.101669015362859">
        <ele>1086</ele>
        <time>2010-06-13T10:14:18Z</time>
      </trkpt>
      <trkpt lat="45.885346988216043" lon="9.10163096152246">
        <ele>1085</ele>
        <time>2010-06-13T10:14:19Z</time>
      </trkpt>
      <trkpt lat="45.885284040123224" lon="9.101578993722796">
        <ele>1086</ele>
        <time>2010-06-13T10:14:20Z</time>
      </trkpt>
      <trkpt lat="45.885229976847768" lon="9.101540017873049">
        <ele>1085</ele>
        <time>2010-06-13T10:14:21Z</time>
      </trkpt>
      <trkpt lat="45.885175997391343" lon="9.101488972082734">
        <ele>1085</ele>
        <time>2010-06-13T10:14:22Z</time>
      </trkpt>
      <trkpt lat="45.885122017934918" lon="9.101462988182902">
        <ele>1083</ele>
        <time>2010-06-13T10:14:23Z</time>
      </trkpt>
      <trkpt lat="45.885068038478494" lon="9.101424012333155">
        <ele>1083</ele>
        <time>2010-06-13T10:14:24Z</time>
      </trkpt>
      <trkpt lat="45.885013975203037" lon="9.101385036483407">
        <ele>1082</ele>
        <time>2010-06-13T10:14:25Z</time>
      </trkpt>
      <trkpt lat="45.884959995746613" lon="9.101333990693092">
        <ele>1082</ele>
        <time>2010-06-13T10:14:27Z</time>
      </trkpt>
      <trkpt lat="45.884879026561975" lon="9.101242963224649">
        <ele>1082</ele>
        <time>2010-06-13T10:14:28Z</time>
      </trkpt>
      <trkpt lat="45.884834015741944" lon="9.101203987374902">
        <ele>1081</ele>
        <time>2010-06-13T10:14:29Z</time>
      </trkpt>
      <trkpt lat="45.884807026013732" lon="9.101166017353535">
        <ele>1082</ele>
        <time>2010-06-13T10:14:30Z</time>
      </trkpt>
      <trkpt lat="45.88478003628552" lon="9.101140033453703">
        <ele>1081</ele>
        <time>2010-06-13T10:14:31Z</time>
      </trkpt>
      <trkpt lat="45.884762015193701" lon="9.101127041503787">
        <ele>1082</ele>
        <time>2010-06-13T10:14:32Z</time>
      </trkpt>
      <trkpt lat="45.884735025465488" lon="9.101100973784924">
        <ele>1082</ele>
        <time>2010-06-13T10:14:34Z</time>
      </trkpt>
      <trkpt lat="45.884690014645457" lon="9.101074989885092">
        <ele>1082</ele>
        <time>2010-06-13T10:14:35Z</time>
      </trkpt>
      <trkpt lat="45.884671993553638" lon="9.101061997935176">
        <ele>1082</ele>
        <time>2010-06-13T10:14:36Z</time>
      </trkpt>
      <trkpt lat="45.88465397246182" lon="9.10104900598526">
        <ele>1082</ele>
        <time>2010-06-13T10:14:37Z</time>
      </trkpt>
      <trkpt lat="45.884636035189033" lon="9.101037019863725">
        <ele>1082</ele>
        <time>2010-06-13T10:14:38Z</time>
      </trkpt>
      <trkpt lat="45.884618014097214" lon="9.101024027913809">
        <ele>1083</ele>
        <time>2010-06-13T10:14:39Z</time>
      </trkpt>
      <trkpt lat="45.884599993005395" lon="9.101011035963893">
        <ele>1084</ele>
        <time>2010-06-13T10:14:40Z</time>
      </trkpt>
      <trkpt lat="45.884582977741957" lon="9.100997960194945">
        <ele>1084</ele>
        <time>2010-06-13T10:14:41Z</time>
      </trkpt>
      <trkpt lat="45.884564034640789" lon="9.100971976295114">
        <ele>1084</ele>
        <time>2010-06-13T10:14:42Z</time>
      </trkpt>
      <trkpt lat="45.88454601354897" lon="9.100958984345198">
        <ele>1083</ele>
        <time>2010-06-13T10:14:43Z</time>
      </trkpt>
      <trkpt lat="45.884537966921926" lon="9.100945992395282">
        <ele>1083</ele>
        <time>2010-06-13T10:14:44Z</time>
      </trkpt>
      <trkpt lat="45.884510977193713" lon="9.10092000849545">
        <ele>1083</ele>
        <time>2010-06-13T10:14:45Z</time>
      </trkpt>
      <trkpt lat="45.884501002728939" lon="9.100907016545534">
        <ele>1083</ele>
        <time>2010-06-13T10:14:46Z</time>
      </trkpt>
      <trkpt lat="45.884483987465501" lon="9.100882038474083">
        <ele>1084</ele>
        <time>2010-06-13T10:14:47Z</time>
      </trkpt>
      <trkpt lat="45.884455991908908" lon="9.100868962705135">
        <ele>1085</ele>
        <time>2010-06-13T10:14:48Z</time>
      </trkpt>
      <trkpt lat="45.88443897664547" lon="9.100842978805304">
        <ele>1085</ele>
        <time>2010-06-13T10:14:49Z</time>
      </trkpt>
      <trkpt lat="45.884421039372683" lon="9.100829986855388">
        <ele>1085</ele>
        <time>2010-06-13T10:14:50Z</time>
      </trkpt>
      <trkpt lat="45.884411986917257" lon="9.100804002955556">
        <ele>1085</ele>
        <time>2010-06-13T10:14:52Z</time>
      </trkpt>
      <trkpt lat="45.884384997189045" lon="9.100766032934189">
        <ele>1085</ele>
        <time>2010-06-13T10:14:53Z</time>
      </trkpt>
      <trkpt lat="45.884376028552651" lon="9.100739965215325">
        <ele>1084</ele>
        <time>2010-06-13T10:14:54Z</time>
      </trkpt>
      <trkpt lat="45.884358007460833" lon="9.100713981315494">
        <ele>1085</ele>
        <time>2010-06-13T10:14:55Z</time>
      </trkpt>
      <trkpt lat="45.884349038824439" lon="9.100700989365578">
        <ele>1084</ele>
        <time>2010-06-13T10:14:56Z</time>
      </trkpt>
      <trkpt lat="45.884312996640801" lon="9.100649021565914">
        <ele>1085</ele>
        <time>2010-06-13T10:14:58Z</time>
      </trkpt>
      <trkpt lat="45.884294975548983" lon="9.100636029615998">
        <ele>1085</ele>
        <time>2010-06-13T10:14:59Z</time>
      </trkpt>
      <trkpt lat="45.884277038276196" lon="9.100623959675431">
        <ele>1085</ele>
        <time>2010-06-13T10:15:00Z</time>
      </trkpt>
      <trkpt lat="45.884259017184377" lon="9.100610967725515">
        <ele>1085</ele>
        <time>2010-06-13T10:15:01Z</time>
      </trkpt>
      <trkpt lat="45.884240996092558" lon="9.100584983825684">
        <ele>1085</ele>
        <time>2010-06-13T10:15:02Z</time>
      </trkpt>
      <trkpt lat="45.884214006364346" lon="9.100558999925852">
        <ele>1085</ele>
        <time>2010-06-13T10:15:03Z</time>
      </trkpt>
      <trkpt lat="45.884195985272527" lon="9.100520024076104">
        <ele>1084</ele>
        <time>2010-06-13T10:15:04Z</time>
      </trkpt>
      <trkpt lat="45.884177964180708" lon="9.100494040176272">
        <ele>1084</ele>
        <time>2010-06-13T10:15:05Z</time>
      </trkpt>
      <trkpt lat="45.884150974452496" lon="9.100480964407325">
        <ele>1084</ele>
        <time>2010-06-13T10:15:06Z</time>
      </trkpt>
      <trkpt lat="45.884123984724283" lon="9.100455986335874">
        <ele>1085</ele>
        <time>2010-06-13T10:15:07Z</time>
      </trkpt>
      <trkpt lat="45.884096994996071" lon="9.100442994385958">
        <ele>1085</ele>
        <time>2010-06-13T10:15:08Z</time>
      </trkpt>
      <trkpt lat="45.884070005267859" lon="9.100430002436042">
        <ele>1085</ele>
        <time>2010-06-13T10:15:09Z</time>
      </trkpt>
      <trkpt lat="45.884033963084221" lon="9.10040401853621">
        <ele>1084</ele>
        <time>2010-06-13T10:15:10Z</time>
      </trkpt>
      <trkpt lat="45.883998004719615" lon="9.100378034636378">
        <ele>1084</ele>
        <time>2010-06-13T10:15:11Z</time>
      </trkpt>
      <trkpt lat="45.883971014991403" lon="9.100351966917515">
        <ele>1083</ele>
        <time>2010-06-13T10:15:12Z</time>
      </trkpt>
      <trkpt lat="45.883934972807765" lon="9.100313996896148">
        <ele>1083</ele>
        <time>2010-06-13T10:15:13Z</time>
      </trkpt>
      <trkpt lat="45.883899014443159" lon="9.100288012996316">
        <ele>1083</ele>
        <time>2010-06-13T10:15:14Z</time>
      </trkpt>
      <trkpt lat="45.883862972259521" lon="9.100235961377621">
        <ele>1083</ele>
        <time>2010-06-13T10:15:15Z</time>
      </trkpt>
      <trkpt lat="45.883827013894916" lon="9.100197991356254">
        <ele>1083</ele>
        <time>2010-06-13T10:15:16Z</time>
      </trkpt>
      <trkpt lat="45.883782003074884" lon="9.100159015506506">
        <ele>1083</ele>
        <time>2010-06-13T10:15:17Z</time>
      </trkpt>
      <trkpt lat="45.883745960891247" lon="9.100133031606674">
        <ele>1082</ele>
        <time>2010-06-13T10:15:18Z</time>
      </trkpt>
      <trkpt lat="45.883710002526641" lon="9.100093971937895">
        <ele>1081</ele>
        <time>2010-06-13T10:15:19Z</time>
      </trkpt>
      <trkpt lat="45.88366499170661" lon="9.100054996088147">
        <ele>1081</ele>
        <time>2010-06-13T10:15:20Z</time>
      </trkpt>
      <trkpt lat="45.883611012250185" lon="9.10001702606678">
        <ele>1081</ele>
        <time>2010-06-13T10:15:21Z</time>
      </trkpt>
      <trkpt lat="45.883566001430154" lon="9.099977966398001">
        <ele>1082</ele>
        <time>2010-06-13T10:15:22Z</time>
      </trkpt>
      <trkpt lat="45.883529959246516" lon="9.099913006648421">
        <ele>1082</ele>
        <time>2010-06-13T10:15:23Z</time>
      </trkpt>
      <trkpt lat="45.883485032245517" lon="9.099861960858107">
        <ele>1082</ele>
        <time>2010-06-13T10:15:24Z</time>
      </trkpt>
      <trkpt lat="45.883440021425486" lon="9.099797001108527">
        <ele>1081</ele>
        <time>2010-06-13T10:15:25Z</time>
      </trkpt>
      <trkpt lat="45.883385958150029" lon="9.099746039137244">
        <ele>1081</ele>
        <time>2010-06-13T10:15:26Z</time>
      </trkpt>
      <trkpt lat="45.88334103114903" lon="9.099706979468465">
        <ele>1080</ele>
        <time>2010-06-13T10:15:27Z</time>
      </trkpt>
      <trkpt lat="45.883296020328999" lon="9.099680995568633">
        <ele>1080</ele>
        <time>2010-06-13T10:15:28Z</time>
      </trkpt>
      <trkpt lat="45.883251009508967" lon="9.099642019718885">
        <ele>1081</ele>
        <time>2010-06-13T10:15:29Z</time>
      </trkpt>
      <trkpt lat="45.883207004517317" lon="9.099577981978655">
        <ele>1082</ele>
        <time>2010-06-13T10:15:30Z</time>
      </trkpt>
      <trkpt lat="45.883170962333679" lon="9.099539006128907">
        <ele>1082</ele>
        <time>2010-06-13T10:15:31Z</time>
      </trkpt>
      <trkpt lat="45.883135003969073" lon="9.09950003027916">
        <ele>1081</ele>
        <time>2010-06-13T10:15:32Z</time>
      </trkpt>
      <trkpt lat="45.883108014240861" lon="9.099461976438761">
        <ele>1081</ele>
        <time>2010-06-13T10:15:33Z</time>
      </trkpt>
      <trkpt lat="45.883081024512649" lon="9.099423000589013">
        <ele>1081</ele>
        <time>2010-06-13T10:15:34Z</time>
      </trkpt>
      <trkpt lat="45.883044982329011" lon="9.099345970898867">
        <ele>1081</ele>
        <time>2010-06-13T10:15:36Z</time>
      </trkpt>
      <trkpt lat="45.883026961237192" lon="9.099306995049119">
        <ele>1081</ele>
        <time>2010-06-13T10:15:37Z</time>
      </trkpt>
      <trkpt lat="45.883009023964405" lon="9.099281011149287">
        <ele>1081</ele>
        <time>2010-06-13T10:15:38Z</time>
      </trkpt>
      <trkpt lat="45.882982034236193" lon="9.09924203529954">
        <ele>1081</ele>
        <time>2010-06-13T10:15:39Z</time>
      </trkpt>
      <trkpt lat="45.882964013144374" lon="9.099215967580676">
        <ele>1081</ele>
        <time>2010-06-13T10:15:40Z</time>
      </trkpt>
      <trkpt lat="45.882945992052555" lon="9.099177997559309">
        <ele>1081</ele>
        <time>2010-06-13T10:15:41Z</time>
      </trkpt>
      <trkpt lat="45.882927970960736" lon="9.099139021709561">
        <ele>1081</ele>
        <time>2010-06-13T10:15:42Z</time>
      </trkpt>
      <trkpt lat="45.882910033687949" lon="9.09911303780973">
        <ele>1081</ele>
        <time>2010-06-13T10:15:43Z</time>
      </trkpt>
      <trkpt lat="45.882882960140705" lon="9.09907397814095">
        <ele>1081</ele>
        <time>2010-06-13T10:15:44Z</time>
      </trkpt>
      <trkpt lat="45.882865022867918" lon="9.099049000069499">
        <ele>1081</ele>
        <time>2010-06-13T10:15:45Z</time>
      </trkpt>
      <trkpt lat="45.882847001776099" lon="9.099023016169667">
        <ele>1081</ele>
        <time>2010-06-13T10:15:46Z</time>
      </trkpt>
      <trkpt lat="45.882820012047887" lon="9.09898404031992">
        <ele>1081</ele>
        <time>2010-06-13T10:15:47Z</time>
      </trkpt>
      <trkpt lat="45.882793022319674" lon="9.098957972601056">
        <ele>1081</ele>
        <time>2010-06-13T10:15:48Z</time>
      </trkpt>
      <trkpt lat="45.882766032591462" lon="9.098932994529605">
        <ele>1081</ele>
        <time>2010-06-13T10:15:49Z</time>
      </trkpt>
      <trkpt lat="45.882738959044218" lon="9.098894018679857">
        <ele>1081</ele>
        <time>2010-06-13T10:15:50Z</time>
      </trkpt>
      <trkpt lat="45.882703000679612" lon="9.098868034780026">
        <ele>1081</ele>
        <time>2010-06-13T10:15:51Z</time>
      </trkpt>
      <trkpt lat="45.882666958495975" lon="9.098841967061162">
        <ele>1081</ele>
        <time>2010-06-13T10:15:52Z</time>
      </trkpt>
      <trkpt lat="45.882631000131369" lon="9.09881598316133">
        <ele>1082</ele>
        <time>2010-06-13T10:15:53Z</time>
      </trkpt>
      <trkpt lat="45.882595041766763" lon="9.098802991211414">
        <ele>1082</ele>
        <time>2010-06-13T10:15:54Z</time>
      </trkpt>
      <trkpt lat="45.882567968219519" lon="9.098791005089879">
        <ele>1082</ele>
        <time>2010-06-13T10:15:55Z</time>
      </trkpt>
      <trkpt lat="45.882540978491306" lon="9.098777007311583">
        <ele>1081</ele>
        <time>2010-06-13T10:15:56Z</time>
      </trkpt>
      <trkpt lat="45.882513988763094" lon="9.098752029240131">
        <ele>1081</ele>
        <time>2010-06-13T10:15:57Z</time>
      </trkpt>
      <trkpt lat="45.882486999034882" lon="9.098739037290216">
        <ele>1082</ele>
        <time>2010-06-13T10:15:58Z</time>
      </trkpt>
      <trkpt lat="45.882468977943063" lon="9.098725961521268">
        <ele>1082</ele>
        <time>2010-06-13T10:15:59Z</time>
      </trkpt>
      <trkpt lat="45.882451040670276" lon="9.098699977621436">
        <ele>1082</ele>
        <time>2010-06-13T10:16:00Z</time>
      </trkpt>
      <trkpt lat="45.882423967123032" lon="9.09868698567152">
        <ele>1082</ele>
        <time>2010-06-13T10:16:01Z</time>
      </trkpt>
      <trkpt lat="45.882406029850245" lon="9.098673993721604">
        <ele>1082</ele>
        <time>2010-06-13T10:16:02Z</time>
      </trkpt>
      <trkpt lat="45.882379040122032" lon="9.098648009821773">
        <ele>1083</ele>
        <time>2010-06-13T10:16:03Z</time>
      </trkpt>
      <trkpt lat="45.882334029302001" lon="9.098622025921941">
        <ele>1083</ele>
        <time>2010-06-13T10:16:04Z</time>
      </trkpt>
      <trkpt lat="45.88228901848197" lon="9.098596964031458">
        <ele>1082</ele>
        <time>2010-06-13T10:16:05Z</time>
      </trkpt>
      <trkpt lat="45.882235039025545" lon="9.098570980131626">
        <ele>1081</ele>
        <time>2010-06-13T10:16:06Z</time>
      </trkpt>
      <trkpt lat="45.882190028205514" lon="9.09855798818171">
        <ele>1081</ele>
        <time>2010-06-13T10:16:07Z</time>
      </trkpt>
      <trkpt lat="45.882135964930058" lon="9.098532004281879">
        <ele>1081</ele>
        <time>2010-06-13T10:16:08Z</time>
      </trkpt>
      <trkpt lat="45.882081985473633" lon="9.098480036482215">
        <ele>1081</ele>
        <time>2010-06-13T10:16:09Z</time>
      </trkpt>
      <trkpt lat="45.882036974653602" lon="9.098441982641816">
        <ele>1081</ele>
        <time>2010-06-13T10:16:11Z</time>
      </trkpt>
      <trkpt lat="45.881929015740752" lon="9.098364030942321">
        <ele>1079</ele>
        <time>2010-06-13T10:16:12Z</time>
      </trkpt>
      <trkpt lat="45.881866989657283" lon="9.098324971273542">
        <ele>1079</ele>
        <time>2010-06-13T10:16:13Z</time>
      </trkpt>
      <trkpt lat="45.881804041564465" lon="9.09829898737371">
        <ele>1079</ele>
        <time>2010-06-13T10:16:14Z</time>
      </trkpt>
      <trkpt lat="45.881749978289008" lon="9.098274009302259">
        <ele>1078</ele>
        <time>2010-06-13T10:16:15Z</time>
      </trkpt>
      <trkpt lat="45.881704967468977" lon="9.098261017352343">
        <ele>1078</ele>
        <time>2010-06-13T10:16:16Z</time>
      </trkpt>
      <trkpt lat="45.881660040467978" lon="9.098235033452511">
        <ele>1078</ele>
        <time>2010-06-13T10:16:17Z</time>
      </trkpt>
      <trkpt lat="45.881578987464309" lon="9.098182981833816">
        <ele>1079</ele>
        <time>2010-06-13T10:16:19Z</time>
      </trkpt>
      <trkpt lat="45.881543029099703" lon="9.098156997933984">
        <ele>1079</ele>
        <time>2010-06-13T10:16:20Z</time>
      </trkpt>
      <trkpt lat="45.88151603937149" lon="9.098131014034152">
        <ele>1079</ele>
        <time>2010-06-13T10:16:21Z</time>
      </trkpt>
      <trkpt lat="45.881479997187853" lon="9.098118022084236">
        <ele>1079</ele>
        <time>2010-06-13T10:16:22Z</time>
      </trkpt>
      <trkpt lat="45.881453007459641" lon="9.098106035962701">
        <ele>1079</ele>
        <time>2010-06-13T10:16:23Z</time>
      </trkpt>
      <trkpt lat="45.881434986367822" lon="9.098079968243837">
        <ele>1079</ele>
        <time>2010-06-13T10:16:24Z</time>
      </trkpt>
      <trkpt lat="45.881416965276003" lon="9.098066976293922">
        <ele>1079</ele>
        <time>2010-06-13T10:16:25Z</time>
      </trkpt>
      <trkpt lat="45.881399028003216" lon="9.098053984344006">
        <ele>1079</ele>
        <time>2010-06-13T10:16:26Z</time>
      </trkpt>
      <trkpt lat="45.881362985819578" lon="9.098028000444174">
        <ele>1080</ele>
        <time>2010-06-13T10:16:28Z</time>
      </trkpt>
      <trkpt lat="45.881344964727759" lon="9.098015008494258">
        <ele>1080</ele>
        <time>2010-06-13T10:16:29Z</time>
      </trkpt>
      <trkpt lat="45.881327027454972" lon="9.098002016544342">
        <ele>1080</ele>
        <time>2010-06-13T10:16:30Z</time>
      </trkpt>
      <trkpt lat="45.88130003772676" lon="9.097989024594426">
        <ele>1080</ele>
        <time>2010-06-13T10:16:31Z</time>
      </trkpt>
      <trkpt lat="45.881290985271335" lon="9.09797603264451">
        <ele>1080</ele>
        <time>2010-06-13T10:16:32Z</time>
      </trkpt>
      <trkpt lat="45.881245974451303" lon="9.097950970754027">
        <ele>1080</ele>
        <time>2010-06-13T10:16:34Z</time>
      </trkpt>
      <trkpt lat="45.88123700581491" lon="9.097936972975731">
        <ele>1080</ele>
        <time>2010-06-13T10:16:35Z</time>
      </trkpt>
      <trkpt lat="45.881218984723091" lon="9.097924986854196">
        <ele>1080</ele>
        <time>2010-06-13T10:16:36Z</time>
      </trkpt>
      <trkpt lat="45.881200963631272" lon="9.09791199490428">
        <ele>1081</ele>
        <time>2010-06-13T10:16:37Z</time>
      </trkpt>
      <trkpt lat="45.881191994994879" lon="9.097899002954364">
        <ele>1081</ele>
        <time>2010-06-13T10:16:38Z</time>
      </trkpt>
      <trkpt lat="45.88117397390306" lon="9.097886011004448">
        <ele>1082</ele>
        <time>2010-06-13T10:16:39Z</time>
      </trkpt>
      <trkpt lat="45.881165005266666" lon="9.097886011004448">
        <ele>1082</ele>
        <time>2010-06-13T10:16:40Z</time>
      </trkpt>
      <trkpt lat="45.881156036630273" lon="9.097873019054532">
        <ele>1082</ele>
        <time>2010-06-13T10:16:41Z</time>
      </trkpt>
      <trkpt lat="45.881138015538454" lon="9.097873019054532">
        <ele>1082</ele>
        <time>2010-06-13T10:16:42Z</time>
      </trkpt>
      <trkpt lat="45.881128963083029" lon="9.097860027104616">
        <ele>1082</ele>
        <time>2010-06-13T10:16:43Z</time>
      </trkpt>
      <trkpt lat="45.881119994446635" lon="9.0978470351547">
        <ele>1083</ele>
        <time>2010-06-13T10:16:44Z</time>
      </trkpt>
      <trkpt lat="45.881101973354816" lon="9.0978470351547">
        <ele>1082</ele>
        <time>2010-06-13T10:16:45Z</time>
      </trkpt>
      <trkpt lat="45.881093004718423" lon="9.097833959385753">
        <ele>1082</ele>
        <time>2010-06-13T10:16:46Z</time>
      </trkpt>
      <trkpt lat="45.881084036082029" lon="9.097833959385753">
        <ele>1083</ele>
        <time>2010-06-13T10:16:47Z</time>
      </trkpt>
      <trkpt lat="45.881066014990211" lon="9.097820967435837">
        <ele>1083</ele>
        <time>2010-06-13T10:16:48Z</time>
      </trkpt>
      <trkpt lat="45.881056962534785" lon="9.097807975485921">
        <ele>1084</ele>
        <time>2010-06-13T10:16:49Z</time>
      </trkpt>
      <trkpt lat="45.881047993898392" lon="9.097795989364386">
        <ele>1084</ele>
        <time>2010-06-13T10:16:50Z</time>
      </trkpt>
      <trkpt lat="45.881039025261998" lon="9.097795989364386">
        <ele>1084</ele>
        <time>2010-06-13T10:16:51Z</time>
      </trkpt>
      <trkpt lat="45.881021004170179" lon="9.097781991586089">
        <ele>1083</ele>
        <time>2010-06-13T10:16:52Z</time>
      </trkpt>
      <trkpt lat="45.881012035533786" lon="9.097781991586089">
        <ele>1084</ele>
        <time>2010-06-13T10:16:53Z</time>
      </trkpt>
      <trkpt lat="45.880994014441967" lon="9.097770005464554">
        <ele>1084</ele>
        <time>2010-06-13T10:16:54Z</time>
      </trkpt>
      <trkpt lat="45.880984961986542" lon="9.097770005464554">
        <ele>1085</ele>
        <time>2010-06-13T10:16:55Z</time>
      </trkpt>
      <trkpt lat="45.880967024713755" lon="9.097768999636173">
        <ele>1085</ele>
        <time>2010-06-13T10:16:56Z</time>
      </trkpt>
      <trkpt lat="45.880957972258329" lon="9.097757013514638">
        <ele>1085</ele>
        <time>2010-06-13T10:16:57Z</time>
      </trkpt>
      <trkpt lat="45.880949003621936" lon="9.097757013514638">
        <ele>1085</ele>
        <time>2010-06-13T10:16:58Z</time>
      </trkpt>
      <trkpt lat="45.880940034985542" lon="9.097757013514638">
        <ele>1085</ele>
        <time>2010-06-13T10:16:59Z</time>
      </trkpt>
      <trkpt lat="45.880922013893723" lon="9.097744021564722">
        <ele>1085</ele>
        <time>2010-06-13T10:17:00Z</time>
      </trkpt>
      <trkpt lat="45.880912961438298" lon="9.097731029614806">
        <ele>1085</ele>
        <time>2010-06-13T10:17:01Z</time>
      </trkpt>
      <trkpt lat="45.880903992801905" lon="9.09771803766489">
        <ele>1085</ele>
        <time>2010-06-13T10:17:02Z</time>
      </trkpt>
      <trkpt lat="45.880885971710086" lon="9.097704961895943">
        <ele>1086</ele>
        <time>2010-06-13T10:17:03Z</time>
      </trkpt>
      <trkpt lat="45.880868034437299" lon="9.097691969946027">
        <ele>1085</ele>
        <time>2010-06-13T10:17:04Z</time>
      </trkpt>
      <trkpt lat="45.88085001334548" lon="9.097665986046195">
        <ele>1085</ele>
        <time>2010-06-13T10:17:05Z</time>
      </trkpt>
      <trkpt lat="45.880840960890055" lon="9.097652994096279">
        <ele>1085</ele>
        <time>2010-06-13T10:17:06Z</time>
      </trkpt>
      <trkpt lat="45.880823023617268" lon="9.097641007974744">
        <ele>1085</ele>
        <time>2010-06-13T10:17:07Z</time>
      </trkpt>
      <trkpt lat="45.880813971161842" lon="9.097615024074912">
        <ele>1085</ele>
        <time>2010-06-13T10:17:08Z</time>
      </trkpt>
      <trkpt lat="45.880796033889055" lon="9.09758904017508">
        <ele>1085</ele>
        <time>2010-06-13T10:17:09Z</time>
      </trkpt>
      <trkpt lat="45.88078698143363" lon="9.097562972456217">
        <ele>1085</ele>
        <time>2010-06-13T10:17:10Z</time>
      </trkpt>
      <trkpt lat="45.880768960341811" lon="9.097536988556385">
        <ele>1085</ele>
        <time>2010-06-13T10:17:11Z</time>
      </trkpt>
      <trkpt lat="45.880759991705418" lon="9.097511004656553">
        <ele>1085</ele>
        <time>2010-06-13T10:17:12Z</time>
      </trkpt>
      <trkpt lat="45.880751023069024" lon="9.097499018535018">
        <ele>1085</ele>
        <time>2010-06-13T10:17:13Z</time>
      </trkpt>
      <trkpt lat="45.880733001977205" lon="9.097486026585102">
        <ele>1085</ele>
        <time>2010-06-13T10:17:14Z</time>
      </trkpt>
      <trkpt lat="45.880724033340812" lon="9.097473034635186">
        <ele>1085</ele>
        <time>2010-06-13T10:17:15Z</time>
      </trkpt>
      <trkpt lat="45.880724033340812" lon="9.097446966916323">
        <ele>1084</ele>
        <time>2010-06-13T10:17:16Z</time>
      </trkpt>
      <trkpt lat="45.880706012248993" lon="9.097446966916323">
        <ele>1084</ele>
        <time>2010-06-13T10:17:18Z</time>
      </trkpt>
      <trkpt lat="45.880687991157174" lon="9.097407991066575">
        <ele>1085</ele>
        <time>2010-06-13T10:17:19Z</time>
      </trkpt>
      <trkpt lat="45.880669970065355" lon="9.097394999116659">
        <ele>1085</ele>
        <time>2010-06-13T10:17:20Z</time>
      </trkpt>
      <trkpt lat="45.880652032792568" lon="9.097369015216827">
        <ele>1085</ele>
        <time>2010-06-13T10:17:22Z</time>
      </trkpt>
      <trkpt lat="45.880624959245324" lon="9.097330961376429">
        <ele>1085</ele>
        <time>2010-06-13T10:17:23Z</time>
      </trkpt>
      <trkpt lat="45.880607021972537" lon="9.097317969426513">
        <ele>1084</ele>
        <time>2010-06-13T10:17:24Z</time>
      </trkpt>
      <trkpt lat="45.880589000880718" lon="9.097291985526681">
        <ele>1085</ele>
        <time>2010-06-13T10:17:25Z</time>
      </trkpt>
      <trkpt lat="45.880570979788899" lon="9.097266001626849">
        <ele>1085</ele>
        <time>2010-06-13T10:17:26Z</time>
      </trkpt>
      <trkpt lat="45.880552958697081" lon="9.097253009676933">
        <ele>1085</ele>
        <time>2010-06-13T10:17:27Z</time>
      </trkpt>
      <trkpt lat="45.880543990060687" lon="9.097227025777102">
        <ele>1085</ele>
        <time>2010-06-13T10:17:28Z</time>
      </trkpt>
      <trkpt lat="45.880525968968868" lon="9.097201963886619">
        <ele>1086</ele>
        <time>2010-06-13T10:17:29Z</time>
      </trkpt>
      <trkpt lat="45.880508031696081" lon="9.097175979986787">
        <ele>1085</ele>
        <time>2010-06-13T10:17:30Z</time>
      </trkpt>
      <trkpt lat="45.880491016432643" lon="9.097149996086955">
        <ele>1085</ele>
        <time>2010-06-13T10:17:31Z</time>
      </trkpt>
      <trkpt lat="45.880471989512444" lon="9.097111020237207">
        <ele>1085</ele>
        <time>2010-06-13T10:17:32Z</time>
      </trkpt>
      <trkpt lat="45.880464026704431" lon="9.097085958346725">
        <ele>1085</ele>
        <time>2010-06-13T10:17:33Z</time>
      </trkpt>
      <trkpt lat="45.880446005612612" lon="9.097059974446893">
        <ele>1085</ele>
        <time>2010-06-13T10:17:34Z</time>
      </trkpt>
      <trkpt lat="45.880426978692412" lon="9.097033990547061">
        <ele>1085</ele>
        <time>2010-06-13T10:17:35Z</time>
      </trkpt>
      <trkpt lat="45.880419015884399" lon="9.097008006647229">
        <ele>1085</ele>
        <time>2010-06-13T10:17:36Z</time>
      </trkpt>
      <trkpt lat="45.880400994792581" lon="9.096982022747397">
        <ele>1085</ele>
        <time>2010-06-13T10:17:37Z</time>
      </trkpt>
      <trkpt lat="45.880374005064368" lon="9.096969030797482">
        <ele>1085</ele>
        <time>2010-06-13T10:17:38Z</time>
      </trkpt>
      <trkpt lat="45.880355983972549" lon="9.096943968906999">
        <ele>1085</ele>
        <time>2010-06-13T10:17:39Z</time>
      </trkpt>
      <trkpt lat="45.880347015336156" lon="9.096917985007167">
        <ele>1085</ele>
        <time>2010-06-13T10:17:41Z</time>
      </trkpt>
      <trkpt lat="45.880310973152518" lon="9.096892001107335">
        <ele>1085</ele>
        <time>2010-06-13T10:17:42Z</time>
      </trkpt>
      <trkpt lat="45.880293035879731" lon="9.096866017207503">
        <ele>1086</ele>
        <time>2010-06-13T10:17:43Z</time>
      </trkpt>
      <trkpt lat="45.880275014787912" lon="9.096853025257587">
        <ele>1086</ele>
        <time>2010-06-13T10:17:44Z</time>
      </trkpt>
      <trkpt lat="45.880256993696094" lon="9.096827041357756">
        <ele>1086</ele>
        <time>2010-06-13T10:17:45Z</time>
      </trkpt>
      <trkpt lat="45.880238972604275" lon="9.096814971417189">
        <ele>1086</ele>
        <time>2010-06-13T10:17:46Z</time>
      </trkpt>
      <trkpt lat="45.880230003967881" lon="9.096801979467273">
        <ele>1086</ele>
        <time>2010-06-13T10:17:48Z</time>
      </trkpt>
      <trkpt lat="45.880193961784244" lon="9.096763003617525">
        <ele>1087</ele>
        <time>2010-06-13T10:17:49Z</time>
      </trkpt>
      <trkpt lat="45.880176024511456" lon="9.096737019717693">
        <ele>1086</ele>
        <time>2010-06-13T10:17:50Z</time>
      </trkpt>
      <trkpt lat="45.880158003419638" lon="9.096711035817862">
        <ele>1086</ele>
        <time>2010-06-13T10:17:51Z</time>
      </trkpt>
      <trkpt lat="45.880149034783244" lon="9.096685973927379">
        <ele>1086</ele>
        <time>2010-06-13T10:17:52Z</time>
      </trkpt>
      <trkpt lat="45.880131013691425" lon="9.096659990027547">
        <ele>1086</ele>
        <time>2010-06-13T10:17:53Z</time>
      </trkpt>
      <trkpt lat="45.880112992599607" lon="9.096621014177799">
        <ele>1087</ele>
        <time>2010-06-13T10:17:55Z</time>
      </trkpt>
      <trkpt lat="45.880094971507788" lon="9.096595030277968">
        <ele>1087</ele>
        <time>2010-06-13T10:17:56Z</time>
      </trkpt>
      <trkpt lat="45.880059013143182" lon="9.096530992537737">
        <ele>1087</ele>
        <time>2010-06-13T10:17:57Z</time>
      </trkpt>
      <trkpt lat="45.880040992051363" lon="9.096505008637905">
        <ele>1087</ele>
        <time>2010-06-13T10:17:58Z</time>
      </trkpt>
      <trkpt lat="45.880022970959544" lon="9.096479024738073">
        <ele>1087</ele>
        <time>2010-06-13T10:17:59Z</time>
      </trkpt>
      <trkpt lat="45.880014002323151" lon="9.096453040838242">
        <ele>1087</ele>
        <time>2010-06-13T10:18:00Z</time>
      </trkpt>
      <trkpt lat="45.879995981231332" lon="9.096427978947759">
        <ele>1089</ele>
        <time>2010-06-13T10:18:01Z</time>
      </trkpt>
      <trkpt lat="45.879977960139513" lon="9.096401995047927">
        <ele>1088</ele>
        <time>2010-06-13T10:18:02Z</time>
      </trkpt>
      <trkpt lat="45.879968991503119" lon="9.096376011148095">
        <ele>1089</ele>
        <time>2010-06-13T10:18:03Z</time>
      </trkpt>
      <trkpt lat="45.879960022866726" lon="9.096363019198179">
        <ele>1089</ele>
        <time>2010-06-13T10:18:04Z</time>
      </trkpt>
      <trkpt lat="45.879950970411301" lon="9.096337035298348">
        <ele>1089</ele>
        <time>2010-06-13T10:18:05Z</time>
      </trkpt>
      <trkpt lat="45.879942001774907" lon="9.096311973407865">
        <ele>1088</ele>
        <time>2010-06-13T10:18:07Z</time>
      </trkpt>
      <trkpt lat="45.879933033138514" lon="9.096260005608201">
        <ele>1088</ele>
        <time>2010-06-13T10:18:09Z</time>
      </trkpt>
      <trkpt lat="45.879915012046695" lon="9.096208037808538">
        <ele>1089</ele>
        <time>2010-06-13T10:18:10Z</time>
      </trkpt>
      <trkpt lat="45.879905959591269" lon="9.096169983968139">
        <ele>1089</ele>
        <time>2010-06-13T10:18:11Z</time>
      </trkpt>
      <trkpt lat="45.879896990954876" lon="9.096144000068307">
        <ele>1090</ele>
        <time>2010-06-13T10:18:12Z</time>
      </trkpt>
      <trkpt lat="45.879888022318482" lon="9.096105024218559">
        <ele>1090</ele>
        <time>2010-06-13T10:18:13Z</time>
      </trkpt>
      <trkpt lat="45.879878969863057" lon="9.096079040318728">
        <ele>1089</ele>
        <time>2010-06-13T10:18:14Z</time>
      </trkpt>
      <trkpt lat="45.87986103259027" lon="9.096040986478329">
        <ele>1089</ele>
        <time>2010-06-13T10:18:15Z</time>
      </trkpt>
      <trkpt lat="45.879843011498451" lon="9.096002010628581">
        <ele>1089</ele>
        <time>2010-06-13T10:18:16Z</time>
      </trkpt>
      <trkpt lat="45.879833959043026" lon="9.095963034778833">
        <ele>1090</ele>
        <time>2010-06-13T10:18:18Z</time>
      </trkpt>
      <trkpt lat="45.879816021770239" lon="9.095886005088687">
        <ele>1088</ele>
        <time>2010-06-13T10:18:19Z</time>
      </trkpt>
      <trkpt lat="45.879806969314814" lon="9.095860021188855">
        <ele>1089</ele>
        <time>2010-06-13T10:18:20Z</time>
      </trkpt>
      <trkpt lat="45.879799006506801" lon="9.095821967348456">
        <ele>1089</ele>
        <time>2010-06-13T10:18:21Z</time>
      </trkpt>
      <trkpt lat="45.879789032042027" lon="9.095795983448625">
        <ele>1089</ele>
        <time>2010-06-13T10:18:22Z</time>
      </trkpt>
      <trkpt lat="45.879780985414982" lon="9.095757007598877">
        <ele>1090</ele>
        <time>2010-06-13T10:18:23Z</time>
      </trkpt>
      <trkpt lat="45.879772016778588" lon="9.09571903757751">
        <ele>1089</ele>
        <time>2010-06-13T10:18:24Z</time>
      </trkpt>
      <trkpt lat="45.879772016778588" lon="9.095692969858646">
        <ele>1089</ele>
        <time>2010-06-13T10:18:25Z</time>
      </trkpt>
      <trkpt lat="45.879762964323163" lon="9.095653994008899">
        <ele>1089</ele>
        <time>2010-06-13T10:18:26Z</time>
      </trkpt>
      <trkpt lat="45.879753995686769" lon="9.095615018159151">
        <ele>1089</ele>
        <time>2010-06-13T10:18:27Z</time>
      </trkpt>
      <trkpt lat="45.879735974594951" lon="9.095563972368836">
        <ele>1089</ele>
        <time>2010-06-13T10:18:28Z</time>
      </trkpt>
      <trkpt lat="45.879735974594951" lon="9.095537988469005">
        <ele>1089</ele>
        <time>2010-06-13T10:18:29Z</time>
      </trkpt>
      <trkpt lat="45.879718037322164" lon="9.095499012619257">
        <ele>1090</ele>
        <time>2010-06-13T10:18:30Z</time>
      </trkpt>
      <trkpt lat="45.879718037322164" lon="9.095460958778858">
        <ele>1090</ele>
        <time>2010-06-13T10:18:31Z</time>
      </trkpt>
      <trkpt lat="45.879708984866738" lon="9.095383007079363">
        <ele>1091</ele>
        <time>2010-06-13T10:18:33Z</time>
      </trkpt>
      <trkpt lat="45.879708984866738" lon="9.095345037057996">
        <ele>1091</ele>
        <time>2010-06-13T10:18:34Z</time>
      </trkpt>
      <trkpt lat="45.879708984866738" lon="9.095318969339132">
        <ele>1091</ele>
        <time>2010-06-13T10:18:35Z</time>
      </trkpt>
      <trkpt lat="45.879708984866738" lon="9.095292985439301">
        <ele>1091</ele>
        <time>2010-06-13T10:18:36Z</time>
      </trkpt>
      <trkpt lat="45.879708984866738" lon="9.095216039568186">
        <ele>1091</ele>
        <time>2010-06-13T10:18:38Z</time>
      </trkpt>
      <trkpt lat="45.879718037322164" lon="9.095163987949491">
        <ele>1091</ele>
        <time>2010-06-13T10:18:39Z</time>
      </trkpt>
      <trkpt lat="45.879727005958557" lon="9.095100034028292">
        <ele>1090</ele>
        <time>2010-06-13T10:18:40Z</time>
      </trkpt>
      <trkpt lat="45.879735974594951" lon="9.095021998509765">
        <ele>1090</ele>
        <time>2010-06-13T10:18:41Z</time>
      </trkpt>
      <trkpt lat="45.879762964323163" lon="9.094944968819618">
        <ele>1090</ele>
        <time>2010-06-13T10:18:42Z</time>
      </trkpt>
      <trkpt lat="45.879790037870407" lon="9.094855030998588">
        <ele>1088</ele>
        <time>2010-06-13T10:18:43Z</time>
      </trkpt>
      <trkpt lat="45.879825996235013" lon="9.094765009358525">
        <ele>1086</ele>
        <time>2010-06-13T10:18:44Z</time>
      </trkpt>
      <trkpt lat="45.879880981519818" lon="9.094674987718463">
        <ele>1085</ele>
        <time>2010-06-13T10:18:45Z</time>
      </trkpt>
      <trkpt lat="45.879934960976243" lon="9.094584966078401">
        <ele>1085</ele>
        <time>2010-06-13T10:18:46Z</time>
      </trkpt>
      <trkpt lat="45.879997992888093" lon="9.094482036307454">
        <ele>1083</ele>
        <time>2010-06-13T10:18:47Z</time>
      </trkpt>
      <trkpt lat="45.88007896207273" lon="9.094379022717476">
        <ele>1084</ele>
        <time>2010-06-13T10:18:48Z</time>
      </trkpt>
      <trkpt lat="45.880150962620974" lon="9.094263017177582">
        <ele>1084</ele>
        <time>2010-06-13T10:18:49Z</time>
      </trkpt>
      <trkpt lat="45.880240984261036" lon="9.09417299553752">
        <ele>1083</ele>
        <time>2010-06-13T10:18:50Z</time>
      </trkpt>
      <trkpt lat="45.880322037264705" lon="9.094056989997625">
        <ele>1083</ele>
        <time>2010-06-13T10:18:51Z</time>
      </trkpt>
      <trkpt lat="45.880394037812948" lon="9.093953976407647">
        <ele>1082</ele>
        <time>2010-06-13T10:18:52Z</time>
      </trkpt>
      <trkpt lat="45.880475006997585" lon="9.093837970867753">
        <ele>1081</ele>
        <time>2010-06-13T10:18:53Z</time>
      </trkpt>
      <trkpt lat="45.880555976182222" lon="9.093748033046722">
        <ele>1081</ele>
        <time>2010-06-13T10:18:54Z</time>
      </trkpt>
      <trkpt lat="45.880637029185891" lon="9.093645019456744">
        <ele>1080</ele>
        <time>2010-06-13T10:18:55Z</time>
      </trkpt>
      <trkpt lat="45.880719004198909" lon="9.093554997816682">
        <ele>1080</ele>
        <time>2010-06-13T10:18:56Z</time>
      </trkpt>
      <trkpt lat="45.880798967555165" lon="9.09346497617662">
        <ele>1079</ele>
        <time>2010-06-13T10:18:57Z</time>
      </trkpt>
      <trkpt lat="45.880871973931789" lon="9.093375038355589">
        <ele>1079</ele>
        <time>2010-06-13T10:18:58Z</time>
      </trkpt>
      <trkpt lat="45.880953026935458" lon="9.093285016715527">
        <ele>1079</ele>
        <time>2010-06-13T10:18:59Z</time>
      </trkpt>
      <trkpt lat="45.880998037755489" lon="9.093194995075464">
        <ele>1079</ele>
        <time>2010-06-13T10:19:00Z</time>
      </trkpt>
      <trkpt lat="45.881042964756489" lon="9.093117965385318">
        <ele>1077</ele>
        <time>2010-06-13T10:19:01Z</time>
      </trkpt>
      <trkpt lat="45.88108797557652" lon="9.093014029785991">
        <ele>1077</ele>
        <time>2010-06-13T10:19:02Z</time>
      </trkpt>
      <trkpt lat="45.881114965304732" lon="9.092924008145928">
        <ele>1076</ele>
        <time>2010-06-13T10:19:03Z</time>
      </trkpt>
      <trkpt lat="45.881142038851976" lon="9.09282099455595">
        <ele>1076</ele>
        <time>2010-06-13T10:19:04Z</time>
      </trkpt>
      <trkpt lat="45.881142038851976" lon="9.092704989016056">
        <ele>1073</ele>
        <time>2010-06-13T10:19:05Z</time>
      </trkpt>
      <trkpt lat="45.881132986396551" lon="9.092614967375994">
        <ele>1073</ele>
        <time>2010-06-13T10:19:06Z</time>
      </trkpt>
      <trkpt lat="45.881114965304732" lon="9.092512037605047">
        <ele>1073</ele>
        <time>2010-06-13T10:19:07Z</time>
      </trkpt>
      <trkpt lat="45.881097028031945" lon="9.092409024015069">
        <ele>1073</ele>
        <time>2010-06-13T10:19:08Z</time>
      </trkpt>
      <trkpt lat="45.881070960313082" lon="9.092306010425091">
        <ele>1073</ele>
        <time>2010-06-13T10:19:09Z</time>
      </trkpt>
      <trkpt lat="45.881008012220263" lon="9.092098977416754">
        <ele>1073</ele>
        <time>2010-06-13T10:19:11Z</time>
      </trkpt>
      <trkpt lat="45.880981022492051" lon="9.091995963826776">
        <ele>1073</ele>
        <time>2010-06-13T10:19:12Z</time>
      </trkpt>
      <trkpt lat="45.880954032763839" lon="9.091906026005745">
        <ele>1073</ele>
        <time>2010-06-13T10:19:14Z</time>
      </trkpt>
      <trkpt lat="45.880882032215595" lon="9.09172598272562">
        <ele>1073</ele>
        <time>2010-06-13T10:19:15Z</time>
      </trkpt>
      <trkpt lat="45.880845990031958" lon="9.091635039076209">
        <ele>1073</ele>
        <time>2010-06-13T10:19:16Z</time>
      </trkpt>
      <trkpt lat="45.880819000303745" lon="9.091558009386063">
        <ele>1073</ele>
        <time>2010-06-13T10:19:17Z</time>
      </trkpt>
      <trkpt lat="45.880792010575533" lon="9.091492965817452">
        <ele>1073</ele>
        <time>2010-06-13T10:19:18Z</time>
      </trkpt>
      <trkpt lat="45.880765020847321" lon="9.091416019946337">
        <ele>1073</ele>
        <time>2010-06-13T10:19:19Z</time>
      </trkpt>
      <trkpt lat="45.880738031119108" lon="9.091351982206106">
        <ele>1073</ele>
        <time>2010-06-13T10:19:21Z</time>
      </trkpt>
      <trkpt lat="45.880683967843652" lon="9.091221978887916">
        <ele>1074</ele>
        <time>2010-06-13T10:19:22Z</time>
      </trkpt>
      <trkpt lat="45.880666030570865" lon="9.091171016916633">
        <ele>1073</ele>
        <time>2010-06-13T10:19:23Z</time>
      </trkpt>
      <trkpt lat="45.880639040842652" lon="9.091106979176402">
        <ele>1072</ele>
        <time>2010-06-13T10:19:24Z</time>
      </trkpt>
      <trkpt lat="45.880604004487395" lon="9.091055011376739">
        <ele>1072</ele>
        <time>2010-06-13T10:19:25Z</time>
      </trkpt>
      <trkpt lat="45.880567040294409" lon="9.091016035526991">
        <ele>1072</ele>
        <time>2010-06-13T10:19:26Z</time>
      </trkpt>
      <trkpt lat="45.880513982847333" lon="9.090976975858212">
        <ele>1072</ele>
        <time>2010-06-13T10:19:27Z</time>
      </trkpt>
      <trkpt lat="45.880451034754515" lon="9.09095199778676">
        <ele>1071</ele>
        <time>2010-06-13T10:19:28Z</time>
      </trkpt>
      <trkpt lat="45.880379034206271" lon="9.090926013886929">
        <ele>1071</ele>
        <time>2010-06-13T10:19:29Z</time>
      </trkpt>
      <trkpt lat="45.880289012566209" lon="9.090926013886929">
        <ele>1070</ele>
        <time>2010-06-13T10:19:30Z</time>
      </trkpt>
      <trkpt lat="45.880190022289753" lon="9.090913021937013">
        <ele>1070</ele>
        <time>2010-06-13T10:19:31Z</time>
      </trkpt>
      <trkpt lat="45.880108969286084" lon="9.090873962268233">
        <ele>1069</ele>
        <time>2010-06-13T10:19:32Z</time>
      </trkpt>
      <trkpt lat="45.880026994273067" lon="9.090847978368402">
        <ele>1067</ele>
        <time>2010-06-13T10:19:33Z</time>
      </trkpt>
      <trkpt lat="45.87994703091681" lon="9.090809002518654">
        <ele>1065</ele>
        <time>2010-06-13T10:19:34Z</time>
      </trkpt>
      <trkpt lat="45.879848040640354" lon="9.090770026668906">
        <ele>1062</ele>
        <time>2010-06-13T10:19:35Z</time>
      </trkpt>
      <trkpt lat="45.879758019000292" lon="9.090718980878592">
        <ele>1062</ele>
        <time>2010-06-13T10:19:36Z</time>
      </trkpt>
      <trkpt lat="45.879667997360229" lon="9.090654021129012">
        <ele>1062</ele>
        <time>2010-06-13T10:19:37Z</time>
      </trkpt>
      <trkpt lat="45.879577975720167" lon="9.090575985610485">
        <ele>1061</ele>
        <time>2010-06-13T10:19:39Z</time>
      </trkpt>
      <trkpt lat="45.879416037350893" lon="9.090409018099308">
        <ele>1057</ele>
        <time>2010-06-13T10:19:40Z</time>
      </trkpt>
      <trkpt lat="45.879334984347224" lon="9.09030600450933">
        <ele>1057</ele>
        <time>2010-06-13T10:19:41Z</time>
      </trkpt>
      <trkpt lat="45.879272036254406" lon="9.090176001191139">
        <ele>1056</ele>
        <time>2010-06-13T10:19:42Z</time>
      </trkpt>
      <trkpt lat="45.879209004342556" lon="9.090047003701329">
        <ele>1055</ele>
        <time>2010-06-13T10:19:43Z</time>
      </trkpt>
      <trkpt lat="45.879137003794312" lon="9.089906020089984">
        <ele>1055</ele>
        <time>2010-06-13T10:19:44Z</time>
      </trkpt>
      <trkpt lat="45.879083024337888" lon="9.089777022600174">
        <ele>1054</ele>
        <time>2010-06-13T10:19:45Z</time>
      </trkpt>
      <trkpt lat="45.879028961062431" lon="9.089635033160448">
        <ele>1053</ele>
        <time>2010-06-13T10:19:46Z</time>
      </trkpt>
      <trkpt lat="45.878975987434387" lon="9.089506035670638">
        <ele>1053</ele>
        <time>2010-06-13T10:19:47Z</time>
      </trkpt>
      <trkpt lat="45.878930976614356" lon="9.089377038180828">
        <ele>1053</ele>
        <time>2010-06-13T10:19:48Z</time>
      </trkpt>
      <trkpt lat="45.878885965794325" lon="9.089248040691018">
        <ele>1053</ele>
        <time>2010-06-13T10:19:49Z</time>
      </trkpt>
      <trkpt lat="45.878850007429719" lon="9.089118959382176">
        <ele>1052</ele>
        <time>2010-06-13T10:19:50Z</time>
      </trkpt>
      <trkpt lat="45.878813965246081" lon="9.089003037661314">
        <ele>1052</ele>
        <time>2010-06-13T10:19:51Z</time>
      </trkpt>
      <trkpt lat="45.878769038245082" lon="9.08888703212142">
        <ele>1052</ele>
        <time>2010-06-13T10:19:52Z</time>
      </trkpt>
      <trkpt lat="45.878724027425051" lon="9.088771026581526">
        <ele>1052</ele>
        <time>2010-06-13T10:19:53Z</time>
      </trkpt>
      <trkpt lat="45.878687985241413" lon="9.088668012991548">
        <ele>1051</ele>
        <time>2010-06-13T10:19:54Z</time>
      </trkpt>
      <trkpt lat="45.878652026876807" lon="9.088564999401569">
        <ele>1051</ele>
        <time>2010-06-13T10:19:55Z</time>
      </trkpt>
      <trkpt lat="45.878625037148595" lon="9.088473971933126">
        <ele>1051</ele>
        <time>2010-06-13T10:19:56Z</time>
      </trkpt>
      <trkpt lat="45.878588994964957" lon="9.088384034112096">
        <ele>1050</ele>
        <time>2010-06-13T10:19:57Z</time>
      </trkpt>
      <trkpt lat="45.878562005236745" lon="9.088281020522118">
        <ele>1050</ele>
        <time>2010-06-13T10:19:58Z</time>
      </trkpt>
      <trkpt lat="45.878536021336913" lon="9.088203990831971">
        <ele>1051</ele>
        <time>2010-06-13T10:19:59Z</time>
      </trkpt>
      <trkpt lat="45.878518000245094" lon="9.088113969191909">
        <ele>1051</ele>
        <time>2010-06-13T10:20:00Z</time>
      </trkpt>
      <trkpt lat="45.878499979153275" lon="9.088049009442329">
        <ele>1051</ele>
        <time>2010-06-13T10:20:01Z</time>
      </trkpt>
      <trkpt lat="45.878491010516882" lon="9.087971979752183">
        <ele>1051</ele>
        <time>2010-06-13T10:20:02Z</time>
      </trkpt>
      <trkpt lat="45.878482041880488" lon="9.087894028052688">
        <ele>1051</ele>
        <time>2010-06-13T10:20:03Z</time>
      </trkpt>
      <trkpt lat="45.878472989425063" lon="9.087829990312457">
        <ele>1051</ele>
        <time>2010-06-13T10:20:04Z</time>
      </trkpt>
      <trkpt lat="45.87846402078867" lon="9.087766036391258">
        <ele>1051</ele>
        <time>2010-06-13T10:20:05Z</time>
      </trkpt>
      <trkpt lat="45.87846402078867" lon="9.087700992822647">
        <ele>1051</ele>
        <time>2010-06-13T10:20:06Z</time>
      </trkpt>
      <trkpt lat="45.878454968333244" lon="9.087637038901448">
        <ele>1051</ele>
        <time>2010-06-13T10:20:07Z</time>
      </trkpt>
      <trkpt lat="45.87846402078867" lon="9.087571995332837">
        <ele>1051</ele>
        <time>2010-06-13T10:20:08Z</time>
      </trkpt>
      <trkpt lat="45.87846402078867" lon="9.08753402531147">
        <ele>1051</ele>
        <time>2010-06-13T10:20:09Z</time>
      </trkpt>
      <trkpt lat="45.87846402078867" lon="9.087468981742859">
        <ele>1051</ele>
        <time>2010-06-13T10:20:10Z</time>
      </trkpt>
      <trkpt lat="45.878454968333244" lon="9.087417013943195">
        <ele>1051</ele>
        <time>2010-06-13T10:20:11Z</time>
      </trkpt>
      <trkpt lat="45.878454968333244" lon="9.087365968152881">
        <ele>1051</ele>
        <time>2010-06-13T10:20:12Z</time>
      </trkpt>
      <trkpt lat="45.878454968333244" lon="9.087314000353217">
        <ele>1051</ele>
        <time>2010-06-13T10:20:13Z</time>
      </trkpt>
      <trkpt lat="45.878454968333244" lon="9.087263038381934">
        <ele>1051</ele>
        <time>2010-06-13T10:20:14Z</time>
      </trkpt>
      <trkpt lat="45.878445999696851" lon="9.087210986763239">
        <ele>1051</ele>
        <time>2010-06-13T10:20:15Z</time>
      </trkpt>
      <trkpt lat="45.878437031060457" lon="9.087173016741872">
        <ele>1051</ele>
        <time>2010-06-13T10:20:16Z</time>
      </trkpt>
      <trkpt lat="45.878437031060457" lon="9.087134040892124">
        <ele>1051</ele>
        <time>2010-06-13T10:20:17Z</time>
      </trkpt>
      <trkpt lat="45.878427978605032" lon="9.087094981223345">
        <ele>1051</ele>
        <time>2010-06-13T10:20:18Z</time>
      </trkpt>
      <trkpt lat="45.878410963341594" lon="9.087068997323513">
        <ele>1051</ele>
        <time>2010-06-13T10:20:19Z</time>
      </trkpt>
      <trkpt lat="45.878392020240426" lon="9.087057011201978">
        <ele>1050</ele>
        <time>2010-06-13T10:20:20Z</time>
      </trkpt>
      <trkpt lat="45.87833896279335" lon="9.087031027302146">
        <ele>1050</ele>
        <time>2010-06-13T10:20:21Z</time>
      </trkpt>
      <trkpt lat="45.878276014700532" lon="9.086991967633367">
        <ele>1049</ele>
        <time>2010-06-13T10:20:22Z</time>
      </trkpt>
      <trkpt lat="45.878204014152288" lon="9.086965983733535">
        <ele>1050</ele>
        <time>2010-06-13T10:20:23Z</time>
      </trkpt>
      <trkpt lat="45.878122039139271" lon="9.086939999833703">
        <ele>1049</ele>
        <time>2010-06-13T10:20:24Z</time>
      </trkpt>
      <trkpt lat="45.878041991963983" lon="9.086927007883787">
        <ele>1048</ele>
        <time>2010-06-13T10:20:25Z</time>
      </trkpt>
      <trkpt lat="45.87795197032392" lon="9.086914015933871">
        <ele>1047</ele>
        <time>2010-06-13T10:20:26Z</time>
      </trkpt>
      <trkpt lat="45.877851974219084" lon="9.086901023983955">
        <ele>1046</ele>
        <time>2010-06-13T10:20:27Z</time>
      </trkpt>
      <trkpt lat="45.877753989771008" lon="9.086875040084124">
        <ele>1046</ele>
        <time>2010-06-13T10:20:28Z</time>
      </trkpt>
      <trkpt lat="45.877663968130946" lon="9.086861964315176">
        <ele>1045</ele>
        <time>2010-06-13T10:20:29Z</time>
      </trkpt>
      <trkpt lat="45.877581993117929" lon="9.08684897236526">
        <ele>1046</ele>
        <time>2010-06-13T10:20:30Z</time>
      </trkpt>
      <trkpt lat="45.877510998398066" lon="9.086835980415344">
        <ele>1046</ele>
        <time>2010-06-13T10:20:31Z</time>
      </trkpt>
      <trkpt lat="45.877429023385048" lon="9.086835980415344">
        <ele>1045</ele>
        <time>2010-06-13T10:20:32Z</time>
      </trkpt>
      <trkpt lat="45.877357022836804" lon="9.08684897236526">
        <ele>1044</ele>
        <time>2010-06-13T10:20:33Z</time>
      </trkpt>
      <trkpt lat="45.877293990924954" lon="9.086861964315176">
        <ele>1043</ele>
        <time>2010-06-13T10:20:34Z</time>
      </trkpt>
      <trkpt lat="45.877221990376711" lon="9.086887026205659">
        <ele>1044</ele>
        <time>2010-06-13T10:20:35Z</time>
      </trkpt>
      <trkpt lat="45.877169016748667" lon="9.086913010105491">
        <ele>1044</ele>
        <time>2010-06-13T10:20:36Z</time>
      </trkpt>
      <trkpt lat="45.877105984836817" lon="9.086938994005323">
        <ele>1045</ele>
        <time>2010-06-13T10:20:37Z</time>
      </trkpt>
      <trkpt lat="45.877042030915618" lon="9.086963972076774">
        <ele>1045</ele>
        <time>2010-06-13T10:20:38Z</time>
      </trkpt>
      <trkpt lat="45.876978999003768" lon="9.087003031745553">
        <ele>1045</ele>
        <time>2010-06-13T10:20:39Z</time>
      </trkpt>
      <trkpt lat="45.876915967091918" lon="9.08704100176692">
        <ele>1044</ele>
        <time>2010-06-13T10:20:40Z</time>
      </trkpt>
      <trkpt lat="45.8768530189991" lon="9.087079977616668">
        <ele>1043</ele>
        <time>2010-06-13T10:20:41Z</time>
      </trkpt>
      <trkpt lat="45.87678998708725" lon="9.0871059615165">
        <ele>1044</ele>
        <time>2010-06-13T10:20:42Z</time>
      </trkpt>
      <trkpt lat="45.876717986539006" lon="9.087144015356898">
        <ele>1043</ele>
        <time>2010-06-13T10:20:43Z</time>
      </trkpt>
      <trkpt lat="45.876655038446188" lon="9.08716999925673">
        <ele>1043</ele>
        <time>2010-06-13T10:20:45Z</time>
      </trkpt>
      <trkpt lat="45.876546995714307" lon="9.087220961228013">
        <ele>1043</ele>
        <time>2010-06-13T10:20:46Z</time>
      </trkpt>
      <trkpt lat="45.876501984894276" lon="9.087220961228013">
        <ele>1043</ele>
        <time>2010-06-13T10:20:47Z</time>
      </trkpt>
      <trkpt lat="45.87640299461782" lon="9.087220961228013">
        <ele>1043</ele>
        <time>2010-06-13T10:20:49Z</time>
      </trkpt>
      <trkpt lat="45.876349015161395" lon="9.087207969278097">
        <ele>1042</ele>
        <time>2010-06-13T10:20:50Z</time>
      </trkpt>
      <trkpt lat="45.876285983249545" lon="9.087207969278097">
        <ele>1041</ele>
        <time>2010-06-13T10:20:51Z</time>
      </trkpt>
      <trkpt lat="45.876213982701302" lon="9.087194977328181">
        <ele>1042</ele>
        <time>2010-06-13T10:20:52Z</time>
      </trkpt>
      <trkpt lat="45.876123961061239" lon="9.08716899342835">
        <ele>1042</ele>
        <time>2010-06-13T10:20:53Z</time>
      </trkpt>
      <trkpt lat="45.876024970784783" lon="9.087143009528518">
        <ele>1041</ele>
        <time>2010-06-13T10:20:54Z</time>
      </trkpt>
      <trkpt lat="45.875935032963753" lon="9.087117025628686">
        <ele>1039</ele>
        <time>2010-06-13T10:20:55Z</time>
      </trkpt>
      <trkpt lat="45.875835958868265" lon="9.087091041728854">
        <ele>1039</ele>
        <time>2010-06-13T10:20:56Z</time>
      </trkpt>
      <trkpt lat="45.875736968591809" lon="9.087077965959907">
        <ele>1038</ele>
        <time>2010-06-13T10:20:57Z</time>
      </trkpt>
      <trkpt lat="45.875655999407172" lon="9.087064974009991">
        <ele>1037</ele>
        <time>2010-06-13T10:20:58Z</time>
      </trkpt>
      <trkpt lat="45.875583998858929" lon="9.087038990110159">
        <ele>1036</ele>
        <time>2010-06-13T10:20:59Z</time>
      </trkpt>
      <trkpt lat="45.875520966947079" lon="9.087038990110159">
        <ele>1036</ele>
        <time>2010-06-13T10:21:00Z</time>
      </trkpt>
      <trkpt lat="45.87545801885426" lon="9.087038990110159">
        <ele>1036</ele>
        <time>2010-06-13T10:21:01Z</time>
      </trkpt>
      <trkpt lat="45.87539498694241" lon="9.087038990110159">
        <ele>1036</ele>
        <time>2010-06-13T10:21:02Z</time>
      </trkpt>
      <trkpt lat="45.875295996665955" lon="9.087038990110159">
        <ele>1036</ele>
        <time>2010-06-13T10:21:04Z</time>
      </trkpt>
      <trkpt lat="45.875197006389499" lon="9.087038990110159">
        <ele>1037</ele>
        <time>2010-06-13T10:21:06Z</time>
      </trkpt>
      <trkpt lat="45.875143026933074" lon="9.087025998160243">
        <ele>1036</ele>
        <time>2010-06-13T10:21:07Z</time>
      </trkpt>
      <trkpt lat="45.875098016113043" lon="9.087013006210327">
        <ele>1036</ele>
        <time>2010-06-13T10:21:08Z</time>
      </trkpt>
      <trkpt lat="45.875053005293012" lon="9.087000014260411">
        <ele>1036</ele>
        <time>2010-06-13T10:21:09Z</time>
      </trkpt>
      <trkpt lat="45.874999025836587" lon="9.08697403036058">
        <ele>1036</ele>
        <time>2010-06-13T10:21:10Z</time>
      </trkpt>
      <trkpt lat="45.874954015016556" lon="9.086961038410664">
        <ele>1036</ele>
        <time>2010-06-13T10:21:11Z</time>
      </trkpt>
      <trkpt lat="45.874909004196525" lon="9.086922984570265">
        <ele>1037</ele>
        <time>2010-06-13T10:21:12Z</time>
      </trkpt>
      <trkpt lat="45.874872962012887" lon="9.086897000670433">
        <ele>1037</ele>
        <time>2010-06-13T10:21:13Z</time>
      </trkpt>
      <trkpt lat="45.874845972284675" lon="9.086858024820685">
        <ele>1036</ele>
        <time>2010-06-13T10:21:14Z</time>
      </trkpt>
      <trkpt lat="45.874837003648281" lon="9.086832040920854">
        <ele>1036</ele>
        <time>2010-06-13T10:21:16Z</time>
      </trkpt>
      <trkpt lat="45.874818982556462" lon="9.086792981252074">
        <ele>1037</ele>
        <time>2010-06-13T10:21:17Z</time>
      </trkpt>
      <trkpt lat="45.874800961464643" lon="9.086755011230707">
        <ele>1038</ele>
        <time>2010-06-13T10:21:18Z</time>
      </trkpt>
      <trkpt lat="45.87479199282825" lon="9.086755011230707">
        <ele>1037</ele>
        <time>2010-06-13T10:21:19Z</time>
      </trkpt>
      <trkpt lat="45.874882014468312" lon="9.087000014260411">
        <ele>1035</ele>
        <time>2010-06-13T10:23:17Z</time>
      </trkpt>
      <trkpt lat="45.874909004196525" lon="9.087000014260411">
        <ele>1035</ele>
        <time>2010-06-13T10:23:19Z</time>
      </trkpt>
      <trkpt lat="45.874909004196525" lon="9.087000014260411">
        <ele>1036</ele>
        <time>2010-06-13T10:23:20Z</time>
      </trkpt>
      <trkpt lat="45.874917972832918" lon="9.086987022310495">
        <ele>1035</ele>
        <time>2010-06-13T10:23:21Z</time>
      </trkpt>
      <trkpt lat="45.874656960368156" lon="9.086766997352243">
        <ele>1038</ele>
        <time>2010-06-13T10:29:29Z</time>
      </trkpt>
      <trkpt lat="45.874656960368156" lon="9.086766997352243">
        <ele>1038</ele>
        <time>2010-06-13T10:29:30Z</time>
      </trkpt>
      <trkpt lat="45.874828035011888" lon="9.086832040920854">
        <ele>1040</ele>
        <time>2010-06-13T11:43:15Z</time>
      </trkpt>
      <trkpt lat="45.874818982556462" lon="9.086792981252074">
        <ele>1040</ele>
        <time>2010-06-13T11:43:16Z</time>
      </trkpt>
      <trkpt lat="45.874800961464643" lon="9.086766997352243">
        <ele>1040</ele>
        <time>2010-06-13T11:43:18Z</time>
      </trkpt>
      <trkpt lat="45.874783024191856" lon="9.08671603538096">
        <ele>1040</ele>
        <time>2010-06-13T11:43:19Z</time>
      </trkpt>
      <trkpt lat="45.874766008928418" lon="9.086689967662096">
        <ele>1040</ele>
        <time>2010-06-13T11:43:20Z</time>
      </trkpt>
      <trkpt lat="45.874756034463644" lon="9.086663983762264">
        <ele>1040</ele>
        <time>2010-06-13T11:43:21Z</time>
      </trkpt>
      <trkpt lat="45.874746982008219" lon="9.086639005690813">
        <ele>1040</ele>
        <time>2010-06-13T11:43:22Z</time>
      </trkpt>
      <trkpt lat="45.8747289609164" lon="9.086626013740897">
        <ele>1040</ele>
        <time>2010-06-13T11:43:24Z</time>
      </trkpt>
      <trkpt lat="45.874712029471993" lon="9.08658703789115">
        <ele>1040</ele>
        <time>2010-06-13T11:43:25Z</time>
      </trkpt>
      <trkpt lat="45.874701971188188" lon="9.086560970172286">
        <ele>1040</ele>
        <time>2010-06-13T11:43:26Z</time>
      </trkpt>
      <trkpt lat="45.874694008380175" lon="9.08654797822237">
        <ele>1040</ele>
        <time>2010-06-13T11:43:27Z</time>
      </trkpt>
      <trkpt lat="45.874685039743781" lon="9.086521994322538">
        <ele>1040</ele>
        <time>2010-06-13T11:43:28Z</time>
      </trkpt>
      <trkpt lat="45.874675987288356" lon="9.086510008201003">
        <ele>1041</ele>
        <time>2010-06-13T11:43:29Z</time>
      </trkpt>
      <trkpt lat="45.874667018651962" lon="9.086497016251087">
        <ele>1041</ele>
        <time>2010-06-13T11:43:31Z</time>
      </trkpt>
      <trkpt lat="45.874657966196537" lon="9.08645804040134">
        <ele>1041</ele>
        <time>2010-06-13T11:43:32Z</time>
      </trkpt>
      <trkpt lat="45.874648997560143" lon="9.086431972682476">
        <ele>1041</ele>
        <time>2010-06-13T11:43:33Z</time>
      </trkpt>
      <trkpt lat="45.87464002892375" lon="9.086406994611025">
        <ele>1040</ele>
        <time>2010-06-13T11:43:34Z</time>
      </trkpt>
      <trkpt lat="45.874630976468325" lon="9.086368018761277">
        <ele>1040</ele>
        <time>2010-06-13T11:43:36Z</time>
      </trkpt>
      <trkpt lat="45.874603986740112" lon="9.086302975192666">
        <ele>1040</ele>
        <time>2010-06-13T11:43:37Z</time>
      </trkpt>
      <trkpt lat="45.874595018103719" lon="9.086276991292834">
        <ele>1040</ele>
        <time>2010-06-13T11:43:38Z</time>
      </trkpt>
      <trkpt lat="45.874585965648293" lon="9.086239021271467">
        <ele>1039</ele>
        <time>2010-06-13T11:43:39Z</time>
      </trkpt>
      <trkpt lat="45.874568028375506" lon="9.086199961602688">
        <ele>1039</ele>
        <time>2010-06-13T11:43:40Z</time>
      </trkpt>
      <trkpt lat="45.874558975920081" lon="9.086161991581321">
        <ele>1039</ele>
        <time>2010-06-13T11:43:42Z</time>
      </trkpt>
      <trkpt lat="45.874541038647294" lon="9.086084039881825">
        <ele>1039</ele>
        <time>2010-06-13T11:43:43Z</time>
      </trkpt>
      <trkpt lat="45.874531986191869" lon="9.086045986041427">
        <ele>1039</ele>
        <time>2010-06-13T11:43:44Z</time>
      </trkpt>
      <trkpt lat="45.87451396510005" lon="9.085994018241763">
        <ele>1040</ele>
        <time>2010-06-13T11:43:45Z</time>
      </trkpt>
      <trkpt lat="45.874504996463656" lon="9.085954958572984">
        <ele>1040</ele>
        <time>2010-06-13T11:43:47Z</time>
      </trkpt>
      <trkpt lat="45.874478006735444" lon="9.085878012701869">
        <ele>1040</ele>
        <time>2010-06-13T11:43:48Z</time>
      </trkpt>
      <trkpt lat="45.874469038099051" lon="9.085852028802037">
        <ele>1040</ele>
        <time>2010-06-13T11:43:49Z</time>
      </trkpt>
      <trkpt lat="45.874459985643625" lon="9.085813974961639">
        <ele>1040</ele>
        <time>2010-06-13T11:43:50Z</time>
      </trkpt>
      <trkpt lat="45.874441964551806" lon="9.085774999111891">
        <ele>1040</ele>
        <time>2010-06-13T11:43:51Z</time>
      </trkpt>
      <trkpt lat="45.874432995915413" lon="9.085736023262143">
        <ele>1040</ele>
        <time>2010-06-13T11:43:53Z</time>
      </trkpt>
      <trkpt lat="45.874406006187201" lon="9.085646001622081">
        <ele>1039</ele>
        <time>2010-06-13T11:43:54Z</time>
      </trkpt>
      <trkpt lat="45.874387985095382" lon="9.085607025772333">
        <ele>1039</ele>
        <time>2010-06-13T11:43:55Z</time>
      </trkpt>
      <trkpt lat="45.874379016458988" lon="9.085568971931934">
        <ele>1039</ele>
        <time>2010-06-13T11:43:56Z</time>
      </trkpt>
      <trkpt lat="45.874360995367169" lon="9.085517004132271">
        <ele>1039</ele>
        <time>2010-06-13T11:43:57Z</time>
      </trkpt>
      <trkpt lat="45.874342974275351" lon="9.085478028282523">
        <ele>1039</ele>
        <time>2010-06-13T11:43:58Z</time>
      </trkpt>
      <trkpt lat="45.874325037002563" lon="9.085426982492209">
        <ele>1038</ele>
        <time>2010-06-13T11:44:00Z</time>
      </trkpt>
      <trkpt lat="45.874288994818926" lon="9.085297985002399">
        <ele>1038</ele>
        <time>2010-06-13T11:44:01Z</time>
      </trkpt>
      <trkpt lat="45.874271979555488" lon="9.085246017202735">
        <ele>1038</ele>
        <time>2010-06-13T11:44:02Z</time>
      </trkpt>
      <trkpt lat="45.874244989827275" lon="9.085181979462504">
        <ele>1038</ele>
        <time>2010-06-13T11:44:03Z</time>
      </trkpt>
      <trkpt lat="45.874218000099063" lon="9.085117019712925">
        <ele>1038</ele>
        <time>2010-06-13T11:44:04Z</time>
      </trkpt>
      <trkpt lat="45.874199979007244" lon="9.08506597392261">
        <ele>1038</ele>
        <time>2010-06-13T11:44:05Z</time>
      </trkpt>
      <trkpt lat="45.874182041734457" lon="9.085014006122947">
        <ele>1038</ele>
        <time>2010-06-13T11:44:06Z</time>
      </trkpt>
      <trkpt lat="45.874164020642638" lon="9.084962960332632">
        <ele>1038</ele>
        <time>2010-06-13T11:44:07Z</time>
      </trkpt>
      <trkpt lat="45.874145999550819" lon="9.084910992532969">
        <ele>1038</ele>
        <time>2010-06-13T11:44:08Z</time>
      </trkpt>
      <trkpt lat="45.874127978459001" lon="9.084872016683221">
        <ele>1038</ele>
        <time>2010-06-13T11:44:09Z</time>
      </trkpt>
      <trkpt lat="45.874119009822607" lon="9.084820970892906">
        <ele>1038</ele>
        <time>2010-06-13T11:44:11Z</time>
      </trkpt>
      <trkpt lat="45.874082967638969" lon="9.084744025021792">
        <ele>1039</ele>
        <time>2010-06-13T11:44:12Z</time>
      </trkpt>
      <trkpt lat="45.874065030366182" lon="9.084704965353012">
        <ele>1039</ele>
        <time>2010-06-13T11:44:13Z</time>
      </trkpt>
      <trkpt lat="45.874055977910757" lon="9.084665989503264">
        <ele>1039</ele>
        <time>2010-06-13T11:44:14Z</time>
      </trkpt>
      <trkpt lat="45.87403804063797" lon="9.084640005603433">
        <ele>1040</ele>
        <time>2010-06-13T11:44:15Z</time>
      </trkpt>
      <trkpt lat="45.874020019546151" lon="9.084602035582066">
        <ele>1039</ele>
        <time>2010-06-13T11:44:16Z</time>
      </trkpt>
      <trkpt lat="45.874010967090726" lon="9.084575967863202">
        <ele>1039</ele>
        <time>2010-06-13T11:44:17Z</time>
      </trkpt>
      <trkpt lat="45.873993029817939" lon="9.08454998396337">
        <ele>1038</ele>
        <time>2010-06-13T11:44:18Z</time>
      </trkpt>
      <trkpt lat="45.87397500872612" lon="9.084524000063539">
        <ele>1039</ele>
        <time>2010-06-13T11:44:19Z</time>
      </trkpt>
      <trkpt lat="45.873956987634301" lon="9.084499021992087">
        <ele>1039</ele>
        <time>2010-06-13T11:44:20Z</time>
      </trkpt>
      <trkpt lat="45.873938966542482" lon="9.084473038092256">
        <ele>1040</ele>
        <time>2010-06-13T11:44:22Z</time>
      </trkpt>
      <trkpt lat="45.873921029269695" lon="9.084395002573729">
        <ele>1040</ele>
        <time>2010-06-13T11:44:23Z</time>
      </trkpt>
      <trkpt lat="45.87391197681427" lon="9.084357032552362">
        <ele>1040</ele>
        <time>2010-06-13T11:44:24Z</time>
      </trkpt>
      <trkpt lat="45.873903008177876" lon="9.084330964833498">
        <ele>1041</ele>
        <time>2010-06-13T11:44:25Z</time>
      </trkpt>
      <trkpt lat="45.873894039541483" lon="9.08429198898375">
        <ele>1041</ele>
        <time>2010-06-13T11:44:27Z</time>
      </trkpt>
      <trkpt lat="45.873876018449664" lon="9.084228035062552">
        <ele>1040</ele>
        <time>2010-06-13T11:44:28Z</time>
      </trkpt>
      <trkpt lat="45.873866965994239" lon="9.084188975393772">
        <ele>1039</ele>
        <time>2010-06-13T11:44:29Z</time>
      </trkpt>
      <trkpt lat="45.873866965994239" lon="9.084151005372405">
        <ele>1040</ele>
        <time>2010-06-13T11:44:30Z</time>
      </trkpt>
      <trkpt lat="45.873866965994239" lon="9.084125021472573">
        <ele>1040</ele>
        <time>2010-06-13T11:44:31Z</time>
      </trkpt>
      <trkpt lat="45.873857997357845" lon="9.084046985954046">
        <ele>1040</ele>
        <time>2010-06-13T11:44:33Z</time>
      </trkpt>
      <trkpt lat="45.873849028721452" lon="9.083996023982763">
        <ele>1040</ele>
        <time>2010-06-13T11:44:34Z</time>
      </trkpt>
      <trkpt lat="45.873849028721452" lon="9.083956964313984">
        <ele>1041</ele>
        <time>2010-06-13T11:44:35Z</time>
      </trkpt>
      <trkpt lat="45.873840982094407" lon="9.083918994292617">
        <ele>1041</ele>
        <time>2010-06-13T11:44:36Z</time>
      </trkpt>
      <trkpt lat="45.873840982094407" lon="9.083880018442869">
        <ele>1040</ele>
        <time>2010-06-13T11:44:37Z</time>
      </trkpt>
      <trkpt lat="45.873849028721452" lon="9.08384095877409">
        <ele>1040</ele>
        <time>2010-06-13T11:44:38Z</time>
      </trkpt>
      <trkpt lat="45.873849028721452" lon="9.083814974874258">
        <ele>1041</ele>
        <time>2010-06-13T11:44:39Z</time>
      </trkpt>
      <trkpt lat="45.873850034549832" lon="9.083777004852891">
        <ele>1041</ele>
        <time>2010-06-13T11:44:40Z</time>
      </trkpt>
      <trkpt lat="45.873840982094407" lon="9.083738029003143">
        <ele>1041</ele>
        <time>2010-06-13T11:44:41Z</time>
      </trkpt>
      <trkpt lat="45.873840982094407" lon="9.083698969334364">
        <ele>1041</ele>
        <time>2010-06-13T11:44:42Z</time>
      </trkpt>
      <trkpt lat="45.873840982094407" lon="9.083660999312997">
        <ele>1041</ele>
        <time>2010-06-13T11:44:44Z</time>
      </trkpt>
      <trkpt lat="45.873850034549832" lon="9.08358396962285">
        <ele>1042</ele>
        <time>2010-06-13T11:44:45Z</time>
      </trkpt>
      <trkpt lat="45.873859003186226" lon="9.083557985723019">
        <ele>1042</ele>
        <time>2010-06-13T11:44:46Z</time>
      </trkpt>
      <trkpt lat="45.873867971822619" lon="9.083519009873271">
        <ele>1042</ele>
        <time>2010-06-13T11:44:47Z</time>
      </trkpt>
      <trkpt lat="45.873867971822619" lon="9.083493025973439">
        <ele>1042</ele>
        <time>2010-06-13T11:44:48Z</time>
      </trkpt>
      <trkpt lat="45.873877024278045" lon="9.08345497213304">
        <ele>1042</ele>
        <time>2010-06-13T11:44:49Z</time>
      </trkpt>
      <trkpt lat="45.873885992914438" lon="9.083428988233209">
        <ele>1043</ele>
        <time>2010-06-13T11:44:50Z</time>
      </trkpt>
      <trkpt lat="45.873894961550832" lon="9.083390012383461">
        <ele>1043</ele>
        <time>2010-06-13T11:44:51Z</time>
      </trkpt>
      <trkpt lat="45.873904014006257" lon="9.083338966593146">
        <ele>1043</ele>
        <time>2010-06-13T11:44:53Z</time>
      </trkpt>
      <trkpt lat="45.873931003734469" lon="9.083249028772116">
        <ele>1042</ele>
        <time>2010-06-13T11:44:54Z</time>
      </trkpt>
      <trkpt lat="45.873949024826288" lon="9.083209969103336">
        <ele>1042</ele>
        <time>2010-06-13T11:44:55Z</time>
      </trkpt>
      <trkpt lat="45.873966962099075" lon="9.083170993253589">
        <ele>1042</ele>
        <time>2010-06-13T11:44:56Z</time>
      </trkpt>
      <trkpt lat="45.873984983190894" lon="9.083133023232222">
        <ele>1042</ele>
        <time>2010-06-13T11:44:57Z</time>
      </trkpt>
      <trkpt lat="45.873994035646319" lon="9.083080971613526">
        <ele>1042</ele>
        <time>2010-06-13T11:44:58Z</time>
      </trkpt>
      <trkpt lat="45.874011972919106" lon="9.083055993542075">
        <ele>1042</ele>
        <time>2010-06-13T11:44:59Z</time>
      </trkpt>
      <trkpt lat="45.874021025374532" lon="9.083030009642243">
        <ele>1042</ele>
        <time>2010-06-13T11:45:00Z</time>
      </trkpt>
      <trkpt lat="45.874038962647319" lon="9.083004025742412">
        <ele>1043</ele>
        <time>2010-06-13T11:45:01Z</time>
      </trkpt>
      <trkpt lat="45.874048015102744" lon="9.082964966073632">
        <ele>1043</ele>
        <time>2010-06-13T11:45:02Z</time>
      </trkpt>
      <trkpt lat="45.874066036194563" lon="9.082938982173801">
        <ele>1043</ele>
        <time>2010-06-13T11:45:03Z</time>
      </trkpt>
      <trkpt lat="45.874075004830956" lon="9.082914004102349">
        <ele>1043</ele>
        <time>2010-06-13T11:45:04Z</time>
      </trkpt>
      <trkpt lat="45.87408397346735" lon="9.082875028252602">
        <ele>1043</ele>
        <time>2010-06-13T11:45:05Z</time>
      </trkpt>
      <trkpt lat="45.874093025922775" lon="9.082848960533738">
        <ele>1044</ele>
        <time>2010-06-13T11:45:06Z</time>
      </trkpt>
      <trkpt lat="45.874101994559169" lon="9.082810990512371">
        <ele>1044</ele>
        <time>2010-06-13T11:45:08Z</time>
      </trkpt>
      <trkpt lat="45.874110963195562" lon="9.082733038812876">
        <ele>1043</ele>
        <time>2010-06-13T11:45:09Z</time>
      </trkpt>
      <trkpt lat="45.874128984287381" lon="9.082694984972477">
        <ele>1043</ele>
        <time>2010-06-13T11:45:10Z</time>
      </trkpt>
      <trkpt lat="45.874138036742806" lon="9.082656009122729">
        <ele>1043</ele>
        <time>2010-06-13T11:45:11Z</time>
      </trkpt>
      <trkpt lat="45.8741470053792" lon="9.082617033272982">
        <ele>1043</ele>
        <time>2010-06-13T11:45:12Z</time>
      </trkpt>
      <trkpt lat="45.8741470053792" lon="9.082578979432583">
        <ele>1044</ele>
        <time>2010-06-13T11:45:13Z</time>
      </trkpt>
      <trkpt lat="45.874166032299399" lon="9.082540003582835">
        <ele>1044</ele>
        <time>2010-06-13T11:45:14Z</time>
      </trkpt>
      <trkpt lat="45.874173995107412" lon="9.082502033561468">
        <ele>1043</ele>
        <time>2010-06-13T11:45:16Z</time>
      </trkpt>
      <trkpt lat="45.874201990664005" lon="9.082436989992857">
        <ele>1043</ele>
        <time>2010-06-13T11:45:17Z</time>
      </trkpt>
      <trkpt lat="45.874210959300399" lon="9.08239901997149">
        <ele>1043</ele>
        <time>2010-06-13T11:45:18Z</time>
      </trkpt>
      <trkpt lat="45.874220011755824" lon="9.082373036071658">
        <ele>1045</ele>
        <time>2010-06-13T11:45:19Z</time>
      </trkpt>
      <trkpt lat="45.874228980392218" lon="9.082333976402879">
        <ele>1045</ele>
        <time>2010-06-13T11:45:20Z</time>
      </trkpt>
      <trkpt lat="45.874247001484036" lon="9.08227002248168">
        <ele>1045</ele>
        <time>2010-06-13T11:45:22Z</time>
      </trkpt>
      <trkpt lat="45.874247001484036" lon="9.082230962812901">
        <ele>1045</ele>
        <time>2010-06-13T11:45:23Z</time>
      </trkpt>
      <trkpt lat="45.87425597012043" lon="9.082204978913069">
        <ele>1045</ele>
        <time>2010-06-13T11:45:24Z</time>
      </trkpt>
      <trkpt lat="45.874265022575855" lon="9.082167008891702">
        <ele>1045</ele>
        <time>2010-06-13T11:45:25Z</time>
      </trkpt>
      <trkpt lat="45.874273991212249" lon="9.082128033041954">
        <ele>1045</ele>
        <time>2010-06-13T11:45:26Z</time>
      </trkpt>
      <trkpt lat="45.874273991212249" lon="9.082101965323091">
        <ele>1045</ele>
        <time>2010-06-13T11:45:27Z</time>
      </trkpt>
      <trkpt lat="45.874292012304068" lon="9.082063995301724">
        <ele>1045</ele>
        <time>2010-06-13T11:45:28Z</time>
      </trkpt>
      <trkpt lat="45.874300980940461" lon="9.082038011401892">
        <ele>1045</ele>
        <time>2010-06-13T11:45:29Z</time>
      </trkpt>
      <trkpt lat="45.874310033395886" lon="9.081999035552144">
        <ele>1045</ele>
        <time>2010-06-13T11:45:30Z</time>
      </trkpt>
      <trkpt lat="45.87431900203228" lon="9.081960981711745">
        <ele>1045</ele>
        <time>2010-06-13T11:45:31Z</time>
      </trkpt>
      <trkpt lat="45.874327970668674" lon="9.081934997811914">
        <ele>1046</ele>
        <time>2010-06-13T11:45:32Z</time>
      </trkpt>
      <trkpt lat="45.874337023124099" lon="9.081896021962166">
        <ele>1046</ele>
        <time>2010-06-13T11:45:34Z</time>
      </trkpt>
      <trkpt lat="45.874364012852311" lon="9.081831984221935">
        <ele>1046</ele>
        <time>2010-06-13T11:45:35Z</time>
      </trkpt>
      <trkpt lat="45.874372981488705" lon="9.081793008372188">
        <ele>1046</ele>
        <time>2010-06-13T11:45:36Z</time>
      </trkpt>
      <trkpt lat="45.87438203394413" lon="9.08175403252244">
        <ele>1046</ele>
        <time>2010-06-13T11:45:37Z</time>
      </trkpt>
      <trkpt lat="45.874391002580523" lon="9.081728970631957">
        <ele>1047</ele>
        <time>2010-06-13T11:45:38Z</time>
      </trkpt>
      <trkpt lat="45.874409023672342" lon="9.081689994782209">
        <ele>1047</ele>
        <time>2010-06-13T11:45:39Z</time>
      </trkpt>
      <trkpt lat="45.874417992308736" lon="9.081677002832294">
        <ele>1047</ele>
        <time>2010-06-13T11:45:40Z</time>
      </trkpt>
      <trkpt lat="45.874436013400555" lon="9.081639032810926">
        <ele>1047</ele>
        <time>2010-06-13T11:45:41Z</time>
      </trkpt>
      <trkpt lat="45.874481024220586" lon="9.081586981192231">
        <ele>1047</ele>
        <time>2010-06-13T11:45:43Z</time>
      </trkpt>
      <trkpt lat="45.874508013948798" lon="9.081549011170864">
        <ele>1047</ele>
        <time>2010-06-13T11:45:45Z</time>
      </trkpt>
      <trkpt lat="45.874580014497042" lon="9.081470975652337">
        <ele>1046</ele>
        <time>2010-06-13T11:45:46Z</time>
      </trkpt>
      <trkpt lat="45.874615972861648" lon="9.081420013681054">
        <ele>1047</ele>
        <time>2010-06-13T11:45:47Z</time>
      </trkpt>
      <trkpt lat="45.874660983681679" lon="9.081394029781222">
        <ele>1047</ele>
        <time>2010-06-13T11:45:48Z</time>
      </trkpt>
      <trkpt lat="45.874714963138103" lon="9.081355975940824">
        <ele>1046</ele>
        <time>2010-06-13T11:45:49Z</time>
      </trkpt>
      <trkpt lat="45.874760979786515" lon="9.081317000091076">
        <ele>1045</ele>
        <time>2010-06-13T11:45:51Z</time>
      </trkpt>
      <trkpt lat="45.874869022518396" lon="9.081213986501098">
        <ele>1043</ele>
        <time>2010-06-13T11:45:52Z</time>
      </trkpt>
      <trkpt lat="45.874914033338428" lon="9.081137040629983">
        <ele>1044</ele>
        <time>2010-06-13T11:45:53Z</time>
      </trkpt>
      <trkpt lat="45.874949991703033" lon="9.081071997061372">
        <ele>1043</ele>
        <time>2010-06-13T11:45:54Z</time>
      </trkpt>
      <trkpt lat="45.874968012794852" lon="9.080994967371225">
        <ele>1043</ele>
        <time>2010-06-13T11:45:55Z</time>
      </trkpt>
      <trkpt lat="45.874986033886671" lon="9.080944005399942">
        <ele>1043</ele>
        <time>2010-06-13T11:45:57Z</time>
      </trkpt>
      <trkpt lat="45.874995002523065" lon="9.080892037600279">
        <ele>1045</ele>
        <time>2010-06-13T11:45:58Z</time>
      </trkpt>
      <trkpt lat="45.875013023614883" lon="9.080827999860048">
        <ele>1045</ele>
        <time>2010-06-13T11:45:59Z</time>
      </trkpt>
      <trkpt lat="45.875021992251277" lon="9.080815007910132">
        <ele>1045</ele>
        <time>2010-06-13T11:46:00Z</time>
      </trkpt>
      <trkpt lat="45.875030960887671" lon="9.080789024010301">
        <ele>1046</ele>
        <time>2010-06-13T11:46:01Z</time>
      </trkpt>
      <trkpt lat="45.875030960887671" lon="9.080789024010301">
        <ele>1046</ele>
        <time>2010-06-13T11:46:03Z</time>
      </trkpt>
      <trkpt lat="45.874968012794852" lon="9.080415023490787">
        <ele>1050</ele>
        <time>2010-06-13T11:46:37Z</time>
      </trkpt>
      <trkpt lat="45.874968012794852" lon="9.080402031540871">
        <ele>1049</ele>
        <time>2010-06-13T11:46:38Z</time>
      </trkpt>
      <trkpt lat="45.874958960339427" lon="9.080389039590955">
        <ele>1050</ele>
        <time>2010-06-13T11:46:39Z</time>
      </trkpt>
      <trkpt lat="45.874949991703033" lon="9.080389039590955">
        <ele>1051</ele>
        <time>2010-06-13T11:46:40Z</time>
      </trkpt>
      <trkpt lat="45.87494102306664" lon="9.080376969650388">
        <ele>1050</ele>
        <time>2010-06-13T11:46:41Z</time>
      </trkpt>
      <trkpt lat="45.874931970611215" lon="9.080376969650388">
        <ele>1050</ele>
        <time>2010-06-13T11:46:42Z</time>
      </trkpt>
      <trkpt lat="45.874931970611215" lon="9.080363977700472">
        <ele>1050</ele>
        <time>2010-06-13T11:46:44Z</time>
      </trkpt>
      <trkpt lat="45.874914033338428" lon="9.080350985750556">
        <ele>1050</ele>
        <time>2010-06-13T11:46:45Z</time>
      </trkpt>
      <trkpt lat="45.874896012246609" lon="9.08033799380064">
        <ele>1050</ele>
        <time>2010-06-13T11:46:46Z</time>
      </trkpt>
      <trkpt lat="45.874886959791183" lon="9.08033799380064">
        <ele>1050</ele>
        <time>2010-06-13T11:46:47Z</time>
      </trkpt>
      <trkpt lat="45.87487799115479" lon="9.08033799380064">
        <ele>1050</ele>
        <time>2010-06-13T11:46:48Z</time>
      </trkpt>
      <trkpt lat="45.874869022518396" lon="9.080325001850724">
        <ele>1050</ele>
        <time>2010-06-13T11:46:50Z</time>
      </trkpt>
      <trkpt lat="45.874859970062971" lon="9.080312009900808">
        <ele>1051</ele>
        <time>2010-06-13T11:46:51Z</time>
      </trkpt>
      <trkpt lat="45.874851001426578" lon="9.080299017950892">
        <ele>1051</ele>
        <time>2010-06-13T11:46:52Z</time>
      </trkpt>
      <trkpt lat="45.874851001426578" lon="9.080299017950892">
        <ele>1051</ele>
        <time>2010-06-13T11:46:53Z</time>
      </trkpt>
      <trkpt lat="45.874842032790184" lon="9.080286026000977">
        <ele>1052</ele>
        <time>2010-06-13T11:46:55Z</time>
      </trkpt>
      <trkpt lat="45.874824011698365" lon="9.080273034051061">
        <ele>1052</ele>
        <time>2010-06-13T11:46:56Z</time>
      </trkpt>
      <trkpt lat="45.87481495924294" lon="9.080260964110494">
        <ele>1052</ele>
        <time>2010-06-13T11:46:57Z</time>
      </trkpt>
      <trkpt lat="45.874805990606546" lon="9.080246966332197">
        <ele>1052</ele>
        <time>2010-06-13T11:46:58Z</time>
      </trkpt>
      <trkpt lat="45.874797021970153" lon="9.080234980210662">
        <ele>1052</ele>
        <time>2010-06-13T11:46:59Z</time>
      </trkpt>
      <trkpt lat="45.874797021970153" lon="9.080221988260746">
        <ele>1052</ele>
        <time>2010-06-13T11:47:00Z</time>
      </trkpt>
      <trkpt lat="45.874787969514728" lon="9.080221988260746">
        <ele>1052</ele>
        <time>2010-06-13T11:47:01Z</time>
      </trkpt>
      <trkpt lat="45.874779000878334" lon="9.08020899631083">
        <ele>1052</ele>
        <time>2010-06-13T11:47:02Z</time>
      </trkpt>
      <trkpt lat="45.874779000878334" lon="9.08020899631083">
        <ele>1053</ele>
        <time>2010-06-13T11:47:03Z</time>
      </trkpt>
      <trkpt lat="45.87477003224194" lon="9.080196004360914">
        <ele>1052</ele>
        <time>2010-06-13T11:47:05Z</time>
      </trkpt>
      <trkpt lat="45.874760979786515" lon="9.080183012410998">
        <ele>1052</ele>
        <time>2010-06-13T11:47:06Z</time>
      </trkpt>
      <trkpt lat="45.874752011150122" lon="9.080170020461083">
        <ele>1053</ele>
        <time>2010-06-13T11:47:07Z</time>
      </trkpt>
      <trkpt lat="45.874742958694696" lon="9.080157028511167">
        <ele>1053</ele>
        <time>2010-06-13T11:47:08Z</time>
      </trkpt>
      <trkpt lat="45.874733990058303" lon="9.080144036561251">
        <ele>1053</ele>
        <time>2010-06-13T11:47:09Z</time>
      </trkpt>
      <trkpt lat="45.874733990058303" lon="9.080131966620684">
        <ele>1053</ele>
        <time>2010-06-13T11:47:11Z</time>
      </trkpt>
      <trkpt lat="45.874725021421909" lon="9.080118974670768">
        <ele>1053</ele>
        <time>2010-06-13T11:47:12Z</time>
      </trkpt>
      <trkpt lat="45.874707000330091" lon="9.080105982720852">
        <ele>1053</ele>
        <time>2010-06-13T11:47:13Z</time>
      </trkpt>
      <trkpt lat="45.874707000330091" lon="9.080105982720852">
        <ele>1054</ele>
        <time>2010-06-13T11:47:14Z</time>
      </trkpt>
      <trkpt lat="45.874698031693697" lon="9.080092990770936">
        <ele>1054</ele>
        <time>2010-06-13T11:47:15Z</time>
      </trkpt>
      <trkpt lat="45.874698031693697" lon="9.080092990770936">
        <ele>1054</ele>
        <time>2010-06-13T11:47:17Z</time>
      </trkpt>
      <trkpt lat="45.874680010601878" lon="9.08007999882102">
        <ele>1054</ele>
        <time>2010-06-13T11:47:18Z</time>
      </trkpt>
      <trkpt lat="45.874670958146453" lon="9.080067006871104">
        <ele>1055</ele>
        <time>2010-06-13T11:47:19Z</time>
      </trkpt>
      <trkpt lat="45.874670958146453" lon="9.080067006871104">
        <ele>1055</ele>
        <time>2010-06-13T11:47:20Z</time>
      </trkpt>
      <trkpt lat="45.874661989510059" lon="9.080054014921188">
        <ele>1055</ele>
        <time>2010-06-13T11:47:21Z</time>
      </trkpt>
      <trkpt lat="45.874661989510059" lon="9.080054014921188">
        <ele>1055</ele>
        <time>2010-06-13T11:47:22Z</time>
      </trkpt>
      <trkpt lat="45.874653020873666" lon="9.080041022971273">
        <ele>1054</ele>
        <time>2010-06-13T11:47:23Z</time>
      </trkpt>
      <trkpt lat="45.874643968418241" lon="9.080041022971273">
        <ele>1055</ele>
        <time>2010-06-13T11:47:24Z</time>
      </trkpt>
      <trkpt lat="45.874634999781847" lon="9.080028031021357">
        <ele>1055</ele>
        <time>2010-06-13T11:47:25Z</time>
      </trkpt>
      <trkpt lat="45.874634999781847" lon="9.08001596108079">
        <ele>1055</ele>
        <time>2010-06-13T11:47:26Z</time>
      </trkpt>
      <trkpt lat="45.874626031145453" lon="9.08001596108079">
        <ele>1056</ele>
        <time>2010-06-13T11:47:27Z</time>
      </trkpt>
      <trkpt lat="45.874616978690028" lon="9.080001963302493">
        <ele>1056</ele>
        <time>2010-06-13T11:47:29Z</time>
      </trkpt>
      <trkpt lat="45.874599041417241" lon="9.079963993281126">
        <ele>1055</ele>
        <time>2010-06-13T11:47:31Z</time>
      </trkpt>
      <trkpt lat="45.874589988961816" lon="9.07995100133121">
        <ele>1056</ele>
        <time>2010-06-13T11:47:32Z</time>
      </trkpt>
      <trkpt lat="45.874589988961816" lon="9.07995100133121">
        <ele>1056</ele>
        <time>2010-06-13T11:47:33Z</time>
      </trkpt>
      <trkpt lat="45.874581020325422" lon="9.079938009381294">
        <ele>1057</ele>
        <time>2010-06-13T11:47:35Z</time>
      </trkpt>
      <trkpt lat="45.874581020325422" lon="9.079925017431378">
        <ele>1056</ele>
        <time>2010-06-13T11:47:36Z</time>
      </trkpt>
      <trkpt lat="45.874392008408904" lon="9.07962896861136">
        <ele>1060</ele>
        <time>2010-06-13T11:48:13Z</time>
      </trkpt>
      <trkpt lat="45.874392008408904" lon="9.07962896861136">
        <ele>1061</ele>
        <time>2010-06-13T11:48:14Z</time>
      </trkpt>
      <trkpt lat="45.874383961781859" lon="9.079615976661444">
        <ele>1061</ele>
        <time>2010-06-13T11:48:15Z</time>
      </trkpt>
      <trkpt lat="45.874374993145466" lon="9.079615976661444">
        <ele>1061</ele>
        <time>2010-06-13T11:48:17Z</time>
      </trkpt>
      <trkpt lat="45.874356972053647" lon="9.079589992761612">
        <ele>1060</ele>
        <time>2010-06-13T11:48:18Z</time>
      </trkpt>
      <trkpt lat="45.874346997588873" lon="9.079577000811696">
        <ele>1060</ele>
        <time>2010-06-13T11:48:19Z</time>
      </trkpt>
      <trkpt lat="45.874348003417253" lon="9.07956400886178">
        <ele>1061</ele>
        <time>2010-06-13T11:48:20Z</time>
      </trkpt>
      <trkpt lat="45.87433903478086" lon="9.07956400886178">
        <ele>1061</ele>
        <time>2010-06-13T11:48:21Z</time>
      </trkpt>
      <trkpt lat="45.87433903478086" lon="9.079551016911864">
        <ele>1061</ele>
        <time>2010-06-13T11:48:23Z</time>
      </trkpt>
      <trkpt lat="45.874321013689041" lon="9.079525033012033">
        <ele>1061</ele>
        <time>2010-06-13T11:48:24Z</time>
      </trkpt>
      <trkpt lat="45.874321013689041" lon="9.079512041062117">
        <ele>1062</ele>
        <time>2010-06-13T11:48:25Z</time>
      </trkpt>
      <trkpt lat="45.874311961233616" lon="9.079498965293169">
        <ele>1062</ele>
        <time>2010-06-13T11:48:26Z</time>
      </trkpt>
      <trkpt lat="45.874302992597222" lon="9.079486979171634">
        <ele>1062</ele>
        <time>2010-06-13T11:48:27Z</time>
      </trkpt>
      <trkpt lat="45.874294023960829" lon="9.079486979171634">
        <ele>1062</ele>
        <time>2010-06-13T11:48:28Z</time>
      </trkpt>
      <trkpt lat="45.874294023960829" lon="9.079473987221718">
        <ele>1061</ele>
        <time>2010-06-13T11:48:30Z</time>
      </trkpt>
      <trkpt lat="45.87427600286901" lon="9.079448003321886">
        <ele>1061</ele>
        <time>2010-06-13T11:48:31Z</time>
      </trkpt>
      <trkpt lat="45.87427600286901" lon="9.079448003321886">
        <ele>1062</ele>
        <time>2010-06-13T11:48:32Z</time>
      </trkpt>
      <trkpt lat="45.874267034232616" lon="9.07943501137197">
        <ele>1062</ele>
        <time>2010-06-13T11:48:33Z</time>
      </trkpt>
      <trkpt lat="45.874267034232616" lon="9.079422019422054">
        <ele>1062</ele>
        <time>2010-06-13T11:48:34Z</time>
      </trkpt>
      <trkpt lat="45.874249013140798" lon="9.079396035522223">
        <ele>1063</ele>
        <time>2010-06-13T11:48:36Z</time>
      </trkpt>
      <trkpt lat="45.874249013140798" lon="9.079383965581656">
        <ele>1063</ele>
        <time>2010-06-13T11:48:37Z</time>
      </trkpt>
      <trkpt lat="45.874239960685372" lon="9.07937097363174">
        <ele>1063</ele>
        <time>2010-06-13T11:48:38Z</time>
      </trkpt>
      <trkpt lat="45.874230992048979" lon="9.07937097363174">
        <ele>1063</ele>
        <time>2010-06-13T11:48:39Z</time>
      </trkpt>
      <trkpt lat="45.874230992048979" lon="9.079357981681824">
        <ele>1064</ele>
        <time>2010-06-13T11:48:40Z</time>
      </trkpt>
      <trkpt lat="45.874222023412585" lon="9.079344989731908">
        <ele>1064</ele>
        <time>2010-06-13T11:48:42Z</time>
      </trkpt>
      <trkpt lat="45.87421297095716" lon="9.079331997781992">
        <ele>1064</ele>
        <time>2010-06-13T11:48:43Z</time>
      </trkpt>
      <trkpt lat="45.874204002320766" lon="9.079319005832076">
        <ele>1064</ele>
        <time>2010-06-13T11:48:44Z</time>
      </trkpt>
      <trkpt lat="45.874185981228948" lon="9.079293021932244">
        <ele>1064</ele>
        <time>2010-06-13T11:48:47Z</time>
      </trkpt>
      <trkpt lat="45.874177012592554" lon="9.079280029982328">
        <ele>1065</ele>
        <time>2010-06-13T11:48:48Z</time>
      </trkpt>
      <trkpt lat="45.874177012592554" lon="9.079280029982328">
        <ele>1065</ele>
        <time>2010-06-13T11:48:49Z</time>
      </trkpt>
      <trkpt lat="45.874167960137129" lon="9.079267960041761">
        <ele>1065</ele>
        <time>2010-06-13T11:48:50Z</time>
      </trkpt>
      <trkpt lat="45.874158991500735" lon="9.079253962263465">
        <ele>1065</ele>
        <time>2010-06-13T11:48:51Z</time>
      </trkpt>
      <trkpt lat="45.874158991500735" lon="9.079253962263465">
        <ele>1065</ele>
        <time>2010-06-13T11:48:53Z</time>
      </trkpt>
      <trkpt lat="45.874140970408916" lon="9.07924197614193">
        <ele>1065</ele>
        <time>2010-06-13T11:48:54Z</time>
      </trkpt>
      <trkpt lat="45.874132001772523" lon="9.079228984192014">
        <ele>1066</ele>
        <time>2010-06-13T11:48:55Z</time>
      </trkpt>
      <trkpt lat="45.874123033136129" lon="9.079215992242098">
        <ele>1066</ele>
        <time>2010-06-13T11:48:57Z</time>
      </trkpt>
      <trkpt lat="45.874113980680704" lon="9.079203000292182">
        <ele>1066</ele>
        <time>2010-06-13T11:48:58Z</time>
      </trkpt>
      <trkpt lat="45.874105012044311" lon="9.079190008342266">
        <ele>1066</ele>
        <time>2010-06-13T11:48:59Z</time>
      </trkpt>
      <trkpt lat="45.874105012044311" lon="9.07917701639235">
        <ele>1066</ele>
        <time>2010-06-13T11:49:00Z</time>
      </trkpt>
      <trkpt lat="45.874095959588885" lon="9.079164024442434">
        <ele>1066</ele>
        <time>2010-06-13T11:49:01Z</time>
      </trkpt>
      <trkpt lat="45.874095959588885" lon="9.079164024442434">
        <ele>1067</ele>
        <time>2010-06-13T11:49:03Z</time>
      </trkpt>
      <trkpt lat="45.873961010947824" lon="9.078816007822752">
        <ele>1071</ele>
        <time>2010-06-13T11:49:32Z</time>
      </trkpt>
      <trkpt lat="45.873951958492398" lon="9.078803015872836">
        <ele>1071</ele>
        <time>2010-06-13T11:49:34Z</time>
      </trkpt>
      <trkpt lat="45.873951958492398" lon="9.07879002392292">
        <ele>1072</ele>
        <time>2010-06-13T11:49:35Z</time>
      </trkpt>
      <trkpt lat="45.873934021219611" lon="9.078764040023089">
        <ele>1071</ele>
        <time>2010-06-13T11:49:36Z</time>
      </trkpt>
      <trkpt lat="45.873934021219611" lon="9.078764040023089">
        <ele>1072</ele>
        <time>2010-06-13T11:49:37Z</time>
      </trkpt>
      <trkpt lat="45.873934021219611" lon="9.078751970082521">
        <ele>1071</ele>
        <time>2010-06-13T11:49:38Z</time>
      </trkpt>
      <trkpt lat="45.873924968764186" lon="9.078738978132606">
        <ele>1071</ele>
        <time>2010-06-13T11:49:40Z</time>
      </trkpt>
      <trkpt lat="45.873916000127792" lon="9.078712994232774">
        <ele>1071</ele>
        <time>2010-06-13T11:49:41Z</time>
      </trkpt>
      <trkpt lat="45.873907031491399" lon="9.078700002282858">
        <ele>1071</ele>
        <time>2010-06-13T11:49:42Z</time>
      </trkpt>
      <trkpt lat="45.873907031491399" lon="9.078687010332942">
        <ele>1071</ele>
        <time>2010-06-13T11:49:43Z</time>
      </trkpt>
      <trkpt lat="45.873897979035974" lon="9.078687010332942">
        <ele>1071</ele>
        <time>2010-06-13T11:49:44Z</time>
      </trkpt>
      <trkpt lat="45.873897979035974" lon="9.078674018383026">
        <ele>1072</ele>
        <time>2010-06-13T11:49:46Z</time>
      </trkpt>
      <trkpt lat="45.87388901039958" lon="9.078649040311575">
        <ele>1072</ele>
        <time>2010-06-13T11:49:47Z</time>
      </trkpt>
      <trkpt lat="45.873880041763186" lon="9.078635964542627">
        <ele>1072</ele>
        <time>2010-06-13T11:49:48Z</time>
      </trkpt>
      <trkpt lat="45.873880041763186" lon="9.078622972592711">
        <ele>1072</ele>
        <time>2010-06-13T11:49:49Z</time>
      </trkpt>
      <trkpt lat="45.873870989307761" lon="9.078622972592711">
        <ele>1073</ele>
        <time>2010-06-13T11:49:50Z</time>
      </trkpt>
      <trkpt lat="45.873862020671368" lon="9.078609980642796">
        <ele>1073</ele>
        <time>2010-06-13T11:49:52Z</time>
      </trkpt>
      <trkpt lat="45.873862020671368" lon="9.078583996742964">
        <ele>1073</ele>
        <time>2010-06-13T11:49:53Z</time>
      </trkpt>
      <trkpt lat="45.873852968215942" lon="9.078571004793048">
        <ele>1073</ele>
        <time>2010-06-13T11:49:54Z</time>
      </trkpt>
      <trkpt lat="45.873852968215942" lon="9.078558012843132">
        <ele>1073</ele>
        <time>2010-06-13T11:49:55Z</time>
      </trkpt>
      <trkpt lat="45.873843999579549" lon="9.078545020893216">
        <ele>1073</ele>
        <time>2010-06-13T11:49:57Z</time>
      </trkpt>
      <trkpt lat="45.873843999579549" lon="9.078545020893216">
        <ele>1073</ele>
        <time>2010-06-13T11:49:58Z</time>
      </trkpt>
      <trkpt lat="45.873835030943155" lon="9.078519959002733">
        <ele>1073</ele>
        <time>2010-06-13T11:49:59Z</time>
      </trkpt>
      <trkpt lat="45.873835030943155" lon="9.078506967052817">
        <ele>1074</ele>
        <time>2010-06-13T11:50:00Z</time>
      </trkpt>
      <trkpt lat="45.87382597848773" lon="9.078480983152986">
        <ele>1074</ele>
        <time>2010-06-13T11:50:03Z</time>
      </trkpt>
      <trkpt lat="45.87382597848773" lon="9.078454999253154">
        <ele>1074</ele>
        <time>2010-06-13T11:50:04Z</time>
      </trkpt>
      <trkpt lat="45.87382597848773" lon="9.078454999253154">
        <ele>1074</ele>
        <time>2010-06-13T11:50:05Z</time>
      </trkpt>
      <trkpt lat="45.873817009851336" lon="9.078442007303238">
        <ele>1074</ele>
        <time>2010-06-13T11:50:06Z</time>
      </trkpt>
      <trkpt lat="45.873817009851336" lon="9.078429015353322">
        <ele>1075</ele>
        <time>2010-06-13T11:50:07Z</time>
      </trkpt>
      <trkpt lat="45.873817009851336" lon="9.078416023403406">
        <ele>1075</ele>
        <time>2010-06-13T11:50:09Z</time>
      </trkpt>
      <trkpt lat="45.873808041214943" lon="9.078390961512923">
        <ele>1075</ele>
        <time>2010-06-13T11:50:10Z</time>
      </trkpt>
      <trkpt lat="45.873798988759518" lon="9.078390961512923">
        <ele>1075</ele>
        <time>2010-06-13T11:50:11Z</time>
      </trkpt>
      <trkpt lat="45.873798988759518" lon="9.078377969563007">
        <ele>1075</ele>
        <time>2010-06-13T11:50:12Z</time>
      </trkpt>
      <trkpt lat="45.873798988759518" lon="9.078364977613092">
        <ele>1076</ele>
        <time>2010-06-13T11:50:13Z</time>
      </trkpt>
      <trkpt lat="45.873791025951505" lon="9.078351985663176">
        <ele>1076</ele>
        <time>2010-06-13T11:50:14Z</time>
      </trkpt>
      <trkpt lat="45.873791025951505" lon="9.07833899371326">
        <ele>1076</ele>
        <time>2010-06-13T11:50:16Z</time>
      </trkpt>
      <trkpt lat="45.873780967667699" lon="9.078313009813428">
        <ele>1076</ele>
        <time>2010-06-13T11:50:17Z</time>
      </trkpt>
      <trkpt lat="45.873771999031305" lon="9.078301023691893">
        <ele>1076</ele>
        <time>2010-06-13T11:50:18Z</time>
      </trkpt>
      <trkpt lat="45.873771999031305" lon="9.078288031741977">
        <ele>1076</ele>
        <time>2010-06-13T11:50:19Z</time>
      </trkpt>
      <trkpt lat="45.873764036223292" lon="9.078288031741977">
        <ele>1077</ele>
        <time>2010-06-13T11:50:20Z</time>
      </trkpt>
      <trkpt lat="45.873764036223292" lon="9.078275039792061">
        <ele>1077</ele>
        <time>2010-06-13T11:50:22Z</time>
      </trkpt>
      <trkpt lat="45.873753977939487" lon="9.078248972073197">
        <ele>1077</ele>
        <time>2010-06-13T11:50:23Z</time>
      </trkpt>
      <trkpt lat="45.873753977939487" lon="9.078235980123282">
        <ele>1077</ele>
        <time>2010-06-13T11:50:24Z</time>
      </trkpt>
      <trkpt lat="45.873753977939487" lon="9.078235980123282">
        <ele>1077</ele>
        <time>2010-06-13T11:50:25Z</time>
      </trkpt>
      <trkpt lat="45.873753977939487" lon="9.07820999622345">
        <ele>1077</ele>
        <time>2010-06-13T11:50:28Z</time>
      </trkpt>
      <trkpt lat="45.873746015131474" lon="9.078197004273534">
        <ele>1078</ele>
        <time>2010-06-13T11:50:29Z</time>
      </trkpt>
      <trkpt lat="45.873736962676048" lon="9.078184012323618">
        <ele>1077</ele>
        <time>2010-06-13T11:50:30Z</time>
      </trkpt>
      <trkpt lat="45.873736962676048" lon="9.078184012323618">
        <ele>1077</ele>
        <time>2010-06-13T11:50:31Z</time>
      </trkpt>
      <trkpt lat="45.873726988211274" lon="9.078172026202083">
        <ele>1078</ele>
        <time>2010-06-13T11:50:32Z</time>
      </trkpt>
      <trkpt lat="45.873726988211274" lon="9.078159034252167">
        <ele>1077</ele>
        <time>2010-06-13T11:50:34Z</time>
      </trkpt>
      <trkpt lat="45.873726988211274" lon="9.078145958483219">
        <ele>1078</ele>
        <time>2010-06-13T11:50:35Z</time>
      </trkpt>
      <trkpt lat="45.873726988211274" lon="9.078132966533303">
        <ele>1078</ele>
        <time>2010-06-13T11:50:36Z</time>
      </trkpt>
      <trkpt lat="45.873719025403261" lon="9.078132966533303">
        <ele>1078</ele>
        <time>2010-06-13T11:50:37Z</time>
      </trkpt>
      <trkpt lat="45.873719025403261" lon="9.078119974583387">
        <ele>1078</ele>
        <time>2010-06-13T11:50:38Z</time>
      </trkpt>
      <trkpt lat="45.873719025403261" lon="9.078106982633472">
        <ele>1078</ele>
        <time>2010-06-13T11:50:40Z</time>
      </trkpt>
      <trkpt lat="45.873709972947836" lon="9.078093990683556">
        <ele>1079</ele>
        <time>2010-06-13T11:50:41Z</time>
      </trkpt>
      <trkpt lat="45.873701004311442" lon="9.07808099873364">
        <ele>1079</ele>
        <time>2010-06-13T11:50:42Z</time>
      </trkpt>
      <trkpt lat="45.873701004311442" lon="9.078068006783724">
        <ele>1079</ele>
        <time>2010-06-13T11:50:43Z</time>
      </trkpt>
      <trkpt lat="45.873692035675049" lon="9.078056020662189">
        <ele>1079</ele>
        <time>2010-06-13T11:50:45Z</time>
      </trkpt>
      <trkpt lat="45.873682983219624" lon="9.078043028712273">
        <ele>1079</ele>
        <time>2010-06-13T11:50:46Z</time>
      </trkpt>
      <trkpt lat="45.87367401458323" lon="9.078030036762357">
        <ele>1079</ele>
        <time>2010-06-13T11:50:47Z</time>
      </trkpt>
      <trkpt lat="45.87367401458323" lon="9.078016960993409">
        <ele>1079</ele>
        <time>2010-06-13T11:50:48Z</time>
      </trkpt>
      <trkpt lat="45.87367401458323" lon="9.078003969043493">
        <ele>1079</ele>
        <time>2010-06-13T11:50:49Z</time>
      </trkpt>
      <trkpt lat="45.873664962127805" lon="9.078003969043493">
        <ele>1079</ele>
        <time>2010-06-13T11:50:50Z</time>
      </trkpt>
      <trkpt lat="45.873664962127805" lon="9.077990977093577">
        <ele>1080</ele>
        <time>2010-06-13T11:50:51Z</time>
      </trkpt>
      <trkpt lat="45.873655993491411" lon="9.077977985143662">
        <ele>1080</ele>
        <time>2010-06-13T11:50:53Z</time>
      </trkpt>
      <trkpt lat="45.873647024855018" lon="9.07795200124383">
        <ele>1081</ele>
        <time>2010-06-13T11:50:54Z</time>
      </trkpt>
      <trkpt lat="45.873647024855018" lon="9.07795200124383">
        <ele>1080</ele>
        <time>2010-06-13T11:50:55Z</time>
      </trkpt>
      <trkpt lat="45.873629003763199" lon="9.077927023172379">
        <ele>1080</ele>
        <time>2010-06-13T11:50:57Z</time>
      </trkpt>
      <trkpt lat="45.873629003763199" lon="9.077914031222463">
        <ele>1081</ele>
        <time>2010-06-13T11:50:59Z</time>
      </trkpt>
      <trkpt lat="45.873620035126805" lon="9.077901039272547">
        <ele>1081</ele>
        <time>2010-06-13T11:51:00Z</time>
      </trkpt>
      <trkpt lat="45.87361098267138" lon="9.077887963503599">
        <ele>1081</ele>
        <time>2010-06-13T11:51:01Z</time>
      </trkpt>
      <trkpt lat="45.87361098267138" lon="9.077874971553683">
        <ele>1081</ele>
        <time>2010-06-13T11:51:02Z</time>
      </trkpt>
      <trkpt lat="45.87361098267138" lon="9.077861979603767">
        <ele>1082</ele>
        <time>2010-06-13T11:51:04Z</time>
      </trkpt>
      <trkpt lat="45.873602014034986" lon="9.077848987653852">
        <ele>1082</ele>
        <time>2010-06-13T11:51:05Z</time>
      </trkpt>
      <trkpt lat="45.873602014034986" lon="9.077835995703936">
        <ele>1082</ele>
        <time>2010-06-13T11:51:06Z</time>
      </trkpt>
      <trkpt lat="45.873592961579561" lon="9.077835995703936">
        <ele>1082</ele>
        <time>2010-06-13T11:51:07Z</time>
      </trkpt>
      <trkpt lat="45.873583992943168" lon="9.077811017632484">
        <ele>1082</ele>
        <time>2010-06-13T11:51:10Z</time>
      </trkpt>
      <trkpt lat="45.873583992943168" lon="9.077798025682569">
        <ele>1084</ele>
        <time>2010-06-13T11:51:11Z</time>
      </trkpt>
      <trkpt lat="45.873583992943168" lon="9.077785033732653">
        <ele>1084</ele>
        <time>2010-06-13T11:51:12Z</time>
      </trkpt>
      <trkpt lat="45.873575024306774" lon="9.077772041782737">
        <ele>1083</ele>
        <time>2010-06-13T11:51:13Z</time>
      </trkpt>
      <trkpt lat="45.873575024306774" lon="9.077772041782737">
        <ele>1083</ele>
        <time>2010-06-13T11:51:14Z</time>
      </trkpt>
      <trkpt lat="45.873575024306774" lon="9.077745974063873">
        <ele>1084</ele>
        <time>2010-06-13T11:51:17Z</time>
      </trkpt>
      <trkpt lat="45.873575024306774" lon="9.077732982113957">
        <ele>1084</ele>
        <time>2010-06-13T11:51:18Z</time>
      </trkpt>
      <trkpt lat="45.873565971851349" lon="9.077719990164042">
        <ele>1084</ele>
        <time>2010-06-13T11:51:19Z</time>
      </trkpt>
      <trkpt lat="45.873565971851349" lon="9.077719990164042">
        <ele>1085</ele>
        <time>2010-06-13T11:51:20Z</time>
      </trkpt>
      <trkpt lat="45.873565971851349" lon="9.077682020142674">
        <ele>1084</ele>
        <time>2010-06-13T11:51:23Z</time>
      </trkpt>
      <trkpt lat="45.873565971851349" lon="9.077669028192759">
        <ele>1084</ele>
        <time>2010-06-13T11:51:24Z</time>
      </trkpt>
      <trkpt lat="45.873557003214955" lon="9.077669028192759">
        <ele>1084</ele>
        <time>2010-06-13T11:51:25Z</time>
      </trkpt>
      <trkpt lat="45.873557003214955" lon="9.077642960473895">
        <ele>1084</ele>
        <time>2010-06-13T11:51:27Z</time>
      </trkpt>
      <trkpt lat="45.873557003214955" lon="9.077629968523979">
        <ele>1084</ele>
        <time>2010-06-13T11:51:28Z</time>
      </trkpt>
      <trkpt lat="45.873557003214955" lon="9.077629968523979">
        <ele>1085</ele>
        <time>2010-06-13T11:51:29Z</time>
      </trkpt>
      <trkpt lat="45.873548034578562" lon="9.077603984624147">
        <ele>1085</ele>
        <time>2010-06-13T11:51:31Z</time>
      </trkpt>
      <trkpt lat="45.873548034578562" lon="9.077590992674232">
        <ele>1085</ele>
        <time>2010-06-13T11:51:33Z</time>
      </trkpt>
      <trkpt lat="45.873538982123137" lon="9.07756601460278">
        <ele>1085</ele>
        <time>2010-06-13T11:51:34Z</time>
      </trkpt>
      <trkpt lat="45.873538982123137" lon="9.07756601460278">
        <ele>1085</ele>
        <time>2010-06-13T11:51:35Z</time>
      </trkpt>
      <trkpt lat="45.873538982123137" lon="9.077553022652865">
        <ele>1086</ele>
        <time>2010-06-13T11:51:36Z</time>
      </trkpt>
      <trkpt lat="45.873530013486743" lon="9.077540030702949">
        <ele>1086</ele>
        <time>2010-06-13T11:51:37Z</time>
      </trkpt>
      <trkpt lat="45.873530013486743" lon="9.077527038753033">
        <ele>1086</ele>
        <time>2010-06-13T11:51:39Z</time>
      </trkpt>
      <trkpt lat="45.873530013486743" lon="9.077500971034169">
        <ele>1086</ele>
        <time>2010-06-13T11:51:40Z</time>
      </trkpt>
      <trkpt lat="45.873520961031318" lon="9.077487979084253">
        <ele>1086</ele>
        <time>2010-06-13T11:51:41Z</time>
      </trkpt>
      <trkpt lat="45.873520961031318" lon="9.077475992962718">
        <ele>1087</ele>
        <time>2010-06-13T11:51:42Z</time>
      </trkpt>
      <trkpt lat="45.873520961031318" lon="9.077475992962718">
        <ele>1087</ele>
        <time>2010-06-13T11:51:43Z</time>
      </trkpt>
      <trkpt lat="45.873520961031318" lon="9.077450009062886">
        <ele>1086</ele>
        <time>2010-06-13T11:51:45Z</time>
      </trkpt>
      <trkpt lat="45.873520961031318" lon="9.077411033213139">
        <ele>1087</ele>
        <time>2010-06-13T11:51:49Z</time>
      </trkpt>
      <trkpt lat="45.873530013486743" lon="9.077371973544359">
        <ele>1088</ele>
        <time>2010-06-13T11:51:52Z</time>
      </trkpt>
      <trkpt lat="45.873520961031318" lon="9.077334003522992">
        <ele>1086</ele>
        <time>2010-06-13T11:51:56Z</time>
      </trkpt>
      <trkpt lat="45.873520961031318" lon="9.077321011573076">
        <ele>1087</ele>
        <time>2010-06-13T11:51:57Z</time>
      </trkpt>
      <trkpt lat="45.873520961031318" lon="9.07730801962316">
        <ele>1088</ele>
        <time>2010-06-13T11:51:58Z</time>
      </trkpt>
      <trkpt lat="45.873520961031318" lon="9.07730801962316">
        <ele>1089</ele>
        <time>2010-06-13T11:52:00Z</time>
      </trkpt>
      <trkpt lat="45.873511992394924" lon="9.077282035723329">
        <ele>1089</ele>
        <time>2010-06-13T11:52:01Z</time>
      </trkpt>
      <trkpt lat="45.873511992394924" lon="9.077268959954381">
        <ele>1088</ele>
        <time>2010-06-13T11:52:02Z</time>
      </trkpt>
      <trkpt lat="45.873511992394924" lon="9.077255968004465">
        <ele>1089</ele>
        <time>2010-06-13T11:52:03Z</time>
      </trkpt>
      <trkpt lat="45.873511992394924" lon="9.07724398188293">
        <ele>1089</ele>
        <time>2010-06-13T11:52:04Z</time>
      </trkpt>
      <trkpt lat="45.873511992394924" lon="9.077217997983098">
        <ele>1089</ele>
        <time>2010-06-13T11:52:07Z</time>
      </trkpt>
      <trkpt lat="45.873503023758531" lon="9.077205006033182">
        <ele>1089</ele>
        <time>2010-06-13T11:52:08Z</time>
      </trkpt>
      <trkpt lat="45.873503023758531" lon="9.077192014083266">
        <ele>1089</ele>
        <time>2010-06-13T11:52:09Z</time>
      </trkpt>
      <trkpt lat="45.873503023758531" lon="9.07717902213335">
        <ele>1089</ele>
        <time>2010-06-13T11:52:10Z</time>
      </trkpt>
      <trkpt lat="45.873503023758531" lon="9.077153038233519">
        <ele>1089</ele>
        <time>2010-06-13T11:52:12Z</time>
      </trkpt>
      <trkpt lat="45.873493971303105" lon="9.077140968292952">
        <ele>1090</ele>
        <time>2010-06-13T11:52:13Z</time>
      </trkpt>
      <trkpt lat="45.873493971303105" lon="9.077126970514655">
        <ele>1090</ele>
        <time>2010-06-13T11:52:14Z</time>
      </trkpt>
      <trkpt lat="45.873493971303105" lon="9.077101992443204">
        <ele>1090</ele>
        <time>2010-06-13T11:52:18Z</time>
      </trkpt>
      <trkpt lat="45.873503023758531" lon="9.077089000493288">
        <ele>1090</ele>
        <time>2010-06-13T11:52:19Z</time>
      </trkpt>
      <trkpt lat="45.873503023758531" lon="9.077076008543372">
        <ele>1090</ele>
        <time>2010-06-13T11:52:20Z</time>
      </trkpt>
      <trkpt lat="45.873503023758531" lon="9.07705002464354">
        <ele>1090</ele>
        <time>2010-06-13T11:52:24Z</time>
      </trkpt>
      <trkpt lat="45.873493971303105" lon="9.077024040743709">
        <ele>1090</ele>
        <time>2010-06-13T11:52:25Z</time>
      </trkpt>
      <trkpt lat="45.873493971303105" lon="9.076998978853226">
        <ele>1091</ele>
        <time>2010-06-13T11:52:27Z</time>
      </trkpt>
      <trkpt lat="45.873493971303105" lon="9.076972994953394">
        <ele>1091</ele>
        <time>2010-06-13T11:52:30Z</time>
      </trkpt>
      <trkpt lat="45.873493971303105" lon="9.076960003003478">
        <ele>1091</ele>
        <time>2010-06-13T11:52:31Z</time>
      </trkpt>
      <trkpt lat="45.873493971303105" lon="9.076960003003478">
        <ele>1092</ele>
        <time>2010-06-13T11:52:32Z</time>
      </trkpt>
      <trkpt lat="45.873493971303105" lon="9.076947011053562">
        <ele>1092</ele>
        <time>2010-06-13T11:52:33Z</time>
      </trkpt>
      <trkpt lat="45.873493971303105" lon="9.076934019103646">
        <ele>1092</ele>
        <time>2010-06-13T11:52:35Z</time>
      </trkpt>
      <trkpt lat="45.873503023758531" lon="9.076895965263248">
        <ele>1093</ele>
        <time>2010-06-13T11:52:38Z</time>
      </trkpt>
      <trkpt lat="45.873493971303105" lon="9.076895965263248">
        <ele>1093</ele>
        <time>2010-06-13T11:52:40Z</time>
      </trkpt>
      <trkpt lat="45.873493971303105" lon="9.076869981363416">
        <ele>1093</ele>
        <time>2010-06-13T11:52:41Z</time>
      </trkpt>
      <trkpt lat="45.873486008495092" lon="9.0768569894135">
        <ele>1093</ele>
        <time>2010-06-13T11:52:44Z</time>
      </trkpt>
      <trkpt lat="45.873486008495092" lon="9.076843997463584">
        <ele>1092</ele>
        <time>2010-06-13T11:52:45Z</time>
      </trkpt>
      <trkpt lat="45.873486008495092" lon="9.076818013563752">
        <ele>1093</ele>
        <time>2010-06-13T11:52:46Z</time>
      </trkpt>
      <trkpt lat="45.873476034030318" lon="9.076805021613836">
        <ele>1093</ele>
        <time>2010-06-13T11:52:47Z</time>
      </trkpt>
      <trkpt lat="45.873476034030318" lon="9.07679202966392">
        <ele>1093</ele>
        <time>2010-06-13T11:52:48Z</time>
      </trkpt>
      <trkpt lat="45.873476034030318" lon="9.076779959723353">
        <ele>1094</ele>
        <time>2010-06-13T11:52:50Z</time>
      </trkpt>
      <trkpt lat="45.873466981574893" lon="9.076753975823522">
        <ele>1094</ele>
        <time>2010-06-13T11:52:51Z</time>
      </trkpt>
      <trkpt lat="45.873476034030318" lon="9.07672799192369">
        <ele>1094</ele>
        <time>2010-06-13T11:52:53Z</time>
      </trkpt>
      <trkpt lat="45.873476034030318" lon="9.07672799192369">
        <ele>1094</ele>
        <time>2010-06-13T11:52:54Z</time>
      </trkpt>
      <trkpt lat="45.873477039858699" lon="9.076714999973774">
        <ele>1094</ele>
        <time>2010-06-13T11:52:56Z</time>
      </trkpt>
      <trkpt lat="45.873477039858699" lon="9.076689016073942">
        <ele>1095</ele>
        <time>2010-06-13T11:52:57Z</time>
      </trkpt>
      <trkpt lat="45.873486008495092" lon="9.076677029952407">
        <ele>1095</ele>
        <time>2010-06-13T11:52:58Z</time>
      </trkpt>
      <trkpt lat="45.873486008495092" lon="9.076664038002491">
        <ele>1094</ele>
        <time>2010-06-13T11:52:59Z</time>
      </trkpt>
      <trkpt lat="45.873486008495092" lon="9.076637970283628">
        <ele>1095</ele>
        <time>2010-06-13T11:53:02Z</time>
      </trkpt>
      <trkpt lat="45.873494977131486" lon="9.076611986383796">
        <ele>1095</ele>
        <time>2010-06-13T11:53:03Z</time>
      </trkpt>
      <trkpt lat="45.873504029586911" lon="9.07659899443388">
        <ele>1095</ele>
        <time>2010-06-13T11:53:04Z</time>
      </trkpt>
      <trkpt lat="45.873504029586911" lon="9.076586002483964">
        <ele>1095</ele>
        <time>2010-06-13T11:53:05Z</time>
      </trkpt>
      <trkpt lat="45.873504029586911" lon="9.076574016362429">
        <ele>1095</ele>
        <time>2010-06-13T11:53:06Z</time>
      </trkpt>
      <trkpt lat="45.873504029586911" lon="9.076574016362429">
        <ele>1095</ele>
        <time>2010-06-13T11:53:07Z</time>
      </trkpt>
      <trkpt lat="45.873511992394924" lon="9.076561024412513">
        <ele>1095</ele>
        <time>2010-06-13T11:53:09Z</time>
      </trkpt>
      <trkpt lat="45.873512998223305" lon="9.076535040512681">
        <ele>1095</ele>
        <time>2010-06-13T11:53:10Z</time>
      </trkpt>
      <trkpt lat="45.873512998223305" lon="9.076508972793818">
        <ele>1096</ele>
        <time>2010-06-13T11:53:12Z</time>
      </trkpt>
      <trkpt lat="45.873512998223305" lon="9.076508972793818">
        <ele>1096</ele>
        <time>2010-06-13T11:53:13Z</time>
      </trkpt>
      <trkpt lat="45.873512998223305" lon="9.076482988893986">
        <ele>1096</ele>
        <time>2010-06-13T11:53:16Z</time>
      </trkpt>
      <trkpt lat="45.873521966859698" lon="9.076458010822535">
        <ele>1097</ele>
        <time>2010-06-13T11:53:19Z</time>
      </trkpt>
      <trkpt lat="45.873521966859698" lon="9.076432026922703">
        <ele>1097</ele>
        <time>2010-06-13T11:53:21Z</time>
      </trkpt>
      <trkpt lat="45.873521966859698" lon="9.076419034972787">
        <ele>1097</ele>
        <time>2010-06-13T11:53:22Z</time>
      </trkpt>
      <trkpt lat="45.873521966859698" lon="9.076405959203839">
        <ele>1097</ele>
        <time>2010-06-13T11:53:24Z</time>
      </trkpt>
      <trkpt lat="45.873521966859698" lon="9.076392967253923">
        <ele>1098</ele>
        <time>2010-06-13T11:53:26Z</time>
      </trkpt>
      <trkpt lat="45.873512998223305" lon="9.076366983354092">
        <ele>1098</ele>
        <time>2010-06-13T11:53:27Z</time>
      </trkpt>
      <trkpt lat="45.873512998223305" lon="9.076366983354092">
        <ele>1098</ele>
        <time>2010-06-13T11:53:28Z</time>
      </trkpt>
      <trkpt lat="45.873512998223305" lon="9.076353991404176">
        <ele>1098</ele>
        <time>2010-06-13T11:53:29Z</time>
      </trkpt>
      <trkpt lat="45.873512998223305" lon="9.076353991404176">
        <ele>1098</ele>
        <time>2010-06-13T11:53:31Z</time>
      </trkpt>
      <trkpt lat="45.873521966859698" lon="9.076329013332725">
        <ele>1099</ele>
        <time>2010-06-13T11:53:32Z</time>
      </trkpt>
      <trkpt lat="45.873521966859698" lon="9.076316021382809">
        <ele>1098</ele>
        <time>2010-06-13T11:53:34Z</time>
      </trkpt>
      <trkpt lat="45.873521966859698" lon="9.076303029432893">
        <ele>1098</ele>
        <time>2010-06-13T11:53:35Z</time>
      </trkpt>
      <trkpt lat="45.873531019315124" lon="9.076290037482977">
        <ele>1098</ele>
        <time>2010-06-13T11:53:36Z</time>
      </trkpt>
      <trkpt lat="45.873531019315124" lon="9.076276961714029">
        <ele>1099</ele>
        <time>2010-06-13T11:53:37Z</time>
      </trkpt>
      <trkpt lat="45.873531019315124" lon="9.076238991692662">
        <ele>1101</ele>
        <time>2010-06-13T11:53:41Z</time>
      </trkpt>
      <trkpt lat="45.873531019315124" lon="9.076200015842915">
        <ele>1100</ele>
        <time>2010-06-13T11:53:44Z</time>
      </trkpt>
      <trkpt lat="45.873531019315124" lon="9.076174031943083">
        <ele>1100</ele>
        <time>2010-06-13T11:53:47Z</time>
      </trkpt>
      <trkpt lat="45.873531019315124" lon="9.076147964224219">
        <ele>1101</ele>
        <time>2010-06-13T11:53:48Z</time>
      </trkpt>
      <trkpt lat="45.873531019315124" lon="9.076121980324388">
        <ele>1101</ele>
        <time>2010-06-13T11:53:50Z</time>
      </trkpt>
      <trkpt lat="45.873531019315124" lon="9.076121980324388">
        <ele>1101</ele>
        <time>2010-06-13T11:53:51Z</time>
      </trkpt>
      <trkpt lat="45.873531019315124" lon="9.076109994202852">
        <ele>1101</ele>
        <time>2010-06-13T11:53:52Z</time>
      </trkpt>
      <trkpt lat="45.873531019315124" lon="9.076097002252936">
        <ele>1101</ele>
        <time>2010-06-13T11:53:53Z</time>
      </trkpt>
      <trkpt lat="45.873531019315124" lon="9.076084010303021">
        <ele>1102</ele>
        <time>2010-06-13T11:53:54Z</time>
      </trkpt>
      <trkpt lat="45.873531019315124" lon="9.076071018353105">
        <ele>1102</ele>
        <time>2010-06-13T11:53:55Z</time>
      </trkpt>
      <trkpt lat="45.873531019315124" lon="9.076071018353105">
        <ele>1102</ele>
        <time>2010-06-13T11:53:56Z</time>
      </trkpt>
      <trkpt lat="45.873494977131486" lon="9.075929028913379">
        <ele>1104</ele>
        <time>2010-06-13T11:54:17Z</time>
      </trkpt>
      <trkpt lat="45.873494977131486" lon="9.075929028913379">
        <ele>1104</ele>
        <time>2010-06-13T11:54:19Z</time>
      </trkpt>
      <trkpt lat="45.873486008495092" lon="9.075942020863295">
        <ele>1104</ele>
        <time>2010-06-13T11:54:20Z</time>
      </trkpt>
      <trkpt lat="45.873486008495092" lon="9.075968004763126">
        <ele>1104</ele>
        <time>2010-06-13T11:54:21Z</time>
      </trkpt>
      <trkpt lat="45.873486008495092" lon="9.075980996713042">
        <ele>1104</ele>
        <time>2010-06-13T11:54:22Z</time>
      </trkpt>
      <trkpt lat="45.873477039858699" lon="9.075993988662958">
        <ele>1104</ele>
        <time>2010-06-13T11:54:24Z</time>
      </trkpt>
      <trkpt lat="45.873467987403274" lon="9.075993988662958">
        <ele>1105</ele>
        <time>2010-06-13T11:54:25Z</time>
      </trkpt>
      <trkpt lat="45.87345901876688" lon="9.076018966734409">
        <ele>1105</ele>
        <time>2010-06-13T11:54:26Z</time>
      </trkpt>
      <trkpt lat="45.87345901876688" lon="9.076031958684325">
        <ele>1104</ele>
        <time>2010-06-13T11:54:27Z</time>
      </trkpt>
      <trkpt lat="45.873449966311455" lon="9.076045034453273">
        <ele>1105</ele>
        <time>2010-06-13T11:54:28Z</time>
      </trkpt>
      <trkpt lat="45.873440997675061" lon="9.076045034453273">
        <ele>1105</ele>
        <time>2010-06-13T11:54:29Z</time>
      </trkpt>
      <trkpt lat="45.873440997675061" lon="9.076058026403189">
        <ele>1105</ele>
        <time>2010-06-13T11:54:31Z</time>
      </trkpt>
      <trkpt lat="45.873414007946849" lon="9.076071018353105">
        <ele>1105</ele>
        <time>2010-06-13T11:54:32Z</time>
      </trkpt>
      <trkpt lat="45.873414007946849" lon="9.076084010303021">
        <ele>1105</ele>
        <time>2010-06-13T11:54:33Z</time>
      </trkpt>
      <trkpt lat="45.873414007946849" lon="9.076108988374472">
        <ele>1105</ele>
        <time>2010-06-13T11:54:36Z</time>
      </trkpt>
      <trkpt lat="45.87339598685503" lon="9.076121980324388">
        <ele>1105</ele>
        <time>2010-06-13T11:54:37Z</time>
      </trkpt>
      <trkpt lat="45.873387018218637" lon="9.076121980324388">
        <ele>1105</ele>
        <time>2010-06-13T11:54:38Z</time>
      </trkpt>
      <trkpt lat="45.873377965763211" lon="9.076121980324388">
        <ele>1106</ele>
        <time>2010-06-13T11:54:39Z</time>
      </trkpt>
      <trkpt lat="45.873368997126818" lon="9.076134972274303">
        <ele>1106</ele>
        <time>2010-06-13T11:54:40Z</time>
      </trkpt>
      <trkpt lat="45.873360028490424" lon="9.076134972274303">
        <ele>1105</ele>
        <time>2010-06-13T11:54:41Z</time>
      </trkpt>
      <trkpt lat="45.873350976034999" lon="9.076134972274303">
        <ele>1106</ele>
        <time>2010-06-13T11:54:43Z</time>
      </trkpt>
      <trkpt lat="45.873323986306787" lon="9.076134972274303">
        <ele>1105</ele>
        <time>2010-06-13T11:54:45Z</time>
      </trkpt>
      <trkpt lat="45.873315017670393" lon="9.076134972274303">
        <ele>1106</ele>
        <time>2010-06-13T11:54:47Z</time>
      </trkpt>
      <trkpt lat="45.873305965214968" lon="9.076121980324388">
        <ele>1106</ele>
        <time>2010-06-13T11:54:49Z</time>
      </trkpt>
      <trkpt lat="45.873278975486755" lon="9.076095996424556">
        <ele>1106</ele>
        <time>2010-06-13T11:54:50Z</time>
      </trkpt>
      <trkpt lat="45.873270006850362" lon="9.076071018353105">
        <ele>1106</ele>
        <time>2010-06-13T11:54:51Z</time>
      </trkpt>
      <trkpt lat="45.873270006850362" lon="9.076018966734409">
        <ele>1105</ele>
        <time>2010-06-13T11:54:53Z</time>
      </trkpt>
      <trkpt lat="45.873278975486755" lon="9.075980996713042">
        <ele>1104</ele>
        <time>2010-06-13T11:54:54Z</time>
      </trkpt>
      <trkpt lat="45.873296996578574" lon="9.075955012813211">
        <ele>1105</ele>
        <time>2010-06-13T11:54:55Z</time>
      </trkpt>
      <trkpt lat="45.873305965214968" lon="9.075929028913379">
        <ele>1105</ele>
        <time>2010-06-13T11:54:56Z</time>
      </trkpt>
      <trkpt lat="45.873323986306787" lon="9.075902961194515">
        <ele>1105</ele>
        <time>2010-06-13T11:54:57Z</time>
      </trkpt>
      <trkpt lat="45.873333038762212" lon="9.075876977294684">
        <ele>1105</ele>
        <time>2010-06-13T11:54:58Z</time>
      </trkpt>
      <trkpt lat="45.873342007398605" lon="9.075864991173148">
        <ele>1105</ele>
        <time>2010-06-13T11:54:59Z</time>
      </trkpt>
      <trkpt lat="45.873360028490424" lon="9.075839007273316">
        <ele>1105</ele>
        <time>2010-06-13T11:55:01Z</time>
      </trkpt>
      <trkpt lat="45.873387018218637" lon="9.075800031423569">
        <ele>1105</ele>
        <time>2010-06-13T11:55:02Z</time>
      </trkpt>
      <trkpt lat="45.873405039310455" lon="9.075773963704705">
        <ele>1105</ele>
        <time>2010-06-13T11:55:03Z</time>
      </trkpt>
      <trkpt lat="45.873414007946849" lon="9.075748985633254">
        <ele>1105</ele>
        <time>2010-06-13T11:55:04Z</time>
      </trkpt>
      <trkpt lat="45.873422976583242" lon="9.075723001733422">
        <ele>1105</ele>
        <time>2010-06-13T11:55:05Z</time>
      </trkpt>
      <trkpt lat="45.873440997675061" lon="9.075697017833591">
        <ele>1105</ele>
        <time>2010-06-13T11:55:06Z</time>
      </trkpt>
      <trkpt lat="45.873449966311455" lon="9.075658963993192">
        <ele>1105</ele>
        <time>2010-06-13T11:55:08Z</time>
      </trkpt>
      <trkpt lat="45.873467987403274" lon="9.075606996193528">
        <ele>1106</ele>
        <time>2010-06-13T11:55:09Z</time>
      </trkpt>
      <trkpt lat="45.873477039858699" lon="9.075581012293696">
        <ele>1105</ele>
        <time>2010-06-13T11:55:10Z</time>
      </trkpt>
      <trkpt lat="45.873494977131486" lon="9.075556034222245">
        <ele>1105</ele>
        <time>2010-06-13T11:55:11Z</time>
      </trkpt>
      <trkpt lat="45.873512998223305" lon="9.075529966503382">
        <ele>1105</ele>
        <time>2010-06-13T11:55:12Z</time>
      </trkpt>
      <trkpt lat="45.873521966859698" lon="9.07550398260355">
        <ele>1105</ele>
        <time>2010-06-13T11:55:14Z</time>
      </trkpt>
      <trkpt lat="45.873539987951517" lon="9.075466012582183">
        <ele>1105</ele>
        <time>2010-06-13T11:55:15Z</time>
      </trkpt>
      <trkpt lat="45.873549040406942" lon="9.075440028682351">
        <ele>1105</ele>
        <time>2010-06-13T11:55:16Z</time>
      </trkpt>
      <trkpt lat="45.87356798350811" lon="9.075413960963488">
        <ele>1105</ele>
        <time>2010-06-13T11:55:17Z</time>
      </trkpt>
      <trkpt lat="45.873576030135155" lon="9.075400969013572">
        <ele>1106</ele>
        <time>2010-06-13T11:55:18Z</time>
      </trkpt>
      <trkpt lat="45.873586004599929" lon="9.07537498511374">
        <ele>1106</ele>
        <time>2010-06-13T11:55:20Z</time>
      </trkpt>
      <trkpt lat="45.873612994328141" lon="9.075324023142457">
        <ele>1105</ele>
        <time>2010-06-13T11:55:21Z</time>
      </trkpt>
      <trkpt lat="45.873621040955186" lon="9.075311031192541">
        <ele>1105</ele>
        <time>2010-06-13T11:55:22Z</time>
      </trkpt>
      <trkpt lat="45.87363101541996" lon="9.075271971523762">
        <ele>1105</ele>
        <time>2010-06-13T11:55:23Z</time>
      </trkpt>
      <trkpt lat="45.873638978227973" lon="9.075246993452311">
        <ele>1105</ele>
        <time>2010-06-13T11:55:24Z</time>
      </trkpt>
      <trkpt lat="45.873658005148172" lon="9.075208017602563">
        <ele>1105</ele>
        <time>2010-06-13T11:55:26Z</time>
      </trkpt>
      <trkpt lat="45.873666973784566" lon="9.075117995962501">
        <ele>1105</ele>
        <time>2010-06-13T11:55:27Z</time>
      </trkpt>
      <trkpt lat="45.873676026239991" lon="9.075079020112753">
        <ele>1105</ele>
        <time>2010-06-13T11:55:28Z</time>
      </trkpt>
      <trkpt lat="45.873684994876385" lon="9.075053036212921">
        <ele>1105</ele>
        <time>2010-06-13T11:55:29Z</time>
      </trkpt>
      <trkpt lat="45.873684994876385" lon="9.075026968494058">
        <ele>1105</ele>
        <time>2010-06-13T11:55:30Z</time>
      </trkpt>
      <trkpt lat="45.873693963512778" lon="9.075001990422607">
        <ele>1105</ele>
        <time>2010-06-13T11:55:32Z</time>
      </trkpt>
      <trkpt lat="45.873693963512778" lon="9.074950022622943">
        <ele>1105</ele>
        <time>2010-06-13T11:55:33Z</time>
      </trkpt>
      <trkpt lat="45.873703015968204" lon="9.074924038723111">
        <ele>1104</ele>
        <time>2010-06-13T11:55:34Z</time>
      </trkpt>
      <trkpt lat="45.873703015968204" lon="9.074898976832628">
        <ele>1105</ele>
        <time>2010-06-13T11:55:35Z</time>
      </trkpt>
      <trkpt lat="45.873703015968204" lon="9.074872992932797">
        <ele>1105</ele>
        <time>2010-06-13T11:55:36Z</time>
      </trkpt>
      <trkpt lat="45.873703015968204" lon="9.074847009032965">
        <ele>1106</ele>
        <time>2010-06-13T11:55:38Z</time>
      </trkpt>
      <trkpt lat="45.873703015968204" lon="9.074809039011598">
        <ele>1105</ele>
        <time>2010-06-13T11:55:39Z</time>
      </trkpt>
      <trkpt lat="45.873703015968204" lon="9.074769979342818">
        <ele>1106</ele>
        <time>2010-06-13T11:55:41Z</time>
      </trkpt>
      <trkpt lat="45.873703015968204" lon="9.074731003493071">
        <ele>1107</ele>
        <time>2010-06-13T11:55:44Z</time>
      </trkpt>
      <trkpt lat="45.873703015968204" lon="9.074692027643323">
        <ele>1107</ele>
        <time>2010-06-13T11:55:45Z</time>
      </trkpt>
      <trkpt lat="45.873703015968204" lon="9.074653973802924">
        <ele>1107</ele>
        <time>2010-06-13T11:55:47Z</time>
      </trkpt>
      <trkpt lat="45.873703015968204" lon="9.074640981853008">
        <ele>1107</ele>
        <time>2010-06-13T11:55:48Z</time>
      </trkpt>
      <trkpt lat="45.873703015968204" lon="9.074614997953177">
        <ele>1108</ele>
        <time>2010-06-13T11:55:50Z</time>
      </trkpt>
      <trkpt lat="45.873703015968204" lon="9.074589014053345">
        <ele>1108</ele>
        <time>2010-06-13T11:55:51Z</time>
      </trkpt>
      <trkpt lat="45.873703015968204" lon="9.074577027931809">
        <ele>1108</ele>
        <time>2010-06-13T11:55:52Z</time>
      </trkpt>
      <trkpt lat="45.873711984604597" lon="9.074550960212946">
        <ele>1108</ele>
        <time>2010-06-13T11:55:53Z</time>
      </trkpt>
      <trkpt lat="45.873703015968204" lon="9.074524976313114">
        <ele>1108</ele>
        <time>2010-06-13T11:55:55Z</time>
      </trkpt>
      <trkpt lat="45.873711984604597" lon="9.074486000463367">
        <ele>1109</ele>
        <time>2010-06-13T11:55:56Z</time>
      </trkpt>
      <trkpt lat="45.873711984604597" lon="9.074461022391915">
        <ele>1109</ele>
        <time>2010-06-13T11:55:57Z</time>
      </trkpt>
      <trkpt lat="45.873721037060022" lon="9.074448030441999">
        <ele>1109</ele>
        <time>2010-06-13T11:55:58Z</time>
      </trkpt>
      <trkpt lat="45.873721037060022" lon="9.074435038492084">
        <ele>1109</ele>
        <time>2010-06-13T11:55:59Z</time>
      </trkpt>
      <trkpt lat="45.873721037060022" lon="9.074319032952189">
        <ele>1110</ele>
        <time>2010-06-13T11:56:05Z</time>
      </trkpt>
      <trkpt lat="45.873711984604597" lon="9.074306041002274">
        <ele>1110</ele>
        <time>2010-06-13T11:56:06Z</time>
      </trkpt>
      <trkpt lat="45.873711984604597" lon="9.07427997328341">
        <ele>1111</ele>
        <time>2010-06-13T11:56:08Z</time>
      </trkpt>
      <trkpt lat="45.873703015968204" lon="9.074253989383578">
        <ele>1111</ele>
        <time>2010-06-13T11:56:09Z</time>
      </trkpt>
      <trkpt lat="45.873703015968204" lon="9.074203027412295">
        <ele>1111</ele>
        <time>2010-06-13T11:56:11Z</time>
      </trkpt>
      <trkpt lat="45.873703015968204" lon="9.07419003546238">
        <ele>1111</ele>
        <time>2010-06-13T11:56:13Z</time>
      </trkpt>
      <trkpt lat="45.873703015968204" lon="9.074113005772233">
        <ele>1112</ele>
        <time>2010-06-13T11:56:16Z</time>
      </trkpt>
      <trkpt lat="45.873703015968204" lon="9.074100013822317">
        <ele>1112</ele>
        <time>2010-06-13T11:56:17Z</time>
      </trkpt>
      <trkpt lat="45.873703015968204" lon="9.074087021872401">
        <ele>1112</ele>
        <time>2010-06-13T11:56:19Z</time>
      </trkpt>
      <trkpt lat="45.873703015968204" lon="9.07402197830379">
        <ele>1112</ele>
        <time>2010-06-13T11:56:21Z</time>
      </trkpt>
      <trkpt lat="45.873703015968204" lon="9.074009992182255">
        <ele>1112</ele>
        <time>2010-06-13T11:56:22Z</time>
      </trkpt>
      <trkpt lat="45.873703015968204" lon="9.073984008282423">
        <ele>1112</ele>
        <time>2010-06-13T11:56:23Z</time>
      </trkpt>
      <trkpt lat="45.873703015968204" lon="9.073958024382591">
        <ele>1112</ele>
        <time>2010-06-13T11:56:24Z</time>
      </trkpt>
      <trkpt lat="45.873711984604597" lon="9.073945032432675">
        <ele>1113</ele>
        <time>2010-06-13T11:56:25Z</time>
      </trkpt>
      <trkpt lat="45.873711984604597" lon="9.073918964713812">
        <ele>1113</ele>
        <time>2010-06-13T11:56:26Z</time>
      </trkpt>
      <trkpt lat="45.873721037060022" lon="9.073906978592277">
        <ele>1113</ele>
        <time>2010-06-13T11:56:27Z</time>
      </trkpt>
      <trkpt lat="45.873721037060022" lon="9.073893986642361">
        <ele>1113</ele>
        <time>2010-06-13T11:56:28Z</time>
      </trkpt>
      <trkpt lat="45.873731011524796" lon="9.073868002742529">
        <ele>1113</ele>
        <time>2010-06-13T11:56:29Z</time>
      </trkpt>
      <trkpt lat="45.873731011524796" lon="9.073855010792613">
        <ele>1113</ele>
        <time>2010-06-13T11:56:30Z</time>
      </trkpt>
      <trkpt lat="45.873748026788235" lon="9.073842018842697">
        <ele>1113</ele>
        <time>2010-06-13T11:56:32Z</time>
      </trkpt>
      <trkpt lat="45.873756995424628" lon="9.073803965002298">
        <ele>1113</ele>
        <time>2010-06-13T11:56:33Z</time>
      </trkpt>
      <trkpt lat="45.873765964061022" lon="9.073790973052383">
        <ele>1113</ele>
        <time>2010-06-13T11:56:34Z</time>
      </trkpt>
      <trkpt lat="45.873776022344828" lon="9.073777981102467">
        <ele>1113</ele>
        <time>2010-06-13T11:56:35Z</time>
      </trkpt>
      <trkpt lat="45.873776022344828" lon="9.073764989152551">
        <ele>1113</ele>
        <time>2010-06-13T11:56:37Z</time>
      </trkpt>
      <trkpt lat="45.873783985152841" lon="9.073739005252719">
        <ele>1114</ele>
        <time>2010-06-13T11:56:38Z</time>
      </trkpt>
      <trkpt lat="45.873783985152841" lon="9.073726013302803">
        <ele>1114</ele>
        <time>2010-06-13T11:56:39Z</time>
      </trkpt>
      <trkpt lat="45.873783985152841" lon="9.073701035231352">
        <ele>1114</ele>
        <time>2010-06-13T11:56:40Z</time>
      </trkpt>
      <trkpt lat="45.873793959617615" lon="9.073687959462404">
        <ele>1114</ele>
        <time>2010-06-13T11:56:41Z</time>
      </trkpt>
      <trkpt lat="45.873802006244659" lon="9.073687959462404">
        <ele>1114</ele>
        <time>2010-06-13T11:56:43Z</time>
      </trkpt>
      <trkpt lat="45.873802006244659" lon="9.073648983612657">
        <ele>1114</ele>
        <time>2010-06-13T11:56:44Z</time>
      </trkpt>
      <trkpt lat="45.873802006244659" lon="9.073635991662741">
        <ele>1115</ele>
        <time>2010-06-13T11:56:45Z</time>
      </trkpt>
      <trkpt lat="45.873811980709434" lon="9.073598021641374">
        <ele>1115</ele>
        <time>2010-06-13T11:56:48Z</time>
      </trkpt>
      <trkpt lat="45.873830001801252" lon="9.073585029691458">
        <ele>1115</ele>
        <time>2010-06-13T11:56:49Z</time>
      </trkpt>
      <trkpt lat="45.873830001801252" lon="9.073558961972594">
        <ele>1115</ele>
        <time>2010-06-13T11:56:52Z</time>
      </trkpt>
      <trkpt lat="45.873848022893071" lon="9.073532978072763">
        <ele>1115</ele>
        <time>2010-06-13T11:56:53Z</time>
      </trkpt>
      <trkpt lat="45.873856991529465" lon="9.073519986122847">
        <ele>1115</ele>
        <time>2010-06-13T11:56:54Z</time>
      </trkpt>
      <trkpt lat="45.873856991529465" lon="9.073519986122847">
        <ele>1116</ele>
        <time>2010-06-13T11:56:55Z</time>
      </trkpt>
      <trkpt lat="45.873848022893071" lon="9.073519986122847">
        <ele>1116</ele>
        <time>2010-06-13T11:56:56Z</time>
      </trkpt>
      <trkpt lat="45.873848022893071" lon="9.07348201610148">
        <ele>1116</ele>
        <time>2010-06-13T11:56:58Z</time>
      </trkpt>
      <trkpt lat="45.873848022893071" lon="9.073469024151564">
        <ele>1116</ele>
        <time>2010-06-13T11:56:59Z</time>
      </trkpt>
      <trkpt lat="45.873848022893071" lon="9.073456032201648">
        <ele>1116</ele>
        <time>2010-06-13T11:57:00Z</time>
      </trkpt>
      <trkpt lat="45.873856991529465" lon="9.073443040251732">
        <ele>1116</ele>
        <time>2010-06-13T11:57:01Z</time>
      </trkpt>
      <trkpt lat="45.873856991529465" lon="9.073443040251732">
        <ele>1116</ele>
        <time>2010-06-13T11:57:03Z</time>
      </trkpt>
      <trkpt lat="45.873865960165858" lon="9.073416972532868">
        <ele>1117</ele>
        <time>2010-06-13T11:57:04Z</time>
      </trkpt>
      <trkpt lat="45.873920023441315" lon="9.073030985891819">
        <ele>1119</ele>
        <time>2010-06-13T11:57:30Z</time>
      </trkpt>
      <trkpt lat="45.873920023441315" lon="9.072992010042071">
        <ele>1120</ele>
        <time>2010-06-13T11:57:32Z</time>
      </trkpt>
      <trkpt lat="45.873920023441315" lon="9.072979018092156">
        <ele>1119</ele>
        <time>2010-06-13T11:57:34Z</time>
      </trkpt>
      <trkpt lat="45.873928992077708" lon="9.072953034192324">
        <ele>1120</ele>
        <time>2010-06-13T11:57:35Z</time>
      </trkpt>
      <trkpt lat="45.873928992077708" lon="9.07292696647346">
        <ele>1120</ele>
        <time>2010-06-13T11:57:36Z</time>
      </trkpt>
      <trkpt lat="45.873937960714102" lon="9.072901988402009">
        <ele>1120</ele>
        <time>2010-06-13T11:57:37Z</time>
      </trkpt>
      <trkpt lat="45.873928992077708" lon="9.072888996452093">
        <ele>1120</ele>
        <time>2010-06-13T11:57:38Z</time>
      </trkpt>
      <trkpt lat="45.873937960714102" lon="9.072863012552261">
        <ele>1120</ele>
        <time>2010-06-13T11:57:39Z</time>
      </trkpt>
      <trkpt lat="45.873937960714102" lon="9.07283702865243">
        <ele>1120</ele>
        <time>2010-06-13T11:57:41Z</time>
      </trkpt>
      <trkpt lat="45.873947013169527" lon="9.07283702865243">
        <ele>1120</ele>
        <time>2010-06-13T11:57:42Z</time>
      </trkpt>
      <trkpt lat="45.873947013169527" lon="9.07283702865243">
        <ele>1120</ele>
        <time>2010-06-13T11:57:43Z</time>
      </trkpt>
      <trkpt lat="45.873955981805921" lon="9.072863012552261">
        <ele>1121</ele>
        <time>2010-06-13T11:57:46Z</time>
      </trkpt>
      <trkpt lat="45.873955981805921" lon="9.072888996452093">
        <ele>1121</ele>
        <time>2010-06-13T11:57:47Z</time>
      </trkpt>
      <trkpt lat="45.873965034261346" lon="9.072914980351925">
        <ele>1121</ele>
        <time>2010-06-13T11:57:48Z</time>
      </trkpt>
      <trkpt lat="45.873965034261346" lon="9.072953034192324">
        <ele>1121</ele>
        <time>2010-06-13T11:57:50Z</time>
      </trkpt>
      <trkpt lat="45.873965034261346" lon="9.07296602614224">
        <ele>1121</ele>
        <time>2010-06-13T11:57:52Z</time>
      </trkpt>
      <trkpt lat="45.873974002897739" lon="9.073005001991987">
        <ele>1122</ele>
        <time>2010-06-13T11:57:53Z</time>
      </trkpt>
      <trkpt lat="45.873974002897739" lon="9.073017993941903">
        <ele>1121</ele>
        <time>2010-06-13T11:57:54Z</time>
      </trkpt>
      <trkpt lat="45.873974002897739" lon="9.073030985891819">
        <ele>1121</ele>
        <time>2010-06-13T11:57:55Z</time>
      </trkpt>
      <trkpt lat="45.873982971534133" lon="9.073043977841735">
        <ele>1121</ele>
        <time>2010-06-13T11:57:57Z</time>
      </trkpt>
      <trkpt lat="45.873992023989558" lon="9.073082031682134">
        <ele>1122</ele>
        <time>2010-06-13T11:57:58Z</time>
      </trkpt>
      <trkpt lat="45.873992023989558" lon="9.07309502363205">
        <ele>1122</ele>
        <time>2010-06-13T11:57:59Z</time>
      </trkpt>
      <trkpt lat="45.873992023989558" lon="9.073121007531881">
        <ele>1122</ele>
        <time>2010-06-13T11:58:00Z</time>
      </trkpt>
      <trkpt lat="45.874000992625952" lon="9.073133999481797">
        <ele>1121</ele>
        <time>2010-06-13T11:58:01Z</time>
      </trkpt>
      <trkpt lat="45.874000992625952" lon="9.073146991431713">
        <ele>1121</ele>
        <time>2010-06-13T11:58:03Z</time>
      </trkpt>
      <trkpt lat="45.874019013717771" lon="9.073185967281461">
        <ele>1122</ele>
        <time>2010-06-13T11:58:04Z</time>
      </trkpt>
      <trkpt lat="45.874019013717771" lon="9.07322402112186">
        <ele>1122</ele>
        <time>2010-06-13T11:58:06Z</time>
      </trkpt>
      <trkpt lat="45.874019013717771" lon="9.073237013071775">
        <ele>1122</ele>
        <time>2010-06-13T11:58:07Z</time>
      </trkpt>
      <trkpt lat="45.874019013717771" lon="9.073250005021691">
        <ele>1122</ele>
        <time>2010-06-13T11:58:09Z</time>
      </trkpt>
      <trkpt lat="45.874027982354164" lon="9.073288980871439">
        <ele>1123</ele>
        <time>2010-06-13T11:58:10Z</time>
      </trkpt>
      <trkpt lat="45.874027982354164" lon="9.073300966992974">
        <ele>1123</ele>
        <time>2010-06-13T11:58:11Z</time>
      </trkpt>
      <trkpt lat="45.874027982354164" lon="9.073327034711838">
        <ele>1123</ele>
        <time>2010-06-13T11:58:12Z</time>
      </trkpt>
      <trkpt lat="45.874037034809589" lon="9.073340026661754">
        <ele>1123</ele>
        <time>2010-06-13T11:58:13Z</time>
      </trkpt>
      <trkpt lat="45.874027982354164" lon="9.073379002511501">
        <ele>1124</ele>
        <time>2010-06-13T11:58:16Z</time>
      </trkpt>
      <trkpt lat="45.874027982354164" lon="9.073403980582953">
        <ele>1124</ele>
        <time>2010-06-13T11:58:17Z</time>
      </trkpt>
      <trkpt lat="45.874027982354164" lon="9.073416972532868">
        <ele>1124</ele>
        <time>2010-06-13T11:58:18Z</time>
      </trkpt>
      <trkpt lat="45.874027982354164" lon="9.073443040251732">
        <ele>1124</ele>
        <time>2010-06-13T11:58:20Z</time>
      </trkpt>
      <trkpt lat="45.874027982354164" lon="9.073456032201648">
        <ele>1124</ele>
        <time>2010-06-13T11:58:22Z</time>
      </trkpt>
      <trkpt lat="45.874037034809589" lon="9.07348201610148">
        <ele>1124</ele>
        <time>2010-06-13T11:58:23Z</time>
      </trkpt>
      <trkpt lat="45.874037034809589" lon="9.073520991951227">
        <ele>1125</ele>
        <time>2010-06-13T11:58:25Z</time>
      </trkpt>
      <trkpt lat="45.874037034809589" lon="9.073532978072763">
        <ele>1125</ele>
        <time>2010-06-13T11:58:26Z</time>
      </trkpt>
      <trkpt lat="45.874046003445983" lon="9.073545970022678">
        <ele>1125</ele>
        <time>2010-06-13T11:58:27Z</time>
      </trkpt>
      <trkpt lat="45.874046003445983" lon="9.073598021641374">
        <ele>1124</ele>
        <time>2010-06-13T11:58:30Z</time>
      </trkpt>
      <trkpt lat="45.874046003445983" lon="9.07361101359129">
        <ele>1125</ele>
        <time>2010-06-13T11:58:31Z</time>
      </trkpt>
      <trkpt lat="45.874046003445983" lon="9.073648983612657">
        <ele>1125</ele>
        <time>2010-06-13T11:58:33Z</time>
      </trkpt>
      <trkpt lat="45.874046003445983" lon="9.073687959462404">
        <ele>1125</ele>
        <time>2010-06-13T11:58:36Z</time>
      </trkpt>
      <trkpt lat="45.874046003445983" lon="9.073701035231352">
        <ele>1125</ele>
        <time>2010-06-13T11:58:37Z</time>
      </trkpt>
      <trkpt lat="45.874053966253996" lon="9.073739005252719">
        <ele>1126</ele>
        <time>2010-06-13T11:58:39Z</time>
      </trkpt>
      <trkpt lat="45.874046003445983" lon="9.073764989152551">
        <ele>1126</ele>
        <time>2010-06-13T11:58:40Z</time>
      </trkpt>
      <trkpt lat="45.874046003445983" lon="9.073777981102467">
        <ele>1125</ele>
        <time>2010-06-13T11:58:41Z</time>
      </trkpt>
      <trkpt lat="45.874046003445983" lon="9.073790973052383">
        <ele>1126</ele>
        <time>2010-06-13T11:58:42Z</time>
      </trkpt>
      <trkpt lat="45.874046003445983" lon="9.073803965002298">
        <ele>1126</ele>
        <time>2010-06-13T11:58:44Z</time>
      </trkpt>
      <trkpt lat="45.874036028981209" lon="9.073830032721162">
        <ele>1126</ele>
        <time>2010-06-13T11:58:45Z</time>
      </trkpt>
      <trkpt lat="45.874026976525784" lon="9.073856016620994">
        <ele>1126</ele>
        <time>2010-06-13T11:58:46Z</time>
      </trkpt>
      <trkpt lat="45.874026976525784" lon="9.073880994692445">
        <ele>1126</ele>
        <time>2010-06-13T11:58:47Z</time>
      </trkpt>
      <trkpt lat="45.87401800788939" lon="9.073906978592277">
        <ele>1127</ele>
        <time>2010-06-13T11:58:48Z</time>
      </trkpt>
      <trkpt lat="45.87401800788939" lon="9.073919970542193">
        <ele>1126</ele>
        <time>2010-06-13T11:58:49Z</time>
      </trkpt>
      <trkpt lat="45.87401800788939" lon="9.073946038261056">
        <ele>1126</ele>
        <time>2010-06-13T11:58:50Z</time>
      </trkpt>
      <trkpt lat="45.87401800788939" lon="9.073984008282423">
        <ele>1127</ele>
        <time>2010-06-13T11:58:52Z</time>
      </trkpt>
      <trkpt lat="45.87401800788939" lon="9.074022984132171">
        <ele>1126</ele>
        <time>2010-06-13T11:58:54Z</time>
      </trkpt>
      <trkpt lat="45.874026976525784" lon="9.074048968032002">
        <ele>1126</ele>
        <time>2010-06-13T11:58:55Z</time>
      </trkpt>
      <trkpt lat="45.874026976525784" lon="9.074061959981918">
        <ele>1126</ele>
        <time>2010-06-13T11:58:57Z</time>
      </trkpt>
      <trkpt lat="45.874036028981209" lon="9.074087021872401">
        <ele>1127</ele>
        <time>2010-06-13T11:58:58Z</time>
      </trkpt>
      <trkpt lat="45.874053966253996" lon="9.074087021872401">
        <ele>1127</ele>
        <time>2010-06-13T11:58:59Z</time>
      </trkpt>
      <trkpt lat="45.874071987345815" lon="9.074087021872401">
        <ele>1127</ele>
        <time>2010-06-13T11:59:01Z</time>
      </trkpt>
      <trkpt lat="45.87408103980124" lon="9.074075035750866">
        <ele>1128</ele>
        <time>2010-06-13T11:59:02Z</time>
      </trkpt>
      <trkpt lat="45.874090008437634" lon="9.074048968032002">
        <ele>1127</ele>
        <time>2010-06-13T11:59:04Z</time>
      </trkpt>
      <trkpt lat="45.874098977074027" lon="9.074009992182255">
        <ele>1127</ele>
        <time>2010-06-13T11:59:05Z</time>
      </trkpt>
      <trkpt lat="45.874098977074027" lon="9.073997000232339">
        <ele>1127</ele>
        <time>2010-06-13T11:59:06Z</time>
      </trkpt>
      <trkpt lat="45.874108029529452" lon="9.073972022160888">
        <ele>1127</ele>
        <time>2010-06-13T11:59:07Z</time>
      </trkpt>
      <trkpt lat="45.874098977074027" lon="9.073906978592277">
        <ele>1127</ele>
        <time>2010-06-13T11:59:10Z</time>
      </trkpt>
      <trkpt lat="45.874098977074027" lon="9.073868002742529">
        <ele>1128</ele>
        <time>2010-06-13T11:59:12Z</time>
      </trkpt>
      <trkpt lat="45.874098977074027" lon="9.073856016620994">
        <ele>1128</ele>
        <time>2010-06-13T11:59:13Z</time>
      </trkpt>
      <trkpt lat="45.874098977074027" lon="9.073830032721162">
        <ele>1128</ele>
        <time>2010-06-13T11:59:14Z</time>
      </trkpt>
      <trkpt lat="45.874098977074027" lon="9.073817040771246">
        <ele>1128</ele>
        <time>2010-06-13T11:59:16Z</time>
      </trkpt>
      <trkpt lat="45.874091014266014" lon="9.073790973052383">
        <ele>1128</ele>
        <time>2010-06-13T11:59:17Z</time>
      </trkpt>
      <trkpt lat="45.874091014266014" lon="9.073751997202635">
        <ele>1128</ele>
        <time>2010-06-13T11:59:18Z</time>
      </trkpt>
      <trkpt lat="45.874091014266014" lon="9.073727019131184">
        <ele>1127</ele>
        <time>2010-06-13T11:59:20Z</time>
      </trkpt>
      <trkpt lat="45.874091014266014" lon="9.073701035231352">
        <ele>1128</ele>
        <time>2010-06-13T11:59:22Z</time>
      </trkpt>
      <trkpt lat="45.874109035357833" lon="9.073661975562573">
        <ele>1128</ele>
        <time>2010-06-13T11:59:23Z</time>
      </trkpt>
      <trkpt lat="45.874109035357833" lon="9.073636997491121">
        <ele>1128</ele>
        <time>2010-06-13T11:59:24Z</time>
      </trkpt>
      <trkpt lat="45.874109035357833" lon="9.07361101359129">
        <ele>1128</ele>
        <time>2010-06-13T11:59:25Z</time>
      </trkpt>
      <trkpt lat="45.874109035357833" lon="9.073598021641374">
        <ele>1128</ele>
        <time>2010-06-13T11:59:27Z</time>
      </trkpt>
      <trkpt lat="45.874109035357833" lon="9.073558961972594">
        <ele>1128</ele>
        <time>2010-06-13T11:59:28Z</time>
      </trkpt>
      <trkpt lat="45.874109035357833" lon="9.073520991951227">
        <ele>1128</ele>
        <time>2010-06-13T11:59:30Z</time>
      </trkpt>
      <trkpt lat="45.874109035357833" lon="9.073508000001311">
        <ele>1129</ele>
        <time>2010-06-13T11:59:31Z</time>
      </trkpt>
      <trkpt lat="45.874109035357833" lon="9.073456032201648">
        <ele>1129</ele>
        <time>2010-06-13T11:59:34Z</time>
      </trkpt>
      <trkpt lat="45.874109035357833" lon="9.073443040251732">
        <ele>1130</ele>
        <time>2010-06-13T11:59:35Z</time>
      </trkpt>
      <trkpt lat="45.874118003994226" lon="9.073416972532868">
        <ele>1130</ele>
        <time>2010-06-13T11:59:36Z</time>
      </trkpt>
      <trkpt lat="45.874118003994226" lon="9.073391994461417">
        <ele>1130</ele>
        <time>2010-06-13T11:59:38Z</time>
      </trkpt>
      <trkpt lat="45.874136025086045" lon="9.073340026661754">
        <ele>1130</ele>
        <time>2010-06-13T11:59:39Z</time>
      </trkpt>
      <trkpt lat="45.874136025086045" lon="9.073327034711838">
        <ele>1130</ele>
        <time>2010-06-13T11:59:40Z</time>
      </trkpt>
      <trkpt lat="45.874144993722439" lon="9.073301972821355">
        <ele>1130</ele>
        <time>2010-06-13T11:59:41Z</time>
      </trkpt>
      <trkpt lat="45.874153962358832" lon="9.073275988921523">
        <ele>1130</ele>
        <time>2010-06-13T11:59:42Z</time>
      </trkpt>
      <trkpt lat="45.874153962358832" lon="9.073250005021691">
        <ele>1130</ele>
        <time>2010-06-13T11:59:44Z</time>
      </trkpt>
      <trkpt lat="45.874163014814258" lon="9.07322402112186">
        <ele>1130</ele>
        <time>2010-06-13T11:59:45Z</time>
      </trkpt>
      <trkpt lat="45.874163014814258" lon="9.073198959231377">
        <ele>1131</ele>
        <time>2010-06-13T11:59:46Z</time>
      </trkpt>
      <trkpt lat="45.874181035906076" lon="9.073133999481797">
        <ele>1131</ele>
        <time>2010-06-13T11:59:48Z</time>
      </trkpt>
      <trkpt lat="45.87419000454247" lon="9.073108015581965">
        <ele>1131</ele>
        <time>2010-06-13T11:59:49Z</time>
      </trkpt>
      <trkpt lat="45.87419000454247" lon="9.073082031682134">
        <ele>1131</ele>
        <time>2010-06-13T11:59:51Z</time>
      </trkpt>
      <trkpt lat="45.87419000454247" lon="9.073043977841735">
        <ele>1131</ele>
        <time>2010-06-13T11:59:52Z</time>
      </trkpt>
      <trkpt lat="45.87419000454247" lon="9.073005001991987">
        <ele>1131</ele>
        <time>2010-06-13T11:59:54Z</time>
      </trkpt>
      <trkpt lat="45.87419000454247" lon="9.072954040020704">
        <ele>1131</ele>
        <time>2010-06-13T11:59:56Z</time>
      </trkpt>
      <trkpt lat="45.874198973178864" lon="9.072940964251757">
        <ele>1131</ele>
        <time>2010-06-13T11:59:57Z</time>
      </trkpt>
      <trkpt lat="45.874198973178864" lon="9.072914980351925">
        <ele>1131</ele>
        <time>2010-06-13T11:59:58Z</time>
      </trkpt>
      <trkpt lat="45.874208025634289" lon="9.072901988402009">
        <ele>1132</ele>
        <time>2010-06-13T11:59:59Z</time>
      </trkpt>
      <trkpt lat="45.874208025634289" lon="9.072876004502177">
        <ele>1132</ele>
        <time>2010-06-13T12:00:00Z</time>
      </trkpt>
      <trkpt lat="45.874216994270682" lon="9.072864018380642">
        <ele>1132</ele>
        <time>2010-06-13T12:00:02Z</time>
      </trkpt>
      <trkpt lat="45.874216994270682" lon="9.072811966761947">
        <ele>1132</ele>
        <time>2010-06-13T12:00:03Z</time>
      </trkpt>
      <trkpt lat="45.874216994270682" lon="9.072785982862115">
        <ele>1132</ele>
        <time>2010-06-13T12:00:04Z</time>
      </trkpt>
      <trkpt lat="45.874216994270682" lon="9.072735020890832">
        <ele>1133</ele>
        <time>2010-06-13T12:00:06Z</time>
      </trkpt>
      <trkpt lat="45.874216994270682" lon="9.072682969272137">
        <ele>1133</ele>
        <time>2010-06-13T12:00:08Z</time>
      </trkpt>
      <trkpt lat="45.874216994270682" lon="9.072657991200686">
        <ele>1133</ele>
        <time>2010-06-13T12:00:09Z</time>
      </trkpt>
      <trkpt lat="45.874216994270682" lon="9.072643993422389">
        <ele>1132</ele>
        <time>2010-06-13T12:00:10Z</time>
      </trkpt>
      <trkpt lat="45.874208025634289" lon="9.072593031451106">
        <ele>1132</ele>
        <time>2010-06-13T12:00:12Z</time>
      </trkpt>
      <trkpt lat="45.874208025634289" lon="9.072566963732243">
        <ele>1132</ele>
        <time>2010-06-13T12:00:14Z</time>
      </trkpt>
      <trkpt lat="45.87419000454247" lon="9.072528993710876">
        <ele>1133</ele>
        <time>2010-06-13T12:00:15Z</time>
      </trkpt>
      <trkpt lat="45.87419000454247" lon="9.072503009811044">
        <ele>1134</ele>
        <time>2010-06-13T12:00:17Z</time>
      </trkpt>
      <trkpt lat="45.87419000454247" lon="9.072437966242433">
        <ele>1133</ele>
        <time>2010-06-13T12:00:20Z</time>
      </trkpt>
      <trkpt lat="45.87419000454247" lon="9.07238700427115">
        <ele>1133</ele>
        <time>2010-06-13T12:00:22Z</time>
      </trkpt>
      <trkpt lat="45.874198973178864" lon="9.072361020371318">
        <ele>1134</ele>
        <time>2010-06-13T12:00:23Z</time>
      </trkpt>
      <trkpt lat="45.874208025634289" lon="9.072348028421402">
        <ele>1133</ele>
        <time>2010-06-13T12:00:25Z</time>
      </trkpt>
      <trkpt lat="45.874208025634289" lon="9.072321960702539">
        <ele>1134</ele>
        <time>2010-06-13T12:00:26Z</time>
      </trkpt>
      <trkpt lat="45.874208025634289" lon="9.072283990681171">
        <ele>1134</ele>
        <time>2010-06-13T12:00:27Z</time>
      </trkpt>
      <trkpt lat="45.874209031462669" lon="9.072270998731256">
        <ele>1134</ele>
        <time>2010-06-13T12:00:28Z</time>
      </trkpt>
      <trkpt lat="45.874209031462669" lon="9.07225800678134">
        <ele>1134</ele>
        <time>2010-06-13T12:00:29Z</time>
      </trkpt>
      <trkpt lat="45.874218000099063" lon="9.072232022881508">
        <ele>1134</ele>
        <time>2010-06-13T12:00:30Z</time>
      </trkpt>
      <trkpt lat="45.874218000099063" lon="9.072206038981676">
        <ele>1135</ele>
        <time>2010-06-13T12:00:32Z</time>
      </trkpt>
      <trkpt lat="45.874218000099063" lon="9.072154993191361">
        <ele>1135</ele>
        <time>2010-06-13T12:00:33Z</time>
      </trkpt>
      <trkpt lat="45.874226968735456" lon="9.07212900929153">
        <ele>1135</ele>
        <time>2010-06-13T12:00:34Z</time>
      </trkpt>
      <trkpt lat="45.874226968735456" lon="9.072091039270163">
        <ele>1135</ele>
        <time>2010-06-13T12:00:35Z</time>
      </trkpt>
      <trkpt lat="45.874226968735456" lon="9.072064971551299">
        <ele>1135</ele>
        <time>2010-06-13T12:00:36Z</time>
      </trkpt>
      <trkpt lat="45.874226968735456" lon="9.072025995701551">
        <ele>1134</ele>
        <time>2010-06-13T12:00:38Z</time>
      </trkpt>
      <trkpt lat="45.874218000099063" lon="9.071987019851804">
        <ele>1135</ele>
        <time>2010-06-13T12:00:39Z</time>
      </trkpt>
      <trkpt lat="45.874226968735456" lon="9.071935974061489">
        <ele>1135</ele>
        <time>2010-06-13T12:00:41Z</time>
      </trkpt>
      <trkpt lat="45.874226968735456" lon="9.071922982111573">
        <ele>1135</ele>
        <time>2010-06-13T12:00:42Z</time>
      </trkpt>
      <trkpt lat="45.874226968735456" lon="9.071896998211741">
        <ele>1135</ele>
        <time>2010-06-13T12:00:43Z</time>
      </trkpt>
      <trkpt lat="45.874226968735456" lon="9.071859028190374">
        <ele>1136</ele>
        <time>2010-06-13T12:00:45Z</time>
      </trkpt>
      <trkpt lat="45.874226968735456" lon="9.071832960471511">
        <ele>1136</ele>
        <time>2010-06-13T12:00:47Z</time>
      </trkpt>
      <trkpt lat="45.874218000099063" lon="9.071780992671847">
        <ele>1135</ele>
        <time>2010-06-13T12:00:50Z</time>
      </trkpt>
      <trkpt lat="45.874218000099063" lon="9.071768000721932">
        <ele>1135</ele>
        <time>2010-06-13T12:00:51Z</time>
      </trkpt>
      <trkpt lat="45.874218000099063" lon="9.0717420168221">
        <ele>1136</ele>
        <time>2010-06-13T12:00:53Z</time>
      </trkpt>
      <trkpt lat="45.874218000099063" lon="9.071730030700564">
        <ele>1136</ele>
        <time>2010-06-13T12:00:55Z</time>
      </trkpt>
      <trkpt lat="45.874236021190882" lon="9.071677979081869">
        <ele>1136</ele>
        <time>2010-06-13T12:00:56Z</time>
      </trkpt>
      <trkpt lat="45.874236021190882" lon="9.071664987131953">
        <ele>1136</ele>
        <time>2010-06-13T12:00:57Z</time>
      </trkpt>
      <trkpt lat="45.874236021190882" lon="9.071651995182037">
        <ele>1136</ele>
        <time>2010-06-13T12:00:58Z</time>
      </trkpt>
      <trkpt lat="45.874244989827275" lon="9.071627017110586">
        <ele>1137</ele>
        <time>2010-06-13T12:00:59Z</time>
      </trkpt>
      <trkpt lat="45.874244989827275" lon="9.07161402516067">
        <ele>1137</ele>
        <time>2010-06-13T12:01:00Z</time>
      </trkpt>
      <trkpt lat="45.874253958463669" lon="9.071601033210754">
        <ele>1137</ele>
        <time>2010-06-13T12:01:01Z</time>
      </trkpt>
      <trkpt lat="45.874253958463669" lon="9.071574965491891">
        <ele>1137</ele>
        <time>2010-06-13T12:01:02Z</time>
      </trkpt>
      <trkpt lat="45.874244989827275" lon="9.071561973541975">
        <ele>1137</ele>
        <time>2010-06-13T12:01:03Z</time>
      </trkpt>
      <trkpt lat="45.874236021190882" lon="9.071535989642143">
        <ele>1137</ele>
        <time>2010-06-13T12:01:04Z</time>
      </trkpt>
      <trkpt lat="45.874236021190882" lon="9.071511011570692">
        <ele>1137</ele>
        <time>2010-06-13T12:01:05Z</time>
      </trkpt>
      <trkpt lat="45.874226968735456" lon="9.07148502767086">
        <ele>1136</ele>
        <time>2010-06-13T12:01:07Z</time>
      </trkpt>
      <trkpt lat="45.874218000099063" lon="9.071472035720944">
        <ele>1137</ele>
        <time>2010-06-13T12:01:08Z</time>
      </trkpt>
      <trkpt lat="45.874199979007244" lon="9.071432976052165">
        <ele>1137</ele>
        <time>2010-06-13T12:01:09Z</time>
      </trkpt>
      <trkpt lat="45.874191010370851" lon="9.071406992152333">
        <ele>1138</ele>
        <time>2010-06-13T12:01:10Z</time>
      </trkpt>
      <trkpt lat="45.874182041734457" lon="9.071395006030798">
        <ele>1138</ele>
        <time>2010-06-13T12:01:11Z</time>
      </trkpt>
      <trkpt lat="45.874172989279032" lon="9.071369022130966">
        <ele>1138</ele>
        <time>2010-06-13T12:01:12Z</time>
      </trkpt>
      <trkpt lat="45.874164020642638" lon="9.07135603018105">
        <ele>1138</ele>
        <time>2010-06-13T12:01:13Z</time>
      </trkpt>
      <trkpt lat="45.874154968187213" lon="9.071343038231134">
        <ele>1137</ele>
        <time>2010-06-13T12:01:14Z</time>
      </trkpt>
      <trkpt lat="45.874145999550819" lon="9.071329962462187">
        <ele>1137</ele>
        <time>2010-06-13T12:01:16Z</time>
      </trkpt>
      <trkpt lat="45.874127978459001" lon="9.071290986612439">
        <ele>1138</ele>
        <time>2010-06-13T12:01:17Z</time>
      </trkpt>
      <trkpt lat="45.874119009822607" lon="9.071279000490904">
        <ele>1138</ele>
        <time>2010-06-13T12:01:18Z</time>
      </trkpt>
      <trkpt lat="45.874119009822607" lon="9.071266008540988">
        <ele>1138</ele>
        <time>2010-06-13T12:01:19Z</time>
      </trkpt>
      <trkpt lat="45.874110041186213" lon="9.071253016591072">
        <ele>1138</ele>
        <time>2010-06-13T12:01:20Z</time>
      </trkpt>
      <trkpt lat="45.874100988730788" lon="9.07122703269124">
        <ele>1138</ele>
        <time>2010-06-13T12:01:22Z</time>
      </trkpt>
      <trkpt lat="45.874092020094395" lon="9.07122703269124">
        <ele>1138</ele>
        <time>2010-06-13T12:01:23Z</time>
      </trkpt>
      <trkpt lat="45.874073999002576" lon="9.071200964972377">
        <ele>1139</ele>
        <time>2010-06-13T12:01:24Z</time>
      </trkpt>
      <trkpt lat="45.874055977910757" lon="9.071187973022461">
        <ele>1139</ele>
        <time>2010-06-13T12:01:25Z</time>
      </trkpt>
      <trkpt lat="45.874047009274364" lon="9.071187973022461">
        <ele>1139</ele>
        <time>2010-06-13T12:01:26Z</time>
      </trkpt>
      <trkpt lat="45.87403804063797" lon="9.071174981072545">
        <ele>1139</ele>
        <time>2010-06-13T12:01:28Z</time>
      </trkpt>
      <trkpt lat="45.874020019546151" lon="9.071137011051178">
        <ele>1139</ele>
        <time>2010-06-13T12:01:30Z</time>
      </trkpt>
      <trkpt lat="45.874001998454332" lon="9.07109803520143">
        <ele>1139</ele>
        <time>2010-06-13T12:01:31Z</time>
      </trkpt>
      <trkpt lat="45.873983977362514" lon="9.071084959432483">
        <ele>1139</ele>
        <time>2010-06-13T12:01:32Z</time>
      </trkpt>
      <trkpt lat="45.87397500872612" lon="9.071071967482567">
        <ele>1139</ele>
        <time>2010-06-13T12:01:33Z</time>
      </trkpt>
      <trkpt lat="45.873956987634301" lon="9.071071967482567">
        <ele>1140</ele>
        <time>2010-06-13T12:01:34Z</time>
      </trkpt>
      <trkpt lat="45.873948018997908" lon="9.071058975532651">
        <ele>1140</ele>
        <time>2010-06-13T12:01:36Z</time>
      </trkpt>
      <trkpt lat="45.873921029269695" lon="9.071021005511284">
        <ele>1140</ele>
        <time>2010-06-13T12:01:37Z</time>
      </trkpt>
      <trkpt lat="45.873903008177876" lon="9.071008013561368">
        <ele>1140</ele>
        <time>2010-06-13T12:01:38Z</time>
      </trkpt>
      <trkpt lat="45.873894039541483" lon="9.070995021611452">
        <ele>1140</ele>
        <time>2010-06-13T12:01:39Z</time>
      </trkpt>
      <trkpt lat="45.873884987086058" lon="9.070982029661536">
        <ele>1140</ele>
        <time>2010-06-13T12:01:40Z</time>
      </trkpt>
      <trkpt lat="45.873884987086058" lon="9.07096903771162">
        <ele>1140</ele>
        <time>2010-06-13T12:01:42Z</time>
      </trkpt>
      <trkpt lat="45.873857997357845" lon="9.070929978042841">
        <ele>1140</ele>
        <time>2010-06-13T12:01:43Z</time>
      </trkpt>
      <trkpt lat="45.873849028721452" lon="9.070917991921306">
        <ele>1140</ele>
        <time>2010-06-13T12:01:44Z</time>
      </trkpt>
      <trkpt lat="45.873831007629633" lon="9.070892008021474">
        <ele>1140</ele>
        <time>2010-06-13T12:01:45Z</time>
      </trkpt>
      <trkpt lat="45.873822038993239" lon="9.070879016071558">
        <ele>1140</ele>
        <time>2010-06-13T12:01:46Z</time>
      </trkpt>
      <trkpt lat="45.873812986537814" lon="9.070853032171726">
        <ele>1140</ele>
        <time>2010-06-13T12:01:48Z</time>
      </trkpt>
      <trkpt lat="45.873804017901421" lon="9.07084004022181">
        <ele>1140</ele>
        <time>2010-06-13T12:01:49Z</time>
      </trkpt>
      <trkpt lat="45.873785996809602" lon="9.070826964452863">
        <ele>1140</ele>
        <time>2010-06-13T12:01:50Z</time>
      </trkpt>
      <trkpt lat="45.873759007081389" lon="9.070788994431496">
        <ele>1142</ele>
        <time>2010-06-13T12:01:51Z</time>
      </trkpt>
      <trkpt lat="45.873750038444996" lon="9.07077600248158">
        <ele>1141</ele>
        <time>2010-06-13T12:01:52Z</time>
      </trkpt>
      <trkpt lat="45.873740985989571" lon="9.070763010531664">
        <ele>1141</ele>
        <time>2010-06-13T12:01:53Z</time>
      </trkpt>
      <trkpt lat="45.873732017353177" lon="9.070750018581748">
        <ele>1141</ele>
        <time>2010-06-13T12:01:55Z</time>
      </trkpt>
      <trkpt lat="45.873706033453345" lon="9.070710958912969">
        <ele>1141</ele>
        <time>2010-06-13T12:01:57Z</time>
      </trkpt>
      <trkpt lat="45.873687006533146" lon="9.070684975013137">
        <ele>1142</ele>
        <time>2010-06-13T12:01:58Z</time>
      </trkpt>
      <trkpt lat="45.873668985441327" lon="9.070671983063221">
        <ele>1142</ele>
        <time>2010-06-13T12:01:59Z</time>
      </trkpt>
      <trkpt lat="45.873661022633314" lon="9.070658991113305">
        <ele>1142</ele>
        <time>2010-06-13T12:02:00Z</time>
      </trkpt>
      <trkpt lat="45.873641995713115" lon="9.070634013041854">
        <ele>1142</ele>
        <time>2010-06-13T12:02:01Z</time>
      </trkpt>
      <trkpt lat="45.873633027076721" lon="9.070621021091938">
        <ele>1142</ele>
        <time>2010-06-13T12:02:03Z</time>
      </trkpt>
      <trkpt lat="45.873606037348509" lon="9.070568969473243">
        <ele>1143</ele>
        <time>2010-06-13T12:02:04Z</time>
      </trkpt>
      <trkpt lat="45.873589022085071" lon="9.070555977523327">
        <ele>1142</ele>
        <time>2010-06-13T12:02:05Z</time>
      </trkpt>
      <trkpt lat="45.873571000993252" lon="9.070542985573411">
        <ele>1142</ele>
        <time>2010-06-13T12:02:06Z</time>
      </trkpt>
      <trkpt lat="45.873561026528478" lon="9.070530999451876">
        <ele>1142</ele>
        <time>2010-06-13T12:02:07Z</time>
      </trkpt>
      <trkpt lat="45.873551974073052" lon="9.070517001673579">
        <ele>1143</ele>
        <time>2010-06-13T12:02:09Z</time>
      </trkpt>
      <trkpt lat="45.873544011265039" lon="9.070505015552044">
        <ele>1142</ele>
        <time>2010-06-13T12:02:10Z</time>
      </trkpt>
      <trkpt lat="45.873525990173221" lon="9.070466039702296">
        <ele>1142</ele>
        <time>2010-06-13T12:02:11Z</time>
      </trkpt>
      <trkpt lat="45.873506963253021" lon="9.070439971983433">
        <ele>1142</ele>
        <time>2010-06-13T12:02:12Z</time>
      </trkpt>
      <trkpt lat="45.873499000445008" lon="9.070439971983433">
        <ele>1143</ele>
        <time>2010-06-13T12:02:13Z</time>
      </trkpt>
      <trkpt lat="45.873489025980234" lon="9.070426980033517">
        <ele>1144</ele>
        <time>2010-06-13T12:02:14Z</time>
      </trkpt>
      <trkpt lat="45.873472010716796" lon="9.070413988083601">
        <ele>1144</ele>
        <time>2010-06-13T12:02:16Z</time>
      </trkpt>
      <trkpt lat="45.873462036252022" lon="9.070402001962066">
        <ele>1144</ele>
        <time>2010-06-13T12:02:17Z</time>
      </trkpt>
      <trkpt lat="45.873453989624977" lon="9.07038901001215">
        <ele>1143</ele>
        <time>2010-06-13T12:02:18Z</time>
      </trkpt>
      <trkpt lat="45.873445020988584" lon="9.070363026112318">
        <ele>1143</ele>
        <time>2010-06-13T12:02:19Z</time>
      </trkpt>
      <trkpt lat="45.873435968533158" lon="9.070363026112318">
        <ele>1143</ele>
        <time>2010-06-13T12:02:20Z</time>
      </trkpt>
      <trkpt lat="45.873426999896765" lon="9.070336958393455">
        <ele>1143</ele>
        <time>2010-06-13T12:02:21Z</time>
      </trkpt>
      <trkpt lat="45.873417025431991" lon="9.070323966443539">
        <ele>1143</ele>
        <time>2010-06-13T12:02:22Z</time>
      </trkpt>
      <trkpt lat="45.873417025431991" lon="9.070323966443539">
        <ele>1143</ele>
        <time>2010-06-13T12:02:24Z</time>
      </trkpt>
      <trkpt lat="45.873408978804946" lon="9.070297982543707">
        <ele>1144</ele>
        <time>2010-06-13T12:02:25Z</time>
      </trkpt>
      <trkpt lat="45.873400010168552" lon="9.070285996422172">
        <ele>1144</ele>
        <time>2010-06-13T12:02:26Z</time>
      </trkpt>
      <trkpt lat="45.873381989076734" lon="9.070271998643875">
        <ele>1145</ele>
        <time>2010-06-13T12:02:27Z</time>
      </trkpt>
      <trkpt lat="45.873363967984915" lon="9.07026001252234">
        <ele>1144</ele>
        <time>2010-06-13T12:02:28Z</time>
      </trkpt>
      <trkpt lat="45.873363967984915" lon="9.070247020572424">
        <ele>1144</ele>
        <time>2010-06-13T12:02:29Z</time>
      </trkpt>
      <trkpt lat="45.873354999348521" lon="9.070234028622508">
        <ele>1144</ele>
        <time>2010-06-13T12:02:30Z</time>
      </trkpt>
      <trkpt lat="45.873336978256702" lon="9.070194968953729">
        <ele>1145</ele>
        <time>2010-06-13T12:02:32Z</time>
      </trkpt>
      <trkpt lat="45.873328009620309" lon="9.070181977003813">
        <ele>1144</ele>
        <time>2010-06-13T12:02:33Z</time>
      </trkpt>
      <trkpt lat="45.873328009620309" lon="9.070168985053897">
        <ele>1144</ele>
        <time>2010-06-13T12:02:34Z</time>
      </trkpt>
      <trkpt lat="45.873319040983915" lon="9.070156998932362">
        <ele>1144</ele>
        <time>2010-06-13T12:02:35Z</time>
      </trkpt>
      <trkpt lat="45.87330998852849" lon="9.070144006982446">
        <ele>1145</ele>
        <time>2010-06-13T12:02:36Z</time>
      </trkpt>
      <trkpt lat="45.873301019892097" lon="9.070144006982446">
        <ele>1145</ele>
        <time>2010-06-13T12:02:38Z</time>
      </trkpt>
      <trkpt lat="45.873291967436671" lon="9.070118023082614">
        <ele>1145</ele>
        <time>2010-06-13T12:02:39Z</time>
      </trkpt>
      <trkpt lat="45.873282998800278" lon="9.070092039182782">
        <ele>1145</ele>
        <time>2010-06-13T12:02:40Z</time>
      </trkpt>
      <trkpt lat="45.873274030163884" lon="9.070078963413835">
        <ele>1146</ele>
        <time>2010-06-13T12:02:41Z</time>
      </trkpt>
      <trkpt lat="45.873274030163884" lon="9.070052979514003">
        <ele>1146</ele>
        <time>2010-06-13T12:02:42Z</time>
      </trkpt>
      <trkpt lat="45.873264977708459" lon="9.070028001442552">
        <ele>1146</ele>
        <time>2010-06-13T12:02:44Z</time>
      </trkpt>
      <trkpt lat="45.873256009072065" lon="9.07000201754272">
        <ele>1146</ele>
        <time>2010-06-13T12:02:45Z</time>
      </trkpt>
      <trkpt lat="45.873256009072065" lon="9.069989025592804">
        <ele>1146</ele>
        <time>2010-06-13T12:02:46Z</time>
      </trkpt>
      <trkpt lat="45.873256009072065" lon="9.069949965924025">
        <ele>1146</ele>
        <time>2010-06-13T12:02:47Z</time>
      </trkpt>
      <trkpt lat="45.873256009072065" lon="9.069937979802489">
        <ele>1145</ele>
        <time>2010-06-13T12:02:48Z</time>
      </trkpt>
      <trkpt lat="45.873247040435672" lon="9.069911995902658">
        <ele>1146</ele>
        <time>2010-06-13T12:02:50Z</time>
      </trkpt>
      <trkpt lat="45.873237987980247" lon="9.069860028102994">
        <ele>1146</ele>
        <time>2010-06-13T12:02:51Z</time>
      </trkpt>
      <trkpt lat="45.873237987980247" lon="9.069833960384131">
        <ele>1146</ele>
        <time>2010-06-13T12:02:52Z</time>
      </trkpt>
      <trkpt lat="45.873229019343853" lon="9.069820968434215">
        <ele>1146</ele>
        <time>2010-06-13T12:02:53Z</time>
      </trkpt>
      <trkpt lat="45.873229019343853" lon="9.069795990362763">
        <ele>1146</ele>
        <time>2010-06-13T12:02:54Z</time>
      </trkpt>
      <trkpt lat="45.873229019343853" lon="9.069770006462932">
        <ele>1146</ele>
        <time>2010-06-13T12:02:56Z</time>
      </trkpt>
      <trkpt lat="45.873219966888428" lon="9.0697440225631">
        <ele>1147</ele>
        <time>2010-06-13T12:02:57Z</time>
      </trkpt>
      <trkpt lat="45.873210998252034" lon="9.069718038663268">
        <ele>1147</ele>
        <time>2010-06-13T12:02:58Z</time>
      </trkpt>
      <trkpt lat="45.873210998252034" lon="9.069691970944405">
        <ele>1147</ele>
        <time>2010-06-13T12:02:59Z</time>
      </trkpt>
      <trkpt lat="45.873202029615641" lon="9.069679984822869">
        <ele>1146</ele>
        <time>2010-06-13T12:03:00Z</time>
      </trkpt>
      <trkpt lat="45.873202029615641" lon="9.069654000923038">
        <ele>1146</ele>
        <time>2010-06-13T12:03:01Z</time>
      </trkpt>
      <trkpt lat="45.873202029615641" lon="9.069641008973122">
        <ele>1146</ele>
        <time>2010-06-13T12:03:02Z</time>
      </trkpt>
      <trkpt lat="45.873202029615641" lon="9.069628017023206">
        <ele>1147</ele>
        <time>2010-06-13T12:03:03Z</time>
      </trkpt>
      <trkpt lat="45.873202029615641" lon="9.06961502507329">
        <ele>1148</ele>
        <time>2010-06-13T12:03:04Z</time>
      </trkpt>
      <trkpt lat="45.873192977160215" lon="9.069589041173458">
        <ele>1147</ele>
        <time>2010-06-13T12:03:05Z</time>
      </trkpt>
      <trkpt lat="45.873184008523822" lon="9.069563979282975">
        <ele>1148</ele>
        <time>2010-06-13T12:03:06Z</time>
      </trkpt>
      <trkpt lat="45.873184008523822" lon="9.069537995383143">
        <ele>1148</ele>
        <time>2010-06-13T12:03:07Z</time>
      </trkpt>
      <trkpt lat="45.873175039887428" lon="9.069525003433228">
        <ele>1147</ele>
        <time>2010-06-13T12:03:08Z</time>
      </trkpt>
      <trkpt lat="45.873175039887428" lon="9.069499019533396">
        <ele>1147</ele>
        <time>2010-06-13T12:03:09Z</time>
      </trkpt>
      <trkpt lat="45.873165987432003" lon="9.06948602758348">
        <ele>1148</ele>
        <time>2010-06-13T12:03:10Z</time>
      </trkpt>
      <trkpt lat="45.873157018795609" lon="9.069460965692997">
        <ele>1148</ele>
        <time>2010-06-13T12:03:11Z</time>
      </trkpt>
      <trkpt lat="45.873147966340184" lon="9.069434981793165">
        <ele>1148</ele>
        <time>2010-06-13T12:03:12Z</time>
      </trkpt>
      <trkpt lat="45.873138997703791" lon="9.069421989843249">
        <ele>1148</ele>
        <time>2010-06-13T12:03:13Z</time>
      </trkpt>
      <trkpt lat="45.873138997703791" lon="9.069396005943418">
        <ele>1148</ele>
        <time>2010-06-13T12:03:14Z</time>
      </trkpt>
      <trkpt lat="45.873130029067397" lon="9.069383013993502">
        <ele>1148</ele>
        <time>2010-06-13T12:03:15Z</time>
      </trkpt>
      <trkpt lat="45.873130029067397" lon="9.069370022043586">
        <ele>1148</ele>
        <time>2010-06-13T12:03:16Z</time>
      </trkpt>
      <trkpt lat="45.873130029067397" lon="9.06935703009367">
        <ele>1148</ele>
        <time>2010-06-13T12:03:17Z</time>
      </trkpt>
      <trkpt lat="45.873120976611972" lon="9.069331968203187">
        <ele>1149</ele>
        <time>2010-06-13T12:03:20Z</time>
      </trkpt>
      <trkpt lat="45.873112007975578" lon="9.069305984303355">
        <ele>1149</ele>
        <time>2010-06-13T12:03:21Z</time>
      </trkpt>
      <trkpt lat="45.873112007975578" lon="9.069267008453608">
        <ele>1148</ele>
        <time>2010-06-13T12:03:22Z</time>
      </trkpt>
      <trkpt lat="45.873103039339185" lon="9.069241024553776">
        <ele>1148</ele>
        <time>2010-06-13T12:03:23Z</time>
      </trkpt>
      <trkpt lat="45.873093986883759" lon="9.069215962663293">
        <ele>1148</ele>
        <time>2010-06-13T12:03:24Z</time>
      </trkpt>
      <trkpt lat="45.873093986883759" lon="9.069202970713377">
        <ele>1149</ele>
        <time>2010-06-13T12:03:26Z</time>
      </trkpt>
      <trkpt lat="45.873075965791941" lon="9.069163994863629">
        <ele>1149</ele>
        <time>2010-06-13T12:03:27Z</time>
      </trkpt>
      <trkpt lat="45.873075965791941" lon="9.069151002913714">
        <ele>1149</ele>
        <time>2010-06-13T12:03:28Z</time>
      </trkpt>
      <trkpt lat="45.873075965791941" lon="9.069138010963798">
        <ele>1149</ele>
        <time>2010-06-13T12:03:29Z</time>
      </trkpt>
      <trkpt lat="45.873066997155547" lon="9.069126024842262">
        <ele>1149</ele>
        <time>2010-06-13T12:03:30Z</time>
      </trkpt>
      <trkpt lat="45.873058028519154" lon="9.069112027063966">
        <ele>1150</ele>
        <time>2010-06-13T12:03:31Z</time>
      </trkpt>
      <trkpt lat="45.873048976063728" lon="9.069086965173483">
        <ele>1150</ele>
        <time>2010-06-13T12:03:32Z</time>
      </trkpt>
      <trkpt lat="45.873048976063728" lon="9.069060981273651">
        <ele>1150</ele>
        <time>2010-06-13T12:03:33Z</time>
      </trkpt>
      <trkpt lat="45.873040007427335" lon="9.069047989323735">
        <ele>1150</ele>
        <time>2010-06-13T12:03:34Z</time>
      </trkpt>
      <trkpt lat="45.873021986335516" lon="9.069022005423904">
        <ele>1150</ele>
        <time>2010-06-13T12:03:35Z</time>
      </trkpt>
      <trkpt lat="45.873013017699122" lon="9.069009013473988">
        <ele>1150</ele>
        <time>2010-06-13T12:03:36Z</time>
      </trkpt>
      <trkpt lat="45.873013017699122" lon="9.068984035402536">
        <ele>1151</ele>
        <time>2010-06-13T12:03:37Z</time>
      </trkpt>
      <trkpt lat="45.873003965243697" lon="9.068970959633589">
        <ele>1150</ele>
        <time>2010-06-13T12:03:38Z</time>
      </trkpt>
      <trkpt lat="45.872996002435684" lon="9.068944975733757">
        <ele>1150</ele>
        <time>2010-06-13T12:03:39Z</time>
      </trkpt>
      <trkpt lat="45.872996002435684" lon="9.068918991833925">
        <ele>1150</ele>
        <time>2010-06-13T12:03:40Z</time>
      </trkpt>
      <trkpt lat="45.87298602797091" lon="9.068905999884009">
        <ele>1151</ele>
        <time>2010-06-13T12:03:42Z</time>
      </trkpt>
      <trkpt lat="45.872976975515485" lon="9.068867024034262">
        <ele>1151</ele>
        <time>2010-06-13T12:03:43Z</time>
      </trkpt>
      <trkpt lat="45.872969012707472" lon="9.068855037912726">
        <ele>1151</ele>
        <time>2010-06-13T12:03:44Z</time>
      </trkpt>
      <trkpt lat="45.872969012707472" lon="9.068828970193863">
        <ele>1151</ele>
        <time>2010-06-13T12:03:45Z</time>
      </trkpt>
      <trkpt lat="45.872969012707472" lon="9.068815978243947">
        <ele>1151</ele>
        <time>2010-06-13T12:03:46Z</time>
      </trkpt>
      <trkpt lat="45.872969012707472" lon="9.068777002394199">
        <ele>1152</ele>
        <time>2010-06-13T12:03:48Z</time>
      </trkpt>
      <trkpt lat="45.872932970523834" lon="9.068531999364495">
        <ele>1151</ele>
        <time>2010-06-13T12:05:10Z</time>
      </trkpt>
      <trkpt lat="45.872932970523834" lon="9.068467961624265">
        <ele>1151</ele>
        <time>2010-06-13T12:05:13Z</time>
      </trkpt>
      <trkpt lat="45.872932970523834" lon="9.068454969674349">
        <ele>1151</ele>
        <time>2010-06-13T12:05:14Z</time>
      </trkpt>
      <trkpt lat="45.872942022979259" lon="9.068441977724433">
        <ele>1152</ele>
        <time>2010-06-13T12:05:15Z</time>
      </trkpt>
      <trkpt lat="45.872950991615653" lon="9.068428985774517">
        <ele>1153</ele>
        <time>2010-06-13T12:05:16Z</time>
      </trkpt>
      <trkpt lat="45.872950991615653" lon="9.068404007703066">
        <ele>1153</ele>
        <time>2010-06-13T12:05:17Z</time>
      </trkpt>
      <trkpt lat="45.872950991615653" lon="9.06839101575315">
        <ele>1153</ele>
        <time>2010-06-13T12:05:19Z</time>
      </trkpt>
      <trkpt lat="45.872950991615653" lon="9.068365031853318">
        <ele>1152</ele>
        <time>2010-06-13T12:05:20Z</time>
      </trkpt>
      <trkpt lat="45.872959960252047" lon="9.068352039903402">
        <ele>1152</ele>
        <time>2010-06-13T12:05:21Z</time>
      </trkpt>
      <trkpt lat="45.872959960252047" lon="9.068325972184539">
        <ele>1152</ele>
        <time>2010-06-13T12:05:22Z</time>
      </trkpt>
      <trkpt lat="45.872959960252047" lon="9.068313986063004">
        <ele>1153</ele>
        <time>2010-06-13T12:05:23Z</time>
      </trkpt>
      <trkpt lat="45.872959960252047" lon="9.068288002163172">
        <ele>1153</ele>
        <time>2010-06-13T12:05:24Z</time>
      </trkpt>
      <trkpt lat="45.872959960252047" lon="9.06826201826334">
        <ele>1153</ele>
        <time>2010-06-13T12:05:25Z</time>
      </trkpt>
      <trkpt lat="45.872950991615653" lon="9.068249026313424">
        <ele>1153</ele>
        <time>2010-06-13T12:05:27Z</time>
      </trkpt>
      <trkpt lat="45.872959960252047" lon="9.068222958594561">
        <ele>1154</ele>
        <time>2010-06-13T12:05:28Z</time>
      </trkpt>
      <trkpt lat="45.872959960252047" lon="9.068210972473025">
        <ele>1153</ele>
        <time>2010-06-13T12:05:29Z</time>
      </trkpt>
      <trkpt lat="45.872959960252047" lon="9.068159004673362">
        <ele>1154</ele>
        <time>2010-06-13T12:05:32Z</time>
      </trkpt>
      <trkpt lat="45.872950991615653" lon="9.068107958883047">
        <ele>1154</ele>
        <time>2010-06-13T12:05:33Z</time>
      </trkpt>
      <trkpt lat="45.872950991615653" lon="9.068093961104751">
        <ele>1154</ele>
        <time>2010-06-13T12:05:35Z</time>
      </trkpt>
      <trkpt lat="45.872942022979259" lon="9.068042999133468">
        <ele>1154</ele>
        <time>2010-06-13T12:05:36Z</time>
      </trkpt>
      <trkpt lat="45.872932970523834" lon="9.068017015233636">
        <ele>1154</ele>
        <time>2010-06-13T12:05:37Z</time>
      </trkpt>
      <trkpt lat="45.872932970523834" lon="9.06800402328372">
        <ele>1154</ele>
        <time>2010-06-13T12:05:38Z</time>
      </trkpt>
      <trkpt lat="45.872924001887441" lon="9.067978961393237">
        <ele>1155</ele>
        <time>2010-06-13T12:05:39Z</time>
      </trkpt>
      <trkpt lat="45.872915033251047" lon="9.067965969443321">
        <ele>1155</ele>
        <time>2010-06-13T12:05:41Z</time>
      </trkpt>
      <trkpt lat="45.872905980795622" lon="9.067926993593574">
        <ele>1155</ele>
        <time>2010-06-13T12:05:42Z</time>
      </trkpt>
      <trkpt lat="45.872905980795622" lon="9.067888017743826">
        <ele>1155</ele>
        <time>2010-06-13T12:05:43Z</time>
      </trkpt>
      <trkpt lat="45.872897012159228" lon="9.06787502579391">
        <ele>1155</ele>
        <time>2010-06-13T12:05:44Z</time>
      </trkpt>
      <trkpt lat="45.872887959703803" lon="9.067849963903427">
        <ele>1154</ele>
        <time>2010-06-13T12:05:45Z</time>
      </trkpt>
      <trkpt lat="45.872887959703803" lon="9.067836971953511">
        <ele>1155</ele>
        <time>2010-06-13T12:05:47Z</time>
      </trkpt>
      <trkpt lat="45.872870022431016" lon="9.067785004153848">
        <ele>1155</ele>
        <time>2010-06-13T12:05:48Z</time>
      </trkpt>
      <trkpt lat="45.872860969975591" lon="9.067772012203932">
        <ele>1155</ele>
        <time>2010-06-13T12:05:49Z</time>
      </trkpt>
      <trkpt lat="45.872852001339197" lon="9.067759020254016">
        <ele>1155</ele>
        <time>2010-06-13T12:05:50Z</time>
      </trkpt>
      <trkpt lat="45.872852001339197" lon="9.067733958363533">
        <ele>1155</ele>
        <time>2010-06-13T12:05:51Z</time>
      </trkpt>
      <trkpt lat="45.872833980247378" lon="9.067720966413617">
        <ele>1155</ele>
        <time>2010-06-13T12:05:53Z</time>
      </trkpt>
      <trkpt lat="45.87281595915556" lon="9.06768199056387">
        <ele>1156</ele>
        <time>2010-06-13T12:05:54Z</time>
      </trkpt>
      <trkpt lat="45.872798021882772" lon="9.067668998613954">
        <ele>1156</ele>
        <time>2010-06-13T12:05:55Z</time>
      </trkpt>
      <trkpt lat="45.872788969427347" lon="9.067656006664038">
        <ele>1156</ele>
        <time>2010-06-13T12:05:56Z</time>
      </trkpt>
      <trkpt lat="45.872788969427347" lon="9.067643014714122">
        <ele>1157</ele>
        <time>2010-06-13T12:05:57Z</time>
      </trkpt>
      <trkpt lat="45.872788969427347" lon="9.067631028592587">
        <ele>1157</ele>
        <time>2010-06-13T12:05:58Z</time>
      </trkpt>
      <trkpt lat="45.872780000790954" lon="9.067604960873723">
        <ele>1157</ele>
        <time>2010-06-13T12:05:59Z</time>
      </trkpt>
      <trkpt lat="45.87277103215456" lon="9.067578976973891">
        <ele>1157</ele>
        <time>2010-06-13T12:06:00Z</time>
      </trkpt>
      <trkpt lat="45.872761979699135" lon="9.06755299307406">
        <ele>1156</ele>
        <time>2010-06-13T12:06:01Z</time>
      </trkpt>
      <trkpt lat="45.872743958607316" lon="9.067540001124144">
        <ele>1156</ele>
        <time>2010-06-13T12:06:02Z</time>
      </trkpt>
      <trkpt lat="45.872734989970922" lon="9.067514017224312">
        <ele>1156</ele>
        <time>2010-06-13T12:06:04Z</time>
      </trkpt>
      <trkpt lat="45.872716968879104" lon="9.067475963383913">
        <ele>1157</ele>
        <time>2010-06-13T12:06:05Z</time>
      </trkpt>
      <trkpt lat="45.872699031606317" lon="9.067475963383913">
        <ele>1157</ele>
        <time>2010-06-13T12:06:06Z</time>
      </trkpt>
      <trkpt lat="45.872689979150891" lon="9.067449979484081">
        <ele>1157</ele>
        <time>2010-06-13T12:06:07Z</time>
      </trkpt>
      <trkpt lat="45.872681010514498" lon="9.067436987534165">
        <ele>1157</ele>
        <time>2010-06-13T12:06:08Z</time>
      </trkpt>
      <trkpt lat="45.872681010514498" lon="9.06742399558425">
        <ele>1157</ele>
        <time>2010-06-13T12:06:10Z</time>
      </trkpt>
      <trkpt lat="45.872662989422679" lon="9.067386025562882">
        <ele>1158</ele>
        <time>2010-06-13T12:06:11Z</time>
      </trkpt>
      <trkpt lat="45.872662989422679" lon="9.067360041663051">
        <ele>1158</ele>
        <time>2010-06-13T12:06:12Z</time>
      </trkpt>
      <trkpt lat="45.872654020786285" lon="9.067346965894103">
        <ele>1157</ele>
        <time>2010-06-13T12:06:13Z</time>
      </trkpt>
      <trkpt lat="45.87264496833086" lon="9.067320981994271">
        <ele>1158</ele>
        <time>2010-06-13T12:06:14Z</time>
      </trkpt>
      <trkpt lat="45.872635999694467" lon="9.06729499809444">
        <ele>1158</ele>
        <time>2010-06-13T12:06:15Z</time>
      </trkpt>
      <trkpt lat="45.872628036886454" lon="9.06729499809444">
        <ele>1158</ele>
        <time>2010-06-13T12:06:16Z</time>
      </trkpt>
      <trkpt lat="45.872617978602648" lon="9.067269014194608">
        <ele>1158</ele>
        <time>2010-06-13T12:06:17Z</time>
      </trkpt>
      <trkpt lat="45.872609009966254" lon="9.067257028073072">
        <ele>1158</ele>
        <time>2010-06-13T12:06:18Z</time>
      </trkpt>
      <trkpt lat="45.87260096333921" lon="9.067244036123157">
        <ele>1158</ele>
        <time>2010-06-13T12:06:19Z</time>
      </trkpt>
      <trkpt lat="45.872590988874435" lon="9.067230960354209">
        <ele>1159</ele>
        <time>2010-06-13T12:06:20Z</time>
      </trkpt>
      <trkpt lat="45.872572967782617" lon="9.067204976454377">
        <ele>1159</ele>
        <time>2010-06-13T12:06:21Z</time>
      </trkpt>
      <trkpt lat="45.872563999146223" lon="9.067178992554545">
        <ele>1159</ele>
        <time>2010-06-13T12:06:23Z</time>
      </trkpt>
      <trkpt lat="45.872545978054404" lon="9.067141022533178">
        <ele>1159</ele>
        <time>2010-06-13T12:06:24Z</time>
      </trkpt>
      <trkpt lat="45.872538015246391" lon="9.067115038633347">
        <ele>1159</ele>
        <time>2010-06-13T12:06:25Z</time>
      </trkpt>
      <trkpt lat="45.872528962790966" lon="9.067101962864399">
        <ele>1159</ele>
        <time>2010-06-13T12:06:26Z</time>
      </trkpt>
      <trkpt lat="45.872518988326192" lon="9.067088970914483">
        <ele>1159</ele>
        <time>2010-06-13T12:06:28Z</time>
      </trkpt>
      <trkpt lat="45.872511025518179" lon="9.067049995064735">
        <ele>1159</ele>
        <time>2010-06-13T12:06:29Z</time>
      </trkpt>
      <trkpt lat="45.87249300442636" lon="9.067024011164904">
        <ele>1160</ele>
        <time>2010-06-13T12:06:30Z</time>
      </trkpt>
      <trkpt lat="45.872484035789967" lon="9.067012025043368">
        <ele>1159</ele>
        <time>2010-06-13T12:06:31Z</time>
      </trkpt>
      <trkpt lat="45.872473977506161" lon="9.066999033093453">
        <ele>1160</ele>
        <time>2010-06-13T12:06:32Z</time>
      </trkpt>
      <trkpt lat="45.872466014698148" lon="9.066972965374589">
        <ele>1160</ele>
        <time>2010-06-13T12:06:34Z</time>
      </trkpt>
      <trkpt lat="45.872447993606329" lon="9.066946981474757">
        <ele>1160</ele>
        <time>2010-06-13T12:06:35Z</time>
      </trkpt>
      <trkpt lat="45.87242997251451" lon="9.066920997574925">
        <ele>1160</ele>
        <time>2010-06-13T12:06:36Z</time>
      </trkpt>
      <trkpt lat="45.872412035241723" lon="9.066896019503474">
        <ele>1160</ele>
        <time>2010-06-13T12:06:37Z</time>
      </trkpt>
      <trkpt lat="45.872412035241723" lon="9.066883027553558">
        <ele>1160</ele>
        <time>2010-06-13T12:06:38Z</time>
      </trkpt>
      <trkpt lat="45.872402982786298" lon="9.066870035603643">
        <ele>1160</ele>
        <time>2010-06-13T12:06:39Z</time>
      </trkpt>
      <trkpt lat="45.872394014149904" lon="9.066856959834695">
        <ele>1160</ele>
        <time>2010-06-13T12:06:41Z</time>
      </trkpt>
      <trkpt lat="45.872367024421692" lon="9.066830975934863">
        <ele>1160</ele>
        <time>2010-06-13T12:06:42Z</time>
      </trkpt>
      <trkpt lat="45.872357971966267" lon="9.066817983984947">
        <ele>1160</ele>
        <time>2010-06-13T12:06:43Z</time>
      </trkpt>
      <trkpt lat="45.87234003469348" lon="9.066804992035031">
        <ele>1160</ele>
        <time>2010-06-13T12:06:44Z</time>
      </trkpt>
      <trkpt lat="45.872330982238054" lon="9.066804992035031">
        <ele>1161</ele>
        <time>2010-06-13T12:06:45Z</time>
      </trkpt>
      <trkpt lat="45.872330982238054" lon="9.0667790081352">
        <ele>1161</ele>
        <time>2010-06-13T12:06:47Z</time>
      </trkpt>
      <trkpt lat="45.872303992509842" lon="9.066741038113833">
        <ele>1160</ele>
        <time>2010-06-13T12:06:48Z</time>
      </trkpt>
      <trkpt lat="45.872295023873448" lon="9.066714970394969">
        <ele>1161</ele>
        <time>2010-06-13T12:06:49Z</time>
      </trkpt>
      <trkpt lat="45.87227700278163" lon="9.066688986495137">
        <ele>1161</ele>
        <time>2010-06-13T12:06:50Z</time>
      </trkpt>
      <trkpt lat="45.872258981689811" lon="9.066663002595305">
        <ele>1161</ele>
        <time>2010-06-13T12:06:51Z</time>
      </trkpt>
      <trkpt lat="45.872250013053417" lon="9.06665101647377">
        <ele>1161</ele>
        <time>2010-06-13T12:06:53Z</time>
      </trkpt>
      <trkpt lat="45.872231991961598" lon="9.066612040624023">
        <ele>1162</ele>
        <time>2010-06-13T12:06:54Z</time>
      </trkpt>
      <trkpt lat="45.872223023325205" lon="9.066598964855075">
        <ele>1162</ele>
        <time>2010-06-13T12:06:55Z</time>
      </trkpt>
      <trkpt lat="45.87221397086978" lon="9.066585972905159">
        <ele>1162</ele>
        <time>2010-06-13T12:06:56Z</time>
      </trkpt>
      <trkpt lat="45.872205002233386" lon="9.066572980955243">
        <ele>1162</ele>
        <time>2010-06-13T12:06:57Z</time>
      </trkpt>
      <trkpt lat="45.872196033596992" lon="9.066559989005327">
        <ele>1162</ele>
        <time>2010-06-13T12:06:59Z</time>
      </trkpt>
      <trkpt lat="45.872168960049748" lon="9.066534005105496">
        <ele>1162</ele>
        <time>2010-06-13T12:07:00Z</time>
      </trkpt>
      <trkpt lat="45.872159991413355" lon="9.06652201898396">
        <ele>1162</ele>
        <time>2010-06-13T12:07:01Z</time>
      </trkpt>
      <trkpt lat="45.872141970321536" lon="9.066509027034044">
        <ele>1162</ele>
        <time>2010-06-13T12:07:02Z</time>
      </trkpt>
      <trkpt lat="45.872133001685143" lon="9.066496035084128">
        <ele>1162</ele>
        <time>2010-06-13T12:07:03Z</time>
      </trkpt>
      <trkpt lat="45.872114980593324" lon="9.066469967365265">
        <ele>1162</ele>
        <time>2010-06-13T12:07:05Z</time>
      </trkpt>
      <trkpt lat="45.872096959501505" lon="9.066456975415349">
        <ele>1162</ele>
        <time>2010-06-13T12:07:06Z</time>
      </trkpt>
      <trkpt lat="45.872079022228718" lon="9.066443983465433">
        <ele>1162</ele>
        <time>2010-06-13T12:07:07Z</time>
      </trkpt>
      <trkpt lat="45.872069969773293" lon="9.066430991515517">
        <ele>1162</ele>
        <time>2010-06-13T12:07:08Z</time>
      </trkpt>
      <trkpt lat="45.872052032500505" lon="9.066406013444066">
        <ele>1163</ele>
        <time>2010-06-13T12:07:09Z</time>
      </trkpt>
      <trkpt lat="45.87204298004508" lon="9.06639201566577">
        <ele>1163</ele>
        <time>2010-06-13T12:07:10Z</time>
      </trkpt>
      <trkpt lat="45.872024958953261" lon="9.06639201566577">
        <ele>1164</ele>
        <time>2010-06-13T12:07:11Z</time>
      </trkpt>
      <trkpt lat="45.872007021680474" lon="9.066367037594318">
        <ele>1163</ele>
        <time>2010-06-13T12:07:12Z</time>
      </trkpt>
      <trkpt lat="45.871997969225049" lon="9.066367037594318">
        <ele>1163</ele>
        <time>2010-06-13T12:07:13Z</time>
      </trkpt>
      <trkpt lat="45.871989000588655" lon="9.066353961825371">
        <ele>1163</ele>
        <time>2010-06-13T12:07:14Z</time>
      </trkpt>
      <trkpt lat="45.871970979496837" lon="9.066340969875455">
        <ele>1164</ele>
        <time>2010-06-13T12:07:16Z</time>
      </trkpt>
      <trkpt lat="45.871943989768624" lon="9.066327977925539">
        <ele>1164</ele>
        <time>2010-06-13T12:07:17Z</time>
      </trkpt>
      <trkpt lat="45.871935021132231" lon="9.066314985975623">
        <ele>1164</ele>
        <time>2010-06-13T12:07:18Z</time>
      </trkpt>
      <trkpt lat="45.871917000040412" lon="9.066301994025707">
        <ele>1164</ele>
        <time>2010-06-13T12:07:19Z</time>
      </trkpt>
      <trkpt lat="45.871908031404018" lon="9.066289002075791">
        <ele>1164</ele>
        <time>2010-06-13T12:07:21Z</time>
      </trkpt>
      <trkpt lat="45.8718900103122" lon="9.066276010125876">
        <ele>1164</ele>
        <time>2010-06-13T12:07:22Z</time>
      </trkpt>
      <trkpt lat="45.871863020583987" lon="9.066251032054424">
        <ele>1163</ele>
        <time>2010-06-13T12:07:23Z</time>
      </trkpt>
      <trkpt lat="45.871844999492168" lon="9.066238040104508">
        <ele>1164</ele>
        <time>2010-06-13T12:07:24Z</time>
      </trkpt>
      <trkpt lat="45.871836030855775" lon="9.066224964335561">
        <ele>1164</ele>
        <time>2010-06-13T12:07:25Z</time>
      </trkpt>
      <trkpt lat="45.871818009763956" lon="9.066211972385645">
        <ele>1165</ele>
        <time>2010-06-13T12:07:27Z</time>
      </trkpt>
      <trkpt lat="45.871809041127563" lon="9.066185988485813">
        <ele>1165</ele>
        <time>2010-06-13T12:07:28Z</time>
      </trkpt>
      <trkpt lat="45.871781967580318" lon="9.066160004585981">
        <ele>1164</ele>
        <time>2010-06-13T12:07:29Z</time>
      </trkpt>
      <trkpt lat="45.871764030307531" lon="9.066147012636066">
        <ele>1165</ele>
        <time>2010-06-13T12:07:30Z</time>
      </trkpt>
      <trkpt lat="45.871754977852106" lon="9.06613502651453">
        <ele>1165</ele>
        <time>2010-06-13T12:07:31Z</time>
      </trkpt>
      <trkpt lat="45.871737040579319" lon="9.066122034564614">
        <ele>1165</ele>
        <time>2010-06-13T12:07:32Z</time>
      </trkpt>
      <trkpt lat="45.871727988123894" lon="9.066122034564614">
        <ele>1165</ele>
        <time>2010-06-13T12:07:34Z</time>
      </trkpt>
      <trkpt lat="45.871692029759288" lon="9.066108958795667">
        <ele>1165</ele>
        <time>2010-06-13T12:07:35Z</time>
      </trkpt>
      <trkpt lat="45.871682977303863" lon="9.066108958795667">
        <ele>1165</ele>
        <time>2010-06-13T12:07:36Z</time>
      </trkpt>
      <trkpt lat="45.871665040031075" lon="9.066095966845751">
        <ele>1165</ele>
        <time>2010-06-13T12:07:37Z</time>
      </trkpt>
      <trkpt lat="45.87165598757565" lon="9.066095966845751">
        <ele>1166</ele>
        <time>2010-06-13T12:07:39Z</time>
      </trkpt>
      <trkpt lat="45.871628997847438" lon="9.066069982945919">
        <ele>1166</ele>
        <time>2010-06-13T12:07:40Z</time>
      </trkpt>
      <trkpt lat="45.871602008119226" lon="9.066056990996003">
        <ele>1166</ele>
        <time>2010-06-13T12:07:42Z</time>
      </trkpt>
      <trkpt lat="45.871593039482832" lon="9.066043999046087">
        <ele>1166</ele>
        <time>2010-06-13T12:07:43Z</time>
      </trkpt>
      <trkpt lat="45.871583987027407" lon="9.066031007096171">
        <ele>1166</ele>
        <time>2010-06-13T12:07:45Z</time>
      </trkpt>
      <trkpt lat="45.871565965935588" lon="9.06600602902472">
        <ele>1166</ele>
        <time>2010-06-13T12:07:46Z</time>
      </trkpt>
      <trkpt lat="45.871548028662801" lon="9.065993037074804">
        <ele>1167</ele>
        <time>2010-06-13T12:07:47Z</time>
      </trkpt>
      <trkpt lat="45.871538976207376" lon="9.065979961305857">
        <ele>1166</ele>
        <time>2010-06-13T12:07:48Z</time>
      </trkpt>
      <trkpt lat="45.871530007570982" lon="9.065953977406025">
        <ele>1167</ele>
        <time>2010-06-13T12:07:49Z</time>
      </trkpt>
      <trkpt lat="45.871511986479163" lon="9.065927993506193">
        <ele>1167</ele>
        <time>2010-06-13T12:07:51Z</time>
      </trkpt>
      <trkpt lat="45.871530007570982" lon="9.065864039584994">
        <ele>1167</ele>
        <time>2010-06-13T12:07:53Z</time>
      </trkpt>
      <trkpt lat="45.871548028662801" lon="9.065864039584994">
        <ele>1167</ele>
        <time>2010-06-13T12:07:54Z</time>
      </trkpt>
      <trkpt lat="45.871556997299194" lon="9.065864039584994">
        <ele>1168</ele>
        <time>2010-06-13T12:07:55Z</time>
      </trkpt>
      <trkpt lat="45.871575018391013" lon="9.065864039584994">
        <ele>1168</ele>
        <time>2010-06-13T12:07:56Z</time>
      </trkpt>
      <trkpt lat="45.871593039482832" lon="9.06587703153491">
        <ele>1168</ele>
        <time>2010-06-13T12:07:57Z</time>
      </trkpt>
      <trkpt lat="45.871610976755619" lon="9.065890023484826">
        <ele>1167</ele>
        <time>2010-06-13T12:07:58Z</time>
      </trkpt>
      <trkpt lat="45.871628997847438" lon="9.065903015434742">
        <ele>1168</ele>
        <time>2010-06-13T12:07:59Z</time>
      </trkpt>
      <trkpt lat="45.871637966483831" lon="9.065915001556277">
        <ele>1168</ele>
        <time>2010-06-13T12:08:00Z</time>
      </trkpt>
      <trkpt lat="45.871647018939257" lon="9.065927993506193">
        <ele>1168</ele>
        <time>2010-06-13T12:08:01Z</time>
      </trkpt>
      <trkpt lat="45.87165598757565" lon="9.065940985456109">
        <ele>1168</ele>
        <time>2010-06-13T12:08:02Z</time>
      </trkpt>
      <trkpt lat="45.871674008667469" lon="9.065966969355941">
        <ele>1168</ele>
        <time>2010-06-13T12:08:03Z</time>
      </trkpt>
      <trkpt lat="45.871682977303863" lon="9.065966969355941">
        <ele>1168</ele>
        <time>2010-06-13T12:08:04Z</time>
      </trkpt>
      <trkpt lat="45.871692029759288" lon="9.065979961305857">
        <ele>1168</ele>
        <time>2010-06-13T12:08:05Z</time>
      </trkpt>
      <trkpt lat="45.871700998395681" lon="9.065993037074804">
        <ele>1168</ele>
        <time>2010-06-13T12:08:06Z</time>
      </trkpt>
      <trkpt lat="45.8717190194875" lon="9.06600602902472">
        <ele>1167</ele>
        <time>2010-06-13T12:08:07Z</time>
      </trkpt>
      <trkpt lat="45.871727988123894" lon="9.066019020974636">
        <ele>1168</ele>
        <time>2010-06-13T12:08:08Z</time>
      </trkpt>
      <trkpt lat="45.871737040579319" lon="9.066019020974636">
        <ele>1168</ele>
        <time>2010-06-13T12:08:10Z</time>
      </trkpt>
      <trkpt lat="45.871746009215713" lon="9.066043999046087">
        <ele>1169</ele>
        <time>2010-06-13T12:08:11Z</time>
      </trkpt>
      <trkpt lat="45.871764030307531" lon="9.066043999046087">
        <ele>1169</ele>
        <time>2010-06-13T12:08:12Z</time>
      </trkpt>
      <trkpt lat="45.871791020035744" lon="9.066069982945919">
        <ele>1169</ele>
        <time>2010-06-13T12:08:13Z</time>
      </trkpt>
      <trkpt lat="45.871799988672137" lon="9.066069982945919">
        <ele>1169</ele>
        <time>2010-06-13T12:08:14Z</time>
      </trkpt>
      <trkpt lat="45.871818009763956" lon="9.066082974895835">
        <ele>1170</ele>
        <time>2010-06-13T12:08:15Z</time>
      </trkpt>
      <trkpt lat="45.871836030855775" lon="9.066095966845751">
        <ele>1169</ele>
        <time>2010-06-13T12:08:17Z</time>
      </trkpt>
      <trkpt lat="45.871871989220381" lon="9.066122034564614">
        <ele>1169</ele>
        <time>2010-06-13T12:08:18Z</time>
      </trkpt>
      <trkpt lat="45.8718900103122" lon="9.066122034564614">
        <ele>1170</ele>
        <time>2010-06-13T12:08:20Z</time>
      </trkpt>
      <trkpt lat="45.871917000040412" lon="9.066122034564614">
        <ele>1170</ele>
        <time>2010-06-13T12:08:21Z</time>
      </trkpt>
      <trkpt lat="45.871925968676805" lon="9.06613502651453">
        <ele>1170</ele>
        <time>2010-06-13T12:08:22Z</time>
      </trkpt>
      <trkpt lat="45.871943989768624" lon="9.066148018464446">
        <ele>1170</ele>
        <time>2010-06-13T12:08:23Z</time>
      </trkpt>
      <trkpt lat="45.871952958405018" lon="9.066148018464446">
        <ele>1170</ele>
        <time>2010-06-13T12:08:25Z</time>
      </trkpt>
      <trkpt lat="45.871962010860443" lon="9.066148018464446">
        <ele>1170</ele>
        <time>2010-06-13T12:08:26Z</time>
      </trkpt>
      <trkpt lat="45.871989000588655" lon="9.066161010414362">
        <ele>1170</ele>
        <time>2010-06-13T12:08:27Z</time>
      </trkpt>
      <trkpt lat="45.872079022228718" lon="9.066198980435729">
        <ele>1171</ele>
        <time>2010-06-13T12:08:33Z</time>
      </trkpt>
      <trkpt lat="45.872096959501505" lon="9.066211972385645">
        <ele>1171</ele>
        <time>2010-06-13T12:08:34Z</time>
      </trkpt>
      <trkpt lat="45.872114980593324" lon="9.066224964335561">
        <ele>1171</ele>
        <time>2010-06-13T12:08:35Z</time>
      </trkpt>
      <trkpt lat="45.872124033048749" lon="9.066224964335561">
        <ele>1171</ele>
        <time>2010-06-13T12:08:36Z</time>
      </trkpt>
      <trkpt lat="45.872141970321536" lon="9.066238040104508">
        <ele>1171</ele>
        <time>2010-06-13T12:08:38Z</time>
      </trkpt>
      <trkpt lat="45.872186981141567" lon="9.066251032054424">
        <ele>1171</ele>
        <time>2010-06-13T12:08:39Z</time>
      </trkpt>
      <trkpt lat="45.872205002233386" lon="9.06626402400434">
        <ele>1172</ele>
        <time>2010-06-13T12:08:40Z</time>
      </trkpt>
      <trkpt lat="45.872223023325205" lon="9.066277015954256">
        <ele>1172</ele>
        <time>2010-06-13T12:08:41Z</time>
      </trkpt>
      <trkpt lat="45.872240960597992" lon="9.066277015954256">
        <ele>1172</ele>
        <time>2010-06-13T12:08:43Z</time>
      </trkpt>
      <trkpt lat="45.872250013053417" lon="9.066290007904172">
        <ele>1172</ele>
        <time>2010-06-13T12:08:44Z</time>
      </trkpt>
      <trkpt lat="45.872268034145236" lon="9.066302999854088">
        <ele>1172</ele>
        <time>2010-06-13T12:08:45Z</time>
      </trkpt>
      <trkpt lat="45.872295023873448" lon="9.066315991804004">
        <ele>1171</ele>
        <time>2010-06-13T12:08:46Z</time>
      </trkpt>
      <trkpt lat="45.872303992509842" lon="9.06632898375392">
        <ele>1171</ele>
        <time>2010-06-13T12:08:47Z</time>
      </trkpt>
      <trkpt lat="45.872322013601661" lon="9.066340969875455">
        <ele>1172</ele>
        <time>2010-06-13T12:08:48Z</time>
      </trkpt>
      <trkpt lat="45.872330982238054" lon="9.066353961825371">
        <ele>1172</ele>
        <time>2010-06-13T12:08:49Z</time>
      </trkpt>
      <trkpt lat="45.87234003469348" lon="9.066353961825371">
        <ele>1172</ele>
        <time>2010-06-13T12:08:50Z</time>
      </trkpt>
      <trkpt lat="45.872349003329873" lon="9.066367037594318">
        <ele>1173</ele>
        <time>2010-06-13T12:08:52Z</time>
      </trkpt>
      <trkpt lat="45.872367024421692" lon="9.066380029544234">
        <ele>1173</ele>
        <time>2010-06-13T12:08:53Z</time>
      </trkpt>
      <trkpt lat="45.872375993058085" lon="9.06639302149415">
        <ele>1173</ele>
        <time>2010-06-13T12:08:54Z</time>
      </trkpt>
      <trkpt lat="45.872384961694479" lon="9.066406013444066">
        <ele>1173</ele>
        <time>2010-06-13T12:08:55Z</time>
      </trkpt>
      <trkpt lat="45.872421003878117" lon="9.066431997343898">
        <ele>1173</ele>
        <time>2010-06-13T12:08:56Z</time>
      </trkpt>
      <trkpt lat="45.872439024969935" lon="9.066444989293814">
        <ele>1173</ele>
        <time>2010-06-13T12:08:57Z</time>
      </trkpt>
      <trkpt lat="45.872456962242723" lon="9.06645798124373">
        <ele>1173</ele>
        <time>2010-06-13T12:08:58Z</time>
      </trkpt>
      <trkpt lat="45.872466014698148" lon="9.066470973193646">
        <ele>1173</ele>
        <time>2010-06-13T12:08:59Z</time>
      </trkpt>
      <trkpt lat="45.872474983334541" lon="9.066482959315181">
        <ele>1174</ele>
        <time>2010-06-13T12:09:00Z</time>
      </trkpt>
      <trkpt lat="45.872484035789967" lon="9.066496035084128">
        <ele>1174</ele>
        <time>2010-06-13T12:09:01Z</time>
      </trkpt>
      <trkpt lat="45.872501973062754" lon="9.066509027034044">
        <ele>1174</ele>
        <time>2010-06-13T12:09:03Z</time>
      </trkpt>
      <trkpt lat="45.872511025518179" lon="9.06652201898396">
        <ele>1174</ele>
        <time>2010-06-13T12:09:04Z</time>
      </trkpt>
      <trkpt lat="45.872519994154572" lon="9.066535010933876">
        <ele>1174</ele>
        <time>2010-06-13T12:09:05Z</time>
      </trkpt>
      <trkpt lat="45.872546983882785" lon="9.066573986783624">
        <ele>1175</ele>
        <time>2010-06-13T12:09:06Z</time>
      </trkpt>
      <trkpt lat="45.872546983882785" lon="9.066585972905159">
        <ele>1175</ele>
        <time>2010-06-13T12:09:07Z</time>
      </trkpt>
      <trkpt lat="45.872565004974604" lon="9.066598964855075">
        <ele>1175</ele>
        <time>2010-06-13T12:09:08Z</time>
      </trkpt>
      <trkpt lat="45.872573973610997" lon="9.066612040624023">
        <ele>1175</ele>
        <time>2010-06-13T12:09:09Z</time>
      </trkpt>
      <trkpt lat="45.872583026066422" lon="9.066625032573938">
        <ele>1175</ele>
        <time>2010-06-13T12:09:10Z</time>
      </trkpt>
      <trkpt lat="45.872591994702816" lon="9.06665101647377">
        <ele>1175</ele>
        <time>2010-06-13T12:09:11Z</time>
      </trkpt>
      <trkpt lat="45.87260096333921" lon="9.066664008423686">
        <ele>1175</ele>
        <time>2010-06-13T12:09:13Z</time>
      </trkpt>
      <trkpt lat="45.872610015794635" lon="9.066689992323518">
        <ele>1176</ele>
        <time>2010-06-13T12:09:14Z</time>
      </trkpt>
      <trkpt lat="45.872618984431028" lon="9.06671597622335">
        <ele>1176</ele>
        <time>2010-06-13T12:09:16Z</time>
      </trkpt>
      <trkpt lat="45.872628036886454" lon="9.066727962344885">
        <ele>1176</ele>
        <time>2010-06-13T12:09:17Z</time>
      </trkpt>
      <trkpt lat="45.872637005522847" lon="9.066727962344885">
        <ele>1176</ele>
        <time>2010-06-13T12:09:18Z</time>
      </trkpt>
      <trkpt lat="45.872645974159241" lon="9.066741038113833">
        <ele>1176</ele>
        <time>2010-06-13T12:09:19Z</time>
      </trkpt>
      <trkpt lat="45.872655026614666" lon="9.066754030063748">
        <ele>1176</ele>
        <time>2010-06-13T12:09:20Z</time>
      </trkpt>
      <trkpt lat="45.872682016342878" lon="9.06678001396358">
        <ele>1176</ele>
        <time>2010-06-13T12:09:21Z</time>
      </trkpt>
      <trkpt lat="45.872690984979272" lon="9.066793005913496">
        <ele>1176</ele>
        <time>2010-06-13T12:09:22Z</time>
      </trkpt>
      <trkpt lat="45.872709006071091" lon="9.066805997863412">
        <ele>1176</ele>
        <time>2010-06-13T12:09:23Z</time>
      </trkpt>
      <trkpt lat="45.872717974707484" lon="9.066818989813328">
        <ele>1176</ele>
        <time>2010-06-13T12:09:24Z</time>
      </trkpt>
      <trkpt lat="45.87272702716291" lon="9.066830975934863">
        <ele>1176</ele>
        <time>2010-06-13T12:09:25Z</time>
      </trkpt>
      <trkpt lat="45.872735995799303" lon="9.066843967884779">
        <ele>1176</ele>
        <time>2010-06-13T12:09:26Z</time>
      </trkpt>
      <trkpt lat="45.872754016891122" lon="9.066870035603643">
        <ele>1176</ele>
        <time>2010-06-13T12:09:27Z</time>
      </trkpt>
      <trkpt lat="45.872772037982941" lon="9.066883027553558">
        <ele>1177</ele>
        <time>2010-06-13T12:09:29Z</time>
      </trkpt>
      <trkpt lat="45.872799027711153" lon="9.066922003403306">
        <ele>1177</ele>
        <time>2010-06-13T12:09:31Z</time>
      </trkpt>
      <trkpt lat="45.87281696498394" lon="9.066934995353222">
        <ele>1177</ele>
        <time>2010-06-13T12:09:32Z</time>
      </trkpt>
      <trkpt lat="45.872834986075759" lon="9.066972965374589">
        <ele>1177</ele>
        <time>2010-06-13T12:09:33Z</time>
      </trkpt>
      <trkpt lat="45.872853007167578" lon="9.066986041143537">
        <ele>1177</ele>
        <time>2010-06-13T12:09:34Z</time>
      </trkpt>
      <trkpt lat="45.872861975803971" lon="9.066999033093453">
        <ele>1177</ele>
        <time>2010-06-13T12:09:35Z</time>
      </trkpt>
      <trkpt lat="45.872871028259397" lon="9.067012025043368">
        <ele>1178</ele>
        <time>2010-06-13T12:09:36Z</time>
      </trkpt>
      <trkpt lat="45.87287899106741" lon="9.067025016993284">
        <ele>1177</ele>
        <time>2010-06-13T12:09:37Z</time>
      </trkpt>
      <trkpt lat="45.872897012159228" lon="9.067051000893116">
        <ele>1177</ele>
        <time>2010-06-13T12:09:38Z</time>
      </trkpt>
      <trkpt lat="45.872906986624002" lon="9.067063992843032">
        <ele>1177</ele>
        <time>2010-06-13T12:09:40Z</time>
      </trkpt>
      <trkpt lat="45.872924001887441" lon="9.067076984792948">
        <ele>1177</ele>
        <time>2010-06-13T12:09:41Z</time>
      </trkpt>
      <trkpt lat="45.872942022979259" lon="9.067088970914483">
        <ele>1178</ele>
        <time>2010-06-13T12:09:42Z</time>
      </trkpt>
      <trkpt lat="45.872951997444034" lon="9.067115038633347">
        <ele>1178</ele>
        <time>2010-06-13T12:09:43Z</time>
      </trkpt>
      <trkpt lat="45.872960966080427" lon="9.067128030583262">
        <ele>1178</ele>
        <time>2010-06-13T12:09:44Z</time>
      </trkpt>
      <trkpt lat="45.872969012707472" lon="9.067141022533178">
        <ele>1178</ele>
        <time>2010-06-13T12:09:45Z</time>
      </trkpt>
      <trkpt lat="45.872996002435684" lon="9.06716700643301">
        <ele>1178</ele>
        <time>2010-06-13T12:09:46Z</time>
      </trkpt>
      <trkpt lat="45.873014023527503" lon="9.067179998382926">
        <ele>1179</ele>
        <time>2010-06-13T12:09:47Z</time>
      </trkpt>
      <trkpt lat="45.873023997992277" lon="9.067192990332842">
        <ele>1178</ele>
        <time>2010-06-13T12:09:48Z</time>
      </trkpt>
      <trkpt lat="45.87303196080029" lon="9.067205982282758">
        <ele>1178</ele>
        <time>2010-06-13T12:09:49Z</time>
      </trkpt>
      <trkpt lat="45.873041013255715" lon="9.067217968404293">
        <ele>1179</ele>
        <time>2010-06-13T12:09:50Z</time>
      </trkpt>
      <trkpt lat="45.87305098772049" lon="9.067230960354209">
        <ele>1179</ele>
        <time>2010-06-13T12:09:51Z</time>
      </trkpt>
      <trkpt lat="45.873068002983928" lon="9.067244036123157">
        <ele>1180</ele>
        <time>2010-06-13T12:09:52Z</time>
      </trkpt>
      <trkpt lat="45.873076971620321" lon="9.067257028073072">
        <ele>1180</ele>
        <time>2010-06-13T12:09:54Z</time>
      </trkpt>
      <trkpt lat="45.873095998540521" lon="9.067270020022988">
        <ele>1179</ele>
        <time>2010-06-13T12:09:55Z</time>
      </trkpt>
      <trkpt lat="45.873103961348534" lon="9.067283011972904">
        <ele>1179</ele>
        <time>2010-06-13T12:09:56Z</time>
      </trkpt>
      <trkpt lat="45.873103961348534" lon="9.06729600392282">
        <ele>1179</ele>
        <time>2010-06-13T12:09:57Z</time>
      </trkpt>
      <trkpt lat="45.873113013803959" lon="9.067308995872736">
        <ele>1179</ele>
        <time>2010-06-13T12:09:58Z</time>
      </trkpt>
      <trkpt lat="45.873141009360552" lon="9.067333973944187">
        <ele>1180</ele>
        <time>2010-06-13T12:09:59Z</time>
      </trkpt>
      <trkpt lat="45.873148972168565" lon="9.067346965894103">
        <ele>1179</ele>
        <time>2010-06-13T12:10:00Z</time>
      </trkpt>
      <trkpt lat="45.87315802462399" lon="9.067360041663051">
        <ele>1179</ele>
        <time>2010-06-13T12:10:01Z</time>
      </trkpt>
      <trkpt lat="45.873166993260384" lon="9.067373033612967">
        <ele>1180</ele>
        <time>2010-06-13T12:10:02Z</time>
      </trkpt>
      <trkpt lat="45.873175961896777" lon="9.067386025562882">
        <ele>1180</ele>
        <time>2010-06-13T12:10:03Z</time>
      </trkpt>
      <trkpt lat="45.873193982988596" lon="9.067399017512798">
        <ele>1180</ele>
        <time>2010-06-13T12:10:05Z</time>
      </trkpt>
      <trkpt lat="45.873203035444021" lon="9.067412009462714">
        <ele>1180</ele>
        <time>2010-06-13T12:10:06Z</time>
      </trkpt>
      <trkpt lat="45.873220972716808" lon="9.06742500141263">
        <ele>1180</ele>
        <time>2010-06-13T12:10:07Z</time>
      </trkpt>
      <trkpt lat="45.873238993808627" lon="9.067463977262378">
        <ele>1180</ele>
        <time>2010-06-13T12:10:08Z</time>
      </trkpt>
      <trkpt lat="45.873247962445021" lon="9.067475963383913">
        <ele>1180</ele>
        <time>2010-06-13T12:10:09Z</time>
      </trkpt>
      <trkpt lat="45.873257014900446" lon="9.067502031102777">
        <ele>1181</ele>
        <time>2010-06-13T12:10:10Z</time>
      </trkpt>
      <trkpt lat="45.873275035992265" lon="9.067515023052692">
        <ele>1181</ele>
        <time>2010-06-13T12:10:11Z</time>
      </trkpt>
      <trkpt lat="45.873284004628658" lon="9.067528015002608">
        <ele>1182</ele>
        <time>2010-06-13T12:10:12Z</time>
      </trkpt>
      <trkpt lat="45.873292973265052" lon="9.06755399890244">
        <ele>1181</ele>
        <time>2010-06-13T12:10:13Z</time>
      </trkpt>
      <trkpt lat="45.873302025720477" lon="9.067566990852356">
        <ele>1181</ele>
        <time>2010-06-13T12:10:14Z</time>
      </trkpt>
      <trkpt lat="45.873310994356871" lon="9.067578976973891">
        <ele>1181</ele>
        <time>2010-06-13T12:10:16Z</time>
      </trkpt>
      <trkpt lat="45.873319962993264" lon="9.067591968923807">
        <ele>1182</ele>
        <time>2010-06-13T12:10:17Z</time>
      </trkpt>
      <trkpt lat="45.873337984085083" lon="9.067631028592587">
        <ele>1182</ele>
        <time>2010-06-13T12:10:18Z</time>
      </trkpt>
      <trkpt lat="45.873347036540508" lon="9.067644020542502">
        <ele>1182</ele>
        <time>2010-06-13T12:10:19Z</time>
      </trkpt>
      <trkpt lat="45.873364973813295" lon="9.067670004442334">
        <ele>1181</ele>
        <time>2010-06-13T12:10:20Z</time>
      </trkpt>
      <trkpt lat="45.873374026268721" lon="9.06768299639225">
        <ele>1181</ele>
        <time>2010-06-13T12:10:21Z</time>
      </trkpt>
      <trkpt lat="45.873374026268721" lon="9.067695988342166">
        <ele>1182</ele>
        <time>2010-06-13T12:10:22Z</time>
      </trkpt>
      <trkpt lat="45.873382994905114" lon="9.067720966413617">
        <ele>1182</ele>
        <time>2010-06-13T12:10:24Z</time>
      </trkpt>
      <trkpt lat="45.873391963541508" lon="9.067733958363533">
        <ele>1182</ele>
        <time>2010-06-13T12:10:25Z</time>
      </trkpt>
      <trkpt lat="45.873401015996933" lon="9.067760026082397">
        <ele>1182</ele>
        <time>2010-06-13T12:10:26Z</time>
      </trkpt>
      <trkpt lat="45.873401015996933" lon="9.067773018032312">
        <ele>1182</ele>
        <time>2010-06-13T12:10:27Z</time>
      </trkpt>
      <trkpt lat="45.873419037088752" lon="9.067823980003595">
        <ele>1182</ele>
        <time>2010-06-13T12:10:28Z</time>
      </trkpt>
      <trkpt lat="45.873419037088752" lon="9.067836971953511">
        <ele>1182</ele>
        <time>2010-06-13T12:10:29Z</time>
      </trkpt>
      <trkpt lat="45.873428005725145" lon="9.067863039672375">
        <ele>1182</ele>
        <time>2010-06-13T12:10:30Z</time>
      </trkpt>
      <trkpt lat="45.873428005725145" lon="9.067876031622291">
        <ele>1182</ele>
        <time>2010-06-13T12:10:31Z</time>
      </trkpt>
      <trkpt lat="45.873436974361539" lon="9.067889023572207">
        <ele>1183</ele>
        <time>2010-06-13T12:10:32Z</time>
      </trkpt>
      <trkpt lat="45.873436974361539" lon="9.067915007472038">
        <ele>1183</ele>
        <time>2010-06-13T12:10:33Z</time>
      </trkpt>
      <trkpt lat="45.873446026816964" lon="9.067926993593574">
        <ele>1183</ele>
        <time>2010-06-13T12:10:35Z</time>
      </trkpt>
      <trkpt lat="45.873446026816964" lon="9.067965969443321">
        <ele>1183</ele>
        <time>2010-06-13T12:10:37Z</time>
      </trkpt>
      <trkpt lat="45.873454995453358" lon="9.067992037162185">
        <ele>1183</ele>
        <time>2010-06-13T12:10:38Z</time>
      </trkpt>
      <trkpt lat="45.873463964089751" lon="9.068018021062017">
        <ele>1183</ele>
        <time>2010-06-13T12:10:39Z</time>
      </trkpt>
      <trkpt lat="45.873463964089751" lon="9.068044004961848">
        <ele>1183</ele>
        <time>2010-06-13T12:10:40Z</time>
      </trkpt>
      <trkpt lat="45.873463964089751" lon="9.068055991083384">
        <ele>1183</ele>
        <time>2010-06-13T12:10:41Z</time>
      </trkpt>
      <trkpt lat="45.873473016545177" lon="9.068094966933131">
        <ele>1184</ele>
        <time>2010-06-13T12:10:44Z</time>
      </trkpt>
      <trkpt lat="45.87348198518157" lon="9.068147018551827">
        <ele>1184</ele>
        <time>2010-06-13T12:10:45Z</time>
      </trkpt>
      <trkpt lat="45.87348198518157" lon="9.068160010501742">
        <ele>1184</ele>
        <time>2010-06-13T12:10:46Z</time>
      </trkpt>
      <trkpt lat="45.873491037636995" lon="9.068184988573194">
        <ele>1184</ele>
        <time>2010-06-13T12:10:47Z</time>
      </trkpt>
      <trkpt lat="45.873491037636995" lon="9.068210972473025">
        <ele>1185</ele>
        <time>2010-06-13T12:10:48Z</time>
      </trkpt>
      <trkpt lat="45.873500006273389" lon="9.068223964422941">
        <ele>1185</ele>
        <time>2010-06-13T12:10:50Z</time>
      </trkpt>
      <trkpt lat="45.873500006273389" lon="9.068237040191889">
        <ele>1185</ele>
        <time>2010-06-13T12:10:51Z</time>
      </trkpt>
      <trkpt lat="45.873508974909782" lon="9.068250032141805">
        <ele>1185</ele>
        <time>2010-06-13T12:10:52Z</time>
      </trkpt>
      <trkpt lat="45.873526996001601" lon="9.068289007991552">
        <ele>1185</ele>
        <time>2010-06-13T12:10:53Z</time>
      </trkpt>
      <trkpt lat="45.873526996001601" lon="9.068313986063004">
        <ele>1185</ele>
        <time>2010-06-13T12:10:54Z</time>
      </trkpt>
      <trkpt lat="45.873535964637995" lon="9.068326978012919">
        <ele>1185</ele>
        <time>2010-06-13T12:10:55Z</time>
      </trkpt>
      <trkpt lat="45.87354501709342" lon="9.068352961912751">
        <ele>1185</ele>
        <time>2010-06-13T12:10:56Z</time>
      </trkpt>
      <trkpt lat="45.873553985729814" lon="9.068366037681699">
        <ele>1185</ele>
        <time>2010-06-13T12:10:57Z</time>
      </trkpt>
      <trkpt lat="45.873553985729814" lon="9.068379029631615">
        <ele>1185</ele>
        <time>2010-06-13T12:10:58Z</time>
      </trkpt>
      <trkpt lat="45.873563038185239" lon="9.068404007703066">
        <ele>1186</ele>
        <time>2010-06-13T12:11:00Z</time>
      </trkpt>
      <trkpt lat="45.873572006821632" lon="9.068416999652982">
        <ele>1186</ele>
        <time>2010-06-13T12:11:01Z</time>
      </trkpt>
      <trkpt lat="45.873572006821632" lon="9.068442983552814">
        <ele>1186</ele>
        <time>2010-06-13T12:11:02Z</time>
      </trkpt>
      <trkpt lat="45.873580975458026" lon="9.068481959402561">
        <ele>1186</ele>
        <time>2010-06-13T12:11:03Z</time>
      </trkpt>
      <trkpt lat="45.873590027913451" lon="9.068495035171509">
        <ele>1186</ele>
        <time>2010-06-13T12:11:04Z</time>
      </trkpt>
      <trkpt lat="45.873598996549845" lon="9.068507021293044">
        <ele>1186</ele>
        <time>2010-06-13T12:11:05Z</time>
      </trkpt>
      <trkpt lat="45.873607965186238" lon="9.068533005192876">
        <ele>1186</ele>
        <time>2010-06-13T12:11:06Z</time>
      </trkpt>
      <trkpt lat="45.873617017641664" lon="9.068545997142792">
        <ele>1186</ele>
        <time>2010-06-13T12:11:07Z</time>
      </trkpt>
      <trkpt lat="45.873625986278057" lon="9.068558989092708">
        <ele>1186</ele>
        <time>2010-06-13T12:11:08Z</time>
      </trkpt>
      <trkpt lat="45.873625986278057" lon="9.068584972992539">
        <ele>1186</ele>
        <time>2010-06-13T12:11:09Z</time>
      </trkpt>
      <trkpt lat="45.873625986278057" lon="9.068597964942455">
        <ele>1186</ele>
        <time>2010-06-13T12:11:10Z</time>
      </trkpt>
      <trkpt lat="45.873635038733482" lon="9.068611040711403">
        <ele>1186</ele>
        <time>2010-06-13T12:11:11Z</time>
      </trkpt>
      <trkpt lat="45.873635038733482" lon="9.068624032661319">
        <ele>1186</ele>
        <time>2010-06-13T12:11:13Z</time>
      </trkpt>
      <trkpt lat="45.873644007369876" lon="9.068624032661319">
        <ele>1186</ele>
        <time>2010-06-13T12:11:14Z</time>
      </trkpt>
      <trkpt lat="45.873662028461695" lon="9.06864901073277">
        <ele>1186</ele>
        <time>2010-06-13T12:11:15Z</time>
      </trkpt>
      <trkpt lat="45.873679965734482" lon="9.068662002682686">
        <ele>1187</ele>
        <time>2010-06-13T12:11:16Z</time>
      </trkpt>
      <trkpt lat="45.873679965734482" lon="9.068674994632602">
        <ele>1187</ele>
        <time>2010-06-13T12:11:17Z</time>
      </trkpt>
      <trkpt lat="45.873689018189907" lon="9.068687986582518">
        <ele>1187</ele>
        <time>2010-06-13T12:11:18Z</time>
      </trkpt>
      <trkpt lat="45.87369698099792" lon="9.068713970482349">
        <ele>1187</ele>
        <time>2010-06-13T12:11:20Z</time>
      </trkpt>
      <trkpt lat="45.873716007918119" lon="9.068726962432265">
        <ele>1187</ele>
        <time>2010-06-13T12:11:21Z</time>
      </trkpt>
      <trkpt lat="45.873724976554513" lon="9.068740038201213">
        <ele>1187</ele>
        <time>2010-06-13T12:11:22Z</time>
      </trkpt>
      <trkpt lat="45.873734029009938" lon="9.068752024322748">
        <ele>1187</ele>
        <time>2010-06-13T12:11:23Z</time>
      </trkpt>
      <trkpt lat="45.873741991817951" lon="9.068766022101045">
        <ele>1188</ele>
        <time>2010-06-13T12:11:24Z</time>
      </trkpt>
      <trkpt lat="45.873761018738151" lon="9.06877800822258">
        <ele>1187</ele>
        <time>2010-06-13T12:11:25Z</time>
      </trkpt>
      <trkpt lat="45.873769987374544" lon="9.068803992122412">
        <ele>1188</ele>
        <time>2010-06-13T12:11:26Z</time>
      </trkpt>
      <trkpt lat="45.873796977102757" lon="9.068816984072328">
        <ele>1188</ele>
        <time>2010-06-13T12:11:27Z</time>
      </trkpt>
      <trkpt lat="45.873806029558182" lon="9.068829976022244">
        <ele>1188</ele>
        <time>2010-06-13T12:11:28Z</time>
      </trkpt>
      <trkpt lat="45.873823966830969" lon="9.068816984072328">
        <ele>1189</ele>
        <time>2010-06-13T12:11:29Z</time>
      </trkpt>
      <trkpt lat="45.873841987922788" lon="9.068816984072328">
        <ele>1189</ele>
        <time>2010-06-13T12:11:30Z</time>
      </trkpt>
      <trkpt lat="45.873851040378213" lon="9.068803992122412">
        <ele>1189</ele>
        <time>2010-06-13T12:11:31Z</time>
      </trkpt>
      <trkpt lat="45.873860009014606" lon="9.068779014050961">
        <ele>1189</ele>
        <time>2010-06-13T12:11:32Z</time>
      </trkpt>
      <trkpt lat="45.873868977651" lon="9.068753030151129">
        <ele>1189</ele>
        <time>2010-06-13T12:11:34Z</time>
      </trkpt>
      <trkpt lat="45.873860009014606" lon="9.068713970482349">
        <ele>1189</ele>
        <time>2010-06-13T12:11:35Z</time>
      </trkpt>
      <trkpt lat="45.873851040378213" lon="9.068700978532434">
        <ele>1188</ele>
        <time>2010-06-13T12:11:36Z</time>
      </trkpt>
      <trkpt lat="45.873851040378213" lon="9.068676000460982">
        <ele>1189</ele>
        <time>2010-06-13T12:11:37Z</time>
      </trkpt>
      <trkpt lat="45.873841987922788" lon="9.068662002682686">
        <ele>1190</ele>
        <time>2010-06-13T12:11:38Z</time>
      </trkpt>
      <trkpt lat="45.873833019286394" lon="9.068637024611235">
        <ele>1190</ele>
        <time>2010-06-13T12:11:40Z</time>
      </trkpt>
      <trkpt lat="45.873806029558182" lon="9.068611040711403">
        <ele>1189</ele>
        <time>2010-06-13T12:11:41Z</time>
      </trkpt>
      <trkpt lat="45.873796977102757" lon="9.068584972992539">
        <ele>1189</ele>
        <time>2010-06-13T12:11:42Z</time>
      </trkpt>
      <trkpt lat="45.873788008466363" lon="9.068571981042624">
        <ele>1190</ele>
        <time>2010-06-13T12:11:43Z</time>
      </trkpt>
      <trkpt lat="45.873779039829969" lon="9.068558989092708">
        <ele>1190</ele>
        <time>2010-06-13T12:11:44Z</time>
      </trkpt>
      <trkpt lat="45.873769987374544" lon="9.068545997142792">
        <ele>1190</ele>
        <time>2010-06-13T12:11:45Z</time>
      </trkpt>
      <trkpt lat="45.873761018738151" lon="9.068534011021256">
        <ele>1190</ele>
        <time>2010-06-13T12:11:47Z</time>
      </trkpt>
      <trkpt lat="45.873742997646332" lon="9.068495035171509">
        <ele>1190</ele>
        <time>2010-06-13T12:11:48Z</time>
      </trkpt>
      <trkpt lat="45.873734029009938" lon="9.068481959402561">
        <ele>1191</ele>
        <time>2010-06-13T12:11:49Z</time>
      </trkpt>
      <trkpt lat="45.873734029009938" lon="9.068455975502729">
        <ele>1191</ele>
        <time>2010-06-13T12:11:50Z</time>
      </trkpt>
      <trkpt lat="45.873724976554513" lon="9.068430997431278">
        <ele>1190</ele>
        <time>2010-06-13T12:11:51Z</time>
      </trkpt>
      <trkpt lat="45.873716007918119" lon="9.068416999652982">
        <ele>1190</ele>
        <time>2010-06-13T12:11:53Z</time>
      </trkpt>
      <trkpt lat="45.873707039281726" lon="9.068366037681699">
        <ele>1191</ele>
        <time>2010-06-13T12:11:54Z</time>
      </trkpt>
      <trkpt lat="45.873697986826301" lon="9.068339969962835">
        <ele>1191</ele>
        <time>2010-06-13T12:11:55Z</time>
      </trkpt>
      <trkpt lat="45.873697986826301" lon="9.068326978012919">
        <ele>1192</ele>
        <time>2010-06-13T12:11:56Z</time>
      </trkpt>
      <trkpt lat="45.873679965734482" lon="9.068276016041637">
        <ele>1192</ele>
        <time>2010-06-13T12:11:59Z</time>
      </trkpt>
      <trkpt lat="45.873670997098088" lon="9.068237040191889">
        <ele>1192</ele>
        <time>2010-06-13T12:12:00Z</time>
      </trkpt>
      <trkpt lat="45.873670997098088" lon="9.068210972473025">
        <ele>1192</ele>
        <time>2010-06-13T12:12:01Z</time>
      </trkpt>
      <trkpt lat="45.873679965734482" lon="9.068173002451658">
        <ele>1191</ele>
        <time>2010-06-13T12:12:03Z</time>
      </trkpt>
      <trkpt lat="45.873679965734482" lon="9.068160010501742">
        <ele>1192</ele>
        <time>2010-06-13T12:12:04Z</time>
      </trkpt>
      <trkpt lat="45.873670997098088" lon="9.068134026601911">
        <ele>1193</ele>
        <time>2010-06-13T12:12:05Z</time>
      </trkpt>
      <trkpt lat="45.873670997098088" lon="9.068121034651995">
        <ele>1193</ele>
        <time>2010-06-13T12:12:06Z</time>
      </trkpt>
      <trkpt lat="45.873662028461695" lon="9.068094966933131">
        <ele>1192</ele>
        <time>2010-06-13T12:12:07Z</time>
      </trkpt>
      <trkpt lat="45.873662028461695" lon="9.06806998886168">
        <ele>1192</ele>
        <time>2010-06-13T12:12:08Z</time>
      </trkpt>
      <trkpt lat="45.873652976006269" lon="9.068031013011932">
        <ele>1193</ele>
        <time>2010-06-13T12:12:11Z</time>
      </trkpt>
      <trkpt lat="45.873652976006269" lon="9.067992037162185">
        <ele>1193</ele>
        <time>2010-06-13T12:12:12Z</time>
      </trkpt>
      <trkpt lat="45.873644007369876" lon="9.067965969443321">
        <ele>1193</ele>
        <time>2010-06-13T12:12:13Z</time>
      </trkpt>
      <trkpt lat="45.873644007369876" lon="9.06794099137187">
        <ele>1192</ele>
        <time>2010-06-13T12:12:14Z</time>
      </trkpt>
      <trkpt lat="45.873635038733482" lon="9.067927999421954">
        <ele>1193</ele>
        <time>2010-06-13T12:12:16Z</time>
      </trkpt>
      <trkpt lat="45.873625986278057" lon="9.067915007472038">
        <ele>1193</ele>
        <time>2010-06-13T12:12:17Z</time>
      </trkpt>
      <trkpt lat="45.873607965186238" lon="9.067863039672375">
        <ele>1193</ele>
        <time>2010-06-13T12:12:18Z</time>
      </trkpt>
      <trkpt lat="45.873598996549845" lon="9.067836971953511">
        <ele>1193</ele>
        <time>2010-06-13T12:12:19Z</time>
      </trkpt>
      <trkpt lat="45.873598996549845" lon="9.06781199388206">
        <ele>1193</ele>
        <time>2010-06-13T12:12:20Z</time>
      </trkpt>
      <trkpt lat="45.873590027913451" lon="9.067786009982228">
        <ele>1193</ele>
        <time>2010-06-13T12:12:21Z</time>
      </trkpt>
      <trkpt lat="45.873580975458026" lon="9.067760026082397">
        <ele>1194</ele>
        <time>2010-06-13T12:12:22Z</time>
      </trkpt>
      <trkpt lat="45.873572006821632" lon="9.067733958363533">
        <ele>1193</ele>
        <time>2010-06-13T12:12:24Z</time>
      </trkpt>
      <trkpt lat="45.873572006821632" lon="9.067695988342166">
        <ele>1194</ele>
        <time>2010-06-13T12:12:25Z</time>
      </trkpt>
      <trkpt lat="45.873572006821632" lon="9.06768299639225">
        <ele>1194</ele>
        <time>2010-06-13T12:12:26Z</time>
      </trkpt>
      <trkpt lat="45.873563038185239" lon="9.067670004442334">
        <ele>1195</ele>
        <time>2010-06-13T12:12:27Z</time>
      </trkpt>
      <trkpt lat="45.873563038185239" lon="9.067644020542502">
        <ele>1194</ele>
        <time>2010-06-13T12:12:28Z</time>
      </trkpt>
      <trkpt lat="45.873553985729814" lon="9.067631028592587">
        <ele>1194</ele>
        <time>2010-06-13T12:12:30Z</time>
      </trkpt>
      <trkpt lat="45.873553985729814" lon="9.067579982802272">
        <ele>1195</ele>
        <time>2010-06-13T12:12:31Z</time>
      </trkpt>
      <trkpt lat="45.87354501709342" lon="9.067566990852356">
        <ele>1195</ele>
        <time>2010-06-13T12:12:32Z</time>
      </trkpt>
      <trkpt lat="45.873535964637995" lon="9.06755399890244">
        <ele>1195</ele>
        <time>2010-06-13T12:12:33Z</time>
      </trkpt>
      <trkpt lat="45.873535964637995" lon="9.067541006952524">
        <ele>1195</ele>
        <time>2010-06-13T12:12:34Z</time>
      </trkpt>
      <trkpt lat="45.873535964637995" lon="9.067515023052692">
        <ele>1195</ele>
        <time>2010-06-13T12:12:36Z</time>
      </trkpt>
      <trkpt lat="45.873526996001601" lon="9.06748996116221">
        <ele>1195</ele>
        <time>2010-06-13T12:12:37Z</time>
      </trkpt>
      <trkpt lat="45.873518027365208" lon="9.067463977262378">
        <ele>1195</ele>
        <time>2010-06-13T12:12:38Z</time>
      </trkpt>
      <trkpt lat="45.873500006273389" lon="9.067412009462714">
        <ele>1196</ele>
        <time>2010-06-13T12:12:41Z</time>
      </trkpt>
      <trkpt lat="45.87348198518157" lon="9.067374039441347">
        <ele>1195</ele>
        <time>2010-06-13T12:12:42Z</time>
      </trkpt>
      <trkpt lat="45.87348198518157" lon="9.067347971722484">
        <ele>1194</ele>
        <time>2010-06-13T12:12:43Z</time>
      </trkpt>
      <trkpt lat="45.873473016545177" lon="9.067334979772568">
        <ele>1195</ele>
        <time>2010-06-13T12:12:44Z</time>
      </trkpt>
      <trkpt lat="45.873463964089751" lon="9.067321987822652">
        <ele>1195</ele>
        <time>2010-06-13T12:12:45Z</time>
      </trkpt>
      <trkpt lat="45.873456001281738" lon="9.06729600392282">
        <ele>1195</ele>
        <time>2010-06-13T12:12:47Z</time>
      </trkpt>
      <trkpt lat="45.873446026816964" lon="9.067271025851369">
        <ele>1196</ele>
        <time>2010-06-13T12:12:48Z</time>
      </trkpt>
      <trkpt lat="45.873436974361539" lon="9.067258033901453">
        <ele>1196</ele>
        <time>2010-06-13T12:12:49Z</time>
      </trkpt>
      <trkpt lat="45.873429011553526" lon="9.06723196618259">
        <ele>1195</ele>
        <time>2010-06-13T12:12:50Z</time>
      </trkpt>
      <trkpt lat="45.873419037088752" lon="9.067218974232674">
        <ele>1196</ele>
        <time>2010-06-13T12:12:52Z</time>
      </trkpt>
      <trkpt lat="45.873402021825314" lon="9.067179998382926">
        <ele>1196</ele>
        <time>2010-06-13T12:12:53Z</time>
      </trkpt>
      <trkpt lat="45.873391963541508" lon="9.06716700643301">
        <ele>1196</ele>
        <time>2010-06-13T12:12:54Z</time>
      </trkpt>
      <trkpt lat="45.873384000733495" lon="9.067142028361559">
        <ele>1196</ele>
        <time>2010-06-13T12:12:55Z</time>
      </trkpt>
      <trkpt lat="45.873384000733495" lon="9.067115960642695">
        <ele>1196</ele>
        <time>2010-06-13T12:12:56Z</time>
      </trkpt>
      <trkpt lat="45.873374026268721" lon="9.06710296869278">
        <ele>1196</ele>
        <time>2010-06-13T12:12:58Z</time>
      </trkpt>
      <trkpt lat="45.873357011005282" lon="9.067051000893116">
        <ele>1196</ele>
        <time>2010-06-13T12:12:59Z</time>
      </trkpt>
      <trkpt lat="45.873347036540508" lon="9.0670380089432">
        <ele>1197</ele>
        <time>2010-06-13T12:13:00Z</time>
      </trkpt>
      <trkpt lat="45.87333002127707" lon="9.067026022821665">
        <ele>1197</ele>
        <time>2010-06-13T12:13:01Z</time>
      </trkpt>
      <trkpt lat="45.873320968821645" lon="9.067012025043368">
        <ele>1197</ele>
        <time>2010-06-13T12:13:02Z</time>
      </trkpt>
      <trkpt lat="45.873312000185251" lon="9.066986963152885">
        <ele>1197</ele>
        <time>2010-06-13T12:13:04Z</time>
      </trkpt>
      <trkpt lat="45.873293979093432" lon="9.066934995353222">
        <ele>1197</ele>
        <time>2010-06-13T12:13:05Z</time>
      </trkpt>
      <trkpt lat="45.873285010457039" lon="9.066922003403306">
        <ele>1197</ele>
        <time>2010-06-13T12:13:06Z</time>
      </trkpt>
      <trkpt lat="45.873285010457039" lon="9.066897025331855">
        <ele>1198</ele>
        <time>2010-06-13T12:13:07Z</time>
      </trkpt>
      <trkpt lat="45.873276041820645" lon="9.066884033381939">
        <ele>1198</ele>
        <time>2010-06-13T12:13:08Z</time>
      </trkpt>
      <trkpt lat="45.87326698936522" lon="9.066857965663075">
        <ele>1198</ele>
        <time>2010-06-13T12:13:10Z</time>
      </trkpt>
      <trkpt lat="45.873248968273401" lon="9.066831981763244">
        <ele>1197</ele>
        <time>2010-06-13T12:13:11Z</time>
      </trkpt>
      <trkpt lat="45.873239999637008" lon="9.066805997863412">
        <ele>1197</ele>
        <time>2010-06-13T12:13:12Z</time>
      </trkpt>
      <trkpt lat="45.873239999637008" lon="9.066794011741877">
        <ele>1198</ele>
        <time>2010-06-13T12:13:13Z</time>
      </trkpt>
      <trkpt lat="45.873231031000614" lon="9.066768027842045">
        <ele>1198</ele>
        <time>2010-06-13T12:13:14Z</time>
      </trkpt>
      <trkpt lat="45.873221978545189" lon="9.066755035892129">
        <ele>1198</ele>
        <time>2010-06-13T12:13:15Z</time>
      </trkpt>
      <trkpt lat="45.873213009908795" lon="9.066741960123181">
        <ele>1198</ele>
        <time>2010-06-13T12:13:17Z</time>
      </trkpt>
      <trkpt lat="45.873204041272402" lon="9.066702984273434">
        <ele>1198</ele>
        <time>2010-06-13T12:13:18Z</time>
      </trkpt>
      <trkpt lat="45.873194988816977" lon="9.066677000373602">
        <ele>1198</ele>
        <time>2010-06-13T12:13:19Z</time>
      </trkpt>
      <trkpt lat="45.873186020180583" lon="9.066652022302151">
        <ele>1198</ele>
        <time>2010-06-13T12:13:20Z</time>
      </trkpt>
      <trkpt lat="45.873186020180583" lon="9.066639030352235">
        <ele>1198</ele>
        <time>2010-06-13T12:13:22Z</time>
      </trkpt>
      <trkpt lat="45.873176967725158" lon="9.066612962633371">
        <ele>1198</ele>
        <time>2010-06-13T12:13:23Z</time>
      </trkpt>
      <trkpt lat="45.873159030452371" lon="9.066573986783624">
        <ele>1198</ele>
        <time>2010-06-13T12:13:24Z</time>
      </trkpt>
      <trkpt lat="45.873149977996945" lon="9.066549008712173">
        <ele>1198</ele>
        <time>2010-06-13T12:13:25Z</time>
      </trkpt>
      <trkpt lat="45.873141009360552" lon="9.066536016762257">
        <ele>1199</ele>
        <time>2010-06-13T12:13:26Z</time>
      </trkpt>
      <trkpt lat="45.873141009360552" lon="9.066510032862425">
        <ele>1199</ele>
        <time>2010-06-13T12:13:28Z</time>
      </trkpt>
      <trkpt lat="45.873122988268733" lon="9.066470973193646">
        <ele>1199</ele>
        <time>2010-06-13T12:13:29Z</time>
      </trkpt>
      <trkpt lat="45.873114019632339" lon="9.06645798124373">
        <ele>1199</ele>
        <time>2010-06-13T12:13:30Z</time>
      </trkpt>
      <trkpt lat="45.873114019632339" lon="9.066431997343898">
        <ele>1199</ele>
        <time>2010-06-13T12:13:31Z</time>
      </trkpt>
      <trkpt lat="45.873095998540521" lon="9.066420011222363">
        <ele>1199</ele>
        <time>2010-06-13T12:13:33Z</time>
      </trkpt>
      <trkpt lat="45.873095998540521" lon="9.066394027322531">
        <ele>1199</ele>
        <time>2010-06-13T12:13:34Z</time>
      </trkpt>
      <trkpt lat="45.873087029904127" lon="9.066367959603667">
        <ele>1199</ele>
        <time>2010-06-13T12:13:35Z</time>
      </trkpt>
      <trkpt lat="45.873077977448702" lon="9.066354967653751">
        <ele>1200</ele>
        <time>2010-06-13T12:13:36Z</time>
      </trkpt>
      <trkpt lat="45.873077977448702" lon="9.06632898375392">
        <ele>1200</ele>
        <time>2010-06-13T12:13:37Z</time>
      </trkpt>
      <trkpt lat="45.873069008812308" lon="9.066304005682468">
        <ele>1200</ele>
        <time>2010-06-13T12:13:39Z</time>
      </trkpt>
      <trkpt lat="45.87305098772049" lon="9.066265029832721">
        <ele>1200</ele>
        <time>2010-06-13T12:13:40Z</time>
      </trkpt>
      <trkpt lat="45.873042019084096" lon="9.066252037882805">
        <ele>1200</ele>
        <time>2010-06-13T12:13:41Z</time>
      </trkpt>
      <trkpt lat="45.873042019084096" lon="9.066225970163941">
        <ele>1200</ele>
        <time>2010-06-13T12:13:42Z</time>
      </trkpt>
      <trkpt lat="45.873032966628671" lon="9.066212978214026">
        <ele>1200</ele>
        <time>2010-06-13T12:13:43Z</time>
      </trkpt>
      <trkpt lat="45.873023997992277" lon="9.066186994314194">
        <ele>1200</ele>
        <time>2010-06-13T12:13:45Z</time>
      </trkpt>
      <trkpt lat="45.873015029355884" lon="9.066149024292827">
        <ele>1200</ele>
        <time>2010-06-13T12:13:46Z</time>
      </trkpt>
      <trkpt lat="45.873005976900458" lon="9.066136032342911">
        <ele>1200</ele>
        <time>2010-06-13T12:13:47Z</time>
      </trkpt>
      <trkpt lat="45.872997008264065" lon="9.066109964624047">
        <ele>1200</ele>
        <time>2010-06-13T12:13:48Z</time>
      </trkpt>
      <trkpt lat="45.872997008264065" lon="9.066096972674131">
        <ele>1200</ele>
        <time>2010-06-13T12:13:49Z</time>
      </trkpt>
      <trkpt lat="45.872978987172246" lon="9.06607199460268">
        <ele>1200</ele>
        <time>2010-06-13T12:13:51Z</time>
      </trkpt>
      <trkpt lat="45.872970018535852" lon="9.066033018752933">
        <ele>1200</ele>
        <time>2010-06-13T12:13:52Z</time>
      </trkpt>
      <trkpt lat="45.872970018535852" lon="9.066007034853101">
        <ele>1201</ele>
        <time>2010-06-13T12:13:53Z</time>
      </trkpt>
      <trkpt lat="45.872960966080427" lon="9.065980967134237">
        <ele>1201</ele>
        <time>2010-06-13T12:13:54Z</time>
      </trkpt>
      <trkpt lat="45.872951997444034" lon="9.065955989062786">
        <ele>1201</ele>
        <time>2010-06-13T12:13:56Z</time>
      </trkpt>
      <trkpt lat="45.87294302880764" lon="9.065917013213038">
        <ele>1201</ele>
        <time>2010-06-13T12:13:57Z</time>
      </trkpt>
      <trkpt lat="45.872933976352215" lon="9.065891029313207">
        <ele>1201</ele>
        <time>2010-06-13T12:13:58Z</time>
      </trkpt>
      <trkpt lat="45.872933976352215" lon="9.065864961594343">
        <ele>1201</ele>
        <time>2010-06-13T12:13:59Z</time>
      </trkpt>
      <trkpt lat="45.872933976352215" lon="9.06581399962306">
        <ele>1201</ele>
        <time>2010-06-13T12:14:01Z</time>
      </trkpt>
      <trkpt lat="45.87294302880764" lon="9.065801007673144">
        <ele>1201</ele>
        <time>2010-06-13T12:14:02Z</time>
      </trkpt>
      <trkpt lat="45.87294302880764" lon="9.065788015723229">
        <ele>1201</ele>
        <time>2010-06-13T12:14:03Z</time>
      </trkpt>
      <trkpt lat="45.872951997444034" lon="9.065762031823397">
        <ele>1201</ele>
        <time>2010-06-13T12:14:04Z</time>
      </trkpt>
      <trkpt lat="45.872960966080427" lon="9.065762031823397">
        <ele>1201</ele>
        <time>2010-06-13T12:14:05Z</time>
      </trkpt>
      <trkpt lat="45.872970018535852" lon="9.065749039873481">
        <ele>1201</ele>
        <time>2010-06-13T12:14:06Z</time>
      </trkpt>
      <trkpt lat="45.87305098772049" lon="9.065801007673144">
        <ele>1202</ele>
        <time>2010-06-13T12:15:20Z</time>
      </trkpt>
      <trkpt lat="45.873060040175915" lon="9.06581399962306">
        <ele>1202</ele>
        <time>2010-06-13T12:15:21Z</time>
      </trkpt>
      <trkpt lat="45.873069008812308" lon="9.06581399962306">
        <ele>1202</ele>
        <time>2010-06-13T12:15:22Z</time>
      </trkpt>
      <trkpt lat="45.873077977448702" lon="9.06581399962306">
        <ele>1202</ele>
        <time>2010-06-13T12:15:23Z</time>
      </trkpt>
      <trkpt lat="45.873087029904127" lon="9.06581399962306">
        <ele>1202</ele>
        <time>2010-06-13T12:15:25Z</time>
      </trkpt>
      <trkpt lat="45.873104967176914" lon="9.06581399962306">
        <ele>1202</ele>
        <time>2010-06-13T12:15:26Z</time>
      </trkpt>
      <trkpt lat="45.873132040724158" lon="9.065826991572976">
        <ele>1202</ele>
        <time>2010-06-13T12:15:28Z</time>
      </trkpt>
      <trkpt lat="45.873141009360552" lon="9.065826991572976">
        <ele>1202</ele>
        <time>2010-06-13T12:15:30Z</time>
      </trkpt>
      <trkpt lat="45.873159030452371" lon="9.065826991572976">
        <ele>1203</ele>
        <time>2010-06-13T12:15:32Z</time>
      </trkpt>
      <trkpt lat="45.873176967725158" lon="9.065826991572976">
        <ele>1203</ele>
        <time>2010-06-13T12:15:33Z</time>
      </trkpt>
      <trkpt lat="45.873204041272402" lon="9.065826991572976">
        <ele>1203</ele>
        <time>2010-06-13T12:15:37Z</time>
      </trkpt>
      <trkpt lat="45.873213009908795" lon="9.065839983522892">
        <ele>1203</ele>
        <time>2010-06-13T12:15:38Z</time>
      </trkpt>
      <trkpt lat="45.873231031000614" lon="9.065839983522892">
        <ele>1203</ele>
        <time>2010-06-13T12:15:39Z</time>
      </trkpt>
      <trkpt lat="45.873239999637008" lon="9.065839983522892">
        <ele>1203</ele>
        <time>2010-06-13T12:15:40Z</time>
      </trkpt>
      <trkpt lat="45.873258020728827" lon="9.065826991572976">
        <ele>1203</ele>
        <time>2010-06-13T12:15:43Z</time>
      </trkpt>
      <trkpt lat="45.873276041820645" lon="9.065826991572976">
        <ele>1202</ele>
        <time>2010-06-13T12:15:44Z</time>
      </trkpt>
      <trkpt lat="45.873303031548858" lon="9.065826991572976">
        <ele>1203</ele>
        <time>2010-06-13T12:15:47Z</time>
      </trkpt>
      <trkpt lat="45.873312000185251" lon="9.065826991572976">
        <ele>1203</ele>
        <time>2010-06-13T12:15:49Z</time>
      </trkpt>
      <trkpt lat="45.87333002127707" lon="9.065839983522892">
        <ele>1203</ele>
        <time>2010-06-13T12:15:50Z</time>
      </trkpt>
      <trkpt lat="45.873338989913464" lon="9.065839983522892">
        <ele>1203</ele>
        <time>2010-06-13T12:15:51Z</time>
      </trkpt>
      <trkpt lat="45.873347958549857" lon="9.065852975472808">
        <ele>1203</ele>
        <time>2010-06-13T12:15:52Z</time>
      </trkpt>
      <trkpt lat="45.873357011005282" lon="9.065852975472808">
        <ele>1203</ele>
        <time>2010-06-13T12:15:53Z</time>
      </trkpt>
      <trkpt lat="45.873365979641676" lon="9.065852975472808">
        <ele>1203</ele>
        <time>2010-06-13T12:15:55Z</time>
      </trkpt>
      <trkpt lat="45.873384000733495" lon="9.065852975472808">
        <ele>1204</ele>
        <time>2010-06-13T12:15:56Z</time>
      </trkpt>
      <trkpt lat="45.873392969369888" lon="9.065852975472808">
        <ele>1203</ele>
        <time>2010-06-13T12:15:57Z</time>
      </trkpt>
      <trkpt lat="45.873402021825314" lon="9.065852975472808">
        <ele>1204</ele>
        <time>2010-06-13T12:15:58Z</time>
      </trkpt>
      <trkpt lat="45.873536970466375" lon="9.065865967422724">
        <ele>1203</ele>
        <time>2010-06-13T12:16:08Z</time>
      </trkpt>
      <trkpt lat="45.873573012650013" lon="9.065865967422724">
        <ele>1202</ele>
        <time>2010-06-13T12:16:09Z</time>
      </trkpt>
      <trkpt lat="45.873600002378225" lon="9.06587895937264">
        <ele>1202</ele>
        <time>2010-06-13T12:16:11Z</time>
      </trkpt>
      <trkpt lat="45.873635960742831" lon="9.065905027091503">
        <ele>1202</ele>
        <time>2010-06-13T12:16:12Z</time>
      </trkpt>
      <trkpt lat="45.873698992654681" lon="9.065955989062786">
        <ele>1203</ele>
        <time>2010-06-13T12:16:13Z</time>
      </trkpt>
      <trkpt lat="45.873725982382894" lon="9.065981972962618">
        <ele>1203</ele>
        <time>2010-06-13T12:16:14Z</time>
      </trkpt>
      <trkpt lat="45.873744003474712" lon="9.066008040681481">
        <ele>1202</ele>
        <time>2010-06-13T12:16:15Z</time>
      </trkpt>
      <trkpt lat="45.873770993202925" lon="9.066021032631397">
        <ele>1203</ele>
        <time>2010-06-13T12:16:16Z</time>
      </trkpt>
      <trkpt lat="45.873797982931137" lon="9.066034024581313">
        <ele>1202</ele>
        <time>2010-06-13T12:16:17Z</time>
      </trkpt>
      <trkpt lat="45.873824972659349" lon="9.066047016531229">
        <ele>1203</ele>
        <time>2010-06-13T12:16:18Z</time>
      </trkpt>
      <trkpt lat="45.873851962387562" lon="9.066060008481145">
        <ele>1203</ele>
        <time>2010-06-13T12:16:19Z</time>
      </trkpt>
      <trkpt lat="45.873869983479381" lon="9.066073000431061">
        <ele>1203</ele>
        <time>2010-06-13T12:16:20Z</time>
      </trkpt>
      <trkpt lat="45.873888004571199" lon="9.066085992380977">
        <ele>1202</ele>
        <time>2010-06-13T12:16:22Z</time>
      </trkpt>
      <trkpt lat="45.873906025663018" lon="9.066098984330893">
        <ele>1201</ele>
        <time>2010-06-13T12:16:23Z</time>
      </trkpt>
      <trkpt lat="45.873933015391231" lon="9.066098984330893">
        <ele>1201</ele>
        <time>2010-06-13T12:16:24Z</time>
      </trkpt>
      <trkpt lat="45.873951036483049" lon="9.066110970452428">
        <ele>1202</ele>
        <time>2010-06-13T12:16:25Z</time>
      </trkpt>
      <trkpt lat="45.874194027855992" lon="9.065956994891167">
        <ele>1194</ele>
        <time>2010-06-13T12:18:49Z</time>
      </trkpt>
      <trkpt lat="45.874184975400567" lon="9.065944002941251">
        <ele>1193</ele>
        <time>2010-06-13T12:18:50Z</time>
      </trkpt>
      <trkpt lat="45.874411035329103" lon="9.065724983811379">
        <ele>1180</ele>
        <time>2010-06-13T12:19:53Z</time>
      </trkpt>
      <trkpt lat="45.874626031145453" lon="9.065712997689843">
        <ele>1173</ele>
        <time>2010-06-13T12:20:30Z</time>
      </trkpt>
      <trkpt lat="45.874653020873666" lon="9.065725989639759">
        <ele>1174</ele>
        <time>2010-06-13T12:20:31Z</time>
      </trkpt>
      <trkpt lat="45.874681016430259" lon="9.065725989639759">
        <ele>1174</ele>
        <time>2010-06-13T12:20:32Z</time>
      </trkpt>
      <trkpt lat="45.874715968966484" lon="9.065738981589675">
        <ele>1173</ele>
        <time>2010-06-13T12:20:33Z</time>
      </trkpt>
      <trkpt lat="45.874753016978502" lon="9.065738981589675">
        <ele>1172</ele>
        <time>2010-06-13T12:20:35Z</time>
      </trkpt>
      <trkpt lat="45.874805990606546" lon="9.065751973539591">
        <ele>1173</ele>
        <time>2010-06-13T12:20:36Z</time>
      </trkpt>
      <trkpt lat="45.874824011698365" lon="9.065763959661126">
        <ele>1172</ele>
        <time>2010-06-13T12:20:37Z</time>
      </trkpt>
      <trkpt lat="45.874843038618565" lon="9.065777035430074">
        <ele>1171</ele>
        <time>2010-06-13T12:20:38Z</time>
      </trkpt>
      <trkpt lat="45.874860975891352" lon="9.06579002737999">
        <ele>1171</ele>
        <time>2010-06-13T12:20:39Z</time>
      </trkpt>
      <trkpt lat="45.874896012246609" lon="9.06579002737999">
        <ele>1171</ele>
        <time>2010-06-13T12:20:42Z</time>
      </trkpt>
      <trkpt lat="45.874914033338428" lon="9.065803019329906">
        <ele>1171</ele>
        <time>2010-06-13T12:20:43Z</time>
      </trkpt>
      <trkpt lat="45.874932976439595" lon="9.065803019329906">
        <ele>1171</ele>
        <time>2010-06-13T12:20:44Z</time>
      </trkpt>
      <trkpt lat="45.874977987259626" lon="9.065803019329906">
        <ele>1171</ele>
        <time>2010-06-13T12:20:45Z</time>
      </trkpt>
      <trkpt lat="45.874986033886671" lon="9.065816011279821">
        <ele>1171</ele>
        <time>2010-06-13T12:20:46Z</time>
      </trkpt>
      <trkpt lat="45.874996008351445" lon="9.065816011279821">
        <ele>1170</ele>
        <time>2010-06-13T12:20:47Z</time>
      </trkpt>
      <trkpt lat="45.875003971159458" lon="9.065816011279821">
        <ele>1170</ele>
        <time>2010-06-13T12:20:49Z</time>
      </trkpt>
      <trkpt lat="45.875013023614883" lon="9.065816011279821">
        <ele>1170</ele>
        <time>2010-06-13T12:20:50Z</time>
      </trkpt>
      <trkpt lat="45.875048981979489" lon="9.065829003229737">
        <ele>1170</ele>
        <time>2010-06-13T12:20:51Z</time>
      </trkpt>
      <trkpt lat="45.875075971707702" lon="9.065841995179653">
        <ele>1169</ele>
        <time>2010-06-13T12:20:53Z</time>
      </trkpt>
      <trkpt lat="45.875086029991508" lon="9.065841995179653">
        <ele>1169</ele>
        <time>2010-06-13T12:20:54Z</time>
      </trkpt>
      <trkpt lat="45.875184014439583" lon="9.065893962979317">
        <ele>1169</ele>
        <time>2010-06-13T12:21:02Z</time>
      </trkpt>
      <trkpt lat="45.875203041359782" lon="9.065907038748264">
        <ele>1169</ele>
        <time>2010-06-13T12:21:03Z</time>
      </trkpt>
      <trkpt lat="45.875219972804189" lon="9.06592003069818">
        <ele>1169</ele>
        <time>2010-06-13T12:21:04Z</time>
      </trkpt>
      <trkpt lat="45.875219972804189" lon="9.06592003069818">
        <ele>1169</ele>
        <time>2010-06-13T12:21:05Z</time>
      </trkpt>
      <trkpt lat="45.875219972804189" lon="9.065932016819716">
        <ele>1169</ele>
        <time>2010-06-13T12:21:06Z</time>
      </trkpt>
      <trkpt lat="45.875219972804189" lon="9.065932016819716">
        <ele>1170</ele>
        <time>2010-06-13T12:21:07Z</time>
      </trkpt>
      <trkpt lat="45.875219972804189" lon="9.065946014598012">
        <ele>1169</ele>
        <time>2010-06-13T12:21:09Z</time>
      </trkpt>
      <trkpt lat="45.875229025259614" lon="9.065958000719547">
        <ele>1170</ele>
        <time>2010-06-13T12:21:10Z</time>
      </trkpt>
      <trkpt lat="45.875229025259614" lon="9.065958000719547">
        <ele>1169</ele>
        <time>2010-06-13T12:21:11Z</time>
      </trkpt>
      <trkpt lat="45.875408984720707" lon="9.065959006547928">
        <ele>1168</ele>
        <time>2010-06-13T12:21:25Z</time>
      </trkpt>
      <trkpt lat="45.875427005812526" lon="9.065946014598012">
        <ele>1168</ele>
        <time>2010-06-13T12:21:27Z</time>
      </trkpt>
      <trkpt lat="45.875453995540738" lon="9.06592003069818">
        <ele>1168</ele>
        <time>2010-06-13T12:21:28Z</time>
      </trkpt>
      <trkpt lat="45.875472016632557" lon="9.065933022648096">
        <ele>1167</ele>
        <time>2010-06-13T12:21:29Z</time>
      </trkpt>
      <trkpt lat="45.875490037724376" lon="9.065933022648096">
        <ele>1167</ele>
        <time>2010-06-13T12:21:30Z</time>
      </trkpt>
      <trkpt lat="45.875507974997163" lon="9.06592003069818">
        <ele>1166</ele>
        <time>2010-06-13T12:21:32Z</time>
      </trkpt>
      <trkpt lat="45.875535970553756" lon="9.065893962979317">
        <ele>1165</ele>
        <time>2010-06-13T12:21:33Z</time>
      </trkpt>
      <trkpt lat="45.875552985817194" lon="9.065880971029401">
        <ele>1165</ele>
        <time>2010-06-13T12:21:34Z</time>
      </trkpt>
      <trkpt lat="45.875571006909013" lon="9.065868984907866">
        <ele>1165</ele>
        <time>2010-06-13T12:21:35Z</time>
      </trkpt>
      <trkpt lat="45.875580981373787" lon="9.065868984907866">
        <ele>1165</ele>
        <time>2010-06-13T12:21:36Z</time>
      </trkpt>
      <trkpt lat="45.875761024653912" lon="9.065778963267803">
        <ele>1159</ele>
        <time>2010-06-13T12:22:11Z</time>
      </trkpt>
      <trkpt lat="45.875778961926699" lon="9.065778963267803">
        <ele>1159</ele>
        <time>2010-06-13T12:22:12Z</time>
      </trkpt>
      <trkpt lat="45.875787008553743" lon="9.065765971317887">
        <ele>1159</ele>
        <time>2010-06-13T12:22:13Z</time>
      </trkpt>
      <trkpt lat="45.875795977190137" lon="9.065752979367971">
        <ele>1159</ele>
        <time>2010-06-13T12:22:14Z</time>
      </trkpt>
      <trkpt lat="45.875806035473943" lon="9.065739987418056">
        <ele>1159</ele>
        <time>2010-06-13T12:22:15Z</time>
      </trkpt>
      <trkpt lat="45.875813998281956" lon="9.065739987418056">
        <ele>1158</ele>
        <time>2010-06-13T12:22:16Z</time>
      </trkpt>
      <trkpt lat="45.87582397274673" lon="9.065739987418056">
        <ele>1157</ele>
        <time>2010-06-13T12:22:17Z</time>
      </trkpt>
      <trkpt lat="45.875841993838549" lon="9.06572699546814">
        <ele>1157</ele>
        <time>2010-06-13T12:22:18Z</time>
      </trkpt>
      <trkpt lat="45.875850962474942" lon="9.065714003518224">
        <ele>1157</ele>
        <time>2010-06-13T12:22:19Z</time>
      </trkpt>
      <trkpt lat="45.875868983566761" lon="9.065701011568308">
        <ele>1155</ele>
        <time>2010-06-13T12:22:20Z</time>
      </trkpt>
      <trkpt lat="45.875895973294973" lon="9.065689025446773">
        <ele>1155</ele>
        <time>2010-06-13T12:22:21Z</time>
      </trkpt>
      <trkpt lat="45.875932015478611" lon="9.065701011568308">
        <ele>1155</ele>
        <time>2010-06-13T12:22:23Z</time>
      </trkpt>
      <trkpt lat="45.875959005206823" lon="9.065714003518224">
        <ele>1155</ele>
        <time>2010-06-13T12:22:25Z</time>
      </trkpt>
      <trkpt lat="45.875966968014836" lon="9.065714003518224">
        <ele>1154</ele>
        <time>2010-06-13T12:22:26Z</time>
      </trkpt>
      <trkpt lat="45.876084985211492" lon="9.065663041546941">
        <ele>1152</ele>
        <time>2010-06-13T12:23:13Z</time>
      </trkpt>
      <trkpt lat="45.87610200047493" lon="9.065623981878161">
        <ele>1151</ele>
        <time>2010-06-13T12:23:15Z</time>
      </trkpt>
      <trkpt lat="45.87616603821516" lon="9.065520968288183">
        <ele>1151</ele>
        <time>2010-06-13T12:23:16Z</time>
      </trkpt>
      <trkpt lat="45.876193027943373" lon="9.065482998266816">
        <ele>1151</ele>
        <time>2010-06-13T12:23:17Z</time>
      </trkpt>
      <trkpt lat="45.876228986307979" lon="9.065431030467153">
        <ele>1151</ele>
        <time>2010-06-13T12:23:18Z</time>
      </trkpt>
      <trkpt lat="45.876255976036191" lon="9.065391970798373">
        <ele>1151</ele>
        <time>2010-06-13T12:23:19Z</time>
      </trkpt>
      <trkpt lat="45.876282965764403" lon="9.065354000777006">
        <ele>1151</ele>
        <time>2010-06-13T12:23:20Z</time>
      </trkpt>
      <trkpt lat="45.876319007948041" lon="9.065315024927259">
        <ele>1150</ele>
        <time>2010-06-13T12:23:21Z</time>
      </trkpt>
      <trkpt lat="45.876345997676253" lon="9.06527697108686">
        <ele>1150</ele>
        <time>2010-06-13T12:23:22Z</time>
      </trkpt>
      <trkpt lat="45.876382039859891" lon="9.065250987187028">
        <ele>1151</ele>
        <time>2010-06-13T12:23:23Z</time>
      </trkpt>
      <trkpt lat="45.876399977132678" lon="9.06521201133728">
        <ele>1151</ele>
        <time>2010-06-13T12:23:24Z</time>
      </trkpt>
      <trkpt lat="45.87642696686089" lon="9.065187033265829">
        <ele>1152</ele>
        <time>2010-06-13T12:23:25Z</time>
      </trkpt>
      <trkpt lat="45.876436019316316" lon="9.065160965546966">
        <ele>1151</ele>
        <time>2010-06-13T12:23:27Z</time>
      </trkpt>
      <trkpt lat="45.876463009044528" lon="9.065108997747302">
        <ele>1151</ele>
        <time>2010-06-13T12:23:28Z</time>
      </trkpt>
      <trkpt lat="45.876481030136347" lon="9.065096005797386">
        <ele>1152</ele>
        <time>2010-06-13T12:23:29Z</time>
      </trkpt>
      <trkpt lat="45.87648999877274" lon="9.065084019675851">
        <ele>1152</ele>
        <time>2010-06-13T12:23:30Z</time>
      </trkpt>
      <trkpt lat="45.876498967409134" lon="9.065058035776019">
        <ele>1152</ele>
        <time>2010-06-13T12:23:31Z</time>
      </trkpt>
      <trkpt lat="45.876516988500953" lon="9.065044960007072">
        <ele>1153</ele>
        <time>2010-06-13T12:23:32Z</time>
      </trkpt>
      <trkpt lat="45.876526040956378" lon="9.06501897610724">
        <ele>1153</ele>
        <time>2010-06-13T12:23:33Z</time>
      </trkpt>
      <trkpt lat="45.876526040956378" lon="9.064992992207408">
        <ele>1153</ele>
        <time>2010-06-13T12:23:34Z</time>
      </trkpt>
      <trkpt lat="45.876535009592772" lon="9.064968014135957">
        <ele>1153</ele>
        <time>2010-06-13T12:23:36Z</time>
      </trkpt>
      <trkpt lat="45.87655303068459" lon="9.064902970567346">
        <ele>1153</ele>
        <time>2010-06-13T12:23:37Z</time>
      </trkpt>
      <trkpt lat="45.87655303068459" lon="9.064876986667514">
        <ele>1152</ele>
        <time>2010-06-13T12:23:38Z</time>
      </trkpt>
      <trkpt lat="45.876561999320984" lon="9.064826024696231">
        <ele>1152</ele>
        <time>2010-06-13T12:23:39Z</time>
      </trkpt>
      <trkpt lat="45.876570967957377" lon="9.064800040796399">
        <ele>1152</ele>
        <time>2010-06-13T12:23:40Z</time>
      </trkpt>
      <trkpt lat="45.876588989049196" lon="9.064748995006084">
        <ele>1152</ele>
        <time>2010-06-13T12:23:41Z</time>
      </trkpt>
      <trkpt lat="45.876607010141015" lon="9.064710019156337">
        <ele>1151</ele>
        <time>2010-06-13T12:23:42Z</time>
      </trkpt>
      <trkpt lat="45.876625031232834" lon="9.064658973366022">
        <ele>1151</ele>
        <time>2010-06-13T12:23:43Z</time>
      </trkpt>
      <trkpt lat="45.876642968505621" lon="9.064607005566359">
        <ele>1151</ele>
        <time>2010-06-13T12:23:44Z</time>
      </trkpt>
      <trkpt lat="45.876679010689259" lon="9.064568029716611">
        <ele>1150</ele>
        <time>2010-06-13T12:23:45Z</time>
      </trkpt>
      <trkpt lat="45.876697031781077" lon="9.064516983926296">
        <ele>1149</ele>
        <time>2010-06-13T12:23:46Z</time>
      </trkpt>
      <trkpt lat="45.876732990145683" lon="9.064465016126633">
        <ele>1149</ele>
        <time>2010-06-13T12:23:47Z</time>
      </trkpt>
      <trkpt lat="45.876769032329321" lon="9.064413970336318">
        <ele>1150</ele>
        <time>2010-06-13T12:23:49Z</time>
      </trkpt>
      <trkpt lat="45.876841032877564" lon="9.064324032515287">
        <ele>1149</ele>
        <time>2010-06-13T12:23:51Z</time>
      </trkpt>
      <trkpt lat="45.876903980970383" lon="9.064234010875225">
        <ele>1149</ele>
        <time>2010-06-13T12:23:52Z</time>
      </trkpt>
      <trkpt lat="45.876941028982401" lon="9.064195035025477">
        <ele>1150</ele>
        <time>2010-06-13T12:23:53Z</time>
      </trkpt>
      <trkpt lat="45.876967012882233" lon="9.064143989235163">
        <ele>1149</ele>
        <time>2010-06-13T12:23:54Z</time>
      </trkpt>
      <trkpt lat="45.877003977075219" lon="9.064092021435499">
        <ele>1149</ele>
        <time>2010-06-13T12:23:55Z</time>
      </trkpt>
      <trkpt lat="45.877040019258857" lon="9.064026977866888">
        <ele>1148</ele>
        <time>2010-06-13T12:23:56Z</time>
      </trkpt>
      <trkpt lat="45.877075977623463" lon="9.063976015895605">
        <ele>1148</ele>
        <time>2010-06-13T12:23:57Z</time>
      </trkpt>
      <trkpt lat="45.877102967351675" lon="9.06392396427691">
        <ele>1148</ele>
        <time>2010-06-13T12:23:58Z</time>
      </trkpt>
      <trkpt lat="45.8771120198071" lon="9.063873002305627">
        <ele>1147</ele>
        <time>2010-06-13T12:23:59Z</time>
      </trkpt>
      <trkpt lat="45.877120988443494" lon="9.063821034505963">
        <ele>1148</ele>
        <time>2010-06-13T12:24:00Z</time>
      </trkpt>
      <trkpt lat="45.877147978171706" lon="9.063782980665565">
        <ele>1148</ele>
        <time>2010-06-13T12:24:01Z</time>
      </trkpt>
      <trkpt lat="45.877165999263525" lon="9.063756996765733">
        <ele>1147</ele>
        <time>2010-06-13T12:24:02Z</time>
      </trkpt>
      <trkpt lat="45.877174967899919" lon="9.063756996765733">
        <ele>1148</ele>
        <time>2010-06-13T12:24:03Z</time>
      </trkpt>
      <trkpt lat="45.87721997871995" lon="9.063590029254556">
        <ele>1145</ele>
        <time>2010-06-13T12:24:25Z</time>
      </trkpt>
      <trkpt lat="45.877246968448162" lon="9.063550969585776">
        <ele>1144</ele>
        <time>2010-06-13T12:24:26Z</time>
      </trkpt>
      <trkpt lat="45.877273958176374" lon="9.063524985685945">
        <ele>1145</ele>
        <time>2010-06-13T12:24:27Z</time>
      </trkpt>
      <trkpt lat="45.877291979268193" lon="9.063511993736029">
        <ele>1145</ele>
        <time>2010-06-13T12:24:28Z</time>
      </trkpt>
      <trkpt lat="45.877301031723619" lon="9.063499001786113">
        <ele>1146</ele>
        <time>2010-06-13T12:24:29Z</time>
      </trkpt>
      <trkpt lat="45.877318968996406" lon="9.063487015664578">
        <ele>1146</ele>
        <time>2010-06-13T12:24:30Z</time>
      </trkpt>
      <trkpt lat="45.877336990088224" lon="9.063474023714662">
        <ele>1146</ele>
        <time>2010-06-13T12:24:31Z</time>
      </trkpt>
      <trkpt lat="45.877363979816437" lon="9.063434964045882">
        <ele>1145</ele>
        <time>2010-06-13T12:24:32Z</time>
      </trkpt>
      <trkpt lat="45.877400022000074" lon="9.063408980146051">
        <ele>1145</ele>
        <time>2010-06-13T12:24:33Z</time>
      </trkpt>
      <trkpt lat="45.877427011728287" lon="9.063384002074599">
        <ele>1146</ele>
        <time>2010-06-13T12:24:34Z</time>
      </trkpt>
      <trkpt lat="45.877454001456499" lon="9.063358018174768">
        <ele>1145</ele>
        <time>2010-06-13T12:24:35Z</time>
      </trkpt>
      <trkpt lat="45.877480991184711" lon="9.063345026224852">
        <ele>1145</ele>
        <time>2010-06-13T12:24:37Z</time>
      </trkpt>
      <trkpt lat="45.877526002004743" lon="9.063318958505988">
        <ele>1144</ele>
        <time>2010-06-13T12:24:38Z</time>
      </trkpt>
      <trkpt lat="45.877544023096561" lon="9.063293980434537">
        <ele>1145</ele>
        <time>2010-06-13T12:24:39Z</time>
      </trkpt>
      <trkpt lat="45.877571012824774" lon="9.063267996534705">
        <ele>1144</ele>
        <time>2010-06-13T12:24:40Z</time>
      </trkpt>
      <trkpt lat="45.877598002552986" lon="9.063242012634873">
        <ele>1145</ele>
        <time>2010-06-13T12:24:41Z</time>
      </trkpt>
      <trkpt lat="45.877616023644805" lon="9.063229020684958">
        <ele>1145</ele>
        <time>2010-06-13T12:24:42Z</time>
      </trkpt>
      <trkpt lat="45.877633960917592" lon="9.063216028735042">
        <ele>1144</ele>
        <time>2010-06-13T12:24:43Z</time>
      </trkpt>
      <trkpt lat="45.877643013373017" lon="9.063203958794475">
        <ele>1144</ele>
        <time>2010-06-13T12:24:44Z</time>
      </trkpt>
      <trkpt lat="45.877661034464836" lon="9.063190966844559">
        <ele>1144</ele>
        <time>2010-06-13T12:24:46Z</time>
      </trkpt>
      <trkpt lat="45.877696992829442" lon="9.063164982944727">
        <ele>1145</ele>
        <time>2010-06-13T12:24:47Z</time>
      </trkpt>
      <trkpt lat="45.877723982557654" lon="9.063151990994811">
        <ele>1145</ele>
        <time>2010-06-13T12:24:48Z</time>
      </trkpt>
      <trkpt lat="45.877742003649473" lon="9.063138999044895">
        <ele>1145</ele>
        <time>2010-06-13T12:24:49Z</time>
      </trkpt>
      <trkpt lat="45.877760024741292" lon="9.063138999044895">
        <ele>1145</ele>
        <time>2010-06-13T12:24:50Z</time>
      </trkpt>
      <trkpt lat="45.877787014469504" lon="9.063126007094979">
        <ele>1146</ele>
        <time>2010-06-13T12:24:51Z</time>
      </trkpt>
      <trkpt lat="45.877814004197717" lon="9.063126007094979">
        <ele>1145</ele>
        <time>2010-06-13T12:24:52Z</time>
      </trkpt>
      <trkpt lat="45.877832025289536" lon="9.063114020973444">
        <ele>1146</ele>
        <time>2010-06-13T12:24:53Z</time>
      </trkpt>
      <trkpt lat="45.877849962562323" lon="9.063114020973444">
        <ele>1146</ele>
        <time>2010-06-13T12:24:54Z</time>
      </trkpt>
      <trkpt lat="45.877877036109567" lon="9.063114020973444">
        <ele>1147</ele>
        <time>2010-06-13T12:24:56Z</time>
      </trkpt>
      <trkpt lat="45.877912994474173" lon="9.06312701292336">
        <ele>1146</ele>
        <time>2010-06-13T12:24:58Z</time>
      </trkpt>
      <trkpt lat="45.877931015565991" lon="9.06312701292336">
        <ele>1146</ele>
        <time>2010-06-13T12:24:59Z</time>
      </trkpt>
      <trkpt lat="45.87794903665781" lon="9.06312701292336">
        <ele>1147</ele>
        <time>2010-06-13T12:25:00Z</time>
      </trkpt>
      <trkpt lat="45.878011984750628" lon="9.06312701292336">
        <ele>1147</ele>
        <time>2010-06-13T12:25:04Z</time>
      </trkpt>
      <trkpt lat="45.878038974478841" lon="9.063114020973444">
        <ele>1147</ele>
        <time>2010-06-13T12:25:05Z</time>
      </trkpt>
      <trkpt lat="45.87805699557066" lon="9.063114020973444">
        <ele>1147</ele>
        <time>2010-06-13T12:25:06Z</time>
      </trkpt>
      <trkpt lat="45.878083985298872" lon="9.063101029023528">
        <ele>1147</ele>
        <time>2010-06-13T12:25:07Z</time>
      </trkpt>
      <trkpt lat="45.878102006390691" lon="9.063088037073612">
        <ele>1146</ele>
        <time>2010-06-13T12:25:08Z</time>
      </trkpt>
      <trkpt lat="45.87812002748251" lon="9.063074961304665">
        <ele>1147</ele>
        <time>2010-06-13T12:25:09Z</time>
      </trkpt>
      <trkpt lat="45.878137964755297" lon="9.063061969354749">
        <ele>1147</ele>
        <time>2010-06-13T12:25:10Z</time>
      </trkpt>
      <trkpt lat="45.878165038302541" lon="9.063061969354749">
        <ele>1147</ele>
        <time>2010-06-13T12:25:11Z</time>
      </trkpt>
      <trkpt lat="45.878182975575328" lon="9.063048977404833">
        <ele>1146</ele>
        <time>2010-06-13T12:25:12Z</time>
      </trkpt>
      <trkpt lat="45.878200996667147" lon="9.063036991283298">
        <ele>1146</ele>
        <time>2010-06-13T12:25:13Z</time>
      </trkpt>
      <trkpt lat="45.878219017758965" lon="9.063023999333382">
        <ele>1147</ele>
        <time>2010-06-13T12:25:14Z</time>
      </trkpt>
      <trkpt lat="45.878237038850784" lon="9.063011007383466">
        <ele>1147</ele>
        <time>2010-06-13T12:25:15Z</time>
      </trkpt>
      <trkpt lat="45.878246007487178" lon="9.063011007383466">
        <ele>1147</ele>
        <time>2010-06-13T12:25:16Z</time>
      </trkpt>
      <trkpt lat="45.878264028578997" lon="9.06299801543355">
        <ele>1147</ele>
        <time>2010-06-13T12:25:17Z</time>
      </trkpt>
      <trkpt lat="45.878281965851784" lon="9.062985023483634">
        <ele>1147</ele>
        <time>2010-06-13T12:25:18Z</time>
      </trkpt>
      <trkpt lat="45.878299986943603" lon="9.062959039583802">
        <ele>1147</ele>
        <time>2010-06-13T12:25:19Z</time>
      </trkpt>
      <trkpt lat="45.878326976671815" lon="9.062778996303678">
        <ele>1144</ele>
        <time>2010-06-13T12:29:54Z</time>
      </trkpt>
      <trkpt lat="45.878309039399028" lon="9.062741026282311">
        <ele>1144</ele>
        <time>2010-06-13T12:29:55Z</time>
      </trkpt>
      <trkpt lat="45.878299986943603" lon="9.062701966613531">
        <ele>1144</ele>
        <time>2010-06-13T12:29:56Z</time>
      </trkpt>
      <trkpt lat="45.878300992771983" lon="9.062675982713699">
        <ele>1145</ele>
        <time>2010-06-13T12:29:57Z</time>
      </trkpt>
      <trkpt lat="45.878291018307209" lon="9.062637006863952">
        <ele>1144</ele>
        <time>2010-06-13T12:29:58Z</time>
      </trkpt>
      <trkpt lat="45.878281965851784" lon="9.062612028792501">
        <ele>1143</ele>
        <time>2010-06-13T12:29:59Z</time>
      </trkpt>
      <trkpt lat="45.878274003043771" lon="9.062585961073637">
        <ele>1142</ele>
        <time>2010-06-13T12:30:00Z</time>
      </trkpt>
      <trkpt lat="45.878264028578997" lon="9.062546985223889">
        <ele>1141</ele>
        <time>2010-06-13T12:30:01Z</time>
      </trkpt>
      <trkpt lat="45.878255981951952" lon="9.062521001324058">
        <ele>1140</ele>
        <time>2010-06-13T12:30:02Z</time>
      </trkpt>
      <trkpt lat="45.878255981951952" lon="9.062483031302691">
        <ele>1140</ele>
        <time>2010-06-13T12:30:03Z</time>
      </trkpt>
      <trkpt lat="45.878247013315558" lon="9.062456963583827">
        <ele>1139</ele>
        <time>2010-06-13T12:30:04Z</time>
      </trkpt>
      <trkpt lat="45.878247013315558" lon="9.062430979683995">
        <ele>1139</ele>
        <time>2010-06-13T12:30:05Z</time>
      </trkpt>
      <trkpt lat="45.878237038850784" lon="9.062404995784164">
        <ele>1139</ele>
        <time>2010-06-13T12:30:06Z</time>
      </trkpt>
      <trkpt lat="45.87822899222374" lon="9.062354033812881">
        <ele>1140</ele>
        <time>2010-06-13T12:30:07Z</time>
      </trkpt>
      <trkpt lat="45.878220023587346" lon="9.062314974144101">
        <ele>1139</ele>
        <time>2010-06-13T12:30:08Z</time>
      </trkpt>
      <trkpt lat="45.878210971131921" lon="9.062275998294354">
        <ele>1139</ele>
        <time>2010-06-13T12:30:09Z</time>
      </trkpt>
      <trkpt lat="45.878202002495527" lon="9.062251020222902">
        <ele>1137</ele>
        <time>2010-06-13T12:30:10Z</time>
      </trkpt>
      <trkpt lat="45.878193033859134" lon="9.062211960554123">
        <ele>1136</ele>
        <time>2010-06-13T12:30:11Z</time>
      </trkpt>
      <trkpt lat="45.878193033859134" lon="9.062172984704375">
        <ele>1134</ele>
        <time>2010-06-13T12:30:12Z</time>
      </trkpt>
      <trkpt lat="45.878183981403708" lon="9.062122022733092">
        <ele>1134</ele>
        <time>2010-06-13T12:30:13Z</time>
      </trkpt>
      <trkpt lat="45.87816596031189" lon="9.062069971114397">
        <ele>1133</ele>
        <time>2010-06-13T12:30:14Z</time>
      </trkpt>
      <trkpt lat="45.878156991675496" lon="9.062006017193198">
        <ele>1133</ele>
        <time>2010-06-13T12:30:15Z</time>
      </trkpt>
      <trkpt lat="45.878148023039103" lon="9.061940973624587">
        <ele>1134</ele>
        <time>2010-06-13T12:30:16Z</time>
      </trkpt>
      <trkpt lat="45.878138970583677" lon="9.061877019703388">
        <ele>1134</ele>
        <time>2010-06-13T12:30:17Z</time>
      </trkpt>
      <trkpt lat="45.878130001947284" lon="9.061824968084693">
        <ele>1134</ele>
        <time>2010-06-13T12:30:18Z</time>
      </trkpt>
      <trkpt lat="45.87812103331089" lon="9.061761014163494">
        <ele>1133</ele>
        <time>2010-06-13T12:30:19Z</time>
      </trkpt>
      <trkpt lat="45.878111980855465" lon="9.061708962544799">
        <ele>1130</ele>
        <time>2010-06-13T12:30:20Z</time>
      </trkpt>
      <trkpt lat="45.878103012219071" lon="9.061658000573516">
        <ele>1130</ele>
        <time>2010-06-13T12:30:21Z</time>
      </trkpt>
      <trkpt lat="45.878093959763646" lon="9.061619024723768">
        <ele>1131</ele>
        <time>2010-06-13T12:30:22Z</time>
      </trkpt>
      <trkpt lat="45.878084991127253" lon="9.061566973105073">
        <ele>1130</ele>
        <time>2010-06-13T12:30:23Z</time>
      </trkpt>
      <trkpt lat="45.878084991127253" lon="9.06151601113379">
        <ele>1130</ele>
        <time>2010-06-13T12:30:24Z</time>
      </trkpt>
      <trkpt lat="45.878076022490859" lon="9.061477035284042">
        <ele>1129</ele>
        <time>2010-06-13T12:30:25Z</time>
      </trkpt>
      <trkpt lat="45.878066970035434" lon="9.061425989493728">
        <ele>1129</ele>
        <time>2010-06-13T12:30:26Z</time>
      </trkpt>
      <trkpt lat="45.878049032762647" lon="9.061374021694064">
        <ele>1129</ele>
        <time>2010-06-13T12:30:27Z</time>
      </trkpt>
      <trkpt lat="45.878049032762647" lon="9.061335967853665">
        <ele>1128</ele>
        <time>2010-06-13T12:30:28Z</time>
      </trkpt>
      <trkpt lat="45.878039980307221" lon="9.061296992003918">
        <ele>1127</ele>
        <time>2010-06-13T12:30:29Z</time>
      </trkpt>
      <trkpt lat="45.878031011670828" lon="9.061271008104086">
        <ele>1127</ele>
        <time>2010-06-13T12:30:30Z</time>
      </trkpt>
      <trkpt lat="45.878031011670828" lon="9.061245024204254">
        <ele>1127</ele>
        <time>2010-06-13T12:30:31Z</time>
      </trkpt>
      <trkpt lat="45.878031011670828" lon="9.061219040304422">
        <ele>1127</ele>
        <time>2010-06-13T12:30:32Z</time>
      </trkpt>
      <trkpt lat="45.878021959215403" lon="9.061180986464024">
        <ele>1126</ele>
        <time>2010-06-13T12:30:33Z</time>
      </trkpt>
      <trkpt lat="45.878012990579009" lon="9.061155002564192">
        <ele>1126</ele>
        <time>2010-06-13T12:30:34Z</time>
      </trkpt>
      <trkpt lat="45.878004021942616" lon="9.061116026714444">
        <ele>1127</ele>
        <time>2010-06-13T12:30:35Z</time>
      </trkpt>
      <trkpt lat="45.877986000850797" lon="9.06106498092413">
        <ele>1126</ele>
        <time>2010-06-13T12:30:36Z</time>
      </trkpt>
      <trkpt lat="45.877967979758978" lon="9.061026005074382">
        <ele>1126</ele>
        <time>2010-06-13T12:30:37Z</time>
      </trkpt>
      <trkpt lat="45.877949958667159" lon="9.060974959284067">
        <ele>1125</ele>
        <time>2010-06-13T12:30:38Z</time>
      </trkpt>
      <trkpt lat="45.877932021394372" lon="9.060922991484404">
        <ele>1125</ele>
        <time>2010-06-13T12:30:39Z</time>
      </trkpt>
      <trkpt lat="45.87790503166616" lon="9.06087102368474">
        <ele>1124</ele>
        <time>2010-06-13T12:30:40Z</time>
      </trkpt>
      <trkpt lat="45.877868989482522" lon="9.060832969844341">
        <ele>1123</ele>
        <time>2010-06-13T12:30:41Z</time>
      </trkpt>
      <trkpt lat="45.87784300558269" lon="9.060781002044678">
        <ele>1123</ele>
        <time>2010-06-13T12:30:42Z</time>
      </trkpt>
      <trkpt lat="45.877823978662491" lon="9.06074202619493">
        <ele>1123</ele>
        <time>2010-06-13T12:30:43Z</time>
      </trkpt>
      <trkpt lat="45.877806041389704" lon="9.060716964304447">
        <ele>1123</ele>
        <time>2010-06-13T12:30:44Z</time>
      </trkpt>
      <trkpt lat="45.877788020297885" lon="9.060703972354531">
        <ele>1123</ele>
        <time>2010-06-13T12:30:45Z</time>
      </trkpt>
      <trkpt lat="45.877725994214416" lon="9.060561982914805">
        <ele>1120</ele>
        <time>2010-06-13T12:33:26Z</time>
      </trkpt>
      <trkpt lat="45.877707973122597" lon="9.060511020943523">
        <ele>1119</ele>
        <time>2010-06-13T12:33:27Z</time>
      </trkpt>
      <trkpt lat="45.877699004486203" lon="9.060458969324827">
        <ele>1118</ele>
        <time>2010-06-13T12:33:28Z</time>
      </trkpt>
      <trkpt lat="45.87769003584981" lon="9.060394009575248">
        <ele>1118</ele>
        <time>2010-06-13T12:33:29Z</time>
      </trkpt>
      <trkpt lat="45.877680983394384" lon="9.060342963784933">
        <ele>1117</ele>
        <time>2010-06-13T12:33:30Z</time>
      </trkpt>
      <trkpt lat="45.877672014757991" lon="9.060279009863734">
        <ele>1116</ele>
        <time>2010-06-13T12:33:31Z</time>
      </trkpt>
      <trkpt lat="45.877672014757991" lon="9.060213966295123">
        <ele>1115</ele>
        <time>2010-06-13T12:33:32Z</time>
      </trkpt>
      <trkpt lat="45.877662962302566" lon="9.060150012373924">
        <ele>1115</ele>
        <time>2010-06-13T12:33:33Z</time>
      </trkpt>
      <trkpt lat="45.877662962302566" lon="9.060084968805313">
        <ele>1113</ele>
        <time>2010-06-13T12:33:34Z</time>
      </trkpt>
      <trkpt lat="45.877662962302566" lon="9.059866033494473">
        <ele>1110</ele>
        <time>2010-06-13T12:33:37Z</time>
      </trkpt>
      <trkpt lat="45.877653993666172" lon="9.05977601185441">
        <ele>1109</ele>
        <time>2010-06-13T12:33:38Z</time>
      </trkpt>
      <trkpt lat="45.877653993666172" lon="9.059685990214348">
        <ele>1106</ele>
        <time>2010-06-13T12:33:39Z</time>
      </trkpt>
      <trkpt lat="45.877635972574353" lon="9.059581970795989">
        <ele>1104</ele>
        <time>2010-06-13T12:33:40Z</time>
      </trkpt>
      <trkpt lat="45.87762700393796" lon="9.059479041025043">
        <ele>1105</ele>
        <time>2010-06-13T12:33:41Z</time>
      </trkpt>
      <trkpt lat="45.877618035301566" lon="9.059376027435064">
        <ele>1105</ele>
        <time>2010-06-13T12:33:42Z</time>
      </trkpt>
      <trkpt lat="45.877608982846141" lon="9.059261027723551">
        <ele>1104</ele>
        <time>2010-06-13T12:33:43Z</time>
      </trkpt>
      <trkpt lat="45.877600014209747" lon="9.059144016355276">
        <ele>1101</ele>
        <time>2010-06-13T12:33:44Z</time>
      </trkpt>
      <trkpt lat="45.877581993117929" lon="9.059028010815382">
        <ele>1098</ele>
        <time>2010-06-13T12:33:45Z</time>
      </trkpt>
      <trkpt lat="45.877573024481535" lon="9.05893798917532">
        <ele>1098</ele>
        <time>2010-06-13T12:33:46Z</time>
      </trkpt>
      <trkpt lat="45.87756397202611" lon="9.058834975585342">
        <ele>1096</ele>
        <time>2010-06-13T12:33:47Z</time>
      </trkpt>
      <trkpt lat="45.877556009218097" lon="9.058718970045447">
        <ele>1095</ele>
        <time>2010-06-13T12:33:48Z</time>
      </trkpt>
      <trkpt lat="45.877547040581703" lon="9.058602964505553">
        <ele>1094</ele>
        <time>2010-06-13T12:33:49Z</time>
      </trkpt>
      <trkpt lat="45.877536982297897" lon="9.058486958965659">
        <ele>1093</ele>
        <time>2010-06-13T12:33:50Z</time>
      </trkpt>
      <trkpt lat="45.877519967034459" lon="9.058384029194713">
        <ele>1092</ele>
        <time>2010-06-13T12:33:51Z</time>
      </trkpt>
      <trkpt lat="45.877510998398066" lon="9.058268023654819">
        <ele>1091</ele>
        <time>2010-06-13T12:33:52Z</time>
      </trkpt>
      <trkpt lat="45.877510998398066" lon="9.058139026165009">
        <ele>1091</ele>
        <time>2010-06-13T12:33:53Z</time>
      </trkpt>
      <trkpt lat="45.877492977306247" lon="9.058023020625114">
        <ele>1091</ele>
        <time>2010-06-13T12:33:54Z</time>
      </trkpt>
      <trkpt lat="45.877465987578034" lon="9.057894023135305">
        <ele>1090</ele>
        <time>2010-06-13T12:33:55Z</time>
      </trkpt>
      <trkpt lat="45.877430029213428" lon="9.057816993445158">
        <ele>1086</ele>
        <time>2010-06-13T12:33:56Z</time>
      </trkpt>
      <trkpt lat="45.877385018393397" lon="9.057766031473875">
        <ele>1086</ele>
        <time>2010-06-13T12:33:57Z</time>
      </trkpt>
      <trkpt lat="45.87734897620976" lon="9.057726971805096">
        <ele>1085</ele>
        <time>2010-06-13T12:33:58Z</time>
      </trkpt>
      <trkpt lat="45.877313017845154" lon="9.057687995955348">
        <ele>1086</ele>
        <time>2010-06-13T12:33:59Z</time>
      </trkpt>
      <trkpt lat="45.877286028116941" lon="9.057662012055516">
        <ele>1085</ele>
        <time>2010-06-13T12:34:00Z</time>
      </trkpt>
      <trkpt lat="45.877259038388729" lon="9.057636028155685">
        <ele>1085</ele>
        <time>2010-06-13T12:34:01Z</time>
      </trkpt>
      <trkpt lat="45.877231964841485" lon="9.057610966265202">
        <ele>1085</ele>
        <time>2010-06-13T12:34:02Z</time>
      </trkpt>
      <trkpt lat="45.877214027568698" lon="9.05758498236537">
        <ele>1084</ele>
        <time>2010-06-13T12:34:03Z</time>
      </trkpt>
      <trkpt lat="45.877196006476879" lon="9.057558998465538">
        <ele>1085</ele>
        <time>2010-06-13T12:34:04Z</time>
      </trkpt>
      <trkpt lat="45.87717798538506" lon="9.057533014565706">
        <ele>1085</ele>
        <time>2010-06-13T12:34:05Z</time>
      </trkpt>
      <trkpt lat="45.877159964293242" lon="9.057507030665875">
        <ele>1084</ele>
        <time>2010-06-13T12:34:06Z</time>
      </trkpt>
      <trkpt lat="45.877150995656848" lon="9.057494960725308">
        <ele>1084</ele>
        <time>2010-06-13T12:34:07Z</time>
      </trkpt>
      <trkpt lat="45.877132974565029" lon="9.057468976825476">
        <ele>1084</ele>
        <time>2010-06-13T12:34:08Z</time>
      </trkpt>
      <trkpt lat="45.877124005928636" lon="9.05745598487556">
        <ele>1085</ele>
        <time>2010-06-13T12:34:09Z</time>
      </trkpt>
      <trkpt lat="45.877105984836817" lon="9.057430000975728">
        <ele>1084</ele>
        <time>2010-06-13T12:34:10Z</time>
      </trkpt>
      <trkpt lat="45.877087963744998" lon="9.057404017075896">
        <ele>1084</ele>
        <time>2010-06-13T12:34:11Z</time>
      </trkpt>
      <trkpt lat="45.877078995108604" lon="9.057379039004445">
        <ele>1085</ele>
        <time>2010-06-13T12:34:12Z</time>
      </trkpt>
      <trkpt lat="45.877060974016786" lon="9.057365963235498">
        <ele>1085</ele>
        <time>2010-06-13T12:34:13Z</time>
      </trkpt>
      <trkpt lat="45.877052005380392" lon="9.057339979335666">
        <ele>1085</ele>
        <time>2010-06-13T12:34:14Z</time>
      </trkpt>
      <trkpt lat="45.877033984288573" lon="9.057313995435834">
        <ele>1085</ele>
        <time>2010-06-13T12:34:15Z</time>
      </trkpt>
      <trkpt lat="45.87702501565218" lon="9.057301003485918">
        <ele>1085</ele>
        <time>2010-06-13T12:34:16Z</time>
      </trkpt>
      <trkpt lat="45.877015963196754" lon="9.057275019586086">
        <ele>1085</ele>
        <time>2010-06-13T12:34:17Z</time>
      </trkpt>
      <trkpt lat="45.877006994560361" lon="9.057263033464551">
        <ele>1085</ele>
        <time>2010-06-13T12:34:18Z</time>
      </trkpt>
      <trkpt lat="45.876998025923967" lon="9.057236965745688">
        <ele>1086</ele>
        <time>2010-06-13T12:34:19Z</time>
      </trkpt>
      <trkpt lat="45.876988973468542" lon="9.057223973795772">
        <ele>1085</ele>
        <time>2010-06-13T12:34:20Z</time>
      </trkpt>
      <trkpt lat="45.876980004832149" lon="9.05719798989594">
        <ele>1085</ele>
        <time>2010-06-13T12:34:21Z</time>
      </trkpt>
      <trkpt lat="45.876980004832149" lon="9.057172005996108">
        <ele>1085</ele>
        <time>2010-06-13T12:34:22Z</time>
      </trkpt>
      <trkpt lat="45.876971036195755" lon="9.057159014046192">
        <ele>1085</ele>
        <time>2010-06-13T12:34:23Z</time>
      </trkpt>
      <trkpt lat="45.87696198374033" lon="9.057134035974741">
        <ele>1085</ele>
        <time>2010-06-13T12:34:24Z</time>
      </trkpt>
      <trkpt lat="45.876953015103936" lon="9.057107968255878">
        <ele>1084</ele>
        <time>2010-06-13T12:34:25Z</time>
      </trkpt>
      <trkpt lat="45.876943962648511" lon="9.05706899240613">
        <ele>1085</ele>
        <time>2010-06-13T12:34:26Z</time>
      </trkpt>
      <trkpt lat="45.876943962648511" lon="9.057043008506298">
        <ele>1085</ele>
        <time>2010-06-13T12:34:27Z</time>
      </trkpt>
      <trkpt lat="45.876934994012117" lon="9.056991962715983">
        <ele>1085</ele>
        <time>2010-06-13T12:34:28Z</time>
      </trkpt>
      <trkpt lat="45.876926025375724" lon="9.056952986866236">
        <ele>1085</ele>
        <time>2010-06-13T12:34:29Z</time>
      </trkpt>
      <trkpt lat="45.876916972920299" lon="9.056914011016488">
        <ele>1085</ele>
        <time>2010-06-13T12:34:30Z</time>
      </trkpt>
      <trkpt lat="45.876908004283905" lon="9.056876040995121">
        <ele>1085</ele>
        <time>2010-06-13T12:34:31Z</time>
      </trkpt>
      <trkpt lat="45.876908004283905" lon="9.056823989376426">
        <ele>1085</ele>
        <time>2010-06-13T12:34:32Z</time>
      </trkpt>
      <trkpt lat="45.876899035647511" lon="9.056786019355059">
        <ele>1084</ele>
        <time>2010-06-13T12:34:33Z</time>
      </trkpt>
      <trkpt lat="45.876899035647511" lon="9.056733967736363">
        <ele>1084</ele>
        <time>2010-06-13T12:34:34Z</time>
      </trkpt>
      <trkpt lat="45.876890989020467" lon="9.056694991886616">
        <ele>1083</ele>
        <time>2010-06-13T12:34:35Z</time>
      </trkpt>
      <trkpt lat="45.876890989020467" lon="9.056644029915333">
        <ele>1084</ele>
        <time>2010-06-13T12:34:36Z</time>
      </trkpt>
      <trkpt lat="45.876881014555693" lon="9.056591978296638">
        <ele>1083</ele>
        <time>2010-06-13T12:34:37Z</time>
      </trkpt>
      <trkpt lat="45.876882020384073" lon="9.056541016325355">
        <ele>1083</ele>
        <time>2010-06-13T12:34:38Z</time>
      </trkpt>
      <trkpt lat="45.876882020384073" lon="9.056488964706659">
        <ele>1082</ele>
        <time>2010-06-13T12:34:39Z</time>
      </trkpt>
      <trkpt lat="45.876871962100267" lon="9.056425010785461">
        <ele>1083</ele>
        <time>2010-06-13T12:34:40Z</time>
      </trkpt>
      <trkpt lat="45.876871962100267" lon="9.056359967216849">
        <ele>1083</ele>
        <time>2010-06-13T12:34:41Z</time>
      </trkpt>
      <trkpt lat="45.876863999292254" lon="9.056296013295651">
        <ele>1083</ele>
        <time>2010-06-13T12:34:42Z</time>
      </trkpt>
      <trkpt lat="45.876855030655861" lon="9.056218983605504">
        <ele>1082</ele>
        <time>2010-06-13T12:34:43Z</time>
      </trkpt>
      <trkpt lat="45.876855030655861" lon="9.056141031906009">
        <ele>1081</ele>
        <time>2010-06-13T12:34:44Z</time>
      </trkpt>
      <trkpt lat="45.876845978200436" lon="9.056064002215862">
        <ele>1081</ele>
        <time>2010-06-13T12:34:45Z</time>
      </trkpt>
      <trkpt lat="45.876837009564042" lon="9.055998958647251">
        <ele>1081</ele>
        <time>2010-06-13T12:34:46Z</time>
      </trkpt>
      <trkpt lat="45.876828040927649" lon="9.055922012776136">
        <ele>1081</ele>
        <time>2010-06-13T12:34:47Z</time>
      </trkpt>
      <trkpt lat="45.87681001983583" lon="9.055857975035906">
        <ele>1081</ele>
        <time>2010-06-13T12:34:48Z</time>
      </trkpt>
      <trkpt lat="45.876800967380404" lon="9.055793015286326">
        <ele>1081</ele>
        <time>2010-06-13T12:34:49Z</time>
      </trkpt>
      <trkpt lat="45.876783030107617" lon="9.05571598559618">
        <ele>1081</ele>
        <time>2010-06-13T12:34:50Z</time>
      </trkpt>
      <trkpt lat="45.876765009015799" lon="9.055664017796516">
        <ele>1081</ele>
        <time>2010-06-13T12:34:51Z</time>
      </trkpt>
      <trkpt lat="45.87674698792398" lon="9.055599980056286">
        <ele>1081</ele>
        <time>2010-06-13T12:34:52Z</time>
      </trkpt>
      <trkpt lat="45.876728966832161" lon="9.055548012256622">
        <ele>1080</ele>
        <time>2010-06-13T12:34:53Z</time>
      </trkpt>
      <trkpt lat="45.876711029559374" lon="9.055496966466308">
        <ele>1081</ele>
        <time>2010-06-13T12:34:54Z</time>
      </trkpt>
      <trkpt lat="45.876684039831161" lon="9.055444998666644">
        <ele>1081</ele>
        <time>2010-06-13T12:34:55Z</time>
      </trkpt>
      <trkpt lat="45.876666018739343" lon="9.055394036695361">
        <ele>1081</ele>
        <time>2010-06-13T12:34:56Z</time>
      </trkpt>
      <trkpt lat="45.87663902901113" lon="9.055354977026582">
        <ele>1081</ele>
        <time>2010-06-13T12:34:57Z</time>
      </trkpt>
      <trkpt lat="45.876612039282918" lon="9.055303009226918">
        <ele>1081</ele>
        <time>2010-06-13T12:34:58Z</time>
      </trkpt>
      <trkpt lat="45.87657599709928" lon="9.055265039205551">
        <ele>1080</ele>
        <time>2010-06-13T12:34:59Z</time>
      </trkpt>
      <trkpt lat="45.876549007371068" lon="9.055212987586856">
        <ele>1079</ele>
        <time>2010-06-13T12:35:00Z</time>
      </trkpt>
      <trkpt lat="45.876530986279249" lon="9.055162025615573">
        <ele>1078</ele>
        <time>2010-06-13T12:35:01Z</time>
      </trkpt>
      <trkpt lat="45.87651296518743" lon="9.055109973996878">
        <ele>1079</ele>
        <time>2010-06-13T12:35:02Z</time>
      </trkpt>
      <trkpt lat="45.876468038186431" lon="9.055020036175847">
        <ele>1078</ele>
        <time>2010-06-13T12:35:04Z</time>
      </trkpt>
      <trkpt lat="45.876440964639187" lon="9.054980976507068">
        <ele>1075</ele>
        <time>2010-06-13T12:35:05Z</time>
      </trkpt>
      <trkpt lat="45.8764230273664" lon="9.054954992607236">
        <ele>1074</ele>
        <time>2010-06-13T12:35:06Z</time>
      </trkpt>
      <trkpt lat="45.876396037638187" lon="9.054917022585869">
        <ele>1075</ele>
        <time>2010-06-13T12:35:07Z</time>
      </trkpt>
      <trkpt lat="45.876378016546369" lon="9.054864970967174">
        <ele>1075</ele>
        <time>2010-06-13T12:35:08Z</time>
      </trkpt>
      <trkpt lat="45.876341974362731" lon="9.054814008995891">
        <ele>1074</ele>
        <time>2010-06-13T12:35:09Z</time>
      </trkpt>
      <trkpt lat="45.876314984634519" lon="9.05474896542728">
        <ele>1072</ele>
        <time>2010-06-13T12:35:10Z</time>
      </trkpt>
      <trkpt lat="45.876287994906306" lon="9.054696997627616">
        <ele>1072</ele>
        <time>2010-06-13T12:35:11Z</time>
      </trkpt>
      <trkpt lat="45.876252958551049" lon="9.054646035656333">
        <ele>1070</ele>
        <time>2010-06-13T12:35:12Z</time>
      </trkpt>
      <trkpt lat="45.876215994358063" lon="9.054593984037638">
        <ele>1070</ele>
        <time>2010-06-13T12:35:13Z</time>
      </trkpt>
      <trkpt lat="45.876170983538032" lon="9.054556014016271">
        <ele>1069</ele>
        <time>2010-06-13T12:35:14Z</time>
      </trkpt>
      <trkpt lat="45.876136031001806" lon="9.054517038166523">
        <ele>1070</ele>
        <time>2010-06-13T12:35:15Z</time>
      </trkpt>
      <trkpt lat="45.876091020181775" lon="9.054477978497744">
        <ele>1070</ele>
        <time>2010-06-13T12:35:16Z</time>
      </trkpt>
      <trkpt lat="45.876053972169757" lon="9.054439002647996">
        <ele>1070</ele>
        <time>2010-06-13T12:35:17Z</time>
      </trkpt>
      <trkpt lat="45.876019019633532" lon="9.054388040676713">
        <ele>1068</ele>
        <time>2010-06-13T12:35:18Z</time>
      </trkpt>
      <trkpt lat="45.875981971621513" lon="9.054335989058018">
        <ele>1067</ele>
        <time>2010-06-13T12:35:19Z</time>
      </trkpt>
      <trkpt lat="45.875947019085288" lon="9.054285027086735">
        <ele>1065</ele>
        <time>2010-06-13T12:35:20Z</time>
      </trkpt>
      <trkpt lat="45.875902008265257" lon="9.054219983518124">
        <ele>1063</ele>
        <time>2010-06-13T12:35:21Z</time>
      </trkpt>
      <trkpt lat="45.875856997445226" lon="9.054169021546841">
        <ele>1063</ele>
        <time>2010-06-13T12:35:22Z</time>
      </trkpt>
      <trkpt lat="45.875766975805163" lon="9.054090986028314">
        <ele>1063</ele>
        <time>2010-06-13T12:35:24Z</time>
      </trkpt>
      <trkpt lat="45.875712996348739" lon="9.054053016006947">
        <ele>1063</ele>
        <time>2010-06-13T12:35:25Z</time>
      </trkpt>
      <trkpt lat="45.875667985528708" lon="9.054000964388251">
        <ele>1060</ele>
        <time>2010-06-13T12:35:26Z</time>
      </trkpt>
      <trkpt lat="45.875614006072283" lon="9.053937010467053">
        <ele>1060</ele>
        <time>2010-06-13T12:35:27Z</time>
      </trkpt>
      <trkpt lat="45.875560026615858" lon="9.053871966898441">
        <ele>1059</ele>
        <time>2010-06-13T12:35:28Z</time>
      </trkpt>
      <trkpt lat="45.875515015795827" lon="9.053808012977243">
        <ele>1059</ele>
        <time>2010-06-13T12:35:29Z</time>
      </trkpt>
      <trkpt lat="45.875461036339402" lon="9.053742969408631">
        <ele>1057</ele>
        <time>2010-06-13T12:35:30Z</time>
      </trkpt>
      <trkpt lat="45.875416025519371" lon="9.053679015487433">
        <ele>1056</ele>
        <time>2010-06-13T12:35:31Z</time>
      </trkpt>
      <trkpt lat="45.875361962243915" lon="9.053626963868737">
        <ele>1057</ele>
        <time>2010-06-13T12:35:32Z</time>
      </trkpt>
      <trkpt lat="45.875326003879309" lon="9.053576001897454">
        <ele>1056</ele>
        <time>2010-06-13T12:35:33Z</time>
      </trkpt>
      <trkpt lat="45.875299014151096" lon="9.053563009947538">
        <ele>1056</ele>
        <time>2010-06-13T12:35:34Z</time>
      </trkpt>
      <trkpt lat="45.875289961695671" lon="9.053550017997623">
        <ele>1056</ele>
        <time>2010-06-13T12:35:35Z</time>
      </trkpt>
      <trkpt lat="45.875280993059278" lon="9.053537026047707">
        <ele>1056</ele>
        <time>2010-06-13T12:35:36Z</time>
      </trkpt>
      <trkpt lat="45.875173034146428" lon="9.053434012457728">
        <ele>1053</ele>
        <time>2010-06-13T12:35:45Z</time>
      </trkpt>
      <trkpt lat="45.87513699196279" lon="9.053395036607981">
        <ele>1053</ele>
        <time>2010-06-13T12:35:46Z</time>
      </trkpt>
      <trkpt lat="45.875091981142759" lon="9.053355976939201">
        <ele>1053</ele>
        <time>2010-06-13T12:35:47Z</time>
      </trkpt>
      <trkpt lat="45.875056022778153" lon="9.053305014967918">
        <ele>1053</ele>
        <time>2010-06-13T12:35:48Z</time>
      </trkpt>
      <trkpt lat="45.875011011958122" lon="9.053266039118171">
        <ele>1054</ele>
        <time>2010-06-13T12:35:49Z</time>
      </trkpt>
      <trkpt lat="45.874966001138091" lon="9.053213987499476">
        <ele>1055</ele>
        <time>2010-06-13T12:35:50Z</time>
      </trkpt>
      <trkpt lat="45.87492099031806" lon="9.053163025528193">
        <ele>1054</ele>
        <time>2010-06-13T12:35:51Z</time>
      </trkpt>
      <trkpt lat="45.874885031953454" lon="9.053110973909497">
        <ele>1054</ele>
        <time>2010-06-13T12:35:52Z</time>
      </trkpt>
      <trkpt lat="45.874840021133423" lon="9.053060011938214">
        <ele>1053</ele>
        <time>2010-06-13T12:35:53Z</time>
      </trkpt>
      <trkpt lat="45.874795010313392" lon="9.053021036088467">
        <ele>1053</ele>
        <time>2010-06-13T12:35:54Z</time>
      </trkpt>
      <trkpt lat="45.874741030856967" lon="9.052981976419687">
        <ele>1052</ele>
        <time>2010-06-13T12:35:55Z</time>
      </trkpt>
      <trkpt lat="45.874686967581511" lon="9.052918022498488">
        <ele>1051</ele>
        <time>2010-06-13T12:35:56Z</time>
      </trkpt>
      <trkpt lat="45.874632988125086" lon="9.052878962829709">
        <ele>1051</ele>
        <time>2010-06-13T12:35:57Z</time>
      </trkpt>
      <trkpt lat="45.874579008668661" lon="9.052826995030046">
        <ele>1051</ele>
        <time>2010-06-13T12:35:58Z</time>
      </trkpt>
      <trkpt lat="45.874525029212236" lon="9.052789025008678">
        <ele>1051</ele>
        <time>2010-06-13T12:35:59Z</time>
      </trkpt>
      <trkpt lat="45.874461997300386" lon="9.052763041108847">
        <ele>1051</ele>
        <time>2010-06-13T12:36:00Z</time>
      </trkpt>
      <trkpt lat="45.874416986480355" lon="9.052736973389983">
        <ele>1051</ele>
        <time>2010-06-13T12:36:01Z</time>
      </trkpt>
      <trkpt lat="45.874363007023931" lon="9.052697997540236">
        <ele>1051</ele>
        <time>2010-06-13T12:36:02Z</time>
      </trkpt>
      <trkpt lat="45.874326964840293" lon="9.052660027518868">
        <ele>1051</ele>
        <time>2010-06-13T12:36:03Z</time>
      </trkpt>
      <trkpt lat="45.874291006475687" lon="9.052620967850089">
        <ele>1052</ele>
        <time>2010-06-13T12:36:04Z</time>
      </trkpt>
      <trkpt lat="45.874254964292049" lon="9.052594983950257">
        <ele>1051</ele>
        <time>2010-06-13T12:36:05Z</time>
      </trkpt>
      <trkpt lat="45.874219005927444" lon="9.05255701392889">
        <ele>1051</ele>
        <time>2010-06-13T12:36:06Z</time>
      </trkpt>
      <trkpt lat="45.874192016199231" lon="9.052531030029059">
        <ele>1052</ele>
        <time>2010-06-13T12:36:07Z</time>
      </trkpt>
      <trkpt lat="45.874155974015594" lon="9.052504962310195">
        <ele>1052</ele>
        <time>2010-06-13T12:36:08Z</time>
      </trkpt>
      <trkpt lat="45.874120015650988" lon="9.052491970360279">
        <ele>1052</ele>
        <time>2010-06-13T12:36:09Z</time>
      </trkpt>
      <trkpt lat="45.87408397346735" lon="9.052465986460447">
        <ele>1052</ele>
        <time>2010-06-13T12:36:10Z</time>
      </trkpt>
      <trkpt lat="45.874038962647319" lon="9.0524270106107">
        <ele>1052</ele>
        <time>2010-06-13T12:36:11Z</time>
      </trkpt>
      <trkpt lat="45.873994035646319" lon="9.052389040589333">
        <ele>1052</ele>
        <time>2010-06-13T12:36:12Z</time>
      </trkpt>
      <trkpt lat="45.873949024826288" lon="9.052349980920553">
        <ele>1053</ele>
        <time>2010-06-13T12:36:13Z</time>
      </trkpt>
      <trkpt lat="45.873904014006257" lon="9.052311005070806">
        <ele>1053</ele>
        <time>2010-06-13T12:36:14Z</time>
      </trkpt>
      <trkpt lat="45.873850034549832" lon="9.052273035049439">
        <ele>1052</ele>
        <time>2010-06-13T12:36:15Z</time>
      </trkpt>
      <trkpt lat="45.873795971274376" lon="9.052220983430743">
        <ele>1051</ele>
        <time>2010-06-13T12:36:16Z</time>
      </trkpt>
      <trkpt lat="45.873750960454345" lon="9.05216901563108">
        <ele>1051</ele>
        <time>2010-06-13T12:36:17Z</time>
      </trkpt>
      <trkpt lat="45.87369698099792" lon="9.052130961790681">
        <ele>1051</ele>
        <time>2010-06-13T12:36:18Z</time>
      </trkpt>
      <trkpt lat="45.873643001541495" lon="9.052104977890849">
        <ele>1050</ele>
        <time>2010-06-13T12:36:19Z</time>
      </trkpt>
      <trkpt lat="45.873589022085071" lon="9.052078993991017">
        <ele>1050</ele>
        <time>2010-06-13T12:36:20Z</time>
      </trkpt>
      <trkpt lat="45.873535964637995" lon="9.05204102396965">
        <ele>1049</ele>
        <time>2010-06-13T12:36:21Z</time>
      </trkpt>
      <trkpt lat="45.873480979353189" lon="9.052015040069819">
        <ele>1049</ele>
        <time>2010-06-13T12:36:22Z</time>
      </trkpt>
      <trkpt lat="45.873426999896765" lon="9.051988972350955">
        <ele>1050</ele>
        <time>2010-06-13T12:36:23Z</time>
      </trkpt>
      <trkpt lat="45.873381989076734" lon="9.051962988451123">
        <ele>1050</ele>
        <time>2010-06-13T12:36:24Z</time>
      </trkpt>
      <trkpt lat="45.873336978256702" lon="9.051949996501207">
        <ele>1050</ele>
        <time>2010-06-13T12:36:25Z</time>
      </trkpt>
      <trkpt lat="45.873282998800278" lon="9.051924012601376">
        <ele>1049</ele>
        <time>2010-06-13T12:36:26Z</time>
      </trkpt>
      <trkpt lat="45.873229019343853" lon="9.051899034529924">
        <ele>1049</ele>
        <time>2010-06-13T12:36:27Z</time>
      </trkpt>
      <trkpt lat="45.873175961896777" lon="9.051885958760977">
        <ele>1049</ele>
        <time>2010-06-13T12:36:28Z</time>
      </trkpt>
      <trkpt lat="45.873112007975578" lon="9.051872966811061">
        <ele>1049</ele>
        <time>2010-06-13T12:36:29Z</time>
      </trkpt>
      <trkpt lat="45.873059034347534" lon="9.051859974861145">
        <ele>1049</ele>
        <time>2010-06-13T12:36:30Z</time>
      </trkpt>
      <trkpt lat="45.873003965243697" lon="9.051859974861145">
        <ele>1050</ele>
        <time>2010-06-13T12:36:31Z</time>
      </trkpt>
      <trkpt lat="45.872959038242698" lon="9.051846982911229">
        <ele>1050</ele>
        <time>2010-06-13T12:36:32Z</time>
      </trkpt>
      <trkpt lat="45.872905980795622" lon="9.051833990961313">
        <ele>1049</ele>
        <time>2010-06-13T12:36:33Z</time>
      </trkpt>
      <trkpt lat="45.872860969975591" lon="9.051833990961313">
        <ele>1049</ele>
        <time>2010-06-13T12:36:34Z</time>
      </trkpt>
      <trkpt lat="45.872805984690785" lon="9.051833990961313">
        <ele>1048</ele>
        <time>2010-06-13T12:36:35Z</time>
      </trkpt>
      <trkpt lat="45.872752005234361" lon="9.051833990961313">
        <ele>1048</ele>
        <time>2010-06-13T12:36:36Z</time>
      </trkpt>
      <trkpt lat="45.872698025777936" lon="9.051833990961313">
        <ele>1049</ele>
        <time>2010-06-13T12:36:37Z</time>
      </trkpt>
      <trkpt lat="45.87264396250248" lon="9.051820999011397">
        <ele>1049</ele>
        <time>2010-06-13T12:36:38Z</time>
      </trkpt>
      <trkpt lat="45.872590988874435" lon="9.051820999011397">
        <ele>1049</ele>
        <time>2010-06-13T12:36:39Z</time>
      </trkpt>
      <trkpt lat="45.872482024133205" lon="9.051820999011397">
        <ele>1049</ele>
        <time>2010-06-13T12:36:41Z</time>
      </trkpt>
      <trkpt lat="45.872427960857749" lon="9.051832985132933">
        <ele>1049</ele>
        <time>2010-06-13T12:36:42Z</time>
      </trkpt>
      <trkpt lat="45.872366018593311" lon="9.051832985132933">
        <ele>1048</ele>
        <time>2010-06-13T12:36:43Z</time>
      </trkpt>
      <trkpt lat="45.872301980853081" lon="9.051819993183017">
        <ele>1048</ele>
        <time>2010-06-13T12:36:44Z</time>
      </trkpt>
      <trkpt lat="45.872157979756594" lon="9.051832985132933">
        <ele>1046</ele>
        <time>2010-06-13T12:36:46Z</time>
      </trkpt>
      <trkpt lat="45.872077010571957" lon="9.051845977082849">
        <ele>1046</ele>
        <time>2010-06-13T12:36:47Z</time>
      </trkpt>
      <trkpt lat="45.87199604138732" lon="9.051858969032764">
        <ele>1045</ele>
        <time>2010-06-13T12:36:48Z</time>
      </trkpt>
      <trkpt lat="45.871914988383651" lon="9.051871038973332">
        <ele>1045</ele>
        <time>2010-06-13T12:36:49Z</time>
      </trkpt>
      <trkpt lat="45.871834019199014" lon="9.051897022873163">
        <ele>1046</ele>
        <time>2010-06-13T12:36:50Z</time>
      </trkpt>
      <trkpt lat="45.871770987287164" lon="9.051935998722911">
        <ele>1047</ele>
        <time>2010-06-13T12:36:51Z</time>
      </trkpt>
      <trkpt lat="45.871708039194345" lon="9.051973968744278">
        <ele>1047</ele>
        <time>2010-06-13T12:36:52Z</time>
      </trkpt>
      <trkpt lat="45.871663028374314" lon="9.052013028413057">
        <ele>1045</ele>
        <time>2010-06-13T12:36:53Z</time>
      </trkpt>
      <trkpt lat="45.871618017554283" lon="9.05206399038434">
        <ele>1043</ele>
        <time>2010-06-13T12:36:54Z</time>
      </trkpt>
      <trkpt lat="45.871573006734252" lon="9.052089974284172">
        <ele>1041</ele>
        <time>2010-06-13T12:36:55Z</time>
      </trkpt>
      <trkpt lat="45.871519027277827" lon="9.052115958184004">
        <ele>1041</ele>
        <time>2010-06-13T12:36:56Z</time>
      </trkpt>
      <trkpt lat="45.871455995365977" lon="9.052129033952951">
        <ele>1041</ele>
        <time>2010-06-13T12:36:57Z</time>
      </trkpt>
      <trkpt lat="45.871402015909553" lon="9.052129033952951">
        <ele>1040</ele>
        <time>2010-06-13T12:36:58Z</time>
      </trkpt>
      <trkpt lat="45.871357005089521" lon="9.052129033952951">
        <ele>1041</ele>
        <time>2010-06-13T12:36:59Z</time>
      </trkpt>
      <trkpt lat="45.87131199426949" lon="9.052129033952951">
        <ele>1040</ele>
        <time>2010-06-13T12:37:00Z</time>
      </trkpt>
      <trkpt lat="45.871266983449459" lon="9.052129033952951">
        <ele>1040</ele>
        <time>2010-06-13T12:37:01Z</time>
      </trkpt>
      <trkpt lat="45.871231025084853" lon="9.052115958184004">
        <ele>1040</ele>
        <time>2010-06-13T12:37:02Z</time>
      </trkpt>
      <trkpt lat="45.871194982901216" lon="9.052102966234088">
        <ele>1040</ele>
        <time>2010-06-13T12:37:03Z</time>
      </trkpt>
      <trkpt lat="45.87115902453661" lon="9.052076982334256">
        <ele>1040</ele>
        <time>2010-06-13T12:37:04Z</time>
      </trkpt>
      <trkpt lat="45.871122982352972" lon="9.05206399038434">
        <ele>1039</ele>
        <time>2010-06-13T12:37:05Z</time>
      </trkpt>
      <trkpt lat="45.87109599262476" lon="9.052038006484509">
        <ele>1037</ele>
        <time>2010-06-13T12:37:06Z</time>
      </trkpt>
      <trkpt lat="45.871069002896547" lon="9.052025014534593">
        <ele>1036</ele>
        <time>2010-06-13T12:37:07Z</time>
      </trkpt>
      <trkpt lat="45.871050981804729" lon="9.052013028413057">
        <ele>1036</ele>
        <time>2010-06-13T12:37:08Z</time>
      </trkpt>
      <trkpt lat="45.87103296071291" lon="9.051986960694194">
        <ele>1035</ele>
        <time>2010-06-13T12:37:09Z</time>
      </trkpt>
      <trkpt lat="45.871015023440123" lon="9.051960976794362">
        <ele>1034</ele>
        <time>2010-06-13T12:37:10Z</time>
      </trkpt>
      <trkpt lat="45.87098803371191" lon="9.05193499289453">
        <ele>1033</ele>
        <time>2010-06-13T12:37:11Z</time>
      </trkpt>
      <trkpt lat="45.870960960164666" lon="9.051922000944614">
        <ele>1033</ele>
        <time>2010-06-13T12:37:12Z</time>
      </trkpt>
      <trkpt lat="45.87092500180006" lon="9.051909008994699">
        <ele>1033</ele>
        <time>2010-06-13T12:37:13Z</time>
      </trkpt>
      <trkpt lat="45.870898012071848" lon="9.051883025094867">
        <ele>1033</ele>
        <time>2010-06-13T12:37:14Z</time>
      </trkpt>
      <trkpt lat="45.870871022343636" lon="9.051871038973332">
        <ele>1031</ele>
        <time>2010-06-13T12:37:15Z</time>
      </trkpt>
      <trkpt lat="45.870853001251817" lon="9.051857041195035">
        <ele>1031</ele>
        <time>2010-06-13T12:37:16Z</time>
      </trkpt>
      <trkpt lat="45.870834980159998" lon="9.051831979304552">
        <ele>1030</ele>
        <time>2010-06-13T12:37:17Z</time>
      </trkpt>
      <trkpt lat="45.870816959068179" lon="9.051818987354636">
        <ele>1030</ele>
        <time>2010-06-13T12:37:18Z</time>
      </trkpt>
      <trkpt lat="45.870807990431786" lon="9.051818987354636">
        <ele>1030</ele>
        <time>2010-06-13T12:37:19Z</time>
      </trkpt>
      <trkpt lat="45.870799021795392" lon="9.05180599540472">
        <ele>1029</ele>
        <time>2010-06-13T12:37:20Z</time>
      </trkpt>
      <trkpt lat="45.870690979063511" lon="9.051689989864826">
        <ele>1028</ele>
        <time>2010-06-13T12:37:29Z</time>
      </trkpt>
      <trkpt lat="45.870663989335299" lon="9.05167699791491">
        <ele>1027</ele>
        <time>2010-06-13T12:37:30Z</time>
      </trkpt>
      <trkpt lat="45.870636999607086" lon="9.05167699791491">
        <ele>1026</ele>
        <time>2010-06-13T12:37:31Z</time>
      </trkpt>
      <trkpt lat="45.870610009878874" lon="9.051664005964994">
        <ele>1026</ele>
        <time>2010-06-13T12:37:32Z</time>
      </trkpt>
      <trkpt lat="45.870583020150661" lon="9.051664005964994">
        <ele>1026</ele>
        <time>2010-06-13T12:37:33Z</time>
      </trkpt>
      <trkpt lat="45.870573967695236" lon="9.051664005964994">
        <ele>1025</ele>
        <time>2010-06-13T12:37:34Z</time>
      </trkpt>
      <trkpt lat="45.870457040145993" lon="9.051535008475184">
        <ele>1022</ele>
        <time>2010-06-13T12:38:23Z</time>
      </trkpt>
      <trkpt lat="45.870413035154343" lon="9.051496032625437">
        <ele>1022</ele>
        <time>2010-06-13T12:38:24Z</time>
      </trkpt>
      <trkpt lat="45.870368024334311" lon="9.051457978785038">
        <ele>1022</ele>
        <time>2010-06-13T12:38:25Z</time>
      </trkpt>
      <trkpt lat="45.87032301351428" lon="9.05141900293529">
        <ele>1022</ele>
        <time>2010-06-13T12:38:26Z</time>
      </trkpt>
      <trkpt lat="45.870278002694249" lon="9.051380027085543">
        <ele>1022</ele>
        <time>2010-06-13T12:38:27Z</time>
      </trkpt>
      <trkpt lat="45.870232991874218" lon="9.051341973245144">
        <ele>1022</ele>
        <time>2010-06-13T12:38:28Z</time>
      </trkpt>
      <trkpt lat="45.870187981054187" lon="9.051302997395396">
        <ele>1021</ele>
        <time>2010-06-13T12:38:29Z</time>
      </trkpt>
      <trkpt lat="45.870142970234156" lon="9.051264021545649">
        <ele>1021</ele>
        <time>2010-06-13T12:38:30Z</time>
      </trkpt>
      <trkpt lat="45.870088990777731" lon="9.05122596770525">
        <ele>1021</ele>
        <time>2010-06-13T12:38:31Z</time>
      </trkpt>
      <trkpt lat="45.8700439799577" lon="9.051186991855502">
        <ele>1021</ele>
        <time>2010-06-13T12:38:32Z</time>
      </trkpt>
      <trkpt lat="45.869990000501275" lon="9.051148016005755">
        <ele>1021</ele>
        <time>2010-06-13T12:38:33Z</time>
      </trkpt>
      <trkpt lat="45.869944989681244" lon="9.051123037934303">
        <ele>1021</ele>
        <time>2010-06-13T12:38:34Z</time>
      </trkpt>
      <trkpt lat="45.869891010224819" lon="9.051083978265524">
        <ele>1020</ele>
        <time>2010-06-13T12:38:35Z</time>
      </trkpt>
      <trkpt lat="45.869845999404788" lon="9.051057994365692">
        <ele>1019</ele>
        <time>2010-06-13T12:38:36Z</time>
      </trkpt>
      <trkpt lat="45.869810041040182" lon="9.05103201046586">
        <ele>1019</ele>
        <time>2010-06-13T12:38:37Z</time>
      </trkpt>
      <trkpt lat="45.869773998856544" lon="9.051019018515945">
        <ele>1019</ele>
        <time>2010-06-13T12:38:38Z</time>
      </trkpt>
      <trkpt lat="45.869728988036513" lon="9.050993034616113">
        <ele>1019</ele>
        <time>2010-06-13T12:38:39Z</time>
      </trkpt>
      <trkpt lat="45.869693029671907" lon="9.050979958847165">
        <ele>1019</ele>
        <time>2010-06-13T12:38:40Z</time>
      </trkpt>
      <trkpt lat="45.86965698748827" lon="9.050954980775714">
        <ele>1019</ele>
        <time>2010-06-13T12:38:41Z</time>
      </trkpt>
      <trkpt lat="45.869611976668239" lon="9.050953974947333">
        <ele>1019</ele>
        <time>2010-06-13T12:38:42Z</time>
      </trkpt>
      <trkpt lat="45.869576018303633" lon="9.050941988825798">
        <ele>1019</ele>
        <time>2010-06-13T12:38:43Z</time>
      </trkpt>
      <trkpt lat="45.869531007483602" lon="9.050928996875882">
        <ele>1019</ele>
        <time>2010-06-13T12:38:44Z</time>
      </trkpt>
      <trkpt lat="45.86948599666357" lon="9.050928996875882">
        <ele>1019</ele>
        <time>2010-06-13T12:38:45Z</time>
      </trkpt>
      <trkpt lat="45.869450038298965" lon="9.050928996875882">
        <ele>1019</ele>
        <time>2010-06-13T12:38:46Z</time>
      </trkpt>
      <trkpt lat="45.86942296475172" lon="9.050928996875882">
        <ele>1019</ele>
        <time>2010-06-13T12:38:47Z</time>
      </trkpt>
      <trkpt lat="45.869395975023508" lon="9.050928996875882">
        <ele>1017</ele>
        <time>2010-06-13T12:38:48Z</time>
      </trkpt>
      <trkpt lat="45.869368985295296" lon="9.050928996875882">
        <ele>1017</ele>
        <time>2010-06-13T12:38:49Z</time>
      </trkpt>
      <trkpt lat="45.86926999501884" lon="9.050928996875882">
        <ele>1016</ele>
        <time>2010-06-13T12:38:52Z</time>
      </trkpt>
      <trkpt lat="45.869224984198809" lon="9.050927991047502">
        <ele>1017</ele>
        <time>2010-06-13T12:38:53Z</time>
      </trkpt>
      <trkpt lat="45.869189025834203" lon="9.050927991047502">
        <ele>1017</ele>
        <time>2010-06-13T12:38:54Z</time>
      </trkpt>
      <trkpt lat="45.869134962558746" lon="9.050916004925966">
        <ele>1016</ele>
        <time>2010-06-13T12:38:55Z</time>
      </trkpt>
      <trkpt lat="45.869090035557747" lon="9.050916004925966">
        <ele>1015</ele>
        <time>2010-06-13T12:38:56Z</time>
      </trkpt>
      <trkpt lat="45.86903597228229" lon="9.05090200714767">
        <ele>1015</ele>
        <time>2010-06-13T12:38:57Z</time>
      </trkpt>
      <trkpt lat="45.868990961462259" lon="9.05090200714767">
        <ele>1013</ele>
        <time>2010-06-13T12:38:58Z</time>
      </trkpt>
      <trkpt lat="45.86894603446126" lon="9.050889015197754">
        <ele>1013</ele>
        <time>2010-06-13T12:38:59Z</time>
      </trkpt>
      <trkpt lat="45.868909992277622" lon="9.050877029076219">
        <ele>1011</ele>
        <time>2010-06-13T12:39:00Z</time>
      </trkpt>
      <trkpt lat="45.868864981457591" lon="9.050864037126303">
        <ele>1009</ele>
        <time>2010-06-13T12:39:01Z</time>
      </trkpt>
      <trkpt lat="45.86881997063756" lon="9.050837969407439">
        <ele>1009</ele>
        <time>2010-06-13T12:39:02Z</time>
      </trkpt>
      <trkpt lat="45.868774959817529" lon="9.050811985507608">
        <ele>1009</ele>
        <time>2010-06-13T12:39:03Z</time>
      </trkpt>
      <trkpt lat="45.868730032816529" lon="9.050786001607776">
        <ele>1008</ele>
        <time>2010-06-13T12:39:04Z</time>
      </trkpt>
      <trkpt lat="45.868685021996498" lon="9.050761023536325">
        <ele>1008</ele>
        <time>2010-06-13T12:39:05Z</time>
      </trkpt>
      <trkpt lat="45.868640011176467" lon="9.050721963867545">
        <ele>1008</ele>
        <time>2010-06-13T12:39:06Z</time>
      </trkpt>
      <trkpt lat="45.868603968992829" lon="9.050695979967713">
        <ele>1006</ele>
        <time>2010-06-13T12:39:07Z</time>
      </trkpt>
      <trkpt lat="45.868558958172798" lon="9.050657004117966">
        <ele>1004</ele>
        <time>2010-06-13T12:39:08Z</time>
      </trkpt>
      <trkpt lat="45.868514031171799" lon="9.050619034096599">
        <ele>1003</ele>
        <time>2010-06-13T12:39:09Z</time>
      </trkpt>
      <trkpt lat="45.868469020351768" lon="9.050566982477903">
        <ele>1003</ele>
        <time>2010-06-13T12:39:10Z</time>
      </trkpt>
      <trkpt lat="45.868424009531736" lon="9.05051602050662">
        <ele>1003</ele>
        <time>2010-06-13T12:39:11Z</time>
      </trkpt>
      <trkpt lat="45.868370030075312" lon="9.050463968887925">
        <ele>1002</ele>
        <time>2010-06-13T12:39:12Z</time>
      </trkpt>
      <trkpt lat="45.868315966799855" lon="9.050412001088262">
        <ele>1001</ele>
        <time>2010-06-13T12:39:13Z</time>
      </trkpt>
      <trkpt lat="45.868253018707037" lon="9.050374031066895">
        <ele>999</ele>
        <time>2010-06-13T12:39:14Z</time>
      </trkpt>
      <trkpt lat="45.868208007887006" lon="9.050347963348031">
        <ele>999</ele>
        <time>2010-06-13T12:39:15Z</time>
      </trkpt>
      <trkpt lat="45.868171965703368" lon="9.050321979448199">
        <ele>998</ele>
        <time>2010-06-13T12:39:16Z</time>
      </trkpt>
      <trkpt lat="45.868144975975156" lon="9.050295995548368">
        <ele>998</ele>
        <time>2010-06-13T12:39:17Z</time>
      </trkpt>
      <trkpt lat="45.868117986246943" lon="9.050283003598452">
        <ele>998</ele>
        <time>2010-06-13T12:39:18Z</time>
      </trkpt>
      <trkpt lat="45.868099965155125" lon="9.05025701969862">
        <ele>997</ele>
        <time>2010-06-13T12:39:19Z</time>
      </trkpt>
      <trkpt lat="45.868090996518731" lon="9.050244027748704">
        <ele>997</ele>
        <time>2010-06-13T12:39:20Z</time>
      </trkpt>
      <trkpt lat="45.868055038154125" lon="9.050089968368411">
        <ele>997</ele>
        <time>2010-06-13T12:41:51Z</time>
      </trkpt>
      <trkpt lat="45.8680459856987" lon="9.050076976418495">
        <ele>997</ele>
        <time>2010-06-13T12:41:52Z</time>
      </trkpt>
      <trkpt lat="45.867983037605882" lon="9.049909003078938">
        <ele>995</ele>
        <time>2010-06-13T12:42:04Z</time>
      </trkpt>
      <trkpt lat="45.867955964058638" lon="9.049858041107655">
        <ele>995</ele>
        <time>2010-06-13T12:42:05Z</time>
      </trkpt>
      <trkpt lat="45.867938026785851" lon="9.049805989488959">
        <ele>992</ele>
        <time>2010-06-13T12:42:06Z</time>
      </trkpt>
      <trkpt lat="45.867911037057638" lon="9.049768019467592">
        <ele>992</ele>
        <time>2010-06-13T12:42:07Z</time>
      </trkpt>
      <trkpt lat="45.867883963510394" lon="9.049715967848897">
        <ele>992</ele>
        <time>2010-06-13T12:42:08Z</time>
      </trkpt>
      <trkpt lat="45.867856973782182" lon="9.049665005877614">
        <ele>993</ele>
        <time>2010-06-13T12:42:09Z</time>
      </trkpt>
      <trkpt lat="45.867829984053969" lon="9.049613038077951">
        <ele>993</ele>
        <time>2010-06-13T12:42:10Z</time>
      </trkpt>
      <trkpt lat="45.867794025689363" lon="9.04954900033772">
        <ele>992</ele>
        <time>2010-06-13T12:42:11Z</time>
      </trkpt>
      <trkpt lat="45.867767035961151" lon="9.049497032538056">
        <ele>992</ele>
        <time>2010-06-13T12:42:12Z</time>
      </trkpt>
      <trkpt lat="45.867730993777514" lon="9.049432994797826">
        <ele>991</ele>
        <time>2010-06-13T12:42:13Z</time>
      </trkpt>
      <trkpt lat="45.867695035412908" lon="9.049368035048246">
        <ele>991</ele>
        <time>2010-06-13T12:42:14Z</time>
      </trkpt>
      <trkpt lat="45.86765899322927" lon="9.049303997308016">
        <ele>990</ele>
        <time>2010-06-13T12:42:15Z</time>
      </trkpt>
      <trkpt lat="45.867623034864664" lon="9.049239037558436">
        <ele>989</ele>
        <time>2010-06-13T12:42:16Z</time>
      </trkpt>
      <trkpt lat="45.867586992681026" lon="9.049174999818206">
        <ele>988</ele>
        <time>2010-06-13T12:42:17Z</time>
      </trkpt>
      <trkpt lat="45.867560002952814" lon="9.049123032018542">
        <ele>987</ele>
        <time>2010-06-13T12:42:18Z</time>
      </trkpt>
      <trkpt lat="45.867523960769176" lon="9.049071986228228">
        <ele>986</ele>
        <time>2010-06-13T12:42:19Z</time>
      </trkpt>
      <trkpt lat="45.867479033768177" lon="9.049046002328396">
        <ele>985</ele>
        <time>2010-06-13T12:42:20Z</time>
      </trkpt>
      <trkpt lat="45.867451960220933" lon="9.04903301037848">
        <ele>985</ele>
        <time>2010-06-13T12:42:21Z</time>
      </trkpt>
      <trkpt lat="45.867416001856327" lon="9.049020018428564">
        <ele>985</ele>
        <time>2010-06-13T12:42:22Z</time>
      </trkpt>
      <trkpt lat="45.867389012128115" lon="9.04903301037848">
        <ele>984</ele>
        <time>2010-06-13T12:42:23Z</time>
      </trkpt>
      <trkpt lat="45.867370991036296" lon="9.049046002328396">
        <ele>984</ele>
        <time>2010-06-13T12:42:24Z</time>
      </trkpt>
      <trkpt lat="45.867344001308084" lon="9.049070980399847">
        <ele>982</ele>
        <time>2010-06-13T12:42:25Z</time>
      </trkpt>
      <trkpt lat="45.867307959124446" lon="9.049083972349763">
        <ele>982</ele>
        <time>2010-06-13T12:42:26Z</time>
      </trkpt>
      <trkpt lat="45.86727200075984" lon="9.049096964299679">
        <ele>982</ele>
        <time>2010-06-13T12:42:27Z</time>
      </trkpt>
      <trkpt lat="45.867235958576202" lon="9.049110040068626">
        <ele>981</ele>
        <time>2010-06-13T12:42:28Z</time>
      </trkpt>
      <trkpt lat="45.867146020755172" lon="9.049110040068626">
        <ele>981</ele>
        <time>2010-06-13T12:42:30Z</time>
      </trkpt>
      <trkpt lat="45.867101009935141" lon="9.049123032018542">
        <ele>979</ele>
        <time>2010-06-13T12:42:31Z</time>
      </trkpt>
      <trkpt lat="45.867055999115109" lon="9.049136023968458">
        <ele>979</ele>
        <time>2010-06-13T12:42:32Z</time>
      </trkpt>
      <trkpt lat="45.867010988295078" lon="9.049149015918374">
        <ele>977</ele>
        <time>2010-06-13T12:42:33Z</time>
      </trkpt>
      <trkpt lat="45.866965977475047" lon="9.049173993989825">
        <ele>976</ele>
        <time>2010-06-13T12:42:34Z</time>
      </trkpt>
      <trkpt lat="45.866911998018622" lon="9.049199977889657">
        <ele>977</ele>
        <time>2010-06-13T12:42:35Z</time>
      </trkpt>
      <trkpt lat="45.866858018562198" lon="9.049239037558436">
        <ele>977</ele>
        <time>2010-06-13T12:42:36Z</time>
      </trkpt>
      <trkpt lat="45.866813007742167" lon="9.049264015629888">
        <ele>976</ele>
        <time>2010-06-13T12:42:37Z</time>
      </trkpt>
      <trkpt lat="45.866749975830317" lon="9.049264015629888">
        <ele>974</ele>
        <time>2010-06-13T12:42:38Z</time>
      </trkpt>
      <trkpt lat="45.866687027737498" lon="9.049277007579804">
        <ele>971</ele>
        <time>2010-06-13T12:42:39Z</time>
      </trkpt>
      <trkpt lat="45.866632964462042" lon="9.049264015629888">
        <ele>971</ele>
        <time>2010-06-13T12:42:40Z</time>
      </trkpt>
      <trkpt lat="45.866578985005617" lon="9.049264015629888">
        <ele>970</ele>
        <time>2010-06-13T12:42:41Z</time>
      </trkpt>
      <trkpt lat="45.866525005549192" lon="9.049251023679972">
        <ele>970</ele>
        <time>2010-06-13T12:42:42Z</time>
      </trkpt>
      <trkpt lat="45.866471026092768" lon="9.049238031730056">
        <ele>970</ele>
        <time>2010-06-13T12:42:43Z</time>
      </trkpt>
      <trkpt lat="45.866426015272737" lon="9.04922503978014">
        <ele>970</ele>
        <time>2010-06-13T12:42:44Z</time>
      </trkpt>
      <trkpt lat="45.866372035816312" lon="9.049198972061276">
        <ele>969</ele>
        <time>2010-06-13T12:42:45Z</time>
      </trkpt>
      <trkpt lat="45.866335993632674" lon="9.049186985939741">
        <ele>968</ele>
        <time>2010-06-13T12:42:46Z</time>
      </trkpt>
      <trkpt lat="45.866300035268068" lon="9.049161002039909">
        <ele>966</ele>
        <time>2010-06-13T12:42:47Z</time>
      </trkpt>
      <trkpt lat="45.866255024448037" lon="9.049122026190162">
        <ele>965</ele>
        <time>2010-06-13T12:42:48Z</time>
      </trkpt>
      <trkpt lat="45.866210013628006" lon="9.049095958471298">
        <ele>964</ele>
        <time>2010-06-13T12:42:49Z</time>
      </trkpt>
      <trkpt lat="45.866165002807975" lon="9.049070980399847">
        <ele>964</ele>
        <time>2010-06-13T12:42:50Z</time>
      </trkpt>
      <trkpt lat="45.866128960624337" lon="9.049044996500015">
        <ele>964</ele>
        <time>2010-06-13T12:42:51Z</time>
      </trkpt>
      <trkpt lat="45.866084033623338" lon="9.049019012600184">
        <ele>964</ele>
        <time>2010-06-13T12:42:52Z</time>
      </trkpt>
      <trkpt lat="45.866039022803307" lon="9.048993028700352">
        <ele>963</ele>
        <time>2010-06-13T12:42:53Z</time>
      </trkpt>
      <trkpt lat="45.866002980619669" lon="9.048966960981488">
        <ele>961</ele>
        <time>2010-06-13T12:42:54Z</time>
      </trkpt>
      <trkpt lat="45.865957969799638" lon="9.048940977081657">
        <ele>959</ele>
        <time>2010-06-13T12:42:55Z</time>
      </trkpt>
      <trkpt lat="45.865912958979607" lon="9.048903007060289">
        <ele>958</ele>
        <time>2010-06-13T12:42:56Z</time>
      </trkpt>
      <trkpt lat="45.865877000615001" lon="9.048877023160458">
        <ele>958</ele>
        <time>2010-06-13T12:42:57Z</time>
      </trkpt>
      <trkpt lat="45.865840958431363" lon="9.048837963491678">
        <ele>957</ele>
        <time>2010-06-13T12:42:58Z</time>
      </trkpt>
      <trkpt lat="45.865805000066757" lon="9.048799993470311">
        <ele>957</ele>
        <time>2010-06-13T12:42:59Z</time>
      </trkpt>
      <trkpt lat="45.865759989246726" lon="9.048748025670648">
        <ele>955</ele>
        <time>2010-06-13T12:43:00Z</time>
      </trkpt>
      <trkpt lat="45.865714978426695" lon="9.048695974051952">
        <ele>952</ele>
        <time>2010-06-13T12:43:01Z</time>
      </trkpt>
      <trkpt lat="45.865669967606664" lon="9.048645012080669">
        <ele>952</ele>
        <time>2010-06-13T12:43:02Z</time>
      </trkpt>
      <trkpt lat="45.865615988150239" lon="9.048580974340439">
        <ele>952</ele>
        <time>2010-06-13T12:43:03Z</time>
      </trkpt>
      <trkpt lat="45.865570977330208" lon="9.048516014590859">
        <ele>952</ele>
        <time>2010-06-13T12:43:04Z</time>
      </trkpt>
      <trkpt lat="45.865525966510177" lon="9.048450971022248">
        <ele>952</ele>
        <time>2010-06-13T12:43:05Z</time>
      </trkpt>
      <trkpt lat="45.865471987053752" lon="9.048374025151134">
        <ele>952</ele>
        <time>2010-06-13T12:43:06Z</time>
      </trkpt>
      <trkpt lat="45.865426976233721" lon="9.048309987410903">
        <ele>951</ele>
        <time>2010-06-13T12:43:07Z</time>
      </trkpt>
      <trkpt lat="45.865374002605677" lon="9.048245027661324">
        <ele>950</ele>
        <time>2010-06-13T12:43:08Z</time>
      </trkpt>
      <trkpt lat="45.865319017320871" lon="9.048180989921093">
        <ele>949</ele>
        <time>2010-06-13T12:43:09Z</time>
      </trkpt>
      <trkpt lat="45.865265959873796" lon="9.048103038221598">
        <ele>948</ele>
        <time>2010-06-13T12:43:10Z</time>
      </trkpt>
      <trkpt lat="45.865221032872796" lon="9.048039000481367">
        <ele>946</ele>
        <time>2010-06-13T12:43:11Z</time>
      </trkpt>
      <trkpt lat="45.86516696959734" lon="9.047961970791221">
        <ele>945</ele>
        <time>2010-06-13T12:43:12Z</time>
      </trkpt>
      <trkpt lat="45.865121958777308" lon="9.047897011041641">
        <ele>943</ele>
        <time>2010-06-13T12:43:13Z</time>
      </trkpt>
      <trkpt lat="45.865086000412703" lon="9.047832973301411">
        <ele>943</ele>
        <time>2010-06-13T12:43:14Z</time>
      </trkpt>
      <trkpt lat="45.865049958229065" lon="9.047755021601915">
        <ele>942</ele>
        <time>2010-06-13T12:43:15Z</time>
      </trkpt>
      <trkpt lat="45.865013999864459" lon="9.047690983861685">
        <ele>940</ele>
        <time>2010-06-13T12:43:16Z</time>
      </trkpt>
      <trkpt lat="45.864968989044428" lon="9.04761403799057">
        <ele>940</ele>
        <time>2010-06-13T12:43:17Z</time>
      </trkpt>
      <trkpt lat="45.864923978224397" lon="9.047536002472043">
        <ele>939</ele>
        <time>2010-06-13T12:43:18Z</time>
      </trkpt>
      <trkpt lat="45.864869998767972" lon="9.04748504050076">
        <ele>939</ele>
        <time>2010-06-13T12:43:19Z</time>
      </trkpt>
      <trkpt lat="45.864816019311547" lon="9.047419996932149">
        <ele>937</ele>
        <time>2010-06-13T12:43:20Z</time>
      </trkpt>
      <trkpt lat="45.864771008491516" lon="9.047369034960866">
        <ele>935</ele>
        <time>2010-06-13T12:43:21Z</time>
      </trkpt>
      <trkpt lat="45.864725997671485" lon="9.047316983342171">
        <ele>935</ele>
        <time>2010-06-13T12:43:22Z</time>
      </trkpt>
      <trkpt lat="45.864690039306879" lon="9.047278007492423">
        <ele>934</ele>
        <time>2010-06-13T12:43:23Z</time>
      </trkpt>
      <trkpt lat="45.864635976031423" lon="9.047252023592591">
        <ele>934</ele>
        <time>2010-06-13T12:43:24Z</time>
      </trkpt>
      <trkpt lat="45.864581996574998" lon="9.047200977802277">
        <ele>932</ele>
        <time>2010-06-13T12:43:25Z</time>
      </trkpt>
      <trkpt lat="45.864528017118573" lon="9.047162001952529">
        <ele>929</ele>
        <time>2010-06-13T12:43:26Z</time>
      </trkpt>
      <trkpt lat="45.864474037662148" lon="9.047124031931162">
        <ele>929</ele>
        <time>2010-06-13T12:43:27Z</time>
      </trkpt>
      <trkpt lat="45.864429026842117" lon="9.047084972262383">
        <ele>929</ele>
        <time>2010-06-13T12:43:28Z</time>
      </trkpt>
      <trkpt lat="45.864384016022086" lon="9.047021018341184">
        <ele>927</ele>
        <time>2010-06-13T12:43:29Z</time>
      </trkpt>
      <trkpt lat="45.864339005202055" lon="9.046968966722488">
        <ele>927</ele>
        <time>2010-06-13T12:43:30Z</time>
      </trkpt>
      <trkpt lat="45.864312015473843" lon="9.046916998922825">
        <ele>925</ele>
        <time>2010-06-13T12:43:31Z</time>
      </trkpt>
      <trkpt lat="45.864275973290205" lon="9.046839969232678">
        <ele>925</ele>
        <time>2010-06-13T12:43:32Z</time>
      </trkpt>
      <trkpt lat="45.864240014925599" lon="9.04677601531148">
        <ele>925</ele>
        <time>2010-06-13T12:43:33Z</time>
      </trkpt>
      <trkpt lat="45.864195004105568" lon="9.046710971742868">
        <ele>925</ele>
        <time>2010-06-13T12:43:34Z</time>
      </trkpt>
      <trkpt lat="45.864149993285537" lon="9.046634025871754">
        <ele>925</ele>
        <time>2010-06-13T12:43:35Z</time>
      </trkpt>
      <trkpt lat="45.864096013829112" lon="9.046555990353227">
        <ele>925</ele>
        <time>2010-06-13T12:43:36Z</time>
      </trkpt>
      <trkpt lat="45.864051003009081" lon="9.046492036432028">
        <ele>925</ele>
        <time>2010-06-13T12:43:37Z</time>
      </trkpt>
      <trkpt lat="45.86400599218905" lon="9.046415006741881">
        <ele>925</ele>
        <time>2010-06-13T12:43:38Z</time>
      </trkpt>
      <trkpt lat="45.863952012732625" lon="9.046336971223354">
        <ele>925</ele>
        <time>2010-06-13T12:43:39Z</time>
      </trkpt>
      <trkpt lat="45.863915970548987" lon="9.046273017302156">
        <ele>925</ele>
        <time>2010-06-13T12:43:40Z</time>
      </trkpt>
      <trkpt lat="45.863880012184381" lon="9.046195987612009">
        <ele>925</ele>
        <time>2010-06-13T12:43:41Z</time>
      </trkpt>
      <trkpt lat="45.86383500136435" lon="9.046104960143566">
        <ele>925</ele>
        <time>2010-06-13T12:43:42Z</time>
      </trkpt>
      <trkpt lat="45.863798959180713" lon="9.046028014272451">
        <ele>903</ele>
        <time>2010-06-13T12:43:43Z</time>
      </trkpt>
      <trkpt lat="45.863754032179713" lon="9.045950984582305">
        <ele>903</ele>
        <time>2010-06-13T12:43:44Z</time>
      </trkpt>
      <trkpt lat="45.863717989996076" lon="9.045846965163946">
        <ele>903</ele>
        <time>2010-06-13T12:43:45Z</time>
      </trkpt>
      <trkpt lat="45.86368203163147" lon="9.045757027342916">
        <ele>903</ele>
        <time>2010-06-13T12:43:46Z</time>
      </trkpt>
      <trkpt lat="45.863637020811439" lon="9.045667005702853">
        <ele>903</ele>
        <time>2010-06-13T12:43:47Z</time>
      </trkpt>
      <trkpt lat="45.863600978627801" lon="9.045563992112875">
        <ele>904</ele>
        <time>2010-06-13T12:43:48Z</time>
      </trkpt>
      <trkpt lat="45.863573988899589" lon="9.045486962422729">
        <ele>904</ele>
        <time>2010-06-13T12:43:49Z</time>
      </trkpt>
      <trkpt lat="45.86355697363615" lon="9.045409010723233">
        <ele>902</ele>
        <time>2010-06-13T12:43:50Z</time>
      </trkpt>
      <trkpt lat="45.863546999171376" lon="9.045331981033087">
        <ele>900</ele>
        <time>2010-06-13T12:43:51Z</time>
      </trkpt>
      <trkpt lat="45.863539036363363" lon="9.045241959393024">
        <ele>899</ele>
        <time>2010-06-13T12:43:52Z</time>
      </trkpt>
      <trkpt lat="45.863539036363363" lon="9.04516501352191">
        <ele>898</ele>
        <time>2010-06-13T12:43:53Z</time>
      </trkpt>
      <trkpt lat="45.863529983907938" lon="9.045061999931932">
        <ele>898</ele>
        <time>2010-06-13T12:43:54Z</time>
      </trkpt>
      <trkpt lat="45.863511962816119" lon="9.044958986341953">
        <ele>897</ele>
        <time>2010-06-13T12:43:55Z</time>
      </trkpt>
      <trkpt lat="45.863502994179726" lon="9.04486795887351">
        <ele>896</ele>
        <time>2010-06-13T12:43:56Z</time>
      </trkpt>
      <trkpt lat="45.863494025543332" lon="9.044765029102564">
        <ele>895</ele>
        <time>2010-06-13T12:43:57Z</time>
      </trkpt>
      <trkpt lat="45.863484973087907" lon="9.044687999412417">
        <ele>895</ele>
        <time>2010-06-13T12:43:58Z</time>
      </trkpt>
      <trkpt lat="45.86346703581512" lon="9.044610969722271">
        <ele>895</ele>
        <time>2010-06-13T12:43:59Z</time>
      </trkpt>
      <trkpt lat="45.863449014723301" lon="9.044559001922607">
        <ele>893</ele>
        <time>2010-06-13T12:44:00Z</time>
      </trkpt>
      <trkpt lat="45.863430993631482" lon="9.044507034122944">
        <ele>889</ele>
        <time>2010-06-13T12:44:01Z</time>
      </trkpt>
      <trkpt lat="45.86340400390327" lon="9.044481972232461">
        <ele>889</ele>
        <time>2010-06-13T12:44:02Z</time>
      </trkpt>
      <trkpt lat="45.863367961719632" lon="9.044455988332629">
        <ele>887</ele>
        <time>2010-06-13T12:44:03Z</time>
      </trkpt>
      <trkpt lat="45.86334097199142" lon="9.044430004432797">
        <ele>887</ele>
        <time>2010-06-13T12:44:04Z</time>
      </trkpt>
      <trkpt lat="45.863313982263207" lon="9.044404020532966">
        <ele>886</ele>
        <time>2010-06-13T12:44:05Z</time>
      </trkpt>
      <trkpt lat="45.863295961171389" lon="9.044378958642483">
        <ele>885</ele>
        <time>2010-06-13T12:44:06Z</time>
      </trkpt>
      <trkpt lat="45.863286992534995" lon="9.044365966692567">
        <ele>885</ele>
        <time>2010-06-13T12:44:07Z</time>
      </trkpt>
      <trkpt lat="45.863278023898602" lon="9.044352974742651">
        <ele>885</ele>
        <time>2010-06-13T12:44:08Z</time>
      </trkpt>
      <trkpt lat="45.863214991986752" lon="9.044210985302925">
        <ele>884</ele>
        <time>2010-06-13T12:44:23Z</time>
      </trkpt>
      <trkpt lat="45.863196970894933" lon="9.044159017503262">
        <ele>884</ele>
        <time>2010-06-13T12:44:24Z</time>
      </trkpt>
      <trkpt lat="45.863188002258539" lon="9.044107971712947">
        <ele>882</ele>
        <time>2010-06-13T12:44:25Z</time>
      </trkpt>
      <trkpt lat="45.863179033622146" lon="9.044044017791748">
        <ele>881</ele>
        <time>2010-06-13T12:44:26Z</time>
      </trkpt>
      <trkpt lat="45.86316998116672" lon="9.043965982273221">
        <ele>880</ele>
        <time>2010-06-13T12:44:27Z</time>
      </trkpt>
      <trkpt lat="45.863151960074902" lon="9.043889036402106">
        <ele>879</ele>
        <time>2010-06-13T12:44:28Z</time>
      </trkpt>
      <trkpt lat="45.863134022802114" lon="9.043786022812128">
        <ele>880</ele>
        <time>2010-06-13T12:44:29Z</time>
      </trkpt>
      <trkpt lat="45.863107033073902" lon="9.04368300922215">
        <ele>879</ele>
        <time>2010-06-13T12:44:30Z</time>
      </trkpt>
      <trkpt lat="45.863070990890265" lon="9.043591981753707">
        <ele>878</ele>
        <time>2010-06-13T12:44:31Z</time>
      </trkpt>
      <trkpt lat="45.863044001162052" lon="9.043488968163729">
        <ele>878</ele>
        <time>2010-06-13T12:44:32Z</time>
      </trkpt>
      <trkpt lat="45.86301701143384" lon="9.043373968452215">
        <ele>877</ele>
        <time>2010-06-13T12:44:33Z</time>
      </trkpt>
      <trkpt lat="45.862998990342021" lon="9.043271038681269">
        <ele>876</ele>
        <time>2010-06-13T12:44:34Z</time>
      </trkpt>
      <trkpt lat="45.862980969250202" lon="9.04316701926291">
        <ele>875</ele>
        <time>2010-06-13T12:44:35Z</time>
      </trkpt>
      <trkpt lat="45.862972000613809" lon="9.043089989572763">
        <ele>875</ele>
        <time>2010-06-13T12:44:36Z</time>
      </trkpt>
      <trkpt lat="45.862963031977415" lon="9.043039027601481">
        <ele>875</ele>
        <time>2010-06-13T12:44:37Z</time>
      </trkpt>
      <trkpt lat="45.86295397952199" lon="9.043012959882617">
        <ele>875</ele>
        <time>2010-06-13T12:44:38Z</time>
      </trkpt>
      <trkpt lat="45.862946016713977" lon="9.042986975982785">
        <ele>875</ele>
        <time>2010-06-13T12:44:39Z</time>
      </trkpt>
      <trkpt lat="45.862946016713977" lon="9.042960992082954">
        <ele>875</ele>
        <time>2010-06-13T12:44:40Z</time>
      </trkpt>
      <trkpt lat="45.862935958430171" lon="9.042936014011502">
        <ele>875</ele>
        <time>2010-06-13T12:44:41Z</time>
      </trkpt>
      <trkpt lat="45.862935958430171" lon="9.042897038161755">
        <ele>875</ele>
        <time>2010-06-13T12:44:42Z</time>
      </trkpt>
      <trkpt lat="45.862946016713977" lon="9.042857978492975">
        <ele>875</ele>
        <time>2010-06-13T12:44:43Z</time>
      </trkpt>
      <trkpt lat="45.86295397952199" lon="9.042831994593144">
        <ele>875</ele>
        <time>2010-06-13T12:44:44Z</time>
      </trkpt>
      <trkpt lat="45.86295397952199" lon="9.042807016521692">
        <ele>874</ele>
        <time>2010-06-13T12:44:45Z</time>
      </trkpt>
      <trkpt lat="45.862946016713977" lon="9.042768040671945">
        <ele>874</ele>
        <time>2010-06-13T12:44:47Z</time>
      </trkpt>
      <trkpt lat="45.862926989793777" lon="9.042754964902997">
        <ele>873</ele>
        <time>2010-06-13T12:44:48Z</time>
      </trkpt>
      <trkpt lat="45.862908968701959" lon="9.042728981003165">
        <ele>873</ele>
        <time>2010-06-13T12:44:49Z</time>
      </trkpt>
      <trkpt lat="45.862901005893946" lon="9.042691010981798">
        <ele>872</ele>
        <time>2010-06-13T12:44:50Z</time>
      </trkpt>
      <trkpt lat="45.862881978973746" lon="9.042652035132051">
        <ele>872</ele>
        <time>2010-06-13T12:44:51Z</time>
      </trkpt>
      <trkpt lat="45.862864963710308" lon="9.042600989341736">
        <ele>872</ele>
        <time>2010-06-13T12:44:52Z</time>
      </trkpt>
      <trkpt lat="45.862836968153715" lon="9.042562013491988">
        <ele>872</ele>
        <time>2010-06-13T12:44:53Z</time>
      </trkpt>
      <trkpt lat="45.862820036709309" lon="9.042509961873293">
        <ele>872</ele>
        <time>2010-06-13T12:44:54Z</time>
      </trkpt>
      <trkpt lat="45.862792041152716" lon="9.04245899990201">
        <ele>871</ele>
        <time>2010-06-13T12:44:55Z</time>
      </trkpt>
      <trkpt lat="45.862775025889277" lon="9.042407032102346">
        <ele>871</ele>
        <time>2010-06-13T12:44:56Z</time>
      </trkpt>
      <trkpt lat="45.862757004797459" lon="9.042355986312032">
        <ele>870</ele>
        <time>2010-06-13T12:44:57Z</time>
      </trkpt>
      <trkpt lat="45.862748036161065" lon="9.042304018512368">
        <ele>870</ele>
        <time>2010-06-13T12:44:58Z</time>
      </trkpt>
      <trkpt lat="45.86273898370564" lon="9.042265964671969">
        <ele>870</ele>
        <time>2010-06-13T12:44:59Z</time>
      </trkpt>
      <trkpt lat="45.862730015069246" lon="9.042226988822222">
        <ele>869</ele>
        <time>2010-06-13T12:45:00Z</time>
      </trkpt>
      <trkpt lat="45.862730015069246" lon="9.042188012972474">
        <ele>869</ele>
        <time>2010-06-13T12:45:01Z</time>
      </trkpt>
      <trkpt lat="45.86273898370564" lon="9.042097991332412">
        <ele>868</ele>
        <time>2010-06-13T12:45:03Z</time>
      </trkpt>
      <trkpt lat="45.86273898370564" lon="9.041994977742434">
        <ele>869</ele>
        <time>2010-06-13T12:45:05Z</time>
      </trkpt>
      <trkpt lat="45.862730015069246" lon="9.041931023821235">
        <ele>868</ele>
        <time>2010-06-13T12:45:06Z</time>
      </trkpt>
      <trkpt lat="45.862730015069246" lon="9.041878972202539">
        <ele>868</ele>
        <time>2010-06-13T12:45:07Z</time>
      </trkpt>
      <trkpt lat="45.862720962613821" lon="9.041839996352792">
        <ele>868</ele>
        <time>2010-06-13T12:45:08Z</time>
      </trkpt>
      <trkpt lat="45.862711993977427" lon="9.041789034381509">
        <ele>868</ele>
        <time>2010-06-13T12:45:09Z</time>
      </trkpt>
      <trkpt lat="45.862711993977427" lon="9.041736982762814">
        <ele>868</ele>
        <time>2010-06-13T12:45:10Z</time>
      </trkpt>
      <trkpt lat="45.862693972885609" lon="9.041673028841615">
        <ele>867</ele>
        <time>2010-06-13T12:45:11Z</time>
      </trkpt>
      <trkpt lat="45.862685004249215" lon="9.04162097722292">
        <ele>867</ele>
        <time>2010-06-13T12:45:12Z</time>
      </trkpt>
      <trkpt lat="45.862666983157396" lon="9.041557023301721">
        <ele>867</ele>
        <time>2010-06-13T12:45:13Z</time>
      </trkpt>
      <trkpt lat="45.862648962065578" lon="9.041504971683025">
        <ele>868</ele>
        <time>2010-06-13T12:45:14Z</time>
      </trkpt>
      <trkpt lat="45.86263102479279" lon="9.041467001661658">
        <ele>867</ele>
        <time>2010-06-13T12:45:15Z</time>
      </trkpt>
      <trkpt lat="45.862621972337365" lon="9.041428025811911">
        <ele>867</ele>
        <time>2010-06-13T12:45:16Z</time>
      </trkpt>
      <trkpt lat="45.862604035064578" lon="9.041388966143131">
        <ele>866</ele>
        <time>2010-06-13T12:45:17Z</time>
      </trkpt>
      <trkpt lat="45.862586013972759" lon="9.041350996121764">
        <ele>866</ele>
        <time>2010-06-13T12:45:18Z</time>
      </trkpt>
      <trkpt lat="45.86256799288094" lon="9.041338004171848">
        <ele>865</ele>
        <time>2010-06-13T12:45:19Z</time>
      </trkpt>
      <trkpt lat="45.862549971789122" lon="9.041312020272017">
        <ele>864</ele>
        <time>2010-06-13T12:45:20Z</time>
      </trkpt>
      <trkpt lat="45.862522982060909" lon="9.041272960603237">
        <ele>864</ele>
        <time>2010-06-13T12:45:21Z</time>
      </trkpt>
      <trkpt lat="45.862514013424516" lon="9.04123499058187">
        <ele>864</ele>
        <time>2010-06-13T12:45:22Z</time>
      </trkpt>
      <trkpt lat="45.862487023696303" lon="9.041196014732122">
        <ele>864</ele>
        <time>2010-06-13T12:45:23Z</time>
      </trkpt>
      <trkpt lat="45.862460033968091" lon="9.041170030832291">
        <ele>862</ele>
        <time>2010-06-13T12:45:24Z</time>
      </trkpt>
      <trkpt lat="45.862432960420847" lon="9.041157038882375">
        <ele>862</ele>
        <time>2010-06-13T12:45:25Z</time>
      </trkpt>
      <trkpt lat="45.86241502314806" lon="9.041131976991892">
        <ele>861</ele>
        <time>2010-06-13T12:45:26Z</time>
      </trkpt>
      <trkpt lat="45.862405970692635" lon="9.041093001142144">
        <ele>861</ele>
        <time>2010-06-13T12:45:27Z</time>
      </trkpt>
      <trkpt lat="45.862397002056241" lon="9.041067017242312">
        <ele>861</ele>
        <time>2010-06-13T12:45:28Z</time>
      </trkpt>
      <trkpt lat="45.862378980964422" lon="9.041028963401914">
        <ele>860</ele>
        <time>2010-06-13T12:45:29Z</time>
      </trkpt>
      <trkpt lat="45.862360959872603" lon="9.041002979502082">
        <ele>859</ele>
        <time>2010-06-13T12:45:30Z</time>
      </trkpt>
      <trkpt lat="45.862343022599816" lon="9.041002979502082">
        <ele>858</ele>
        <time>2010-06-13T12:45:31Z</time>
      </trkpt>
      <trkpt lat="45.862316032871604" lon="9.04097699560225">
        <ele>858</ele>
        <time>2010-06-13T12:45:32Z</time>
      </trkpt>
      <trkpt lat="45.862298011779785" lon="9.040964003652334">
        <ele>857</ele>
        <time>2010-06-13T12:45:33Z</time>
      </trkpt>
      <trkpt lat="45.862279990687966" lon="9.040964003652334">
        <ele>857</ele>
        <time>2010-06-13T12:45:34Z</time>
      </trkpt>
      <trkpt lat="45.862261969596148" lon="9.040964003652334">
        <ele>857</ele>
        <time>2010-06-13T12:45:35Z</time>
      </trkpt>
      <trkpt lat="45.862234979867935" lon="9.040964003652334">
        <ele>857</ele>
        <time>2010-06-13T12:45:36Z</time>
      </trkpt>
      <trkpt lat="45.862216958776116" lon="9.040938019752502">
        <ele>856</ele>
        <time>2010-06-13T12:45:37Z</time>
      </trkpt>
      <trkpt lat="45.862207990139723" lon="9.040912035852671">
        <ele>855</ele>
        <time>2010-06-13T12:45:38Z</time>
      </trkpt>
      <trkpt lat="45.862189969047904" lon="9.040886973962188">
        <ele>854</ele>
        <time>2010-06-13T12:45:39Z</time>
      </trkpt>
      <trkpt lat="45.862162979319692" lon="9.040873982012272">
        <ele>853</ele>
        <time>2010-06-13T12:45:40Z</time>
      </trkpt>
      <trkpt lat="45.862135989591479" lon="9.040873982012272">
        <ele>852</ele>
        <time>2010-06-13T12:45:41Z</time>
      </trkpt>
      <trkpt lat="45.86211796849966" lon="9.040860990062356">
        <ele>852</ele>
        <time>2010-06-13T12:45:42Z</time>
      </trkpt>
      <trkpt lat="45.862090978771448" lon="9.040860990062356">
        <ele>851</ele>
        <time>2010-06-13T12:45:43Z</time>
      </trkpt>
      <trkpt lat="45.862073041498661" lon="9.04084799811244">
        <ele>849</ele>
        <time>2010-06-13T12:45:44Z</time>
      </trkpt>
      <trkpt lat="45.862045967951417" lon="9.040835006162524">
        <ele>849</ele>
        <time>2010-06-13T12:45:45Z</time>
      </trkpt>
      <trkpt lat="45.862018978223205" lon="9.040809022262693">
        <ele>848</ele>
        <time>2010-06-13T12:45:46Z</time>
      </trkpt>
      <trkpt lat="45.862001040950418" lon="9.040809022262693">
        <ele>848</ele>
        <time>2010-06-13T12:45:47Z</time>
      </trkpt>
      <trkpt lat="45.861983019858599" lon="9.040783038362861">
        <ele>848</ele>
        <time>2010-06-13T12:45:48Z</time>
      </trkpt>
      <trkpt lat="45.861956030130386" lon="9.040770968422294">
        <ele>847</ele>
        <time>2010-06-13T12:45:49Z</time>
      </trkpt>
      <trkpt lat="45.861938009038568" lon="9.040744984522462">
        <ele>847</ele>
        <time>2010-06-13T12:45:50Z</time>
      </trkpt>
      <trkpt lat="45.861919987946749" lon="9.04071900062263">
        <ele>847</ele>
        <time>2010-06-13T12:45:51Z</time>
      </trkpt>
      <trkpt lat="45.86190196685493" lon="9.040693016722798">
        <ele>846</ele>
        <time>2010-06-13T12:45:52Z</time>
      </trkpt>
      <trkpt lat="45.861884029582143" lon="9.040667032822967">
        <ele>845</ele>
        <time>2010-06-13T12:45:53Z</time>
      </trkpt>
      <trkpt lat="45.86185703985393" lon="9.040654040873051">
        <ele>844</ele>
        <time>2010-06-13T12:45:54Z</time>
      </trkpt>
      <trkpt lat="45.861839018762112" lon="9.040641970932484">
        <ele>844</ele>
        <time>2010-06-13T12:45:55Z</time>
      </trkpt>
      <trkpt lat="45.861820997670293" lon="9.040615987032652">
        <ele>844</ele>
        <time>2010-06-13T12:45:56Z</time>
      </trkpt>
      <trkpt lat="45.861802976578474" lon="9.040602995082736">
        <ele>843</ele>
        <time>2010-06-13T12:45:57Z</time>
      </trkpt>
      <trkpt lat="45.86179400794208" lon="9.040577011182904">
        <ele>842</ele>
        <time>2010-06-13T12:45:58Z</time>
      </trkpt>
      <trkpt lat="45.861785039305687" lon="9.040551027283073">
        <ele>841</ele>
        <time>2010-06-13T12:45:59Z</time>
      </trkpt>
      <trkpt lat="45.861775986850262" lon="9.04052596539259">
        <ele>840</ele>
        <time>2010-06-13T12:46:00Z</time>
      </trkpt>
      <trkpt lat="45.861767018213868" lon="9.040499981492758">
        <ele>840</ele>
        <time>2010-06-13T12:46:01Z</time>
      </trkpt>
      <trkpt lat="45.861757965758443" lon="9.040473997592926">
        <ele>839</ele>
        <time>2010-06-13T12:46:02Z</time>
      </trkpt>
      <trkpt lat="45.861740028485656" lon="9.04046100564301">
        <ele>839</ele>
        <time>2010-06-13T12:46:03Z</time>
      </trkpt>
      <trkpt lat="45.861722007393837" lon="9.040448013693094">
        <ele>838</ele>
        <time>2010-06-13T12:46:04Z</time>
      </trkpt>
      <trkpt lat="45.861703986302018" lon="9.040448013693094">
        <ele>837</ele>
        <time>2010-06-13T12:46:05Z</time>
      </trkpt>
      <trkpt lat="45.861695017665625" lon="9.040448013693094">
        <ele>837</ele>
        <time>2010-06-13T12:46:06Z</time>
      </trkpt>
      <trkpt lat="45.861676996573806" lon="9.040435021743178">
        <ele>836</ele>
        <time>2010-06-13T12:46:07Z</time>
      </trkpt>
      <trkpt lat="45.861668027937412" lon="9.040409959852696">
        <ele>836</ele>
        <time>2010-06-13T12:46:08Z</time>
      </trkpt>
      <trkpt lat="45.861650006845593" lon="9.040383975952864">
        <ele>836</ele>
        <time>2010-06-13T12:46:09Z</time>
      </trkpt>
      <trkpt lat="45.861631985753775" lon="9.040370984002948">
        <ele>836</ele>
        <time>2010-06-13T12:46:10Z</time>
      </trkpt>
      <trkpt lat="45.861604996025562" lon="9.040345000103116">
        <ele>835</ele>
        <time>2010-06-13T12:46:11Z</time>
      </trkpt>
      <trkpt lat="45.861586974933743" lon="9.0403320081532">
        <ele>834</ele>
        <time>2010-06-13T12:46:12Z</time>
      </trkpt>
      <trkpt lat="45.861569037660956" lon="9.040319016203284">
        <ele>834</ele>
        <time>2010-06-13T12:46:13Z</time>
      </trkpt>
      <trkpt lat="45.861551016569138" lon="9.040294038131833">
        <ele>834</ele>
        <time>2010-06-13T12:46:14Z</time>
      </trkpt>
      <trkpt lat="45.861524026840925" lon="9.040254978463054">
        <ele>834</ele>
        <time>2010-06-13T12:46:15Z</time>
      </trkpt>
      <trkpt lat="45.861487984657288" lon="9.040228994563222">
        <ele>834</ele>
        <time>2010-06-13T12:46:16Z</time>
      </trkpt>
      <trkpt lat="45.861460994929075" lon="9.040216002613306">
        <ele>834</ele>
        <time>2010-06-13T12:46:17Z</time>
      </trkpt>
      <trkpt lat="45.861434005200863" lon="9.040177026763558">
        <ele>834</ele>
        <time>2010-06-13T12:46:18Z</time>
      </trkpt>
      <trkpt lat="45.861407015472651" lon="9.040151964873076">
        <ele>834</ele>
        <time>2010-06-13T12:46:19Z</time>
      </trkpt>
      <trkpt lat="45.861380025744438" lon="9.040125980973244">
        <ele>834</ele>
        <time>2010-06-13T12:46:20Z</time>
      </trkpt>
      <trkpt lat="45.861362004652619" lon="9.040087005123496">
        <ele>834</ele>
        <time>2010-06-13T12:46:21Z</time>
      </trkpt>
      <trkpt lat="45.861343983560801" lon="9.040062027052045">
        <ele>834</ele>
        <time>2010-06-13T12:46:22Z</time>
      </trkpt>
      <trkpt lat="45.861316993832588" lon="9.040035959333181">
        <ele>834</ele>
        <time>2010-06-13T12:46:23Z</time>
      </trkpt>
      <trkpt lat="45.861281035467982" lon="9.039996983483434">
        <ele>834</ele>
        <time>2010-06-13T12:46:24Z</time>
      </trkpt>
      <trkpt lat="45.861245999112725" lon="9.039958007633686">
        <ele>834</ele>
        <time>2010-06-13T12:46:25Z</time>
      </trkpt>
      <trkpt lat="45.861209034919739" lon="9.039920037612319">
        <ele>823</ele>
        <time>2010-06-13T12:46:26Z</time>
      </trkpt>
      <trkpt lat="45.861181961372495" lon="9.039893969893456">
        <ele>823</ele>
        <time>2010-06-13T12:46:27Z</time>
      </trkpt>
      <trkpt lat="45.861164024099708" lon="9.03988097794354">
        <ele>823</ele>
        <time>2010-06-13T12:46:28Z</time>
      </trkpt>
      <trkpt lat="45.861146003007889" lon="9.039854994043708">
        <ele>822</ele>
        <time>2010-06-13T12:46:29Z</time>
      </trkpt>
      <trkpt lat="45.86112798191607" lon="9.039842002093792">
        <ele>822</ele>
        <time>2010-06-13T12:46:30Z</time>
      </trkpt>
      <trkpt lat="45.861110966652632" lon="9.039817024022341">
        <ele>822</ele>
        <time>2010-06-13T12:46:31Z</time>
      </trkpt>
      <trkpt lat="45.861092023551464" lon="9.039791040122509">
        <ele>821</ele>
        <time>2010-06-13T12:46:32Z</time>
      </trkpt>
      <trkpt lat="45.861074002459645" lon="9.039764972403646">
        <ele>821</ele>
        <time>2010-06-13T12:46:33Z</time>
      </trkpt>
      <trkpt lat="45.861066039651632" lon="9.039725996553898">
        <ele>821</ele>
        <time>2010-06-13T12:46:34Z</time>
      </trkpt>
      <trkpt lat="45.861055981367826" lon="9.039688026532531">
        <ele>821</ele>
        <time>2010-06-13T12:46:35Z</time>
      </trkpt>
      <trkpt lat="45.861047012731433" lon="9.039661958813667">
        <ele>820</ele>
        <time>2010-06-13T12:46:36Z</time>
      </trkpt>
      <trkpt lat="45.861028991639614" lon="9.039635974913836">
        <ele>820</ele>
        <time>2010-06-13T12:46:37Z</time>
      </trkpt>
      <trkpt lat="45.861011976376176" lon="9.039596999064088">
        <ele>819</ele>
        <time>2010-06-13T12:46:38Z</time>
      </trkpt>
      <trkpt lat="45.861011976376176" lon="9.039572020992637">
        <ele>818</ele>
        <time>2010-06-13T12:46:39Z</time>
      </trkpt>
      <trkpt lat="45.861002001911402" lon="9.039546037092805">
        <ele>817</ele>
        <time>2010-06-13T12:46:40Z</time>
      </trkpt>
      <trkpt lat="45.861002001911402" lon="9.039519969373941">
        <ele>817</ele>
        <time>2010-06-13T12:46:41Z</time>
      </trkpt>
      <trkpt lat="45.861002001911402" lon="9.039443023502827">
        <ele>816</ele>
        <time>2010-06-13T12:46:44Z</time>
      </trkpt>
      <trkpt lat="45.860994039103389" lon="9.039403963834047">
        <ele>814</ele>
        <time>2010-06-13T12:46:45Z</time>
      </trkpt>
      <trkpt lat="45.86097601801157" lon="9.03936599381268">
        <ele>813</ele>
        <time>2010-06-13T12:46:46Z</time>
      </trkpt>
      <trkpt lat="45.860956991091371" lon="9.039327017962933">
        <ele>813</ele>
        <time>2010-06-13T12:46:47Z</time>
      </trkpt>
      <trkpt lat="45.860949028283358" lon="9.039301034063101">
        <ele>812</ele>
        <time>2010-06-13T12:46:48Z</time>
      </trkpt>
      <trkpt lat="45.860939975827932" lon="9.039249988272786">
        <ele>811</ele>
        <time>2010-06-13T12:46:49Z</time>
      </trkpt>
      <trkpt lat="45.860922038555145" lon="9.039211012423039">
        <ele>809</ele>
        <time>2010-06-13T12:46:50Z</time>
      </trkpt>
      <trkpt lat="45.860904017463326" lon="9.039172036573291">
        <ele>808</ele>
        <time>2010-06-13T12:46:51Z</time>
      </trkpt>
      <trkpt lat="45.860885996371508" lon="9.039133982732892">
        <ele>807</ele>
        <time>2010-06-13T12:46:52Z</time>
      </trkpt>
      <trkpt lat="45.860867975279689" lon="9.039095006883144">
        <ele>807</ele>
        <time>2010-06-13T12:46:53Z</time>
      </trkpt>
      <trkpt lat="45.860850038006902" lon="9.039056031033397">
        <ele>806</ele>
        <time>2010-06-13T12:46:54Z</time>
      </trkpt>
      <trkpt lat="45.860850038006902" lon="9.039017977192998">
        <ele>805</ele>
        <time>2010-06-13T12:46:55Z</time>
      </trkpt>
      <trkpt lat="45.860850038006902" lon="9.038991993293166">
        <ele>803</ele>
        <time>2010-06-13T12:46:56Z</time>
      </trkpt>
      <trkpt lat="45.860859006643295" lon="9.038953017443419">
        <ele>803</ele>
        <time>2010-06-13T12:46:57Z</time>
      </trkpt>
      <trkpt lat="45.860850038006902" lon="9.03891496360302">
        <ele>802</ele>
        <time>2010-06-13T12:46:58Z</time>
      </trkpt>
      <trkpt lat="45.860832016915083" lon="9.038875987753272">
        <ele>802</ele>
        <time>2010-06-13T12:46:59Z</time>
      </trkpt>
      <trkpt lat="45.860813995823264" lon="9.03885000385344">
        <ele>802</ele>
        <time>2010-06-13T12:47:00Z</time>
      </trkpt>
      <trkpt lat="45.860787006095052" lon="9.038812033832073">
        <ele>801</ele>
        <time>2010-06-13T12:47:01Z</time>
      </trkpt>
      <trkpt lat="45.860768985003233" lon="9.038759982213378">
        <ele>799</ele>
        <time>2010-06-13T12:47:02Z</time>
      </trkpt>
      <trkpt lat="45.860750963911414" lon="9.038696028292179">
        <ele>799</ele>
        <time>2010-06-13T12:47:03Z</time>
      </trkpt>
      <trkpt lat="45.860723974183202" lon="9.038630984723568">
        <ele>798</ele>
        <time>2010-06-13T12:47:04Z</time>
      </trkpt>
      <trkpt lat="45.860696984454989" lon="9.038554038852453">
        <ele>798</ele>
        <time>2010-06-13T12:47:05Z</time>
      </trkpt>
      <trkpt lat="45.860678963363171" lon="9.038488995283842">
        <ele>798</ele>
        <time>2010-06-13T12:47:06Z</time>
      </trkpt>
      <trkpt lat="45.860661026090384" lon="9.038438033312559">
        <ele>798</ele>
        <time>2010-06-13T12:47:07Z</time>
      </trkpt>
      <trkpt lat="45.860651973634958" lon="9.038385981693864">
        <ele>797</ele>
        <time>2010-06-13T12:47:08Z</time>
      </trkpt>
      <trkpt lat="45.860624983906746" lon="9.038348011672497">
        <ele>797</ele>
        <time>2010-06-13T12:47:09Z</time>
      </trkpt>
      <trkpt lat="45.860606962814927" lon="9.038322027772665">
        <ele>797</ele>
        <time>2010-06-13T12:47:10Z</time>
      </trkpt>
      <trkpt lat="45.860579973086715" lon="9.038309035822749">
        <ele>796</ele>
        <time>2010-06-13T12:47:11Z</time>
      </trkpt>
      <trkpt lat="45.860544014722109" lon="9.038295960053802">
        <ele>795</ele>
        <time>2010-06-13T12:47:12Z</time>
      </trkpt>
      <trkpt lat="45.86052599363029" lon="9.03826997615397">
        <ele>794</ele>
        <time>2010-06-13T12:47:13Z</time>
      </trkpt>
      <trkpt lat="45.860499003902078" lon="9.038257990032435">
        <ele>794</ele>
        <time>2010-06-13T12:47:14Z</time>
      </trkpt>
      <trkpt lat="45.860490035265684" lon="9.038219014182687">
        <ele>794</ele>
        <time>2010-06-13T12:47:15Z</time>
      </trkpt>
      <trkpt lat="45.860472014173865" lon="9.038180038332939">
        <ele>793</ele>
        <time>2010-06-13T12:47:16Z</time>
      </trkpt>
      <trkpt lat="45.860453993082047" lon="9.038153970614076">
        <ele>791</ele>
        <time>2010-06-13T12:47:17Z</time>
      </trkpt>
      <trkpt lat="45.860435971990228" lon="9.038103008642793">
        <ele>792</ele>
        <time>2010-06-13T12:47:18Z</time>
      </trkpt>
      <trkpt lat="45.860427003353834" lon="9.038064032793045">
        <ele>792</ele>
        <time>2010-06-13T12:47:19Z</time>
      </trkpt>
      <trkpt lat="45.860408982262015" lon="9.038025978952646">
        <ele>791</ele>
        <time>2010-06-13T12:47:20Z</time>
      </trkpt>
      <trkpt lat="45.860381992533803" lon="9.037999995052815">
        <ele>789</ele>
        <time>2010-06-13T12:47:21Z</time>
      </trkpt>
      <trkpt lat="45.860363971441984" lon="9.037974011152983">
        <ele>788</ele>
        <time>2010-06-13T12:47:22Z</time>
      </trkpt>
      <trkpt lat="45.860346034169197" lon="9.037961019203067">
        <ele>788</ele>
        <time>2010-06-13T12:47:23Z</time>
      </trkpt>
      <trkpt lat="45.860328013077378" lon="9.037948027253151">
        <ele>787</ele>
        <time>2010-06-13T12:47:24Z</time>
      </trkpt>
      <trkpt lat="45.860301023349166" lon="9.037935035303235">
        <ele>787</ele>
        <time>2010-06-13T12:47:25Z</time>
      </trkpt>
      <trkpt lat="45.860283002257347" lon="9.037921959534288">
        <ele>784</ele>
        <time>2010-06-13T12:47:26Z</time>
      </trkpt>
      <trkpt lat="45.860274033620954" lon="9.037896981462836">
        <ele>784</ele>
        <time>2010-06-13T12:47:27Z</time>
      </trkpt>
      <trkpt lat="45.860256012529135" lon="9.037858005613089">
        <ele>783</ele>
        <time>2010-06-13T12:47:28Z</time>
      </trkpt>
      <trkpt lat="45.860229022800922" lon="9.037832021713257">
        <ele>782</ele>
        <time>2010-06-13T12:47:29Z</time>
      </trkpt>
      <trkpt lat="45.86020203307271" lon="9.037793967872858">
        <ele>783</ele>
        <time>2010-06-13T12:47:30Z</time>
      </trkpt>
      <trkpt lat="45.860165990889072" lon="9.037742000073195">
        <ele>783</ele>
        <time>2010-06-13T12:47:31Z</time>
      </trkpt>
      <trkpt lat="45.86013900116086" lon="9.037703024223447">
        <ele>782</ele>
        <time>2010-06-13T12:47:32Z</time>
      </trkpt>
      <trkpt lat="45.860112011432648" lon="9.037664970383048">
        <ele>781</ele>
        <time>2010-06-13T12:47:33Z</time>
      </trkpt>
      <trkpt lat="45.860093990340829" lon="9.037638986483216">
        <ele>781</ele>
        <time>2010-06-13T12:47:34Z</time>
      </trkpt>
      <trkpt lat="45.860067000612617" lon="9.0376259945333">
        <ele>781</ele>
        <time>2010-06-13T12:47:35Z</time>
      </trkpt>
      <trkpt lat="45.860040010884404" lon="9.037613002583385">
        <ele>781</ele>
        <time>2010-06-13T12:47:36Z</time>
      </trkpt>
      <trkpt lat="45.860013021156192" lon="9.037600010633469">
        <ele>781</ele>
        <time>2010-06-13T12:47:37Z</time>
      </trkpt>
      <trkpt lat="45.859986031427979" lon="9.037574026733637">
        <ele>781</ele>
        <time>2010-06-13T12:47:38Z</time>
      </trkpt>
      <trkpt lat="45.859949989244342" lon="9.037548964843154">
        <ele>781</ele>
        <time>2010-06-13T12:47:39Z</time>
      </trkpt>
      <trkpt lat="45.859931968152523" lon="9.037509988993406">
        <ele>781</ele>
        <time>2010-06-13T12:47:40Z</time>
      </trkpt>
      <trkpt lat="45.859904978424311" lon="9.037471013143659">
        <ele>781</ele>
        <time>2010-06-13T12:47:41Z</time>
      </trkpt>
      <trkpt lat="45.859869020059705" lon="9.037419967353344">
        <ele>781</ele>
        <time>2010-06-13T12:47:42Z</time>
      </trkpt>
      <trkpt lat="45.859832977876067" lon="9.03736799955368">
        <ele>781</ele>
        <time>2010-06-13T12:47:43Z</time>
      </trkpt>
      <trkpt lat="45.859805988147855" lon="9.037329023703933">
        <ele>781</ele>
        <time>2010-06-13T12:47:44Z</time>
      </trkpt>
      <trkpt lat="45.859778998419642" lon="9.03730396181345">
        <ele>770</ele>
        <time>2010-06-13T12:47:45Z</time>
      </trkpt>
      <trkpt lat="45.859743040055037" lon="9.037290969863534">
        <ele>770</ele>
        <time>2010-06-13T12:47:46Z</time>
      </trkpt>
      <trkpt lat="45.859715966507792" lon="9.037264985963702">
        <ele>770</ele>
        <time>2010-06-13T12:47:47Z</time>
      </trkpt>
      <trkpt lat="45.85968897677958" lon="9.03723900206387">
        <ele>770</ele>
        <time>2010-06-13T12:47:48Z</time>
      </trkpt>
      <trkpt lat="45.859661987051368" lon="9.037201032042503">
        <ele>769</ele>
        <time>2010-06-13T12:47:49Z</time>
      </trkpt>
      <trkpt lat="45.859616976231337" lon="9.037161972373724">
        <ele>768</ele>
        <time>2010-06-13T12:47:50Z</time>
      </trkpt>
      <trkpt lat="45.859562996774912" lon="9.03711000457406">
        <ele>766</ele>
        <time>2010-06-13T12:47:51Z</time>
      </trkpt>
      <trkpt lat="45.859517985954881" lon="9.03704596683383">
        <ele>766</ele>
        <time>2010-06-13T12:47:52Z</time>
      </trkpt>
      <trkpt lat="45.859490996226668" lon="9.036981007084251">
        <ele>765</ele>
        <time>2010-06-13T12:47:53Z</time>
      </trkpt>
      <trkpt lat="45.859464006498456" lon="9.036943037062883">
        <ele>765</ele>
        <time>2010-06-13T12:47:54Z</time>
      </trkpt>
      <trkpt lat="45.859445985406637" lon="9.036903977394104">
        <ele>765</ele>
        <time>2010-06-13T12:47:55Z</time>
      </trkpt>
      <trkpt lat="45.859427964314818" lon="9.036890985444188">
        <ele>765</ele>
        <time>2010-06-13T12:47:56Z</time>
      </trkpt>
      <trkpt lat="45.859194025397301" lon="9.036724017933011">
        <ele>764</ele>
        <time>2010-06-13T12:49:00Z</time>
      </trkpt>
      <trkpt lat="45.85930198431015" lon="9.036724017933011">
        <ele>762</ele>
        <time>2010-06-13T12:50:52Z</time>
      </trkpt>
      <trkpt lat="45.859274994581938" lon="9.036724017933011">
        <ele>762</ele>
        <time>2010-06-13T12:50:53Z</time>
      </trkpt>
      <trkpt lat="45.859229983761907" lon="9.036711025983095">
        <ele>762</ele>
        <time>2010-06-13T12:50:55Z</time>
      </trkpt>
      <trkpt lat="45.859211962670088" lon="9.036711025983095">
        <ele>760</ele>
        <time>2010-06-13T12:50:56Z</time>
      </trkpt>
      <trkpt lat="45.859194025397301" lon="9.036698034033179">
        <ele>759</ele>
        <time>2010-06-13T12:50:57Z</time>
      </trkpt>
      <trkpt lat="45.859176004305482" lon="9.036698034033179">
        <ele>759</ele>
        <time>2010-06-13T12:50:58Z</time>
      </trkpt>
      <trkpt lat="45.85914901457727" lon="9.036684958264232">
        <ele>758</ele>
        <time>2010-06-13T12:50:59Z</time>
      </trkpt>
      <trkpt lat="45.859130993485451" lon="9.0366589743644">
        <ele>758</ele>
        <time>2010-06-13T12:51:00Z</time>
      </trkpt>
      <trkpt lat="45.859122024849057" lon="9.036608012393117">
        <ele>757</ele>
        <time>2010-06-13T12:51:01Z</time>
      </trkpt>
      <trkpt lat="45.859122024849057" lon="9.036582028493285">
        <ele>757</ele>
        <time>2010-06-13T12:51:02Z</time>
      </trkpt>
      <trkpt lat="45.859130993485451" lon="9.036542968824506">
        <ele>756</ele>
        <time>2010-06-13T12:51:03Z</time>
      </trkpt>
      <trkpt lat="45.859140967950225" lon="9.036504998803139">
        <ele>756</ele>
        <time>2010-06-13T12:51:04Z</time>
      </trkpt>
      <trkpt lat="45.85914901457727" lon="9.036466022953391">
        <ele>755</ele>
        <time>2010-06-13T12:51:05Z</time>
      </trkpt>
      <trkpt lat="45.859167035669088" lon="9.036440039053559">
        <ele>755</ele>
        <time>2010-06-13T12:51:06Z</time>
      </trkpt>
      <trkpt lat="45.859176004305482" lon="9.036413971334696">
        <ele>755</ele>
        <time>2010-06-13T12:51:07Z</time>
      </trkpt>
      <trkpt lat="45.859185978770256" lon="9.036376001313329">
        <ele>754</ele>
        <time>2010-06-13T12:51:08Z</time>
      </trkpt>
      <trkpt lat="45.859185978770256" lon="9.036363009363413">
        <ele>754</ele>
        <time>2010-06-13T12:51:09Z</time>
      </trkpt>
      <trkpt lat="45.859194025397301" lon="9.036350017413497">
        <ele>754</ele>
        <time>2010-06-13T12:51:11Z</time>
      </trkpt>
      <trkpt lat="45.859194025397301" lon="9.036337025463581">
        <ele>754</ele>
        <time>2010-06-13T12:51:12Z</time>
      </trkpt>
      <trkpt lat="45.859203999862075" lon="9.036324033513665">
        <ele>753</ele>
        <time>2010-06-13T12:51:13Z</time>
      </trkpt>
      <trkpt lat="45.859230989590287" lon="9.036298971623182">
        <ele>753</ele>
        <time>2010-06-13T12:51:14Z</time>
      </trkpt>
      <trkpt lat="45.859256973490119" lon="9.036259995773435">
        <ele>752</ele>
        <time>2010-06-13T12:51:15Z</time>
      </trkpt>
      <trkpt lat="45.859294021502137" lon="9.036234011873603">
        <ele>752</ele>
        <time>2010-06-13T12:51:16Z</time>
      </trkpt>
      <trkpt lat="45.85932101123035" lon="9.036209033802152">
        <ele>751</ele>
        <time>2010-06-13T12:51:17Z</time>
      </trkpt>
      <trkpt lat="45.859339032322168" lon="9.036182966083288">
        <ele>751</ele>
        <time>2010-06-13T12:51:18Z</time>
      </trkpt>
      <trkpt lat="45.859356969594955" lon="9.036169974133372">
        <ele>751</ele>
        <time>2010-06-13T12:51:19Z</time>
      </trkpt>
      <trkpt lat="45.859366022050381" lon="9.036143990233541">
        <ele>750</ele>
        <time>2010-06-13T12:51:20Z</time>
      </trkpt>
      <trkpt lat="45.859373984858394" lon="9.036130998283625">
        <ele>749</ele>
        <time>2010-06-13T12:51:21Z</time>
      </trkpt>
      <trkpt lat="45.859366022050381" lon="9.036118006333709">
        <ele>748</ele>
        <time>2010-06-13T12:51:22Z</time>
      </trkpt>
      <trkpt lat="45.859346995130181" lon="9.036106020212174">
        <ele>748</ele>
        <time>2010-06-13T12:51:23Z</time>
      </trkpt>
      <trkpt lat="45.859328974038363" lon="9.036092022433877">
        <ele>747</ele>
        <time>2010-06-13T12:51:24Z</time>
      </trkpt>
      <trkpt lat="45.859311958774924" lon="9.036092022433877">
        <ele>746</ele>
        <time>2010-06-13T12:51:25Z</time>
      </trkpt>
      <trkpt lat="45.85930198431015" lon="9.036080036312342">
        <ele>746</ele>
        <time>2010-06-13T12:51:26Z</time>
      </trkpt>
      <trkpt lat="45.859294021502137" lon="9.036053968593478">
        <ele>745</ele>
        <time>2010-06-13T12:51:27Z</time>
      </trkpt>
      <trkpt lat="45.85930198431015" lon="9.036040976643562">
        <ele>745</ele>
        <time>2010-06-13T12:51:28Z</time>
      </trkpt>
      <trkpt lat="45.859311958774924" lon="9.036014992743731">
        <ele>744</ele>
        <time>2010-06-13T12:51:29Z</time>
      </trkpt>
      <trkpt lat="45.859329979866743" lon="9.036002000793815">
        <ele>743</ele>
        <time>2010-06-13T12:51:30Z</time>
      </trkpt>
      <trkpt lat="45.859346995130181" lon="9.035989008843899">
        <ele>742</ele>
        <time>2010-06-13T12:51:31Z</time>
      </trkpt>
      <trkpt lat="45.859366022050381" lon="9.035977022722364">
        <ele>742</ele>
        <time>2010-06-13T12:51:32Z</time>
      </trkpt>
      <trkpt lat="45.859392005950212" lon="9.035964030772448">
        <ele>742</ele>
        <time>2010-06-13T12:51:33Z</time>
      </trkpt>
      <trkpt lat="45.859401980414987" lon="9.035951038822532">
        <ele>742</ele>
        <time>2010-06-13T12:51:34Z</time>
      </trkpt>
      <trkpt lat="45.859420001506805" lon="9.035937963053584">
        <ele>742</ele>
        <time>2010-06-13T12:51:35Z</time>
      </trkpt>
      <trkpt lat="45.859428970143199" lon="9.035924971103668">
        <ele>741</ele>
        <time>2010-06-13T12:51:36Z</time>
      </trkpt>
      <trkpt lat="45.859428970143199" lon="9.035898987203836">
        <ele>740</ele>
        <time>2010-06-13T12:51:37Z</time>
      </trkpt>
      <trkpt lat="45.859420001506805" lon="9.035874009132385">
        <ele>740</ele>
        <time>2010-06-13T12:51:38Z</time>
      </trkpt>
      <trkpt lat="45.859411032870412" lon="9.035848025232554">
        <ele>739</ele>
        <time>2010-06-13T12:51:39Z</time>
      </trkpt>
      <trkpt lat="45.859401980414987" lon="9.035822041332722">
        <ele>738</ele>
        <time>2010-06-13T12:51:40Z</time>
      </trkpt>
      <trkpt lat="45.859393011778593" lon="9.035795973613858">
        <ele>737</ele>
        <time>2010-06-13T12:51:41Z</time>
      </trkpt>
      <trkpt lat="45.859383959323168" lon="9.035770995542407">
        <ele>737</ele>
        <time>2010-06-13T12:51:42Z</time>
      </trkpt>
      <trkpt lat="45.859374990686774" lon="9.035745011642575">
        <ele>737</ele>
        <time>2010-06-13T12:51:43Z</time>
      </trkpt>
      <trkpt lat="45.859374990686774" lon="9.035706035792828">
        <ele>735</ele>
        <time>2010-06-13T12:51:44Z</time>
      </trkpt>
      <trkpt lat="45.859356969594955" lon="9.035679968073964">
        <ele>735</ele>
        <time>2010-06-13T12:51:45Z</time>
      </trkpt>
      <trkpt lat="45.859339032322168" lon="9.035653984174132">
        <ele>734</ele>
        <time>2010-06-13T12:51:46Z</time>
      </trkpt>
      <trkpt lat="45.85932101123035" lon="9.035629006102681">
        <ele>734</ele>
        <time>2010-06-13T12:51:47Z</time>
      </trkpt>
      <trkpt lat="45.859302990138531" lon="9.035603022202849">
        <ele>732</ele>
        <time>2010-06-13T12:51:48Z</time>
      </trkpt>
      <trkpt lat="45.859284969046712" lon="9.03556396253407">
        <ele>730</ele>
        <time>2010-06-13T12:51:49Z</time>
      </trkpt>
      <trkpt lat="45.859267031773925" lon="9.035538984462619">
        <ele>730</ele>
        <time>2010-06-13T12:51:50Z</time>
      </trkpt>
      <trkpt lat="45.859249010682106" lon="9.035513000562787">
        <ele>729</ele>
        <time>2010-06-13T12:51:51Z</time>
      </trkpt>
      <trkpt lat="45.859230989590287" lon="9.035474024713039">
        <ele>729</ele>
        <time>2010-06-13T12:51:52Z</time>
      </trkpt>
      <trkpt lat="45.859203999862075" lon="9.035435970872641">
        <ele>728</ele>
        <time>2010-06-13T12:51:53Z</time>
      </trkpt>
      <trkpt lat="45.859177010133862" lon="9.035409986972809">
        <ele>728</ele>
        <time>2010-06-13T12:51:54Z</time>
      </trkpt>
      <trkpt lat="45.859140967950225" lon="9.035396995022893">
        <ele>728</ele>
        <time>2010-06-13T12:51:55Z</time>
      </trkpt>
      <trkpt lat="45.859113978222013" lon="9.035396995022893">
        <ele>727</ele>
        <time>2010-06-13T12:51:56Z</time>
      </trkpt>
      <trkpt lat="45.859078019857407" lon="9.035371011123061">
        <ele>726</ele>
        <time>2010-06-13T12:51:57Z</time>
      </trkpt>
      <trkpt lat="45.859051030129194" lon="9.035358019173145">
        <ele>725</ele>
        <time>2010-06-13T12:51:58Z</time>
      </trkpt>
      <trkpt lat="45.859033009037375" lon="9.035345027223229">
        <ele>725</ele>
        <time>2010-06-13T12:51:59Z</time>
      </trkpt>
      <trkpt lat="45.859006019309163" lon="9.035332035273314">
        <ele>725</ele>
        <time>2010-06-13T12:52:00Z</time>
      </trkpt>
      <trkpt lat="45.858987998217344" lon="9.035318959504366">
        <ele>723</ele>
        <time>2010-06-13T12:52:01Z</time>
      </trkpt>
      <trkpt lat="45.858961008489132" lon="9.03530596755445">
        <ele>723</ele>
        <time>2010-06-13T12:52:02Z</time>
      </trkpt>
      <trkpt lat="45.858952039852738" lon="9.035280989482999">
        <ele>722</ele>
        <time>2010-06-13T12:52:03Z</time>
      </trkpt>
      <trkpt lat="45.858952039852738" lon="9.035255005583167">
        <ele>721</ele>
        <time>2010-06-13T12:52:04Z</time>
      </trkpt>
      <trkpt lat="45.858961008489132" lon="9.035216029733419">
        <ele>721</ele>
        <time>2010-06-13T12:52:05Z</time>
      </trkpt>
      <trkpt lat="45.858969977125525" lon="9.035177975893021">
        <ele>720</ele>
        <time>2010-06-13T12:52:06Z</time>
      </trkpt>
      <trkpt lat="45.858979029580951" lon="9.035126008093357">
        <ele>720</ele>
        <time>2010-06-13T12:52:07Z</time>
      </trkpt>
      <trkpt lat="45.858996966853738" lon="9.035087032243609">
        <ele>719</ele>
        <time>2010-06-13T12:52:08Z</time>
      </trkpt>
      <trkpt lat="45.859033009037375" lon="9.035048978403211">
        <ele>719</ele>
        <time>2010-06-13T12:52:09Z</time>
      </trkpt>
      <trkpt lat="45.859068967401981" lon="9.035022994503379">
        <ele>719</ele>
        <time>2010-06-13T12:52:10Z</time>
      </trkpt>
      <trkpt lat="45.859096040949225" lon="9.035010002553463">
        <ele>718</ele>
        <time>2010-06-13T12:52:11Z</time>
      </trkpt>
      <trkpt lat="45.859113978222013" lon="9.034997010603547">
        <ele>718</ele>
        <time>2010-06-13T12:52:12Z</time>
      </trkpt>
      <trkpt lat="45.859123030677438" lon="9.034985024482012">
        <ele>717</ele>
        <time>2010-06-13T12:52:13Z</time>
      </trkpt>
      <trkpt lat="45.859123030677438" lon="9.03495904058218">
        <ele>716</ele>
        <time>2010-06-13T12:52:14Z</time>
      </trkpt>
      <trkpt lat="45.859105009585619" lon="9.034945964813232">
        <ele>715</ele>
        <time>2010-06-13T12:52:15Z</time>
      </trkpt>
      <trkpt lat="45.859078019857407" lon="9.034932972863317">
        <ele>715</ele>
        <time>2010-06-13T12:52:16Z</time>
      </trkpt>
      <trkpt lat="45.859059998765588" lon="9.034906988963485">
        <ele>715</ele>
        <time>2010-06-13T12:52:17Z</time>
      </trkpt>
      <trkpt lat="45.859024040400982" lon="9.034893997013569">
        <ele>714</ele>
        <time>2010-06-13T12:52:18Z</time>
      </trkpt>
      <trkpt lat="45.858996966853738" lon="9.034881005063653">
        <ele>714</ele>
        <time>2010-06-13T12:52:19Z</time>
      </trkpt>
      <trkpt lat="45.858961008489132" lon="9.034869018942118">
        <ele>713</ele>
        <time>2010-06-13T12:52:20Z</time>
      </trkpt>
      <trkpt lat="45.85893401876092" lon="9.034843035042286">
        <ele>712</ele>
        <time>2010-06-13T12:52:21Z</time>
      </trkpt>
      <trkpt lat="45.858924966305494" lon="9.034803975373507">
        <ele>711</ele>
        <time>2010-06-13T12:52:22Z</time>
      </trkpt>
      <trkpt lat="45.85893401876092" lon="9.034714037552476">
        <ele>709</ele>
        <time>2010-06-13T12:52:24Z</time>
      </trkpt>
      <trkpt lat="45.85893401876092" lon="9.034661985933781">
        <ele>708</ele>
        <time>2010-06-13T12:52:25Z</time>
      </trkpt>
      <trkpt lat="45.85893401876092" lon="9.034611023962498">
        <ele>708</ele>
        <time>2010-06-13T12:52:26Z</time>
      </trkpt>
      <trkpt lat="45.858942987397313" lon="9.034558972343803">
        <ele>708</ele>
        <time>2010-06-13T12:52:27Z</time>
      </trkpt>
      <trkpt lat="45.858942987397313" lon="9.034521002322435">
        <ele>707</ele>
        <time>2010-06-13T12:52:28Z</time>
      </trkpt>
      <trkpt lat="45.858952039852738" lon="9.034469034522772">
        <ele>706</ele>
        <time>2010-06-13T12:52:29Z</time>
      </trkpt>
      <trkpt lat="45.858961008489132" lon="9.034442966803908">
        <ele>705</ele>
        <time>2010-06-13T12:52:30Z</time>
      </trkpt>
      <trkpt lat="45.858961008489132" lon="9.034392004832625">
        <ele>704</ele>
        <time>2010-06-13T12:52:31Z</time>
      </trkpt>
      <trkpt lat="45.858961008489132" lon="9.034353028982878">
        <ele>703</ele>
        <time>2010-06-13T12:52:32Z</time>
      </trkpt>
      <trkpt lat="45.858952039852738" lon="9.034301983192563">
        <ele>702</ele>
        <time>2010-06-13T12:52:33Z</time>
      </trkpt>
      <trkpt lat="45.85893401876092" lon="9.034263007342815">
        <ele>701</ele>
        <time>2010-06-13T12:52:34Z</time>
      </trkpt>
      <trkpt lat="45.858924966305494" lon="9.034224031493068">
        <ele>700</ele>
        <time>2010-06-13T12:52:35Z</time>
      </trkpt>
      <trkpt lat="45.85893401876092" lon="9.034185977652669">
        <ele>699</ele>
        <time>2010-06-13T12:52:36Z</time>
      </trkpt>
      <trkpt lat="45.85893401876092" lon="9.034134009853005">
        <ele>699</ele>
        <time>2010-06-13T12:52:37Z</time>
      </trkpt>
      <trkpt lat="45.85893401876092" lon="9.034056980162859">
        <ele>698</ele>
        <time>2010-06-13T12:52:39Z</time>
      </trkpt>
      <trkpt lat="45.858924966305494" lon="9.034006018191576">
        <ele>698</ele>
        <time>2010-06-13T12:52:40Z</time>
      </trkpt>
      <trkpt lat="45.858915997669101" lon="9.033953966572881">
        <ele>697</ele>
        <time>2010-06-13T12:52:41Z</time>
      </trkpt>
      <trkpt lat="45.858907029032707" lon="9.033901998773217">
        <ele>695</ele>
        <time>2010-06-13T12:52:42Z</time>
      </trkpt>
      <trkpt lat="45.858907029032707" lon="9.033811977133155">
        <ele>694</ele>
        <time>2010-06-13T12:52:44Z</time>
      </trkpt>
      <trkpt lat="45.858915997669101" lon="9.033774007111788">
        <ele>694</ele>
        <time>2010-06-13T12:52:45Z</time>
      </trkpt>
      <trkpt lat="45.858924966305494" lon="9.03373503126204">
        <ele>694</ele>
        <time>2010-06-13T12:52:46Z</time>
      </trkpt>
      <trkpt lat="45.858942987397313" lon="9.033708963543177">
        <ele>694</ele>
        <time>2010-06-13T12:52:47Z</time>
      </trkpt>
      <trkpt lat="45.858952039852738" lon="9.033695971593261">
        <ele>694</ele>
        <time>2010-06-13T12:52:48Z</time>
      </trkpt>
      <trkpt lat="45.858961008489132" lon="9.033682979643345">
        <ele>694</ele>
        <time>2010-06-13T12:52:49Z</time>
      </trkpt>
      <trkpt lat="45.858979029580951" lon="9.03367099352181">
        <ele>694</ele>
        <time>2010-06-13T12:52:50Z</time>
      </trkpt>
      <trkpt lat="45.8590869884938" lon="9.03367099352181">
        <ele>693</ele>
        <time>2010-06-13T12:53:31Z</time>
      </trkpt>
      <trkpt lat="45.859113978222013" lon="9.033695971593261">
        <ele>693</ele>
        <time>2010-06-13T12:53:32Z</time>
      </trkpt>
      <trkpt lat="45.859123030677438" lon="9.033708963543177">
        <ele>694</ele>
        <time>2010-06-13T12:53:33Z</time>
      </trkpt>
      <trkpt lat="45.859140967950225" lon="9.033708963543177">
        <ele>693</ele>
        <time>2010-06-13T12:53:34Z</time>
      </trkpt>
      <trkpt lat="45.85915002040565" lon="9.033708963543177">
        <ele>692</ele>
        <time>2010-06-13T12:53:35Z</time>
      </trkpt>
      <trkpt lat="45.859168041497469" lon="9.033695971593261">
        <ele>692</ele>
        <time>2010-06-13T12:53:36Z</time>
      </trkpt>
      <trkpt lat="45.859177010133862" lon="9.033683985471726">
        <ele>692</ele>
        <time>2010-06-13T12:53:37Z</time>
      </trkpt>
      <trkpt lat="45.859185978770256" lon="9.033683985471726">
        <ele>692</ele>
        <time>2010-06-13T12:53:38Z</time>
      </trkpt>
      <trkpt lat="45.859203999862075" lon="9.03367099352181">
        <ele>692</ele>
        <time>2010-06-13T12:53:39Z</time>
      </trkpt>
      <trkpt lat="45.859222020953894" lon="9.03367099352181">
        <ele>692</ele>
        <time>2010-06-13T12:53:40Z</time>
      </trkpt>
      <trkpt lat="45.859239958226681" lon="9.03367099352181">
        <ele>692</ele>
        <time>2010-06-13T12:53:41Z</time>
      </trkpt>
      <trkpt lat="45.859249010682106" lon="9.03367099352181">
        <ele>691</ele>
        <time>2010-06-13T12:53:42Z</time>
      </trkpt>
      <trkpt lat="45.859284969046712" lon="9.03367099352181">
        <ele>690</ele>
        <time>2010-06-13T12:53:44Z</time>
      </trkpt>
      <trkpt lat="45.859294021502137" lon="9.033683985471726">
        <ele>690</ele>
        <time>2010-06-13T12:53:45Z</time>
      </trkpt>
      <trkpt lat="45.859311958774924" lon="9.033683985471726">
        <ele>690</ele>
        <time>2010-06-13T12:53:46Z</time>
      </trkpt>
      <trkpt lat="45.85932101123035" lon="9.033683985471726">
        <ele>690</ele>
        <time>2010-06-13T12:53:47Z</time>
      </trkpt>
      <trkpt lat="45.859329979866743" lon="9.033696977421641">
        <ele>689</ele>
        <time>2010-06-13T12:53:48Z</time>
      </trkpt>
      <trkpt lat="45.859348000958562" lon="9.033708963543177">
        <ele>689</ele>
        <time>2010-06-13T12:53:49Z</time>
      </trkpt>
      <trkpt lat="45.859366022050381" lon="9.033722039312124">
        <ele>688</ele>
        <time>2010-06-13T12:53:50Z</time>
      </trkpt>
      <trkpt lat="45.859393011778593" lon="9.03373503126204">
        <ele>687</ele>
        <time>2010-06-13T12:53:51Z</time>
      </trkpt>
      <trkpt lat="45.859420001506805" lon="9.03373503126204">
        <ele>687</ele>
        <time>2010-06-13T12:53:52Z</time>
      </trkpt>
      <trkpt lat="45.859438022598624" lon="9.03373503126204">
        <ele>687</ele>
        <time>2010-06-13T12:53:53Z</time>
      </trkpt>
      <trkpt lat="45.859483033418655" lon="9.033748023211956">
        <ele>688</ele>
        <time>2010-06-13T12:53:55Z</time>
      </trkpt>
      <trkpt lat="45.859500970691442" lon="9.033748023211956">
        <ele>686</ele>
        <time>2010-06-13T12:53:56Z</time>
      </trkpt>
      <trkpt lat="45.859527960419655" lon="9.033761015161872">
        <ele>685</ele>
        <time>2010-06-13T12:53:57Z</time>
      </trkpt>
      <trkpt lat="45.859545981511474" lon="9.033774007111788">
        <ele>684</ele>
        <time>2010-06-13T12:53:58Z</time>
      </trkpt>
      <trkpt lat="45.859564002603292" lon="9.03379999101162">
        <ele>684</ele>
        <time>2010-06-13T12:53:59Z</time>
      </trkpt>
      <trkpt lat="45.859572971239686" lon="9.033811977133155">
        <ele>684</ele>
        <time>2010-06-13T12:54:00Z</time>
      </trkpt>
      <trkpt lat="45.859590992331505" lon="9.033825974911451">
        <ele>684</ele>
        <time>2010-06-13T12:54:01Z</time>
      </trkpt>
      <trkpt lat="45.859599960967898" lon="9.033825974911451">
        <ele>684</ele>
        <time>2010-06-13T12:54:02Z</time>
      </trkpt>
      <trkpt lat="45.859833983704448" lon="9.033736037090421">
        <ele>675</ele>
        <time>2010-06-13T12:55:09Z</time>
      </trkpt>
      <trkpt lat="45.859843036159873" lon="9.033696977421641">
        <ele>675</ele>
        <time>2010-06-13T12:55:10Z</time>
      </trkpt>
      <trkpt lat="45.859852004796267" lon="9.033658001571894">
        <ele>674</ele>
        <time>2010-06-13T12:55:11Z</time>
      </trkpt>
      <trkpt lat="45.85986097343266" lon="9.033619025722146">
        <ele>674</ele>
        <time>2010-06-13T12:55:12Z</time>
      </trkpt>
      <trkpt lat="45.859878994524479" lon="9.033580971881747">
        <ele>673</ele>
        <time>2010-06-13T12:55:13Z</time>
      </trkpt>
      <trkpt lat="45.859878994524479" lon="9.033554987981916">
        <ele>672</ele>
        <time>2010-06-13T12:55:14Z</time>
      </trkpt>
      <trkpt lat="45.859870025888085" lon="9.033516012132168">
        <ele>672</ele>
        <time>2010-06-13T12:55:15Z</time>
      </trkpt>
      <trkpt lat="45.85986097343266" lon="9.033504026010633">
        <ele>672</ele>
        <time>2010-06-13T12:55:16Z</time>
      </trkpt>
      <trkpt lat="45.859878994524479" lon="9.033477958291769">
        <ele>672</ele>
        <time>2010-06-13T12:55:17Z</time>
      </trkpt>
      <trkpt lat="45.859897015616298" lon="9.033451974391937">
        <ele>671</ele>
        <time>2010-06-13T12:55:18Z</time>
      </trkpt>
      <trkpt lat="45.859905984252691" lon="9.033425990492106">
        <ele>669</ele>
        <time>2010-06-13T12:55:19Z</time>
      </trkpt>
      <trkpt lat="45.859915958717465" lon="9.033401012420654">
        <ele>669</ele>
        <time>2010-06-13T12:55:20Z</time>
      </trkpt>
      <trkpt lat="45.85992400534451" lon="9.033362036570907">
        <ele>668</ele>
        <time>2010-06-13T12:55:21Z</time>
      </trkpt>
      <trkpt lat="45.859915958717465" lon="9.033348960801959">
        <ele>669</ele>
        <time>2010-06-13T12:55:22Z</time>
      </trkpt>
      <trkpt lat="45.859915958717465" lon="9.033310990780592">
        <ele>669</ele>
        <time>2010-06-13T12:55:23Z</time>
      </trkpt>
      <trkpt lat="45.859915958717465" lon="9.03328500688076">
        <ele>668</ele>
        <time>2010-06-13T12:55:24Z</time>
      </trkpt>
      <trkpt lat="45.859915958717465" lon="9.033259022980928">
        <ele>668</ele>
        <time>2010-06-13T12:55:25Z</time>
      </trkpt>
      <trkpt lat="45.859915958717465" lon="9.033233039081097">
        <ele>667</ele>
        <time>2010-06-13T12:55:26Z</time>
      </trkpt>
      <trkpt lat="45.859915958717465" lon="9.033206971362233">
        <ele>665</ele>
        <time>2010-06-13T12:55:27Z</time>
      </trkpt>
      <trkpt lat="45.859915958717465" lon="9.033193979412317">
        <ele>664</ele>
        <time>2010-06-13T12:55:28Z</time>
      </trkpt>
      <trkpt lat="45.85992400534451" lon="9.033169001340866">
        <ele>664</ele>
        <time>2010-06-13T12:55:29Z</time>
      </trkpt>
      <trkpt lat="45.859933979809284" lon="9.033130025491118">
        <ele>663</ele>
        <time>2010-06-13T12:55:30Z</time>
      </trkpt>
      <trkpt lat="45.859942026436329" lon="9.033104041591287">
        <ele>662</ele>
        <time>2010-06-13T12:55:31Z</time>
      </trkpt>
      <trkpt lat="45.859952000901103" lon="9.033078979700804">
        <ele>662</ele>
        <time>2010-06-13T12:55:32Z</time>
      </trkpt>
      <trkpt lat="45.859969016164541" lon="9.033040003851056">
        <ele>662</ele>
        <time>2010-06-13T12:55:33Z</time>
      </trkpt>
      <trkpt lat="45.859997011721134" lon="9.03302701190114">
        <ele>662</ele>
        <time>2010-06-13T12:55:34Z</time>
      </trkpt>
      <trkpt lat="45.860014026984572" lon="9.032988036051393">
        <ele>661</ele>
        <time>2010-06-13T12:55:35Z</time>
      </trkpt>
      <trkpt lat="45.86003196425736" lon="9.032949982210994">
        <ele>658</ele>
        <time>2010-06-13T12:55:36Z</time>
      </trkpt>
      <trkpt lat="45.860050991177559" lon="9.032923998311162">
        <ele>658</ele>
        <time>2010-06-13T12:55:37Z</time>
      </trkpt>
      <trkpt lat="45.860076975077391" lon="9.032886028289795">
        <ele>658</ele>
        <time>2010-06-13T12:55:38Z</time>
      </trkpt>
      <trkpt lat="45.86009600199759" lon="9.032859960570931">
        <ele>657</ele>
        <time>2010-06-13T12:55:39Z</time>
      </trkpt>
      <trkpt lat="45.860114023089409" lon="9.032820984721184">
        <ele>656</ele>
        <time>2010-06-13T12:55:40Z</time>
      </trkpt>
      <trkpt lat="45.860131960362196" lon="9.032795000821352">
        <ele>656</ele>
        <time>2010-06-13T12:55:41Z</time>
      </trkpt>
      <trkpt lat="45.860149981454015" lon="9.032757030799985">
        <ele>657</ele>
        <time>2010-06-13T12:55:42Z</time>
      </trkpt>
      <trkpt lat="45.860168002545834" lon="9.032730963081121">
        <ele>655</ele>
        <time>2010-06-13T12:55:43Z</time>
      </trkpt>
      <trkpt lat="45.860176971182227" lon="9.032717971131206">
        <ele>655</ele>
        <time>2010-06-13T12:55:44Z</time>
      </trkpt>
      <trkpt lat="45.860186023637652" lon="9.032678995281458">
        <ele>655</ele>
        <time>2010-06-13T12:55:45Z</time>
      </trkpt>
      <trkpt lat="45.860186023637652" lon="9.032654017210007">
        <ele>654</ele>
        <time>2010-06-13T12:55:46Z</time>
      </trkpt>
      <trkpt lat="45.860186023637652" lon="9.03257598169148">
        <ele>652</ele>
        <time>2010-06-13T12:55:48Z</time>
      </trkpt>
      <trkpt lat="45.860168002545834" lon="9.032551003620029">
        <ele>652</ele>
        <time>2010-06-13T12:55:49Z</time>
      </trkpt>
      <trkpt lat="45.86015903390944" lon="9.032538011670113">
        <ele>651</ele>
        <time>2010-06-13T12:55:50Z</time>
      </trkpt>
      <trkpt lat="45.860141012817621" lon="9.032512027770281">
        <ele>651</ele>
        <time>2010-06-13T12:55:51Z</time>
      </trkpt>
      <trkpt lat="45.860131960362196" lon="9.032485960051417">
        <ele>651</ele>
        <time>2010-06-13T12:55:52Z</time>
      </trkpt>
      <trkpt lat="45.860122991725802" lon="9.032459976151586">
        <ele>650</ele>
        <time>2010-06-13T12:55:53Z</time>
      </trkpt>
      <trkpt lat="45.860114023089409" lon="9.032422006130219">
        <ele>650</ele>
        <time>2010-06-13T12:55:54Z</time>
      </trkpt>
      <trkpt lat="45.860104970633984" lon="9.032396022230387">
        <ele>650</ele>
        <time>2010-06-13T12:55:55Z</time>
      </trkpt>
      <trkpt lat="45.86009600199759" lon="9.032370038330555">
        <ele>648</ele>
        <time>2010-06-13T12:55:56Z</time>
      </trkpt>
      <trkpt lat="45.860087033361197" lon="9.032330978661776">
        <ele>647</ele>
        <time>2010-06-13T12:55:57Z</time>
      </trkpt>
      <trkpt lat="45.860087033361197" lon="9.032306000590324">
        <ele>647</ele>
        <time>2010-06-13T12:55:58Z</time>
      </trkpt>
      <trkpt lat="45.860069012269378" lon="9.032280016690493">
        <ele>647</ele>
        <time>2010-06-13T12:55:59Z</time>
      </trkpt>
      <trkpt lat="45.860042022541165" lon="9.032254032790661">
        <ele>646</ele>
        <time>2010-06-13T12:56:00Z</time>
      </trkpt>
      <trkpt lat="45.860015032812953" lon="9.032215978950262">
        <ele>644</ele>
        <time>2010-06-13T12:56:01Z</time>
      </trkpt>
      <trkpt lat="45.859997011721134" lon="9.032202987000346">
        <ele>644</ele>
        <time>2010-06-13T12:56:02Z</time>
      </trkpt>
      <trkpt lat="45.859970021992922" lon="9.032164011150599">
        <ele>645</ele>
        <time>2010-06-13T12:56:03Z</time>
      </trkpt>
      <trkpt lat="45.859952000901103" lon="9.032138027250767">
        <ele>645</ele>
        <time>2010-06-13T12:56:04Z</time>
      </trkpt>
      <trkpt lat="45.859925011172891" lon="9.032112965360284">
        <ele>644</ele>
        <time>2010-06-13T12:56:05Z</time>
      </trkpt>
      <trkpt lat="45.859915958717465" lon="9.032086981460452">
        <ele>643</ele>
        <time>2010-06-13T12:56:06Z</time>
      </trkpt>
      <trkpt lat="45.859898021444678" lon="9.03206099756062">
        <ele>643</ele>
        <time>2010-06-13T12:56:07Z</time>
      </trkpt>
      <trkpt lat="45.859880000352859" lon="9.032035013660789">
        <ele>642</ele>
        <time>2010-06-13T12:56:08Z</time>
      </trkpt>
      <trkpt lat="45.859861979261041" lon="9.032009029760957">
        <ele>642</ele>
        <time>2010-06-13T12:56:09Z</time>
      </trkpt>
      <trkpt lat="45.859843958169222" lon="9.031983967870474">
        <ele>641</ele>
        <time>2010-06-13T12:56:10Z</time>
      </trkpt>
      <trkpt lat="45.85981696844101" lon="9.031970975920558">
        <ele>641</ele>
        <time>2010-06-13T12:56:11Z</time>
      </trkpt>
      <trkpt lat="45.859807999804616" lon="9.031944992020726">
        <ele>641</ele>
        <time>2010-06-13T12:56:12Z</time>
      </trkpt>
      <trkpt lat="45.859799031168222" lon="9.031919008120894">
        <ele>640</ele>
        <time>2010-06-13T12:56:13Z</time>
      </trkpt>
      <trkpt lat="45.859781010076404" lon="9.031893024221063">
        <ele>640</ele>
        <time>2010-06-13T12:56:14Z</time>
      </trkpt>
      <trkpt lat="45.85977204144001" lon="9.031854970380664">
        <ele>639</ele>
        <time>2010-06-13T12:56:15Z</time>
      </trkpt>
      <trkpt lat="45.859762988984585" lon="9.031828986480832">
        <ele>638</ele>
        <time>2010-06-13T12:56:16Z</time>
      </trkpt>
      <trkpt lat="45.859754020348191" lon="9.031790010631084">
        <ele>638</ele>
        <time>2010-06-13T12:56:17Z</time>
      </trkpt>
      <trkpt lat="45.859762988984585" lon="9.031752040609717">
        <ele>638</ele>
        <time>2010-06-13T12:56:18Z</time>
      </trkpt>
      <trkpt lat="45.859762988984585" lon="9.031699988991022">
        <ele>638</ele>
        <time>2010-06-13T12:56:19Z</time>
      </trkpt>
      <trkpt lat="45.859754020348191" lon="9.031649027019739">
        <ele>636</ele>
        <time>2010-06-13T12:56:20Z</time>
      </trkpt>
      <trkpt lat="45.859744967892766" lon="9.03160996735096">
        <ele>634</ele>
        <time>2010-06-13T12:56:21Z</time>
      </trkpt>
      <trkpt lat="45.859735999256372" lon="9.031583983451128">
        <ele>632</ele>
        <time>2010-06-13T12:56:22Z</time>
      </trkpt>
      <trkpt lat="45.859727030619979" lon="9.031532015651465">
        <ele>632</ele>
        <time>2010-06-13T12:56:23Z</time>
      </trkpt>
      <trkpt lat="45.859727030619979" lon="9.031467977911234">
        <ele>632</ele>
        <time>2010-06-13T12:56:24Z</time>
      </trkpt>
      <trkpt lat="45.859727030619979" lon="9.031417015939951">
        <ele>633</ele>
        <time>2010-06-13T12:56:25Z</time>
      </trkpt>
      <trkpt lat="45.859727030619979" lon="9.031378040090203">
        <ele>634</ele>
        <time>2010-06-13T12:56:26Z</time>
      </trkpt>
      <trkpt lat="45.859744967892766" lon="9.031338980421424">
        <ele>633</ele>
        <time>2010-06-13T12:56:27Z</time>
      </trkpt>
      <trkpt lat="45.859754020348191" lon="9.031326994299889">
        <ele>633</ele>
        <time>2010-06-13T12:56:28Z</time>
      </trkpt>
      <trkpt lat="45.859762988984585" lon="9.031288018450141">
        <ele>633</ele>
        <time>2010-06-13T12:56:29Z</time>
      </trkpt>
      <trkpt lat="45.859762988984585" lon="9.031275026500225">
        <ele>633</ele>
        <time>2010-06-13T12:56:30Z</time>
      </trkpt>
      <trkpt lat="45.85977204144001" lon="9.031262034550309">
        <ele>632</ele>
        <time>2010-06-13T12:56:31Z</time>
      </trkpt>
      <trkpt lat="45.859799031168222" lon="9.031275026500225">
        <ele>632</ele>
        <time>2010-06-13T12:56:32Z</time>
      </trkpt>
      <trkpt lat="45.859807999804616" lon="9.031288018450141">
        <ele>632</ele>
        <time>2010-06-13T12:56:33Z</time>
      </trkpt>
      <trkpt lat="45.859834989532828" lon="9.031262034550309">
        <ele>633</ele>
        <time>2010-06-13T12:56:34Z</time>
      </trkpt>
      <trkpt lat="45.859861979261041" lon="9.031248958781362">
        <ele>633</ele>
        <time>2010-06-13T12:56:35Z</time>
      </trkpt>
      <trkpt lat="45.859898021444678" lon="9.03122398070991">
        <ele>632</ele>
        <time>2010-06-13T12:56:36Z</time>
      </trkpt>
      <trkpt lat="45.859933979809284" lon="9.031197996810079">
        <ele>632</ele>
        <time>2010-06-13T12:56:37Z</time>
      </trkpt>
      <trkpt lat="45.859960969537497" lon="9.031185004860163">
        <ele>632</ele>
        <time>2010-06-13T12:56:38Z</time>
      </trkpt>
      <trkpt lat="45.859997011721134" lon="9.031172012910247">
        <ele>633</ele>
        <time>2010-06-13T12:56:39Z</time>
      </trkpt>
      <trkpt lat="45.860015032812953" lon="9.031172012910247">
        <ele>633</ele>
        <time>2010-06-13T12:56:40Z</time>
      </trkpt>
      <trkpt lat="45.860024001449347" lon="9.031017031520605">
        <ele>630</ele>
        <time>2010-06-13T12:57:07Z</time>
      </trkpt>
      <trkpt lat="45.860005980357528" lon="9.030991969630122">
        <ele>630</ele>
        <time>2010-06-13T12:57:08Z</time>
      </trkpt>
      <trkpt lat="45.859978990629315" lon="9.03096598573029">
        <ele>630</ele>
        <time>2010-06-13T12:57:09Z</time>
      </trkpt>
      <trkpt lat="45.859952000901103" lon="9.030940001830459">
        <ele>630</ele>
        <time>2010-06-13T12:57:10Z</time>
      </trkpt>
      <trkpt lat="45.859943032264709" lon="9.030927009880543">
        <ele>628</ele>
        <time>2010-06-13T12:57:11Z</time>
      </trkpt>
      <trkpt lat="45.859933979809284" lon="9.030889039859176">
        <ele>628</ele>
        <time>2010-06-13T12:57:12Z</time>
      </trkpt>
      <trkpt lat="45.859915958717465" lon="9.030862972140312">
        <ele>627</ele>
        <time>2010-06-13T12:57:13Z</time>
      </trkpt>
      <trkpt lat="45.859906990081072" lon="9.03083698824048">
        <ele>626</ele>
        <time>2010-06-13T12:57:14Z</time>
      </trkpt>
      <trkpt lat="45.859888968989253" lon="9.030798012390733">
        <ele>625</ele>
        <time>2010-06-13T12:57:15Z</time>
      </trkpt>
      <trkpt lat="45.859888968989253" lon="9.030773034319282">
        <ele>623</ele>
        <time>2010-06-13T12:57:16Z</time>
      </trkpt>
      <trkpt lat="45.859888968989253" lon="9.030733974650502">
        <ele>623</ele>
        <time>2010-06-13T12:57:17Z</time>
      </trkpt>
      <trkpt lat="45.859898021444678" lon="9.03070799075067">
        <ele>622</ele>
        <time>2010-06-13T12:57:18Z</time>
      </trkpt>
      <trkpt lat="45.859898021444678" lon="9.030657028779388">
        <ele>622</ele>
        <time>2010-06-13T12:57:19Z</time>
      </trkpt>
      <trkpt lat="45.859888968989253" lon="9.030604977160692">
        <ele>621</ele>
        <time>2010-06-13T12:57:20Z</time>
      </trkpt>
      <trkpt lat="45.859871031716466" lon="9.030554015189409">
        <ele>620</ele>
        <time>2010-06-13T12:57:21Z</time>
      </trkpt>
      <trkpt lat="45.859853010624647" lon="9.030501963570714">
        <ele>619</ele>
        <time>2010-06-13T12:57:22Z</time>
      </trkpt>
      <trkpt lat="45.859843958169222" lon="9.030463993549347">
        <ele>618</ele>
        <time>2010-06-13T12:57:23Z</time>
      </trkpt>
      <trkpt lat="45.85981696844101" lon="9.030412025749683">
        <ele>618</ele>
        <time>2010-06-13T12:57:24Z</time>
      </trkpt>
      <trkpt lat="45.859799031168222" lon="9.030372966080904">
        <ele>618</ele>
        <time>2010-06-13T12:57:25Z</time>
      </trkpt>
      <trkpt lat="45.859781010076404" lon="9.030322004109621">
        <ele>617</ele>
        <time>2010-06-13T12:57:26Z</time>
      </trkpt>
      <trkpt lat="45.859754020348191" lon="9.030270036309958">
        <ele>616</ele>
        <time>2010-06-13T12:57:27Z</time>
      </trkpt>
      <trkpt lat="45.859735999256372" lon="9.030205998569727">
        <ele>616</ele>
        <time>2010-06-13T12:57:28Z</time>
      </trkpt>
      <trkpt lat="45.85970900952816" lon="9.030154030770063">
        <ele>616</ele>
        <time>2010-06-13T12:57:29Z</time>
      </trkpt>
      <trkpt lat="45.859690988436341" lon="9.030089993029833">
        <ele>616</ele>
        <time>2010-06-13T12:57:30Z</time>
      </trkpt>
      <trkpt lat="45.859682019799948" lon="9.030038025230169">
        <ele>615</ele>
        <time>2010-06-13T12:57:31Z</time>
      </trkpt>
      <trkpt lat="45.859672967344522" lon="9.029986979439855">
        <ele>614</ele>
        <time>2010-06-13T12:57:32Z</time>
      </trkpt>
      <trkpt lat="45.859690988436341" lon="9.029897041618824">
        <ele>611</ele>
        <time>2010-06-13T12:57:35Z</time>
      </trkpt>
      <trkpt lat="45.859717978164554" lon="9.029909027740359">
        <ele>611</ele>
        <time>2010-06-13T12:57:36Z</time>
      </trkpt>
      <trkpt lat="45.859762988984585" lon="9.029922019690275">
        <ele>611</ele>
        <time>2010-06-13T12:57:37Z</time>
      </trkpt>
      <trkpt lat="45.85981696844101" lon="9.029922019690275">
        <ele>610</ele>
        <time>2010-06-13T12:57:38Z</time>
      </trkpt>
      <trkpt lat="45.859871031716466" lon="9.029922019690275">
        <ele>609</ele>
        <time>2010-06-13T12:57:39Z</time>
      </trkpt>
      <trkpt lat="45.859898021444678" lon="9.029897041618824">
        <ele>609</ele>
        <time>2010-06-13T12:57:40Z</time>
      </trkpt>
      <trkpt lat="45.859952000901103" lon="9.029870973899961">
        <ele>608</ele>
        <time>2010-06-13T12:57:41Z</time>
      </trkpt>
      <trkpt lat="45.860005980357528" lon="9.029844990000129">
        <ele>608</ele>
        <time>2010-06-13T12:57:42Z</time>
      </trkpt>
      <trkpt lat="45.860060965642333" lon="9.029819006100297">
        <ele>607</ele>
        <time>2010-06-13T12:57:43Z</time>
      </trkpt>
      <trkpt lat="45.860114023089409" lon="9.029807019978762">
        <ele>606</ele>
        <time>2010-06-13T12:57:44Z</time>
      </trkpt>
      <trkpt lat="45.860168002545834" lon="9.029820011928678">
        <ele>605</ele>
        <time>2010-06-13T12:57:45Z</time>
      </trkpt>
      <trkpt lat="45.860195998102427" lon="9.029844990000129">
        <ele>604</ele>
        <time>2010-06-13T12:57:46Z</time>
      </trkpt>
      <trkpt lat="45.860231034457684" lon="9.029857981950045">
        <ele>604</ele>
        <time>2010-06-13T12:57:47Z</time>
      </trkpt>
      <trkpt lat="45.860258024185896" lon="9.029857981950045">
        <ele>603</ele>
        <time>2010-06-13T12:57:48Z</time>
      </trkpt>
      <trkpt lat="45.860286019742489" lon="9.029845995828509">
        <ele>603</ele>
        <time>2010-06-13T12:57:49Z</time>
      </trkpt>
      <trkpt lat="45.860312003642321" lon="9.029807019978762">
        <ele>601</ele>
        <time>2010-06-13T12:57:50Z</time>
      </trkpt>
      <trkpt lat="45.86033103056252" lon="9.029754968360066">
        <ele>600</ele>
        <time>2010-06-13T12:57:51Z</time>
      </trkpt>
      <trkpt lat="45.860357014462352" lon="9.029704006388784">
        <ele>598</ele>
        <time>2010-06-13T12:57:52Z</time>
      </trkpt>
      <trkpt lat="45.860376041382551" lon="9.029638962820172">
        <ele>597</ele>
        <time>2010-06-13T12:57:53Z</time>
      </trkpt>
      <trkpt lat="45.860393978655338" lon="9.029588000848889">
        <ele>596</ele>
        <time>2010-06-13T12:57:54Z</time>
      </trkpt>
      <trkpt lat="45.860438989475369" lon="9.029536033049226">
        <ele>595</ele>
        <time>2010-06-13T12:57:55Z</time>
      </trkpt>
      <trkpt lat="45.860491963103414" lon="9.029497979208827">
        <ele>594</ele>
        <time>2010-06-13T12:57:56Z</time>
      </trkpt>
      <trkpt lat="45.860556000843644" lon="9.029459003359079">
        <ele>594</ele>
        <time>2010-06-13T12:57:57Z</time>
      </trkpt>
      <trkpt lat="45.860608974471688" lon="9.029421033337712">
        <ele>594</ele>
        <time>2010-06-13T12:57:58Z</time>
      </trkpt>
      <trkpt lat="45.860663959756494" lon="9.029381973668933">
        <ele>593</ele>
        <time>2010-06-13T12:57:59Z</time>
      </trkpt>
      <trkpt lat="45.86071802303195" lon="9.029342997819185">
        <ele>593</ele>
        <time>2010-06-13T12:58:00Z</time>
      </trkpt>
      <trkpt lat="45.860772002488375" lon="9.029305027797818">
        <ele>592</ele>
        <time>2010-06-13T12:58:01Z</time>
      </trkpt>
      <trkpt lat="45.860817013308406" lon="9.029265968129039">
        <ele>592</ele>
        <time>2010-06-13T12:58:02Z</time>
      </trkpt>
      <trkpt lat="45.860870992764831" lon="9.029239984229207">
        <ele>590</ele>
        <time>2010-06-13T12:58:03Z</time>
      </trkpt>
      <trkpt lat="45.860934024676681" lon="9.029239984229207">
        <ele>590</ele>
        <time>2010-06-13T12:58:04Z</time>
      </trkpt>
      <trkpt lat="45.860979035496712" lon="9.029226992279291">
        <ele>588</ele>
        <time>2010-06-13T12:58:05Z</time>
      </trkpt>
      <trkpt lat="45.861033014953136" lon="9.02920201420784">
        <ele>588</ele>
        <time>2010-06-13T12:58:06Z</time>
      </trkpt>
      <trkpt lat="45.861078025773168" lon="9.029163038358092">
        <ele>588</ele>
        <time>2010-06-13T12:58:07Z</time>
      </trkpt>
      <trkpt lat="45.861132005229592" lon="9.029123978689313">
        <ele>588</ele>
        <time>2010-06-13T12:58:08Z</time>
      </trkpt>
      <trkpt lat="45.861177016049623" lon="9.029086008667946">
        <ele>587</ele>
        <time>2010-06-13T12:58:09Z</time>
      </trkpt>
      <trkpt lat="45.861204005777836" lon="9.029047032818198">
        <ele>587</ele>
        <time>2010-06-13T12:58:10Z</time>
      </trkpt>
      <trkpt lat="45.861230995506048" lon="9.029020965099335">
        <ele>586</ele>
        <time>2010-06-13T12:58:11Z</time>
      </trkpt>
      <trkpt lat="45.861249016597867" lon="9.028995987027884">
        <ele>586</ele>
        <time>2010-06-13T12:58:12Z</time>
      </trkpt>
      <trkpt lat="45.861257985234261" lon="9.028982995077968">
        <ele>586</ele>
        <time>2010-06-13T12:58:13Z</time>
      </trkpt>
      <trkpt lat="45.861267037689686" lon="9.028982995077968">
        <ele>585</ele>
        <time>2010-06-13T12:58:14Z</time>
      </trkpt>
      <trkpt lat="45.861276006326079" lon="9.028776967898011">
        <ele>584</ele>
        <time>2010-06-13T12:58:49Z</time>
      </trkpt>
      <trkpt lat="45.861276006326079" lon="9.028750983998179">
        <ele>583</ele>
        <time>2010-06-13T12:58:50Z</time>
      </trkpt>
      <trkpt lat="45.861284974962473" lon="9.028699016198516">
        <ele>583</ele>
        <time>2010-06-13T12:58:51Z</time>
      </trkpt>
      <trkpt lat="45.861284974962473" lon="9.028647970408201">
        <ele>583</ele>
        <time>2010-06-13T12:58:52Z</time>
      </trkpt>
      <trkpt lat="45.861294027417898" lon="9.028584016487002">
        <ele>582</ele>
        <time>2010-06-13T12:58:53Z</time>
      </trkpt>
      <trkpt lat="45.861294027417898" lon="9.028505980968475">
        <ele>581</ele>
        <time>2010-06-13T12:58:54Z</time>
      </trkpt>
      <trkpt lat="45.861294027417898" lon="9.028429035097361">
        <ele>580</ele>
        <time>2010-06-13T12:58:55Z</time>
      </trkpt>
      <trkpt lat="45.861294027417898" lon="9.028339013457298">
        <ele>580</ele>
        <time>2010-06-13T12:58:56Z</time>
      </trkpt>
      <trkpt lat="45.861321017146111" lon="9.028248991817236">
        <ele>580</ele>
        <time>2010-06-13T12:58:57Z</time>
      </trkpt>
      <trkpt lat="45.861356975510716" lon="9.028157964348793">
        <ele>579</ele>
        <time>2010-06-13T12:58:58Z</time>
      </trkpt>
      <trkpt lat="45.861393017694354" lon="9.028081018477678">
        <ele>578</ele>
        <time>2010-06-13T12:58:59Z</time>
      </trkpt>
      <trkpt lat="45.86142897605896" lon="9.028003988787532">
        <ele>577</ele>
        <time>2010-06-13T12:59:00Z</time>
      </trkpt>
      <trkpt lat="45.861465018242598" lon="9.027952020987868">
        <ele>577</ele>
        <time>2010-06-13T12:59:01Z</time>
      </trkpt>
      <trkpt lat="45.861510029062629" lon="9.02791396714747">
        <ele>577</ele>
        <time>2010-06-13T12:59:02Z</time>
      </trkpt>
      <trkpt lat="45.861564008519053" lon="9.027900975197554">
        <ele>577</ele>
        <time>2010-06-13T12:59:03Z</time>
      </trkpt>
      <trkpt lat="45.861617987975478" lon="9.027874991297722">
        <ele>576</ele>
        <time>2010-06-13T12:59:04Z</time>
      </trkpt>
      <trkpt lat="45.861662998795509" lon="9.027874991297722">
        <ele>576</ele>
        <time>2010-06-13T12:59:05Z</time>
      </trkpt>
      <trkpt lat="45.861699040979147" lon="9.027861999347806">
        <ele>576</ele>
        <time>2010-06-13T12:59:06Z</time>
      </trkpt>
      <trkpt lat="45.861734999343753" lon="9.027861999347806">
        <ele>575</ele>
        <time>2010-06-13T12:59:07Z</time>
      </trkpt>
      <trkpt lat="45.861780010163784" lon="9.02784900739789">
        <ele>574</ele>
        <time>2010-06-13T12:59:08Z</time>
      </trkpt>
      <trkpt lat="45.861825020983815" lon="9.02784900739789">
        <ele>574</ele>
        <time>2010-06-13T12:59:09Z</time>
      </trkpt>
      <trkpt lat="45.861870031803846" lon="9.027837021276355">
        <ele>575</ele>
        <time>2010-06-13T12:59:10Z</time>
      </trkpt>
      <trkpt lat="45.861914958804846" lon="9.027824029326439">
        <ele>574</ele>
        <time>2010-06-13T12:59:11Z</time>
      </trkpt>
      <trkpt lat="45.861969022080302" lon="9.027824029326439">
        <ele>573</ele>
        <time>2010-06-13T12:59:12Z</time>
      </trkpt>
      <trkpt lat="45.86203197017312" lon="9.027811037376523">
        <ele>572</ele>
        <time>2010-06-13T12:59:13Z</time>
      </trkpt>
      <trkpt lat="45.862113023176789" lon="9.02778496965766">
        <ele>571</ele>
        <time>2010-06-13T12:59:14Z</time>
      </trkpt>
      <trkpt lat="45.862193992361426" lon="9.027771977707744">
        <ele>571</ele>
        <time>2010-06-13T12:59:15Z</time>
      </trkpt>
      <trkpt lat="45.862274961546063" lon="9.027758985757828">
        <ele>570</ele>
        <time>2010-06-13T12:59:16Z</time>
      </trkpt>
      <trkpt lat="45.862364983186126" lon="9.027746999636293">
        <ele>569</ele>
        <time>2010-06-13T12:59:17Z</time>
      </trkpt>
      <trkpt lat="45.862455004826188" lon="9.027734007686377">
        <ele>568</ele>
        <time>2010-06-13T12:59:18Z</time>
      </trkpt>
      <trkpt lat="45.86254502646625" lon="9.027721015736461">
        <ele>567</ele>
        <time>2010-06-13T12:59:19Z</time>
      </trkpt>
      <trkpt lat="45.862634964287281" lon="9.027695031836629">
        <ele>567</ele>
        <time>2010-06-13T12:59:20Z</time>
      </trkpt>
      <trkpt lat="45.862806038931012" lon="9.027669969946146">
        <ele>564</ele>
        <time>2010-06-13T12:59:22Z</time>
      </trkpt>
      <trkpt lat="45.862878039479256" lon="9.02765697799623">
        <ele>562</ele>
        <time>2010-06-13T12:59:23Z</time>
      </trkpt>
      <trkpt lat="45.862959008663893" lon="9.027669969946146">
        <ele>561</ele>
        <time>2010-06-13T12:59:24Z</time>
      </trkpt>
      <trkpt lat="45.863022040575743" lon="9.027734007686377">
        <ele>560</ele>
        <time>2010-06-13T12:59:25Z</time>
      </trkpt>
      <trkpt lat="45.863094041123986" lon="9.027837021276355">
        <ele>559</ele>
        <time>2010-06-13T12:59:26Z</time>
      </trkpt>
      <trkpt lat="45.863156989216805" lon="9.027940034866333">
        <ele>559</ele>
        <time>2010-06-13T12:59:27Z</time>
      </trkpt>
      <trkpt lat="45.863228989765048" lon="9.02804296463728">
        <ele>557</ele>
        <time>2010-06-13T12:59:28Z</time>
      </trkpt>
      <trkpt lat="45.863282969221473" lon="9.02817196212709">
        <ele>557</ele>
        <time>2010-06-13T12:59:29Z</time>
      </trkpt>
      <trkpt lat="45.863327980041504" lon="9.028287967666984">
        <ele>557</ele>
        <time>2010-06-13T12:59:30Z</time>
      </trkpt>
      <trkpt lat="45.863372990861535" lon="9.028390981256962">
        <ele>557</ele>
        <time>2010-06-13T12:59:31Z</time>
      </trkpt>
      <trkpt lat="45.863436022773385" lon="9.028456024825573">
        <ele>556</ele>
        <time>2010-06-13T12:59:32Z</time>
      </trkpt>
      <trkpt lat="45.863508023321629" lon="9.028506986796856">
        <ele>556</ele>
        <time>2010-06-13T12:59:33Z</time>
      </trkpt>
      <trkpt lat="45.863588992506266" lon="9.028519978746772">
        <ele>556</ele>
        <time>2010-06-13T12:59:34Z</time>
      </trkpt>
      <trkpt lat="45.863679014146328" lon="9.028545962646604">
        <ele>555</ele>
        <time>2010-06-13T12:59:35Z</time>
      </trkpt>
      <trkpt lat="45.863751014694571" lon="9.028598014265299">
        <ele>555</ele>
        <time>2010-06-13T12:59:36Z</time>
      </trkpt>
      <trkpt lat="45.863804994150996" lon="9.028661968186498">
        <ele>555</ele>
        <time>2010-06-13T12:59:37Z</time>
      </trkpt>
      <trkpt lat="45.863868026062846" lon="9.028714019805193">
        <ele>555</ele>
        <time>2010-06-13T12:59:38Z</time>
      </trkpt>
      <trkpt lat="45.863930974155664" lon="9.028777973726392">
        <ele>554</ele>
        <time>2010-06-13T12:59:39Z</time>
      </trkpt>
      <trkpt lat="45.863985037431121" lon="9.028830025345087">
        <ele>554</ele>
        <time>2010-06-13T12:59:40Z</time>
      </trkpt>
      <trkpt lat="45.864039016887546" lon="9.02888098731637">
        <ele>555</ele>
        <time>2010-06-13T12:59:41Z</time>
      </trkpt>
      <trkpt lat="45.864101964980364" lon="9.028933038935065">
        <ele>555</ele>
        <time>2010-06-13T12:59:42Z</time>
      </trkpt>
      <trkpt lat="45.86415602825582" lon="9.028984000906348">
        <ele>555</ele>
        <time>2010-06-13T12:59:43Z</time>
      </trkpt>
      <trkpt lat="45.864201039075851" lon="9.029035968706012">
        <ele>555</ele>
        <time>2010-06-13T12:59:44Z</time>
      </trkpt>
      <trkpt lat="45.864255018532276" lon="9.029087014496326">
        <ele>554</ele>
        <time>2010-06-13T12:59:45Z</time>
      </trkpt>
      <trkpt lat="45.864308997988701" lon="9.02913898229599">
        <ele>554</ele>
        <time>2010-06-13T12:59:46Z</time>
      </trkpt>
      <trkpt lat="45.864354008808732" lon="9.029191033914685">
        <ele>554</ele>
        <time>2010-06-13T12:59:47Z</time>
      </trkpt>
      <trkpt lat="45.864389967173338" lon="9.029241995885968">
        <ele>553</ele>
        <time>2010-06-13T12:59:48Z</time>
      </trkpt>
      <trkpt lat="45.864434977993369" lon="9.029280971735716">
        <ele>553</ele>
        <time>2010-06-13T12:59:49Z</time>
      </trkpt>
      <trkpt lat="45.8644799888134" lon="9.029332017526031">
        <ele>553</ele>
        <time>2010-06-13T12:59:50Z</time>
      </trkpt>
      <trkpt lat="45.864524999633431" lon="9.029370993375778">
        <ele>553</ele>
        <time>2010-06-13T12:59:51Z</time>
      </trkpt>
      <trkpt lat="45.864615021273494" lon="9.029422039166093">
        <ele>553</ele>
        <time>2010-06-13T12:59:53Z</time>
      </trkpt>
      <trkpt lat="45.864660032093525" lon="9.029448023065925">
        <ele>553</ele>
        <time>2010-06-13T12:59:54Z</time>
      </trkpt>
      <trkpt lat="45.864704959094524" lon="9.029461015015841">
        <ele>553</ele>
        <time>2010-06-13T12:59:55Z</time>
      </trkpt>
      <trkpt lat="45.864759022369981" lon="9.029474006965756">
        <ele>553</ele>
        <time>2010-06-13T12:59:56Z</time>
      </trkpt>
      <trkpt lat="45.864804033190012" lon="9.029486998915672">
        <ele>553</ele>
        <time>2010-06-13T12:59:57Z</time>
      </trkpt>
      <trkpt lat="45.864858012646437" lon="9.029486998915672">
        <ele>553</ele>
        <time>2010-06-13T12:59:58Z</time>
      </trkpt>
      <trkpt lat="45.864911992102861" lon="9.029486998915672">
        <ele>553</ele>
        <time>2010-06-13T12:59:59Z</time>
      </trkpt>
      <trkpt lat="45.865002013742924" lon="9.029486998915672">
        <ele>552</ele>
        <time>2010-06-13T13:00:01Z</time>
      </trkpt>
      <trkpt lat="45.865055993199348" lon="9.029486998915672">
        <ele>552</ele>
        <time>2010-06-13T13:00:02Z</time>
      </trkpt>
      <trkpt lat="45.86510100401938" lon="9.029486998915672">
        <ele>552</ele>
        <time>2010-06-13T13:00:03Z</time>
      </trkpt>
      <trkpt lat="45.865146014839411" lon="9.029499990865588">
        <ele>552</ele>
        <time>2010-06-13T13:00:04Z</time>
      </trkpt>
      <trkpt lat="45.865191025659442" lon="9.029499990865588">
        <ele>552</ele>
        <time>2010-06-13T13:00:05Z</time>
      </trkpt>
      <trkpt lat="45.865236036479473" lon="9.029499990865588">
        <ele>552</ele>
        <time>2010-06-13T13:00:06Z</time>
      </trkpt>
      <trkpt lat="45.865280963480473" lon="9.029499990865588">
        <ele>552</ele>
        <time>2010-06-13T13:00:07Z</time>
      </trkpt>
      <trkpt lat="45.865407027304173" lon="9.029499990865588">
        <ele>552</ele>
        <time>2010-06-13T13:00:10Z</time>
      </trkpt>
      <trkpt lat="45.865452038124204" lon="9.029499990865588">
        <ele>552</ele>
        <time>2010-06-13T13:00:11Z</time>
      </trkpt>
      <trkpt lat="45.865496965125203" lon="9.029512982815504">
        <ele>552</ele>
        <time>2010-06-13T13:00:12Z</time>
      </trkpt>
      <trkpt lat="45.865541975945234" lon="9.029499990865588">
        <ele>552</ele>
        <time>2010-06-13T13:00:13Z</time>
      </trkpt>
      <trkpt lat="45.865631997585297" lon="9.029512982815504">
        <ele>551</ele>
        <time>2010-06-13T13:00:15Z</time>
      </trkpt>
      <trkpt lat="45.865685977041721" lon="9.029512982815504">
        <ele>551</ele>
        <time>2010-06-13T13:00:16Z</time>
      </trkpt>
      <trkpt lat="45.865730987861753" lon="9.02952597476542">
        <ele>551</ele>
        <time>2010-06-13T13:00:17Z</time>
      </trkpt>
      <trkpt lat="45.865775998681784" lon="9.02952597476542">
        <ele>552</ele>
        <time>2010-06-13T13:00:18Z</time>
      </trkpt>
      <trkpt lat="45.865829978138208" lon="9.02952597476542">
        <ele>551</ele>
        <time>2010-06-13T13:00:19Z</time>
      </trkpt>
      <trkpt lat="45.86587498895824" lon="9.02952597476542">
        <ele>551</ele>
        <time>2010-06-13T13:00:20Z</time>
      </trkpt>
      <trkpt lat="45.865928968414664" lon="9.02952597476542">
        <ele>552</ele>
        <time>2010-06-13T13:00:21Z</time>
      </trkpt>
      <trkpt lat="45.865973979234695" lon="9.02952597476542">
        <ele>552</ele>
        <time>2010-06-13T13:00:22Z</time>
      </trkpt>
      <trkpt lat="45.866018990054727" lon="9.02952597476542">
        <ele>552</ele>
        <time>2010-06-13T13:00:23Z</time>
      </trkpt>
      <trkpt lat="45.866064000874758" lon="9.029538966715336">
        <ele>551</ele>
        <time>2010-06-13T13:00:24Z</time>
      </trkpt>
      <trkpt lat="45.866109011694789" lon="9.029538966715336">
        <ele>551</ele>
        <time>2010-06-13T13:00:25Z</time>
      </trkpt>
      <trkpt lat="45.86615402251482" lon="9.029551958665252">
        <ele>552</ele>
        <time>2010-06-13T13:00:26Z</time>
      </trkpt>
      <trkpt lat="45.866199033334851" lon="9.029565034434199">
        <ele>552</ele>
        <time>2010-06-13T13:00:27Z</time>
      </trkpt>
      <trkpt lat="45.866243960335851" lon="9.029578026384115">
        <ele>552</ele>
        <time>2010-06-13T13:00:28Z</time>
      </trkpt>
      <trkpt lat="45.866280002519488" lon="9.029591018334031">
        <ele>552</ele>
        <time>2010-06-13T13:00:29Z</time>
      </trkpt>
      <trkpt lat="45.86632501333952" lon="9.029604010283947">
        <ele>552</ele>
        <time>2010-06-13T13:00:30Z</time>
      </trkpt>
      <trkpt lat="45.866370024159551" lon="9.029629994183779">
        <ele>552</ele>
        <time>2010-06-13T13:00:31Z</time>
      </trkpt>
      <trkpt lat="45.866405982524157" lon="9.029641980305314">
        <ele>551</ele>
        <time>2010-06-13T13:00:32Z</time>
      </trkpt>
      <trkpt lat="45.866450993344188" lon="9.029667964205146">
        <ele>552</ele>
        <time>2010-06-13T13:00:33Z</time>
      </trkpt>
      <trkpt lat="45.866487035527825" lon="9.029681039974093">
        <ele>552</ele>
        <time>2010-06-13T13:00:34Z</time>
      </trkpt>
      <trkpt lat="45.866522993892431" lon="9.029707023873925">
        <ele>552</ele>
        <time>2010-06-13T13:00:35Z</time>
      </trkpt>
      <trkpt lat="45.866559036076069" lon="9.029745999723673">
        <ele>552</ele>
        <time>2010-06-13T13:00:36Z</time>
      </trkpt>
      <trkpt lat="45.866594994440675" lon="9.02978396974504">
        <ele>552</ele>
        <time>2010-06-13T13:00:37Z</time>
      </trkpt>
      <trkpt lat="45.866621984168887" lon="9.029823029413819">
        <ele>552</ele>
        <time>2010-06-13T13:00:38Z</time>
      </trkpt>
      <trkpt lat="45.866658026352525" lon="9.029874997213483">
        <ele>551</ele>
        <time>2010-06-13T13:00:39Z</time>
      </trkpt>
      <trkpt lat="45.866685016080737" lon="9.02991296723485">
        <ele>551</ele>
        <time>2010-06-13T13:00:40Z</time>
      </trkpt>
      <trkpt lat="45.866720974445343" lon="9.029978010803461">
        <ele>551</ele>
        <time>2010-06-13T13:00:41Z</time>
      </trkpt>
      <trkpt lat="45.866738995537162" lon="9.03004196472466">
        <ele>551</ele>
        <time>2010-06-13T13:00:42Z</time>
      </trkpt>
      <trkpt lat="45.866765985265374" lon="9.030107008293271">
        <ele>551</ele>
        <time>2010-06-13T13:00:43Z</time>
      </trkpt>
      <trkpt lat="45.866784006357193" lon="9.030184037983418">
        <ele>552</ele>
        <time>2010-06-13T13:00:44Z</time>
      </trkpt>
      <trkpt lat="45.866792974993587" lon="9.030260983854532">
        <ele>551</ele>
        <time>2010-06-13T13:00:45Z</time>
      </trkpt>
      <trkpt lat="45.866802027449012" lon="9.030351005494595">
        <ele>551</ele>
        <time>2010-06-13T13:00:46Z</time>
      </trkpt>
      <trkpt lat="45.866792974993587" lon="9.030442032963038">
        <ele>550</ele>
        <time>2010-06-13T13:00:47Z</time>
      </trkpt>
      <trkpt lat="45.866784006357193" lon="9.030544962733984">
        <ele>549</ele>
        <time>2010-06-13T13:00:48Z</time>
      </trkpt>
      <trkpt lat="45.866775037720799" lon="9.030660968273878">
        <ele>549</ele>
        <time>2010-06-13T13:00:49Z</time>
      </trkpt>
      <trkpt lat="45.866757016628981" lon="9.030763981863856">
        <ele>550</ele>
        <time>2010-06-13T13:00:50Z</time>
      </trkpt>
      <trkpt lat="45.866730026900768" lon="9.03087898157537">
        <ele>549</ele>
        <time>2010-06-13T13:00:51Z</time>
      </trkpt>
      <trkpt lat="45.866702031344175" lon="9.030995992943645">
        <ele>549</ele>
        <time>2010-06-13T13:00:52Z</time>
      </trkpt>
      <trkpt lat="45.866657020524144" lon="9.031099006533623">
        <ele>547</ele>
        <time>2010-06-13T13:00:53Z</time>
      </trkpt>
      <trkpt lat="45.866612009704113" lon="9.031189028173685">
        <ele>547</ele>
        <time>2010-06-13T13:00:54Z</time>
      </trkpt>
      <trkpt lat="45.866575967520475" lon="9.0312659740448">
        <ele>547</ele>
        <time>2010-06-13T13:00:55Z</time>
      </trkpt>
      <trkpt lat="45.86654101498425" lon="9.03133001178503">
        <ele>546</ele>
        <time>2010-06-13T13:00:56Z</time>
      </trkpt>
      <trkpt lat="45.866531040519476" lon="9.03139497153461">
        <ele>546</ele>
        <time>2010-06-13T13:00:57Z</time>
      </trkpt>
      <trkpt lat="45.866548977792263" lon="9.031446017324925">
        <ele>545</ele>
        <time>2010-06-13T13:00:58Z</time>
      </trkpt>
      <trkpt lat="45.866575967520475" lon="9.031472001224756">
        <ele>545</ele>
        <time>2010-06-13T13:00:59Z</time>
      </trkpt>
      <trkpt lat="45.866612009704113" lon="9.031484993174672">
        <ele>545</ele>
        <time>2010-06-13T13:01:00Z</time>
      </trkpt>
      <trkpt lat="45.866702031344175" lon="9.031472001224756">
        <ele>545</ele>
        <time>2010-06-13T13:01:02Z</time>
      </trkpt>
      <trkpt lat="45.866746958345175" lon="9.031472001224756">
        <ele>545</ele>
        <time>2010-06-13T13:01:03Z</time>
      </trkpt>
      <trkpt lat="45.866791969165206" lon="9.03145900927484">
        <ele>545</ele>
        <time>2010-06-13T13:01:04Z</time>
      </trkpt>
      <trkpt lat="45.866829017177224" lon="9.03145900927484">
        <ele>545</ele>
        <time>2010-06-13T13:01:05Z</time>
      </trkpt>
      <trkpt lat="45.866856006905437" lon="9.031434031203389">
        <ele>544</ele>
        <time>2010-06-13T13:01:06Z</time>
      </trkpt>
      <trkpt lat="45.866874027997255" lon="9.031434031203389">
        <ele>544</ele>
        <time>2010-06-13T13:01:07Z</time>
      </trkpt>
      <trkpt lat="45.866881990805268" lon="9.031421039253473">
        <ele>544</ele>
        <time>2010-06-13T13:01:08Z</time>
      </trkpt>
      <trkpt lat="45.866890959441662" lon="9.031421039253473">
        <ele>544</ele>
        <time>2010-06-13T13:01:09Z</time>
      </trkpt>
      <trkpt lat="45.866901017725468" lon="9.031421039253473">
        <ele>544</ele>
        <time>2010-06-13T13:01:11Z</time>
      </trkpt>
    </trkseg>
  </trk>

</gpx>
